<?xml version="1.0" encoding="UTF-8" standalone="no" ?>
<gpx xmlns="http://www.topografix.com/GPX/1/1" xmlns:xsi="http://www.w3.org/2001/XMLSchema-instance" xsi:schemaLocation="http://www.topografix.com/GPX/1/1 http://www.topografix.com/GPX/1/1/gpx.xsd" version="1.1" creator="VisuGPX - https://www.visugpx.com">
  <metadata>
    <name>Besançon Tour 3</name>
  </metadata>
  <trk>
    <name><![CDATA[Besançon Tour 3_1]]></name>
    <trkseg>
      <trkpt lat="47.22995" lon="6.0409">
        <ele>240.4</ele>
        <time>2024-08-05T06:18:11Z</time>
      </trkpt>
      <trkpt lat="47.23" lon="6.04085">
        <ele>246.4</ele>
        <time>2024-08-05T06:18:12Z</time>
      </trkpt>
      <trkpt lat="47.23005" lon="6.0408">
        <ele>246.4</ele>
        <time>2024-08-05T06:18:13Z</time>
      </trkpt>
      <trkpt lat="47.2301" lon="6.04076">
        <ele>246.8</ele>
        <time>2024-08-05T06:18:14Z</time>
      </trkpt>
      <trkpt lat="47.23015" lon="6.04071">
        <ele>246.6</ele>
        <time>2024-08-05T06:18:15Z</time>
      </trkpt>
      <trkpt lat="47.23021" lon="6.04066">
        <ele>246.8</ele>
        <time>2024-08-05T06:18:16Z</time>
      </trkpt>
      <trkpt lat="47.23026" lon="6.04062">
        <ele>246.6</ele>
        <time>2024-08-05T06:18:17Z</time>
      </trkpt>
      <trkpt lat="47.23031" lon="6.04058">
        <ele>246.6</ele>
        <time>2024-08-05T06:18:18Z</time>
      </trkpt>
      <trkpt lat="47.23036" lon="6.04053">
        <ele>246.8</ele>
        <time>2024-08-05T06:18:19Z</time>
      </trkpt>
      <trkpt lat="47.2304" lon="6.04049">
        <ele>246.8</ele>
        <time>2024-08-05T06:18:20Z</time>
      </trkpt>
      <trkpt lat="47.23044" lon="6.04045">
        <ele>246.6</ele>
        <time>2024-08-05T06:18:21Z</time>
      </trkpt>
      <trkpt lat="47.23049" lon="6.04041">
        <ele>246.8</ele>
        <time>2024-08-05T06:18:22Z</time>
      </trkpt>
      <trkpt lat="47.23053" lon="6.04038">
        <ele>246.8</ele>
        <time>2024-08-05T06:18:23Z</time>
      </trkpt>
      <trkpt lat="47.23057" lon="6.04034">
        <ele>247</ele>
        <time>2024-08-05T06:18:24Z</time>
      </trkpt>
      <trkpt lat="47.23061" lon="6.0403">
        <ele>247</ele>
        <time>2024-08-05T06:18:25Z</time>
      </trkpt>
      <trkpt lat="47.23065" lon="6.04026">
        <ele>247.2</ele>
        <time>2024-08-05T06:18:26Z</time>
      </trkpt>
      <trkpt lat="47.23069" lon="6.04022">
        <ele>247.2</ele>
        <time>2024-08-05T06:18:27Z</time>
      </trkpt>
      <trkpt lat="47.23074" lon="6.04018">
        <ele>247.4</ele>
        <time>2024-08-05T06:18:28Z</time>
      </trkpt>
      <trkpt lat="47.23078" lon="6.04014">
        <ele>247.2</ele>
        <time>2024-08-05T06:18:29Z</time>
      </trkpt>
      <trkpt lat="47.23082" lon="6.0401">
        <ele>247.2</ele>
        <time>2024-08-05T06:18:30Z</time>
      </trkpt>
      <trkpt lat="47.23085" lon="6.04006">
        <ele>247</ele>
        <time>2024-08-05T06:18:31Z</time>
      </trkpt>
      <trkpt lat="47.2309" lon="6.04002">
        <ele>247</ele>
        <time>2024-08-05T06:18:32Z</time>
      </trkpt>
      <trkpt lat="47.23094" lon="6.03999">
        <ele>247</ele>
        <time>2024-08-05T06:18:33Z</time>
      </trkpt>
      <trkpt lat="47.23098" lon="6.03994">
        <ele>247</ele>
        <time>2024-08-05T06:18:34Z</time>
      </trkpt>
      <trkpt lat="47.23097" lon="6.03982">
        <ele>247.2</ele>
        <time>2024-08-05T06:18:35Z</time>
      </trkpt>
      <trkpt lat="47.23101" lon="6.03977">
        <ele>247.2</ele>
        <time>2024-08-05T06:18:36Z</time>
      </trkpt>
      <trkpt lat="47.23104" lon="6.03972">
        <ele>247.2</ele>
        <time>2024-08-05T06:18:37Z</time>
      </trkpt>
      <trkpt lat="47.23108" lon="6.03968">
        <ele>247.2</ele>
        <time>2024-08-05T06:18:38Z</time>
      </trkpt>
      <trkpt lat="47.23112" lon="6.03964">
        <ele>247.2</ele>
        <time>2024-08-05T06:18:39Z</time>
      </trkpt>
      <trkpt lat="47.23117" lon="6.0396">
        <ele>247.2</ele>
        <time>2024-08-05T06:18:40Z</time>
      </trkpt>
      <trkpt lat="47.2312" lon="6.03956">
        <ele>247.4</ele>
        <time>2024-08-05T06:18:41Z</time>
      </trkpt>
      <trkpt lat="47.23124" lon="6.03952">
        <ele>247.4</ele>
        <time>2024-08-05T06:18:42Z</time>
      </trkpt>
      <trkpt lat="47.23127" lon="6.03946">
        <ele>247.4</ele>
        <time>2024-08-05T06:18:43Z</time>
      </trkpt>
      <trkpt lat="47.2313" lon="6.03941">
        <ele>247.4</ele>
        <time>2024-08-05T06:18:44Z</time>
      </trkpt>
      <trkpt lat="47.23134" lon="6.03936">
        <ele>247.4</ele>
        <time>2024-08-05T06:18:45Z</time>
      </trkpt>
      <trkpt lat="47.23137" lon="6.03931">
        <ele>247.2</ele>
        <time>2024-08-05T06:18:46Z</time>
      </trkpt>
      <trkpt lat="47.23141" lon="6.03926">
        <ele>247.2</ele>
        <time>2024-08-05T06:18:47Z</time>
      </trkpt>
      <trkpt lat="47.23143" lon="6.0392">
        <ele>247.2</ele>
        <time>2024-08-05T06:18:48Z</time>
      </trkpt>
      <trkpt lat="47.23145" lon="6.03914">
        <ele>247.4</ele>
        <time>2024-08-05T06:18:49Z</time>
      </trkpt>
      <trkpt lat="47.23144" lon="6.0391">
        <ele>247.4</ele>
        <time>2024-08-05T06:18:50Z</time>
      </trkpt>
      <trkpt lat="47.23142" lon="6.03907">
        <ele>247.4</ele>
        <time>2024-08-05T06:18:51Z</time>
      </trkpt>
      <trkpt lat="47.23139" lon="6.03903">
        <ele>247.4</ele>
        <time>2024-08-05T06:18:52Z</time>
      </trkpt>
      <trkpt lat="47.23136" lon="6.03897">
        <ele>247.4</ele>
        <time>2024-08-05T06:18:53Z</time>
      </trkpt>
      <trkpt lat="47.23134" lon="6.03893">
        <ele>247.2</ele>
        <time>2024-08-05T06:18:54Z</time>
      </trkpt>
      <trkpt lat="47.23133" lon="6.03888">
        <ele>247.4</ele>
        <time>2024-08-05T06:18:55Z</time>
      </trkpt>
      <trkpt lat="47.23132" lon="6.03885">
        <ele>247.2</ele>
        <time>2024-08-05T06:18:56Z</time>
      </trkpt>
      <trkpt lat="47.23135" lon="6.03881">
        <ele>247.2</ele>
        <time>2024-08-05T06:18:57Z</time>
      </trkpt>
      <trkpt lat="47.23138" lon="6.03877">
        <ele>247.2</ele>
        <time>2024-08-05T06:18:58Z</time>
      </trkpt>
      <trkpt lat="47.23142" lon="6.03873">
        <ele>247.2</ele>
        <time>2024-08-05T06:18:59Z</time>
      </trkpt>
      <trkpt lat="47.23146" lon="6.03869">
        <ele>247.2</ele>
        <time>2024-08-05T06:19:00Z</time>
      </trkpt>
      <trkpt lat="47.2315" lon="6.03865">
        <ele>247.2</ele>
        <time>2024-08-05T06:19:01Z</time>
      </trkpt>
      <trkpt lat="47.23155" lon="6.03861">
        <ele>247.2</ele>
        <time>2024-08-05T06:19:02Z</time>
      </trkpt>
      <trkpt lat="47.2316" lon="6.03856">
        <ele>247</ele>
        <time>2024-08-05T06:19:03Z</time>
      </trkpt>
      <trkpt lat="47.23164" lon="6.03852">
        <ele>247</ele>
        <time>2024-08-05T06:19:04Z</time>
      </trkpt>
      <trkpt lat="47.23169" lon="6.03848">
        <ele>247</ele>
        <time>2024-08-05T06:19:05Z</time>
      </trkpt>
      <trkpt lat="47.23174" lon="6.03843">
        <ele>247</ele>
        <time>2024-08-05T06:19:06Z</time>
      </trkpt>
      <trkpt lat="47.23178" lon="6.03838">
        <ele>247</ele>
        <time>2024-08-05T06:19:07Z</time>
      </trkpt>
      <trkpt lat="47.23182" lon="6.03834">
        <ele>247</ele>
        <time>2024-08-05T06:19:08Z</time>
      </trkpt>
      <trkpt lat="47.23187" lon="6.03829">
        <ele>246.8</ele>
        <time>2024-08-05T06:19:09Z</time>
      </trkpt>
      <trkpt lat="47.23191" lon="6.03824">
        <ele>247</ele>
        <time>2024-08-05T06:19:10Z</time>
      </trkpt>
      <trkpt lat="47.23196" lon="6.03819">
        <ele>247</ele>
        <time>2024-08-05T06:19:11Z</time>
      </trkpt>
      <trkpt lat="47.232" lon="6.03814">
        <ele>247</ele>
        <time>2024-08-05T06:19:12Z</time>
      </trkpt>
      <trkpt lat="47.23204" lon="6.03808">
        <ele>247</ele>
        <time>2024-08-05T06:19:13Z</time>
      </trkpt>
      <trkpt lat="47.23209" lon="6.038">
        <ele>247</ele>
        <time>2024-08-05T06:19:14Z</time>
      </trkpt>
      <trkpt lat="47.23213" lon="6.03794">
        <ele>247</ele>
        <time>2024-08-05T06:19:15Z</time>
      </trkpt>
      <trkpt lat="47.23217" lon="6.03789">
        <ele>246.8</ele>
        <time>2024-08-05T06:19:16Z</time>
      </trkpt>
      <trkpt lat="47.2322" lon="6.03784">
        <ele>247</ele>
        <time>2024-08-05T06:19:17Z</time>
      </trkpt>
      <trkpt lat="47.23223" lon="6.0378">
        <ele>247</ele>
        <time>2024-08-05T06:19:18Z</time>
      </trkpt>
      <trkpt lat="47.23226" lon="6.03777">
        <ele>246.8</ele>
        <time>2024-08-05T06:19:19Z</time>
      </trkpt>
      <trkpt lat="47.23229" lon="6.03771">
        <ele>246.8</ele>
        <time>2024-08-05T06:19:20Z</time>
      </trkpt>
      <trkpt lat="47.23232" lon="6.03767">
        <ele>246.8</ele>
        <time>2024-08-05T06:19:21Z</time>
      </trkpt>
      <trkpt lat="47.23236" lon="6.03762">
        <ele>247</ele>
        <time>2024-08-05T06:19:22Z</time>
      </trkpt>
      <trkpt lat="47.23241" lon="6.03759">
        <ele>247</ele>
        <time>2024-08-05T06:19:23Z</time>
      </trkpt>
      <trkpt lat="47.23247" lon="6.03762">
        <ele>246.8</ele>
        <time>2024-08-05T06:19:24Z</time>
      </trkpt>
      <trkpt lat="47.23253" lon="6.03754">
        <ele>246.8</ele>
        <time>2024-08-05T06:19:25Z</time>
      </trkpt>
      <trkpt lat="47.23258" lon="6.03749">
        <ele>247</ele>
        <time>2024-08-05T06:19:26Z</time>
      </trkpt>
      <trkpt lat="47.23264" lon="6.03744">
        <ele>247</ele>
        <time>2024-08-05T06:19:27Z</time>
      </trkpt>
      <trkpt lat="47.23268" lon="6.0374">
        <ele>247</ele>
        <time>2024-08-05T06:19:28Z</time>
      </trkpt>
      <trkpt lat="47.23273" lon="6.03737">
        <ele>247</ele>
        <time>2024-08-05T06:19:29Z</time>
      </trkpt>
      <trkpt lat="47.23278" lon="6.03736">
        <ele>246.8</ele>
        <time>2024-08-05T06:19:30Z</time>
      </trkpt>
      <trkpt lat="47.23284" lon="6.03734">
        <ele>246.8</ele>
        <time>2024-08-05T06:19:31Z</time>
      </trkpt>
      <trkpt lat="47.2329" lon="6.0373">
        <ele>246.8</ele>
        <time>2024-08-05T06:19:32Z</time>
      </trkpt>
      <trkpt lat="47.23295" lon="6.03727">
        <ele>247</ele>
        <time>2024-08-05T06:19:33Z</time>
      </trkpt>
      <trkpt lat="47.233" lon="6.03724">
        <ele>247</ele>
        <time>2024-08-05T06:19:34Z</time>
      </trkpt>
      <trkpt lat="47.23306" lon="6.03722">
        <ele>247</ele>
        <time>2024-08-05T06:19:35Z</time>
      </trkpt>
      <trkpt lat="47.23312" lon="6.0372">
        <ele>247</ele>
        <time>2024-08-05T06:19:36Z</time>
      </trkpt>
      <trkpt lat="47.23319" lon="6.03717">
        <ele>247</ele>
        <time>2024-08-05T06:19:37Z</time>
      </trkpt>
      <trkpt lat="47.23324" lon="6.03714">
        <ele>246.8</ele>
        <time>2024-08-05T06:19:38Z</time>
      </trkpt>
      <trkpt lat="47.2333" lon="6.03712">
        <ele>247</ele>
        <time>2024-08-05T06:19:39Z</time>
      </trkpt>
      <trkpt lat="47.23335" lon="6.03709">
        <ele>246.8</ele>
        <time>2024-08-05T06:19:40Z</time>
      </trkpt>
      <trkpt lat="47.2334" lon="6.03707">
        <ele>246.8</ele>
        <time>2024-08-05T06:19:41Z</time>
      </trkpt>
      <trkpt lat="47.23345" lon="6.03703">
        <ele>246.8</ele>
        <time>2024-08-05T06:19:42Z</time>
      </trkpt>
      <trkpt lat="47.23349" lon="6.03699">
        <ele>246.8</ele>
        <time>2024-08-05T06:19:43Z</time>
      </trkpt>
      <trkpt lat="47.23354" lon="6.03696">
        <ele>246.8</ele>
        <time>2024-08-05T06:19:44Z</time>
      </trkpt>
      <trkpt lat="47.23358" lon="6.03692">
        <ele>246.8</ele>
        <time>2024-08-05T06:19:45Z</time>
      </trkpt>
      <trkpt lat="47.23362" lon="6.03689">
        <ele>247</ele>
        <time>2024-08-05T06:19:46Z</time>
      </trkpt>
      <trkpt lat="47.23366" lon="6.03685">
        <ele>246.8</ele>
        <time>2024-08-05T06:19:47Z</time>
      </trkpt>
      <trkpt lat="47.23369" lon="6.03679">
        <ele>246.8</ele>
        <time>2024-08-05T06:19:48Z</time>
      </trkpt>
      <trkpt lat="47.23374" lon="6.03673">
        <ele>247</ele>
        <time>2024-08-05T06:19:49Z</time>
      </trkpt>
      <trkpt lat="47.23378" lon="6.03667">
        <ele>246.8</ele>
        <time>2024-08-05T06:19:50Z</time>
      </trkpt>
      <trkpt lat="47.23382" lon="6.03662">
        <ele>246.8</ele>
        <time>2024-08-05T06:19:51Z</time>
      </trkpt>
      <trkpt lat="47.23385" lon="6.03657">
        <ele>247</ele>
        <time>2024-08-05T06:19:52Z</time>
      </trkpt>
      <trkpt lat="47.23389" lon="6.03653">
        <ele>247</ele>
        <time>2024-08-05T06:19:53Z</time>
      </trkpt>
      <trkpt lat="47.23392" lon="6.03647">
        <ele>247</ele>
        <time>2024-08-05T06:19:54Z</time>
      </trkpt>
      <trkpt lat="47.23395" lon="6.03641">
        <ele>247</ele>
        <time>2024-08-05T06:19:55Z</time>
      </trkpt>
      <trkpt lat="47.23397" lon="6.03634">
        <ele>247.2</ele>
        <time>2024-08-05T06:19:56Z</time>
      </trkpt>
      <trkpt lat="47.234" lon="6.03627">
        <ele>247.2</ele>
        <time>2024-08-05T06:19:57Z</time>
      </trkpt>
      <trkpt lat="47.23402" lon="6.0362">
        <ele>247.4</ele>
        <time>2024-08-05T06:19:58Z</time>
      </trkpt>
      <trkpt lat="47.23406" lon="6.03613">
        <ele>247.6</ele>
        <time>2024-08-05T06:19:59Z</time>
      </trkpt>
      <trkpt lat="47.23409" lon="6.03606">
        <ele>247.6</ele>
        <time>2024-08-05T06:20:00Z</time>
      </trkpt>
      <trkpt lat="47.23413" lon="6.03599">
        <ele>247.6</ele>
        <time>2024-08-05T06:20:01Z</time>
      </trkpt>
      <trkpt lat="47.23415" lon="6.03591">
        <ele>247.6</ele>
        <time>2024-08-05T06:20:02Z</time>
      </trkpt>
      <trkpt lat="47.23419" lon="6.03585">
        <ele>247.4</ele>
        <time>2024-08-05T06:20:03Z</time>
      </trkpt>
      <trkpt lat="47.23421" lon="6.03576">
        <ele>247.6</ele>
        <time>2024-08-05T06:20:04Z</time>
      </trkpt>
      <trkpt lat="47.23424" lon="6.03569">
        <ele>247.6</ele>
        <time>2024-08-05T06:20:05Z</time>
      </trkpt>
      <trkpt lat="47.23427" lon="6.03561">
        <ele>247.8</ele>
        <time>2024-08-05T06:20:06Z</time>
      </trkpt>
      <trkpt lat="47.23431" lon="6.03552">
        <ele>247.8</ele>
        <time>2024-08-05T06:20:07Z</time>
      </trkpt>
      <trkpt lat="47.23434" lon="6.03545">
        <ele>247.6</ele>
        <time>2024-08-05T06:20:08Z</time>
      </trkpt>
      <trkpt lat="47.23437" lon="6.03537">
        <ele>247.6</ele>
        <time>2024-08-05T06:20:09Z</time>
      </trkpt>
      <trkpt lat="47.2344" lon="6.03529">
        <ele>247.8</ele>
        <time>2024-08-05T06:20:10Z</time>
      </trkpt>
      <trkpt lat="47.23444" lon="6.03521">
        <ele>247.6</ele>
        <time>2024-08-05T06:20:11Z</time>
      </trkpt>
      <trkpt lat="47.23448" lon="6.03514">
        <ele>247.6</ele>
        <time>2024-08-05T06:20:12Z</time>
      </trkpt>
      <trkpt lat="47.23451" lon="6.03506">
        <ele>247.6</ele>
        <time>2024-08-05T06:20:13Z</time>
      </trkpt>
      <trkpt lat="47.23453" lon="6.03502">
        <ele>247.4</ele>
        <time>2024-08-05T06:20:14Z</time>
      </trkpt>
      <trkpt lat="47.23453" lon="6.03497">
        <ele>247.4</ele>
        <time>2024-08-05T06:20:15Z</time>
      </trkpt>
      <trkpt lat="47.23453" lon="6.03495">
        <ele>247.4</ele>
        <time>2024-08-05T06:20:16Z</time>
      </trkpt>
      <trkpt lat="47.23451" lon="6.03496">
        <ele>247.4</ele>
        <time>2024-08-05T06:20:17Z</time>
      </trkpt>
      <trkpt lat="47.23449" lon="6.03497">
        <ele>247.4</ele>
        <time>2024-08-05T06:20:18Z</time>
      </trkpt>
      <trkpt lat="47.23446" lon="6.035">
        <ele>247.4</ele>
        <time>2024-08-05T06:20:19Z</time>
      </trkpt>
      <trkpt lat="47.23443" lon="6.03502">
        <ele>247.2</ele>
        <time>2024-08-05T06:20:20Z</time>
      </trkpt>
      <trkpt lat="47.23439" lon="6.03504">
        <ele>247.2</ele>
        <time>2024-08-05T06:20:21Z</time>
      </trkpt>
      <trkpt lat="47.23435" lon="6.03506">
        <ele>247</ele>
        <time>2024-08-05T06:20:22Z</time>
      </trkpt>
      <trkpt lat="47.23431" lon="6.03509">
        <ele>247</ele>
        <time>2024-08-05T06:20:23Z</time>
      </trkpt>
      <trkpt lat="47.23427" lon="6.03512">
        <ele>247</ele>
        <time>2024-08-05T06:20:24Z</time>
      </trkpt>
      <trkpt lat="47.23421" lon="6.03514">
        <ele>246.8</ele>
        <time>2024-08-05T06:20:25Z</time>
      </trkpt>
      <trkpt lat="47.23416" lon="6.03517">
        <ele>247</ele>
        <time>2024-08-05T06:20:26Z</time>
      </trkpt>
      <trkpt lat="47.23411" lon="6.0352">
        <ele>246.8</ele>
        <time>2024-08-05T06:20:27Z</time>
      </trkpt>
      <trkpt lat="47.23405" lon="6.03522">
        <ele>247</ele>
        <time>2024-08-05T06:20:28Z</time>
      </trkpt>
      <trkpt lat="47.234" lon="6.03525">
        <ele>247</ele>
        <time>2024-08-05T06:20:29Z</time>
      </trkpt>
      <trkpt lat="47.23395" lon="6.03527">
        <ele>246.8</ele>
        <time>2024-08-05T06:20:30Z</time>
      </trkpt>
      <trkpt lat="47.2339" lon="6.0353">
        <ele>246.8</ele>
        <time>2024-08-05T06:20:31Z</time>
      </trkpt>
      <trkpt lat="47.23385" lon="6.03532">
        <ele>246.8</ele>
        <time>2024-08-05T06:20:32Z</time>
      </trkpt>
      <trkpt lat="47.2338" lon="6.03535">
        <ele>246.8</ele>
        <time>2024-08-05T06:20:33Z</time>
      </trkpt>
      <trkpt lat="47.23375" lon="6.03538">
        <ele>246.8</ele>
        <time>2024-08-05T06:20:34Z</time>
      </trkpt>
      <trkpt lat="47.2337" lon="6.03541">
        <ele>246.8</ele>
        <time>2024-08-05T06:20:35Z</time>
      </trkpt>
      <trkpt lat="47.23364" lon="6.03544">
        <ele>246.8</ele>
        <time>2024-08-05T06:20:36Z</time>
      </trkpt>
      <trkpt lat="47.23359" lon="6.03548">
        <ele>246.8</ele>
        <time>2024-08-05T06:20:37Z</time>
      </trkpt>
      <trkpt lat="47.23354" lon="6.03551">
        <ele>247</ele>
        <time>2024-08-05T06:20:38Z</time>
      </trkpt>
      <trkpt lat="47.23349" lon="6.03555">
        <ele>246.8</ele>
        <time>2024-08-05T06:20:39Z</time>
      </trkpt>
      <trkpt lat="47.23344" lon="6.03559">
        <ele>246.8</ele>
        <time>2024-08-05T06:20:40Z</time>
      </trkpt>
      <trkpt lat="47.23339" lon="6.03562">
        <ele>246.8</ele>
        <time>2024-08-05T06:20:41Z</time>
      </trkpt>
      <trkpt lat="47.23335" lon="6.03566">
        <ele>246.8</ele>
        <time>2024-08-05T06:20:42Z</time>
      </trkpt>
      <trkpt lat="47.2333" lon="6.0357">
        <ele>246.8</ele>
        <time>2024-08-05T06:20:43Z</time>
      </trkpt>
      <trkpt lat="47.23325" lon="6.03573">
        <ele>247</ele>
        <time>2024-08-05T06:20:44Z</time>
      </trkpt>
      <trkpt lat="47.2332" lon="6.03576">
        <ele>246.8</ele>
        <time>2024-08-05T06:20:45Z</time>
      </trkpt>
      <trkpt lat="47.23315" lon="6.0358">
        <ele>246.8</ele>
        <time>2024-08-05T06:20:46Z</time>
      </trkpt>
      <trkpt lat="47.23311" lon="6.03584">
        <ele>246.8</ele>
        <time>2024-08-05T06:20:47Z</time>
      </trkpt>
      <trkpt lat="47.23306" lon="6.03588">
        <ele>246.8</ele>
        <time>2024-08-05T06:20:48Z</time>
      </trkpt>
      <trkpt lat="47.23302" lon="6.03592">
        <ele>246.8</ele>
        <time>2024-08-05T06:20:49Z</time>
      </trkpt>
      <trkpt lat="47.23297" lon="6.03597">
        <ele>246.8</ele>
        <time>2024-08-05T06:20:50Z</time>
      </trkpt>
      <trkpt lat="47.23292" lon="6.03601">
        <ele>246.8</ele>
        <time>2024-08-05T06:20:51Z</time>
      </trkpt>
      <trkpt lat="47.23287" lon="6.03604">
        <ele>246.8</ele>
        <time>2024-08-05T06:20:52Z</time>
      </trkpt>
      <trkpt lat="47.23282" lon="6.03607">
        <ele>246.8</ele>
        <time>2024-08-05T06:20:53Z</time>
      </trkpt>
      <trkpt lat="47.23276" lon="6.0361">
        <ele>246.8</ele>
        <time>2024-08-05T06:20:54Z</time>
      </trkpt>
      <trkpt lat="47.23271" lon="6.03614">
        <ele>246.8</ele>
        <time>2024-08-05T06:20:55Z</time>
      </trkpt>
      <trkpt lat="47.23267" lon="6.03617">
        <ele>246.8</ele>
        <time>2024-08-05T06:20:56Z</time>
      </trkpt>
      <trkpt lat="47.23262" lon="6.03621">
        <ele>246.8</ele>
        <time>2024-08-05T06:20:57Z</time>
      </trkpt>
      <trkpt lat="47.23258" lon="6.03626">
        <ele>246.8</ele>
        <time>2024-08-05T06:20:58Z</time>
      </trkpt>
      <trkpt lat="47.23253" lon="6.03629">
        <ele>246.8</ele>
        <time>2024-08-05T06:20:59Z</time>
      </trkpt>
      <trkpt lat="47.23247" lon="6.03632">
        <ele>246.8</ele>
        <time>2024-08-05T06:21:00Z</time>
      </trkpt>
      <trkpt lat="47.23242" lon="6.03635">
        <ele>246.8</ele>
        <time>2024-08-05T06:21:01Z</time>
      </trkpt>
      <trkpt lat="47.23236" lon="6.03638">
        <ele>246.8</ele>
        <time>2024-08-05T06:21:02Z</time>
      </trkpt>
      <trkpt lat="47.23231" lon="6.0364">
        <ele>246.8</ele>
        <time>2024-08-05T06:21:03Z</time>
      </trkpt>
      <trkpt lat="47.23226" lon="6.03641">
        <ele>246.8</ele>
        <time>2024-08-05T06:21:04Z</time>
      </trkpt>
      <trkpt lat="47.2322" lon="6.0364">
        <ele>246.8</ele>
        <time>2024-08-05T06:21:05Z</time>
      </trkpt>
      <trkpt lat="47.23215" lon="6.03641">
        <ele>246.8</ele>
        <time>2024-08-05T06:21:06Z</time>
      </trkpt>
      <trkpt lat="47.2321" lon="6.03642">
        <ele>246.8</ele>
        <time>2024-08-05T06:21:07Z</time>
      </trkpt>
      <trkpt lat="47.23205" lon="6.03642">
        <ele>246.8</ele>
        <time>2024-08-05T06:21:08Z</time>
      </trkpt>
      <trkpt lat="47.232" lon="6.03642">
        <ele>246.6</ele>
        <time>2024-08-05T06:21:09Z</time>
      </trkpt>
      <trkpt lat="47.23193" lon="6.03638">
        <ele>246.8</ele>
        <time>2024-08-05T06:21:10Z</time>
      </trkpt>
      <trkpt lat="47.23187" lon="6.03634">
        <ele>246.8</ele>
        <time>2024-08-05T06:21:11Z</time>
      </trkpt>
      <trkpt lat="47.23182" lon="6.03631">
        <ele>246.8</ele>
        <time>2024-08-05T06:21:12Z</time>
      </trkpt>
      <trkpt lat="47.23177" lon="6.03629">
        <ele>246.8</ele>
        <time>2024-08-05T06:21:13Z</time>
      </trkpt>
      <trkpt lat="47.23174" lon="6.03627">
        <ele>246.8</ele>
        <time>2024-08-05T06:21:14Z</time>
      </trkpt>
      <trkpt lat="47.2317" lon="6.03624">
        <ele>247</ele>
        <time>2024-08-05T06:21:15Z</time>
      </trkpt>
      <trkpt lat="47.23167" lon="6.03621">
        <ele>247</ele>
        <time>2024-08-05T06:21:16Z</time>
      </trkpt>
      <trkpt lat="47.23163" lon="6.0362">
        <ele>247.2</ele>
        <time>2024-08-05T06:21:17Z</time>
      </trkpt>
      <trkpt lat="47.23159" lon="6.03613">
        <ele>247.4</ele>
        <time>2024-08-05T06:21:18Z</time>
      </trkpt>
      <trkpt lat="47.23155" lon="6.03611">
        <ele>247.6</ele>
        <time>2024-08-05T06:21:19Z</time>
      </trkpt>
      <trkpt lat="47.23151" lon="6.03609">
        <ele>247.6</ele>
        <time>2024-08-05T06:21:20Z</time>
      </trkpt>
      <trkpt lat="47.23147" lon="6.03608">
        <ele>247.8</ele>
        <time>2024-08-05T06:21:21Z</time>
      </trkpt>
      <trkpt lat="47.23143" lon="6.03609">
        <ele>247.8</ele>
        <time>2024-08-05T06:21:22Z</time>
      </trkpt>
      <trkpt lat="47.23139" lon="6.03612">
        <ele>248</ele>
        <time>2024-08-05T06:21:23Z</time>
      </trkpt>
      <trkpt lat="47.23136" lon="6.03615">
        <ele>248.4</ele>
        <time>2024-08-05T06:21:24Z</time>
      </trkpt>
      <trkpt lat="47.23133" lon="6.03619">
        <ele>248.6</ele>
        <time>2024-08-05T06:21:25Z</time>
      </trkpt>
      <trkpt lat="47.23129" lon="6.03623">
        <ele>248.6</ele>
        <time>2024-08-05T06:21:26Z</time>
      </trkpt>
      <trkpt lat="47.23127" lon="6.03627">
        <ele>248.6</ele>
        <time>2024-08-05T06:21:27Z</time>
      </trkpt>
      <trkpt lat="47.23124" lon="6.03634">
        <ele>248.8</ele>
        <time>2024-08-05T06:21:28Z</time>
      </trkpt>
      <trkpt lat="47.23121" lon="6.0364">
        <ele>248.8</ele>
        <time>2024-08-05T06:21:29Z</time>
      </trkpt>
      <trkpt lat="47.23117" lon="6.03647">
        <ele>248.8</ele>
        <time>2024-08-05T06:21:30Z</time>
      </trkpt>
      <trkpt lat="47.23115" lon="6.03652">
        <ele>248.8</ele>
        <time>2024-08-05T06:21:31Z</time>
      </trkpt>
      <trkpt lat="47.23112" lon="6.03657">
        <ele>248.8</ele>
        <time>2024-08-05T06:21:32Z</time>
      </trkpt>
      <trkpt lat="47.23111" lon="6.03659">
        <ele>248.8</ele>
        <time>2024-08-05T06:21:33Z</time>
      </trkpt>
      <trkpt lat="47.23111" lon="6.03661">
        <ele>248.8</ele>
        <time>2024-08-05T06:21:34Z</time>
      </trkpt>
      <trkpt lat="47.23113" lon="6.03662">
        <ele>248.8</ele>
        <time>2024-08-05T06:21:35Z</time>
      </trkpt>
      <trkpt lat="47.23115" lon="6.03662">
        <ele>248.8</ele>
        <time>2024-08-05T06:21:36Z</time>
      </trkpt>
      <trkpt lat="47.23118" lon="6.03659">
        <ele>248.6</ele>
        <time>2024-08-05T06:21:37Z</time>
      </trkpt>
      <trkpt lat="47.23121" lon="6.03655">
        <ele>248.2</ele>
        <time>2024-08-05T06:21:38Z</time>
      </trkpt>
      <trkpt lat="47.23124" lon="6.0365">
        <ele>247.4</ele>
        <time>2024-08-05T06:21:39Z</time>
      </trkpt>
      <trkpt lat="47.23127" lon="6.03645">
        <ele>247</ele>
        <time>2024-08-05T06:21:40Z</time>
      </trkpt>
      <trkpt lat="47.23129" lon="6.0364">
        <ele>246.6</ele>
        <time>2024-08-05T06:21:41Z</time>
      </trkpt>
      <trkpt lat="47.23132" lon="6.03635">
        <ele>246.4</ele>
        <time>2024-08-05T06:21:42Z</time>
      </trkpt>
      <trkpt lat="47.23135" lon="6.03629">
        <ele>246</ele>
        <time>2024-08-05T06:21:43Z</time>
      </trkpt>
      <trkpt lat="47.23137" lon="6.03623">
        <ele>246.2</ele>
        <time>2024-08-05T06:21:44Z</time>
      </trkpt>
      <trkpt lat="47.23138" lon="6.03617">
        <ele>246</ele>
        <time>2024-08-05T06:21:45Z</time>
      </trkpt>
      <trkpt lat="47.23141" lon="6.03594">
        <ele>246</ele>
        <time>2024-08-05T06:21:49Z</time>
      </trkpt>
      <trkpt lat="47.23141" lon="6.03587">
        <ele>245.8</ele>
        <time>2024-08-05T06:21:50Z</time>
      </trkpt>
      <trkpt lat="47.2314" lon="6.03581">
        <ele>246</ele>
        <time>2024-08-05T06:21:51Z</time>
      </trkpt>
      <trkpt lat="47.23137" lon="6.03574">
        <ele>245.8</ele>
        <time>2024-08-05T06:21:52Z</time>
      </trkpt>
      <trkpt lat="47.23135" lon="6.03567">
        <ele>245.6</ele>
        <time>2024-08-05T06:21:53Z</time>
      </trkpt>
      <trkpt lat="47.23133" lon="6.0356">
        <ele>245.8</ele>
        <time>2024-08-05T06:21:54Z</time>
      </trkpt>
      <trkpt lat="47.2313" lon="6.03552">
        <ele>245.8</ele>
        <time>2024-08-05T06:21:55Z</time>
      </trkpt>
      <trkpt lat="47.22962" lon="6.03014">
        <ele>243.4</ele>
        <time>2024-08-05T06:22:55Z</time>
      </trkpt>
      <trkpt lat="47.2296" lon="6.03013">
        <ele>243.4</ele>
        <time>2024-08-05T06:22:56Z</time>
      </trkpt>
      <trkpt lat="47.2296" lon="6.03014">
        <ele>243.2</ele>
        <time>2024-08-05T06:22:57Z</time>
      </trkpt>
      <trkpt lat="47.22962" lon="6.0302">
        <ele>243</ele>
        <time>2024-08-05T06:22:58Z</time>
      </trkpt>
      <trkpt lat="47.22961" lon="6.03023">
        <ele>242.6</ele>
        <time>2024-08-05T06:22:59Z</time>
      </trkpt>
      <trkpt lat="47.22963" lon="6.03029">
        <ele>242.4</ele>
        <time>2024-08-05T06:23:00Z</time>
      </trkpt>
      <trkpt lat="47.22961" lon="6.0303">
        <ele>242.4</ele>
        <time>2024-08-05T06:23:01Z</time>
      </trkpt>
      <trkpt lat="47.22958" lon="6.03031">
        <ele>242.2</ele>
        <time>2024-08-05T06:23:02Z</time>
      </trkpt>
      <trkpt lat="47.22955" lon="6.03032">
        <ele>242.2</ele>
        <time>2024-08-05T06:23:03Z</time>
      </trkpt>
      <trkpt lat="47.22952" lon="6.03034">
        <ele>242</ele>
        <time>2024-08-05T06:23:04Z</time>
      </trkpt>
      <trkpt lat="47.22948" lon="6.03036">
        <ele>242</ele>
        <time>2024-08-05T06:23:05Z</time>
      </trkpt>
      <trkpt lat="47.22944" lon="6.03038">
        <ele>242</ele>
        <time>2024-08-05T06:23:06Z</time>
      </trkpt>
      <trkpt lat="47.22941" lon="6.0304">
        <ele>242</ele>
        <time>2024-08-05T06:23:07Z</time>
      </trkpt>
      <trkpt lat="47.22937" lon="6.03042">
        <ele>242</ele>
        <time>2024-08-05T06:23:08Z</time>
      </trkpt>
      <trkpt lat="47.22932" lon="6.03044">
        <ele>242</ele>
        <time>2024-08-05T06:23:09Z</time>
      </trkpt>
      <trkpt lat="47.22927" lon="6.03047">
        <ele>242</ele>
        <time>2024-08-05T06:23:10Z</time>
      </trkpt>
      <trkpt lat="47.22923" lon="6.03049">
        <ele>242</ele>
        <time>2024-08-05T06:23:11Z</time>
      </trkpt>
      <trkpt lat="47.22918" lon="6.03052">
        <ele>242.2</ele>
        <time>2024-08-05T06:23:12Z</time>
      </trkpt>
      <trkpt lat="47.22913" lon="6.03054">
        <ele>242.2</ele>
        <time>2024-08-05T06:23:13Z</time>
      </trkpt>
      <trkpt lat="47.22907" lon="6.03057">
        <ele>242.4</ele>
        <time>2024-08-05T06:23:14Z</time>
      </trkpt>
      <trkpt lat="47.22902" lon="6.0306">
        <ele>242.4</ele>
        <time>2024-08-05T06:23:15Z</time>
      </trkpt>
      <trkpt lat="47.22896" lon="6.03063">
        <ele>242.2</ele>
        <time>2024-08-05T06:23:16Z</time>
      </trkpt>
      <trkpt lat="47.2289" lon="6.03067">
        <ele>242.4</ele>
        <time>2024-08-05T06:23:17Z</time>
      </trkpt>
      <trkpt lat="47.22885" lon="6.03072">
        <ele>242.2</ele>
        <time>2024-08-05T06:23:18Z</time>
      </trkpt>
      <trkpt lat="47.22881" lon="6.03078">
        <ele>242.4</ele>
        <time>2024-08-05T06:23:19Z</time>
      </trkpt>
      <trkpt lat="47.22877" lon="6.03084">
        <ele>242.4</ele>
        <time>2024-08-05T06:23:20Z</time>
      </trkpt>
      <trkpt lat="47.22872" lon="6.0309">
        <ele>242.2</ele>
        <time>2024-08-05T06:23:21Z</time>
      </trkpt>
      <trkpt lat="47.22868" lon="6.03095">
        <ele>242.2</ele>
        <time>2024-08-05T06:23:22Z</time>
      </trkpt>
      <trkpt lat="47.22863" lon="6.031">
        <ele>242.2</ele>
        <time>2024-08-05T06:23:23Z</time>
      </trkpt>
      <trkpt lat="47.22857" lon="6.03103">
        <ele>242.4</ele>
        <time>2024-08-05T06:23:24Z</time>
      </trkpt>
      <trkpt lat="47.22852" lon="6.03107">
        <ele>242.2</ele>
        <time>2024-08-05T06:23:25Z</time>
      </trkpt>
      <trkpt lat="47.22847" lon="6.0311">
        <ele>242.4</ele>
        <time>2024-08-05T06:23:26Z</time>
      </trkpt>
      <trkpt lat="47.22842" lon="6.03114">
        <ele>242.4</ele>
        <time>2024-08-05T06:23:27Z</time>
      </trkpt>
      <trkpt lat="47.22837" lon="6.03119">
        <ele>242.2</ele>
        <time>2024-08-05T06:23:28Z</time>
      </trkpt>
      <trkpt lat="47.22834" lon="6.03126">
        <ele>242</ele>
        <time>2024-08-05T06:23:29Z</time>
      </trkpt>
      <trkpt lat="47.22831" lon="6.03132">
        <ele>242.2</ele>
        <time>2024-08-05T06:23:30Z</time>
      </trkpt>
      <trkpt lat="47.22827" lon="6.0314">
        <ele>242.2</ele>
        <time>2024-08-05T06:23:31Z</time>
      </trkpt>
      <trkpt lat="47.22824" lon="6.03147">
        <ele>242</ele>
        <time>2024-08-05T06:23:32Z</time>
      </trkpt>
      <trkpt lat="47.22821" lon="6.03155">
        <ele>242</ele>
        <time>2024-08-05T06:23:33Z</time>
      </trkpt>
      <trkpt lat="47.22818" lon="6.03162">
        <ele>242.2</ele>
        <time>2024-08-05T06:23:34Z</time>
      </trkpt>
      <trkpt lat="47.22814" lon="6.03168">
        <ele>242</ele>
        <time>2024-08-05T06:23:35Z</time>
      </trkpt>
      <trkpt lat="47.22809" lon="6.03174">
        <ele>242.2</ele>
        <time>2024-08-05T06:23:36Z</time>
      </trkpt>
      <trkpt lat="47.22805" lon="6.0318">
        <ele>242.2</ele>
        <time>2024-08-05T06:23:37Z</time>
      </trkpt>
      <trkpt lat="47.228" lon="6.03184">
        <ele>242.2</ele>
        <time>2024-08-05T06:23:38Z</time>
      </trkpt>
      <trkpt lat="47.22795" lon="6.03188">
        <ele>242</ele>
        <time>2024-08-05T06:23:39Z</time>
      </trkpt>
      <trkpt lat="47.22789" lon="6.03192">
        <ele>242.2</ele>
        <time>2024-08-05T06:23:40Z</time>
      </trkpt>
      <trkpt lat="47.22783" lon="6.03196">
        <ele>242.2</ele>
        <time>2024-08-05T06:23:41Z</time>
      </trkpt>
      <trkpt lat="47.22777" lon="6.03198">
        <ele>242.2</ele>
        <time>2024-08-05T06:23:42Z</time>
      </trkpt>
      <trkpt lat="47.22771" lon="6.03201">
        <ele>242.2</ele>
        <time>2024-08-05T06:23:43Z</time>
      </trkpt>
      <trkpt lat="47.22765" lon="6.03205">
        <ele>242.4</ele>
        <time>2024-08-05T06:23:44Z</time>
      </trkpt>
      <trkpt lat="47.2276" lon="6.03209">
        <ele>242.4</ele>
        <time>2024-08-05T06:23:45Z</time>
      </trkpt>
      <trkpt lat="47.22756" lon="6.03214">
        <ele>242.2</ele>
        <time>2024-08-05T06:23:46Z</time>
      </trkpt>
      <trkpt lat="47.22751" lon="6.0322">
        <ele>242.4</ele>
        <time>2024-08-05T06:23:47Z</time>
      </trkpt>
      <trkpt lat="47.22746" lon="6.03225">
        <ele>242.4</ele>
        <time>2024-08-05T06:23:48Z</time>
      </trkpt>
      <trkpt lat="47.22741" lon="6.03229">
        <ele>242.4</ele>
        <time>2024-08-05T06:23:49Z</time>
      </trkpt>
      <trkpt lat="47.22735" lon="6.03229">
        <ele>242.4</ele>
        <time>2024-08-05T06:23:50Z</time>
      </trkpt>
      <trkpt lat="47.22729" lon="6.0323">
        <ele>242.4</ele>
        <time>2024-08-05T06:23:51Z</time>
      </trkpt>
      <trkpt lat="47.22722" lon="6.0323">
        <ele>242.4</ele>
        <time>2024-08-05T06:23:52Z</time>
      </trkpt>
      <trkpt lat="47.22715" lon="6.03229">
        <ele>242.4</ele>
        <time>2024-08-05T06:23:53Z</time>
      </trkpt>
      <trkpt lat="47.22707" lon="6.03228">
        <ele>242.4</ele>
        <time>2024-08-05T06:23:54Z</time>
      </trkpt>
      <trkpt lat="47.22701" lon="6.03228">
        <ele>242.6</ele>
        <time>2024-08-05T06:23:55Z</time>
      </trkpt>
      <trkpt lat="47.22694" lon="6.03229">
        <ele>242.8</ele>
        <time>2024-08-05T06:23:56Z</time>
      </trkpt>
      <trkpt lat="47.22688" lon="6.03231">
        <ele>242.6</ele>
        <time>2024-08-05T06:23:57Z</time>
      </trkpt>
      <trkpt lat="47.22682" lon="6.03233">
        <ele>242.8</ele>
        <time>2024-08-05T06:23:58Z</time>
      </trkpt>
      <trkpt lat="47.22677" lon="6.03236">
        <ele>242.8</ele>
        <time>2024-08-05T06:23:59Z</time>
      </trkpt>
      <trkpt lat="47.22671" lon="6.03238">
        <ele>242.8</ele>
        <time>2024-08-05T06:24:00Z</time>
      </trkpt>
      <trkpt lat="47.22665" lon="6.03239">
        <ele>242.6</ele>
        <time>2024-08-05T06:24:01Z</time>
      </trkpt>
      <trkpt lat="47.22658" lon="6.0324">
        <ele>242.8</ele>
        <time>2024-08-05T06:24:02Z</time>
      </trkpt>
      <trkpt lat="47.22652" lon="6.0324">
        <ele>242.8</ele>
        <time>2024-08-05T06:24:03Z</time>
      </trkpt>
      <trkpt lat="47.22646" lon="6.03241">
        <ele>242.8</ele>
        <time>2024-08-05T06:24:04Z</time>
      </trkpt>
      <trkpt lat="47.22639" lon="6.03241">
        <ele>242.8</ele>
        <time>2024-08-05T06:24:05Z</time>
      </trkpt>
      <trkpt lat="47.22633" lon="6.03243">
        <ele>242.6</ele>
        <time>2024-08-05T06:24:06Z</time>
      </trkpt>
      <trkpt lat="47.22627" lon="6.03245">
        <ele>242.6</ele>
        <time>2024-08-05T06:24:07Z</time>
      </trkpt>
      <trkpt lat="47.22622" lon="6.03249">
        <ele>242.6</ele>
        <time>2024-08-05T06:24:08Z</time>
      </trkpt>
      <trkpt lat="47.22615" lon="6.03251">
        <ele>242.6</ele>
        <time>2024-08-05T06:24:09Z</time>
      </trkpt>
      <trkpt lat="47.22609" lon="6.03254">
        <ele>242.6</ele>
        <time>2024-08-05T06:24:10Z</time>
      </trkpt>
      <trkpt lat="47.22603" lon="6.03257">
        <ele>242.2</ele>
        <time>2024-08-05T06:24:11Z</time>
      </trkpt>
      <trkpt lat="47.22597" lon="6.0326">
        <ele>242.2</ele>
        <time>2024-08-05T06:24:12Z</time>
      </trkpt>
      <trkpt lat="47.22591" lon="6.03261">
        <ele>242</ele>
        <time>2024-08-05T06:24:13Z</time>
      </trkpt>
      <trkpt lat="47.22585" lon="6.03262">
        <ele>242</ele>
        <time>2024-08-05T06:24:14Z</time>
      </trkpt>
      <trkpt lat="47.22578" lon="6.0326">
        <ele>241.8</ele>
        <time>2024-08-05T06:24:15Z</time>
      </trkpt>
      <trkpt lat="47.22571" lon="6.03257">
        <ele>241.8</ele>
        <time>2024-08-05T06:24:16Z</time>
      </trkpt>
      <trkpt lat="47.22564" lon="6.03254">
        <ele>241.8</ele>
        <time>2024-08-05T06:24:17Z</time>
      </trkpt>
      <trkpt lat="47.22558" lon="6.03252">
        <ele>241.6</ele>
        <time>2024-08-05T06:24:18Z</time>
      </trkpt>
      <trkpt lat="47.22552" lon="6.03248">
        <ele>241.6</ele>
        <time>2024-08-05T06:24:19Z</time>
      </trkpt>
      <trkpt lat="47.22547" lon="6.03244">
        <ele>241.8</ele>
        <time>2024-08-05T06:24:20Z</time>
      </trkpt>
      <trkpt lat="47.22541" lon="6.0324">
        <ele>241.6</ele>
        <time>2024-08-05T06:24:21Z</time>
      </trkpt>
      <trkpt lat="47.22536" lon="6.03236">
        <ele>241.6</ele>
        <time>2024-08-05T06:24:22Z</time>
      </trkpt>
      <trkpt lat="47.22531" lon="6.03231">
        <ele>241.6</ele>
        <time>2024-08-05T06:24:23Z</time>
      </trkpt>
      <trkpt lat="47.22526" lon="6.03226">
        <ele>241.8</ele>
        <time>2024-08-05T06:24:24Z</time>
      </trkpt>
      <trkpt lat="47.22521" lon="6.0322">
        <ele>241.8</ele>
        <time>2024-08-05T06:24:25Z</time>
      </trkpt>
      <trkpt lat="47.22517" lon="6.03214">
        <ele>241.6</ele>
        <time>2024-08-05T06:24:26Z</time>
      </trkpt>
      <trkpt lat="47.22512" lon="6.03209">
        <ele>241.8</ele>
        <time>2024-08-05T06:24:27Z</time>
      </trkpt>
      <trkpt lat="47.22508" lon="6.03204">
        <ele>241.8</ele>
        <time>2024-08-05T06:24:28Z</time>
      </trkpt>
      <trkpt lat="47.22503" lon="6.03199">
        <ele>241.8</ele>
        <time>2024-08-05T06:24:29Z</time>
      </trkpt>
      <trkpt lat="47.22499" lon="6.03194">
        <ele>241.6</ele>
        <time>2024-08-05T06:24:30Z</time>
      </trkpt>
      <trkpt lat="47.22494" lon="6.0319">
        <ele>241.8</ele>
        <time>2024-08-05T06:24:31Z</time>
      </trkpt>
      <trkpt lat="47.22488" lon="6.03184">
        <ele>241.8</ele>
        <time>2024-08-05T06:24:32Z</time>
      </trkpt>
      <trkpt lat="47.22483" lon="6.03181">
        <ele>241.8</ele>
        <time>2024-08-05T06:24:33Z</time>
      </trkpt>
      <trkpt lat="47.22477" lon="6.03177">
        <ele>241.8</ele>
        <time>2024-08-05T06:24:34Z</time>
      </trkpt>
      <trkpt lat="47.22472" lon="6.03175">
        <ele>241.8</ele>
        <time>2024-08-05T06:24:35Z</time>
      </trkpt>
      <trkpt lat="47.22467" lon="6.03174">
        <ele>241.8</ele>
        <time>2024-08-05T06:24:36Z</time>
      </trkpt>
      <trkpt lat="47.22461" lon="6.03173">
        <ele>241.8</ele>
        <time>2024-08-05T06:24:37Z</time>
      </trkpt>
      <trkpt lat="47.22456" lon="6.03171">
        <ele>241.8</ele>
        <time>2024-08-05T06:24:38Z</time>
      </trkpt>
      <trkpt lat="47.22451" lon="6.03169">
        <ele>241.8</ele>
        <time>2024-08-05T06:24:39Z</time>
      </trkpt>
      <trkpt lat="47.22446" lon="6.03166">
        <ele>241.8</ele>
        <time>2024-08-05T06:24:40Z</time>
      </trkpt>
      <trkpt lat="47.22441" lon="6.03163">
        <ele>242</ele>
        <time>2024-08-05T06:24:41Z</time>
      </trkpt>
      <trkpt lat="47.22435" lon="6.0316">
        <ele>241.8</ele>
        <time>2024-08-05T06:24:42Z</time>
      </trkpt>
      <trkpt lat="47.2243" lon="6.03157">
        <ele>241.8</ele>
        <time>2024-08-05T06:24:43Z</time>
      </trkpt>
      <trkpt lat="47.22424" lon="6.03154">
        <ele>242</ele>
        <time>2024-08-05T06:24:44Z</time>
      </trkpt>
      <trkpt lat="47.22419" lon="6.03152">
        <ele>242</ele>
        <time>2024-08-05T06:24:45Z</time>
      </trkpt>
      <trkpt lat="47.22413" lon="6.03149">
        <ele>242</ele>
        <time>2024-08-05T06:24:46Z</time>
      </trkpt>
      <trkpt lat="47.22407" lon="6.03146">
        <ele>242</ele>
        <time>2024-08-05T06:24:47Z</time>
      </trkpt>
      <trkpt lat="47.22402" lon="6.03143">
        <ele>242</ele>
        <time>2024-08-05T06:24:48Z</time>
      </trkpt>
      <trkpt lat="47.22396" lon="6.0314">
        <ele>242</ele>
        <time>2024-08-05T06:24:49Z</time>
      </trkpt>
      <trkpt lat="47.2239" lon="6.03137">
        <ele>242.2</ele>
        <time>2024-08-05T06:24:50Z</time>
      </trkpt>
      <trkpt lat="47.22385" lon="6.03134">
        <ele>242.2</ele>
        <time>2024-08-05T06:24:51Z</time>
      </trkpt>
      <trkpt lat="47.22379" lon="6.03131">
        <ele>242</ele>
        <time>2024-08-05T06:24:52Z</time>
      </trkpt>
      <trkpt lat="47.22373" lon="6.03128">
        <ele>242.2</ele>
        <time>2024-08-05T06:24:53Z</time>
      </trkpt>
      <trkpt lat="47.22367" lon="6.03126">
        <ele>242.2</ele>
        <time>2024-08-05T06:24:54Z</time>
      </trkpt>
      <trkpt lat="47.22361" lon="6.03123">
        <ele>242</ele>
        <time>2024-08-05T06:24:55Z</time>
      </trkpt>
      <trkpt lat="47.22355" lon="6.0312">
        <ele>242</ele>
        <time>2024-08-05T06:24:56Z</time>
      </trkpt>
      <trkpt lat="47.22349" lon="6.03116">
        <ele>242</ele>
        <time>2024-08-05T06:24:57Z</time>
      </trkpt>
      <trkpt lat="47.22343" lon="6.03112">
        <ele>242</ele>
        <time>2024-08-05T06:24:58Z</time>
      </trkpt>
      <trkpt lat="47.22337" lon="6.03109">
        <ele>242.2</ele>
        <time>2024-08-05T06:24:59Z</time>
      </trkpt>
      <trkpt lat="47.2233" lon="6.03105">
        <ele>242.2</ele>
        <time>2024-08-05T06:25:00Z</time>
      </trkpt>
      <trkpt lat="47.22324" lon="6.03101">
        <ele>242</ele>
        <time>2024-08-05T06:25:01Z</time>
      </trkpt>
      <trkpt lat="47.22317" lon="6.03096">
        <ele>242.2</ele>
        <time>2024-08-05T06:25:02Z</time>
      </trkpt>
      <trkpt lat="47.2231" lon="6.03091">
        <ele>242.2</ele>
        <time>2024-08-05T06:25:03Z</time>
      </trkpt>
      <trkpt lat="47.22303" lon="6.03087">
        <ele>242.2</ele>
        <time>2024-08-05T06:25:04Z</time>
      </trkpt>
      <trkpt lat="47.22297" lon="6.03083">
        <ele>242.2</ele>
        <time>2024-08-05T06:25:05Z</time>
      </trkpt>
      <trkpt lat="47.22291" lon="6.03079">
        <ele>242.2</ele>
        <time>2024-08-05T06:25:06Z</time>
      </trkpt>
      <trkpt lat="47.22286" lon="6.03075">
        <ele>242.2</ele>
        <time>2024-08-05T06:25:07Z</time>
      </trkpt>
      <trkpt lat="47.2228" lon="6.03071">
        <ele>242.2</ele>
        <time>2024-08-05T06:25:08Z</time>
      </trkpt>
      <trkpt lat="47.22274" lon="6.03068">
        <ele>242.2</ele>
        <time>2024-08-05T06:25:09Z</time>
      </trkpt>
      <trkpt lat="47.22268" lon="6.03065">
        <ele>242.2</ele>
        <time>2024-08-05T06:25:10Z</time>
      </trkpt>
      <trkpt lat="47.22263" lon="6.03063">
        <ele>242.2</ele>
        <time>2024-08-05T06:25:11Z</time>
      </trkpt>
      <trkpt lat="47.22257" lon="6.0306">
        <ele>242.2</ele>
        <time>2024-08-05T06:25:12Z</time>
      </trkpt>
      <trkpt lat="47.22251" lon="6.03057">
        <ele>242.2</ele>
        <time>2024-08-05T06:25:13Z</time>
      </trkpt>
      <trkpt lat="47.22244" lon="6.03054">
        <ele>242.2</ele>
        <time>2024-08-05T06:25:14Z</time>
      </trkpt>
      <trkpt lat="47.22239" lon="6.03052">
        <ele>242.2</ele>
        <time>2024-08-05T06:25:15Z</time>
      </trkpt>
      <trkpt lat="47.22233" lon="6.03048">
        <ele>242.2</ele>
        <time>2024-08-05T06:25:16Z</time>
      </trkpt>
      <trkpt lat="47.22227" lon="6.03045">
        <ele>242.2</ele>
        <time>2024-08-05T06:25:17Z</time>
      </trkpt>
      <trkpt lat="47.22221" lon="6.03042">
        <ele>242.2</ele>
        <time>2024-08-05T06:25:18Z</time>
      </trkpt>
      <trkpt lat="47.22215" lon="6.03038">
        <ele>242.2</ele>
        <time>2024-08-05T06:25:19Z</time>
      </trkpt>
      <trkpt lat="47.22209" lon="6.03034">
        <ele>242.2</ele>
        <time>2024-08-05T06:25:20Z</time>
      </trkpt>
      <trkpt lat="47.22202" lon="6.03029">
        <ele>242.2</ele>
        <time>2024-08-05T06:25:21Z</time>
      </trkpt>
      <trkpt lat="47.22196" lon="6.03024">
        <ele>242</ele>
        <time>2024-08-05T06:25:22Z</time>
      </trkpt>
      <trkpt lat="47.22189" lon="6.03019">
        <ele>242</ele>
        <time>2024-08-05T06:25:23Z</time>
      </trkpt>
      <trkpt lat="47.22182" lon="6.03015">
        <ele>242</ele>
        <time>2024-08-05T06:25:24Z</time>
      </trkpt>
      <trkpt lat="47.22175" lon="6.0301">
        <ele>242</ele>
        <time>2024-08-05T06:25:25Z</time>
      </trkpt>
      <trkpt lat="47.22168" lon="6.03006">
        <ele>242</ele>
        <time>2024-08-05T06:25:26Z</time>
      </trkpt>
      <trkpt lat="47.22161" lon="6.03001">
        <ele>242</ele>
        <time>2024-08-05T06:25:27Z</time>
      </trkpt>
      <trkpt lat="47.22154" lon="6.02996">
        <ele>242</ele>
        <time>2024-08-05T06:25:28Z</time>
      </trkpt>
      <trkpt lat="47.22148" lon="6.02991">
        <ele>242</ele>
        <time>2024-08-05T06:25:29Z</time>
      </trkpt>
      <trkpt lat="47.22143" lon="6.02987">
        <ele>242</ele>
        <time>2024-08-05T06:25:30Z</time>
      </trkpt>
      <trkpt lat="47.22138" lon="6.02983">
        <ele>242</ele>
        <time>2024-08-05T06:25:31Z</time>
      </trkpt>
      <trkpt lat="47.22133" lon="6.02979">
        <ele>242</ele>
        <time>2024-08-05T06:25:32Z</time>
      </trkpt>
      <trkpt lat="47.22128" lon="6.02975">
        <ele>242</ele>
        <time>2024-08-05T06:25:33Z</time>
      </trkpt>
      <trkpt lat="47.22123" lon="6.02971">
        <ele>242</ele>
        <time>2024-08-05T06:25:34Z</time>
      </trkpt>
      <trkpt lat="47.22119" lon="6.02967">
        <ele>241.8</ele>
        <time>2024-08-05T06:25:35Z</time>
      </trkpt>
      <trkpt lat="47.22115" lon="6.02963">
        <ele>241.8</ele>
        <time>2024-08-05T06:25:36Z</time>
      </trkpt>
      <trkpt lat="47.2211" lon="6.02959">
        <ele>242</ele>
        <time>2024-08-05T06:25:37Z</time>
      </trkpt>
      <trkpt lat="47.22106" lon="6.02954">
        <ele>242</ele>
        <time>2024-08-05T06:25:38Z</time>
      </trkpt>
      <trkpt lat="47.22101" lon="6.02949">
        <ele>241.8</ele>
        <time>2024-08-05T06:25:39Z</time>
      </trkpt>
      <trkpt lat="47.22097" lon="6.02943">
        <ele>242</ele>
        <time>2024-08-05T06:25:40Z</time>
      </trkpt>
      <trkpt lat="47.22093" lon="6.02937">
        <ele>241.8</ele>
        <time>2024-08-05T06:25:41Z</time>
      </trkpt>
      <trkpt lat="47.22088" lon="6.0293">
        <ele>241.8</ele>
        <time>2024-08-05T06:25:42Z</time>
      </trkpt>
      <trkpt lat="47.22082" lon="6.02922">
        <ele>241.8</ele>
        <time>2024-08-05T06:25:43Z</time>
      </trkpt>
      <trkpt lat="47.22077" lon="6.02915">
        <ele>241.8</ele>
        <time>2024-08-05T06:25:44Z</time>
      </trkpt>
      <trkpt lat="47.22072" lon="6.02909">
        <ele>241.8</ele>
        <time>2024-08-05T06:25:45Z</time>
      </trkpt>
      <trkpt lat="47.22068" lon="6.02902">
        <ele>241.8</ele>
        <time>2024-08-05T06:25:46Z</time>
      </trkpt>
      <trkpt lat="47.22063" lon="6.02895">
        <ele>241.8</ele>
        <time>2024-08-05T06:25:47Z</time>
      </trkpt>
      <trkpt lat="47.22058" lon="6.02888">
        <ele>241.8</ele>
        <time>2024-08-05T06:25:48Z</time>
      </trkpt>
      <trkpt lat="47.22054" lon="6.0288">
        <ele>241.8</ele>
        <time>2024-08-05T06:25:49Z</time>
      </trkpt>
      <trkpt lat="47.2205" lon="6.02872">
        <ele>241.8</ele>
        <time>2024-08-05T06:25:50Z</time>
      </trkpt>
      <trkpt lat="47.22045" lon="6.02865">
        <ele>241.8</ele>
        <time>2024-08-05T06:25:51Z</time>
      </trkpt>
      <trkpt lat="47.22042" lon="6.0286">
        <ele>241.8</ele>
        <time>2024-08-05T06:25:52Z</time>
      </trkpt>
      <trkpt lat="47.22039" lon="6.02855">
        <ele>241.8</ele>
        <time>2024-08-05T06:25:53Z</time>
      </trkpt>
      <trkpt lat="47.22036" lon="6.0285">
        <ele>241.8</ele>
        <time>2024-08-05T06:25:54Z</time>
      </trkpt>
      <trkpt lat="47.22033" lon="6.02843">
        <ele>241.8</ele>
        <time>2024-08-05T06:25:55Z</time>
      </trkpt>
      <trkpt lat="47.22029" lon="6.02837">
        <ele>241.8</ele>
        <time>2024-08-05T06:25:56Z</time>
      </trkpt>
      <trkpt lat="47.22025" lon="6.0283">
        <ele>241.8</ele>
        <time>2024-08-05T06:25:57Z</time>
      </trkpt>
      <trkpt lat="47.22021" lon="6.02824">
        <ele>241.8</ele>
        <time>2024-08-05T06:25:58Z</time>
      </trkpt>
      <trkpt lat="47.22018" lon="6.02817">
        <ele>241.8</ele>
        <time>2024-08-05T06:25:59Z</time>
      </trkpt>
      <trkpt lat="47.22015" lon="6.02811">
        <ele>241.8</ele>
        <time>2024-08-05T06:26:00Z</time>
      </trkpt>
      <trkpt lat="47.22011" lon="6.02804">
        <ele>241.8</ele>
        <time>2024-08-05T06:26:01Z</time>
      </trkpt>
      <trkpt lat="47.22008" lon="6.02796">
        <ele>241.8</ele>
        <time>2024-08-05T06:26:02Z</time>
      </trkpt>
      <trkpt lat="47.22005" lon="6.02788">
        <ele>242</ele>
        <time>2024-08-05T06:26:03Z</time>
      </trkpt>
      <trkpt lat="47.22002" lon="6.02781">
        <ele>242</ele>
        <time>2024-08-05T06:26:04Z</time>
      </trkpt>
      <trkpt lat="47.21999" lon="6.02772">
        <ele>242</ele>
        <time>2024-08-05T06:26:05Z</time>
      </trkpt>
      <trkpt lat="47.21997" lon="6.02764">
        <ele>242</ele>
        <time>2024-08-05T06:26:06Z</time>
      </trkpt>
      <trkpt lat="47.21995" lon="6.02756">
        <ele>242</ele>
        <time>2024-08-05T06:26:07Z</time>
      </trkpt>
      <trkpt lat="47.21993" lon="6.02747">
        <ele>242</ele>
        <time>2024-08-05T06:26:08Z</time>
      </trkpt>
      <trkpt lat="47.21992" lon="6.02739">
        <ele>242</ele>
        <time>2024-08-05T06:26:09Z</time>
      </trkpt>
      <trkpt lat="47.21991" lon="6.0273">
        <ele>242.2</ele>
        <time>2024-08-05T06:26:10Z</time>
      </trkpt>
      <trkpt lat="47.2199" lon="6.02721">
        <ele>242.2</ele>
        <time>2024-08-05T06:26:11Z</time>
      </trkpt>
      <trkpt lat="47.21989" lon="6.02712">
        <ele>242.2</ele>
        <time>2024-08-05T06:26:12Z</time>
      </trkpt>
      <trkpt lat="47.21988" lon="6.02703">
        <ele>242</ele>
        <time>2024-08-05T06:26:13Z</time>
      </trkpt>
      <trkpt lat="47.21987" lon="6.02694">
        <ele>242</ele>
        <time>2024-08-05T06:26:14Z</time>
      </trkpt>
      <trkpt lat="47.21987" lon="6.02684">
        <ele>241.8</ele>
        <time>2024-08-05T06:26:15Z</time>
      </trkpt>
      <trkpt lat="47.21986" lon="6.02675">
        <ele>241.8</ele>
        <time>2024-08-05T06:26:16Z</time>
      </trkpt>
      <trkpt lat="47.21985" lon="6.02665">
        <ele>242</ele>
        <time>2024-08-05T06:26:17Z</time>
      </trkpt>
      <trkpt lat="47.21983" lon="6.02656">
        <ele>241.8</ele>
        <time>2024-08-05T06:26:18Z</time>
      </trkpt>
      <trkpt lat="47.21982" lon="6.02647">
        <ele>241.8</ele>
        <time>2024-08-05T06:26:19Z</time>
      </trkpt>
      <trkpt lat="47.2198" lon="6.02637">
        <ele>241.8</ele>
        <time>2024-08-05T06:26:20Z</time>
      </trkpt>
      <trkpt lat="47.21978" lon="6.02628">
        <ele>241.8</ele>
        <time>2024-08-05T06:26:21Z</time>
      </trkpt>
      <trkpt lat="47.21976" lon="6.02619">
        <ele>241.8</ele>
        <time>2024-08-05T06:26:22Z</time>
      </trkpt>
      <trkpt lat="47.21975" lon="6.0261">
        <ele>241.6</ele>
        <time>2024-08-05T06:26:23Z</time>
      </trkpt>
      <trkpt lat="47.21974" lon="6.02601">
        <ele>241.6</ele>
        <time>2024-08-05T06:26:24Z</time>
      </trkpt>
      <trkpt lat="47.21972" lon="6.02592">
        <ele>241.4</ele>
        <time>2024-08-05T06:26:25Z</time>
      </trkpt>
      <trkpt lat="47.21971" lon="6.02583">
        <ele>241.4</ele>
        <time>2024-08-05T06:26:26Z</time>
      </trkpt>
      <trkpt lat="47.2197" lon="6.02574">
        <ele>241.4</ele>
        <time>2024-08-05T06:26:27Z</time>
      </trkpt>
      <trkpt lat="47.21969" lon="6.02565">
        <ele>241.4</ele>
        <time>2024-08-05T06:26:28Z</time>
      </trkpt>
      <trkpt lat="47.21968" lon="6.02556">
        <ele>241.2</ele>
        <time>2024-08-05T06:26:29Z</time>
      </trkpt>
      <trkpt lat="47.21967" lon="6.02547">
        <ele>241.4</ele>
        <time>2024-08-05T06:26:30Z</time>
      </trkpt>
      <trkpt lat="47.21965" lon="6.02538">
        <ele>241.2</ele>
        <time>2024-08-05T06:26:31Z</time>
      </trkpt>
      <trkpt lat="47.21964" lon="6.0253">
        <ele>241.4</ele>
        <time>2024-08-05T06:26:32Z</time>
      </trkpt>
      <trkpt lat="47.21963" lon="6.02521">
        <ele>241.2</ele>
        <time>2024-08-05T06:26:33Z</time>
      </trkpt>
      <trkpt lat="47.21962" lon="6.02512">
        <ele>241</ele>
        <time>2024-08-05T06:26:34Z</time>
      </trkpt>
      <trkpt lat="47.21961" lon="6.02502">
        <ele>241</ele>
        <time>2024-08-05T06:26:35Z</time>
      </trkpt>
      <trkpt lat="47.21961" lon="6.02495">
        <ele>241</ele>
        <time>2024-08-05T06:26:36Z</time>
      </trkpt>
      <trkpt lat="47.2196" lon="6.02486">
        <ele>241</ele>
        <time>2024-08-05T06:26:37Z</time>
      </trkpt>
      <trkpt lat="47.21959" lon="6.02478">
        <ele>241</ele>
        <time>2024-08-05T06:26:38Z</time>
      </trkpt>
      <trkpt lat="47.21958" lon="6.02469">
        <ele>241</ele>
        <time>2024-08-05T06:26:39Z</time>
      </trkpt>
      <trkpt lat="47.21957" lon="6.02461">
        <ele>241</ele>
        <time>2024-08-05T06:26:40Z</time>
      </trkpt>
      <trkpt lat="47.21955" lon="6.02452">
        <ele>241</ele>
        <time>2024-08-05T06:26:41Z</time>
      </trkpt>
      <trkpt lat="47.21953" lon="6.02443">
        <ele>241</ele>
        <time>2024-08-05T06:26:42Z</time>
      </trkpt>
      <trkpt lat="47.21951" lon="6.02434">
        <ele>240.8</ele>
        <time>2024-08-05T06:26:43Z</time>
      </trkpt>
      <trkpt lat="47.21949" lon="6.02425">
        <ele>241</ele>
        <time>2024-08-05T06:26:44Z</time>
      </trkpt>
      <trkpt lat="47.21947" lon="6.02416">
        <ele>241</ele>
        <time>2024-08-05T06:26:45Z</time>
      </trkpt>
      <trkpt lat="47.21945" lon="6.02407">
        <ele>241</ele>
        <time>2024-08-05T06:26:46Z</time>
      </trkpt>
      <trkpt lat="47.21943" lon="6.02398">
        <ele>240.8</ele>
        <time>2024-08-05T06:26:47Z</time>
      </trkpt>
      <trkpt lat="47.21941" lon="6.02389">
        <ele>241</ele>
        <time>2024-08-05T06:26:48Z</time>
      </trkpt>
      <trkpt lat="47.21939" lon="6.0238">
        <ele>241</ele>
        <time>2024-08-05T06:26:49Z</time>
      </trkpt>
      <trkpt lat="47.21936" lon="6.02372">
        <ele>241</ele>
        <time>2024-08-05T06:26:50Z</time>
      </trkpt>
      <trkpt lat="47.21933" lon="6.02363">
        <ele>241</ele>
        <time>2024-08-05T06:26:51Z</time>
      </trkpt>
      <trkpt lat="47.2193" lon="6.02354">
        <ele>240.8</ele>
        <time>2024-08-05T06:26:52Z</time>
      </trkpt>
      <trkpt lat="47.21927" lon="6.02346">
        <ele>241</ele>
        <time>2024-08-05T06:26:53Z</time>
      </trkpt>
      <trkpt lat="47.21924" lon="6.02338">
        <ele>241</ele>
        <time>2024-08-05T06:26:54Z</time>
      </trkpt>
      <trkpt lat="47.21921" lon="6.0233">
        <ele>241</ele>
        <time>2024-08-05T06:26:55Z</time>
      </trkpt>
      <trkpt lat="47.21918" lon="6.02322">
        <ele>240.8</ele>
        <time>2024-08-05T06:26:56Z</time>
      </trkpt>
      <trkpt lat="47.21915" lon="6.02314">
        <ele>240.8</ele>
        <time>2024-08-05T06:26:57Z</time>
      </trkpt>
      <trkpt lat="47.21912" lon="6.02307">
        <ele>241</ele>
        <time>2024-08-05T06:26:58Z</time>
      </trkpt>
      <trkpt lat="47.21909" lon="6.023">
        <ele>240.8</ele>
        <time>2024-08-05T06:26:59Z</time>
      </trkpt>
      <trkpt lat="47.21907" lon="6.02292">
        <ele>241</ele>
        <time>2024-08-05T06:27:00Z</time>
      </trkpt>
      <trkpt lat="47.21903" lon="6.02283">
        <ele>241</ele>
        <time>2024-08-05T06:27:01Z</time>
      </trkpt>
      <trkpt lat="47.219" lon="6.02275">
        <ele>240.8</ele>
        <time>2024-08-05T06:27:02Z</time>
      </trkpt>
      <trkpt lat="47.21897" lon="6.02267">
        <ele>240.8</ele>
        <time>2024-08-05T06:27:03Z</time>
      </trkpt>
      <trkpt lat="47.21893" lon="6.02258">
        <ele>240.8</ele>
        <time>2024-08-05T06:27:04Z</time>
      </trkpt>
      <trkpt lat="47.2189" lon="6.0225">
        <ele>241</ele>
        <time>2024-08-05T06:27:05Z</time>
      </trkpt>
      <trkpt lat="47.21886" lon="6.02241">
        <ele>241</ele>
        <time>2024-08-05T06:27:06Z</time>
      </trkpt>
      <trkpt lat="47.21883" lon="6.02233">
        <ele>240.8</ele>
        <time>2024-08-05T06:27:07Z</time>
      </trkpt>
      <trkpt lat="47.2188" lon="6.02225">
        <ele>240.8</ele>
        <time>2024-08-05T06:27:08Z</time>
      </trkpt>
      <trkpt lat="47.21876" lon="6.02217">
        <ele>241</ele>
        <time>2024-08-05T06:27:09Z</time>
      </trkpt>
      <trkpt lat="47.21873" lon="6.02209">
        <ele>240.6</ele>
        <time>2024-08-05T06:27:10Z</time>
      </trkpt>
      <trkpt lat="47.2187" lon="6.02202">
        <ele>240.6</ele>
        <time>2024-08-05T06:27:11Z</time>
      </trkpt>
      <trkpt lat="47.21866" lon="6.02195">
        <ele>240.6</ele>
        <time>2024-08-05T06:27:12Z</time>
      </trkpt>
      <trkpt lat="47.21863" lon="6.02188">
        <ele>240.4</ele>
        <time>2024-08-05T06:27:13Z</time>
      </trkpt>
      <trkpt lat="47.2186" lon="6.02181">
        <ele>240.4</ele>
        <time>2024-08-05T06:27:14Z</time>
      </trkpt>
      <trkpt lat="47.21857" lon="6.02174">
        <ele>240.4</ele>
        <time>2024-08-05T06:27:15Z</time>
      </trkpt>
      <trkpt lat="47.21854" lon="6.02167">
        <ele>240.4</ele>
        <time>2024-08-05T06:27:16Z</time>
      </trkpt>
      <trkpt lat="47.21851" lon="6.02161">
        <ele>240.6</ele>
        <time>2024-08-05T06:27:17Z</time>
      </trkpt>
      <trkpt lat="47.21848" lon="6.02154">
        <ele>240.4</ele>
        <time>2024-08-05T06:27:18Z</time>
      </trkpt>
      <trkpt lat="47.21846" lon="6.02147">
        <ele>240.4</ele>
        <time>2024-08-05T06:27:19Z</time>
      </trkpt>
      <trkpt lat="47.21843" lon="6.02141">
        <ele>240.2</ele>
        <time>2024-08-05T06:27:20Z</time>
      </trkpt>
      <trkpt lat="47.2184" lon="6.02134">
        <ele>240.4</ele>
        <time>2024-08-05T06:27:21Z</time>
      </trkpt>
      <trkpt lat="47.21837" lon="6.02128">
        <ele>240.2</ele>
        <time>2024-08-05T06:27:22Z</time>
      </trkpt>
      <trkpt lat="47.21834" lon="6.02121">
        <ele>240.2</ele>
        <time>2024-08-05T06:27:23Z</time>
      </trkpt>
      <trkpt lat="47.21831" lon="6.02114">
        <ele>240</ele>
        <time>2024-08-05T06:27:24Z</time>
      </trkpt>
      <trkpt lat="47.21829" lon="6.02107">
        <ele>240</ele>
        <time>2024-08-05T06:27:25Z</time>
      </trkpt>
      <trkpt lat="47.21825" lon="6.021">
        <ele>240</ele>
        <time>2024-08-05T06:27:26Z</time>
      </trkpt>
      <trkpt lat="47.21822" lon="6.02093">
        <ele>239.8</ele>
        <time>2024-08-05T06:27:27Z</time>
      </trkpt>
      <trkpt lat="47.21819" lon="6.02086">
        <ele>239.8</ele>
        <time>2024-08-05T06:27:28Z</time>
      </trkpt>
      <trkpt lat="47.21816" lon="6.02078">
        <ele>239.6</ele>
        <time>2024-08-05T06:27:29Z</time>
      </trkpt>
      <trkpt lat="47.21813" lon="6.02071">
        <ele>239.6</ele>
        <time>2024-08-05T06:27:30Z</time>
      </trkpt>
      <trkpt lat="47.21809" lon="6.02064">
        <ele>239.4</ele>
        <time>2024-08-05T06:27:31Z</time>
      </trkpt>
      <trkpt lat="47.21806" lon="6.02057">
        <ele>239.6</ele>
        <time>2024-08-05T06:27:32Z</time>
      </trkpt>
      <trkpt lat="47.21803" lon="6.0205">
        <ele>239.6</ele>
        <time>2024-08-05T06:27:33Z</time>
      </trkpt>
      <trkpt lat="47.218" lon="6.02043">
        <ele>239.4</ele>
        <time>2024-08-05T06:27:34Z</time>
      </trkpt>
      <trkpt lat="47.21797" lon="6.02035">
        <ele>239.4</ele>
        <time>2024-08-05T06:27:35Z</time>
      </trkpt>
      <trkpt lat="47.21794" lon="6.02028">
        <ele>239.4</ele>
        <time>2024-08-05T06:27:36Z</time>
      </trkpt>
      <trkpt lat="47.21791" lon="6.02021">
        <ele>239.6</ele>
        <time>2024-08-05T06:27:37Z</time>
      </trkpt>
      <trkpt lat="47.21787" lon="6.02013">
        <ele>239.6</ele>
        <time>2024-08-05T06:27:38Z</time>
      </trkpt>
      <trkpt lat="47.21784" lon="6.02006">
        <ele>239.4</ele>
        <time>2024-08-05T06:27:39Z</time>
      </trkpt>
      <trkpt lat="47.21781" lon="6.01998">
        <ele>239.6</ele>
        <time>2024-08-05T06:27:40Z</time>
      </trkpt>
      <trkpt lat="47.21777" lon="6.0199">
        <ele>239.6</ele>
        <time>2024-08-05T06:27:41Z</time>
      </trkpt>
      <trkpt lat="47.21773" lon="6.01982">
        <ele>239.4</ele>
        <time>2024-08-05T06:27:42Z</time>
      </trkpt>
      <trkpt lat="47.21769" lon="6.01974">
        <ele>239.4</ele>
        <time>2024-08-05T06:27:43Z</time>
      </trkpt>
      <trkpt lat="47.21765" lon="6.01966">
        <ele>239.4</ele>
        <time>2024-08-05T06:27:44Z</time>
      </trkpt>
      <trkpt lat="47.21761" lon="6.01957">
        <ele>239.6</ele>
        <time>2024-08-05T06:27:45Z</time>
      </trkpt>
      <trkpt lat="47.21757" lon="6.01949">
        <ele>239.6</ele>
        <time>2024-08-05T06:27:46Z</time>
      </trkpt>
      <trkpt lat="47.21753" lon="6.0194">
        <ele>239.6</ele>
        <time>2024-08-05T06:27:47Z</time>
      </trkpt>
      <trkpt lat="47.2175" lon="6.01932">
        <ele>239.6</ele>
        <time>2024-08-05T06:27:48Z</time>
      </trkpt>
      <trkpt lat="47.21747" lon="6.01924">
        <ele>239.6</ele>
        <time>2024-08-05T06:27:49Z</time>
      </trkpt>
      <trkpt lat="47.21744" lon="6.01917">
        <ele>239.6</ele>
        <time>2024-08-05T06:27:50Z</time>
      </trkpt>
      <trkpt lat="47.2174" lon="6.01909">
        <ele>239.8</ele>
        <time>2024-08-05T06:27:51Z</time>
      </trkpt>
      <trkpt lat="47.21738" lon="6.01902">
        <ele>239.8</ele>
        <time>2024-08-05T06:27:52Z</time>
      </trkpt>
      <trkpt lat="47.21736" lon="6.01895">
        <ele>239.8</ele>
        <time>2024-08-05T06:27:53Z</time>
      </trkpt>
      <trkpt lat="47.21734" lon="6.01887">
        <ele>239.8</ele>
        <time>2024-08-05T06:27:54Z</time>
      </trkpt>
      <trkpt lat="47.21732" lon="6.0188">
        <ele>239.8</ele>
        <time>2024-08-05T06:27:55Z</time>
      </trkpt>
      <trkpt lat="47.2173" lon="6.01872">
        <ele>240</ele>
        <time>2024-08-05T06:27:56Z</time>
      </trkpt>
      <trkpt lat="47.21728" lon="6.01863">
        <ele>239.8</ele>
        <time>2024-08-05T06:27:57Z</time>
      </trkpt>
      <trkpt lat="47.21725" lon="6.01855">
        <ele>240</ele>
        <time>2024-08-05T06:27:58Z</time>
      </trkpt>
      <trkpt lat="47.21723" lon="6.01845">
        <ele>239.8</ele>
        <time>2024-08-05T06:27:59Z</time>
      </trkpt>
      <trkpt lat="47.21721" lon="6.01836">
        <ele>239.8</ele>
        <time>2024-08-05T06:28:00Z</time>
      </trkpt>
      <trkpt lat="47.21718" lon="6.01827">
        <ele>239.8</ele>
        <time>2024-08-05T06:28:01Z</time>
      </trkpt>
      <trkpt lat="47.21716" lon="6.01819">
        <ele>239.8</ele>
        <time>2024-08-05T06:28:02Z</time>
      </trkpt>
      <trkpt lat="47.21714" lon="6.01812">
        <ele>240</ele>
        <time>2024-08-05T06:28:03Z</time>
      </trkpt>
      <trkpt lat="47.21712" lon="6.01805">
        <ele>240</ele>
        <time>2024-08-05T06:28:04Z</time>
      </trkpt>
      <trkpt lat="47.21709" lon="6.01798">
        <ele>240</ele>
        <time>2024-08-05T06:28:05Z</time>
      </trkpt>
      <trkpt lat="47.21707" lon="6.01792">
        <ele>240.2</ele>
        <time>2024-08-05T06:28:06Z</time>
      </trkpt>
      <trkpt lat="47.21705" lon="6.01785">
        <ele>240.2</ele>
        <time>2024-08-05T06:28:07Z</time>
      </trkpt>
      <trkpt lat="47.21704" lon="6.01779">
        <ele>240.2</ele>
        <time>2024-08-05T06:28:08Z</time>
      </trkpt>
      <trkpt lat="47.21703" lon="6.01771">
        <ele>240.2</ele>
        <time>2024-08-05T06:28:09Z</time>
      </trkpt>
      <trkpt lat="47.21703" lon="6.01764">
        <ele>240.2</ele>
        <time>2024-08-05T06:28:10Z</time>
      </trkpt>
      <trkpt lat="47.21702" lon="6.01756">
        <ele>240.2</ele>
        <time>2024-08-05T06:28:11Z</time>
      </trkpt>
      <trkpt lat="47.21702" lon="6.01747">
        <ele>240.2</ele>
        <time>2024-08-05T06:28:12Z</time>
      </trkpt>
      <trkpt lat="47.21702" lon="6.01738">
        <ele>240.2</ele>
        <time>2024-08-05T06:28:13Z</time>
      </trkpt>
      <trkpt lat="47.21701" lon="6.0173">
        <ele>240.2</ele>
        <time>2024-08-05T06:28:14Z</time>
      </trkpt>
      <trkpt lat="47.21701" lon="6.0172">
        <ele>240.2</ele>
        <time>2024-08-05T06:28:15Z</time>
      </trkpt>
      <trkpt lat="47.217" lon="6.01711">
        <ele>240.2</ele>
        <time>2024-08-05T06:28:16Z</time>
      </trkpt>
      <trkpt lat="47.217" lon="6.01701">
        <ele>240.2</ele>
        <time>2024-08-05T06:28:17Z</time>
      </trkpt>
      <trkpt lat="47.21699" lon="6.01692">
        <ele>240.2</ele>
        <time>2024-08-05T06:28:18Z</time>
      </trkpt>
      <trkpt lat="47.21698" lon="6.01682">
        <ele>240.2</ele>
        <time>2024-08-05T06:28:19Z</time>
      </trkpt>
      <trkpt lat="47.21697" lon="6.01672">
        <ele>240.2</ele>
        <time>2024-08-05T06:28:20Z</time>
      </trkpt>
      <trkpt lat="47.21696" lon="6.01662">
        <ele>240.2</ele>
        <time>2024-08-05T06:28:21Z</time>
      </trkpt>
      <trkpt lat="47.21695" lon="6.01653">
        <ele>240.2</ele>
        <time>2024-08-05T06:28:22Z</time>
      </trkpt>
      <trkpt lat="47.21694" lon="6.01643">
        <ele>240.2</ele>
        <time>2024-08-05T06:28:23Z</time>
      </trkpt>
      <trkpt lat="47.21693" lon="6.01634">
        <ele>240.2</ele>
        <time>2024-08-05T06:28:24Z</time>
      </trkpt>
      <trkpt lat="47.21693" lon="6.01624">
        <ele>240.2</ele>
        <time>2024-08-05T06:28:25Z</time>
      </trkpt>
      <trkpt lat="47.21692" lon="6.01614">
        <ele>240</ele>
        <time>2024-08-05T06:28:26Z</time>
      </trkpt>
      <trkpt lat="47.21691" lon="6.01605">
        <ele>239.8</ele>
        <time>2024-08-05T06:28:27Z</time>
      </trkpt>
      <trkpt lat="47.2169" lon="6.01595">
        <ele>239.8</ele>
        <time>2024-08-05T06:28:28Z</time>
      </trkpt>
      <trkpt lat="47.2169" lon="6.01586">
        <ele>239.8</ele>
        <time>2024-08-05T06:28:29Z</time>
      </trkpt>
      <trkpt lat="47.21689" lon="6.01576">
        <ele>239.8</ele>
        <time>2024-08-05T06:28:30Z</time>
      </trkpt>
      <trkpt lat="47.21688" lon="6.01566">
        <ele>239.6</ele>
        <time>2024-08-05T06:28:31Z</time>
      </trkpt>
      <trkpt lat="47.21687" lon="6.01556">
        <ele>239.8</ele>
        <time>2024-08-05T06:28:32Z</time>
      </trkpt>
      <trkpt lat="47.21687" lon="6.01546">
        <ele>239.6</ele>
        <time>2024-08-05T06:28:33Z</time>
      </trkpt>
      <trkpt lat="47.21687" lon="6.01537">
        <ele>239.6</ele>
        <time>2024-08-05T06:28:34Z</time>
      </trkpt>
      <trkpt lat="47.21686" lon="6.01528">
        <ele>239.6</ele>
        <time>2024-08-05T06:28:35Z</time>
      </trkpt>
      <trkpt lat="47.21685" lon="6.01518">
        <ele>239.6</ele>
        <time>2024-08-05T06:28:36Z</time>
      </trkpt>
      <trkpt lat="47.21685" lon="6.01509">
        <ele>239.4</ele>
        <time>2024-08-05T06:28:37Z</time>
      </trkpt>
      <trkpt lat="47.21684" lon="6.015">
        <ele>239.6</ele>
        <time>2024-08-05T06:28:38Z</time>
      </trkpt>
      <trkpt lat="47.21683" lon="6.01491">
        <ele>239.6</ele>
        <time>2024-08-05T06:28:39Z</time>
      </trkpt>
      <trkpt lat="47.21682" lon="6.01481">
        <ele>239.4</ele>
        <time>2024-08-05T06:28:40Z</time>
      </trkpt>
      <trkpt lat="47.21681" lon="6.01471">
        <ele>239.6</ele>
        <time>2024-08-05T06:28:41Z</time>
      </trkpt>
      <trkpt lat="47.2168" lon="6.01462">
        <ele>239.6</ele>
        <time>2024-08-05T06:28:42Z</time>
      </trkpt>
      <trkpt lat="47.2168" lon="6.01452">
        <ele>239.6</ele>
        <time>2024-08-05T06:28:43Z</time>
      </trkpt>
      <trkpt lat="47.21679" lon="6.01443">
        <ele>239.4</ele>
        <time>2024-08-05T06:28:44Z</time>
      </trkpt>
      <trkpt lat="47.21679" lon="6.01433">
        <ele>239.6</ele>
        <time>2024-08-05T06:28:45Z</time>
      </trkpt>
      <trkpt lat="47.21678" lon="6.01424">
        <ele>239.6</ele>
        <time>2024-08-05T06:28:46Z</time>
      </trkpt>
      <trkpt lat="47.21678" lon="6.01415">
        <ele>239.4</ele>
        <time>2024-08-05T06:28:47Z</time>
      </trkpt>
      <trkpt lat="47.21677" lon="6.01405">
        <ele>239.4</ele>
        <time>2024-08-05T06:28:48Z</time>
      </trkpt>
      <trkpt lat="47.21676" lon="6.01395">
        <ele>239.4</ele>
        <time>2024-08-05T06:28:49Z</time>
      </trkpt>
      <trkpt lat="47.21676" lon="6.01386">
        <ele>239.4</ele>
        <time>2024-08-05T06:28:50Z</time>
      </trkpt>
      <trkpt lat="47.21675" lon="6.01376">
        <ele>239.4</ele>
        <time>2024-08-05T06:28:51Z</time>
      </trkpt>
      <trkpt lat="47.21674" lon="6.01367">
        <ele>239.4</ele>
        <time>2024-08-05T06:28:52Z</time>
      </trkpt>
      <trkpt lat="47.21673" lon="6.01358">
        <ele>239.4</ele>
        <time>2024-08-05T06:28:53Z</time>
      </trkpt>
      <trkpt lat="47.21672" lon="6.01348">
        <ele>239.4</ele>
        <time>2024-08-05T06:28:54Z</time>
      </trkpt>
      <trkpt lat="47.21671" lon="6.01339">
        <ele>239.4</ele>
        <time>2024-08-05T06:28:55Z</time>
      </trkpt>
      <trkpt lat="47.2167" lon="6.01329">
        <ele>239.4</ele>
        <time>2024-08-05T06:28:56Z</time>
      </trkpt>
      <trkpt lat="47.2167" lon="6.01319">
        <ele>239.4</ele>
        <time>2024-08-05T06:28:57Z</time>
      </trkpt>
      <trkpt lat="47.21668" lon="6.0131">
        <ele>239.4</ele>
        <time>2024-08-05T06:28:58Z</time>
      </trkpt>
      <trkpt lat="47.21668" lon="6.01301">
        <ele>239.4</ele>
        <time>2024-08-05T06:28:59Z</time>
      </trkpt>
      <trkpt lat="47.21667" lon="6.01292">
        <ele>239.4</ele>
        <time>2024-08-05T06:29:00Z</time>
      </trkpt>
      <trkpt lat="47.21666" lon="6.01282">
        <ele>239.4</ele>
        <time>2024-08-05T06:29:01Z</time>
      </trkpt>
      <trkpt lat="47.21665" lon="6.01273">
        <ele>239.4</ele>
        <time>2024-08-05T06:29:02Z</time>
      </trkpt>
      <trkpt lat="47.21664" lon="6.01264">
        <ele>239.4</ele>
        <time>2024-08-05T06:29:03Z</time>
      </trkpt>
      <trkpt lat="47.21662" lon="6.01255">
        <ele>239.4</ele>
        <time>2024-08-05T06:29:04Z</time>
      </trkpt>
      <trkpt lat="47.21661" lon="6.01247">
        <ele>239.4</ele>
        <time>2024-08-05T06:29:05Z</time>
      </trkpt>
      <trkpt lat="47.2166" lon="6.01239">
        <ele>239.4</ele>
        <time>2024-08-05T06:29:06Z</time>
      </trkpt>
      <trkpt lat="47.21659" lon="6.01232">
        <ele>239.4</ele>
        <time>2024-08-05T06:29:07Z</time>
      </trkpt>
      <trkpt lat="47.21659" lon="6.01224">
        <ele>239.4</ele>
        <time>2024-08-05T06:29:08Z</time>
      </trkpt>
      <trkpt lat="47.21658" lon="6.01216">
        <ele>239.4</ele>
        <time>2024-08-05T06:29:09Z</time>
      </trkpt>
      <trkpt lat="47.21658" lon="6.01208">
        <ele>239.4</ele>
        <time>2024-08-05T06:29:10Z</time>
      </trkpt>
      <trkpt lat="47.21657" lon="6.01199">
        <ele>239.6</ele>
        <time>2024-08-05T06:29:11Z</time>
      </trkpt>
      <trkpt lat="47.21657" lon="6.0119">
        <ele>239.6</ele>
        <time>2024-08-05T06:29:12Z</time>
      </trkpt>
      <trkpt lat="47.21656" lon="6.01181">
        <ele>239.8</ele>
        <time>2024-08-05T06:29:13Z</time>
      </trkpt>
      <trkpt lat="47.21656" lon="6.01171">
        <ele>239.8</ele>
        <time>2024-08-05T06:29:14Z</time>
      </trkpt>
      <trkpt lat="47.21656" lon="6.01162">
        <ele>239.8</ele>
        <time>2024-08-05T06:29:15Z</time>
      </trkpt>
      <trkpt lat="47.21656" lon="6.01153">
        <ele>240</ele>
        <time>2024-08-05T06:29:16Z</time>
      </trkpt>
      <trkpt lat="47.21656" lon="6.01144">
        <ele>240.2</ele>
        <time>2024-08-05T06:29:17Z</time>
      </trkpt>
      <trkpt lat="47.21656" lon="6.01134">
        <ele>240</ele>
        <time>2024-08-05T06:29:18Z</time>
      </trkpt>
      <trkpt lat="47.21655" lon="6.01125">
        <ele>240</ele>
        <time>2024-08-05T06:29:19Z</time>
      </trkpt>
      <trkpt lat="47.21655" lon="6.01114">
        <ele>240.2</ele>
        <time>2024-08-05T06:29:20Z</time>
      </trkpt>
      <trkpt lat="47.21655" lon="6.01104">
        <ele>240.2</ele>
        <time>2024-08-05T06:29:21Z</time>
      </trkpt>
      <trkpt lat="47.21654" lon="6.01094">
        <ele>240.2</ele>
        <time>2024-08-05T06:29:22Z</time>
      </trkpt>
      <trkpt lat="47.21654" lon="6.01084">
        <ele>240</ele>
        <time>2024-08-05T06:29:23Z</time>
      </trkpt>
      <trkpt lat="47.21652" lon="6.01074">
        <ele>240</ele>
        <time>2024-08-05T06:29:24Z</time>
      </trkpt>
      <trkpt lat="47.21652" lon="6.01064">
        <ele>240.2</ele>
        <time>2024-08-05T06:29:25Z</time>
      </trkpt>
      <trkpt lat="47.21651" lon="6.01054">
        <ele>240</ele>
        <time>2024-08-05T06:29:26Z</time>
      </trkpt>
      <trkpt lat="47.2165" lon="6.01044">
        <ele>240</ele>
        <time>2024-08-05T06:29:27Z</time>
      </trkpt>
      <trkpt lat="47.21649" lon="6.01034">
        <ele>240</ele>
        <time>2024-08-05T06:29:28Z</time>
      </trkpt>
      <trkpt lat="47.21649" lon="6.01025">
        <ele>240</ele>
        <time>2024-08-05T06:29:29Z</time>
      </trkpt>
      <trkpt lat="47.21648" lon="6.01015">
        <ele>240</ele>
        <time>2024-08-05T06:29:30Z</time>
      </trkpt>
      <trkpt lat="47.21648" lon="6.01006">
        <ele>239.8</ele>
        <time>2024-08-05T06:29:31Z</time>
      </trkpt>
      <trkpt lat="47.21647" lon="6.00997">
        <ele>239.8</ele>
        <time>2024-08-05T06:29:32Z</time>
      </trkpt>
      <trkpt lat="47.21646" lon="6.00988">
        <ele>239.8</ele>
        <time>2024-08-05T06:29:33Z</time>
      </trkpt>
      <trkpt lat="47.21645" lon="6.0098">
        <ele>239.8</ele>
        <time>2024-08-05T06:29:34Z</time>
      </trkpt>
      <trkpt lat="47.21644" lon="6.0097">
        <ele>239.8</ele>
        <time>2024-08-05T06:29:35Z</time>
      </trkpt>
      <trkpt lat="47.21643" lon="6.00962">
        <ele>239.8</ele>
        <time>2024-08-05T06:29:36Z</time>
      </trkpt>
      <trkpt lat="47.21642" lon="6.00953">
        <ele>239.8</ele>
        <time>2024-08-05T06:29:37Z</time>
      </trkpt>
      <trkpt lat="47.21641" lon="6.00944">
        <ele>239.6</ele>
        <time>2024-08-05T06:29:38Z</time>
      </trkpt>
      <trkpt lat="47.21641" lon="6.00935">
        <ele>239.8</ele>
        <time>2024-08-05T06:29:39Z</time>
      </trkpt>
      <trkpt lat="47.21641" lon="6.00927">
        <ele>239.8</ele>
        <time>2024-08-05T06:29:40Z</time>
      </trkpt>
      <trkpt lat="47.2164" lon="6.00918">
        <ele>239.8</ele>
        <time>2024-08-05T06:29:41Z</time>
      </trkpt>
      <trkpt lat="47.2164" lon="6.00909">
        <ele>239.8</ele>
        <time>2024-08-05T06:29:42Z</time>
      </trkpt>
      <trkpt lat="47.21638" lon="6.00901">
        <ele>239.8</ele>
        <time>2024-08-05T06:29:43Z</time>
      </trkpt>
      <trkpt lat="47.21636" lon="6.00892">
        <ele>239.8</ele>
        <time>2024-08-05T06:29:44Z</time>
      </trkpt>
      <trkpt lat="47.21635" lon="6.00883">
        <ele>240</ele>
        <time>2024-08-05T06:29:45Z</time>
      </trkpt>
      <trkpt lat="47.21634" lon="6.00874">
        <ele>240</ele>
        <time>2024-08-05T06:29:46Z</time>
      </trkpt>
      <trkpt lat="47.21633" lon="6.00864">
        <ele>240</ele>
        <time>2024-08-05T06:29:47Z</time>
      </trkpt>
      <trkpt lat="47.21633" lon="6.00854">
        <ele>240</ele>
        <time>2024-08-05T06:29:48Z</time>
      </trkpt>
      <trkpt lat="47.21632" lon="6.00845">
        <ele>240</ele>
        <time>2024-08-05T06:29:49Z</time>
      </trkpt>
      <trkpt lat="47.21632" lon="6.00834">
        <ele>240</ele>
        <time>2024-08-05T06:29:50Z</time>
      </trkpt>
      <trkpt lat="47.21632" lon="6.00824">
        <ele>240</ele>
        <time>2024-08-05T06:29:51Z</time>
      </trkpt>
      <trkpt lat="47.21631" lon="6.00814">
        <ele>240</ele>
        <time>2024-08-05T06:29:52Z</time>
      </trkpt>
      <trkpt lat="47.21632" lon="6.00804">
        <ele>239.8</ele>
        <time>2024-08-05T06:29:53Z</time>
      </trkpt>
      <trkpt lat="47.21632" lon="6.00794">
        <ele>239.8</ele>
        <time>2024-08-05T06:29:54Z</time>
      </trkpt>
      <trkpt lat="47.21632" lon="6.00784">
        <ele>240</ele>
        <time>2024-08-05T06:29:55Z</time>
      </trkpt>
      <trkpt lat="47.21632" lon="6.00774">
        <ele>239.8</ele>
        <time>2024-08-05T06:29:56Z</time>
      </trkpt>
      <trkpt lat="47.21632" lon="6.00765">
        <ele>239.8</ele>
        <time>2024-08-05T06:29:57Z</time>
      </trkpt>
      <trkpt lat="47.21632" lon="6.00756">
        <ele>240</ele>
        <time>2024-08-05T06:29:58Z</time>
      </trkpt>
      <trkpt lat="47.21631" lon="6.00747">
        <ele>240</ele>
        <time>2024-08-05T06:29:59Z</time>
      </trkpt>
      <trkpt lat="47.2163" lon="6.00738">
        <ele>240</ele>
        <time>2024-08-05T06:30:00Z</time>
      </trkpt>
      <trkpt lat="47.21629" lon="6.00729">
        <ele>240</ele>
        <time>2024-08-05T06:30:01Z</time>
      </trkpt>
      <trkpt lat="47.21628" lon="6.0072">
        <ele>240</ele>
        <time>2024-08-05T06:30:02Z</time>
      </trkpt>
      <trkpt lat="47.21627" lon="6.00711">
        <ele>240</ele>
        <time>2024-08-05T06:30:03Z</time>
      </trkpt>
      <trkpt lat="47.21627" lon="6.00702">
        <ele>240</ele>
        <time>2024-08-05T06:30:04Z</time>
      </trkpt>
      <trkpt lat="47.21626" lon="6.00692">
        <ele>240</ele>
        <time>2024-08-05T06:30:05Z</time>
      </trkpt>
      <trkpt lat="47.21626" lon="6.00682">
        <ele>240.2</ele>
        <time>2024-08-05T06:30:06Z</time>
      </trkpt>
      <trkpt lat="47.21626" lon="6.00672">
        <ele>240</ele>
        <time>2024-08-05T06:30:07Z</time>
      </trkpt>
      <trkpt lat="47.21625" lon="6.00662">
        <ele>240</ele>
        <time>2024-08-05T06:30:08Z</time>
      </trkpt>
      <trkpt lat="47.21625" lon="6.00653">
        <ele>240</ele>
        <time>2024-08-05T06:30:09Z</time>
      </trkpt>
      <trkpt lat="47.21624" lon="6.00643">
        <ele>240</ele>
        <time>2024-08-05T06:30:10Z</time>
      </trkpt>
      <trkpt lat="47.21623" lon="6.00633">
        <ele>240</ele>
        <time>2024-08-05T06:30:11Z</time>
      </trkpt>
      <trkpt lat="47.21622" lon="6.00623">
        <ele>240</ele>
        <time>2024-08-05T06:30:12Z</time>
      </trkpt>
      <trkpt lat="47.21621" lon="6.00613">
        <ele>240</ele>
        <time>2024-08-05T06:30:13Z</time>
      </trkpt>
      <trkpt lat="47.21619" lon="6.00604">
        <ele>240</ele>
        <time>2024-08-05T06:30:14Z</time>
      </trkpt>
      <trkpt lat="47.21617" lon="6.00595">
        <ele>240</ele>
        <time>2024-08-05T06:30:15Z</time>
      </trkpt>
      <trkpt lat="47.21615" lon="6.00586">
        <ele>240</ele>
        <time>2024-08-05T06:30:16Z</time>
      </trkpt>
      <trkpt lat="47.21614" lon="6.00576">
        <ele>240</ele>
        <time>2024-08-05T06:30:17Z</time>
      </trkpt>
      <trkpt lat="47.21612" lon="6.00567">
        <ele>240</ele>
        <time>2024-08-05T06:30:18Z</time>
      </trkpt>
      <trkpt lat="47.21611" lon="6.00558">
        <ele>240</ele>
        <time>2024-08-05T06:30:19Z</time>
      </trkpt>
      <trkpt lat="47.21609" lon="6.00549">
        <ele>240</ele>
        <time>2024-08-05T06:30:20Z</time>
      </trkpt>
      <trkpt lat="47.21608" lon="6.0054">
        <ele>240</ele>
        <time>2024-08-05T06:30:21Z</time>
      </trkpt>
      <trkpt lat="47.21607" lon="6.00531">
        <ele>239.8</ele>
        <time>2024-08-05T06:30:22Z</time>
      </trkpt>
      <trkpt lat="47.21606" lon="6.00521">
        <ele>239.8</ele>
        <time>2024-08-05T06:30:23Z</time>
      </trkpt>
      <trkpt lat="47.21604" lon="6.00512">
        <ele>240</ele>
        <time>2024-08-05T06:30:24Z</time>
      </trkpt>
      <trkpt lat="47.21603" lon="6.00503">
        <ele>240</ele>
        <time>2024-08-05T06:30:25Z</time>
      </trkpt>
      <trkpt lat="47.21601" lon="6.00494">
        <ele>240</ele>
        <time>2024-08-05T06:30:26Z</time>
      </trkpt>
      <trkpt lat="47.21599" lon="6.00485">
        <ele>240</ele>
        <time>2024-08-05T06:30:27Z</time>
      </trkpt>
      <trkpt lat="47.21597" lon="6.00476">
        <ele>239.8</ele>
        <time>2024-08-05T06:30:28Z</time>
      </trkpt>
      <trkpt lat="47.21596" lon="6.00466">
        <ele>240</ele>
        <time>2024-08-05T06:30:29Z</time>
      </trkpt>
      <trkpt lat="47.21594" lon="6.00457">
        <ele>239.8</ele>
        <time>2024-08-05T06:30:30Z</time>
      </trkpt>
      <trkpt lat="47.21593" lon="6.00447">
        <ele>239.8</ele>
        <time>2024-08-05T06:30:31Z</time>
      </trkpt>
      <trkpt lat="47.21591" lon="6.00438">
        <ele>240</ele>
        <time>2024-08-05T06:30:32Z</time>
      </trkpt>
      <trkpt lat="47.2159" lon="6.00428">
        <ele>239.8</ele>
        <time>2024-08-05T06:30:33Z</time>
      </trkpt>
      <trkpt lat="47.21588" lon="6.00418">
        <ele>239.8</ele>
        <time>2024-08-05T06:30:34Z</time>
      </trkpt>
      <trkpt lat="47.21586" lon="6.00408">
        <ele>239.8</ele>
        <time>2024-08-05T06:30:35Z</time>
      </trkpt>
      <trkpt lat="47.21584" lon="6.00399">
        <ele>239.8</ele>
        <time>2024-08-05T06:30:36Z</time>
      </trkpt>
      <trkpt lat="47.21582" lon="6.0039">
        <ele>239.8</ele>
        <time>2024-08-05T06:30:37Z</time>
      </trkpt>
      <trkpt lat="47.21579" lon="6.00381">
        <ele>239.8</ele>
        <time>2024-08-05T06:30:38Z</time>
      </trkpt>
      <trkpt lat="47.21576" lon="6.00372">
        <ele>240</ele>
        <time>2024-08-05T06:30:39Z</time>
      </trkpt>
      <trkpt lat="47.21573" lon="6.00364">
        <ele>240</ele>
        <time>2024-08-05T06:30:40Z</time>
      </trkpt>
      <trkpt lat="47.21569" lon="6.00356">
        <ele>239.8</ele>
        <time>2024-08-05T06:30:41Z</time>
      </trkpt>
      <trkpt lat="47.21565" lon="6.00349">
        <ele>240</ele>
        <time>2024-08-05T06:30:42Z</time>
      </trkpt>
      <trkpt lat="47.2156" lon="6.00343">
        <ele>240</ele>
        <time>2024-08-05T06:30:43Z</time>
      </trkpt>
      <trkpt lat="47.21556" lon="6.00336">
        <ele>239.8</ele>
        <time>2024-08-05T06:30:44Z</time>
      </trkpt>
      <trkpt lat="47.21551" lon="6.00331">
        <ele>239.8</ele>
        <time>2024-08-05T06:30:45Z</time>
      </trkpt>
      <trkpt lat="47.21547" lon="6.00325">
        <ele>239.8</ele>
        <time>2024-08-05T06:30:46Z</time>
      </trkpt>
      <trkpt lat="47.21542" lon="6.00319">
        <ele>239.8</ele>
        <time>2024-08-05T06:30:47Z</time>
      </trkpt>
      <trkpt lat="47.21537" lon="6.00314">
        <ele>240</ele>
        <time>2024-08-05T06:30:48Z</time>
      </trkpt>
      <trkpt lat="47.21533" lon="6.00308">
        <ele>240</ele>
        <time>2024-08-05T06:30:49Z</time>
      </trkpt>
      <trkpt lat="47.21529" lon="6.00302">
        <ele>240.2</ele>
        <time>2024-08-05T06:30:50Z</time>
      </trkpt>
      <trkpt lat="47.21525" lon="6.00297">
        <ele>240.2</ele>
        <time>2024-08-05T06:30:51Z</time>
      </trkpt>
      <trkpt lat="47.21521" lon="6.00292">
        <ele>240.2</ele>
        <time>2024-08-05T06:30:52Z</time>
      </trkpt>
      <trkpt lat="47.21517" lon="6.00286">
        <ele>240.2</ele>
        <time>2024-08-05T06:30:53Z</time>
      </trkpt>
      <trkpt lat="47.21513" lon="6.0028">
        <ele>240.2</ele>
        <time>2024-08-05T06:30:54Z</time>
      </trkpt>
      <trkpt lat="47.21509" lon="6.00274">
        <ele>240.4</ele>
        <time>2024-08-05T06:30:55Z</time>
      </trkpt>
      <trkpt lat="47.21504" lon="6.00268">
        <ele>240.2</ele>
        <time>2024-08-05T06:30:56Z</time>
      </trkpt>
      <trkpt lat="47.215" lon="6.00261">
        <ele>240.4</ele>
        <time>2024-08-05T06:30:57Z</time>
      </trkpt>
      <trkpt lat="47.21494" lon="6.00255">
        <ele>240.2</ele>
        <time>2024-08-05T06:30:58Z</time>
      </trkpt>
      <trkpt lat="47.21489" lon="6.00249">
        <ele>240.2</ele>
        <time>2024-08-05T06:30:59Z</time>
      </trkpt>
      <trkpt lat="47.21484" lon="6.00244">
        <ele>240.4</ele>
        <time>2024-08-05T06:31:00Z</time>
      </trkpt>
      <trkpt lat="47.21479" lon="6.00238">
        <ele>240.2</ele>
        <time>2024-08-05T06:31:01Z</time>
      </trkpt>
      <trkpt lat="47.21474" lon="6.00232">
        <ele>240.2</ele>
        <time>2024-08-05T06:31:02Z</time>
      </trkpt>
      <trkpt lat="47.21469" lon="6.00226">
        <ele>240.2</ele>
        <time>2024-08-05T06:31:03Z</time>
      </trkpt>
      <trkpt lat="47.21464" lon="6.0022">
        <ele>240.4</ele>
        <time>2024-08-05T06:31:04Z</time>
      </trkpt>
      <trkpt lat="47.21459" lon="6.00215">
        <ele>240.2</ele>
        <time>2024-08-05T06:31:05Z</time>
      </trkpt>
      <trkpt lat="47.21454" lon="6.00209">
        <ele>240</ele>
        <time>2024-08-05T06:31:06Z</time>
      </trkpt>
      <trkpt lat="47.21449" lon="6.00203">
        <ele>240.2</ele>
        <time>2024-08-05T06:31:07Z</time>
      </trkpt>
      <trkpt lat="47.21445" lon="6.00196">
        <ele>240</ele>
        <time>2024-08-05T06:31:08Z</time>
      </trkpt>
      <trkpt lat="47.21441" lon="6.0019">
        <ele>240.2</ele>
        <time>2024-08-05T06:31:09Z</time>
      </trkpt>
      <trkpt lat="47.21436" lon="6.00183">
        <ele>240</ele>
        <time>2024-08-05T06:31:10Z</time>
      </trkpt>
      <trkpt lat="47.21431" lon="6.00177">
        <ele>239.8</ele>
        <time>2024-08-05T06:31:11Z</time>
      </trkpt>
      <trkpt lat="47.21427" lon="6.00171">
        <ele>239.8</ele>
        <time>2024-08-05T06:31:12Z</time>
      </trkpt>
      <trkpt lat="47.21422" lon="6.00165">
        <ele>239.8</ele>
        <time>2024-08-05T06:31:13Z</time>
      </trkpt>
      <trkpt lat="47.21418" lon="6.0016">
        <ele>240</ele>
        <time>2024-08-05T06:31:14Z</time>
      </trkpt>
      <trkpt lat="47.21414" lon="6.00154">
        <ele>239.8</ele>
        <time>2024-08-05T06:31:15Z</time>
      </trkpt>
      <trkpt lat="47.21409" lon="6.00149">
        <ele>239.8</ele>
        <time>2024-08-05T06:31:16Z</time>
      </trkpt>
      <trkpt lat="47.21404" lon="6.00144">
        <ele>239.8</ele>
        <time>2024-08-05T06:31:17Z</time>
      </trkpt>
      <trkpt lat="47.21399" lon="6.00139">
        <ele>239.8</ele>
        <time>2024-08-05T06:31:18Z</time>
      </trkpt>
      <trkpt lat="47.21395" lon="6.00133">
        <ele>239.6</ele>
        <time>2024-08-05T06:31:19Z</time>
      </trkpt>
      <trkpt lat="47.21389" lon="6.00128">
        <ele>239.6</ele>
        <time>2024-08-05T06:31:20Z</time>
      </trkpt>
      <trkpt lat="47.21385" lon="6.00122">
        <ele>239.6</ele>
        <time>2024-08-05T06:31:21Z</time>
      </trkpt>
      <trkpt lat="47.2138" lon="6.00118">
        <ele>239.6</ele>
        <time>2024-08-05T06:31:22Z</time>
      </trkpt>
      <trkpt lat="47.21376" lon="6.00112">
        <ele>239.6</ele>
        <time>2024-08-05T06:31:23Z</time>
      </trkpt>
      <trkpt lat="47.21371" lon="6.00107">
        <ele>239.6</ele>
        <time>2024-08-05T06:31:24Z</time>
      </trkpt>
      <trkpt lat="47.21366" lon="6.00101">
        <ele>239.6</ele>
        <time>2024-08-05T06:31:25Z</time>
      </trkpt>
      <trkpt lat="47.21361" lon="6.00095">
        <ele>239.6</ele>
        <time>2024-08-05T06:31:26Z</time>
      </trkpt>
      <trkpt lat="47.21355" lon="6.00089">
        <ele>239.8</ele>
        <time>2024-08-05T06:31:27Z</time>
      </trkpt>
      <trkpt lat="47.2135" lon="6.00082">
        <ele>239.6</ele>
        <time>2024-08-05T06:31:28Z</time>
      </trkpt>
      <trkpt lat="47.21345" lon="6.00076">
        <ele>239.6</ele>
        <time>2024-08-05T06:31:29Z</time>
      </trkpt>
      <trkpt lat="47.2134" lon="6.0007">
        <ele>239.6</ele>
        <time>2024-08-05T06:31:30Z</time>
      </trkpt>
      <trkpt lat="47.21334" lon="6.00064">
        <ele>239.6</ele>
        <time>2024-08-05T06:31:31Z</time>
      </trkpt>
      <trkpt lat="47.21328" lon="6.00059">
        <ele>239.6</ele>
        <time>2024-08-05T06:31:32Z</time>
      </trkpt>
      <trkpt lat="47.21322" lon="6.00054">
        <ele>239.6</ele>
        <time>2024-08-05T06:31:33Z</time>
      </trkpt>
      <trkpt lat="47.21316" lon="6.00049">
        <ele>239.6</ele>
        <time>2024-08-05T06:31:34Z</time>
      </trkpt>
      <trkpt lat="47.21311" lon="6.00044">
        <ele>239.4</ele>
        <time>2024-08-05T06:31:35Z</time>
      </trkpt>
      <trkpt lat="47.21305" lon="6.00039">
        <ele>239.4</ele>
        <time>2024-08-05T06:31:36Z</time>
      </trkpt>
      <trkpt lat="47.21299" lon="6.00035">
        <ele>239.2</ele>
        <time>2024-08-05T06:31:37Z</time>
      </trkpt>
      <trkpt lat="47.21294" lon="6.00029">
        <ele>239.4</ele>
        <time>2024-08-05T06:31:38Z</time>
      </trkpt>
      <trkpt lat="47.21288" lon="6.00023">
        <ele>239.2</ele>
        <time>2024-08-05T06:31:39Z</time>
      </trkpt>
      <trkpt lat="47.21282" lon="6.00018">
        <ele>239.2</ele>
        <time>2024-08-05T06:31:40Z</time>
      </trkpt>
      <trkpt lat="47.21276" lon="6.00013">
        <ele>239.2</ele>
        <time>2024-08-05T06:31:41Z</time>
      </trkpt>
      <trkpt lat="47.21271" lon="6.00007">
        <ele>239</ele>
        <time>2024-08-05T06:31:42Z</time>
      </trkpt>
      <trkpt lat="47.21265" lon="6.00001">
        <ele>238.8</ele>
        <time>2024-08-05T06:31:43Z</time>
      </trkpt>
      <trkpt lat="47.2126" lon="5.99995">
        <ele>238.8</ele>
        <time>2024-08-05T06:31:44Z</time>
      </trkpt>
      <trkpt lat="47.21254" lon="5.99989">
        <ele>238.8</ele>
        <time>2024-08-05T06:31:45Z</time>
      </trkpt>
      <trkpt lat="47.21249" lon="5.99984">
        <ele>238.6</ele>
        <time>2024-08-05T06:31:46Z</time>
      </trkpt>
      <trkpt lat="47.21244" lon="5.99979">
        <ele>238.6</ele>
        <time>2024-08-05T06:31:47Z</time>
      </trkpt>
      <trkpt lat="47.21239" lon="5.99973">
        <ele>238.6</ele>
        <time>2024-08-05T06:31:48Z</time>
      </trkpt>
      <trkpt lat="47.21234" lon="5.99968">
        <ele>238.6</ele>
        <time>2024-08-05T06:31:49Z</time>
      </trkpt>
      <trkpt lat="47.21229" lon="5.99963">
        <ele>238.4</ele>
        <time>2024-08-05T06:31:50Z</time>
      </trkpt>
      <trkpt lat="47.21224" lon="5.99958">
        <ele>238.4</ele>
        <time>2024-08-05T06:31:51Z</time>
      </trkpt>
      <trkpt lat="47.21219" lon="5.99954">
        <ele>238.4</ele>
        <time>2024-08-05T06:31:52Z</time>
      </trkpt>
      <trkpt lat="47.21214" lon="5.99948">
        <ele>238.2</ele>
        <time>2024-08-05T06:31:53Z</time>
      </trkpt>
      <trkpt lat="47.21209" lon="5.99943">
        <ele>238.4</ele>
        <time>2024-08-05T06:31:54Z</time>
      </trkpt>
      <trkpt lat="47.21204" lon="5.99938">
        <ele>238.2</ele>
        <time>2024-08-05T06:31:55Z</time>
      </trkpt>
      <trkpt lat="47.21199" lon="5.99933">
        <ele>238.4</ele>
        <time>2024-08-05T06:31:56Z</time>
      </trkpt>
      <trkpt lat="47.21194" lon="5.99927">
        <ele>238.4</ele>
        <time>2024-08-05T06:31:57Z</time>
      </trkpt>
      <trkpt lat="47.2119" lon="5.99922">
        <ele>238.2</ele>
        <time>2024-08-05T06:31:58Z</time>
      </trkpt>
      <trkpt lat="47.21185" lon="5.99916">
        <ele>238.2</ele>
        <time>2024-08-05T06:31:59Z</time>
      </trkpt>
      <trkpt lat="47.2118" lon="5.9991">
        <ele>238.4</ele>
        <time>2024-08-05T06:32:00Z</time>
      </trkpt>
      <trkpt lat="47.21175" lon="5.99904">
        <ele>238.4</ele>
        <time>2024-08-05T06:32:01Z</time>
      </trkpt>
      <trkpt lat="47.2117" lon="5.99899">
        <ele>238.4</ele>
        <time>2024-08-05T06:32:02Z</time>
      </trkpt>
      <trkpt lat="47.21165" lon="5.99893">
        <ele>238.4</ele>
        <time>2024-08-05T06:32:03Z</time>
      </trkpt>
      <trkpt lat="47.2116" lon="5.99887">
        <ele>238.6</ele>
        <time>2024-08-05T06:32:04Z</time>
      </trkpt>
      <trkpt lat="47.21155" lon="5.99882">
        <ele>238.4</ele>
        <time>2024-08-05T06:32:05Z</time>
      </trkpt>
      <trkpt lat="47.2115" lon="5.99876">
        <ele>238.6</ele>
        <time>2024-08-05T06:32:06Z</time>
      </trkpt>
      <trkpt lat="47.21145" lon="5.99871">
        <ele>238.6</ele>
        <time>2024-08-05T06:32:07Z</time>
      </trkpt>
      <trkpt lat="47.2114" lon="5.99866">
        <ele>238.6</ele>
        <time>2024-08-05T06:32:08Z</time>
      </trkpt>
      <trkpt lat="47.21135" lon="5.99861">
        <ele>238.6</ele>
        <time>2024-08-05T06:32:09Z</time>
      </trkpt>
      <trkpt lat="47.21129" lon="5.99856">
        <ele>238.4</ele>
        <time>2024-08-05T06:32:10Z</time>
      </trkpt>
      <trkpt lat="47.21124" lon="5.99851">
        <ele>238.4</ele>
        <time>2024-08-05T06:32:11Z</time>
      </trkpt>
      <trkpt lat="47.21119" lon="5.99846">
        <ele>238.4</ele>
        <time>2024-08-05T06:32:12Z</time>
      </trkpt>
      <trkpt lat="47.21113" lon="5.99841">
        <ele>238.6</ele>
        <time>2024-08-05T06:32:13Z</time>
      </trkpt>
      <trkpt lat="47.21109" lon="5.99836">
        <ele>238.6</ele>
        <time>2024-08-05T06:32:14Z</time>
      </trkpt>
      <trkpt lat="47.21104" lon="5.9983">
        <ele>238.4</ele>
        <time>2024-08-05T06:32:15Z</time>
      </trkpt>
      <trkpt lat="47.21099" lon="5.99825">
        <ele>238.6</ele>
        <time>2024-08-05T06:32:16Z</time>
      </trkpt>
      <trkpt lat="47.21094" lon="5.9982">
        <ele>238.4</ele>
        <time>2024-08-05T06:32:17Z</time>
      </trkpt>
      <trkpt lat="47.21088" lon="5.99815">
        <ele>238.6</ele>
        <time>2024-08-05T06:32:18Z</time>
      </trkpt>
      <trkpt lat="47.21083" lon="5.9981">
        <ele>238.4</ele>
        <time>2024-08-05T06:32:19Z</time>
      </trkpt>
      <trkpt lat="47.21078" lon="5.99804">
        <ele>238.4</ele>
        <time>2024-08-05T06:32:20Z</time>
      </trkpt>
      <trkpt lat="47.21073" lon="5.998">
        <ele>238.6</ele>
        <time>2024-08-05T06:32:21Z</time>
      </trkpt>
      <trkpt lat="47.21068" lon="5.99795">
        <ele>238.4</ele>
        <time>2024-08-05T06:32:22Z</time>
      </trkpt>
      <trkpt lat="47.21064" lon="5.9979">
        <ele>238.6</ele>
        <time>2024-08-05T06:32:23Z</time>
      </trkpt>
      <trkpt lat="47.21059" lon="5.99786">
        <ele>238.6</ele>
        <time>2024-08-05T06:32:24Z</time>
      </trkpt>
      <trkpt lat="47.21054" lon="5.99781">
        <ele>238.6</ele>
        <time>2024-08-05T06:32:25Z</time>
      </trkpt>
      <trkpt lat="47.21049" lon="5.99776">
        <ele>238.4</ele>
        <time>2024-08-05T06:32:26Z</time>
      </trkpt>
      <trkpt lat="47.21044" lon="5.99771">
        <ele>238.6</ele>
        <time>2024-08-05T06:32:27Z</time>
      </trkpt>
      <trkpt lat="47.21038" lon="5.99767">
        <ele>238.6</ele>
        <time>2024-08-05T06:32:28Z</time>
      </trkpt>
      <trkpt lat="47.21033" lon="5.99762">
        <ele>238.4</ele>
        <time>2024-08-05T06:32:29Z</time>
      </trkpt>
      <trkpt lat="47.21028" lon="5.99757">
        <ele>238.6</ele>
        <time>2024-08-05T06:32:30Z</time>
      </trkpt>
      <trkpt lat="47.21022" lon="5.99751">
        <ele>238.4</ele>
        <time>2024-08-05T06:32:31Z</time>
      </trkpt>
      <trkpt lat="47.21017" lon="5.99746">
        <ele>238.4</ele>
        <time>2024-08-05T06:32:32Z</time>
      </trkpt>
      <trkpt lat="47.21012" lon="5.99741">
        <ele>238.4</ele>
        <time>2024-08-05T06:32:33Z</time>
      </trkpt>
      <trkpt lat="47.21006" lon="5.99736">
        <ele>238.6</ele>
        <time>2024-08-05T06:32:34Z</time>
      </trkpt>
      <trkpt lat="47.21001" lon="5.9973">
        <ele>238.4</ele>
        <time>2024-08-05T06:32:35Z</time>
      </trkpt>
      <trkpt lat="47.20995" lon="5.99724">
        <ele>238.4</ele>
        <time>2024-08-05T06:32:36Z</time>
      </trkpt>
      <trkpt lat="47.2099" lon="5.99719">
        <ele>238.4</ele>
        <time>2024-08-05T06:32:37Z</time>
      </trkpt>
      <trkpt lat="47.20984" lon="5.99713">
        <ele>238.6</ele>
        <time>2024-08-05T06:32:38Z</time>
      </trkpt>
      <trkpt lat="47.20979" lon="5.99708">
        <ele>238.4</ele>
        <time>2024-08-05T06:32:39Z</time>
      </trkpt>
      <trkpt lat="47.20974" lon="5.99702">
        <ele>238.4</ele>
        <time>2024-08-05T06:32:40Z</time>
      </trkpt>
      <trkpt lat="47.20969" lon="5.99697">
        <ele>238.4</ele>
        <time>2024-08-05T06:32:41Z</time>
      </trkpt>
      <trkpt lat="47.20964" lon="5.99691">
        <ele>238.2</ele>
        <time>2024-08-05T06:32:42Z</time>
      </trkpt>
      <trkpt lat="47.20959" lon="5.99685">
        <ele>238.4</ele>
        <time>2024-08-05T06:32:43Z</time>
      </trkpt>
      <trkpt lat="47.20953" lon="5.9968">
        <ele>238.4</ele>
        <time>2024-08-05T06:32:44Z</time>
      </trkpt>
      <trkpt lat="47.20948" lon="5.99675">
        <ele>238.2</ele>
        <time>2024-08-05T06:32:45Z</time>
      </trkpt>
      <trkpt lat="47.20943" lon="5.99669">
        <ele>238.2</ele>
        <time>2024-08-05T06:32:46Z</time>
      </trkpt>
      <trkpt lat="47.20938" lon="5.99663">
        <ele>238.2</ele>
        <time>2024-08-05T06:32:47Z</time>
      </trkpt>
      <trkpt lat="47.20934" lon="5.99658">
        <ele>238.2</ele>
        <time>2024-08-05T06:32:48Z</time>
      </trkpt>
      <trkpt lat="47.20929" lon="5.99653">
        <ele>238.2</ele>
        <time>2024-08-05T06:32:49Z</time>
      </trkpt>
      <trkpt lat="47.20924" lon="5.99647">
        <ele>238.2</ele>
        <time>2024-08-05T06:32:50Z</time>
      </trkpt>
      <trkpt lat="47.20919" lon="5.99642">
        <ele>238</ele>
        <time>2024-08-05T06:32:51Z</time>
      </trkpt>
      <trkpt lat="47.20913" lon="5.99637">
        <ele>238</ele>
        <time>2024-08-05T06:32:52Z</time>
      </trkpt>
      <trkpt lat="47.20908" lon="5.99632">
        <ele>238.2</ele>
        <time>2024-08-05T06:32:53Z</time>
      </trkpt>
      <trkpt lat="47.20903" lon="5.99627">
        <ele>238</ele>
        <time>2024-08-05T06:32:54Z</time>
      </trkpt>
      <trkpt lat="47.20897" lon="5.99622">
        <ele>238.2</ele>
        <time>2024-08-05T06:32:55Z</time>
      </trkpt>
      <trkpt lat="47.20892" lon="5.99617">
        <ele>238</ele>
        <time>2024-08-05T06:32:56Z</time>
      </trkpt>
      <trkpt lat="47.20887" lon="5.99612">
        <ele>238</ele>
        <time>2024-08-05T06:32:57Z</time>
      </trkpt>
      <trkpt lat="47.20881" lon="5.99609">
        <ele>238</ele>
        <time>2024-08-05T06:32:58Z</time>
      </trkpt>
      <trkpt lat="47.20876" lon="5.99605">
        <ele>238</ele>
        <time>2024-08-05T06:32:59Z</time>
      </trkpt>
      <trkpt lat="47.2087" lon="5.99602">
        <ele>238</ele>
        <time>2024-08-05T06:33:00Z</time>
      </trkpt>
      <trkpt lat="47.20864" lon="5.996">
        <ele>238</ele>
        <time>2024-08-05T06:33:01Z</time>
      </trkpt>
      <trkpt lat="47.20858" lon="5.99598">
        <ele>238</ele>
        <time>2024-08-05T06:33:02Z</time>
      </trkpt>
      <trkpt lat="47.20852" lon="5.99596">
        <ele>237.8</ele>
        <time>2024-08-05T06:33:03Z</time>
      </trkpt>
      <trkpt lat="47.20846" lon="5.99593">
        <ele>237.8</ele>
        <time>2024-08-05T06:33:04Z</time>
      </trkpt>
      <trkpt lat="47.20841" lon="5.99591">
        <ele>237.8</ele>
        <time>2024-08-05T06:33:05Z</time>
      </trkpt>
      <trkpt lat="47.20835" lon="5.99589">
        <ele>237.6</ele>
        <time>2024-08-05T06:33:06Z</time>
      </trkpt>
      <trkpt lat="47.2083" lon="5.99587">
        <ele>237.6</ele>
        <time>2024-08-05T06:33:07Z</time>
      </trkpt>
      <trkpt lat="47.20825" lon="5.99584">
        <ele>237.6</ele>
        <time>2024-08-05T06:33:08Z</time>
      </trkpt>
      <trkpt lat="47.2082" lon="5.9958">
        <ele>237.6</ele>
        <time>2024-08-05T06:33:09Z</time>
      </trkpt>
      <trkpt lat="47.20814" lon="5.99577">
        <ele>237.6</ele>
        <time>2024-08-05T06:33:10Z</time>
      </trkpt>
      <trkpt lat="47.20808" lon="5.99575">
        <ele>237.8</ele>
        <time>2024-08-05T06:33:11Z</time>
      </trkpt>
      <trkpt lat="47.20802" lon="5.99572">
        <ele>237.8</ele>
        <time>2024-08-05T06:33:12Z</time>
      </trkpt>
      <trkpt lat="47.20795" lon="5.99569">
        <ele>237.6</ele>
        <time>2024-08-05T06:33:13Z</time>
      </trkpt>
      <trkpt lat="47.20789" lon="5.99566">
        <ele>237.8</ele>
        <time>2024-08-05T06:33:14Z</time>
      </trkpt>
      <trkpt lat="47.20783" lon="5.99563">
        <ele>237.6</ele>
        <time>2024-08-05T06:33:15Z</time>
      </trkpt>
      <trkpt lat="47.20776" lon="5.9956">
        <ele>237.8</ele>
        <time>2024-08-05T06:33:16Z</time>
      </trkpt>
      <trkpt lat="47.20771" lon="5.99556">
        <ele>237.6</ele>
        <time>2024-08-05T06:33:17Z</time>
      </trkpt>
      <trkpt lat="47.20765" lon="5.99553">
        <ele>237.8</ele>
        <time>2024-08-05T06:33:18Z</time>
      </trkpt>
      <trkpt lat="47.2076" lon="5.9955">
        <ele>237.8</ele>
        <time>2024-08-05T06:33:19Z</time>
      </trkpt>
      <trkpt lat="47.20754" lon="5.99546">
        <ele>237.8</ele>
        <time>2024-08-05T06:33:20Z</time>
      </trkpt>
      <trkpt lat="47.20748" lon="5.99543">
        <ele>237.6</ele>
        <time>2024-08-05T06:33:21Z</time>
      </trkpt>
      <trkpt lat="47.20742" lon="5.9954">
        <ele>237.6</ele>
        <time>2024-08-05T06:33:22Z</time>
      </trkpt>
      <trkpt lat="47.20736" lon="5.99538">
        <ele>237.6</ele>
        <time>2024-08-05T06:33:23Z</time>
      </trkpt>
      <trkpt lat="47.2073" lon="5.99536">
        <ele>237.6</ele>
        <time>2024-08-05T06:33:24Z</time>
      </trkpt>
      <trkpt lat="47.20724" lon="5.99533">
        <ele>237.6</ele>
        <time>2024-08-05T06:33:25Z</time>
      </trkpt>
      <trkpt lat="47.20718" lon="5.99531">
        <ele>237.6</ele>
        <time>2024-08-05T06:33:26Z</time>
      </trkpt>
      <trkpt lat="47.20712" lon="5.99529">
        <ele>237.6</ele>
        <time>2024-08-05T06:33:27Z</time>
      </trkpt>
      <trkpt lat="47.20706" lon="5.99526">
        <ele>237.6</ele>
        <time>2024-08-05T06:33:28Z</time>
      </trkpt>
      <trkpt lat="47.207" lon="5.99524">
        <ele>237.6</ele>
        <time>2024-08-05T06:33:29Z</time>
      </trkpt>
      <trkpt lat="47.20694" lon="5.99522">
        <ele>237.6</ele>
        <time>2024-08-05T06:33:30Z</time>
      </trkpt>
      <trkpt lat="47.20689" lon="5.9952">
        <ele>237.4</ele>
        <time>2024-08-05T06:33:31Z</time>
      </trkpt>
      <trkpt lat="47.20683" lon="5.99517">
        <ele>237.6</ele>
        <time>2024-08-05T06:33:32Z</time>
      </trkpt>
      <trkpt lat="47.20678" lon="5.99516">
        <ele>237.6</ele>
        <time>2024-08-05T06:33:33Z</time>
      </trkpt>
      <trkpt lat="47.20673" lon="5.99515">
        <ele>237.6</ele>
        <time>2024-08-05T06:33:34Z</time>
      </trkpt>
      <trkpt lat="47.20668" lon="5.99518">
        <ele>237.4</ele>
        <time>2024-08-05T06:33:35Z</time>
      </trkpt>
      <trkpt lat="47.20664" lon="5.99522">
        <ele>237.6</ele>
        <time>2024-08-05T06:33:36Z</time>
      </trkpt>
      <trkpt lat="47.20661" lon="5.99527">
        <ele>237.6</ele>
        <time>2024-08-05T06:33:37Z</time>
      </trkpt>
      <trkpt lat="47.20659" lon="5.99533">
        <ele>237.4</ele>
        <time>2024-08-05T06:33:38Z</time>
      </trkpt>
      <trkpt lat="47.20657" lon="5.9954">
        <ele>237.4</ele>
        <time>2024-08-05T06:33:39Z</time>
      </trkpt>
      <trkpt lat="47.20655" lon="5.99547">
        <ele>237.6</ele>
        <time>2024-08-05T06:33:40Z</time>
      </trkpt>
      <trkpt lat="47.20653" lon="5.99554">
        <ele>237.4</ele>
        <time>2024-08-05T06:33:41Z</time>
      </trkpt>
      <trkpt lat="47.20652" lon="5.99562">
        <ele>237.6</ele>
        <time>2024-08-05T06:33:42Z</time>
      </trkpt>
      <trkpt lat="47.2065" lon="5.99569">
        <ele>237.6</ele>
        <time>2024-08-05T06:33:43Z</time>
      </trkpt>
      <trkpt lat="47.20649" lon="5.99575">
        <ele>237.6</ele>
        <time>2024-08-05T06:33:44Z</time>
      </trkpt>
      <trkpt lat="47.20647" lon="5.9958">
        <ele>237.6</ele>
        <time>2024-08-05T06:33:45Z</time>
      </trkpt>
      <trkpt lat="47.20645" lon="5.99584">
        <ele>237.6</ele>
        <time>2024-08-05T06:33:46Z</time>
      </trkpt>
      <trkpt lat="47.20643" lon="5.99586">
        <ele>237.6</ele>
        <time>2024-08-05T06:33:47Z</time>
      </trkpt>
      <trkpt lat="47.2064" lon="5.99587">
        <ele>237.6</ele>
        <time>2024-08-05T06:33:48Z</time>
      </trkpt>
      <trkpt lat="47.20638" lon="5.99586">
        <ele>237.6</ele>
        <time>2024-08-05T06:33:49Z</time>
      </trkpt>
      <trkpt lat="47.20635" lon="5.99584">
        <ele>237.4</ele>
        <time>2024-08-05T06:33:50Z</time>
      </trkpt>
      <trkpt lat="47.20632" lon="5.99581">
        <ele>237.6</ele>
        <time>2024-08-05T06:33:51Z</time>
      </trkpt>
      <trkpt lat="47.20628" lon="5.99579">
        <ele>237.6</ele>
        <time>2024-08-05T06:33:52Z</time>
      </trkpt>
      <trkpt lat="47.20624" lon="5.99576">
        <ele>237.6</ele>
        <time>2024-08-05T06:33:53Z</time>
      </trkpt>
      <trkpt lat="47.2062" lon="5.99573">
        <ele>237.6</ele>
        <time>2024-08-05T06:33:54Z</time>
      </trkpt>
      <trkpt lat="47.20615" lon="5.99571">
        <ele>237.6</ele>
        <time>2024-08-05T06:33:55Z</time>
      </trkpt>
      <trkpt lat="47.2061" lon="5.99568">
        <ele>237.6</ele>
        <time>2024-08-05T06:33:56Z</time>
      </trkpt>
      <trkpt lat="47.20605" lon="5.99566">
        <ele>237.6</ele>
        <time>2024-08-05T06:33:57Z</time>
      </trkpt>
      <trkpt lat="47.206" lon="5.99564">
        <ele>237.6</ele>
        <time>2024-08-05T06:33:58Z</time>
      </trkpt>
      <trkpt lat="47.20594" lon="5.99561">
        <ele>237.8</ele>
        <time>2024-08-05T06:33:59Z</time>
      </trkpt>
      <trkpt lat="47.20589" lon="5.99559">
        <ele>237.6</ele>
        <time>2024-08-05T06:34:00Z</time>
      </trkpt>
      <trkpt lat="47.20583" lon="5.99557">
        <ele>237.6</ele>
        <time>2024-08-05T06:34:01Z</time>
      </trkpt>
      <trkpt lat="47.20578" lon="5.99554">
        <ele>237.8</ele>
        <time>2024-08-05T06:34:02Z</time>
      </trkpt>
      <trkpt lat="47.20572" lon="5.99552">
        <ele>237.6</ele>
        <time>2024-08-05T06:34:03Z</time>
      </trkpt>
      <trkpt lat="47.20566" lon="5.9955">
        <ele>237.8</ele>
        <time>2024-08-05T06:34:04Z</time>
      </trkpt>
      <trkpt lat="47.20561" lon="5.99548">
        <ele>237.6</ele>
        <time>2024-08-05T06:34:05Z</time>
      </trkpt>
      <trkpt lat="47.20555" lon="5.99546">
        <ele>237.6</ele>
        <time>2024-08-05T06:34:06Z</time>
      </trkpt>
      <trkpt lat="47.20549" lon="5.99544">
        <ele>237.8</ele>
        <time>2024-08-05T06:34:07Z</time>
      </trkpt>
      <trkpt lat="47.20543" lon="5.99542">
        <ele>237.8</ele>
        <time>2024-08-05T06:34:08Z</time>
      </trkpt>
      <trkpt lat="47.20537" lon="5.99539">
        <ele>237.8</ele>
        <time>2024-08-05T06:34:09Z</time>
      </trkpt>
      <trkpt lat="47.20531" lon="5.99537">
        <ele>237.8</ele>
        <time>2024-08-05T06:34:10Z</time>
      </trkpt>
      <trkpt lat="47.20525" lon="5.99535">
        <ele>237.8</ele>
        <time>2024-08-05T06:34:11Z</time>
      </trkpt>
      <trkpt lat="47.20519" lon="5.99532">
        <ele>237.8</ele>
        <time>2024-08-05T06:34:12Z</time>
      </trkpt>
      <trkpt lat="47.20513" lon="5.9953">
        <ele>237.8</ele>
        <time>2024-08-05T06:34:13Z</time>
      </trkpt>
      <trkpt lat="47.20507" lon="5.99528">
        <ele>237.8</ele>
        <time>2024-08-05T06:34:14Z</time>
      </trkpt>
      <trkpt lat="47.20502" lon="5.99526">
        <ele>237.8</ele>
        <time>2024-08-05T06:34:15Z</time>
      </trkpt>
      <trkpt lat="47.20496" lon="5.99525">
        <ele>238</ele>
        <time>2024-08-05T06:34:16Z</time>
      </trkpt>
      <trkpt lat="47.2049" lon="5.99522">
        <ele>238</ele>
        <time>2024-08-05T06:34:17Z</time>
      </trkpt>
      <trkpt lat="47.20485" lon="5.9952">
        <ele>238</ele>
        <time>2024-08-05T06:34:18Z</time>
      </trkpt>
      <trkpt lat="47.20479" lon="5.99518">
        <ele>238</ele>
        <time>2024-08-05T06:34:19Z</time>
      </trkpt>
      <trkpt lat="47.20474" lon="5.99516">
        <ele>238</ele>
        <time>2024-08-05T06:34:20Z</time>
      </trkpt>
      <trkpt lat="47.20468" lon="5.99513">
        <ele>238.2</ele>
        <time>2024-08-05T06:34:21Z</time>
      </trkpt>
      <trkpt lat="47.20462" lon="5.9951">
        <ele>238.2</ele>
        <time>2024-08-05T06:34:22Z</time>
      </trkpt>
      <trkpt lat="47.20457" lon="5.99507">
        <ele>238.2</ele>
        <time>2024-08-05T06:34:23Z</time>
      </trkpt>
      <trkpt lat="47.20452" lon="5.99504">
        <ele>238.2</ele>
        <time>2024-08-05T06:34:24Z</time>
      </trkpt>
      <trkpt lat="47.20446" lon="5.99502">
        <ele>238.2</ele>
        <time>2024-08-05T06:34:25Z</time>
      </trkpt>
      <trkpt lat="47.20441" lon="5.99499">
        <ele>238.2</ele>
        <time>2024-08-05T06:34:26Z</time>
      </trkpt>
      <trkpt lat="47.20436" lon="5.99495">
        <ele>238.2</ele>
        <time>2024-08-05T06:34:27Z</time>
      </trkpt>
      <trkpt lat="47.20431" lon="5.99492">
        <ele>238.4</ele>
        <time>2024-08-05T06:34:28Z</time>
      </trkpt>
      <trkpt lat="47.20426" lon="5.99489">
        <ele>238.4</ele>
        <time>2024-08-05T06:34:29Z</time>
      </trkpt>
      <trkpt lat="47.20421" lon="5.99486">
        <ele>238.4</ele>
        <time>2024-08-05T06:34:30Z</time>
      </trkpt>
      <trkpt lat="47.20415" lon="5.99483">
        <ele>238.6</ele>
        <time>2024-08-05T06:34:31Z</time>
      </trkpt>
      <trkpt lat="47.20409" lon="5.99481">
        <ele>238.6</ele>
        <time>2024-08-05T06:34:32Z</time>
      </trkpt>
      <trkpt lat="47.20403" lon="5.99479">
        <ele>238.8</ele>
        <time>2024-08-05T06:34:33Z</time>
      </trkpt>
      <trkpt lat="47.20398" lon="5.99477">
        <ele>238.6</ele>
        <time>2024-08-05T06:34:34Z</time>
      </trkpt>
      <trkpt lat="47.20392" lon="5.99474">
        <ele>238.8</ele>
        <time>2024-08-05T06:34:35Z</time>
      </trkpt>
      <trkpt lat="47.20386" lon="5.99472">
        <ele>238.6</ele>
        <time>2024-08-05T06:34:36Z</time>
      </trkpt>
      <trkpt lat="47.2038" lon="5.9947">
        <ele>238.8</ele>
        <time>2024-08-05T06:34:37Z</time>
      </trkpt>
      <trkpt lat="47.20375" lon="5.99468">
        <ele>238.6</ele>
        <time>2024-08-05T06:34:38Z</time>
      </trkpt>
      <trkpt lat="47.20369" lon="5.99465">
        <ele>238.6</ele>
        <time>2024-08-05T06:34:39Z</time>
      </trkpt>
      <trkpt lat="47.20363" lon="5.99463">
        <ele>238.8</ele>
        <time>2024-08-05T06:34:40Z</time>
      </trkpt>
      <trkpt lat="47.20357" lon="5.9946">
        <ele>238.8</ele>
        <time>2024-08-05T06:34:41Z</time>
      </trkpt>
      <trkpt lat="47.20352" lon="5.99458">
        <ele>238.8</ele>
        <time>2024-08-05T06:34:42Z</time>
      </trkpt>
      <trkpt lat="47.20345" lon="5.99456">
        <ele>238.8</ele>
        <time>2024-08-05T06:34:43Z</time>
      </trkpt>
      <trkpt lat="47.20339" lon="5.99454">
        <ele>238.8</ele>
        <time>2024-08-05T06:34:44Z</time>
      </trkpt>
      <trkpt lat="47.20334" lon="5.99452">
        <ele>238.8</ele>
        <time>2024-08-05T06:34:45Z</time>
      </trkpt>
      <trkpt lat="47.20328" lon="5.9945">
        <ele>238.8</ele>
        <time>2024-08-05T06:34:46Z</time>
      </trkpt>
      <trkpt lat="47.20322" lon="5.99448">
        <ele>238.8</ele>
        <time>2024-08-05T06:34:47Z</time>
      </trkpt>
      <trkpt lat="47.20316" lon="5.99446">
        <ele>238.6</ele>
        <time>2024-08-05T06:34:48Z</time>
      </trkpt>
      <trkpt lat="47.2031" lon="5.99444">
        <ele>238.6</ele>
        <time>2024-08-05T06:34:49Z</time>
      </trkpt>
      <trkpt lat="47.20304" lon="5.99441">
        <ele>238.8</ele>
        <time>2024-08-05T06:34:50Z</time>
      </trkpt>
      <trkpt lat="47.20299" lon="5.99438">
        <ele>238.8</ele>
        <time>2024-08-05T06:34:51Z</time>
      </trkpt>
      <trkpt lat="47.20293" lon="5.99434">
        <ele>238.6</ele>
        <time>2024-08-05T06:34:52Z</time>
      </trkpt>
      <trkpt lat="47.20287" lon="5.99431">
        <ele>238.6</ele>
        <time>2024-08-05T06:34:53Z</time>
      </trkpt>
      <trkpt lat="47.20281" lon="5.99429">
        <ele>238.4</ele>
        <time>2024-08-05T06:34:54Z</time>
      </trkpt>
      <trkpt lat="47.20275" lon="5.99426">
        <ele>238.6</ele>
        <time>2024-08-05T06:34:55Z</time>
      </trkpt>
      <trkpt lat="47.20269" lon="5.99423">
        <ele>238.6</ele>
        <time>2024-08-05T06:34:56Z</time>
      </trkpt>
      <trkpt lat="47.20264" lon="5.99419">
        <ele>238.6</ele>
        <time>2024-08-05T06:34:57Z</time>
      </trkpt>
      <trkpt lat="47.20259" lon="5.99416">
        <ele>238.4</ele>
        <time>2024-08-05T06:34:58Z</time>
      </trkpt>
      <trkpt lat="47.20253" lon="5.99413">
        <ele>238.4</ele>
        <time>2024-08-05T06:34:59Z</time>
      </trkpt>
      <trkpt lat="47.20248" lon="5.9941">
        <ele>238.4</ele>
        <time>2024-08-05T06:35:00Z</time>
      </trkpt>
      <trkpt lat="47.20242" lon="5.99406">
        <ele>238.2</ele>
        <time>2024-08-05T06:35:01Z</time>
      </trkpt>
      <trkpt lat="47.20237" lon="5.99402">
        <ele>238.2</ele>
        <time>2024-08-05T06:35:02Z</time>
      </trkpt>
      <trkpt lat="47.20231" lon="5.99399">
        <ele>238.2</ele>
        <time>2024-08-05T06:35:03Z</time>
      </trkpt>
      <trkpt lat="47.20226" lon="5.99395">
        <ele>238.2</ele>
        <time>2024-08-05T06:35:04Z</time>
      </trkpt>
      <trkpt lat="47.20221" lon="5.99392">
        <ele>238.2</ele>
        <time>2024-08-05T06:35:05Z</time>
      </trkpt>
      <trkpt lat="47.20215" lon="5.99388">
        <ele>238.2</ele>
        <time>2024-08-05T06:35:06Z</time>
      </trkpt>
      <trkpt lat="47.2021" lon="5.99384">
        <ele>238.2</ele>
        <time>2024-08-05T06:35:07Z</time>
      </trkpt>
      <trkpt lat="47.20205" lon="5.9938">
        <ele>238.2</ele>
        <time>2024-08-05T06:35:08Z</time>
      </trkpt>
      <trkpt lat="47.202" lon="5.99376">
        <ele>238.2</ele>
        <time>2024-08-05T06:35:09Z</time>
      </trkpt>
      <trkpt lat="47.20195" lon="5.99372">
        <ele>238.2</ele>
        <time>2024-08-05T06:35:10Z</time>
      </trkpt>
      <trkpt lat="47.2019" lon="5.99368">
        <ele>238.2</ele>
        <time>2024-08-05T06:35:11Z</time>
      </trkpt>
      <trkpt lat="47.20185" lon="5.99363">
        <ele>238.2</ele>
        <time>2024-08-05T06:35:12Z</time>
      </trkpt>
      <trkpt lat="47.2018" lon="5.99359">
        <ele>238.2</ele>
        <time>2024-08-05T06:35:13Z</time>
      </trkpt>
      <trkpt lat="47.20175" lon="5.99354">
        <ele>238.2</ele>
        <time>2024-08-05T06:35:14Z</time>
      </trkpt>
      <trkpt lat="47.2017" lon="5.99349">
        <ele>238.2</ele>
        <time>2024-08-05T06:35:15Z</time>
      </trkpt>
      <trkpt lat="47.20165" lon="5.99345">
        <ele>238.2</ele>
        <time>2024-08-05T06:35:16Z</time>
      </trkpt>
      <trkpt lat="47.2016" lon="5.9934">
        <ele>238.2</ele>
        <time>2024-08-05T06:35:17Z</time>
      </trkpt>
      <trkpt lat="47.20155" lon="5.99335">
        <ele>238.2</ele>
        <time>2024-08-05T06:35:18Z</time>
      </trkpt>
      <trkpt lat="47.20151" lon="5.9933">
        <ele>238.2</ele>
        <time>2024-08-05T06:35:19Z</time>
      </trkpt>
      <trkpt lat="47.20146" lon="5.99326">
        <ele>238.2</ele>
        <time>2024-08-05T06:35:20Z</time>
      </trkpt>
      <trkpt lat="47.20141" lon="5.99322">
        <ele>238.2</ele>
        <time>2024-08-05T06:35:21Z</time>
      </trkpt>
      <trkpt lat="47.20136" lon="5.99318">
        <ele>238.2</ele>
        <time>2024-08-05T06:35:22Z</time>
      </trkpt>
      <trkpt lat="47.20132" lon="5.99314">
        <ele>238.2</ele>
        <time>2024-08-05T06:35:23Z</time>
      </trkpt>
      <trkpt lat="47.20128" lon="5.99309">
        <ele>238.2</ele>
        <time>2024-08-05T06:35:24Z</time>
      </trkpt>
      <trkpt lat="47.20124" lon="5.99305">
        <ele>238.2</ele>
        <time>2024-08-05T06:35:25Z</time>
      </trkpt>
      <trkpt lat="47.20121" lon="5.993">
        <ele>238.2</ele>
        <time>2024-08-05T06:35:26Z</time>
      </trkpt>
      <trkpt lat="47.20117" lon="5.99295">
        <ele>238</ele>
        <time>2024-08-05T06:35:27Z</time>
      </trkpt>
      <trkpt lat="47.20113" lon="5.99291">
        <ele>238</ele>
        <time>2024-08-05T06:35:28Z</time>
      </trkpt>
      <trkpt lat="47.20109" lon="5.99286">
        <ele>238.2</ele>
        <time>2024-08-05T06:35:29Z</time>
      </trkpt>
      <trkpt lat="47.20105" lon="5.99281">
        <ele>238.2</ele>
        <time>2024-08-05T06:35:30Z</time>
      </trkpt>
      <trkpt lat="47.20101" lon="5.99276">
        <ele>238.2</ele>
        <time>2024-08-05T06:35:31Z</time>
      </trkpt>
      <trkpt lat="47.20097" lon="5.99271">
        <ele>238.2</ele>
        <time>2024-08-05T06:35:32Z</time>
      </trkpt>
      <trkpt lat="47.20093" lon="5.99267">
        <ele>238.2</ele>
        <time>2024-08-05T06:35:33Z</time>
      </trkpt>
      <trkpt lat="47.20088" lon="5.99263">
        <ele>238.4</ele>
        <time>2024-08-05T06:35:34Z</time>
      </trkpt>
      <trkpt lat="47.20084" lon="5.99257">
        <ele>238.4</ele>
        <time>2024-08-05T06:35:35Z</time>
      </trkpt>
      <trkpt lat="47.20081" lon="5.99252">
        <ele>238.4</ele>
        <time>2024-08-05T06:35:36Z</time>
      </trkpt>
      <trkpt lat="47.20077" lon="5.99246">
        <ele>238.6</ele>
        <time>2024-08-05T06:35:37Z</time>
      </trkpt>
      <trkpt lat="47.20073" lon="5.99239">
        <ele>238.6</ele>
        <time>2024-08-05T06:35:38Z</time>
      </trkpt>
      <trkpt lat="47.2007" lon="5.99232">
        <ele>238.6</ele>
        <time>2024-08-05T06:35:39Z</time>
      </trkpt>
      <trkpt lat="47.20068" lon="5.99226">
        <ele>238.8</ele>
        <time>2024-08-05T06:35:40Z</time>
      </trkpt>
      <trkpt lat="47.20064" lon="5.9922">
        <ele>238.8</ele>
        <time>2024-08-05T06:35:41Z</time>
      </trkpt>
      <trkpt lat="47.2006" lon="5.99214">
        <ele>239</ele>
        <time>2024-08-05T06:35:42Z</time>
      </trkpt>
      <trkpt lat="47.20056" lon="5.99208">
        <ele>238.8</ele>
        <time>2024-08-05T06:35:43Z</time>
      </trkpt>
      <trkpt lat="47.20051" lon="5.99202">
        <ele>238.8</ele>
        <time>2024-08-05T06:35:44Z</time>
      </trkpt>
      <trkpt lat="47.20048" lon="5.99195">
        <ele>239.2</ele>
        <time>2024-08-05T06:35:45Z</time>
      </trkpt>
      <trkpt lat="47.20044" lon="5.99187">
        <ele>239.4</ele>
        <time>2024-08-05T06:35:46Z</time>
      </trkpt>
      <trkpt lat="47.2004" lon="5.99179">
        <ele>239.6</ele>
        <time>2024-08-05T06:35:47Z</time>
      </trkpt>
      <trkpt lat="47.20037" lon="5.99171">
        <ele>239.6</ele>
        <time>2024-08-05T06:35:48Z</time>
      </trkpt>
      <trkpt lat="47.20034" lon="5.99163">
        <ele>239.8</ele>
        <time>2024-08-05T06:35:49Z</time>
      </trkpt>
      <trkpt lat="47.20031" lon="5.99155">
        <ele>239.6</ele>
        <time>2024-08-05T06:35:50Z</time>
      </trkpt>
      <trkpt lat="47.20028" lon="5.99147">
        <ele>239.6</ele>
        <time>2024-08-05T06:35:51Z</time>
      </trkpt>
      <trkpt lat="47.20025" lon="5.99139">
        <ele>239.6</ele>
        <time>2024-08-05T06:35:52Z</time>
      </trkpt>
      <trkpt lat="47.20022" lon="5.99131">
        <ele>239.8</ele>
        <time>2024-08-05T06:35:53Z</time>
      </trkpt>
      <trkpt lat="47.20019" lon="5.99122">
        <ele>239.8</ele>
        <time>2024-08-05T06:35:54Z</time>
      </trkpt>
      <trkpt lat="47.20016" lon="5.99114">
        <ele>239.8</ele>
        <time>2024-08-05T06:35:55Z</time>
      </trkpt>
      <trkpt lat="47.20016" lon="5.99103">
        <ele>239.6</ele>
        <time>2024-08-05T06:35:56Z</time>
      </trkpt>
      <trkpt lat="47.20016" lon="5.99094">
        <ele>239.6</ele>
        <time>2024-08-05T06:35:57Z</time>
      </trkpt>
      <trkpt lat="47.20017" lon="5.99084">
        <ele>239.6</ele>
        <time>2024-08-05T06:35:58Z</time>
      </trkpt>
      <trkpt lat="47.20018" lon="5.99074">
        <ele>239.6</ele>
        <time>2024-08-05T06:35:59Z</time>
      </trkpt>
      <trkpt lat="47.20018" lon="5.99065">
        <ele>239.6</ele>
        <time>2024-08-05T06:36:00Z</time>
      </trkpt>
      <trkpt lat="47.20018" lon="5.99056">
        <ele>239.4</ele>
        <time>2024-08-05T06:36:01Z</time>
      </trkpt>
      <trkpt lat="47.20016" lon="5.99048">
        <ele>239.2</ele>
        <time>2024-08-05T06:36:02Z</time>
      </trkpt>
      <trkpt lat="47.20014" lon="5.99039">
        <ele>238.8</ele>
        <time>2024-08-05T06:36:03Z</time>
      </trkpt>
      <trkpt lat="47.20011" lon="5.99031">
        <ele>238.2</ele>
        <time>2024-08-05T06:36:04Z</time>
      </trkpt>
      <trkpt lat="47.20008" lon="5.99024">
        <ele>238.2</ele>
        <time>2024-08-05T06:36:05Z</time>
      </trkpt>
      <trkpt lat="47.20005" lon="5.99016">
        <ele>238.2</ele>
        <time>2024-08-05T06:36:06Z</time>
      </trkpt>
      <trkpt lat="47.20002" lon="5.99008">
        <ele>238</ele>
        <time>2024-08-05T06:36:07Z</time>
      </trkpt>
      <trkpt lat="47.19999" lon="5.99">
        <ele>237.8</ele>
        <time>2024-08-05T06:36:08Z</time>
      </trkpt>
      <trkpt lat="47.19995" lon="5.98992">
        <ele>237.8</ele>
        <time>2024-08-05T06:36:09Z</time>
      </trkpt>
      <trkpt lat="47.19992" lon="5.98983">
        <ele>237.6</ele>
        <time>2024-08-05T06:36:10Z</time>
      </trkpt>
      <trkpt lat="47.19989" lon="5.98975">
        <ele>237.6</ele>
        <time>2024-08-05T06:36:11Z</time>
      </trkpt>
      <trkpt lat="47.19986" lon="5.98966">
        <ele>237.6</ele>
        <time>2024-08-05T06:36:12Z</time>
      </trkpt>
      <trkpt lat="47.19983" lon="5.98958">
        <ele>237.6</ele>
        <time>2024-08-05T06:36:13Z</time>
      </trkpt>
      <trkpt lat="47.1998" lon="5.98949">
        <ele>237.6</ele>
        <time>2024-08-05T06:36:14Z</time>
      </trkpt>
      <trkpt lat="47.19977" lon="5.98941">
        <ele>237.6</ele>
        <time>2024-08-05T06:36:15Z</time>
      </trkpt>
      <trkpt lat="47.19973" lon="5.98933">
        <ele>237.4</ele>
        <time>2024-08-05T06:36:16Z</time>
      </trkpt>
      <trkpt lat="47.19971" lon="5.98924">
        <ele>237.2</ele>
        <time>2024-08-05T06:36:17Z</time>
      </trkpt>
      <trkpt lat="47.19968" lon="5.98916">
        <ele>237.2</ele>
        <time>2024-08-05T06:36:18Z</time>
      </trkpt>
      <trkpt lat="47.19965" lon="5.98907">
        <ele>237.4</ele>
        <time>2024-08-05T06:36:19Z</time>
      </trkpt>
      <trkpt lat="47.19963" lon="5.98899">
        <ele>237.2</ele>
        <time>2024-08-05T06:36:20Z</time>
      </trkpt>
      <trkpt lat="47.1996" lon="5.9889">
        <ele>237.2</ele>
        <time>2024-08-05T06:36:21Z</time>
      </trkpt>
      <trkpt lat="47.19958" lon="5.98882">
        <ele>237.2</ele>
        <time>2024-08-05T06:36:22Z</time>
      </trkpt>
      <trkpt lat="47.19955" lon="5.98874">
        <ele>237</ele>
        <time>2024-08-05T06:36:23Z</time>
      </trkpt>
      <trkpt lat="47.19953" lon="5.98865">
        <ele>237</ele>
        <time>2024-08-05T06:36:24Z</time>
      </trkpt>
      <trkpt lat="47.1995" lon="5.98857">
        <ele>237.2</ele>
        <time>2024-08-05T06:36:25Z</time>
      </trkpt>
      <trkpt lat="47.19947" lon="5.9885">
        <ele>237</ele>
        <time>2024-08-05T06:36:26Z</time>
      </trkpt>
      <trkpt lat="47.19944" lon="5.98842">
        <ele>237</ele>
        <time>2024-08-05T06:36:27Z</time>
      </trkpt>
      <trkpt lat="47.19942" lon="5.98834">
        <ele>237</ele>
        <time>2024-08-05T06:36:28Z</time>
      </trkpt>
      <trkpt lat="47.19939" lon="5.98826">
        <ele>237</ele>
        <time>2024-08-05T06:36:29Z</time>
      </trkpt>
      <trkpt lat="47.19936" lon="5.98818">
        <ele>237</ele>
        <time>2024-08-05T06:36:30Z</time>
      </trkpt>
      <trkpt lat="47.19933" lon="5.98811">
        <ele>237</ele>
        <time>2024-08-05T06:36:31Z</time>
      </trkpt>
      <trkpt lat="47.1993" lon="5.98803">
        <ele>237</ele>
        <time>2024-08-05T06:36:32Z</time>
      </trkpt>
      <trkpt lat="47.19927" lon="5.98796">
        <ele>237</ele>
        <time>2024-08-05T06:36:33Z</time>
      </trkpt>
      <trkpt lat="47.19924" lon="5.98788">
        <ele>237</ele>
        <time>2024-08-05T06:36:34Z</time>
      </trkpt>
      <trkpt lat="47.19921" lon="5.9878">
        <ele>237</ele>
        <time>2024-08-05T06:36:35Z</time>
      </trkpt>
      <trkpt lat="47.19918" lon="5.98773">
        <ele>237</ele>
        <time>2024-08-05T06:36:36Z</time>
      </trkpt>
      <trkpt lat="47.19915" lon="5.98765">
        <ele>237</ele>
        <time>2024-08-05T06:36:37Z</time>
      </trkpt>
      <trkpt lat="47.19912" lon="5.98758">
        <ele>237</ele>
        <time>2024-08-05T06:36:38Z</time>
      </trkpt>
      <trkpt lat="47.19908" lon="5.9875">
        <ele>237.2</ele>
        <time>2024-08-05T06:36:39Z</time>
      </trkpt>
      <trkpt lat="47.19905" lon="5.98743">
        <ele>237.2</ele>
        <time>2024-08-05T06:36:40Z</time>
      </trkpt>
      <trkpt lat="47.19902" lon="5.98735">
        <ele>237</ele>
        <time>2024-08-05T06:36:41Z</time>
      </trkpt>
      <trkpt lat="47.19899" lon="5.98727">
        <ele>237</ele>
        <time>2024-08-05T06:36:42Z</time>
      </trkpt>
      <trkpt lat="47.19896" lon="5.9872">
        <ele>237.2</ele>
        <time>2024-08-05T06:36:43Z</time>
      </trkpt>
      <trkpt lat="47.19892" lon="5.98712">
        <ele>237.2</ele>
        <time>2024-08-05T06:36:44Z</time>
      </trkpt>
      <trkpt lat="47.19889" lon="5.98705">
        <ele>237.2</ele>
        <time>2024-08-05T06:36:45Z</time>
      </trkpt>
      <trkpt lat="47.19886" lon="5.98697">
        <ele>237.2</ele>
        <time>2024-08-05T06:36:46Z</time>
      </trkpt>
      <trkpt lat="47.19882" lon="5.98689">
        <ele>237.2</ele>
        <time>2024-08-05T06:36:47Z</time>
      </trkpt>
      <trkpt lat="47.19879" lon="5.98682">
        <ele>237.2</ele>
        <time>2024-08-05T06:36:48Z</time>
      </trkpt>
      <trkpt lat="47.19876" lon="5.98674">
        <ele>237.2</ele>
        <time>2024-08-05T06:36:49Z</time>
      </trkpt>
      <trkpt lat="47.19873" lon="5.98666">
        <ele>237.2</ele>
        <time>2024-08-05T06:36:50Z</time>
      </trkpt>
      <trkpt lat="47.1987" lon="5.98658">
        <ele>237.4</ele>
        <time>2024-08-05T06:36:51Z</time>
      </trkpt>
      <trkpt lat="47.19867" lon="5.9865">
        <ele>237.2</ele>
        <time>2024-08-05T06:36:52Z</time>
      </trkpt>
      <trkpt lat="47.19864" lon="5.98642">
        <ele>237.2</ele>
        <time>2024-08-05T06:36:53Z</time>
      </trkpt>
      <trkpt lat="47.19861" lon="5.98634">
        <ele>237.2</ele>
        <time>2024-08-05T06:36:54Z</time>
      </trkpt>
      <trkpt lat="47.19858" lon="5.98626">
        <ele>237.4</ele>
        <time>2024-08-05T06:36:55Z</time>
      </trkpt>
      <trkpt lat="47.19855" lon="5.98618">
        <ele>237.2</ele>
        <time>2024-08-05T06:36:56Z</time>
      </trkpt>
      <trkpt lat="47.19853" lon="5.9861">
        <ele>237.4</ele>
        <time>2024-08-05T06:36:57Z</time>
      </trkpt>
      <trkpt lat="47.1985" lon="5.98602">
        <ele>237.2</ele>
        <time>2024-08-05T06:36:58Z</time>
      </trkpt>
      <trkpt lat="47.19847" lon="5.98594">
        <ele>237.4</ele>
        <time>2024-08-05T06:36:59Z</time>
      </trkpt>
      <trkpt lat="47.19844" lon="5.98586">
        <ele>237.2</ele>
        <time>2024-08-05T06:37:00Z</time>
      </trkpt>
      <trkpt lat="47.19841" lon="5.98578">
        <ele>237.4</ele>
        <time>2024-08-05T06:37:01Z</time>
      </trkpt>
      <trkpt lat="47.19839" lon="5.9857">
        <ele>237.4</ele>
        <time>2024-08-05T06:37:02Z</time>
      </trkpt>
      <trkpt lat="47.19836" lon="5.98562">
        <ele>237.4</ele>
        <time>2024-08-05T06:37:03Z</time>
      </trkpt>
      <trkpt lat="47.19833" lon="5.98554">
        <ele>237.4</ele>
        <time>2024-08-05T06:37:04Z</time>
      </trkpt>
      <trkpt lat="47.1983" lon="5.98546">
        <ele>237.4</ele>
        <time>2024-08-05T06:37:05Z</time>
      </trkpt>
      <trkpt lat="47.19828" lon="5.98538">
        <ele>237.4</ele>
        <time>2024-08-05T06:37:06Z</time>
      </trkpt>
      <trkpt lat="47.19825" lon="5.9853">
        <ele>237.4</ele>
        <time>2024-08-05T06:37:07Z</time>
      </trkpt>
      <trkpt lat="47.19822" lon="5.98522">
        <ele>237.4</ele>
        <time>2024-08-05T06:37:08Z</time>
      </trkpt>
      <trkpt lat="47.1982" lon="5.98514">
        <ele>237.4</ele>
        <time>2024-08-05T06:37:09Z</time>
      </trkpt>
      <trkpt lat="47.19818" lon="5.98505">
        <ele>237.4</ele>
        <time>2024-08-05T06:37:10Z</time>
      </trkpt>
      <trkpt lat="47.19815" lon="5.98497">
        <ele>237.4</ele>
        <time>2024-08-05T06:37:11Z</time>
      </trkpt>
      <trkpt lat="47.19813" lon="5.98489">
        <ele>237.4</ele>
        <time>2024-08-05T06:37:12Z</time>
      </trkpt>
      <trkpt lat="47.19811" lon="5.9848">
        <ele>237.4</ele>
        <time>2024-08-05T06:37:13Z</time>
      </trkpt>
      <trkpt lat="47.19809" lon="5.98472">
        <ele>237.4</ele>
        <time>2024-08-05T06:37:14Z</time>
      </trkpt>
      <trkpt lat="47.19807" lon="5.98464">
        <ele>237.6</ele>
        <time>2024-08-05T06:37:15Z</time>
      </trkpt>
      <trkpt lat="47.19806" lon="5.98455">
        <ele>237.4</ele>
        <time>2024-08-05T06:37:16Z</time>
      </trkpt>
      <trkpt lat="47.19804" lon="5.98447">
        <ele>237.4</ele>
        <time>2024-08-05T06:37:17Z</time>
      </trkpt>
      <trkpt lat="47.19803" lon="5.98438">
        <ele>237.4</ele>
        <time>2024-08-05T06:37:18Z</time>
      </trkpt>
      <trkpt lat="47.19802" lon="5.9843">
        <ele>237.6</ele>
        <time>2024-08-05T06:37:19Z</time>
      </trkpt>
      <trkpt lat="47.19801" lon="5.98421">
        <ele>237.4</ele>
        <time>2024-08-05T06:37:20Z</time>
      </trkpt>
      <trkpt lat="47.198" lon="5.98413">
        <ele>237.4</ele>
        <time>2024-08-05T06:37:21Z</time>
      </trkpt>
      <trkpt lat="47.198" lon="5.98404">
        <ele>237.4</ele>
        <time>2024-08-05T06:37:22Z</time>
      </trkpt>
      <trkpt lat="47.198" lon="5.98396">
        <ele>237.4</ele>
        <time>2024-08-05T06:37:23Z</time>
      </trkpt>
      <trkpt lat="47.19801" lon="5.98387">
        <ele>237.4</ele>
        <time>2024-08-05T06:37:24Z</time>
      </trkpt>
      <trkpt lat="47.19801" lon="5.98379">
        <ele>237.4</ele>
        <time>2024-08-05T06:37:25Z</time>
      </trkpt>
      <trkpt lat="47.19802" lon="5.9837">
        <ele>237.4</ele>
        <time>2024-08-05T06:37:26Z</time>
      </trkpt>
      <trkpt lat="47.19802" lon="5.98361">
        <ele>237.4</ele>
        <time>2024-08-05T06:37:27Z</time>
      </trkpt>
      <trkpt lat="47.19803" lon="5.98352">
        <ele>237.4</ele>
        <time>2024-08-05T06:37:28Z</time>
      </trkpt>
      <trkpt lat="47.19804" lon="5.98344">
        <ele>237.4</ele>
        <time>2024-08-05T06:37:29Z</time>
      </trkpt>
      <trkpt lat="47.19805" lon="5.98335">
        <ele>237.4</ele>
        <time>2024-08-05T06:37:30Z</time>
      </trkpt>
      <trkpt lat="47.19805" lon="5.98327">
        <ele>237.4</ele>
        <time>2024-08-05T06:37:31Z</time>
      </trkpt>
      <trkpt lat="47.19806" lon="5.98318">
        <ele>237.4</ele>
        <time>2024-08-05T06:37:32Z</time>
      </trkpt>
      <trkpt lat="47.19807" lon="5.9831">
        <ele>237.4</ele>
        <time>2024-08-05T06:37:33Z</time>
      </trkpt>
      <trkpt lat="47.19809" lon="5.98303">
        <ele>237.6</ele>
        <time>2024-08-05T06:37:34Z</time>
      </trkpt>
      <trkpt lat="47.19811" lon="5.98295">
        <ele>237.4</ele>
        <time>2024-08-05T06:37:35Z</time>
      </trkpt>
      <trkpt lat="47.19813" lon="5.98287">
        <ele>237.6</ele>
        <time>2024-08-05T06:37:36Z</time>
      </trkpt>
      <trkpt lat="47.19816" lon="5.9828">
        <ele>237.4</ele>
        <time>2024-08-05T06:37:37Z</time>
      </trkpt>
      <trkpt lat="47.19818" lon="5.98273">
        <ele>237.4</ele>
        <time>2024-08-05T06:37:38Z</time>
      </trkpt>
      <trkpt lat="47.19821" lon="5.98266">
        <ele>237.6</ele>
        <time>2024-08-05T06:37:39Z</time>
      </trkpt>
      <trkpt lat="47.19824" lon="5.98259">
        <ele>237.6</ele>
        <time>2024-08-05T06:37:40Z</time>
      </trkpt>
      <trkpt lat="47.19827" lon="5.98253">
        <ele>237.6</ele>
        <time>2024-08-05T06:37:41Z</time>
      </trkpt>
      <trkpt lat="47.19831" lon="5.98245">
        <ele>237.8</ele>
        <time>2024-08-05T06:37:42Z</time>
      </trkpt>
      <trkpt lat="47.19834" lon="5.98237">
        <ele>237.8</ele>
        <time>2024-08-05T06:37:43Z</time>
      </trkpt>
      <trkpt lat="47.19838" lon="5.9823">
        <ele>237.6</ele>
        <time>2024-08-05T06:37:44Z</time>
      </trkpt>
      <trkpt lat="47.19841" lon="5.98222">
        <ele>237.6</ele>
        <time>2024-08-05T06:37:45Z</time>
      </trkpt>
      <trkpt lat="47.19845" lon="5.98214">
        <ele>237.6</ele>
        <time>2024-08-05T06:37:46Z</time>
      </trkpt>
      <trkpt lat="47.19848" lon="5.98205">
        <ele>237.8</ele>
        <time>2024-08-05T06:37:47Z</time>
      </trkpt>
      <trkpt lat="47.19851" lon="5.98197">
        <ele>237.8</ele>
        <time>2024-08-05T06:37:48Z</time>
      </trkpt>
      <trkpt lat="47.19854" lon="5.98188">
        <ele>237.6</ele>
        <time>2024-08-05T06:37:49Z</time>
      </trkpt>
      <trkpt lat="47.19857" lon="5.98179">
        <ele>237.6</ele>
        <time>2024-08-05T06:37:50Z</time>
      </trkpt>
      <trkpt lat="47.19859" lon="5.98169">
        <ele>237.8</ele>
        <time>2024-08-05T06:37:51Z</time>
      </trkpt>
      <trkpt lat="47.1986" lon="5.9816">
        <ele>237.6</ele>
        <time>2024-08-05T06:37:52Z</time>
      </trkpt>
      <trkpt lat="47.19861" lon="5.98151">
        <ele>237.6</ele>
        <time>2024-08-05T06:37:53Z</time>
      </trkpt>
      <trkpt lat="47.19862" lon="5.98141">
        <ele>237.6</ele>
        <time>2024-08-05T06:37:54Z</time>
      </trkpt>
      <trkpt lat="47.19863" lon="5.98132">
        <ele>237.4</ele>
        <time>2024-08-05T06:37:55Z</time>
      </trkpt>
      <trkpt lat="47.19863" lon="5.98123">
        <ele>237.4</ele>
        <time>2024-08-05T06:37:56Z</time>
      </trkpt>
      <trkpt lat="47.19865" lon="5.98115">
        <ele>237.4</ele>
        <time>2024-08-05T06:37:57Z</time>
      </trkpt>
      <trkpt lat="47.19866" lon="5.98106">
        <ele>237.4</ele>
        <time>2024-08-05T06:37:58Z</time>
      </trkpt>
      <trkpt lat="47.19868" lon="5.98099">
        <ele>237.4</ele>
        <time>2024-08-05T06:37:59Z</time>
      </trkpt>
      <trkpt lat="47.19869" lon="5.98091">
        <ele>237.4</ele>
        <time>2024-08-05T06:38:00Z</time>
      </trkpt>
      <trkpt lat="47.19871" lon="5.98083">
        <ele>237.4</ele>
        <time>2024-08-05T06:38:01Z</time>
      </trkpt>
      <trkpt lat="47.19873" lon="5.98075">
        <ele>237.4</ele>
        <time>2024-08-05T06:38:02Z</time>
      </trkpt>
      <trkpt lat="47.19874" lon="5.98067">
        <ele>237.2</ele>
        <time>2024-08-05T06:38:03Z</time>
      </trkpt>
      <trkpt lat="47.19876" lon="5.98059">
        <ele>237.4</ele>
        <time>2024-08-05T06:38:04Z</time>
      </trkpt>
      <trkpt lat="47.19877" lon="5.9805">
        <ele>237.4</ele>
        <time>2024-08-05T06:38:05Z</time>
      </trkpt>
      <trkpt lat="47.19878" lon="5.98041">
        <ele>237.4</ele>
        <time>2024-08-05T06:38:06Z</time>
      </trkpt>
      <trkpt lat="47.19878" lon="5.98032">
        <ele>237.2</ele>
        <time>2024-08-05T06:38:07Z</time>
      </trkpt>
      <trkpt lat="47.19879" lon="5.98023">
        <ele>237.2</ele>
        <time>2024-08-05T06:38:08Z</time>
      </trkpt>
      <trkpt lat="47.1988" lon="5.98015">
        <ele>237.4</ele>
        <time>2024-08-05T06:38:09Z</time>
      </trkpt>
      <trkpt lat="47.19881" lon="5.98005">
        <ele>237.4</ele>
        <time>2024-08-05T06:38:10Z</time>
      </trkpt>
      <trkpt lat="47.19882" lon="5.97996">
        <ele>237.2</ele>
        <time>2024-08-05T06:38:11Z</time>
      </trkpt>
      <trkpt lat="47.19882" lon="5.97987">
        <ele>237.2</ele>
        <time>2024-08-05T06:38:12Z</time>
      </trkpt>
      <trkpt lat="47.19884" lon="5.97978">
        <ele>237.4</ele>
        <time>2024-08-05T06:38:13Z</time>
      </trkpt>
      <trkpt lat="47.19885" lon="5.97969">
        <ele>237.4</ele>
        <time>2024-08-05T06:38:14Z</time>
      </trkpt>
      <trkpt lat="47.19885" lon="5.97961">
        <ele>237.4</ele>
        <time>2024-08-05T06:38:15Z</time>
      </trkpt>
      <trkpt lat="47.19886" lon="5.97952">
        <ele>237.4</ele>
        <time>2024-08-05T06:38:16Z</time>
      </trkpt>
      <trkpt lat="47.19886" lon="5.97943">
        <ele>237.4</ele>
        <time>2024-08-05T06:38:17Z</time>
      </trkpt>
      <trkpt lat="47.19886" lon="5.97934">
        <ele>237.2</ele>
        <time>2024-08-05T06:38:18Z</time>
      </trkpt>
      <trkpt lat="47.19886" lon="5.97924">
        <ele>237.2</ele>
        <time>2024-08-05T06:38:19Z</time>
      </trkpt>
      <trkpt lat="47.19887" lon="5.97915">
        <ele>237.2</ele>
        <time>2024-08-05T06:38:20Z</time>
      </trkpt>
      <trkpt lat="47.19887" lon="5.97906">
        <ele>237.2</ele>
        <time>2024-08-05T06:38:21Z</time>
      </trkpt>
      <trkpt lat="47.19887" lon="5.97897">
        <ele>237.2</ele>
        <time>2024-08-05T06:38:22Z</time>
      </trkpt>
      <trkpt lat="47.19887" lon="5.97887">
        <ele>237.2</ele>
        <time>2024-08-05T06:38:23Z</time>
      </trkpt>
      <trkpt lat="47.19888" lon="5.97878">
        <ele>237.2</ele>
        <time>2024-08-05T06:38:24Z</time>
      </trkpt>
      <trkpt lat="47.19888" lon="5.97869">
        <ele>237.4</ele>
        <time>2024-08-05T06:38:25Z</time>
      </trkpt>
      <trkpt lat="47.19889" lon="5.9786">
        <ele>237.2</ele>
        <time>2024-08-05T06:38:26Z</time>
      </trkpt>
      <trkpt lat="47.19889" lon="5.9785">
        <ele>237.2</ele>
        <time>2024-08-05T06:38:27Z</time>
      </trkpt>
      <trkpt lat="47.1989" lon="5.97841">
        <ele>237.2</ele>
        <time>2024-08-05T06:38:28Z</time>
      </trkpt>
      <trkpt lat="47.1989" lon="5.97832">
        <ele>237.2</ele>
        <time>2024-08-05T06:38:29Z</time>
      </trkpt>
      <trkpt lat="47.19891" lon="5.97823">
        <ele>237.2</ele>
        <time>2024-08-05T06:38:30Z</time>
      </trkpt>
      <trkpt lat="47.19892" lon="5.97814">
        <ele>237.2</ele>
        <time>2024-08-05T06:38:31Z</time>
      </trkpt>
      <trkpt lat="47.19893" lon="5.97805">
        <ele>237.2</ele>
        <time>2024-08-05T06:38:32Z</time>
      </trkpt>
      <trkpt lat="47.19894" lon="5.97796">
        <ele>237.2</ele>
        <time>2024-08-05T06:38:33Z</time>
      </trkpt>
      <trkpt lat="47.19895" lon="5.97787">
        <ele>237.2</ele>
        <time>2024-08-05T06:38:34Z</time>
      </trkpt>
      <trkpt lat="47.19895" lon="5.97777">
        <ele>237</ele>
        <time>2024-08-05T06:38:35Z</time>
      </trkpt>
      <trkpt lat="47.19895" lon="5.97768">
        <ele>237.2</ele>
        <time>2024-08-05T06:38:36Z</time>
      </trkpt>
      <trkpt lat="47.19896" lon="5.97759">
        <ele>237</ele>
        <time>2024-08-05T06:38:37Z</time>
      </trkpt>
      <trkpt lat="47.19896" lon="5.97749">
        <ele>237</ele>
        <time>2024-08-05T06:38:38Z</time>
      </trkpt>
      <trkpt lat="47.19896" lon="5.9774">
        <ele>237</ele>
        <time>2024-08-05T06:38:39Z</time>
      </trkpt>
      <trkpt lat="47.19896" lon="5.97731">
        <ele>237</ele>
        <time>2024-08-05T06:38:40Z</time>
      </trkpt>
      <trkpt lat="47.19897" lon="5.97722">
        <ele>237</ele>
        <time>2024-08-05T06:38:41Z</time>
      </trkpt>
      <trkpt lat="47.19897" lon="5.97712">
        <ele>237</ele>
        <time>2024-08-05T06:38:42Z</time>
      </trkpt>
      <trkpt lat="47.19897" lon="5.97703">
        <ele>237</ele>
        <time>2024-08-05T06:38:43Z</time>
      </trkpt>
      <trkpt lat="47.19897" lon="5.97694">
        <ele>236.8</ele>
        <time>2024-08-05T06:38:44Z</time>
      </trkpt>
      <trkpt lat="47.19898" lon="5.97684">
        <ele>236.8</ele>
        <time>2024-08-05T06:38:45Z</time>
      </trkpt>
      <trkpt lat="47.19898" lon="5.97675">
        <ele>236.8</ele>
        <time>2024-08-05T06:38:46Z</time>
      </trkpt>
      <trkpt lat="47.19899" lon="5.97665">
        <ele>237</ele>
        <time>2024-08-05T06:38:47Z</time>
      </trkpt>
      <trkpt lat="47.19899" lon="5.97656">
        <ele>236.8</ele>
        <time>2024-08-05T06:38:48Z</time>
      </trkpt>
      <trkpt lat="47.19899" lon="5.97647">
        <ele>236.8</ele>
        <time>2024-08-05T06:38:49Z</time>
      </trkpt>
      <trkpt lat="47.199" lon="5.97638">
        <ele>236.8</ele>
        <time>2024-08-05T06:38:50Z</time>
      </trkpt>
      <trkpt lat="47.199" lon="5.97628">
        <ele>236.8</ele>
        <time>2024-08-05T06:38:51Z</time>
      </trkpt>
      <trkpt lat="47.19901" lon="5.97619">
        <ele>236.8</ele>
        <time>2024-08-05T06:38:52Z</time>
      </trkpt>
      <trkpt lat="47.19901" lon="5.9761">
        <ele>236.8</ele>
        <time>2024-08-05T06:38:53Z</time>
      </trkpt>
      <trkpt lat="47.19902" lon="5.97601">
        <ele>236.8</ele>
        <time>2024-08-05T06:38:54Z</time>
      </trkpt>
      <trkpt lat="47.19903" lon="5.97592">
        <ele>236.8</ele>
        <time>2024-08-05T06:38:55Z</time>
      </trkpt>
      <trkpt lat="47.19903" lon="5.97583">
        <ele>236.8</ele>
        <time>2024-08-05T06:38:56Z</time>
      </trkpt>
      <trkpt lat="47.19904" lon="5.97574">
        <ele>236.6</ele>
        <time>2024-08-05T06:38:57Z</time>
      </trkpt>
      <trkpt lat="47.19904" lon="5.97564">
        <ele>236.8</ele>
        <time>2024-08-05T06:38:58Z</time>
      </trkpt>
      <trkpt lat="47.19905" lon="5.97555">
        <ele>236.8</ele>
        <time>2024-08-05T06:38:59Z</time>
      </trkpt>
      <trkpt lat="47.19905" lon="5.97546">
        <ele>236.8</ele>
        <time>2024-08-05T06:39:00Z</time>
      </trkpt>
      <trkpt lat="47.19906" lon="5.97537">
        <ele>236.8</ele>
        <time>2024-08-05T06:39:01Z</time>
      </trkpt>
      <trkpt lat="47.19906" lon="5.97528">
        <ele>236.8</ele>
        <time>2024-08-05T06:39:02Z</time>
      </trkpt>
      <trkpt lat="47.19907" lon="5.97518">
        <ele>236.8</ele>
        <time>2024-08-05T06:39:03Z</time>
      </trkpt>
      <trkpt lat="47.19907" lon="5.97509">
        <ele>236.8</ele>
        <time>2024-08-05T06:39:04Z</time>
      </trkpt>
      <trkpt lat="47.19907" lon="5.975">
        <ele>237</ele>
        <time>2024-08-05T06:39:05Z</time>
      </trkpt>
      <trkpt lat="47.19908" lon="5.97491">
        <ele>236.8</ele>
        <time>2024-08-05T06:39:06Z</time>
      </trkpt>
      <trkpt lat="47.19908" lon="5.97482">
        <ele>237</ele>
        <time>2024-08-05T06:39:07Z</time>
      </trkpt>
      <trkpt lat="47.19909" lon="5.97473">
        <ele>236.8</ele>
        <time>2024-08-05T06:39:08Z</time>
      </trkpt>
      <trkpt lat="47.19909" lon="5.97464">
        <ele>236.8</ele>
        <time>2024-08-05T06:39:09Z</time>
      </trkpt>
      <trkpt lat="47.19909" lon="5.97454">
        <ele>236.8</ele>
        <time>2024-08-05T06:39:10Z</time>
      </trkpt>
      <trkpt lat="47.19909" lon="5.97445">
        <ele>237</ele>
        <time>2024-08-05T06:39:11Z</time>
      </trkpt>
      <trkpt lat="47.1991" lon="5.97436">
        <ele>237</ele>
        <time>2024-08-05T06:39:12Z</time>
      </trkpt>
      <trkpt lat="47.1991" lon="5.97427">
        <ele>236.8</ele>
        <time>2024-08-05T06:39:13Z</time>
      </trkpt>
      <trkpt lat="47.1991" lon="5.97417">
        <ele>236.8</ele>
        <time>2024-08-05T06:39:14Z</time>
      </trkpt>
      <trkpt lat="47.1991" lon="5.97408">
        <ele>236.8</ele>
        <time>2024-08-05T06:39:15Z</time>
      </trkpt>
      <trkpt lat="47.19911" lon="5.97399">
        <ele>236.8</ele>
        <time>2024-08-05T06:39:16Z</time>
      </trkpt>
      <trkpt lat="47.19911" lon="5.9739">
        <ele>236.8</ele>
        <time>2024-08-05T06:39:17Z</time>
      </trkpt>
      <trkpt lat="47.19912" lon="5.97381">
        <ele>236.8</ele>
        <time>2024-08-05T06:39:18Z</time>
      </trkpt>
      <trkpt lat="47.19912" lon="5.97372">
        <ele>236.8</ele>
        <time>2024-08-05T06:39:19Z</time>
      </trkpt>
      <trkpt lat="47.19912" lon="5.97363">
        <ele>236.8</ele>
        <time>2024-08-05T06:39:20Z</time>
      </trkpt>
      <trkpt lat="47.19912" lon="5.97354">
        <ele>236.8</ele>
        <time>2024-08-05T06:39:21Z</time>
      </trkpt>
      <trkpt lat="47.19912" lon="5.97345">
        <ele>236.8</ele>
        <time>2024-08-05T06:39:22Z</time>
      </trkpt>
      <trkpt lat="47.19913" lon="5.97335">
        <ele>237</ele>
        <time>2024-08-05T06:39:23Z</time>
      </trkpt>
      <trkpt lat="47.19913" lon="5.97326">
        <ele>236.8</ele>
        <time>2024-08-05T06:39:24Z</time>
      </trkpt>
      <trkpt lat="47.19914" lon="5.97317">
        <ele>236.8</ele>
        <time>2024-08-05T06:39:25Z</time>
      </trkpt>
      <trkpt lat="47.19914" lon="5.97308">
        <ele>236.8</ele>
        <time>2024-08-05T06:39:26Z</time>
      </trkpt>
      <trkpt lat="47.19914" lon="5.97299">
        <ele>236.8</ele>
        <time>2024-08-05T06:39:27Z</time>
      </trkpt>
      <trkpt lat="47.19914" lon="5.9729">
        <ele>236.8</ele>
        <time>2024-08-05T06:39:28Z</time>
      </trkpt>
      <trkpt lat="47.19915" lon="5.97281">
        <ele>236.8</ele>
        <time>2024-08-05T06:39:29Z</time>
      </trkpt>
      <trkpt lat="47.19915" lon="5.97272">
        <ele>236.8</ele>
        <time>2024-08-05T06:39:30Z</time>
      </trkpt>
      <trkpt lat="47.19915" lon="5.97264">
        <ele>236.6</ele>
        <time>2024-08-05T06:39:31Z</time>
      </trkpt>
      <trkpt lat="47.19916" lon="5.97255">
        <ele>236.8</ele>
        <time>2024-08-05T06:39:32Z</time>
      </trkpt>
      <trkpt lat="47.19916" lon="5.97246">
        <ele>236.8</ele>
        <time>2024-08-05T06:39:33Z</time>
      </trkpt>
      <trkpt lat="47.19916" lon="5.97238">
        <ele>236.8</ele>
        <time>2024-08-05T06:39:34Z</time>
      </trkpt>
      <trkpt lat="47.19917" lon="5.97229">
        <ele>236.8</ele>
        <time>2024-08-05T06:39:35Z</time>
      </trkpt>
      <trkpt lat="47.19918" lon="5.9722">
        <ele>236.8</ele>
        <time>2024-08-05T06:39:36Z</time>
      </trkpt>
      <trkpt lat="47.19918" lon="5.97212">
        <ele>236.8</ele>
        <time>2024-08-05T06:39:37Z</time>
      </trkpt>
      <trkpt lat="47.19919" lon="5.97203">
        <ele>236.8</ele>
        <time>2024-08-05T06:39:38Z</time>
      </trkpt>
      <trkpt lat="47.19919" lon="5.97194">
        <ele>236.8</ele>
        <time>2024-08-05T06:39:39Z</time>
      </trkpt>
      <trkpt lat="47.1992" lon="5.97185">
        <ele>236.8</ele>
        <time>2024-08-05T06:39:40Z</time>
      </trkpt>
      <trkpt lat="47.1992" lon="5.97176">
        <ele>236.6</ele>
        <time>2024-08-05T06:39:41Z</time>
      </trkpt>
      <trkpt lat="47.19921" lon="5.97167">
        <ele>236.6</ele>
        <time>2024-08-05T06:39:42Z</time>
      </trkpt>
      <trkpt lat="47.19922" lon="5.97158">
        <ele>236.6</ele>
        <time>2024-08-05T06:39:43Z</time>
      </trkpt>
      <trkpt lat="47.19923" lon="5.97149">
        <ele>236.6</ele>
        <time>2024-08-05T06:39:44Z</time>
      </trkpt>
      <trkpt lat="47.19924" lon="5.9714">
        <ele>236.6</ele>
        <time>2024-08-05T06:39:45Z</time>
      </trkpt>
      <trkpt lat="47.19924" lon="5.97131">
        <ele>236.6</ele>
        <time>2024-08-05T06:39:46Z</time>
      </trkpt>
      <trkpt lat="47.19925" lon="5.97122">
        <ele>236.6</ele>
        <time>2024-08-05T06:39:47Z</time>
      </trkpt>
      <trkpt lat="47.19926" lon="5.97113">
        <ele>236.4</ele>
        <time>2024-08-05T06:39:48Z</time>
      </trkpt>
      <trkpt lat="47.19926" lon="5.97104">
        <ele>236.6</ele>
        <time>2024-08-05T06:39:49Z</time>
      </trkpt>
      <trkpt lat="47.19926" lon="5.97095">
        <ele>236.6</ele>
        <time>2024-08-05T06:39:50Z</time>
      </trkpt>
      <trkpt lat="47.19927" lon="5.97086">
        <ele>236.6</ele>
        <time>2024-08-05T06:39:51Z</time>
      </trkpt>
      <trkpt lat="47.19927" lon="5.97076">
        <ele>236.6</ele>
        <time>2024-08-05T06:39:52Z</time>
      </trkpt>
      <trkpt lat="47.19927" lon="5.97067">
        <ele>236.6</ele>
        <time>2024-08-05T06:39:53Z</time>
      </trkpt>
      <trkpt lat="47.19928" lon="5.97059">
        <ele>236.6</ele>
        <time>2024-08-05T06:39:54Z</time>
      </trkpt>
      <trkpt lat="47.19928" lon="5.9705">
        <ele>236.6</ele>
        <time>2024-08-05T06:39:55Z</time>
      </trkpt>
      <trkpt lat="47.19928" lon="5.97041">
        <ele>236.6</ele>
        <time>2024-08-05T06:39:56Z</time>
      </trkpt>
      <trkpt lat="47.19928" lon="5.97032">
        <ele>236.8</ele>
        <time>2024-08-05T06:39:57Z</time>
      </trkpt>
      <trkpt lat="47.19928" lon="5.97024">
        <ele>236.8</ele>
        <time>2024-08-05T06:39:58Z</time>
      </trkpt>
      <trkpt lat="47.19928" lon="5.97015">
        <ele>236.8</ele>
        <time>2024-08-05T06:39:59Z</time>
      </trkpt>
      <trkpt lat="47.19928" lon="5.97007">
        <ele>236.8</ele>
        <time>2024-08-05T06:40:00Z</time>
      </trkpt>
      <trkpt lat="47.19928" lon="5.96998">
        <ele>236.8</ele>
        <time>2024-08-05T06:40:01Z</time>
      </trkpt>
      <trkpt lat="47.19929" lon="5.96989">
        <ele>237</ele>
        <time>2024-08-05T06:40:02Z</time>
      </trkpt>
      <trkpt lat="47.19929" lon="5.9698">
        <ele>237</ele>
        <time>2024-08-05T06:40:03Z</time>
      </trkpt>
      <trkpt lat="47.1993" lon="5.96971">
        <ele>237</ele>
        <time>2024-08-05T06:40:04Z</time>
      </trkpt>
      <trkpt lat="47.1993" lon="5.96962">
        <ele>237</ele>
        <time>2024-08-05T06:40:05Z</time>
      </trkpt>
      <trkpt lat="47.1993" lon="5.96953">
        <ele>237</ele>
        <time>2024-08-05T06:40:06Z</time>
      </trkpt>
      <trkpt lat="47.19931" lon="5.96944">
        <ele>236.8</ele>
        <time>2024-08-05T06:40:07Z</time>
      </trkpt>
      <trkpt lat="47.19931" lon="5.96935">
        <ele>237</ele>
        <time>2024-08-05T06:40:08Z</time>
      </trkpt>
      <trkpt lat="47.1993" lon="5.96926">
        <ele>236.8</ele>
        <time>2024-08-05T06:40:09Z</time>
      </trkpt>
      <trkpt lat="47.1993" lon="5.96916">
        <ele>237</ele>
        <time>2024-08-05T06:40:10Z</time>
      </trkpt>
      <trkpt lat="47.1993" lon="5.96907">
        <ele>236.8</ele>
        <time>2024-08-05T06:40:11Z</time>
      </trkpt>
      <trkpt lat="47.1993" lon="5.96898">
        <ele>236.8</ele>
        <time>2024-08-05T06:40:12Z</time>
      </trkpt>
      <trkpt lat="47.1993" lon="5.9689">
        <ele>236.8</ele>
        <time>2024-08-05T06:40:13Z</time>
      </trkpt>
      <trkpt lat="47.19929" lon="5.96882">
        <ele>236.8</ele>
        <time>2024-08-05T06:40:14Z</time>
      </trkpt>
      <trkpt lat="47.19928" lon="5.96873">
        <ele>237</ele>
        <time>2024-08-05T06:40:15Z</time>
      </trkpt>
      <trkpt lat="47.19927" lon="5.96865">
        <ele>236.8</ele>
        <time>2024-08-05T06:40:16Z</time>
      </trkpt>
      <trkpt lat="47.19925" lon="5.96857">
        <ele>236.8</ele>
        <time>2024-08-05T06:40:17Z</time>
      </trkpt>
      <trkpt lat="47.19924" lon="5.96849">
        <ele>236.8</ele>
        <time>2024-08-05T06:40:18Z</time>
      </trkpt>
      <trkpt lat="47.19922" lon="5.96841">
        <ele>236.8</ele>
        <time>2024-08-05T06:40:19Z</time>
      </trkpt>
      <trkpt lat="47.19921" lon="5.96833">
        <ele>236.8</ele>
        <time>2024-08-05T06:40:20Z</time>
      </trkpt>
      <trkpt lat="47.19919" lon="5.96825">
        <ele>236.8</ele>
        <time>2024-08-05T06:40:21Z</time>
      </trkpt>
      <trkpt lat="47.19917" lon="5.96817">
        <ele>236.8</ele>
        <time>2024-08-05T06:40:22Z</time>
      </trkpt>
      <trkpt lat="47.19916" lon="5.96809">
        <ele>237</ele>
        <time>2024-08-05T06:40:23Z</time>
      </trkpt>
      <trkpt lat="47.19914" lon="5.96801">
        <ele>237</ele>
        <time>2024-08-05T06:40:24Z</time>
      </trkpt>
      <trkpt lat="47.19912" lon="5.96793">
        <ele>236.8</ele>
        <time>2024-08-05T06:40:25Z</time>
      </trkpt>
      <trkpt lat="47.1991" lon="5.96784">
        <ele>236.8</ele>
        <time>2024-08-05T06:40:26Z</time>
      </trkpt>
      <trkpt lat="47.19908" lon="5.96776">
        <ele>237</ele>
        <time>2024-08-05T06:40:27Z</time>
      </trkpt>
      <trkpt lat="47.19906" lon="5.96767">
        <ele>237</ele>
        <time>2024-08-05T06:40:28Z</time>
      </trkpt>
      <trkpt lat="47.19904" lon="5.96758">
        <ele>237</ele>
        <time>2024-08-05T06:40:29Z</time>
      </trkpt>
      <trkpt lat="47.19903" lon="5.96749">
        <ele>236.8</ele>
        <time>2024-08-05T06:40:30Z</time>
      </trkpt>
      <trkpt lat="47.19901" lon="5.9674">
        <ele>237</ele>
        <time>2024-08-05T06:40:31Z</time>
      </trkpt>
      <trkpt lat="47.199" lon="5.96731">
        <ele>237</ele>
        <time>2024-08-05T06:40:32Z</time>
      </trkpt>
      <trkpt lat="47.19899" lon="5.96723">
        <ele>237</ele>
        <time>2024-08-05T06:40:33Z</time>
      </trkpt>
      <trkpt lat="47.19898" lon="5.96714">
        <ele>237</ele>
        <time>2024-08-05T06:40:34Z</time>
      </trkpt>
      <trkpt lat="47.19897" lon="5.96705">
        <ele>236.8</ele>
        <time>2024-08-05T06:40:35Z</time>
      </trkpt>
      <trkpt lat="47.19896" lon="5.96696">
        <ele>237</ele>
        <time>2024-08-05T06:40:36Z</time>
      </trkpt>
      <trkpt lat="47.19896" lon="5.96687">
        <ele>237</ele>
        <time>2024-08-05T06:40:37Z</time>
      </trkpt>
      <trkpt lat="47.19896" lon="5.96678">
        <ele>237</ele>
        <time>2024-08-05T06:40:38Z</time>
      </trkpt>
      <trkpt lat="47.19896" lon="5.96669">
        <ele>236.8</ele>
        <time>2024-08-05T06:40:39Z</time>
      </trkpt>
      <trkpt lat="47.19896" lon="5.9666">
        <ele>236.8</ele>
        <time>2024-08-05T06:40:40Z</time>
      </trkpt>
      <trkpt lat="47.19897" lon="5.96652">
        <ele>237</ele>
        <time>2024-08-05T06:40:41Z</time>
      </trkpt>
      <trkpt lat="47.19897" lon="5.96644">
        <ele>237</ele>
        <time>2024-08-05T06:40:42Z</time>
      </trkpt>
      <trkpt lat="47.19898" lon="5.96636">
        <ele>237</ele>
        <time>2024-08-05T06:40:43Z</time>
      </trkpt>
      <trkpt lat="47.19899" lon="5.96628">
        <ele>236.8</ele>
        <time>2024-08-05T06:40:44Z</time>
      </trkpt>
      <trkpt lat="47.199" lon="5.96621">
        <ele>237</ele>
        <time>2024-08-05T06:40:45Z</time>
      </trkpt>
      <trkpt lat="47.19901" lon="5.96613">
        <ele>237</ele>
        <time>2024-08-05T06:40:46Z</time>
      </trkpt>
      <trkpt lat="47.19902" lon="5.96607">
        <ele>237</ele>
        <time>2024-08-05T06:40:47Z</time>
      </trkpt>
      <trkpt lat="47.19903" lon="5.966">
        <ele>236.8</ele>
        <time>2024-08-05T06:40:48Z</time>
      </trkpt>
      <trkpt lat="47.19904" lon="5.96593">
        <ele>237</ele>
        <time>2024-08-05T06:40:49Z</time>
      </trkpt>
      <trkpt lat="47.19905" lon="5.96586">
        <ele>237</ele>
        <time>2024-08-05T06:40:50Z</time>
      </trkpt>
      <trkpt lat="47.19905" lon="5.96579">
        <ele>237.2</ele>
        <time>2024-08-05T06:40:51Z</time>
      </trkpt>
      <trkpt lat="47.19905" lon="5.96571">
        <ele>237.2</ele>
        <time>2024-08-05T06:40:52Z</time>
      </trkpt>
      <trkpt lat="47.19906" lon="5.96563">
        <ele>237.2</ele>
        <time>2024-08-05T06:40:53Z</time>
      </trkpt>
      <trkpt lat="47.19906" lon="5.96556">
        <ele>237.4</ele>
        <time>2024-08-05T06:40:54Z</time>
      </trkpt>
      <trkpt lat="47.19906" lon="5.96547">
        <ele>237.6</ele>
        <time>2024-08-05T06:40:55Z</time>
      </trkpt>
      <trkpt lat="47.19906" lon="5.96539">
        <ele>237.6</ele>
        <time>2024-08-05T06:40:56Z</time>
      </trkpt>
      <trkpt lat="47.19906" lon="5.96531">
        <ele>237.6</ele>
        <time>2024-08-05T06:40:57Z</time>
      </trkpt>
      <trkpt lat="47.19906" lon="5.96522">
        <ele>237.6</ele>
        <time>2024-08-05T06:40:58Z</time>
      </trkpt>
      <trkpt lat="47.19906" lon="5.96514">
        <ele>238</ele>
        <time>2024-08-05T06:40:59Z</time>
      </trkpt>
      <trkpt lat="47.19906" lon="5.96506">
        <ele>237.8</ele>
        <time>2024-08-05T06:41:00Z</time>
      </trkpt>
      <trkpt lat="47.19906" lon="5.96497">
        <ele>237.8</ele>
        <time>2024-08-05T06:41:01Z</time>
      </trkpt>
      <trkpt lat="47.19907" lon="5.96488">
        <ele>238</ele>
        <time>2024-08-05T06:41:02Z</time>
      </trkpt>
      <trkpt lat="47.19906" lon="5.96479">
        <ele>237.8</ele>
        <time>2024-08-05T06:41:03Z</time>
      </trkpt>
      <trkpt lat="47.19906" lon="5.9647">
        <ele>238</ele>
        <time>2024-08-05T06:41:04Z</time>
      </trkpt>
      <trkpt lat="47.19906" lon="5.96461">
        <ele>237.8</ele>
        <time>2024-08-05T06:41:05Z</time>
      </trkpt>
      <trkpt lat="47.19905" lon="5.96452">
        <ele>238</ele>
        <time>2024-08-05T06:41:06Z</time>
      </trkpt>
      <trkpt lat="47.19904" lon="5.96444">
        <ele>238</ele>
        <time>2024-08-05T06:41:07Z</time>
      </trkpt>
      <trkpt lat="47.19903" lon="5.96435">
        <ele>237.8</ele>
        <time>2024-08-05T06:41:08Z</time>
      </trkpt>
      <trkpt lat="47.19902" lon="5.96426">
        <ele>237.8</ele>
        <time>2024-08-05T06:41:09Z</time>
      </trkpt>
      <trkpt lat="47.19902" lon="5.96417">
        <ele>237.8</ele>
        <time>2024-08-05T06:41:10Z</time>
      </trkpt>
      <trkpt lat="47.19902" lon="5.96408">
        <ele>237.8</ele>
        <time>2024-08-05T06:41:11Z</time>
      </trkpt>
      <trkpt lat="47.19902" lon="5.964">
        <ele>237.8</ele>
        <time>2024-08-05T06:41:12Z</time>
      </trkpt>
      <trkpt lat="47.19902" lon="5.96391">
        <ele>237.8</ele>
        <time>2024-08-05T06:41:13Z</time>
      </trkpt>
      <trkpt lat="47.19902" lon="5.96382">
        <ele>237.8</ele>
        <time>2024-08-05T06:41:14Z</time>
      </trkpt>
      <trkpt lat="47.19902" lon="5.96373">
        <ele>237.6</ele>
        <time>2024-08-05T06:41:15Z</time>
      </trkpt>
      <trkpt lat="47.19902" lon="5.96364">
        <ele>237.8</ele>
        <time>2024-08-05T06:41:16Z</time>
      </trkpt>
      <trkpt lat="47.19902" lon="5.96355">
        <ele>237.8</ele>
        <time>2024-08-05T06:41:17Z</time>
      </trkpt>
      <trkpt lat="47.19903" lon="5.96347">
        <ele>237.8</ele>
        <time>2024-08-05T06:41:18Z</time>
      </trkpt>
      <trkpt lat="47.19902" lon="5.96338">
        <ele>237.6</ele>
        <time>2024-08-05T06:41:19Z</time>
      </trkpt>
      <trkpt lat="47.19902" lon="5.96329">
        <ele>237.6</ele>
        <time>2024-08-05T06:41:20Z</time>
      </trkpt>
      <trkpt lat="47.19903" lon="5.9632">
        <ele>237.4</ele>
        <time>2024-08-05T06:41:21Z</time>
      </trkpt>
      <trkpt lat="47.19903" lon="5.96312">
        <ele>237.6</ele>
        <time>2024-08-05T06:41:22Z</time>
      </trkpt>
      <trkpt lat="47.19903" lon="5.96304">
        <ele>237.6</ele>
        <time>2024-08-05T06:41:23Z</time>
      </trkpt>
      <trkpt lat="47.19903" lon="5.96295">
        <ele>237.4</ele>
        <time>2024-08-05T06:41:24Z</time>
      </trkpt>
      <trkpt lat="47.19904" lon="5.96287">
        <ele>237.4</ele>
        <time>2024-08-05T06:41:25Z</time>
      </trkpt>
      <trkpt lat="47.19904" lon="5.96279">
        <ele>237.4</ele>
        <time>2024-08-05T06:41:26Z</time>
      </trkpt>
      <trkpt lat="47.19904" lon="5.96271">
        <ele>237.6</ele>
        <time>2024-08-05T06:41:27Z</time>
      </trkpt>
      <trkpt lat="47.19904" lon="5.96262">
        <ele>237.4</ele>
        <time>2024-08-05T06:41:28Z</time>
      </trkpt>
      <trkpt lat="47.19904" lon="5.96254">
        <ele>237.2</ele>
        <time>2024-08-05T06:41:29Z</time>
      </trkpt>
      <trkpt lat="47.19905" lon="5.96247">
        <ele>237.6</ele>
        <time>2024-08-05T06:41:30Z</time>
      </trkpt>
      <trkpt lat="47.19905" lon="5.96239">
        <ele>237.6</ele>
        <time>2024-08-05T06:41:31Z</time>
      </trkpt>
      <trkpt lat="47.19907" lon="5.96233">
        <ele>237.2</ele>
        <time>2024-08-05T06:41:32Z</time>
      </trkpt>
      <trkpt lat="47.19909" lon="5.96228">
        <ele>237.4</ele>
        <time>2024-08-05T06:41:33Z</time>
      </trkpt>
      <trkpt lat="47.19911" lon="5.96225">
        <ele>237.4</ele>
        <time>2024-08-05T06:41:34Z</time>
      </trkpt>
      <trkpt lat="47.19915" lon="5.96223">
        <ele>237.4</ele>
        <time>2024-08-05T06:41:35Z</time>
      </trkpt>
      <trkpt lat="47.19919" lon="5.96223">
        <ele>237.4</ele>
        <time>2024-08-05T06:41:36Z</time>
      </trkpt>
      <trkpt lat="47.19923" lon="5.96224">
        <ele>237.6</ele>
        <time>2024-08-05T06:41:37Z</time>
      </trkpt>
      <trkpt lat="47.19928" lon="5.96225">
        <ele>237.4</ele>
        <time>2024-08-05T06:41:38Z</time>
      </trkpt>
      <trkpt lat="47.19933" lon="5.96226">
        <ele>237.6</ele>
        <time>2024-08-05T06:41:39Z</time>
      </trkpt>
      <trkpt lat="47.19938" lon="5.96227">
        <ele>237.6</ele>
        <time>2024-08-05T06:41:40Z</time>
      </trkpt>
      <trkpt lat="47.19943" lon="5.96228">
        <ele>237.8</ele>
        <time>2024-08-05T06:41:41Z</time>
      </trkpt>
      <trkpt lat="47.19948" lon="5.96229">
        <ele>237.8</ele>
        <time>2024-08-05T06:41:42Z</time>
      </trkpt>
      <trkpt lat="47.19953" lon="5.96231">
        <ele>237.8</ele>
        <time>2024-08-05T06:41:43Z</time>
      </trkpt>
      <trkpt lat="47.19958" lon="5.96232">
        <ele>238</ele>
        <time>2024-08-05T06:41:44Z</time>
      </trkpt>
      <trkpt lat="47.19963" lon="5.96233">
        <ele>238</ele>
        <time>2024-08-05T06:41:45Z</time>
      </trkpt>
      <trkpt lat="47.19968" lon="5.96234">
        <ele>238</ele>
        <time>2024-08-05T06:41:46Z</time>
      </trkpt>
      <trkpt lat="47.19973" lon="5.96235">
        <ele>238</ele>
        <time>2024-08-05T06:41:47Z</time>
      </trkpt>
      <trkpt lat="47.19977" lon="5.96236">
        <ele>238</ele>
        <time>2024-08-05T06:41:48Z</time>
      </trkpt>
      <trkpt lat="47.19982" lon="5.96237">
        <ele>238.2</ele>
        <time>2024-08-05T06:41:49Z</time>
      </trkpt>
      <trkpt lat="47.19987" lon="5.96239">
        <ele>238.2</ele>
        <time>2024-08-05T06:41:50Z</time>
      </trkpt>
      <trkpt lat="47.19992" lon="5.9624">
        <ele>238.2</ele>
        <time>2024-08-05T06:41:51Z</time>
      </trkpt>
      <trkpt lat="47.19998" lon="5.96241">
        <ele>238.2</ele>
        <time>2024-08-05T06:41:52Z</time>
      </trkpt>
      <trkpt lat="47.20003" lon="5.96241">
        <ele>238.2</ele>
        <time>2024-08-05T06:41:53Z</time>
      </trkpt>
      <trkpt lat="47.20009" lon="5.96242">
        <ele>238.2</ele>
        <time>2024-08-05T06:41:54Z</time>
      </trkpt>
      <trkpt lat="47.20015" lon="5.96242">
        <ele>238.2</ele>
        <time>2024-08-05T06:41:55Z</time>
      </trkpt>
      <trkpt lat="47.20021" lon="5.96243">
        <ele>238.2</ele>
        <time>2024-08-05T06:41:56Z</time>
      </trkpt>
      <trkpt lat="47.20027" lon="5.96243">
        <ele>238.2</ele>
        <time>2024-08-05T06:41:57Z</time>
      </trkpt>
      <trkpt lat="47.20033" lon="5.96243">
        <ele>238</ele>
        <time>2024-08-05T06:41:58Z</time>
      </trkpt>
      <trkpt lat="47.20039" lon="5.96244">
        <ele>238.2</ele>
        <time>2024-08-05T06:41:59Z</time>
      </trkpt>
      <trkpt lat="47.20045" lon="5.96244">
        <ele>238</ele>
        <time>2024-08-05T06:42:00Z</time>
      </trkpt>
      <trkpt lat="47.20051" lon="5.96244">
        <ele>238</ele>
        <time>2024-08-05T06:42:01Z</time>
      </trkpt>
      <trkpt lat="47.20058" lon="5.96243">
        <ele>238.2</ele>
        <time>2024-08-05T06:42:02Z</time>
      </trkpt>
      <trkpt lat="47.20064" lon="5.96243">
        <ele>238</ele>
        <time>2024-08-05T06:42:03Z</time>
      </trkpt>
      <trkpt lat="47.20071" lon="5.96243">
        <ele>238.2</ele>
        <time>2024-08-05T06:42:04Z</time>
      </trkpt>
      <trkpt lat="47.20078" lon="5.96243">
        <ele>238.2</ele>
        <time>2024-08-05T06:42:05Z</time>
      </trkpt>
      <trkpt lat="47.20085" lon="5.96243">
        <ele>238</ele>
        <time>2024-08-05T06:42:06Z</time>
      </trkpt>
      <trkpt lat="47.20091" lon="5.96243">
        <ele>238</ele>
        <time>2024-08-05T06:42:07Z</time>
      </trkpt>
      <trkpt lat="47.20098" lon="5.96243">
        <ele>237.8</ele>
        <time>2024-08-05T06:42:08Z</time>
      </trkpt>
      <trkpt lat="47.20105" lon="5.96243">
        <ele>237.8</ele>
        <time>2024-08-05T06:42:09Z</time>
      </trkpt>
      <trkpt lat="47.20112" lon="5.96242">
        <ele>237.8</ele>
        <time>2024-08-05T06:42:10Z</time>
      </trkpt>
      <trkpt lat="47.20118" lon="5.96242">
        <ele>237.8</ele>
        <time>2024-08-05T06:42:11Z</time>
      </trkpt>
      <trkpt lat="47.20125" lon="5.96242">
        <ele>237.6</ele>
        <time>2024-08-05T06:42:12Z</time>
      </trkpt>
      <trkpt lat="47.20131" lon="5.96242">
        <ele>237.6</ele>
        <time>2024-08-05T06:42:13Z</time>
      </trkpt>
      <trkpt lat="47.20136" lon="5.96242">
        <ele>237.6</ele>
        <time>2024-08-05T06:42:14Z</time>
      </trkpt>
      <trkpt lat="47.20141" lon="5.96241">
        <ele>237.6</ele>
        <time>2024-08-05T06:42:15Z</time>
      </trkpt>
      <trkpt lat="47.20146" lon="5.96239">
        <ele>237.4</ele>
        <time>2024-08-05T06:42:16Z</time>
      </trkpt>
      <trkpt lat="47.2015" lon="5.96237">
        <ele>237.2</ele>
        <time>2024-08-05T06:42:17Z</time>
      </trkpt>
      <trkpt lat="47.20154" lon="5.96236">
        <ele>237.2</ele>
        <time>2024-08-05T06:42:18Z</time>
      </trkpt>
      <trkpt lat="47.20158" lon="5.96235">
        <ele>237.2</ele>
        <time>2024-08-05T06:42:19Z</time>
      </trkpt>
      <trkpt lat="47.20163" lon="5.96235">
        <ele>237.2</ele>
        <time>2024-08-05T06:42:20Z</time>
      </trkpt>
      <trkpt lat="47.20167" lon="5.96236">
        <ele>237.2</ele>
        <time>2024-08-05T06:42:21Z</time>
      </trkpt>
      <trkpt lat="47.2017" lon="5.96236">
        <ele>237.2</ele>
        <time>2024-08-05T06:42:22Z</time>
      </trkpt>
      <trkpt lat="47.20173" lon="5.96234">
        <ele>236.8</ele>
        <time>2024-08-05T06:42:23Z</time>
      </trkpt>
      <trkpt lat="47.20175" lon="5.9623">
        <ele>236.8</ele>
        <time>2024-08-05T06:42:24Z</time>
      </trkpt>
      <trkpt lat="47.20176" lon="5.96226">
        <ele>236.6</ele>
        <time>2024-08-05T06:42:25Z</time>
      </trkpt>
      <trkpt lat="47.20178" lon="5.96222">
        <ele>236.4</ele>
        <time>2024-08-05T06:42:26Z</time>
      </trkpt>
      <trkpt lat="47.20179" lon="5.96217">
        <ele>236.4</ele>
        <time>2024-08-05T06:42:27Z</time>
      </trkpt>
      <trkpt lat="47.20181" lon="5.96211">
        <ele>236.2</ele>
        <time>2024-08-05T06:42:28Z</time>
      </trkpt>
      <trkpt lat="47.20183" lon="5.96206">
        <ele>236.2</ele>
        <time>2024-08-05T06:42:29Z</time>
      </trkpt>
      <trkpt lat="47.20184" lon="5.96199">
        <ele>236.2</ele>
        <time>2024-08-05T06:42:30Z</time>
      </trkpt>
      <trkpt lat="47.20184" lon="5.96192">
        <ele>236.2</ele>
        <time>2024-08-05T06:42:31Z</time>
      </trkpt>
      <trkpt lat="47.20184" lon="5.96185">
        <ele>236</ele>
        <time>2024-08-05T06:42:32Z</time>
      </trkpt>
      <trkpt lat="47.20184" lon="5.96177">
        <ele>235.8</ele>
        <time>2024-08-05T06:42:33Z</time>
      </trkpt>
      <trkpt lat="47.20184" lon="5.96169">
        <ele>235.8</ele>
        <time>2024-08-05T06:42:34Z</time>
      </trkpt>
      <trkpt lat="47.20184" lon="5.96161">
        <ele>235.8</ele>
        <time>2024-08-05T06:42:35Z</time>
      </trkpt>
      <trkpt lat="47.20184" lon="5.96153">
        <ele>235.8</ele>
        <time>2024-08-05T06:42:36Z</time>
      </trkpt>
      <trkpt lat="47.20184" lon="5.96144">
        <ele>235.8</ele>
        <time>2024-08-05T06:42:37Z</time>
      </trkpt>
      <trkpt lat="47.20184" lon="5.96135">
        <ele>235.6</ele>
        <time>2024-08-05T06:42:38Z</time>
      </trkpt>
      <trkpt lat="47.20184" lon="5.96126">
        <ele>235.6</ele>
        <time>2024-08-05T06:42:39Z</time>
      </trkpt>
      <trkpt lat="47.20184" lon="5.96118">
        <ele>235.6</ele>
        <time>2024-08-05T06:42:40Z</time>
      </trkpt>
      <trkpt lat="47.20183" lon="5.96109">
        <ele>235.4</ele>
        <time>2024-08-05T06:42:41Z</time>
      </trkpt>
      <trkpt lat="47.20183" lon="5.961">
        <ele>235.6</ele>
        <time>2024-08-05T06:42:42Z</time>
      </trkpt>
      <trkpt lat="47.20183" lon="5.96091">
        <ele>235.6</ele>
        <time>2024-08-05T06:42:43Z</time>
      </trkpt>
      <trkpt lat="47.20183" lon="5.96082">
        <ele>235.6</ele>
        <time>2024-08-05T06:42:44Z</time>
      </trkpt>
      <trkpt lat="47.20182" lon="5.96074">
        <ele>235.6</ele>
        <time>2024-08-05T06:42:45Z</time>
      </trkpt>
      <trkpt lat="47.20183" lon="5.96065">
        <ele>235.6</ele>
        <time>2024-08-05T06:42:46Z</time>
      </trkpt>
      <trkpt lat="47.20183" lon="5.96056">
        <ele>235.6</ele>
        <time>2024-08-05T06:42:47Z</time>
      </trkpt>
      <trkpt lat="47.20183" lon="5.96048">
        <ele>235.8</ele>
        <time>2024-08-05T06:42:48Z</time>
      </trkpt>
      <trkpt lat="47.20184" lon="5.96039">
        <ele>235.8</ele>
        <time>2024-08-05T06:42:49Z</time>
      </trkpt>
      <trkpt lat="47.20184" lon="5.9603">
        <ele>235.8</ele>
        <time>2024-08-05T06:42:50Z</time>
      </trkpt>
      <trkpt lat="47.20185" lon="5.96021">
        <ele>235.8</ele>
        <time>2024-08-05T06:42:51Z</time>
      </trkpt>
      <trkpt lat="47.20185" lon="5.96013">
        <ele>235.8</ele>
        <time>2024-08-05T06:42:52Z</time>
      </trkpt>
      <trkpt lat="47.20186" lon="5.96004">
        <ele>235.8</ele>
        <time>2024-08-05T06:42:53Z</time>
      </trkpt>
      <trkpt lat="47.20186" lon="5.95995">
        <ele>235.8</ele>
        <time>2024-08-05T06:42:54Z</time>
      </trkpt>
      <trkpt lat="47.20186" lon="5.95987">
        <ele>235.8</ele>
        <time>2024-08-05T06:42:55Z</time>
      </trkpt>
      <trkpt lat="47.20186" lon="5.95978">
        <ele>235.8</ele>
        <time>2024-08-05T06:42:56Z</time>
      </trkpt>
      <trkpt lat="47.20186" lon="5.95969">
        <ele>235.8</ele>
        <time>2024-08-05T06:42:57Z</time>
      </trkpt>
      <trkpt lat="47.20187" lon="5.95961">
        <ele>235.8</ele>
        <time>2024-08-05T06:42:58Z</time>
      </trkpt>
      <trkpt lat="47.20187" lon="5.95953">
        <ele>235.8</ele>
        <time>2024-08-05T06:42:59Z</time>
      </trkpt>
      <trkpt lat="47.20187" lon="5.95944">
        <ele>235.8</ele>
        <time>2024-08-05T06:43:00Z</time>
      </trkpt>
      <trkpt lat="47.20188" lon="5.95936">
        <ele>236</ele>
        <time>2024-08-05T06:43:01Z</time>
      </trkpt>
      <trkpt lat="47.20188" lon="5.95927">
        <ele>235.8</ele>
        <time>2024-08-05T06:43:02Z</time>
      </trkpt>
      <trkpt lat="47.20188" lon="5.95918">
        <ele>235.8</ele>
        <time>2024-08-05T06:43:03Z</time>
      </trkpt>
      <trkpt lat="47.20188" lon="5.95909">
        <ele>235.8</ele>
        <time>2024-08-05T06:43:04Z</time>
      </trkpt>
      <trkpt lat="47.20188" lon="5.95901">
        <ele>235.8</ele>
        <time>2024-08-05T06:43:05Z</time>
      </trkpt>
      <trkpt lat="47.20188" lon="5.95892">
        <ele>235.8</ele>
        <time>2024-08-05T06:43:06Z</time>
      </trkpt>
      <trkpt lat="47.20188" lon="5.95883">
        <ele>236</ele>
        <time>2024-08-05T06:43:07Z</time>
      </trkpt>
      <trkpt lat="47.20189" lon="5.95874">
        <ele>236</ele>
        <time>2024-08-05T06:43:08Z</time>
      </trkpt>
      <trkpt lat="47.20189" lon="5.95865">
        <ele>236</ele>
        <time>2024-08-05T06:43:09Z</time>
      </trkpt>
      <trkpt lat="47.2019" lon="5.95857">
        <ele>235.8</ele>
        <time>2024-08-05T06:43:10Z</time>
      </trkpt>
      <trkpt lat="47.2019" lon="5.95848">
        <ele>235.8</ele>
        <time>2024-08-05T06:43:11Z</time>
      </trkpt>
      <trkpt lat="47.2019" lon="5.9584">
        <ele>235.8</ele>
        <time>2024-08-05T06:43:12Z</time>
      </trkpt>
      <trkpt lat="47.2019" lon="5.95832">
        <ele>235.8</ele>
        <time>2024-08-05T06:43:13Z</time>
      </trkpt>
      <trkpt lat="47.2019" lon="5.95823">
        <ele>235.8</ele>
        <time>2024-08-05T06:43:14Z</time>
      </trkpt>
      <trkpt lat="47.20191" lon="5.95815">
        <ele>235.8</ele>
        <time>2024-08-05T06:43:15Z</time>
      </trkpt>
      <trkpt lat="47.20191" lon="5.95807">
        <ele>235.8</ele>
        <time>2024-08-05T06:43:16Z</time>
      </trkpt>
      <trkpt lat="47.20191" lon="5.95799">
        <ele>236</ele>
        <time>2024-08-05T06:43:17Z</time>
      </trkpt>
      <trkpt lat="47.2019" lon="5.95791">
        <ele>236</ele>
        <time>2024-08-05T06:43:18Z</time>
      </trkpt>
      <trkpt lat="47.20189" lon="5.95783">
        <ele>236</ele>
        <time>2024-08-05T06:43:19Z</time>
      </trkpt>
      <trkpt lat="47.20188" lon="5.95775">
        <ele>236</ele>
        <time>2024-08-05T06:43:20Z</time>
      </trkpt>
      <trkpt lat="47.20188" lon="5.95767">
        <ele>235.8</ele>
        <time>2024-08-05T06:43:21Z</time>
      </trkpt>
      <trkpt lat="47.20187" lon="5.95759">
        <ele>235.8</ele>
        <time>2024-08-05T06:43:22Z</time>
      </trkpt>
      <trkpt lat="47.20186" lon="5.95751">
        <ele>236</ele>
        <time>2024-08-05T06:43:23Z</time>
      </trkpt>
      <trkpt lat="47.20185" lon="5.95742">
        <ele>236</ele>
        <time>2024-08-05T06:43:24Z</time>
      </trkpt>
      <trkpt lat="47.20184" lon="5.95734">
        <ele>235.8</ele>
        <time>2024-08-05T06:43:25Z</time>
      </trkpt>
      <trkpt lat="47.20183" lon="5.95726">
        <ele>235.8</ele>
        <time>2024-08-05T06:43:26Z</time>
      </trkpt>
      <trkpt lat="47.20182" lon="5.95718">
        <ele>235.8</ele>
        <time>2024-08-05T06:43:27Z</time>
      </trkpt>
      <trkpt lat="47.2018" lon="5.95709">
        <ele>235.8</ele>
        <time>2024-08-05T06:43:28Z</time>
      </trkpt>
      <trkpt lat="47.20179" lon="5.95701">
        <ele>235.8</ele>
        <time>2024-08-05T06:43:29Z</time>
      </trkpt>
      <trkpt lat="47.20177" lon="5.95693">
        <ele>236</ele>
        <time>2024-08-05T06:43:30Z</time>
      </trkpt>
      <trkpt lat="47.20175" lon="5.95685">
        <ele>235.8</ele>
        <time>2024-08-05T06:43:31Z</time>
      </trkpt>
      <trkpt lat="47.20173" lon="5.95677">
        <ele>236</ele>
        <time>2024-08-05T06:43:32Z</time>
      </trkpt>
      <trkpt lat="47.20172" lon="5.95668">
        <ele>235.8</ele>
        <time>2024-08-05T06:43:33Z</time>
      </trkpt>
      <trkpt lat="47.20171" lon="5.95659">
        <ele>235.8</ele>
        <time>2024-08-05T06:43:34Z</time>
      </trkpt>
      <trkpt lat="47.2017" lon="5.9565">
        <ele>235.8</ele>
        <time>2024-08-05T06:43:35Z</time>
      </trkpt>
      <trkpt lat="47.2017" lon="5.95642">
        <ele>235.6</ele>
        <time>2024-08-05T06:43:36Z</time>
      </trkpt>
      <trkpt lat="47.20171" lon="5.95633">
        <ele>235.6</ele>
        <time>2024-08-05T06:43:37Z</time>
      </trkpt>
      <trkpt lat="47.20172" lon="5.95625">
        <ele>235.6</ele>
        <time>2024-08-05T06:43:38Z</time>
      </trkpt>
      <trkpt lat="47.20173" lon="5.95617">
        <ele>235.8</ele>
        <time>2024-08-05T06:43:39Z</time>
      </trkpt>
      <trkpt lat="47.20175" lon="5.9561">
        <ele>235.6</ele>
        <time>2024-08-05T06:43:40Z</time>
      </trkpt>
      <trkpt lat="47.20177" lon="5.95603">
        <ele>235.6</ele>
        <time>2024-08-05T06:43:41Z</time>
      </trkpt>
      <trkpt lat="47.2018" lon="5.95596">
        <ele>235.6</ele>
        <time>2024-08-05T06:43:42Z</time>
      </trkpt>
      <trkpt lat="47.20182" lon="5.9559">
        <ele>235.6</ele>
        <time>2024-08-05T06:43:43Z</time>
      </trkpt>
      <trkpt lat="47.20183" lon="5.95584">
        <ele>235.4</ele>
        <time>2024-08-05T06:43:44Z</time>
      </trkpt>
      <trkpt lat="47.20186" lon="5.95579">
        <ele>235.4</ele>
        <time>2024-08-05T06:43:45Z</time>
      </trkpt>
      <trkpt lat="47.20188" lon="5.95574">
        <ele>235.4</ele>
        <time>2024-08-05T06:43:46Z</time>
      </trkpt>
      <trkpt lat="47.20191" lon="5.95568">
        <ele>235.4</ele>
        <time>2024-08-05T06:43:47Z</time>
      </trkpt>
      <trkpt lat="47.20195" lon="5.95563">
        <ele>235.2</ele>
        <time>2024-08-05T06:43:48Z</time>
      </trkpt>
      <trkpt lat="47.20198" lon="5.95557">
        <ele>235.2</ele>
        <time>2024-08-05T06:43:49Z</time>
      </trkpt>
      <trkpt lat="47.20202" lon="5.95551">
        <ele>235.2</ele>
        <time>2024-08-05T06:43:50Z</time>
      </trkpt>
      <trkpt lat="47.20206" lon="5.95545">
        <ele>235.2</ele>
        <time>2024-08-05T06:43:51Z</time>
      </trkpt>
      <trkpt lat="47.20209" lon="5.9554">
        <ele>235.2</ele>
        <time>2024-08-05T06:43:52Z</time>
      </trkpt>
      <trkpt lat="47.20213" lon="5.95534">
        <ele>235.4</ele>
        <time>2024-08-05T06:43:53Z</time>
      </trkpt>
      <trkpt lat="47.20217" lon="5.9553">
        <ele>235.4</ele>
        <time>2024-08-05T06:43:54Z</time>
      </trkpt>
      <trkpt lat="47.20221" lon="5.95524">
        <ele>235.4</ele>
        <time>2024-08-05T06:43:55Z</time>
      </trkpt>
      <trkpt lat="47.20224" lon="5.95519">
        <ele>235.4</ele>
        <time>2024-08-05T06:43:56Z</time>
      </trkpt>
      <trkpt lat="47.20228" lon="5.95514">
        <ele>235.2</ele>
        <time>2024-08-05T06:43:57Z</time>
      </trkpt>
      <trkpt lat="47.20232" lon="5.95509">
        <ele>235.4</ele>
        <time>2024-08-05T06:43:58Z</time>
      </trkpt>
      <trkpt lat="47.20236" lon="5.95504">
        <ele>235.4</ele>
        <time>2024-08-05T06:43:59Z</time>
      </trkpt>
      <trkpt lat="47.2024" lon="5.95499">
        <ele>235.2</ele>
        <time>2024-08-05T06:44:00Z</time>
      </trkpt>
      <trkpt lat="47.20244" lon="5.95493">
        <ele>235.4</ele>
        <time>2024-08-05T06:44:01Z</time>
      </trkpt>
      <trkpt lat="47.20247" lon="5.95488">
        <ele>235.6</ele>
        <time>2024-08-05T06:44:02Z</time>
      </trkpt>
      <trkpt lat="47.20251" lon="5.95482">
        <ele>235.6</ele>
        <time>2024-08-05T06:44:03Z</time>
      </trkpt>
      <trkpt lat="47.20254" lon="5.95476">
        <ele>235.6</ele>
        <time>2024-08-05T06:44:04Z</time>
      </trkpt>
      <trkpt lat="47.20257" lon="5.95471">
        <ele>235.8</ele>
        <time>2024-08-05T06:44:05Z</time>
      </trkpt>
      <trkpt lat="47.20261" lon="5.95465">
        <ele>235.8</ele>
        <time>2024-08-05T06:44:06Z</time>
      </trkpt>
      <trkpt lat="47.20264" lon="5.9546">
        <ele>236</ele>
        <time>2024-08-05T06:44:07Z</time>
      </trkpt>
      <trkpt lat="47.20268" lon="5.95454">
        <ele>236</ele>
        <time>2024-08-05T06:44:08Z</time>
      </trkpt>
      <trkpt lat="47.20271" lon="5.95449">
        <ele>236</ele>
        <time>2024-08-05T06:44:09Z</time>
      </trkpt>
      <trkpt lat="47.20274" lon="5.95444">
        <ele>236.2</ele>
        <time>2024-08-05T06:44:10Z</time>
      </trkpt>
      <trkpt lat="47.20277" lon="5.95438">
        <ele>236.2</ele>
        <time>2024-08-05T06:44:11Z</time>
      </trkpt>
      <trkpt lat="47.20281" lon="5.95433">
        <ele>236.4</ele>
        <time>2024-08-05T06:44:12Z</time>
      </trkpt>
      <trkpt lat="47.20284" lon="5.95427">
        <ele>236.6</ele>
        <time>2024-08-05T06:44:13Z</time>
      </trkpt>
      <trkpt lat="47.20287" lon="5.95422">
        <ele>236.6</ele>
        <time>2024-08-05T06:44:14Z</time>
      </trkpt>
      <trkpt lat="47.2029" lon="5.95416">
        <ele>236.8</ele>
        <time>2024-08-05T06:44:15Z</time>
      </trkpt>
      <trkpt lat="47.20293" lon="5.95411">
        <ele>236.8</ele>
        <time>2024-08-05T06:44:16Z</time>
      </trkpt>
      <trkpt lat="47.20296" lon="5.95406">
        <ele>236.8</ele>
        <time>2024-08-05T06:44:17Z</time>
      </trkpt>
      <trkpt lat="47.20298" lon="5.95402">
        <ele>236.8</ele>
        <time>2024-08-05T06:44:18Z</time>
      </trkpt>
      <trkpt lat="47.20301" lon="5.95397">
        <ele>237</ele>
        <time>2024-08-05T06:44:19Z</time>
      </trkpt>
      <trkpt lat="47.20303" lon="5.95393">
        <ele>237</ele>
        <time>2024-08-05T06:44:20Z</time>
      </trkpt>
      <trkpt lat="47.20306" lon="5.95388">
        <ele>237.2</ele>
        <time>2024-08-05T06:44:21Z</time>
      </trkpt>
      <trkpt lat="47.20308" lon="5.95384">
        <ele>237.2</ele>
        <time>2024-08-05T06:44:22Z</time>
      </trkpt>
      <trkpt lat="47.2031" lon="5.95381">
        <ele>237.2</ele>
        <time>2024-08-05T06:44:23Z</time>
      </trkpt>
      <trkpt lat="47.20312" lon="5.95377">
        <ele>237.2</ele>
        <time>2024-08-05T06:44:24Z</time>
      </trkpt>
      <trkpt lat="47.20314" lon="5.95374">
        <ele>237.6</ele>
        <time>2024-08-05T06:44:25Z</time>
      </trkpt>
      <trkpt lat="47.20315" lon="5.95371">
        <ele>237.8</ele>
        <time>2024-08-05T06:44:26Z</time>
      </trkpt>
      <trkpt lat="47.20317" lon="5.95368">
        <ele>237.8</ele>
        <time>2024-08-05T06:44:27Z</time>
      </trkpt>
      <trkpt lat="47.20319" lon="5.95365">
        <ele>238</ele>
        <time>2024-08-05T06:44:28Z</time>
      </trkpt>
      <trkpt lat="47.20321" lon="5.95362">
        <ele>238.4</ele>
        <time>2024-08-05T06:44:29Z</time>
      </trkpt>
      <trkpt lat="47.20323" lon="5.9536">
        <ele>238.6</ele>
        <time>2024-08-05T06:44:30Z</time>
      </trkpt>
      <trkpt lat="47.20324" lon="5.95357">
        <ele>239</ele>
        <time>2024-08-05T06:44:31Z</time>
      </trkpt>
      <trkpt lat="47.20326" lon="5.95355">
        <ele>239.2</ele>
        <time>2024-08-05T06:44:32Z</time>
      </trkpt>
      <trkpt lat="47.20328" lon="5.95353">
        <ele>239.4</ele>
        <time>2024-08-05T06:44:33Z</time>
      </trkpt>
      <trkpt lat="47.20329" lon="5.95351">
        <ele>239.6</ele>
        <time>2024-08-05T06:44:34Z</time>
      </trkpt>
      <trkpt lat="47.20331" lon="5.95349">
        <ele>240</ele>
        <time>2024-08-05T06:44:35Z</time>
      </trkpt>
      <trkpt lat="47.20332" lon="5.95346">
        <ele>240.2</ele>
        <time>2024-08-05T06:44:36Z</time>
      </trkpt>
      <trkpt lat="47.20333" lon="5.95344">
        <ele>240.4</ele>
        <time>2024-08-05T06:44:37Z</time>
      </trkpt>
      <trkpt lat="47.20334" lon="5.95342">
        <ele>240.8</ele>
        <time>2024-08-05T06:44:38Z</time>
      </trkpt>
      <trkpt lat="47.20336" lon="5.9534">
        <ele>240.8</ele>
        <time>2024-08-05T06:44:39Z</time>
      </trkpt>
      <trkpt lat="47.20337" lon="5.95337">
        <ele>241</ele>
        <time>2024-08-05T06:44:40Z</time>
      </trkpt>
      <trkpt lat="47.20338" lon="5.95335">
        <ele>241.4</ele>
        <time>2024-08-05T06:44:41Z</time>
      </trkpt>
      <trkpt lat="47.20339" lon="5.95332">
        <ele>241.4</ele>
        <time>2024-08-05T06:44:42Z</time>
      </trkpt>
      <trkpt lat="47.20339" lon="5.9533">
        <ele>241.8</ele>
        <time>2024-08-05T06:44:43Z</time>
      </trkpt>
      <trkpt lat="47.2034" lon="5.95327">
        <ele>242.2</ele>
        <time>2024-08-05T06:44:44Z</time>
      </trkpt>
      <trkpt lat="47.2034" lon="5.95325">
        <ele>242.4</ele>
        <time>2024-08-05T06:44:45Z</time>
      </trkpt>
      <trkpt lat="47.20341" lon="5.95323">
        <ele>242.4</ele>
        <time>2024-08-05T06:44:46Z</time>
      </trkpt>
      <trkpt lat="47.20341" lon="5.9532">
        <ele>242.6</ele>
        <time>2024-08-05T06:44:47Z</time>
      </trkpt>
      <trkpt lat="47.20341" lon="5.95317">
        <ele>242.8</ele>
        <time>2024-08-05T06:44:48Z</time>
      </trkpt>
      <trkpt lat="47.20341" lon="5.95313">
        <ele>243</ele>
        <time>2024-08-05T06:44:49Z</time>
      </trkpt>
      <trkpt lat="47.20341" lon="5.9531">
        <ele>243.4</ele>
        <time>2024-08-05T06:44:50Z</time>
      </trkpt>
      <trkpt lat="47.20342" lon="5.95306">
        <ele>243.8</ele>
        <time>2024-08-05T06:44:51Z</time>
      </trkpt>
      <trkpt lat="47.20342" lon="5.95303">
        <ele>244</ele>
        <time>2024-08-05T06:44:52Z</time>
      </trkpt>
      <trkpt lat="47.20342" lon="5.953">
        <ele>244.2</ele>
        <time>2024-08-05T06:44:53Z</time>
      </trkpt>
      <trkpt lat="47.20342" lon="5.95297">
        <ele>244.6</ele>
        <time>2024-08-05T06:44:54Z</time>
      </trkpt>
      <trkpt lat="47.20341" lon="5.95294">
        <ele>244.8</ele>
        <time>2024-08-05T06:44:55Z</time>
      </trkpt>
      <trkpt lat="47.2034" lon="5.95291">
        <ele>245</ele>
        <time>2024-08-05T06:44:56Z</time>
      </trkpt>
      <trkpt lat="47.20339" lon="5.95288">
        <ele>245.6</ele>
        <time>2024-08-05T06:44:57Z</time>
      </trkpt>
      <trkpt lat="47.20339" lon="5.95285">
        <ele>246</ele>
        <time>2024-08-05T06:44:58Z</time>
      </trkpt>
      <trkpt lat="47.20339" lon="5.95282">
        <ele>246.4</ele>
        <time>2024-08-05T06:44:59Z</time>
      </trkpt>
      <trkpt lat="47.20338" lon="5.95279">
        <ele>246.6</ele>
        <time>2024-08-05T06:45:00Z</time>
      </trkpt>
      <trkpt lat="47.20338" lon="5.95276">
        <ele>246.8</ele>
        <time>2024-08-05T06:45:01Z</time>
      </trkpt>
      <trkpt lat="47.20337" lon="5.95273">
        <ele>247</ele>
        <time>2024-08-05T06:45:02Z</time>
      </trkpt>
      <trkpt lat="47.20337" lon="5.9527">
        <ele>247.4</ele>
        <time>2024-08-05T06:45:03Z</time>
      </trkpt>
      <trkpt lat="47.20336" lon="5.95267">
        <ele>247.6</ele>
        <time>2024-08-05T06:45:04Z</time>
      </trkpt>
      <trkpt lat="47.20336" lon="5.95264">
        <ele>248</ele>
        <time>2024-08-05T06:45:05Z</time>
      </trkpt>
      <trkpt lat="47.20336" lon="5.95261">
        <ele>248.2</ele>
        <time>2024-08-05T06:45:06Z</time>
      </trkpt>
      <trkpt lat="47.20335" lon="5.95258">
        <ele>248.4</ele>
        <time>2024-08-05T06:45:07Z</time>
      </trkpt>
      <trkpt lat="47.20335" lon="5.95255">
        <ele>248.4</ele>
        <time>2024-08-05T06:45:08Z</time>
      </trkpt>
      <trkpt lat="47.20336" lon="5.95252">
        <ele>248.8</ele>
        <time>2024-08-05T06:45:09Z</time>
      </trkpt>
      <trkpt lat="47.20336" lon="5.95249">
        <ele>248.8</ele>
        <time>2024-08-05T06:45:10Z</time>
      </trkpt>
      <trkpt lat="47.20336" lon="5.95246">
        <ele>249</ele>
        <time>2024-08-05T06:45:11Z</time>
      </trkpt>
      <trkpt lat="47.20336" lon="5.95243">
        <ele>249.2</ele>
        <time>2024-08-05T06:45:12Z</time>
      </trkpt>
      <trkpt lat="47.20336" lon="5.9524">
        <ele>249.4</ele>
        <time>2024-08-05T06:45:13Z</time>
      </trkpt>
      <trkpt lat="47.20335" lon="5.95238">
        <ele>249.8</ele>
        <time>2024-08-05T06:45:14Z</time>
      </trkpt>
      <trkpt lat="47.20335" lon="5.95235">
        <ele>250</ele>
        <time>2024-08-05T06:45:15Z</time>
      </trkpt>
      <trkpt lat="47.20334" lon="5.95233">
        <ele>250.2</ele>
        <time>2024-08-05T06:45:16Z</time>
      </trkpt>
      <trkpt lat="47.20334" lon="5.95231">
        <ele>250.6</ele>
        <time>2024-08-05T06:45:17Z</time>
      </trkpt>
      <trkpt lat="47.20334" lon="5.95229">
        <ele>250.8</ele>
        <time>2024-08-05T06:45:18Z</time>
      </trkpt>
      <trkpt lat="47.20333" lon="5.95226">
        <ele>250.8</ele>
        <time>2024-08-05T06:45:19Z</time>
      </trkpt>
      <trkpt lat="47.20333" lon="5.95225">
        <ele>251.2</ele>
        <time>2024-08-05T06:45:20Z</time>
      </trkpt>
      <trkpt lat="47.20333" lon="5.95223">
        <ele>251.4</ele>
        <time>2024-08-05T06:45:21Z</time>
      </trkpt>
      <trkpt lat="47.20333" lon="5.95221">
        <ele>251.6</ele>
        <time>2024-08-05T06:45:22Z</time>
      </trkpt>
      <trkpt lat="47.20333" lon="5.95219">
        <ele>252</ele>
        <time>2024-08-05T06:45:23Z</time>
      </trkpt>
      <trkpt lat="47.20333" lon="5.95216">
        <ele>252.2</ele>
        <time>2024-08-05T06:45:24Z</time>
      </trkpt>
      <trkpt lat="47.20332" lon="5.95214">
        <ele>252.6</ele>
        <time>2024-08-05T06:45:25Z</time>
      </trkpt>
      <trkpt lat="47.20332" lon="5.95211">
        <ele>252.8</ele>
        <time>2024-08-05T06:45:26Z</time>
      </trkpt>
      <trkpt lat="47.20332" lon="5.95208">
        <ele>253.2</ele>
        <time>2024-08-05T06:45:27Z</time>
      </trkpt>
      <trkpt lat="47.20332" lon="5.95206">
        <ele>253.6</ele>
        <time>2024-08-05T06:45:28Z</time>
      </trkpt>
      <trkpt lat="47.20332" lon="5.95204">
        <ele>253.6</ele>
        <time>2024-08-05T06:45:29Z</time>
      </trkpt>
      <trkpt lat="47.20331" lon="5.95202">
        <ele>254</ele>
        <time>2024-08-05T06:45:30Z</time>
      </trkpt>
      <trkpt lat="47.2033" lon="5.95199">
        <ele>254.2</ele>
        <time>2024-08-05T06:45:31Z</time>
      </trkpt>
      <trkpt lat="47.2033" lon="5.95197">
        <ele>254.6</ele>
        <time>2024-08-05T06:45:32Z</time>
      </trkpt>
      <trkpt lat="47.2033" lon="5.95194">
        <ele>254.8</ele>
        <time>2024-08-05T06:45:33Z</time>
      </trkpt>
      <trkpt lat="47.2033" lon="5.95191">
        <ele>255.2</ele>
        <time>2024-08-05T06:45:34Z</time>
      </trkpt>
      <trkpt lat="47.2033" lon="5.95188">
        <ele>255.4</ele>
        <time>2024-08-05T06:45:35Z</time>
      </trkpt>
      <trkpt lat="47.2033" lon="5.95185">
        <ele>255.8</ele>
        <time>2024-08-05T06:45:36Z</time>
      </trkpt>
      <trkpt lat="47.2033" lon="5.95182">
        <ele>256</ele>
        <time>2024-08-05T06:45:37Z</time>
      </trkpt>
      <trkpt lat="47.20329" lon="5.95179">
        <ele>256.4</ele>
        <time>2024-08-05T06:45:38Z</time>
      </trkpt>
      <trkpt lat="47.20329" lon="5.95177">
        <ele>256.6</ele>
        <time>2024-08-05T06:45:39Z</time>
      </trkpt>
      <trkpt lat="47.20329" lon="5.95174">
        <ele>256.8</ele>
        <time>2024-08-05T06:45:40Z</time>
      </trkpt>
      <trkpt lat="47.20328" lon="5.95172">
        <ele>257.2</ele>
        <time>2024-08-05T06:45:41Z</time>
      </trkpt>
      <trkpt lat="47.20328" lon="5.95169">
        <ele>257.4</ele>
        <time>2024-08-05T06:45:42Z</time>
      </trkpt>
      <trkpt lat="47.20327" lon="5.95166">
        <ele>257.6</ele>
        <time>2024-08-05T06:45:43Z</time>
      </trkpt>
      <trkpt lat="47.20327" lon="5.95164">
        <ele>258</ele>
        <time>2024-08-05T06:45:44Z</time>
      </trkpt>
      <trkpt lat="47.20327" lon="5.95162">
        <ele>258.2</ele>
        <time>2024-08-05T06:45:45Z</time>
      </trkpt>
      <trkpt lat="47.20327" lon="5.9516">
        <ele>258.4</ele>
        <time>2024-08-05T06:45:46Z</time>
      </trkpt>
      <trkpt lat="47.20327" lon="5.95157">
        <ele>258.6</ele>
        <time>2024-08-05T06:45:47Z</time>
      </trkpt>
      <trkpt lat="47.20327" lon="5.95155">
        <ele>259</ele>
        <time>2024-08-05T06:45:48Z</time>
      </trkpt>
      <trkpt lat="47.20327" lon="5.95153">
        <ele>259.2</ele>
        <time>2024-08-05T06:45:49Z</time>
      </trkpt>
      <trkpt lat="47.20327" lon="5.9515">
        <ele>259.4</ele>
        <time>2024-08-05T06:45:50Z</time>
      </trkpt>
      <trkpt lat="47.20327" lon="5.95148">
        <ele>259.4</ele>
        <time>2024-08-05T06:45:51Z</time>
      </trkpt>
      <trkpt lat="47.20327" lon="5.95146">
        <ele>259.8</ele>
        <time>2024-08-05T06:45:52Z</time>
      </trkpt>
      <trkpt lat="47.20327" lon="5.95144">
        <ele>260.2</ele>
        <time>2024-08-05T06:45:53Z</time>
      </trkpt>
      <trkpt lat="47.20326" lon="5.95141">
        <ele>260.4</ele>
        <time>2024-08-05T06:45:54Z</time>
      </trkpt>
      <trkpt lat="47.20325" lon="5.9514">
        <ele>260.6</ele>
        <time>2024-08-05T06:45:55Z</time>
      </trkpt>
      <trkpt lat="47.20325" lon="5.95137">
        <ele>261.2</ele>
        <time>2024-08-05T06:45:56Z</time>
      </trkpt>
      <trkpt lat="47.20325" lon="5.95135">
        <ele>261.4</ele>
        <time>2024-08-05T06:45:57Z</time>
      </trkpt>
      <trkpt lat="47.20325" lon="5.95132">
        <ele>261.8</ele>
        <time>2024-08-05T06:45:58Z</time>
      </trkpt>
      <trkpt lat="47.20325" lon="5.9513">
        <ele>262.2</ele>
        <time>2024-08-05T06:45:59Z</time>
      </trkpt>
      <trkpt lat="47.20325" lon="5.95128">
        <ele>262.2</ele>
        <time>2024-08-05T06:46:00Z</time>
      </trkpt>
      <trkpt lat="47.20325" lon="5.95126">
        <ele>262.6</ele>
        <time>2024-08-05T06:46:01Z</time>
      </trkpt>
      <trkpt lat="47.20325" lon="5.95124">
        <ele>262.8</ele>
        <time>2024-08-05T06:46:02Z</time>
      </trkpt>
      <trkpt lat="47.20325" lon="5.95122">
        <ele>263.2</ele>
        <time>2024-08-05T06:46:03Z</time>
      </trkpt>
      <trkpt lat="47.20324" lon="5.9512">
        <ele>263.4</ele>
        <time>2024-08-05T06:46:04Z</time>
      </trkpt>
      <trkpt lat="47.20324" lon="5.95118">
        <ele>263.8</ele>
        <time>2024-08-05T06:46:05Z</time>
      </trkpt>
      <trkpt lat="47.20323" lon="5.95115">
        <ele>264</ele>
        <time>2024-08-05T06:46:06Z</time>
      </trkpt>
      <trkpt lat="47.20323" lon="5.95113">
        <ele>264.4</ele>
        <time>2024-08-05T06:46:07Z</time>
      </trkpt>
      <trkpt lat="47.20322" lon="5.95111">
        <ele>264.6</ele>
        <time>2024-08-05T06:46:08Z</time>
      </trkpt>
      <trkpt lat="47.20322" lon="5.95108">
        <ele>264.8</ele>
        <time>2024-08-05T06:46:09Z</time>
      </trkpt>
      <trkpt lat="47.20322" lon="5.95106">
        <ele>265.2</ele>
        <time>2024-08-05T06:46:10Z</time>
      </trkpt>
      <trkpt lat="47.20321" lon="5.95105">
        <ele>265.6</ele>
        <time>2024-08-05T06:46:11Z</time>
      </trkpt>
      <trkpt lat="47.20321" lon="5.95103">
        <ele>265.8</ele>
        <time>2024-08-05T06:46:12Z</time>
      </trkpt>
      <trkpt lat="47.2032" lon="5.95101">
        <ele>265.8</ele>
        <time>2024-08-05T06:46:13Z</time>
      </trkpt>
      <trkpt lat="47.2032" lon="5.951">
        <ele>266</ele>
        <time>2024-08-05T06:46:14Z</time>
      </trkpt>
      <trkpt lat="47.20319" lon="5.95098">
        <ele>266.4</ele>
        <time>2024-08-05T06:46:15Z</time>
      </trkpt>
      <trkpt lat="47.20319" lon="5.95097">
        <ele>266.6</ele>
        <time>2024-08-05T06:46:16Z</time>
      </trkpt>
      <trkpt lat="47.20318" lon="5.95095">
        <ele>266.8</ele>
        <time>2024-08-05T06:46:17Z</time>
      </trkpt>
      <trkpt lat="47.20318" lon="5.95093">
        <ele>267</ele>
        <time>2024-08-05T06:46:18Z</time>
      </trkpt>
      <trkpt lat="47.20317" lon="5.95091">
        <ele>267.4</ele>
        <time>2024-08-05T06:46:19Z</time>
      </trkpt>
      <trkpt lat="47.20315" lon="5.95089">
        <ele>267.6</ele>
        <time>2024-08-05T06:46:20Z</time>
      </trkpt>
      <trkpt lat="47.20315" lon="5.95088">
        <ele>268</ele>
        <time>2024-08-05T06:46:21Z</time>
      </trkpt>
      <trkpt lat="47.20315" lon="5.95086">
        <ele>268.2</ele>
        <time>2024-08-05T06:46:22Z</time>
      </trkpt>
      <trkpt lat="47.20314" lon="5.95084">
        <ele>268.8</ele>
        <time>2024-08-05T06:46:23Z</time>
      </trkpt>
      <trkpt lat="47.20313" lon="5.95082">
        <ele>268.8</ele>
        <time>2024-08-05T06:46:24Z</time>
      </trkpt>
      <trkpt lat="47.20313" lon="5.95079">
        <ele>269.2</ele>
        <time>2024-08-05T06:46:25Z</time>
      </trkpt>
      <trkpt lat="47.20312" lon="5.95077">
        <ele>269.6</ele>
        <time>2024-08-05T06:46:26Z</time>
      </trkpt>
      <trkpt lat="47.2031" lon="5.95074">
        <ele>269.8</ele>
        <time>2024-08-05T06:46:27Z</time>
      </trkpt>
      <trkpt lat="47.2031" lon="5.95072">
        <ele>270.2</ele>
        <time>2024-08-05T06:46:28Z</time>
      </trkpt>
      <trkpt lat="47.2031" lon="5.9507">
        <ele>270.4</ele>
        <time>2024-08-05T06:46:29Z</time>
      </trkpt>
      <trkpt lat="47.2031" lon="5.95068">
        <ele>270.6</ele>
        <time>2024-08-05T06:46:30Z</time>
      </trkpt>
      <trkpt lat="47.20309" lon="5.95066">
        <ele>270.8</ele>
        <time>2024-08-05T06:46:31Z</time>
      </trkpt>
      <trkpt lat="47.20308" lon="5.95064">
        <ele>271.2</ele>
        <time>2024-08-05T06:46:32Z</time>
      </trkpt>
      <trkpt lat="47.20308" lon="5.95061">
        <ele>271.4</ele>
        <time>2024-08-05T06:46:33Z</time>
      </trkpt>
      <trkpt lat="47.20307" lon="5.95058">
        <ele>271.4</ele>
        <time>2024-08-05T06:46:34Z</time>
      </trkpt>
      <trkpt lat="47.20306" lon="5.95055">
        <ele>271.8</ele>
        <time>2024-08-05T06:46:35Z</time>
      </trkpt>
      <trkpt lat="47.20306" lon="5.95051">
        <ele>272</ele>
        <time>2024-08-05T06:46:36Z</time>
      </trkpt>
      <trkpt lat="47.20306" lon="5.95047">
        <ele>272.2</ele>
        <time>2024-08-05T06:46:37Z</time>
      </trkpt>
      <trkpt lat="47.20306" lon="5.95043">
        <ele>272.6</ele>
        <time>2024-08-05T06:46:38Z</time>
      </trkpt>
      <trkpt lat="47.20306" lon="5.95039">
        <ele>272.8</ele>
        <time>2024-08-05T06:46:39Z</time>
      </trkpt>
      <trkpt lat="47.20306" lon="5.95037">
        <ele>273.2</ele>
        <time>2024-08-05T06:46:40Z</time>
      </trkpt>
      <trkpt lat="47.20306" lon="5.95035">
        <ele>273.4</ele>
        <time>2024-08-05T06:46:41Z</time>
      </trkpt>
      <trkpt lat="47.20306" lon="5.95033">
        <ele>273.8</ele>
        <time>2024-08-05T06:46:42Z</time>
      </trkpt>
      <trkpt lat="47.20307" lon="5.9503">
        <ele>274.2</ele>
        <time>2024-08-05T06:46:43Z</time>
      </trkpt>
      <trkpt lat="47.20307" lon="5.95028">
        <ele>274.4</ele>
        <time>2024-08-05T06:46:44Z</time>
      </trkpt>
      <trkpt lat="47.20307" lon="5.95025">
        <ele>274.8</ele>
        <time>2024-08-05T06:46:45Z</time>
      </trkpt>
      <trkpt lat="47.20307" lon="5.95022">
        <ele>275</ele>
        <time>2024-08-05T06:46:46Z</time>
      </trkpt>
      <trkpt lat="47.20307" lon="5.9502">
        <ele>275.4</ele>
        <time>2024-08-05T06:46:47Z</time>
      </trkpt>
      <trkpt lat="47.20307" lon="5.95017">
        <ele>275.8</ele>
        <time>2024-08-05T06:46:48Z</time>
      </trkpt>
      <trkpt lat="47.20306" lon="5.95014">
        <ele>276</ele>
        <time>2024-08-05T06:46:49Z</time>
      </trkpt>
      <trkpt lat="47.20306" lon="5.95011">
        <ele>276.2</ele>
        <time>2024-08-05T06:46:50Z</time>
      </trkpt>
      <trkpt lat="47.20305" lon="5.95008">
        <ele>276.4</ele>
        <time>2024-08-05T06:46:51Z</time>
      </trkpt>
      <trkpt lat="47.20305" lon="5.95006">
        <ele>276.8</ele>
        <time>2024-08-05T06:46:52Z</time>
      </trkpt>
      <trkpt lat="47.20305" lon="5.95003">
        <ele>277.2</ele>
        <time>2024-08-05T06:46:53Z</time>
      </trkpt>
      <trkpt lat="47.20305" lon="5.95">
        <ele>277.4</ele>
        <time>2024-08-05T06:46:54Z</time>
      </trkpt>
      <trkpt lat="47.20306" lon="5.94997">
        <ele>277.8</ele>
        <time>2024-08-05T06:46:55Z</time>
      </trkpt>
      <trkpt lat="47.20306" lon="5.94995">
        <ele>277.8</ele>
        <time>2024-08-05T06:46:56Z</time>
      </trkpt>
      <trkpt lat="47.20306" lon="5.94992">
        <ele>278</ele>
        <time>2024-08-05T06:46:57Z</time>
      </trkpt>
      <trkpt lat="47.20306" lon="5.9499">
        <ele>278.2</ele>
        <time>2024-08-05T06:46:58Z</time>
      </trkpt>
      <trkpt lat="47.20306" lon="5.94988">
        <ele>278.4</ele>
        <time>2024-08-05T06:46:59Z</time>
      </trkpt>
      <trkpt lat="47.20306" lon="5.94986">
        <ele>278.6</ele>
        <time>2024-08-05T06:47:00Z</time>
      </trkpt>
      <trkpt lat="47.20306" lon="5.94984">
        <ele>278.8</ele>
        <time>2024-08-05T06:47:01Z</time>
      </trkpt>
      <trkpt lat="47.20305" lon="5.94982">
        <ele>279</ele>
        <time>2024-08-05T06:47:02Z</time>
      </trkpt>
      <trkpt lat="47.20304" lon="5.9498">
        <ele>279.4</ele>
        <time>2024-08-05T06:47:03Z</time>
      </trkpt>
      <trkpt lat="47.20304" lon="5.94977">
        <ele>279.6</ele>
        <time>2024-08-05T06:47:04Z</time>
      </trkpt>
      <trkpt lat="47.20304" lon="5.94975">
        <ele>279.8</ele>
        <time>2024-08-05T06:47:05Z</time>
      </trkpt>
      <trkpt lat="47.20304" lon="5.94973">
        <ele>280.2</ele>
        <time>2024-08-05T06:47:06Z</time>
      </trkpt>
      <trkpt lat="47.20304" lon="5.94971">
        <ele>280.4</ele>
        <time>2024-08-05T06:47:07Z</time>
      </trkpt>
      <trkpt lat="47.20304" lon="5.94969">
        <ele>280.4</ele>
        <time>2024-08-05T06:47:08Z</time>
      </trkpt>
      <trkpt lat="47.20304" lon="5.94966">
        <ele>280.8</ele>
        <time>2024-08-05T06:47:09Z</time>
      </trkpt>
      <trkpt lat="47.20304" lon="5.94964">
        <ele>281</ele>
        <time>2024-08-05T06:47:10Z</time>
      </trkpt>
      <trkpt lat="47.20304" lon="5.94961">
        <ele>281.2</ele>
        <time>2024-08-05T06:47:11Z</time>
      </trkpt>
      <trkpt lat="47.20304" lon="5.94958">
        <ele>281.4</ele>
        <time>2024-08-05T06:47:12Z</time>
      </trkpt>
      <trkpt lat="47.20304" lon="5.94956">
        <ele>281.6</ele>
        <time>2024-08-05T06:47:13Z</time>
      </trkpt>
      <trkpt lat="47.20304" lon="5.94953">
        <ele>281.8</ele>
        <time>2024-08-05T06:47:14Z</time>
      </trkpt>
      <trkpt lat="47.20304" lon="5.9495">
        <ele>282</ele>
        <time>2024-08-05T06:47:15Z</time>
      </trkpt>
      <trkpt lat="47.20303" lon="5.94948">
        <ele>282.4</ele>
        <time>2024-08-05T06:47:16Z</time>
      </trkpt>
      <trkpt lat="47.20303" lon="5.94945">
        <ele>282.4</ele>
        <time>2024-08-05T06:47:17Z</time>
      </trkpt>
      <trkpt lat="47.20302" lon="5.94942">
        <ele>282.6</ele>
        <time>2024-08-05T06:47:18Z</time>
      </trkpt>
      <trkpt lat="47.20301" lon="5.94938">
        <ele>282.8</ele>
        <time>2024-08-05T06:47:19Z</time>
      </trkpt>
      <trkpt lat="47.203" lon="5.94935">
        <ele>283.2</ele>
        <time>2024-08-05T06:47:20Z</time>
      </trkpt>
      <trkpt lat="47.203" lon="5.94932">
        <ele>283.2</ele>
        <time>2024-08-05T06:47:21Z</time>
      </trkpt>
      <trkpt lat="47.20299" lon="5.94929">
        <ele>283.4</ele>
        <time>2024-08-05T06:47:22Z</time>
      </trkpt>
      <trkpt lat="47.20299" lon="5.94926">
        <ele>283.6</ele>
        <time>2024-08-05T06:47:23Z</time>
      </trkpt>
      <trkpt lat="47.20299" lon="5.94923">
        <ele>283.6</ele>
        <time>2024-08-05T06:47:24Z</time>
      </trkpt>
      <trkpt lat="47.20299" lon="5.9492">
        <ele>283.8</ele>
        <time>2024-08-05T06:47:25Z</time>
      </trkpt>
      <trkpt lat="47.20298" lon="5.94917">
        <ele>284</ele>
        <time>2024-08-05T06:47:26Z</time>
      </trkpt>
      <trkpt lat="47.20297" lon="5.94913">
        <ele>284.2</ele>
        <time>2024-08-05T06:47:27Z</time>
      </trkpt>
      <trkpt lat="47.20296" lon="5.9491">
        <ele>284.4</ele>
        <time>2024-08-05T06:47:28Z</time>
      </trkpt>
      <trkpt lat="47.20295" lon="5.94906">
        <ele>284.6</ele>
        <time>2024-08-05T06:47:29Z</time>
      </trkpt>
      <trkpt lat="47.20295" lon="5.94903">
        <ele>284.6</ele>
        <time>2024-08-05T06:47:30Z</time>
      </trkpt>
      <trkpt lat="47.20294" lon="5.94899">
        <ele>284.8</ele>
        <time>2024-08-05T06:47:31Z</time>
      </trkpt>
      <trkpt lat="47.20294" lon="5.94896">
        <ele>284.8</ele>
        <time>2024-08-05T06:47:32Z</time>
      </trkpt>
      <trkpt lat="47.20295" lon="5.94893">
        <ele>284.8</ele>
        <time>2024-08-05T06:47:33Z</time>
      </trkpt>
      <trkpt lat="47.20295" lon="5.9489">
        <ele>284.8</ele>
        <time>2024-08-05T06:47:34Z</time>
      </trkpt>
      <trkpt lat="47.20296" lon="5.94887">
        <ele>284.8</ele>
        <time>2024-08-05T06:47:35Z</time>
      </trkpt>
      <trkpt lat="47.20298" lon="5.94885">
        <ele>284.8</ele>
        <time>2024-08-05T06:47:36Z</time>
      </trkpt>
      <trkpt lat="47.20299" lon="5.94883">
        <ele>285</ele>
        <time>2024-08-05T06:47:37Z</time>
      </trkpt>
      <trkpt lat="47.203" lon="5.94882">
        <ele>285</ele>
        <time>2024-08-05T06:47:38Z</time>
      </trkpt>
      <trkpt lat="47.20301" lon="5.9488">
        <ele>285</ele>
        <time>2024-08-05T06:47:39Z</time>
      </trkpt>
      <trkpt lat="47.20302" lon="5.94879">
        <ele>285</ele>
        <time>2024-08-05T06:47:40Z</time>
      </trkpt>
      <trkpt lat="47.20303" lon="5.94878">
        <ele>285.2</ele>
        <time>2024-08-05T06:47:41Z</time>
      </trkpt>
      <trkpt lat="47.20304" lon="5.94877">
        <ele>285.2</ele>
        <time>2024-08-05T06:47:42Z</time>
      </trkpt>
      <trkpt lat="47.20305" lon="5.94876">
        <ele>285.4</ele>
        <time>2024-08-05T06:47:43Z</time>
      </trkpt>
      <trkpt lat="47.20306" lon="5.94875">
        <ele>285.4</ele>
        <time>2024-08-05T06:47:44Z</time>
      </trkpt>
      <trkpt lat="47.20307" lon="5.94874">
        <ele>285.6</ele>
        <time>2024-08-05T06:47:45Z</time>
      </trkpt>
      <trkpt lat="47.20309" lon="5.94873">
        <ele>285.8</ele>
        <time>2024-08-05T06:47:46Z</time>
      </trkpt>
      <trkpt lat="47.2031" lon="5.94872">
        <ele>286.4</ele>
        <time>2024-08-05T06:47:47Z</time>
      </trkpt>
      <trkpt lat="47.20311" lon="5.9487">
        <ele>286.4</ele>
        <time>2024-08-05T06:47:48Z</time>
      </trkpt>
      <trkpt lat="47.20312" lon="5.94869">
        <ele>286.8</ele>
        <time>2024-08-05T06:47:49Z</time>
      </trkpt>
      <trkpt lat="47.20313" lon="5.94868">
        <ele>287</ele>
        <time>2024-08-05T06:47:50Z</time>
      </trkpt>
      <trkpt lat="47.20314" lon="5.94867">
        <ele>287.2</ele>
        <time>2024-08-05T06:47:51Z</time>
      </trkpt>
      <trkpt lat="47.20316" lon="5.94866">
        <ele>287.6</ele>
        <time>2024-08-05T06:47:52Z</time>
      </trkpt>
      <trkpt lat="47.20317" lon="5.94866">
        <ele>287.8</ele>
        <time>2024-08-05T06:47:53Z</time>
      </trkpt>
      <trkpt lat="47.20319" lon="5.94865">
        <ele>288</ele>
        <time>2024-08-05T06:47:54Z</time>
      </trkpt>
      <trkpt lat="47.20321" lon="5.94865">
        <ele>288.4</ele>
        <time>2024-08-05T06:47:55Z</time>
      </trkpt>
      <trkpt lat="47.20323" lon="5.94864">
        <ele>288.6</ele>
        <time>2024-08-05T06:47:56Z</time>
      </trkpt>
      <trkpt lat="47.20325" lon="5.94864">
        <ele>289</ele>
        <time>2024-08-05T06:47:57Z</time>
      </trkpt>
      <trkpt lat="47.20326" lon="5.94863">
        <ele>289</ele>
        <time>2024-08-05T06:47:58Z</time>
      </trkpt>
      <trkpt lat="47.20328" lon="5.94862">
        <ele>289.4</ele>
        <time>2024-08-05T06:47:59Z</time>
      </trkpt>
      <trkpt lat="47.2033" lon="5.94861">
        <ele>289.4</ele>
        <time>2024-08-05T06:48:00Z</time>
      </trkpt>
      <trkpt lat="47.20332" lon="5.94861">
        <ele>289.6</ele>
        <time>2024-08-05T06:48:01Z</time>
      </trkpt>
      <trkpt lat="47.20334" lon="5.9486">
        <ele>289.8</ele>
        <time>2024-08-05T06:48:02Z</time>
      </trkpt>
      <trkpt lat="47.20335" lon="5.9486">
        <ele>289.8</ele>
        <time>2024-08-05T06:48:03Z</time>
      </trkpt>
      <trkpt lat="47.20337" lon="5.9486">
        <ele>290</ele>
        <time>2024-08-05T06:48:04Z</time>
      </trkpt>
      <trkpt lat="47.20339" lon="5.9486">
        <ele>290.4</ele>
        <time>2024-08-05T06:48:05Z</time>
      </trkpt>
      <trkpt lat="47.20341" lon="5.94859">
        <ele>290.8</ele>
        <time>2024-08-05T06:48:06Z</time>
      </trkpt>
      <trkpt lat="47.20343" lon="5.94858">
        <ele>291</ele>
        <time>2024-08-05T06:48:07Z</time>
      </trkpt>
      <trkpt lat="47.20344" lon="5.94857">
        <ele>291</ele>
        <time>2024-08-05T06:48:08Z</time>
      </trkpt>
      <trkpt lat="47.20345" lon="5.94856">
        <ele>291.4</ele>
        <time>2024-08-05T06:48:09Z</time>
      </trkpt>
      <trkpt lat="47.20346" lon="5.94854">
        <ele>291.6</ele>
        <time>2024-08-05T06:48:10Z</time>
      </trkpt>
      <trkpt lat="47.20347" lon="5.94853">
        <ele>292</ele>
        <time>2024-08-05T06:48:11Z</time>
      </trkpt>
      <trkpt lat="47.20349" lon="5.94851">
        <ele>292</ele>
        <time>2024-08-05T06:48:12Z</time>
      </trkpt>
      <trkpt lat="47.2035" lon="5.9485">
        <ele>292.2</ele>
        <time>2024-08-05T06:48:13Z</time>
      </trkpt>
      <trkpt lat="47.20352" lon="5.94848">
        <ele>292.4</ele>
        <time>2024-08-05T06:48:14Z</time>
      </trkpt>
      <trkpt lat="47.20353" lon="5.94847">
        <ele>292.4</ele>
        <time>2024-08-05T06:48:15Z</time>
      </trkpt>
      <trkpt lat="47.20354" lon="5.94846">
        <ele>292.6</ele>
        <time>2024-08-05T06:48:16Z</time>
      </trkpt>
      <trkpt lat="47.20356" lon="5.94846">
        <ele>293</ele>
        <time>2024-08-05T06:48:17Z</time>
      </trkpt>
      <trkpt lat="47.20357" lon="5.94845">
        <ele>293.2</ele>
        <time>2024-08-05T06:48:18Z</time>
      </trkpt>
      <trkpt lat="47.20359" lon="5.94844">
        <ele>293.2</ele>
        <time>2024-08-05T06:48:19Z</time>
      </trkpt>
      <trkpt lat="47.20361" lon="5.94843">
        <ele>293.6</ele>
        <time>2024-08-05T06:48:20Z</time>
      </trkpt>
      <trkpt lat="47.20363" lon="5.94843">
        <ele>293.8</ele>
        <time>2024-08-05T06:48:21Z</time>
      </trkpt>
      <trkpt lat="47.20365" lon="5.94842">
        <ele>293.8</ele>
        <time>2024-08-05T06:48:22Z</time>
      </trkpt>
      <trkpt lat="47.20368" lon="5.94842">
        <ele>294</ele>
        <time>2024-08-05T06:48:23Z</time>
      </trkpt>
      <trkpt lat="47.2037" lon="5.94841">
        <ele>294.2</ele>
        <time>2024-08-05T06:48:24Z</time>
      </trkpt>
      <trkpt lat="47.20372" lon="5.94841">
        <ele>294.4</ele>
        <time>2024-08-05T06:48:25Z</time>
      </trkpt>
      <trkpt lat="47.20374" lon="5.94841">
        <ele>294.8</ele>
        <time>2024-08-05T06:48:26Z</time>
      </trkpt>
      <trkpt lat="47.20376" lon="5.9484">
        <ele>295</ele>
        <time>2024-08-05T06:48:27Z</time>
      </trkpt>
      <trkpt lat="47.20378" lon="5.9484">
        <ele>295.2</ele>
        <time>2024-08-05T06:48:28Z</time>
      </trkpt>
      <trkpt lat="47.2038" lon="5.9484">
        <ele>295.4</ele>
        <time>2024-08-05T06:48:29Z</time>
      </trkpt>
      <trkpt lat="47.20382" lon="5.94839">
        <ele>295.4</ele>
        <time>2024-08-05T06:48:30Z</time>
      </trkpt>
      <trkpt lat="47.20385" lon="5.94839">
        <ele>295.4</ele>
        <time>2024-08-05T06:48:31Z</time>
      </trkpt>
      <trkpt lat="47.20386" lon="5.94837">
        <ele>295.8</ele>
        <time>2024-08-05T06:48:32Z</time>
      </trkpt>
      <trkpt lat="47.20387" lon="5.94837">
        <ele>295.8</ele>
        <time>2024-08-05T06:48:33Z</time>
      </trkpt>
      <trkpt lat="47.2039" lon="5.94837">
        <ele>295.8</ele>
        <time>2024-08-05T06:48:34Z</time>
      </trkpt>
      <trkpt lat="47.20393" lon="5.94836">
        <ele>295.8</ele>
        <time>2024-08-05T06:48:35Z</time>
      </trkpt>
      <trkpt lat="47.20394" lon="5.94835">
        <ele>296.2</ele>
        <time>2024-08-05T06:48:36Z</time>
      </trkpt>
      <trkpt lat="47.20396" lon="5.94833">
        <ele>296</ele>
        <time>2024-08-05T06:48:37Z</time>
      </trkpt>
      <trkpt lat="47.20398" lon="5.94832">
        <ele>296.4</ele>
        <time>2024-08-05T06:48:38Z</time>
      </trkpt>
      <trkpt lat="47.20401" lon="5.9483">
        <ele>296.4</ele>
        <time>2024-08-05T06:48:39Z</time>
      </trkpt>
      <trkpt lat="47.20404" lon="5.94829">
        <ele>296.4</ele>
        <time>2024-08-05T06:48:40Z</time>
      </trkpt>
      <trkpt lat="47.20406" lon="5.94828">
        <ele>296.4</ele>
        <time>2024-08-05T06:48:41Z</time>
      </trkpt>
      <trkpt lat="47.20407" lon="5.94827">
        <ele>296.6</ele>
        <time>2024-08-05T06:48:42Z</time>
      </trkpt>
      <trkpt lat="47.20409" lon="5.94827">
        <ele>296.6</ele>
        <time>2024-08-05T06:48:43Z</time>
      </trkpt>
      <trkpt lat="47.20411" lon="5.94827">
        <ele>296.6</ele>
        <time>2024-08-05T06:48:44Z</time>
      </trkpt>
      <trkpt lat="47.20413" lon="5.94826">
        <ele>296.8</ele>
        <time>2024-08-05T06:48:45Z</time>
      </trkpt>
      <trkpt lat="47.20415" lon="5.94825">
        <ele>296.8</ele>
        <time>2024-08-05T06:48:46Z</time>
      </trkpt>
      <trkpt lat="47.20418" lon="5.94824">
        <ele>297</ele>
        <time>2024-08-05T06:48:47Z</time>
      </trkpt>
      <trkpt lat="47.20421" lon="5.94824">
        <ele>297</ele>
        <time>2024-08-05T06:48:48Z</time>
      </trkpt>
      <trkpt lat="47.20423" lon="5.94822">
        <ele>297.2</ele>
        <time>2024-08-05T06:48:49Z</time>
      </trkpt>
      <trkpt lat="47.20426" lon="5.94821">
        <ele>297.4</ele>
        <time>2024-08-05T06:48:50Z</time>
      </trkpt>
      <trkpt lat="47.20428" lon="5.9482">
        <ele>297.4</ele>
        <time>2024-08-05T06:48:51Z</time>
      </trkpt>
      <trkpt lat="47.2043" lon="5.94818">
        <ele>297.6</ele>
        <time>2024-08-05T06:48:52Z</time>
      </trkpt>
      <trkpt lat="47.20432" lon="5.94816">
        <ele>297.6</ele>
        <time>2024-08-05T06:48:53Z</time>
      </trkpt>
      <trkpt lat="47.20434" lon="5.94814">
        <ele>297.8</ele>
        <time>2024-08-05T06:48:54Z</time>
      </trkpt>
      <trkpt lat="47.20435" lon="5.94812">
        <ele>297.8</ele>
        <time>2024-08-05T06:48:55Z</time>
      </trkpt>
      <trkpt lat="47.20437" lon="5.94809">
        <ele>297.8</ele>
        <time>2024-08-05T06:48:56Z</time>
      </trkpt>
      <trkpt lat="47.20437" lon="5.94806">
        <ele>297.8</ele>
        <time>2024-08-05T06:48:57Z</time>
      </trkpt>
      <trkpt lat="47.20439" lon="5.94804">
        <ele>298</ele>
        <time>2024-08-05T06:48:58Z</time>
      </trkpt>
      <trkpt lat="47.2044" lon="5.94801">
        <ele>298</ele>
        <time>2024-08-05T06:48:59Z</time>
      </trkpt>
      <trkpt lat="47.2044" lon="5.94798">
        <ele>298</ele>
        <time>2024-08-05T06:49:00Z</time>
      </trkpt>
      <trkpt lat="47.20442" lon="5.94794">
        <ele>298</ele>
        <time>2024-08-05T06:49:01Z</time>
      </trkpt>
      <trkpt lat="47.20444" lon="5.94791">
        <ele>298.2</ele>
        <time>2024-08-05T06:49:02Z</time>
      </trkpt>
      <trkpt lat="47.20445" lon="5.94788">
        <ele>298.2</ele>
        <time>2024-08-05T06:49:03Z</time>
      </trkpt>
      <trkpt lat="47.20447" lon="5.94785">
        <ele>298.2</ele>
        <time>2024-08-05T06:49:04Z</time>
      </trkpt>
      <trkpt lat="47.20449" lon="5.94782">
        <ele>298.2</ele>
        <time>2024-08-05T06:49:05Z</time>
      </trkpt>
      <trkpt lat="47.20451" lon="5.9478">
        <ele>298.2</ele>
        <time>2024-08-05T06:49:06Z</time>
      </trkpt>
      <trkpt lat="47.20453" lon="5.94778">
        <ele>298.2</ele>
        <time>2024-08-05T06:49:07Z</time>
      </trkpt>
      <trkpt lat="47.20456" lon="5.94776">
        <ele>298.2</ele>
        <time>2024-08-05T06:49:08Z</time>
      </trkpt>
      <trkpt lat="47.20458" lon="5.94773">
        <ele>298</ele>
        <time>2024-08-05T06:49:09Z</time>
      </trkpt>
      <trkpt lat="47.20461" lon="5.94769">
        <ele>298.2</ele>
        <time>2024-08-05T06:49:10Z</time>
      </trkpt>
      <trkpt lat="47.20463" lon="5.94766">
        <ele>298.2</ele>
        <time>2024-08-05T06:49:11Z</time>
      </trkpt>
      <trkpt lat="47.20465" lon="5.94763">
        <ele>298</ele>
        <time>2024-08-05T06:49:12Z</time>
      </trkpt>
      <trkpt lat="47.20467" lon="5.94759">
        <ele>298</ele>
        <time>2024-08-05T06:49:13Z</time>
      </trkpt>
      <trkpt lat="47.20469" lon="5.94753">
        <ele>298</ele>
        <time>2024-08-05T06:49:14Z</time>
      </trkpt>
      <trkpt lat="47.20472" lon="5.94748">
        <ele>298</ele>
        <time>2024-08-05T06:49:15Z</time>
      </trkpt>
      <trkpt lat="47.20475" lon="5.94742">
        <ele>298</ele>
        <time>2024-08-05T06:49:16Z</time>
      </trkpt>
      <trkpt lat="47.20478" lon="5.94736">
        <ele>297.8</ele>
        <time>2024-08-05T06:49:17Z</time>
      </trkpt>
      <trkpt lat="47.20482" lon="5.9473">
        <ele>298</ele>
        <time>2024-08-05T06:49:18Z</time>
      </trkpt>
      <trkpt lat="47.20486" lon="5.94724">
        <ele>297.8</ele>
        <time>2024-08-05T06:49:19Z</time>
      </trkpt>
      <trkpt lat="47.2049" lon="5.94718">
        <ele>297.8</ele>
        <time>2024-08-05T06:49:20Z</time>
      </trkpt>
      <trkpt lat="47.20493" lon="5.94713">
        <ele>297.6</ele>
        <time>2024-08-05T06:49:21Z</time>
      </trkpt>
      <trkpt lat="47.20498" lon="5.94708">
        <ele>297.6</ele>
        <time>2024-08-05T06:49:22Z</time>
      </trkpt>
      <trkpt lat="47.20503" lon="5.94703">
        <ele>297.2</ele>
        <time>2024-08-05T06:49:23Z</time>
      </trkpt>
      <trkpt lat="47.20508" lon="5.94698">
        <ele>297</ele>
        <time>2024-08-05T06:49:24Z</time>
      </trkpt>
      <trkpt lat="47.20514" lon="5.94693">
        <ele>297</ele>
        <time>2024-08-05T06:49:25Z</time>
      </trkpt>
      <trkpt lat="47.20519" lon="5.94687">
        <ele>296.8</ele>
        <time>2024-08-05T06:49:26Z</time>
      </trkpt>
      <trkpt lat="47.20524" lon="5.94681">
        <ele>296.8</ele>
        <time>2024-08-05T06:49:27Z</time>
      </trkpt>
      <trkpt lat="47.20529" lon="5.94675">
        <ele>296.6</ele>
        <time>2024-08-05T06:49:28Z</time>
      </trkpt>
      <trkpt lat="47.20534" lon="5.94669">
        <ele>296.4</ele>
        <time>2024-08-05T06:49:29Z</time>
      </trkpt>
      <trkpt lat="47.20539" lon="5.94662">
        <ele>296</ele>
        <time>2024-08-05T06:49:30Z</time>
      </trkpt>
      <trkpt lat="47.20543" lon="5.94655">
        <ele>295.8</ele>
        <time>2024-08-05T06:49:31Z</time>
      </trkpt>
      <trkpt lat="47.20547" lon="5.94648">
        <ele>295.4</ele>
        <time>2024-08-05T06:49:32Z</time>
      </trkpt>
      <trkpt lat="47.2055" lon="5.9464">
        <ele>295.4</ele>
        <time>2024-08-05T06:49:33Z</time>
      </trkpt>
      <trkpt lat="47.20553" lon="5.94631">
        <ele>294.8</ele>
        <time>2024-08-05T06:49:34Z</time>
      </trkpt>
      <trkpt lat="47.20555" lon="5.94622">
        <ele>294.4</ele>
        <time>2024-08-05T06:49:35Z</time>
      </trkpt>
      <trkpt lat="47.20557" lon="5.94612">
        <ele>294</ele>
        <time>2024-08-05T06:49:36Z</time>
      </trkpt>
      <trkpt lat="47.20557" lon="5.94602">
        <ele>293.8</ele>
        <time>2024-08-05T06:49:37Z</time>
      </trkpt>
      <trkpt lat="47.20557" lon="5.94592">
        <ele>293.4</ele>
        <time>2024-08-05T06:49:38Z</time>
      </trkpt>
      <trkpt lat="47.20557" lon="5.94583">
        <ele>292.8</ele>
        <time>2024-08-05T06:49:39Z</time>
      </trkpt>
      <trkpt lat="47.20557" lon="5.94575">
        <ele>292.6</ele>
        <time>2024-08-05T06:49:40Z</time>
      </trkpt>
      <trkpt lat="47.20557" lon="5.94566">
        <ele>292.6</ele>
        <time>2024-08-05T06:49:41Z</time>
      </trkpt>
      <trkpt lat="47.20558" lon="5.94558">
        <ele>292.4</ele>
        <time>2024-08-05T06:49:42Z</time>
      </trkpt>
      <trkpt lat="47.2056" lon="5.9455">
        <ele>292</ele>
        <time>2024-08-05T06:49:43Z</time>
      </trkpt>
      <trkpt lat="47.20561" lon="5.94541">
        <ele>291.2</ele>
        <time>2024-08-05T06:49:44Z</time>
      </trkpt>
      <trkpt lat="47.20563" lon="5.94533">
        <ele>291</ele>
        <time>2024-08-05T06:49:45Z</time>
      </trkpt>
      <trkpt lat="47.20565" lon="5.94525">
        <ele>290.4</ele>
        <time>2024-08-05T06:49:46Z</time>
      </trkpt>
      <trkpt lat="47.20568" lon="5.94516">
        <ele>289.8</ele>
        <time>2024-08-05T06:49:47Z</time>
      </trkpt>
      <trkpt lat="47.20571" lon="5.94507">
        <ele>289.2</ele>
        <time>2024-08-05T06:49:48Z</time>
      </trkpt>
      <trkpt lat="47.20575" lon="5.94499">
        <ele>289.2</ele>
        <time>2024-08-05T06:49:49Z</time>
      </trkpt>
      <trkpt lat="47.20579" lon="5.94491">
        <ele>288.8</ele>
        <time>2024-08-05T06:49:50Z</time>
      </trkpt>
      <trkpt lat="47.20583" lon="5.94484">
        <ele>288.6</ele>
        <time>2024-08-05T06:49:51Z</time>
      </trkpt>
      <trkpt lat="47.20588" lon="5.94479">
        <ele>288.2</ele>
        <time>2024-08-05T06:49:52Z</time>
      </trkpt>
      <trkpt lat="47.20593" lon="5.94475">
        <ele>287.6</ele>
        <time>2024-08-05T06:49:53Z</time>
      </trkpt>
      <trkpt lat="47.20597" lon="5.94472">
        <ele>287</ele>
        <time>2024-08-05T06:49:54Z</time>
      </trkpt>
      <trkpt lat="47.20602" lon="5.94469">
        <ele>286.8</ele>
        <time>2024-08-05T06:49:55Z</time>
      </trkpt>
      <trkpt lat="47.20606" lon="5.94467">
        <ele>286.2</ele>
        <time>2024-08-05T06:49:56Z</time>
      </trkpt>
      <trkpt lat="47.2061" lon="5.94465">
        <ele>285.8</ele>
        <time>2024-08-05T06:49:57Z</time>
      </trkpt>
      <trkpt lat="47.20614" lon="5.94462">
        <ele>285.2</ele>
        <time>2024-08-05T06:49:58Z</time>
      </trkpt>
      <trkpt lat="47.20617" lon="5.94461">
        <ele>284.8</ele>
        <time>2024-08-05T06:49:59Z</time>
      </trkpt>
      <trkpt lat="47.2062" lon="5.94459">
        <ele>284.2</ele>
        <time>2024-08-05T06:50:00Z</time>
      </trkpt>
      <trkpt lat="47.20623" lon="5.94459">
        <ele>283.8</ele>
        <time>2024-08-05T06:50:01Z</time>
      </trkpt>
      <trkpt lat="47.20626" lon="5.94459">
        <ele>283.4</ele>
        <time>2024-08-05T06:50:02Z</time>
      </trkpt>
      <trkpt lat="47.20628" lon="5.94458">
        <ele>283</ele>
        <time>2024-08-05T06:50:03Z</time>
      </trkpt>
      <trkpt lat="47.2063" lon="5.94457">
        <ele>282.6</ele>
        <time>2024-08-05T06:50:04Z</time>
      </trkpt>
      <trkpt lat="47.20631" lon="5.94454">
        <ele>281.8</ele>
        <time>2024-08-05T06:50:05Z</time>
      </trkpt>
      <trkpt lat="47.20633" lon="5.94452">
        <ele>281.6</ele>
        <time>2024-08-05T06:50:06Z</time>
      </trkpt>
      <trkpt lat="47.20634" lon="5.94449">
        <ele>281</ele>
        <time>2024-08-05T06:50:07Z</time>
      </trkpt>
      <trkpt lat="47.20637" lon="5.94448">
        <ele>280.4</ele>
        <time>2024-08-05T06:50:08Z</time>
      </trkpt>
      <trkpt lat="47.20638" lon="5.94444">
        <ele>279.8</ele>
        <time>2024-08-05T06:50:09Z</time>
      </trkpt>
      <trkpt lat="47.2064" lon="5.94441">
        <ele>279.8</ele>
        <time>2024-08-05T06:50:10Z</time>
      </trkpt>
      <trkpt lat="47.20642" lon="5.94436">
        <ele>279.4</ele>
        <time>2024-08-05T06:50:11Z</time>
      </trkpt>
      <trkpt lat="47.20644" lon="5.9443">
        <ele>279</ele>
        <time>2024-08-05T06:50:12Z</time>
      </trkpt>
      <trkpt lat="47.20645" lon="5.94426">
        <ele>279</ele>
        <time>2024-08-05T06:50:13Z</time>
      </trkpt>
      <trkpt lat="47.20646" lon="5.9442">
        <ele>278.6</ele>
        <time>2024-08-05T06:50:14Z</time>
      </trkpt>
      <trkpt lat="47.20646" lon="5.94416">
        <ele>278</ele>
        <time>2024-08-05T06:50:15Z</time>
      </trkpt>
      <trkpt lat="47.20647" lon="5.9441">
        <ele>277.6</ele>
        <time>2024-08-05T06:50:16Z</time>
      </trkpt>
      <trkpt lat="47.20647" lon="5.94399">
        <ele>277.4</ele>
        <time>2024-08-05T06:50:17Z</time>
      </trkpt>
      <trkpt lat="47.20647" lon="5.94392">
        <ele>277</ele>
        <time>2024-08-05T06:50:18Z</time>
      </trkpt>
      <trkpt lat="47.20646" lon="5.94384">
        <ele>276.6</ele>
        <time>2024-08-05T06:50:19Z</time>
      </trkpt>
      <trkpt lat="47.20646" lon="5.94377">
        <ele>276.4</ele>
        <time>2024-08-05T06:50:20Z</time>
      </trkpt>
      <trkpt lat="47.20645" lon="5.9437">
        <ele>276</ele>
        <time>2024-08-05T06:50:21Z</time>
      </trkpt>
      <trkpt lat="47.20644" lon="5.94363">
        <ele>275.8</ele>
        <time>2024-08-05T06:50:22Z</time>
      </trkpt>
      <trkpt lat="47.20644" lon="5.94355">
        <ele>275.4</ele>
        <time>2024-08-05T06:50:23Z</time>
      </trkpt>
      <trkpt lat="47.20644" lon="5.94348">
        <ele>275.2</ele>
        <time>2024-08-05T06:50:24Z</time>
      </trkpt>
      <trkpt lat="47.20644" lon="5.94341">
        <ele>275</ele>
        <time>2024-08-05T06:50:25Z</time>
      </trkpt>
      <trkpt lat="47.20645" lon="5.94333">
        <ele>274.4</ele>
        <time>2024-08-05T06:50:26Z</time>
      </trkpt>
      <trkpt lat="47.20647" lon="5.94326">
        <ele>274</ele>
        <time>2024-08-05T06:50:27Z</time>
      </trkpt>
      <trkpt lat="47.20648" lon="5.94319">
        <ele>273.8</ele>
        <time>2024-08-05T06:50:28Z</time>
      </trkpt>
      <trkpt lat="47.20649" lon="5.9431">
        <ele>273.2</ele>
        <time>2024-08-05T06:50:29Z</time>
      </trkpt>
      <trkpt lat="47.20652" lon="5.94302">
        <ele>272.8</ele>
        <time>2024-08-05T06:50:30Z</time>
      </trkpt>
      <trkpt lat="47.20654" lon="5.94296">
        <ele>272.6</ele>
        <time>2024-08-05T06:50:31Z</time>
      </trkpt>
      <trkpt lat="47.20656" lon="5.9429">
        <ele>272.6</ele>
        <time>2024-08-05T06:50:32Z</time>
      </trkpt>
      <trkpt lat="47.20658" lon="5.94284">
        <ele>272</ele>
        <time>2024-08-05T06:50:33Z</time>
      </trkpt>
      <trkpt lat="47.2066" lon="5.94278">
        <ele>272</ele>
        <time>2024-08-05T06:50:34Z</time>
      </trkpt>
      <trkpt lat="47.20661" lon="5.94272">
        <ele>271.8</ele>
        <time>2024-08-05T06:50:35Z</time>
      </trkpt>
      <trkpt lat="47.20662" lon="5.94267">
        <ele>271.8</ele>
        <time>2024-08-05T06:50:36Z</time>
      </trkpt>
      <trkpt lat="47.20664" lon="5.94263">
        <ele>271.8</ele>
        <time>2024-08-05T06:50:37Z</time>
      </trkpt>
      <trkpt lat="47.20665" lon="5.94259">
        <ele>271.6</ele>
        <time>2024-08-05T06:50:38Z</time>
      </trkpt>
      <trkpt lat="47.20667" lon="5.94255">
        <ele>271.6</ele>
        <time>2024-08-05T06:50:39Z</time>
      </trkpt>
      <trkpt lat="47.20668" lon="5.9425">
        <ele>271.6</ele>
        <time>2024-08-05T06:50:40Z</time>
      </trkpt>
      <trkpt lat="47.2067" lon="5.94247">
        <ele>271.6</ele>
        <time>2024-08-05T06:50:41Z</time>
      </trkpt>
      <trkpt lat="47.20671" lon="5.94243">
        <ele>271.6</ele>
        <time>2024-08-05T06:50:42Z</time>
      </trkpt>
      <trkpt lat="47.20673" lon="5.94239">
        <ele>271.4</ele>
        <time>2024-08-05T06:50:43Z</time>
      </trkpt>
      <trkpt lat="47.20674" lon="5.94236">
        <ele>271.4</ele>
        <time>2024-08-05T06:50:44Z</time>
      </trkpt>
      <trkpt lat="47.20676" lon="5.94234">
        <ele>271.6</ele>
        <time>2024-08-05T06:50:45Z</time>
      </trkpt>
      <trkpt lat="47.20677" lon="5.94232">
        <ele>271.6</ele>
        <time>2024-08-05T06:50:46Z</time>
      </trkpt>
      <trkpt lat="47.2068" lon="5.94229">
        <ele>271.6</ele>
        <time>2024-08-05T06:50:47Z</time>
      </trkpt>
      <trkpt lat="47.20683" lon="5.94227">
        <ele>271.8</ele>
        <time>2024-08-05T06:50:48Z</time>
      </trkpt>
      <trkpt lat="47.20687" lon="5.94224">
        <ele>271.8</ele>
        <time>2024-08-05T06:50:49Z</time>
      </trkpt>
      <trkpt lat="47.20691" lon="5.9422">
        <ele>271.6</ele>
        <time>2024-08-05T06:50:50Z</time>
      </trkpt>
      <trkpt lat="47.20694" lon="5.94217">
        <ele>271.8</ele>
        <time>2024-08-05T06:50:51Z</time>
      </trkpt>
      <trkpt lat="47.20697" lon="5.94214">
        <ele>271.6</ele>
        <time>2024-08-05T06:50:52Z</time>
      </trkpt>
      <trkpt lat="47.20699" lon="5.94213">
        <ele>271.6</ele>
        <time>2024-08-05T06:50:53Z</time>
      </trkpt>
      <trkpt lat="47.20702" lon="5.9421">
        <ele>271.6</ele>
        <time>2024-08-05T06:50:54Z</time>
      </trkpt>
      <trkpt lat="47.20706" lon="5.94207">
        <ele>271.6</ele>
        <time>2024-08-05T06:50:55Z</time>
      </trkpt>
      <trkpt lat="47.20711" lon="5.94204">
        <ele>271.6</ele>
        <time>2024-08-05T06:50:56Z</time>
      </trkpt>
      <trkpt lat="47.20716" lon="5.94201">
        <ele>271.4</ele>
        <time>2024-08-05T06:50:57Z</time>
      </trkpt>
      <trkpt lat="47.20721" lon="5.94197">
        <ele>271.6</ele>
        <time>2024-08-05T06:50:58Z</time>
      </trkpt>
      <trkpt lat="47.20727" lon="5.94192">
        <ele>271.6</ele>
        <time>2024-08-05T06:50:59Z</time>
      </trkpt>
      <trkpt lat="47.20734" lon="5.94187">
        <ele>271.2</ele>
        <time>2024-08-05T06:51:00Z</time>
      </trkpt>
      <trkpt lat="47.20741" lon="5.94183">
        <ele>271</ele>
        <time>2024-08-05T06:51:01Z</time>
      </trkpt>
      <trkpt lat="47.20747" lon="5.9418">
        <ele>270.4</ele>
        <time>2024-08-05T06:51:02Z</time>
      </trkpt>
      <trkpt lat="47.20752" lon="5.94176">
        <ele>269.8</ele>
        <time>2024-08-05T06:51:03Z</time>
      </trkpt>
      <trkpt lat="47.20757" lon="5.94172">
        <ele>269.8</ele>
        <time>2024-08-05T06:51:04Z</time>
      </trkpt>
      <trkpt lat="47.20761" lon="5.94167">
        <ele>269.2</ele>
        <time>2024-08-05T06:51:05Z</time>
      </trkpt>
      <trkpt lat="47.20766" lon="5.94161">
        <ele>269</ele>
        <time>2024-08-05T06:51:06Z</time>
      </trkpt>
      <trkpt lat="47.2077" lon="5.94156">
        <ele>268.8</ele>
        <time>2024-08-05T06:51:07Z</time>
      </trkpt>
      <trkpt lat="47.20774" lon="5.9415">
        <ele>268.4</ele>
        <time>2024-08-05T06:51:08Z</time>
      </trkpt>
      <trkpt lat="47.20779" lon="5.94143">
        <ele>268.4</ele>
        <time>2024-08-05T06:51:09Z</time>
      </trkpt>
      <trkpt lat="47.20782" lon="5.94139">
        <ele>268.2</ele>
        <time>2024-08-05T06:51:10Z</time>
      </trkpt>
      <trkpt lat="47.20785" lon="5.94134">
        <ele>268</ele>
        <time>2024-08-05T06:51:11Z</time>
      </trkpt>
      <trkpt lat="47.20786" lon="5.9413">
        <ele>267.6</ele>
        <time>2024-08-05T06:51:12Z</time>
      </trkpt>
      <trkpt lat="47.20788" lon="5.94126">
        <ele>267.4</ele>
        <time>2024-08-05T06:51:13Z</time>
      </trkpt>
      <trkpt lat="47.2079" lon="5.94123">
        <ele>267.4</ele>
        <time>2024-08-05T06:51:14Z</time>
      </trkpt>
      <trkpt lat="47.20792" lon="5.9412">
        <ele>267.4</ele>
        <time>2024-08-05T06:51:15Z</time>
      </trkpt>
      <trkpt lat="47.20794" lon="5.94119">
        <ele>267.2</ele>
        <time>2024-08-05T06:51:16Z</time>
      </trkpt>
      <trkpt lat="47.20796" lon="5.94117">
        <ele>267</ele>
        <time>2024-08-05T06:51:17Z</time>
      </trkpt>
      <trkpt lat="47.20798" lon="5.94115">
        <ele>267</ele>
        <time>2024-08-05T06:51:18Z</time>
      </trkpt>
      <trkpt lat="47.208" lon="5.94112">
        <ele>266.8</ele>
        <time>2024-08-05T06:51:19Z</time>
      </trkpt>
      <trkpt lat="47.20804" lon="5.94108">
        <ele>266.6</ele>
        <time>2024-08-05T06:51:20Z</time>
      </trkpt>
      <trkpt lat="47.20807" lon="5.94105">
        <ele>266.8</ele>
        <time>2024-08-05T06:51:21Z</time>
      </trkpt>
      <trkpt lat="47.2081" lon="5.94103">
        <ele>266.8</ele>
        <time>2024-08-05T06:51:22Z</time>
      </trkpt>
      <trkpt lat="47.20812" lon="5.941">
        <ele>266.8</ele>
        <time>2024-08-05T06:51:23Z</time>
      </trkpt>
      <trkpt lat="47.20814" lon="5.94097">
        <ele>266.6</ele>
        <time>2024-08-05T06:51:24Z</time>
      </trkpt>
      <trkpt lat="47.20817" lon="5.94094">
        <ele>266.8</ele>
        <time>2024-08-05T06:51:25Z</time>
      </trkpt>
      <trkpt lat="47.20819" lon="5.9409">
        <ele>266.8</ele>
        <time>2024-08-05T06:51:26Z</time>
      </trkpt>
      <trkpt lat="47.20821" lon="5.94086">
        <ele>266.8</ele>
        <time>2024-08-05T06:51:27Z</time>
      </trkpt>
      <trkpt lat="47.20824" lon="5.94082">
        <ele>266.8</ele>
        <time>2024-08-05T06:51:28Z</time>
      </trkpt>
      <trkpt lat="47.20826" lon="5.94078">
        <ele>266.8</ele>
        <time>2024-08-05T06:51:29Z</time>
      </trkpt>
      <trkpt lat="47.20829" lon="5.94074">
        <ele>266.6</ele>
        <time>2024-08-05T06:51:30Z</time>
      </trkpt>
      <trkpt lat="47.20831" lon="5.94069">
        <ele>266.8</ele>
        <time>2024-08-05T06:51:31Z</time>
      </trkpt>
      <trkpt lat="47.20834" lon="5.94064">
        <ele>267</ele>
        <time>2024-08-05T06:51:32Z</time>
      </trkpt>
      <trkpt lat="47.20836" lon="5.94059">
        <ele>267.2</ele>
        <time>2024-08-05T06:51:33Z</time>
      </trkpt>
      <trkpt lat="47.20838" lon="5.94054">
        <ele>267.2</ele>
        <time>2024-08-05T06:51:34Z</time>
      </trkpt>
      <trkpt lat="47.2084" lon="5.94048">
        <ele>267.2</ele>
        <time>2024-08-05T06:51:35Z</time>
      </trkpt>
      <trkpt lat="47.20842" lon="5.94043">
        <ele>267.2</ele>
        <time>2024-08-05T06:51:36Z</time>
      </trkpt>
      <trkpt lat="47.20844" lon="5.94038">
        <ele>267.2</ele>
        <time>2024-08-05T06:51:37Z</time>
      </trkpt>
      <trkpt lat="47.20845" lon="5.94034">
        <ele>267.4</ele>
        <time>2024-08-05T06:51:38Z</time>
      </trkpt>
      <trkpt lat="47.20846" lon="5.94029">
        <ele>267.4</ele>
        <time>2024-08-05T06:51:39Z</time>
      </trkpt>
      <trkpt lat="47.20847" lon="5.94024">
        <ele>267.6</ele>
        <time>2024-08-05T06:51:40Z</time>
      </trkpt>
      <trkpt lat="47.20848" lon="5.9402">
        <ele>267.4</ele>
        <time>2024-08-05T06:51:41Z</time>
      </trkpt>
      <trkpt lat="47.2085" lon="5.94016">
        <ele>267.6</ele>
        <time>2024-08-05T06:51:42Z</time>
      </trkpt>
      <trkpt lat="47.20851" lon="5.94011">
        <ele>267.6</ele>
        <time>2024-08-05T06:51:43Z</time>
      </trkpt>
      <trkpt lat="47.20853" lon="5.94007">
        <ele>267.8</ele>
        <time>2024-08-05T06:51:44Z</time>
      </trkpt>
      <trkpt lat="47.20853" lon="5.94003">
        <ele>268</ele>
        <time>2024-08-05T06:51:45Z</time>
      </trkpt>
      <trkpt lat="47.20853" lon="5.94">
        <ele>267.8</ele>
        <time>2024-08-05T06:51:46Z</time>
      </trkpt>
      <trkpt lat="47.20854" lon="5.93996">
        <ele>267.8</ele>
        <time>2024-08-05T06:51:47Z</time>
      </trkpt>
      <trkpt lat="47.20854" lon="5.93993">
        <ele>268</ele>
        <time>2024-08-05T06:51:48Z</time>
      </trkpt>
      <trkpt lat="47.20855" lon="5.93989">
        <ele>268</ele>
        <time>2024-08-05T06:51:49Z</time>
      </trkpt>
      <trkpt lat="47.20857" lon="5.93985">
        <ele>268.4</ele>
        <time>2024-08-05T06:51:50Z</time>
      </trkpt>
      <trkpt lat="47.20857" lon="5.93982">
        <ele>268.6</ele>
        <time>2024-08-05T06:51:51Z</time>
      </trkpt>
      <trkpt lat="47.20859" lon="5.93978">
        <ele>268.6</ele>
        <time>2024-08-05T06:51:52Z</time>
      </trkpt>
      <trkpt lat="47.20861" lon="5.93973">
        <ele>268.8</ele>
        <time>2024-08-05T06:51:53Z</time>
      </trkpt>
      <trkpt lat="47.20863" lon="5.93969">
        <ele>269</ele>
        <time>2024-08-05T06:51:54Z</time>
      </trkpt>
      <trkpt lat="47.20865" lon="5.93965">
        <ele>269</ele>
        <time>2024-08-05T06:51:55Z</time>
      </trkpt>
      <trkpt lat="47.20867" lon="5.93961">
        <ele>269</ele>
        <time>2024-08-05T06:51:56Z</time>
      </trkpt>
      <trkpt lat="47.20868" lon="5.93956">
        <ele>269.2</ele>
        <time>2024-08-05T06:51:57Z</time>
      </trkpt>
      <trkpt lat="47.2087" lon="5.93951">
        <ele>269.2</ele>
        <time>2024-08-05T06:51:58Z</time>
      </trkpt>
      <trkpt lat="47.20871" lon="5.93946">
        <ele>269.2</ele>
        <time>2024-08-05T06:51:59Z</time>
      </trkpt>
      <trkpt lat="47.20872" lon="5.93941">
        <ele>269.4</ele>
        <time>2024-08-05T06:52:00Z</time>
      </trkpt>
      <trkpt lat="47.20873" lon="5.93936">
        <ele>269.4</ele>
        <time>2024-08-05T06:52:01Z</time>
      </trkpt>
      <trkpt lat="47.20874" lon="5.9393">
        <ele>269.2</ele>
        <time>2024-08-05T06:52:02Z</time>
      </trkpt>
      <trkpt lat="47.20874" lon="5.93924">
        <ele>269.4</ele>
        <time>2024-08-05T06:52:03Z</time>
      </trkpt>
      <trkpt lat="47.20875" lon="5.93918">
        <ele>269.4</ele>
        <time>2024-08-05T06:52:04Z</time>
      </trkpt>
      <trkpt lat="47.20877" lon="5.93912">
        <ele>269.4</ele>
        <time>2024-08-05T06:52:05Z</time>
      </trkpt>
      <trkpt lat="47.20879" lon="5.93905">
        <ele>269.4</ele>
        <time>2024-08-05T06:52:06Z</time>
      </trkpt>
      <trkpt lat="47.2088" lon="5.93899">
        <ele>269.4</ele>
        <time>2024-08-05T06:52:07Z</time>
      </trkpt>
      <trkpt lat="47.20882" lon="5.93893">
        <ele>269.2</ele>
        <time>2024-08-05T06:52:08Z</time>
      </trkpt>
      <trkpt lat="47.20884" lon="5.93887">
        <ele>269.4</ele>
        <time>2024-08-05T06:52:09Z</time>
      </trkpt>
      <trkpt lat="47.20886" lon="5.93881">
        <ele>269.2</ele>
        <time>2024-08-05T06:52:10Z</time>
      </trkpt>
      <trkpt lat="47.20888" lon="5.93876">
        <ele>269.2</ele>
        <time>2024-08-05T06:52:11Z</time>
      </trkpt>
      <trkpt lat="47.20891" lon="5.9387">
        <ele>269</ele>
        <time>2024-08-05T06:52:12Z</time>
      </trkpt>
      <trkpt lat="47.20893" lon="5.93865">
        <ele>268.8</ele>
        <time>2024-08-05T06:52:13Z</time>
      </trkpt>
      <trkpt lat="47.20896" lon="5.93859">
        <ele>268.6</ele>
        <time>2024-08-05T06:52:14Z</time>
      </trkpt>
      <trkpt lat="47.20898" lon="5.93855">
        <ele>268.8</ele>
        <time>2024-08-05T06:52:15Z</time>
      </trkpt>
      <trkpt lat="47.20901" lon="5.9385">
        <ele>268.6</ele>
        <time>2024-08-05T06:52:16Z</time>
      </trkpt>
      <trkpt lat="47.20903" lon="5.93845">
        <ele>268.6</ele>
        <time>2024-08-05T06:52:17Z</time>
      </trkpt>
      <trkpt lat="47.20905" lon="5.9384">
        <ele>268.6</ele>
        <time>2024-08-05T06:52:18Z</time>
      </trkpt>
      <trkpt lat="47.20907" lon="5.93835">
        <ele>268.8</ele>
        <time>2024-08-05T06:52:19Z</time>
      </trkpt>
      <trkpt lat="47.20909" lon="5.93831">
        <ele>268.8</ele>
        <time>2024-08-05T06:52:20Z</time>
      </trkpt>
      <trkpt lat="47.20911" lon="5.93827">
        <ele>268.6</ele>
        <time>2024-08-05T06:52:21Z</time>
      </trkpt>
      <trkpt lat="47.20912" lon="5.93823">
        <ele>268.8</ele>
        <time>2024-08-05T06:52:22Z</time>
      </trkpt>
      <trkpt lat="47.20912" lon="5.93819">
        <ele>268.6</ele>
        <time>2024-08-05T06:52:23Z</time>
      </trkpt>
      <trkpt lat="47.20913" lon="5.93815">
        <ele>268.8</ele>
        <time>2024-08-05T06:52:24Z</time>
      </trkpt>
      <trkpt lat="47.20914" lon="5.93811">
        <ele>268.8</ele>
        <time>2024-08-05T06:52:25Z</time>
      </trkpt>
      <trkpt lat="47.20915" lon="5.93806">
        <ele>269</ele>
        <time>2024-08-05T06:52:26Z</time>
      </trkpt>
      <trkpt lat="47.20916" lon="5.93802">
        <ele>268.8</ele>
        <time>2024-08-05T06:52:27Z</time>
      </trkpt>
      <trkpt lat="47.20917" lon="5.93798">
        <ele>269.2</ele>
        <time>2024-08-05T06:52:28Z</time>
      </trkpt>
      <trkpt lat="47.20918" lon="5.93794">
        <ele>269.6</ele>
        <time>2024-08-05T06:52:29Z</time>
      </trkpt>
      <trkpt lat="47.20918" lon="5.9379">
        <ele>269.8</ele>
        <time>2024-08-05T06:52:30Z</time>
      </trkpt>
      <trkpt lat="47.20919" lon="5.93785">
        <ele>270</ele>
        <time>2024-08-05T06:52:31Z</time>
      </trkpt>
      <trkpt lat="47.20921" lon="5.93781">
        <ele>270.2</ele>
        <time>2024-08-05T06:52:32Z</time>
      </trkpt>
      <trkpt lat="47.20923" lon="5.93776">
        <ele>270.4</ele>
        <time>2024-08-05T06:52:33Z</time>
      </trkpt>
      <trkpt lat="47.20924" lon="5.93772">
        <ele>270.4</ele>
        <time>2024-08-05T06:52:34Z</time>
      </trkpt>
      <trkpt lat="47.20926" lon="5.93766">
        <ele>270.6</ele>
        <time>2024-08-05T06:52:35Z</time>
      </trkpt>
      <trkpt lat="47.20928" lon="5.93761">
        <ele>270.8</ele>
        <time>2024-08-05T06:52:36Z</time>
      </trkpt>
      <trkpt lat="47.20929" lon="5.93756">
        <ele>270.8</ele>
        <time>2024-08-05T06:52:37Z</time>
      </trkpt>
      <trkpt lat="47.20932" lon="5.9375">
        <ele>271</ele>
        <time>2024-08-05T06:52:38Z</time>
      </trkpt>
      <trkpt lat="47.20935" lon="5.93745">
        <ele>271</ele>
        <time>2024-08-05T06:52:39Z</time>
      </trkpt>
      <trkpt lat="47.20937" lon="5.9374">
        <ele>271.2</ele>
        <time>2024-08-05T06:52:40Z</time>
      </trkpt>
      <trkpt lat="47.2094" lon="5.93736">
        <ele>271.2</ele>
        <time>2024-08-05T06:52:41Z</time>
      </trkpt>
      <trkpt lat="47.20943" lon="5.9373">
        <ele>271</ele>
        <time>2024-08-05T06:52:42Z</time>
      </trkpt>
      <trkpt lat="47.20946" lon="5.93725">
        <ele>271</ele>
        <time>2024-08-05T06:52:43Z</time>
      </trkpt>
      <trkpt lat="47.20949" lon="5.9372">
        <ele>271</ele>
        <time>2024-08-05T06:52:44Z</time>
      </trkpt>
      <trkpt lat="47.20951" lon="5.93715">
        <ele>271</ele>
        <time>2024-08-05T06:52:45Z</time>
      </trkpt>
      <trkpt lat="47.20954" lon="5.9371">
        <ele>271</ele>
        <time>2024-08-05T06:52:46Z</time>
      </trkpt>
      <trkpt lat="47.20956" lon="5.93704">
        <ele>271</ele>
        <time>2024-08-05T06:52:47Z</time>
      </trkpt>
      <trkpt lat="47.20959" lon="5.93699">
        <ele>270.8</ele>
        <time>2024-08-05T06:52:48Z</time>
      </trkpt>
      <trkpt lat="47.20961" lon="5.93694">
        <ele>271</ele>
        <time>2024-08-05T06:52:49Z</time>
      </trkpt>
      <trkpt lat="47.20963" lon="5.93689">
        <ele>271</ele>
        <time>2024-08-05T06:52:50Z</time>
      </trkpt>
      <trkpt lat="47.20964" lon="5.93684">
        <ele>271</ele>
        <time>2024-08-05T06:52:51Z</time>
      </trkpt>
      <trkpt lat="47.20965" lon="5.9368">
        <ele>271</ele>
        <time>2024-08-05T06:52:52Z</time>
      </trkpt>
      <trkpt lat="47.20966" lon="5.93674">
        <ele>270.8</ele>
        <time>2024-08-05T06:52:53Z</time>
      </trkpt>
      <trkpt lat="47.20967" lon="5.93669">
        <ele>270.8</ele>
        <time>2024-08-05T06:52:54Z</time>
      </trkpt>
      <trkpt lat="47.20968" lon="5.93663">
        <ele>270.8</ele>
        <time>2024-08-05T06:52:55Z</time>
      </trkpt>
      <trkpt lat="47.20969" lon="5.93657">
        <ele>270.6</ele>
        <time>2024-08-05T06:52:56Z</time>
      </trkpt>
      <trkpt lat="47.20969" lon="5.93652">
        <ele>270.8</ele>
        <time>2024-08-05T06:52:57Z</time>
      </trkpt>
      <trkpt lat="47.20969" lon="5.93648">
        <ele>270.6</ele>
        <time>2024-08-05T06:52:58Z</time>
      </trkpt>
      <trkpt lat="47.20969" lon="5.93644">
        <ele>270.6</ele>
        <time>2024-08-05T06:52:59Z</time>
      </trkpt>
      <trkpt lat="47.20968" lon="5.9364">
        <ele>270.8</ele>
        <time>2024-08-05T06:53:00Z</time>
      </trkpt>
      <trkpt lat="47.20966" lon="5.93637">
        <ele>270.6</ele>
        <time>2024-08-05T06:53:01Z</time>
      </trkpt>
      <trkpt lat="47.20964" lon="5.93634">
        <ele>270.8</ele>
        <time>2024-08-05T06:53:02Z</time>
      </trkpt>
      <trkpt lat="47.20963" lon="5.9363">
        <ele>270.8</ele>
        <time>2024-08-05T06:53:03Z</time>
      </trkpt>
      <trkpt lat="47.20962" lon="5.93624">
        <ele>271</ele>
        <time>2024-08-05T06:53:04Z</time>
      </trkpt>
      <trkpt lat="47.20961" lon="5.93618">
        <ele>270.8</ele>
        <time>2024-08-05T06:53:05Z</time>
      </trkpt>
      <trkpt lat="47.2096" lon="5.93613">
        <ele>271</ele>
        <time>2024-08-05T06:53:06Z</time>
      </trkpt>
      <trkpt lat="47.20959" lon="5.93608">
        <ele>271.2</ele>
        <time>2024-08-05T06:53:07Z</time>
      </trkpt>
      <trkpt lat="47.20958" lon="5.93603">
        <ele>271.2</ele>
        <time>2024-08-05T06:53:08Z</time>
      </trkpt>
      <trkpt lat="47.20957" lon="5.93598">
        <ele>271.4</ele>
        <time>2024-08-05T06:53:09Z</time>
      </trkpt>
      <trkpt lat="47.20956" lon="5.93593">
        <ele>271.4</ele>
        <time>2024-08-05T06:53:10Z</time>
      </trkpt>
      <trkpt lat="47.20956" lon="5.93589">
        <ele>271.6</ele>
        <time>2024-08-05T06:53:11Z</time>
      </trkpt>
      <trkpt lat="47.20955" lon="5.93585">
        <ele>271.6</ele>
        <time>2024-08-05T06:53:12Z</time>
      </trkpt>
      <trkpt lat="47.20953" lon="5.9358">
        <ele>271.8</ele>
        <time>2024-08-05T06:53:13Z</time>
      </trkpt>
      <trkpt lat="47.20953" lon="5.93575">
        <ele>271.8</ele>
        <time>2024-08-05T06:53:14Z</time>
      </trkpt>
      <trkpt lat="47.20952" lon="5.93569">
        <ele>272</ele>
        <time>2024-08-05T06:53:15Z</time>
      </trkpt>
      <trkpt lat="47.20952" lon="5.93564">
        <ele>272</ele>
        <time>2024-08-05T06:53:16Z</time>
      </trkpt>
      <trkpt lat="47.20951" lon="5.93559">
        <ele>272.4</ele>
        <time>2024-08-05T06:53:17Z</time>
      </trkpt>
      <trkpt lat="47.20951" lon="5.93554">
        <ele>272.4</ele>
        <time>2024-08-05T06:53:18Z</time>
      </trkpt>
      <trkpt lat="47.2095" lon="5.93549">
        <ele>272.8</ele>
        <time>2024-08-05T06:53:19Z</time>
      </trkpt>
      <trkpt lat="47.2095" lon="5.93545">
        <ele>273</ele>
        <time>2024-08-05T06:53:20Z</time>
      </trkpt>
      <trkpt lat="47.20949" lon="5.9354">
        <ele>273</ele>
        <time>2024-08-05T06:53:21Z</time>
      </trkpt>
      <trkpt lat="47.20948" lon="5.93535">
        <ele>273.4</ele>
        <time>2024-08-05T06:53:22Z</time>
      </trkpt>
      <trkpt lat="47.20947" lon="5.9353">
        <ele>273.6</ele>
        <time>2024-08-05T06:53:23Z</time>
      </trkpt>
      <trkpt lat="47.20946" lon="5.93524">
        <ele>273.6</ele>
        <time>2024-08-05T06:53:24Z</time>
      </trkpt>
      <trkpt lat="47.20944" lon="5.9352">
        <ele>273.8</ele>
        <time>2024-08-05T06:53:25Z</time>
      </trkpt>
      <trkpt lat="47.20944" lon="5.93515">
        <ele>274.2</ele>
        <time>2024-08-05T06:53:26Z</time>
      </trkpt>
      <trkpt lat="47.20943" lon="5.93511">
        <ele>274.4</ele>
        <time>2024-08-05T06:53:27Z</time>
      </trkpt>
      <trkpt lat="47.20942" lon="5.93507">
        <ele>274.6</ele>
        <time>2024-08-05T06:53:28Z</time>
      </trkpt>
      <trkpt lat="47.20941" lon="5.93504">
        <ele>274.6</ele>
        <time>2024-08-05T06:53:29Z</time>
      </trkpt>
      <trkpt lat="47.20941" lon="5.93502">
        <ele>274.6</ele>
        <time>2024-08-05T06:53:30Z</time>
      </trkpt>
      <trkpt lat="47.2094" lon="5.93499">
        <ele>274.8</ele>
        <time>2024-08-05T06:53:31Z</time>
      </trkpt>
      <trkpt lat="47.20939" lon="5.93496">
        <ele>275</ele>
        <time>2024-08-05T06:53:32Z</time>
      </trkpt>
      <trkpt lat="47.20939" lon="5.93493">
        <ele>275</ele>
        <time>2024-08-05T06:53:33Z</time>
      </trkpt>
      <trkpt lat="47.20939" lon="5.93489">
        <ele>275</ele>
        <time>2024-08-05T06:53:34Z</time>
      </trkpt>
      <trkpt lat="47.2094" lon="5.93486">
        <ele>275</ele>
        <time>2024-08-05T06:53:35Z</time>
      </trkpt>
      <trkpt lat="47.20941" lon="5.93484">
        <ele>275</ele>
        <time>2024-08-05T06:53:36Z</time>
      </trkpt>
      <trkpt lat="47.20943" lon="5.93482">
        <ele>275.4</ele>
        <time>2024-08-05T06:53:37Z</time>
      </trkpt>
      <trkpt lat="47.20944" lon="5.9348">
        <ele>275.6</ele>
        <time>2024-08-05T06:53:38Z</time>
      </trkpt>
      <trkpt lat="47.20946" lon="5.93477">
        <ele>275.6</ele>
        <time>2024-08-05T06:53:39Z</time>
      </trkpt>
      <trkpt lat="47.20947" lon="5.93474">
        <ele>275.6</ele>
        <time>2024-08-05T06:53:40Z</time>
      </trkpt>
      <trkpt lat="47.20948" lon="5.93471">
        <ele>275.8</ele>
        <time>2024-08-05T06:53:41Z</time>
      </trkpt>
      <trkpt lat="47.20949" lon="5.93467">
        <ele>276</ele>
        <time>2024-08-05T06:53:42Z</time>
      </trkpt>
      <trkpt lat="47.2095" lon="5.93464">
        <ele>276</ele>
        <time>2024-08-05T06:53:43Z</time>
      </trkpt>
      <trkpt lat="47.2095" lon="5.93461">
        <ele>276</ele>
        <time>2024-08-05T06:53:44Z</time>
      </trkpt>
      <trkpt lat="47.20951" lon="5.93459">
        <ele>276.4</ele>
        <time>2024-08-05T06:53:45Z</time>
      </trkpt>
      <trkpt lat="47.20951" lon="5.93456">
        <ele>276.4</ele>
        <time>2024-08-05T06:53:46Z</time>
      </trkpt>
      <trkpt lat="47.20952" lon="5.93453">
        <ele>276.4</ele>
        <time>2024-08-05T06:53:47Z</time>
      </trkpt>
      <trkpt lat="47.20953" lon="5.93451">
        <ele>276.4</ele>
        <time>2024-08-05T06:53:48Z</time>
      </trkpt>
      <trkpt lat="47.20953" lon="5.93449">
        <ele>276.8</ele>
        <time>2024-08-05T06:53:49Z</time>
      </trkpt>
      <trkpt lat="47.20954" lon="5.93448">
        <ele>277</ele>
        <time>2024-08-05T06:53:50Z</time>
      </trkpt>
      <trkpt lat="47.20953" lon="5.93448">
        <ele>277.2</ele>
        <time>2024-08-05T06:53:51Z</time>
      </trkpt>
      <trkpt lat="47.20954" lon="5.93446">
        <ele>277.2</ele>
        <time>2024-08-05T06:53:52Z</time>
      </trkpt>
      <trkpt lat="47.20953" lon="5.93445">
        <ele>277.2</ele>
        <time>2024-08-05T06:53:53Z</time>
      </trkpt>
      <trkpt lat="47.20953" lon="5.93443">
        <ele>277.4</ele>
        <time>2024-08-05T06:53:54Z</time>
      </trkpt>
      <trkpt lat="47.20953" lon="5.93442">
        <ele>277.4</ele>
        <time>2024-08-05T06:53:55Z</time>
      </trkpt>
      <trkpt lat="47.20954" lon="5.93441">
        <ele>277.4</ele>
        <time>2024-08-05T06:53:56Z</time>
      </trkpt>
      <trkpt lat="47.20954" lon="5.9344">
        <ele>277.6</ele>
        <time>2024-08-05T06:53:57Z</time>
      </trkpt>
      <trkpt lat="47.20954" lon="5.93439">
        <ele>277.6</ele>
        <time>2024-08-05T06:53:58Z</time>
      </trkpt>
      <trkpt lat="47.20955" lon="5.93439">
        <ele>277.6</ele>
        <time>2024-08-05T06:53:59Z</time>
      </trkpt>
      <trkpt lat="47.20955" lon="5.93438">
        <ele>277.6</ele>
        <time>2024-08-05T06:54:00Z</time>
      </trkpt>
      <trkpt lat="47.20956" lon="5.93438">
        <ele>277.8</ele>
        <time>2024-08-05T06:54:01Z</time>
      </trkpt>
      <trkpt lat="47.20956" lon="5.93437">
        <ele>277.6</ele>
        <time>2024-08-05T06:54:02Z</time>
      </trkpt>
      <trkpt lat="47.20957" lon="5.93436">
        <ele>277.8</ele>
        <time>2024-08-05T06:54:03Z</time>
      </trkpt>
      <trkpt lat="47.20958" lon="5.93434">
        <ele>277.6</ele>
        <time>2024-08-05T06:54:04Z</time>
      </trkpt>
      <trkpt lat="47.20958" lon="5.93432">
        <ele>277.8</ele>
        <time>2024-08-05T06:54:05Z</time>
      </trkpt>
      <trkpt lat="47.20959" lon="5.93431">
        <ele>277.8</ele>
        <time>2024-08-05T06:54:06Z</time>
      </trkpt>
      <trkpt lat="47.2096" lon="5.93428">
        <ele>277.8</ele>
        <time>2024-08-05T06:54:07Z</time>
      </trkpt>
      <trkpt lat="47.2096" lon="5.93425">
        <ele>277.8</ele>
        <time>2024-08-05T06:54:08Z</time>
      </trkpt>
      <trkpt lat="47.2096" lon="5.93422">
        <ele>277.8</ele>
        <time>2024-08-05T06:54:09Z</time>
      </trkpt>
      <trkpt lat="47.20961" lon="5.93417">
        <ele>277.8</ele>
        <time>2024-08-05T06:54:10Z</time>
      </trkpt>
      <trkpt lat="47.20961" lon="5.93414">
        <ele>277.8</ele>
        <time>2024-08-05T06:54:11Z</time>
      </trkpt>
      <trkpt lat="47.20962" lon="5.9341">
        <ele>277.8</ele>
        <time>2024-08-05T06:54:12Z</time>
      </trkpt>
      <trkpt lat="47.20963" lon="5.93406">
        <ele>278</ele>
        <time>2024-08-05T06:54:13Z</time>
      </trkpt>
      <trkpt lat="47.20964" lon="5.93404">
        <ele>278.2</ele>
        <time>2024-08-05T06:54:14Z</time>
      </trkpt>
      <trkpt lat="47.20965" lon="5.934">
        <ele>278.2</ele>
        <time>2024-08-05T06:54:15Z</time>
      </trkpt>
      <trkpt lat="47.20967" lon="5.93397">
        <ele>278.2</ele>
        <time>2024-08-05T06:54:16Z</time>
      </trkpt>
      <trkpt lat="47.20971" lon="5.93394">
        <ele>278.2</ele>
        <time>2024-08-05T06:54:17Z</time>
      </trkpt>
      <trkpt lat="47.20973" lon="5.93391">
        <ele>278.4</ele>
        <time>2024-08-05T06:54:18Z</time>
      </trkpt>
      <trkpt lat="47.20975" lon="5.93387">
        <ele>278.6</ele>
        <time>2024-08-05T06:54:19Z</time>
      </trkpt>
      <trkpt lat="47.20977" lon="5.93384">
        <ele>278.6</ele>
        <time>2024-08-05T06:54:20Z</time>
      </trkpt>
      <trkpt lat="47.20978" lon="5.93382">
        <ele>278.6</ele>
        <time>2024-08-05T06:54:21Z</time>
      </trkpt>
      <trkpt lat="47.2098" lon="5.93379">
        <ele>278.6</ele>
        <time>2024-08-05T06:54:22Z</time>
      </trkpt>
      <trkpt lat="47.2098" lon="5.93376">
        <ele>278.8</ele>
        <time>2024-08-05T06:54:23Z</time>
      </trkpt>
      <trkpt lat="47.2098" lon="5.93372">
        <ele>278.8</ele>
        <time>2024-08-05T06:54:24Z</time>
      </trkpt>
      <trkpt lat="47.2098" lon="5.93369">
        <ele>279</ele>
        <time>2024-08-05T06:54:25Z</time>
      </trkpt>
      <trkpt lat="47.20979" lon="5.93365">
        <ele>279.4</ele>
        <time>2024-08-05T06:54:26Z</time>
      </trkpt>
      <trkpt lat="47.20977" lon="5.93361">
        <ele>279.6</ele>
        <time>2024-08-05T06:54:27Z</time>
      </trkpt>
      <trkpt lat="47.20977" lon="5.93358">
        <ele>279.6</ele>
        <time>2024-08-05T06:54:28Z</time>
      </trkpt>
      <trkpt lat="47.20977" lon="5.93354">
        <ele>279.6</ele>
        <time>2024-08-05T06:54:29Z</time>
      </trkpt>
      <trkpt lat="47.20977" lon="5.93351">
        <ele>280</ele>
        <time>2024-08-05T06:54:30Z</time>
      </trkpt>
      <trkpt lat="47.20976" lon="5.93347">
        <ele>280</ele>
        <time>2024-08-05T06:54:31Z</time>
      </trkpt>
      <trkpt lat="47.20977" lon="5.93343">
        <ele>280.2</ele>
        <time>2024-08-05T06:54:32Z</time>
      </trkpt>
      <trkpt lat="47.20977" lon="5.9334">
        <ele>280.2</ele>
        <time>2024-08-05T06:54:33Z</time>
      </trkpt>
      <trkpt lat="47.20977" lon="5.93336">
        <ele>280.4</ele>
        <time>2024-08-05T06:54:34Z</time>
      </trkpt>
      <trkpt lat="47.20977" lon="5.93333">
        <ele>280.6</ele>
        <time>2024-08-05T06:54:35Z</time>
      </trkpt>
      <trkpt lat="47.20977" lon="5.93329">
        <ele>280.6</ele>
        <time>2024-08-05T06:54:36Z</time>
      </trkpt>
      <trkpt lat="47.20977" lon="5.93324">
        <ele>280.8</ele>
        <time>2024-08-05T06:54:37Z</time>
      </trkpt>
      <trkpt lat="47.20977" lon="5.9332">
        <ele>280.8</ele>
        <time>2024-08-05T06:54:38Z</time>
      </trkpt>
      <trkpt lat="47.20977" lon="5.93316">
        <ele>281</ele>
        <time>2024-08-05T06:54:39Z</time>
      </trkpt>
      <trkpt lat="47.20977" lon="5.93312">
        <ele>281.2</ele>
        <time>2024-08-05T06:54:40Z</time>
      </trkpt>
      <trkpt lat="47.20977" lon="5.93308">
        <ele>281.4</ele>
        <time>2024-08-05T06:54:41Z</time>
      </trkpt>
      <trkpt lat="47.20977" lon="5.93303">
        <ele>281.6</ele>
        <time>2024-08-05T06:54:42Z</time>
      </trkpt>
      <trkpt lat="47.20978" lon="5.93299">
        <ele>281.8</ele>
        <time>2024-08-05T06:54:43Z</time>
      </trkpt>
      <trkpt lat="47.20979" lon="5.93294">
        <ele>282.2</ele>
        <time>2024-08-05T06:54:44Z</time>
      </trkpt>
      <trkpt lat="47.2098" lon="5.9329">
        <ele>282.2</ele>
        <time>2024-08-05T06:54:45Z</time>
      </trkpt>
      <trkpt lat="47.2098" lon="5.93285">
        <ele>282.4</ele>
        <time>2024-08-05T06:54:46Z</time>
      </trkpt>
      <trkpt lat="47.20982" lon="5.93281">
        <ele>282.6</ele>
        <time>2024-08-05T06:54:47Z</time>
      </trkpt>
      <trkpt lat="47.20982" lon="5.93278">
        <ele>282.8</ele>
        <time>2024-08-05T06:54:48Z</time>
      </trkpt>
      <trkpt lat="47.20982" lon="5.93275">
        <ele>282.6</ele>
        <time>2024-08-05T06:54:49Z</time>
      </trkpt>
      <trkpt lat="47.20983" lon="5.93272">
        <ele>282.8</ele>
        <time>2024-08-05T06:54:50Z</time>
      </trkpt>
      <trkpt lat="47.20983" lon="5.93271">
        <ele>282.8</ele>
        <time>2024-08-05T06:54:51Z</time>
      </trkpt>
      <trkpt lat="47.20983" lon="5.93269">
        <ele>283</ele>
        <time>2024-08-05T06:54:52Z</time>
      </trkpt>
      <trkpt lat="47.20984" lon="5.93266">
        <ele>283</ele>
        <time>2024-08-05T06:54:53Z</time>
      </trkpt>
      <trkpt lat="47.20985" lon="5.93264">
        <ele>283</ele>
        <time>2024-08-05T06:54:54Z</time>
      </trkpt>
      <trkpt lat="47.20986" lon="5.93262">
        <ele>283</ele>
        <time>2024-08-05T06:54:55Z</time>
      </trkpt>
      <trkpt lat="47.20988" lon="5.93259">
        <ele>283</ele>
        <time>2024-08-05T06:54:56Z</time>
      </trkpt>
      <trkpt lat="47.2099" lon="5.93255">
        <ele>283.2</ele>
        <time>2024-08-05T06:54:57Z</time>
      </trkpt>
      <trkpt lat="47.20991" lon="5.93251">
        <ele>283.2</ele>
        <time>2024-08-05T06:54:58Z</time>
      </trkpt>
      <trkpt lat="47.20991" lon="5.93246">
        <ele>283.2</ele>
        <time>2024-08-05T06:54:59Z</time>
      </trkpt>
      <trkpt lat="47.20991" lon="5.93241">
        <ele>283.2</ele>
        <time>2024-08-05T06:55:00Z</time>
      </trkpt>
      <trkpt lat="47.20991" lon="5.93236">
        <ele>283.2</ele>
        <time>2024-08-05T06:55:01Z</time>
      </trkpt>
      <trkpt lat="47.20991" lon="5.93231">
        <ele>283.2</ele>
        <time>2024-08-05T06:55:02Z</time>
      </trkpt>
      <trkpt lat="47.20991" lon="5.93225">
        <ele>283.2</ele>
        <time>2024-08-05T06:55:03Z</time>
      </trkpt>
      <trkpt lat="47.20991" lon="5.9322">
        <ele>283</ele>
        <time>2024-08-05T06:55:04Z</time>
      </trkpt>
      <trkpt lat="47.20992" lon="5.93215">
        <ele>283.2</ele>
        <time>2024-08-05T06:55:05Z</time>
      </trkpt>
      <trkpt lat="47.20993" lon="5.93211">
        <ele>283.2</ele>
        <time>2024-08-05T06:55:06Z</time>
      </trkpt>
      <trkpt lat="47.20994" lon="5.93207">
        <ele>283.2</ele>
        <time>2024-08-05T06:55:07Z</time>
      </trkpt>
      <trkpt lat="47.20995" lon="5.93203">
        <ele>283.2</ele>
        <time>2024-08-05T06:55:08Z</time>
      </trkpt>
      <trkpt lat="47.20996" lon="5.93198">
        <ele>283</ele>
        <time>2024-08-05T06:55:09Z</time>
      </trkpt>
      <trkpt lat="47.20996" lon="5.93194">
        <ele>283</ele>
        <time>2024-08-05T06:55:10Z</time>
      </trkpt>
      <trkpt lat="47.20996" lon="5.9319">
        <ele>282.6</ele>
        <time>2024-08-05T06:55:11Z</time>
      </trkpt>
      <trkpt lat="47.20997" lon="5.93187">
        <ele>282.6</ele>
        <time>2024-08-05T06:55:12Z</time>
      </trkpt>
      <trkpt lat="47.20997" lon="5.93183">
        <ele>282.2</ele>
        <time>2024-08-05T06:55:13Z</time>
      </trkpt>
      <trkpt lat="47.20997" lon="5.93179">
        <ele>282</ele>
        <time>2024-08-05T06:55:14Z</time>
      </trkpt>
      <trkpt lat="47.20997" lon="5.93176">
        <ele>282</ele>
        <time>2024-08-05T06:55:15Z</time>
      </trkpt>
      <trkpt lat="47.20997" lon="5.93173">
        <ele>282</ele>
        <time>2024-08-05T06:55:16Z</time>
      </trkpt>
      <trkpt lat="47.20998" lon="5.9317">
        <ele>281.8</ele>
        <time>2024-08-05T06:55:17Z</time>
      </trkpt>
      <trkpt lat="47.20998" lon="5.93166">
        <ele>281.8</ele>
        <time>2024-08-05T06:55:18Z</time>
      </trkpt>
      <trkpt lat="47.20998" lon="5.93162">
        <ele>281.6</ele>
        <time>2024-08-05T06:55:19Z</time>
      </trkpt>
      <trkpt lat="47.20998" lon="5.93159">
        <ele>281.4</ele>
        <time>2024-08-05T06:55:20Z</time>
      </trkpt>
      <trkpt lat="47.20999" lon="5.93155">
        <ele>281.2</ele>
        <time>2024-08-05T06:55:21Z</time>
      </trkpt>
      <trkpt lat="47.20999" lon="5.93151">
        <ele>281</ele>
        <time>2024-08-05T06:55:22Z</time>
      </trkpt>
      <trkpt lat="47.20999" lon="5.93148">
        <ele>280.8</ele>
        <time>2024-08-05T06:55:23Z</time>
      </trkpt>
      <trkpt lat="47.20999" lon="5.93144">
        <ele>280.6</ele>
        <time>2024-08-05T06:55:24Z</time>
      </trkpt>
      <trkpt lat="47.20999" lon="5.93141">
        <ele>280.4</ele>
        <time>2024-08-05T06:55:25Z</time>
      </trkpt>
      <trkpt lat="47.21" lon="5.93138">
        <ele>280.2</ele>
        <time>2024-08-05T06:55:26Z</time>
      </trkpt>
      <trkpt lat="47.21" lon="5.93135">
        <ele>280</ele>
        <time>2024-08-05T06:55:27Z</time>
      </trkpt>
      <trkpt lat="47.21" lon="5.93131">
        <ele>280</ele>
        <time>2024-08-05T06:55:28Z</time>
      </trkpt>
      <trkpt lat="47.21" lon="5.93127">
        <ele>279.8</ele>
        <time>2024-08-05T06:55:29Z</time>
      </trkpt>
      <trkpt lat="47.21" lon="5.93123">
        <ele>279.6</ele>
        <time>2024-08-05T06:55:30Z</time>
      </trkpt>
      <trkpt lat="47.21" lon="5.93118">
        <ele>279.6</ele>
        <time>2024-08-05T06:55:31Z</time>
      </trkpt>
      <trkpt lat="47.21" lon="5.93113">
        <ele>279.4</ele>
        <time>2024-08-05T06:55:32Z</time>
      </trkpt>
      <trkpt lat="47.21" lon="5.93107">
        <ele>279.4</ele>
        <time>2024-08-05T06:55:33Z</time>
      </trkpt>
      <trkpt lat="47.21" lon="5.93102">
        <ele>279.4</ele>
        <time>2024-08-05T06:55:34Z</time>
      </trkpt>
      <trkpt lat="47.21" lon="5.93096">
        <ele>279.2</ele>
        <time>2024-08-05T06:55:35Z</time>
      </trkpt>
      <trkpt lat="47.21" lon="5.9309">
        <ele>279.2</ele>
        <time>2024-08-05T06:55:36Z</time>
      </trkpt>
      <trkpt lat="47.21" lon="5.93084">
        <ele>279.2</ele>
        <time>2024-08-05T06:55:37Z</time>
      </trkpt>
      <trkpt lat="47.21" lon="5.93078">
        <ele>279</ele>
        <time>2024-08-05T06:55:38Z</time>
      </trkpt>
      <trkpt lat="47.21" lon="5.93071">
        <ele>279</ele>
        <time>2024-08-05T06:55:39Z</time>
      </trkpt>
      <trkpt lat="47.20999" lon="5.93065">
        <ele>279</ele>
        <time>2024-08-05T06:55:40Z</time>
      </trkpt>
      <trkpt lat="47.20999" lon="5.93059">
        <ele>278.8</ele>
        <time>2024-08-05T06:55:41Z</time>
      </trkpt>
      <trkpt lat="47.21" lon="5.93053">
        <ele>278.6</ele>
        <time>2024-08-05T06:55:42Z</time>
      </trkpt>
      <trkpt lat="47.21" lon="5.93048">
        <ele>278.6</ele>
        <time>2024-08-05T06:55:43Z</time>
      </trkpt>
      <trkpt lat="47.21" lon="5.93042">
        <ele>278.6</ele>
        <time>2024-08-05T06:55:44Z</time>
      </trkpt>
      <trkpt lat="47.21" lon="5.93037">
        <ele>278.4</ele>
        <time>2024-08-05T06:55:45Z</time>
      </trkpt>
      <trkpt lat="47.21" lon="5.93032">
        <ele>278.4</ele>
        <time>2024-08-05T06:55:46Z</time>
      </trkpt>
      <trkpt lat="47.20999" lon="5.93027">
        <ele>278.2</ele>
        <time>2024-08-05T06:55:47Z</time>
      </trkpt>
      <trkpt lat="47.20999" lon="5.93023">
        <ele>278.2</ele>
        <time>2024-08-05T06:55:48Z</time>
      </trkpt>
      <trkpt lat="47.20998" lon="5.93018">
        <ele>278.2</ele>
        <time>2024-08-05T06:55:49Z</time>
      </trkpt>
      <trkpt lat="47.20998" lon="5.93013">
        <ele>278</ele>
        <time>2024-08-05T06:55:50Z</time>
      </trkpt>
      <trkpt lat="47.20996" lon="5.93009">
        <ele>278</ele>
        <time>2024-08-05T06:55:51Z</time>
      </trkpt>
      <trkpt lat="47.20995" lon="5.93003">
        <ele>278</ele>
        <time>2024-08-05T06:55:52Z</time>
      </trkpt>
      <trkpt lat="47.20993" lon="5.92999">
        <ele>278</ele>
        <time>2024-08-05T06:55:53Z</time>
      </trkpt>
      <trkpt lat="47.20991" lon="5.92994">
        <ele>278</ele>
        <time>2024-08-05T06:55:54Z</time>
      </trkpt>
      <trkpt lat="47.2099" lon="5.92989">
        <ele>277.8</ele>
        <time>2024-08-05T06:55:55Z</time>
      </trkpt>
      <trkpt lat="47.20988" lon="5.92984">
        <ele>277.8</ele>
        <time>2024-08-05T06:55:56Z</time>
      </trkpt>
      <trkpt lat="47.20987" lon="5.92979">
        <ele>278</ele>
        <time>2024-08-05T06:55:57Z</time>
      </trkpt>
      <trkpt lat="47.20985" lon="5.92975">
        <ele>277.6</ele>
        <time>2024-08-05T06:55:58Z</time>
      </trkpt>
      <trkpt lat="47.20984" lon="5.9297">
        <ele>277.6</ele>
        <time>2024-08-05T06:55:59Z</time>
      </trkpt>
      <trkpt lat="47.20983" lon="5.92966">
        <ele>277.6</ele>
        <time>2024-08-05T06:56:00Z</time>
      </trkpt>
      <trkpt lat="47.20982" lon="5.92961">
        <ele>277.4</ele>
        <time>2024-08-05T06:56:01Z</time>
      </trkpt>
      <trkpt lat="47.20982" lon="5.92955">
        <ele>277</ele>
        <time>2024-08-05T06:56:02Z</time>
      </trkpt>
      <trkpt lat="47.20983" lon="5.9295">
        <ele>276.6</ele>
        <time>2024-08-05T06:56:03Z</time>
      </trkpt>
      <trkpt lat="47.20983" lon="5.92944">
        <ele>276.6</ele>
        <time>2024-08-05T06:56:04Z</time>
      </trkpt>
      <trkpt lat="47.20983" lon="5.92939">
        <ele>276.4</ele>
        <time>2024-08-05T06:56:05Z</time>
      </trkpt>
      <trkpt lat="47.20983" lon="5.92934">
        <ele>276.2</ele>
        <time>2024-08-05T06:56:06Z</time>
      </trkpt>
      <trkpt lat="47.20982" lon="5.9293">
        <ele>276.2</ele>
        <time>2024-08-05T06:56:07Z</time>
      </trkpt>
      <trkpt lat="47.2098" lon="5.92924">
        <ele>275.8</ele>
        <time>2024-08-05T06:56:08Z</time>
      </trkpt>
      <trkpt lat="47.20979" lon="5.92919">
        <ele>276</ele>
        <time>2024-08-05T06:56:09Z</time>
      </trkpt>
      <trkpt lat="47.20977" lon="5.92913">
        <ele>275.8</ele>
        <time>2024-08-05T06:56:10Z</time>
      </trkpt>
      <trkpt lat="47.20975" lon="5.92906">
        <ele>275.8</ele>
        <time>2024-08-05T06:56:11Z</time>
      </trkpt>
      <trkpt lat="47.20973" lon="5.92899">
        <ele>275.8</ele>
        <time>2024-08-05T06:56:12Z</time>
      </trkpt>
      <trkpt lat="47.2097" lon="5.92892">
        <ele>275.8</ele>
        <time>2024-08-05T06:56:13Z</time>
      </trkpt>
      <trkpt lat="47.20968" lon="5.92885">
        <ele>275.6</ele>
        <time>2024-08-05T06:56:14Z</time>
      </trkpt>
      <trkpt lat="47.20965" lon="5.92878">
        <ele>275.6</ele>
        <time>2024-08-05T06:56:15Z</time>
      </trkpt>
      <trkpt lat="47.20963" lon="5.92871">
        <ele>275.2</ele>
        <time>2024-08-05T06:56:16Z</time>
      </trkpt>
      <trkpt lat="47.20962" lon="5.92865">
        <ele>275.2</ele>
        <time>2024-08-05T06:56:17Z</time>
      </trkpt>
      <trkpt lat="47.2096" lon="5.92858">
        <ele>275.2</ele>
        <time>2024-08-05T06:56:18Z</time>
      </trkpt>
      <trkpt lat="47.20958" lon="5.92852">
        <ele>274.6</ele>
        <time>2024-08-05T06:56:19Z</time>
      </trkpt>
      <trkpt lat="47.20957" lon="5.92846">
        <ele>274.2</ele>
        <time>2024-08-05T06:56:20Z</time>
      </trkpt>
      <trkpt lat="47.20955" lon="5.9284">
        <ele>274</ele>
        <time>2024-08-05T06:56:21Z</time>
      </trkpt>
      <trkpt lat="47.20954" lon="5.92833">
        <ele>273.8</ele>
        <time>2024-08-05T06:56:22Z</time>
      </trkpt>
      <trkpt lat="47.20953" lon="5.92828">
        <ele>273.6</ele>
        <time>2024-08-05T06:56:23Z</time>
      </trkpt>
      <trkpt lat="47.20951" lon="5.9282">
        <ele>273.6</ele>
        <time>2024-08-05T06:56:24Z</time>
      </trkpt>
      <trkpt lat="47.2095" lon="5.92813">
        <ele>273.6</ele>
        <time>2024-08-05T06:56:25Z</time>
      </trkpt>
      <trkpt lat="47.20949" lon="5.92807">
        <ele>273.6</ele>
        <time>2024-08-05T06:56:26Z</time>
      </trkpt>
      <trkpt lat="47.20948" lon="5.92801">
        <ele>273.6</ele>
        <time>2024-08-05T06:56:27Z</time>
      </trkpt>
      <trkpt lat="47.20947" lon="5.92796">
        <ele>273.4</ele>
        <time>2024-08-05T06:56:28Z</time>
      </trkpt>
      <trkpt lat="47.20945" lon="5.92791">
        <ele>273.6</ele>
        <time>2024-08-05T06:56:29Z</time>
      </trkpt>
      <trkpt lat="47.20942" lon="5.92786">
        <ele>273.6</ele>
        <time>2024-08-05T06:56:30Z</time>
      </trkpt>
      <trkpt lat="47.20938" lon="5.92781">
        <ele>273.6</ele>
        <time>2024-08-05T06:56:31Z</time>
      </trkpt>
      <trkpt lat="47.20935" lon="5.92776">
        <ele>273.6</ele>
        <time>2024-08-05T06:56:32Z</time>
      </trkpt>
      <trkpt lat="47.20932" lon="5.92771">
        <ele>273.8</ele>
        <time>2024-08-05T06:56:33Z</time>
      </trkpt>
      <trkpt lat="47.20928" lon="5.92767">
        <ele>273.8</ele>
        <time>2024-08-05T06:56:34Z</time>
      </trkpt>
      <trkpt lat="47.20924" lon="5.92762">
        <ele>273.8</ele>
        <time>2024-08-05T06:56:35Z</time>
      </trkpt>
      <trkpt lat="47.20921" lon="5.92757">
        <ele>274</ele>
        <time>2024-08-05T06:56:36Z</time>
      </trkpt>
      <trkpt lat="47.20918" lon="5.92751">
        <ele>274.2</ele>
        <time>2024-08-05T06:56:37Z</time>
      </trkpt>
      <trkpt lat="47.20917" lon="5.92746">
        <ele>274.2</ele>
        <time>2024-08-05T06:56:38Z</time>
      </trkpt>
      <trkpt lat="47.20915" lon="5.9274">
        <ele>274.2</ele>
        <time>2024-08-05T06:56:39Z</time>
      </trkpt>
      <trkpt lat="47.20914" lon="5.92735">
        <ele>274.2</ele>
        <time>2024-08-05T06:56:40Z</time>
      </trkpt>
      <trkpt lat="47.20913" lon="5.92731">
        <ele>274.4</ele>
        <time>2024-08-05T06:56:41Z</time>
      </trkpt>
      <trkpt lat="47.20912" lon="5.92726">
        <ele>274.4</ele>
        <time>2024-08-05T06:56:42Z</time>
      </trkpt>
      <trkpt lat="47.20911" lon="5.92721">
        <ele>274.4</ele>
        <time>2024-08-05T06:56:43Z</time>
      </trkpt>
      <trkpt lat="47.2091" lon="5.92715">
        <ele>274.4</ele>
        <time>2024-08-05T06:56:44Z</time>
      </trkpt>
      <trkpt lat="47.20909" lon="5.92709">
        <ele>274.2</ele>
        <time>2024-08-05T06:56:45Z</time>
      </trkpt>
      <trkpt lat="47.20908" lon="5.92702">
        <ele>274.4</ele>
        <time>2024-08-05T06:56:46Z</time>
      </trkpt>
      <trkpt lat="47.20906" lon="5.92697">
        <ele>274.4</ele>
        <time>2024-08-05T06:56:47Z</time>
      </trkpt>
      <trkpt lat="47.20904" lon="5.92692">
        <ele>274.2</ele>
        <time>2024-08-05T06:56:48Z</time>
      </trkpt>
      <trkpt lat="47.20902" lon="5.92685">
        <ele>274.4</ele>
        <time>2024-08-05T06:56:49Z</time>
      </trkpt>
      <trkpt lat="47.20899" lon="5.92679">
        <ele>274.4</ele>
        <time>2024-08-05T06:56:50Z</time>
      </trkpt>
      <trkpt lat="47.20897" lon="5.92672">
        <ele>274.4</ele>
        <time>2024-08-05T06:56:51Z</time>
      </trkpt>
      <trkpt lat="47.20896" lon="5.92665">
        <ele>274.4</ele>
        <time>2024-08-05T06:56:52Z</time>
      </trkpt>
      <trkpt lat="47.20893" lon="5.92658">
        <ele>274.2</ele>
        <time>2024-08-05T06:56:53Z</time>
      </trkpt>
      <trkpt lat="47.20892" lon="5.92651">
        <ele>274.4</ele>
        <time>2024-08-05T06:56:54Z</time>
      </trkpt>
      <trkpt lat="47.2089" lon="5.92644">
        <ele>274.4</ele>
        <time>2024-08-05T06:56:55Z</time>
      </trkpt>
      <trkpt lat="47.20888" lon="5.92637">
        <ele>274.8</ele>
        <time>2024-08-05T06:56:56Z</time>
      </trkpt>
      <trkpt lat="47.20886" lon="5.92631">
        <ele>274.6</ele>
        <time>2024-08-05T06:56:57Z</time>
      </trkpt>
      <trkpt lat="47.20883" lon="5.92626">
        <ele>274.8</ele>
        <time>2024-08-05T06:56:58Z</time>
      </trkpt>
      <trkpt lat="47.2088" lon="5.9262">
        <ele>274.8</ele>
        <time>2024-08-05T06:56:59Z</time>
      </trkpt>
      <trkpt lat="47.20875" lon="5.92615">
        <ele>275</ele>
        <time>2024-08-05T06:57:00Z</time>
      </trkpt>
      <trkpt lat="47.2087" lon="5.92609">
        <ele>275</ele>
        <time>2024-08-05T06:57:01Z</time>
      </trkpt>
      <trkpt lat="47.20868" lon="5.92603">
        <ele>275</ele>
        <time>2024-08-05T06:57:02Z</time>
      </trkpt>
      <trkpt lat="47.20865" lon="5.92596">
        <ele>275</ele>
        <time>2024-08-05T06:57:03Z</time>
      </trkpt>
      <trkpt lat="47.20862" lon="5.92589">
        <ele>275</ele>
        <time>2024-08-05T06:57:04Z</time>
      </trkpt>
      <trkpt lat="47.20859" lon="5.92582">
        <ele>275</ele>
        <time>2024-08-05T06:57:05Z</time>
      </trkpt>
      <trkpt lat="47.20857" lon="5.92575">
        <ele>275</ele>
        <time>2024-08-05T06:57:06Z</time>
      </trkpt>
      <trkpt lat="47.20854" lon="5.92568">
        <ele>275</ele>
        <time>2024-08-05T06:57:07Z</time>
      </trkpt>
      <trkpt lat="47.20851" lon="5.92561">
        <ele>275.2</ele>
        <time>2024-08-05T06:57:08Z</time>
      </trkpt>
      <trkpt lat="47.20847" lon="5.92555">
        <ele>275</ele>
        <time>2024-08-05T06:57:09Z</time>
      </trkpt>
      <trkpt lat="47.20843" lon="5.92549">
        <ele>275.2</ele>
        <time>2024-08-05T06:57:10Z</time>
      </trkpt>
      <trkpt lat="47.20839" lon="5.92544">
        <ele>275.2</ele>
        <time>2024-08-05T06:57:11Z</time>
      </trkpt>
      <trkpt lat="47.20835" lon="5.92538">
        <ele>275</ele>
        <time>2024-08-05T06:57:12Z</time>
      </trkpt>
      <trkpt lat="47.20832" lon="5.92533">
        <ele>275</ele>
        <time>2024-08-05T06:57:13Z</time>
      </trkpt>
      <trkpt lat="47.20829" lon="5.92527">
        <ele>275</ele>
        <time>2024-08-05T06:57:14Z</time>
      </trkpt>
      <trkpt lat="47.20826" lon="5.92522">
        <ele>275</ele>
        <time>2024-08-05T06:57:15Z</time>
      </trkpt>
      <trkpt lat="47.20823" lon="5.92516">
        <ele>275</ele>
        <time>2024-08-05T06:57:16Z</time>
      </trkpt>
      <trkpt lat="47.2082" lon="5.9251">
        <ele>275</ele>
        <time>2024-08-05T06:57:17Z</time>
      </trkpt>
      <trkpt lat="47.20817" lon="5.92505">
        <ele>275</ele>
        <time>2024-08-05T06:57:18Z</time>
      </trkpt>
      <trkpt lat="47.20814" lon="5.92498">
        <ele>275</ele>
        <time>2024-08-05T06:57:19Z</time>
      </trkpt>
      <trkpt lat="47.20811" lon="5.92493">
        <ele>275.2</ele>
        <time>2024-08-05T06:57:20Z</time>
      </trkpt>
      <trkpt lat="47.20808" lon="5.92487">
        <ele>275</ele>
        <time>2024-08-05T06:57:21Z</time>
      </trkpt>
      <trkpt lat="47.20805" lon="5.92481">
        <ele>275</ele>
        <time>2024-08-05T06:57:22Z</time>
      </trkpt>
      <trkpt lat="47.20802" lon="5.92475">
        <ele>275</ele>
        <time>2024-08-05T06:57:23Z</time>
      </trkpt>
      <trkpt lat="47.20798" lon="5.92467">
        <ele>275</ele>
        <time>2024-08-05T06:57:24Z</time>
      </trkpt>
      <trkpt lat="47.20794" lon="5.92462">
        <ele>275</ele>
        <time>2024-08-05T06:57:25Z</time>
      </trkpt>
      <trkpt lat="47.20791" lon="5.92457">
        <ele>275.4</ele>
        <time>2024-08-05T06:57:26Z</time>
      </trkpt>
      <trkpt lat="47.20787" lon="5.92452">
        <ele>275.2</ele>
        <time>2024-08-05T06:57:27Z</time>
      </trkpt>
      <trkpt lat="47.20784" lon="5.92446">
        <ele>275.4</ele>
        <time>2024-08-05T06:57:28Z</time>
      </trkpt>
      <trkpt lat="47.20781" lon="5.9244">
        <ele>275.4</ele>
        <time>2024-08-05T06:57:29Z</time>
      </trkpt>
      <trkpt lat="47.20777" lon="5.92434">
        <ele>275.4</ele>
        <time>2024-08-05T06:57:30Z</time>
      </trkpt>
      <trkpt lat="47.20774" lon="5.92429">
        <ele>275.6</ele>
        <time>2024-08-05T06:57:31Z</time>
      </trkpt>
      <trkpt lat="47.2077" lon="5.92423">
        <ele>275.6</ele>
        <time>2024-08-05T06:57:32Z</time>
      </trkpt>
      <trkpt lat="47.20767" lon="5.92417">
        <ele>275.4</ele>
        <time>2024-08-05T06:57:33Z</time>
      </trkpt>
      <trkpt lat="47.20764" lon="5.92412">
        <ele>275.4</ele>
        <time>2024-08-05T06:57:34Z</time>
      </trkpt>
      <trkpt lat="47.20761" lon="5.92406">
        <ele>275.4</ele>
        <time>2024-08-05T06:57:35Z</time>
      </trkpt>
      <trkpt lat="47.20758" lon="5.924">
        <ele>275.4</ele>
        <time>2024-08-05T06:57:36Z</time>
      </trkpt>
      <trkpt lat="47.20756" lon="5.92394">
        <ele>275.4</ele>
        <time>2024-08-05T06:57:37Z</time>
      </trkpt>
      <trkpt lat="47.20754" lon="5.92388">
        <ele>275.4</ele>
        <time>2024-08-05T06:57:38Z</time>
      </trkpt>
      <trkpt lat="47.20751" lon="5.92383">
        <ele>275.4</ele>
        <time>2024-08-05T06:57:39Z</time>
      </trkpt>
      <trkpt lat="47.20748" lon="5.92377">
        <ele>275.4</ele>
        <time>2024-08-05T06:57:40Z</time>
      </trkpt>
      <trkpt lat="47.20745" lon="5.92372">
        <ele>275.4</ele>
        <time>2024-08-05T06:57:41Z</time>
      </trkpt>
      <trkpt lat="47.20742" lon="5.92368">
        <ele>275.4</ele>
        <time>2024-08-05T06:57:42Z</time>
      </trkpt>
      <trkpt lat="47.20739" lon="5.92363">
        <ele>275.6</ele>
        <time>2024-08-05T06:57:43Z</time>
      </trkpt>
      <trkpt lat="47.20736" lon="5.92358">
        <ele>275.6</ele>
        <time>2024-08-05T06:57:44Z</time>
      </trkpt>
      <trkpt lat="47.20734" lon="5.92353">
        <ele>275.6</ele>
        <time>2024-08-05T06:57:45Z</time>
      </trkpt>
      <trkpt lat="47.20732" lon="5.92348">
        <ele>275.4</ele>
        <time>2024-08-05T06:57:46Z</time>
      </trkpt>
      <trkpt lat="47.20729" lon="5.92343">
        <ele>275.6</ele>
        <time>2024-08-05T06:57:47Z</time>
      </trkpt>
      <trkpt lat="47.20728" lon="5.92338">
        <ele>275.4</ele>
        <time>2024-08-05T06:57:48Z</time>
      </trkpt>
      <trkpt lat="47.20726" lon="5.92333">
        <ele>275.4</ele>
        <time>2024-08-05T06:57:49Z</time>
      </trkpt>
      <trkpt lat="47.20724" lon="5.92328">
        <ele>275.4</ele>
        <time>2024-08-05T06:57:50Z</time>
      </trkpt>
      <trkpt lat="47.20721" lon="5.92322">
        <ele>275.4</ele>
        <time>2024-08-05T06:57:51Z</time>
      </trkpt>
      <trkpt lat="47.20719" lon="5.92316">
        <ele>275.6</ele>
        <time>2024-08-05T06:57:52Z</time>
      </trkpt>
      <trkpt lat="47.20717" lon="5.92311">
        <ele>275.8</ele>
        <time>2024-08-05T06:57:53Z</time>
      </trkpt>
      <trkpt lat="47.20715" lon="5.92305">
        <ele>276</ele>
        <time>2024-08-05T06:57:54Z</time>
      </trkpt>
      <trkpt lat="47.20714" lon="5.92299">
        <ele>275.8</ele>
        <time>2024-08-05T06:57:55Z</time>
      </trkpt>
      <trkpt lat="47.20712" lon="5.92293">
        <ele>276</ele>
        <time>2024-08-05T06:57:56Z</time>
      </trkpt>
      <trkpt lat="47.20711" lon="5.92288">
        <ele>276.2</ele>
        <time>2024-08-05T06:57:57Z</time>
      </trkpt>
      <trkpt lat="47.20709" lon="5.92282">
        <ele>276.2</ele>
        <time>2024-08-05T06:57:58Z</time>
      </trkpt>
      <trkpt lat="47.20708" lon="5.92276">
        <ele>276.2</ele>
        <time>2024-08-05T06:57:59Z</time>
      </trkpt>
      <trkpt lat="47.20707" lon="5.92271">
        <ele>276.6</ele>
        <time>2024-08-05T06:58:00Z</time>
      </trkpt>
      <trkpt lat="47.20706" lon="5.92265">
        <ele>276.6</ele>
        <time>2024-08-05T06:58:01Z</time>
      </trkpt>
      <trkpt lat="47.20704" lon="5.92259">
        <ele>276.6</ele>
        <time>2024-08-05T06:58:02Z</time>
      </trkpt>
      <trkpt lat="47.20703" lon="5.92253">
        <ele>276.8</ele>
        <time>2024-08-05T06:58:03Z</time>
      </trkpt>
      <trkpt lat="47.20701" lon="5.92248">
        <ele>276.8</ele>
        <time>2024-08-05T06:58:04Z</time>
      </trkpt>
      <trkpt lat="47.20699" lon="5.92242">
        <ele>277</ele>
        <time>2024-08-05T06:58:05Z</time>
      </trkpt>
      <trkpt lat="47.20697" lon="5.92237">
        <ele>277</ele>
        <time>2024-08-05T06:58:06Z</time>
      </trkpt>
      <trkpt lat="47.20694" lon="5.92231">
        <ele>277</ele>
        <time>2024-08-05T06:58:07Z</time>
      </trkpt>
      <trkpt lat="47.20692" lon="5.92225">
        <ele>277</ele>
        <time>2024-08-05T06:58:08Z</time>
      </trkpt>
      <trkpt lat="47.2069" lon="5.92218">
        <ele>277.2</ele>
        <time>2024-08-05T06:58:09Z</time>
      </trkpt>
      <trkpt lat="47.20689" lon="5.92211">
        <ele>277.2</ele>
        <time>2024-08-05T06:58:10Z</time>
      </trkpt>
      <trkpt lat="47.20687" lon="5.92205">
        <ele>277.2</ele>
        <time>2024-08-05T06:58:11Z</time>
      </trkpt>
      <trkpt lat="47.20686" lon="5.92198">
        <ele>277.2</ele>
        <time>2024-08-05T06:58:12Z</time>
      </trkpt>
      <trkpt lat="47.20685" lon="5.92192">
        <ele>277.4</ele>
        <time>2024-08-05T06:58:13Z</time>
      </trkpt>
      <trkpt lat="47.20683" lon="5.92186">
        <ele>277.4</ele>
        <time>2024-08-05T06:58:14Z</time>
      </trkpt>
      <trkpt lat="47.20682" lon="5.92179">
        <ele>277.4</ele>
        <time>2024-08-05T06:58:15Z</time>
      </trkpt>
      <trkpt lat="47.2068" lon="5.92172">
        <ele>277.6</ele>
        <time>2024-08-05T06:58:16Z</time>
      </trkpt>
      <trkpt lat="47.20678" lon="5.92164">
        <ele>277.4</ele>
        <time>2024-08-05T06:58:17Z</time>
      </trkpt>
      <trkpt lat="47.20675" lon="5.92157">
        <ele>277.4</ele>
        <time>2024-08-05T06:58:18Z</time>
      </trkpt>
      <trkpt lat="47.20672" lon="5.92149">
        <ele>277.4</ele>
        <time>2024-08-05T06:58:19Z</time>
      </trkpt>
      <trkpt lat="47.2067" lon="5.92142">
        <ele>277.4</ele>
        <time>2024-08-05T06:58:20Z</time>
      </trkpt>
      <trkpt lat="47.20668" lon="5.92135">
        <ele>277.4</ele>
        <time>2024-08-05T06:58:21Z</time>
      </trkpt>
      <trkpt lat="47.20666" lon="5.92127">
        <ele>277.6</ele>
        <time>2024-08-05T06:58:22Z</time>
      </trkpt>
      <trkpt lat="47.20664" lon="5.9212">
        <ele>277.4</ele>
        <time>2024-08-05T06:58:23Z</time>
      </trkpt>
      <trkpt lat="47.20662" lon="5.92112">
        <ele>277.4</ele>
        <time>2024-08-05T06:58:24Z</time>
      </trkpt>
      <trkpt lat="47.20661" lon="5.92105">
        <ele>277.4</ele>
        <time>2024-08-05T06:58:25Z</time>
      </trkpt>
      <trkpt lat="47.20659" lon="5.92097">
        <ele>277.4</ele>
        <time>2024-08-05T06:58:26Z</time>
      </trkpt>
      <trkpt lat="47.20658" lon="5.92089">
        <ele>277.4</ele>
        <time>2024-08-05T06:58:27Z</time>
      </trkpt>
      <trkpt lat="47.20656" lon="5.92081">
        <ele>277.4</ele>
        <time>2024-08-05T06:58:28Z</time>
      </trkpt>
      <trkpt lat="47.20654" lon="5.92073">
        <ele>277.2</ele>
        <time>2024-08-05T06:58:29Z</time>
      </trkpt>
      <trkpt lat="47.20653" lon="5.92066">
        <ele>277.2</ele>
        <time>2024-08-05T06:58:30Z</time>
      </trkpt>
      <trkpt lat="47.2065" lon="5.92058">
        <ele>277.4</ele>
        <time>2024-08-05T06:58:31Z</time>
      </trkpt>
      <trkpt lat="47.20649" lon="5.92051">
        <ele>277.2</ele>
        <time>2024-08-05T06:58:32Z</time>
      </trkpt>
      <trkpt lat="47.20646" lon="5.92043">
        <ele>277.2</ele>
        <time>2024-08-05T06:58:33Z</time>
      </trkpt>
      <trkpt lat="47.20644" lon="5.92036">
        <ele>277</ele>
        <time>2024-08-05T06:58:34Z</time>
      </trkpt>
      <trkpt lat="47.20642" lon="5.9203">
        <ele>277</ele>
        <time>2024-08-05T06:58:35Z</time>
      </trkpt>
      <trkpt lat="47.2064" lon="5.92023">
        <ele>277</ele>
        <time>2024-08-05T06:58:36Z</time>
      </trkpt>
      <trkpt lat="47.20638" lon="5.92016">
        <ele>277</ele>
        <time>2024-08-05T06:58:37Z</time>
      </trkpt>
      <trkpt lat="47.20635" lon="5.92009">
        <ele>276.8</ele>
        <time>2024-08-05T06:58:38Z</time>
      </trkpt>
      <trkpt lat="47.20633" lon="5.92002">
        <ele>276.8</ele>
        <time>2024-08-05T06:58:39Z</time>
      </trkpt>
      <trkpt lat="47.2063" lon="5.91996">
        <ele>276.8</ele>
        <time>2024-08-05T06:58:40Z</time>
      </trkpt>
      <trkpt lat="47.20627" lon="5.9199">
        <ele>276.6</ele>
        <time>2024-08-05T06:58:41Z</time>
      </trkpt>
      <trkpt lat="47.20624" lon="5.91983">
        <ele>276.6</ele>
        <time>2024-08-05T06:58:42Z</time>
      </trkpt>
      <trkpt lat="47.2062" lon="5.91977">
        <ele>276.6</ele>
        <time>2024-08-05T06:58:43Z</time>
      </trkpt>
      <trkpt lat="47.20617" lon="5.91972">
        <ele>276.6</ele>
        <time>2024-08-05T06:58:44Z</time>
      </trkpt>
      <trkpt lat="47.20613" lon="5.91967">
        <ele>276.4</ele>
        <time>2024-08-05T06:58:45Z</time>
      </trkpt>
      <trkpt lat="47.2061" lon="5.91962">
        <ele>276.4</ele>
        <time>2024-08-05T06:58:46Z</time>
      </trkpt>
      <trkpt lat="47.20609" lon="5.91958">
        <ele>276.4</ele>
        <time>2024-08-05T06:58:47Z</time>
      </trkpt>
      <trkpt lat="47.20609" lon="5.91954">
        <ele>276.4</ele>
        <time>2024-08-05T06:58:48Z</time>
      </trkpt>
      <trkpt lat="47.2061" lon="5.91951">
        <ele>276.2</ele>
        <time>2024-08-05T06:58:49Z</time>
      </trkpt>
      <trkpt lat="47.20612" lon="5.91948">
        <ele>276.2</ele>
        <time>2024-08-05T06:58:50Z</time>
      </trkpt>
      <trkpt lat="47.20615" lon="5.91946">
        <ele>276.2</ele>
        <time>2024-08-05T06:58:51Z</time>
      </trkpt>
      <trkpt lat="47.20618" lon="5.91944">
        <ele>276</ele>
        <time>2024-08-05T06:58:52Z</time>
      </trkpt>
      <trkpt lat="47.20622" lon="5.91943">
        <ele>275.8</ele>
        <time>2024-08-05T06:58:53Z</time>
      </trkpt>
      <trkpt lat="47.20626" lon="5.91942">
        <ele>275.6</ele>
        <time>2024-08-05T06:58:54Z</time>
      </trkpt>
      <trkpt lat="47.2063" lon="5.91942">
        <ele>275.6</ele>
        <time>2024-08-05T06:58:55Z</time>
      </trkpt>
      <trkpt lat="47.20634" lon="5.91942">
        <ele>275.4</ele>
        <time>2024-08-05T06:58:56Z</time>
      </trkpt>
      <trkpt lat="47.20638" lon="5.91943">
        <ele>275.2</ele>
        <time>2024-08-05T06:58:57Z</time>
      </trkpt>
      <trkpt lat="47.20643" lon="5.91943">
        <ele>275.2</ele>
        <time>2024-08-05T06:58:58Z</time>
      </trkpt>
      <trkpt lat="47.20647" lon="5.91945">
        <ele>275.2</ele>
        <time>2024-08-05T06:58:59Z</time>
      </trkpt>
      <trkpt lat="47.20652" lon="5.91946">
        <ele>275</ele>
        <time>2024-08-05T06:59:00Z</time>
      </trkpt>
      <trkpt lat="47.20657" lon="5.91947">
        <ele>275.2</ele>
        <time>2024-08-05T06:59:01Z</time>
      </trkpt>
      <trkpt lat="47.20661" lon="5.91948">
        <ele>275</ele>
        <time>2024-08-05T06:59:02Z</time>
      </trkpt>
      <trkpt lat="47.20665" lon="5.91949">
        <ele>275</ele>
        <time>2024-08-05T06:59:03Z</time>
      </trkpt>
      <trkpt lat="47.2067" lon="5.9195">
        <ele>274.8</ele>
        <time>2024-08-05T06:59:04Z</time>
      </trkpt>
      <trkpt lat="47.20675" lon="5.9195">
        <ele>274.8</ele>
        <time>2024-08-05T06:59:05Z</time>
      </trkpt>
      <trkpt lat="47.20679" lon="5.91951">
        <ele>274.8</ele>
        <time>2024-08-05T06:59:06Z</time>
      </trkpt>
      <trkpt lat="47.20684" lon="5.91953">
        <ele>274.6</ele>
        <time>2024-08-05T06:59:07Z</time>
      </trkpt>
      <trkpt lat="47.20688" lon="5.91954">
        <ele>274.4</ele>
        <time>2024-08-05T06:59:08Z</time>
      </trkpt>
      <trkpt lat="47.20692" lon="5.91955">
        <ele>274.4</ele>
        <time>2024-08-05T06:59:09Z</time>
      </trkpt>
      <trkpt lat="47.20696" lon="5.91956">
        <ele>274</ele>
        <time>2024-08-05T06:59:10Z</time>
      </trkpt>
      <trkpt lat="47.207" lon="5.91957">
        <ele>274.2</ele>
        <time>2024-08-05T06:59:11Z</time>
      </trkpt>
      <trkpt lat="47.20704" lon="5.91958">
        <ele>274.2</ele>
        <time>2024-08-05T06:59:12Z</time>
      </trkpt>
      <trkpt lat="47.20708" lon="5.91959">
        <ele>274</ele>
        <time>2024-08-05T06:59:13Z</time>
      </trkpt>
      <trkpt lat="47.20712" lon="5.9196">
        <ele>274</ele>
        <time>2024-08-05T06:59:14Z</time>
      </trkpt>
      <trkpt lat="47.20716" lon="5.9196">
        <ele>273.8</ele>
        <time>2024-08-05T06:59:15Z</time>
      </trkpt>
      <trkpt lat="47.2072" lon="5.91961">
        <ele>274</ele>
        <time>2024-08-05T06:59:16Z</time>
      </trkpt>
      <trkpt lat="47.20725" lon="5.91962">
        <ele>274</ele>
        <time>2024-08-05T06:59:17Z</time>
      </trkpt>
      <trkpt lat="47.20729" lon="5.91963">
        <ele>273.8</ele>
        <time>2024-08-05T06:59:18Z</time>
      </trkpt>
      <trkpt lat="47.20733" lon="5.91964">
        <ele>274</ele>
        <time>2024-08-05T06:59:19Z</time>
      </trkpt>
      <trkpt lat="47.20738" lon="5.91965">
        <ele>273.8</ele>
        <time>2024-08-05T06:59:20Z</time>
      </trkpt>
      <trkpt lat="47.20742" lon="5.91966">
        <ele>274</ele>
        <time>2024-08-05T06:59:21Z</time>
      </trkpt>
      <trkpt lat="47.20745" lon="5.91966">
        <ele>274.2</ele>
        <time>2024-08-05T06:59:22Z</time>
      </trkpt>
      <trkpt lat="47.20749" lon="5.91966">
        <ele>274.4</ele>
        <time>2024-08-05T06:59:23Z</time>
      </trkpt>
      <trkpt lat="47.20753" lon="5.91966">
        <ele>274.4</ele>
        <time>2024-08-05T06:59:24Z</time>
      </trkpt>
      <trkpt lat="47.20758" lon="5.91966">
        <ele>274.2</ele>
        <time>2024-08-05T06:59:25Z</time>
      </trkpt>
      <trkpt lat="47.20763" lon="5.91965">
        <ele>274.2</ele>
        <time>2024-08-05T06:59:26Z</time>
      </trkpt>
      <trkpt lat="47.20769" lon="5.91964">
        <ele>274.2</ele>
        <time>2024-08-05T06:59:27Z</time>
      </trkpt>
      <trkpt lat="47.20776" lon="5.91964">
        <ele>274.2</ele>
        <time>2024-08-05T06:59:28Z</time>
      </trkpt>
      <trkpt lat="47.20783" lon="5.91964">
        <ele>274.4</ele>
        <time>2024-08-05T06:59:29Z</time>
      </trkpt>
      <trkpt lat="47.20791" lon="5.91964">
        <ele>274.4</ele>
        <time>2024-08-05T06:59:30Z</time>
      </trkpt>
      <trkpt lat="47.20798" lon="5.91964">
        <ele>274.2</ele>
        <time>2024-08-05T06:59:31Z</time>
      </trkpt>
      <trkpt lat="47.20806" lon="5.91963">
        <ele>274.2</ele>
        <time>2024-08-05T06:59:32Z</time>
      </trkpt>
      <trkpt lat="47.20812" lon="5.91962">
        <ele>273.8</ele>
        <time>2024-08-05T06:59:33Z</time>
      </trkpt>
      <trkpt lat="47.20818" lon="5.91961">
        <ele>273.8</ele>
        <time>2024-08-05T06:59:34Z</time>
      </trkpt>
      <trkpt lat="47.20823" lon="5.91959">
        <ele>273.8</ele>
        <time>2024-08-05T06:59:35Z</time>
      </trkpt>
      <trkpt lat="47.20828" lon="5.91958">
        <ele>273.6</ele>
        <time>2024-08-05T06:59:36Z</time>
      </trkpt>
      <trkpt lat="47.20832" lon="5.91955">
        <ele>273.2</ele>
        <time>2024-08-05T06:59:37Z</time>
      </trkpt>
      <trkpt lat="47.20836" lon="5.91952">
        <ele>273</ele>
        <time>2024-08-05T06:59:38Z</time>
      </trkpt>
      <trkpt lat="47.2084" lon="5.91949">
        <ele>273</ele>
        <time>2024-08-05T06:59:39Z</time>
      </trkpt>
      <trkpt lat="47.20844" lon="5.91945">
        <ele>272.6</ele>
        <time>2024-08-05T06:59:40Z</time>
      </trkpt>
      <trkpt lat="47.20847" lon="5.91942">
        <ele>272.2</ele>
        <time>2024-08-05T06:59:41Z</time>
      </trkpt>
      <trkpt lat="47.2085" lon="5.91939">
        <ele>272.2</ele>
        <time>2024-08-05T06:59:42Z</time>
      </trkpt>
      <trkpt lat="47.20853" lon="5.91938">
        <ele>272.2</ele>
        <time>2024-08-05T06:59:43Z</time>
      </trkpt>
      <trkpt lat="47.20857" lon="5.91936">
        <ele>272.2</ele>
        <time>2024-08-05T06:59:44Z</time>
      </trkpt>
      <trkpt lat="47.2086" lon="5.91935">
        <ele>272</ele>
        <time>2024-08-05T06:59:45Z</time>
      </trkpt>
      <trkpt lat="47.20863" lon="5.91934">
        <ele>272</ele>
        <time>2024-08-05T06:59:46Z</time>
      </trkpt>
      <trkpt lat="47.20867" lon="5.91934">
        <ele>272</ele>
        <time>2024-08-05T06:59:47Z</time>
      </trkpt>
      <trkpt lat="47.2087" lon="5.91934">
        <ele>272.2</ele>
        <time>2024-08-05T06:59:48Z</time>
      </trkpt>
      <trkpt lat="47.20875" lon="5.91934">
        <ele>272</ele>
        <time>2024-08-05T06:59:49Z</time>
      </trkpt>
      <trkpt lat="47.20878" lon="5.91934">
        <ele>272.2</ele>
        <time>2024-08-05T06:59:50Z</time>
      </trkpt>
      <trkpt lat="47.20882" lon="5.91935">
        <ele>272.2</ele>
        <time>2024-08-05T06:59:51Z</time>
      </trkpt>
      <trkpt lat="47.20886" lon="5.91936">
        <ele>272.4</ele>
        <time>2024-08-05T06:59:52Z</time>
      </trkpt>
      <trkpt lat="47.2089" lon="5.91937">
        <ele>272.4</ele>
        <time>2024-08-05T06:59:53Z</time>
      </trkpt>
      <trkpt lat="47.20894" lon="5.91937">
        <ele>272.6</ele>
        <time>2024-08-05T06:59:54Z</time>
      </trkpt>
      <trkpt lat="47.20898" lon="5.91937">
        <ele>272.6</ele>
        <time>2024-08-05T06:59:55Z</time>
      </trkpt>
      <trkpt lat="47.20901" lon="5.91937">
        <ele>272.6</ele>
        <time>2024-08-05T06:59:56Z</time>
      </trkpt>
      <trkpt lat="47.20905" lon="5.91937">
        <ele>272.6</ele>
        <time>2024-08-05T06:59:57Z</time>
      </trkpt>
      <trkpt lat="47.20908" lon="5.91938">
        <ele>272.6</ele>
        <time>2024-08-05T06:59:58Z</time>
      </trkpt>
      <trkpt lat="47.20912" lon="5.91938">
        <ele>272.8</ele>
        <time>2024-08-05T06:59:59Z</time>
      </trkpt>
      <trkpt lat="47.20916" lon="5.91938">
        <ele>273</ele>
        <time>2024-08-05T07:00:00Z</time>
      </trkpt>
      <trkpt lat="47.2092" lon="5.91937">
        <ele>273</ele>
        <time>2024-08-05T07:00:01Z</time>
      </trkpt>
      <trkpt lat="47.20923" lon="5.91936">
        <ele>273</ele>
        <time>2024-08-05T07:00:02Z</time>
      </trkpt>
      <trkpt lat="47.20927" lon="5.91935">
        <ele>273.2</ele>
        <time>2024-08-05T07:00:03Z</time>
      </trkpt>
      <trkpt lat="47.20931" lon="5.91933">
        <ele>273.2</ele>
        <time>2024-08-05T07:00:04Z</time>
      </trkpt>
      <trkpt lat="47.20935" lon="5.91931">
        <ele>273.2</ele>
        <time>2024-08-05T07:00:05Z</time>
      </trkpt>
      <trkpt lat="47.20938" lon="5.91929">
        <ele>273</ele>
        <time>2024-08-05T07:00:06Z</time>
      </trkpt>
      <trkpt lat="47.2094" lon="5.91927">
        <ele>273.2</ele>
        <time>2024-08-05T07:00:07Z</time>
      </trkpt>
      <trkpt lat="47.20943" lon="5.91924">
        <ele>273.2</ele>
        <time>2024-08-05T07:00:08Z</time>
      </trkpt>
      <trkpt lat="47.20947" lon="5.91922">
        <ele>273.2</ele>
        <time>2024-08-05T07:00:09Z</time>
      </trkpt>
      <trkpt lat="47.20949" lon="5.9192">
        <ele>273.2</ele>
        <time>2024-08-05T07:00:10Z</time>
      </trkpt>
      <trkpt lat="47.20952" lon="5.9192">
        <ele>273.2</ele>
        <time>2024-08-05T07:00:11Z</time>
      </trkpt>
      <trkpt lat="47.20955" lon="5.91919">
        <ele>273.2</ele>
        <time>2024-08-05T07:00:12Z</time>
      </trkpt>
      <trkpt lat="47.20959" lon="5.91919">
        <ele>273</ele>
        <time>2024-08-05T07:00:13Z</time>
      </trkpt>
      <trkpt lat="47.20964" lon="5.91919">
        <ele>272.8</ele>
        <time>2024-08-05T07:00:14Z</time>
      </trkpt>
      <trkpt lat="47.20968" lon="5.91919">
        <ele>272.8</ele>
        <time>2024-08-05T07:00:15Z</time>
      </trkpt>
      <trkpt lat="47.20973" lon="5.9192">
        <ele>272.6</ele>
        <time>2024-08-05T07:00:16Z</time>
      </trkpt>
      <trkpt lat="47.20977" lon="5.91921">
        <ele>272.6</ele>
        <time>2024-08-05T07:00:17Z</time>
      </trkpt>
      <trkpt lat="47.20981" lon="5.91922">
        <ele>272.6</ele>
        <time>2024-08-05T07:00:18Z</time>
      </trkpt>
      <trkpt lat="47.20985" lon="5.91924">
        <ele>272.6</ele>
        <time>2024-08-05T07:00:19Z</time>
      </trkpt>
      <trkpt lat="47.20989" lon="5.91926">
        <ele>272.6</ele>
        <time>2024-08-05T07:00:20Z</time>
      </trkpt>
      <trkpt lat="47.20993" lon="5.91928">
        <ele>272.6</ele>
        <time>2024-08-05T07:00:21Z</time>
      </trkpt>
      <trkpt lat="47.20996" lon="5.9193">
        <ele>272.6</ele>
        <time>2024-08-05T07:00:22Z</time>
      </trkpt>
      <trkpt lat="47.21" lon="5.91931">
        <ele>272.6</ele>
        <time>2024-08-05T07:00:23Z</time>
      </trkpt>
      <trkpt lat="47.21003" lon="5.91933">
        <ele>272.6</ele>
        <time>2024-08-05T07:00:24Z</time>
      </trkpt>
      <trkpt lat="47.21006" lon="5.91934">
        <ele>272.6</ele>
        <time>2024-08-05T07:00:25Z</time>
      </trkpt>
      <trkpt lat="47.2101" lon="5.91934">
        <ele>272.6</ele>
        <time>2024-08-05T07:00:26Z</time>
      </trkpt>
      <trkpt lat="47.21015" lon="5.91933">
        <ele>272.6</ele>
        <time>2024-08-05T07:00:27Z</time>
      </trkpt>
      <trkpt lat="47.21019" lon="5.91933">
        <ele>272.6</ele>
        <time>2024-08-05T07:00:28Z</time>
      </trkpt>
      <trkpt lat="47.21024" lon="5.91932">
        <ele>272.6</ele>
        <time>2024-08-05T07:00:29Z</time>
      </trkpt>
      <trkpt lat="47.21027" lon="5.91933">
        <ele>272.6</ele>
        <time>2024-08-05T07:00:30Z</time>
      </trkpt>
      <trkpt lat="47.21031" lon="5.91933">
        <ele>272.6</ele>
        <time>2024-08-05T07:00:31Z</time>
      </trkpt>
      <trkpt lat="47.21034" lon="5.91933">
        <ele>272.6</ele>
        <time>2024-08-05T07:00:32Z</time>
      </trkpt>
      <trkpt lat="47.21037" lon="5.91934">
        <ele>272.6</ele>
        <time>2024-08-05T07:00:33Z</time>
      </trkpt>
      <trkpt lat="47.2104" lon="5.91933">
        <ele>272.6</ele>
        <time>2024-08-05T07:00:34Z</time>
      </trkpt>
      <trkpt lat="47.21043" lon="5.91933">
        <ele>272.8</ele>
        <time>2024-08-05T07:00:35Z</time>
      </trkpt>
      <trkpt lat="47.21046" lon="5.91934">
        <ele>272.8</ele>
        <time>2024-08-05T07:00:36Z</time>
      </trkpt>
      <trkpt lat="47.21049" lon="5.91934">
        <ele>272.6</ele>
        <time>2024-08-05T07:00:37Z</time>
      </trkpt>
      <trkpt lat="47.21053" lon="5.91934">
        <ele>272.8</ele>
        <time>2024-08-05T07:00:38Z</time>
      </trkpt>
      <trkpt lat="47.21057" lon="5.91935">
        <ele>272.8</ele>
        <time>2024-08-05T07:00:39Z</time>
      </trkpt>
      <trkpt lat="47.2106" lon="5.91934">
        <ele>272.8</ele>
        <time>2024-08-05T07:00:40Z</time>
      </trkpt>
      <trkpt lat="47.21064" lon="5.91934">
        <ele>272.8</ele>
        <time>2024-08-05T07:00:41Z</time>
      </trkpt>
      <trkpt lat="47.21068" lon="5.91933">
        <ele>272.6</ele>
        <time>2024-08-05T07:00:42Z</time>
      </trkpt>
      <trkpt lat="47.21072" lon="5.91933">
        <ele>272.8</ele>
        <time>2024-08-05T07:00:43Z</time>
      </trkpt>
      <trkpt lat="47.21076" lon="5.91932">
        <ele>272.6</ele>
        <time>2024-08-05T07:00:44Z</time>
      </trkpt>
      <trkpt lat="47.21081" lon="5.9193">
        <ele>272.8</ele>
        <time>2024-08-05T07:00:45Z</time>
      </trkpt>
      <trkpt lat="47.21086" lon="5.91928">
        <ele>272.8</ele>
        <time>2024-08-05T07:00:46Z</time>
      </trkpt>
      <trkpt lat="47.21091" lon="5.91926">
        <ele>272.8</ele>
        <time>2024-08-05T07:00:47Z</time>
      </trkpt>
      <trkpt lat="47.21096" lon="5.91924">
        <ele>272.8</ele>
        <time>2024-08-05T07:00:48Z</time>
      </trkpt>
      <trkpt lat="47.21101" lon="5.91921">
        <ele>272.8</ele>
        <time>2024-08-05T07:00:49Z</time>
      </trkpt>
      <trkpt lat="47.21106" lon="5.91919">
        <ele>272.8</ele>
        <time>2024-08-05T07:00:50Z</time>
      </trkpt>
      <trkpt lat="47.21111" lon="5.91917">
        <ele>272.8</ele>
        <time>2024-08-05T07:00:51Z</time>
      </trkpt>
      <trkpt lat="47.21116" lon="5.91914">
        <ele>272.6</ele>
        <time>2024-08-05T07:00:52Z</time>
      </trkpt>
      <trkpt lat="47.2112" lon="5.91912">
        <ele>272.8</ele>
        <time>2024-08-05T07:00:53Z</time>
      </trkpt>
      <trkpt lat="47.21125" lon="5.9191">
        <ele>272.8</ele>
        <time>2024-08-05T07:00:54Z</time>
      </trkpt>
      <trkpt lat="47.21129" lon="5.91907">
        <ele>272.6</ele>
        <time>2024-08-05T07:00:55Z</time>
      </trkpt>
      <trkpt lat="47.21134" lon="5.91905">
        <ele>272.6</ele>
        <time>2024-08-05T07:00:56Z</time>
      </trkpt>
      <trkpt lat="47.21137" lon="5.91903">
        <ele>272.6</ele>
        <time>2024-08-05T07:00:57Z</time>
      </trkpt>
      <trkpt lat="47.21141" lon="5.91902">
        <ele>272.6</ele>
        <time>2024-08-05T07:00:58Z</time>
      </trkpt>
      <trkpt lat="47.21145" lon="5.919">
        <ele>272.6</ele>
        <time>2024-08-05T07:00:59Z</time>
      </trkpt>
      <trkpt lat="47.21148" lon="5.91899">
        <ele>272.6</ele>
        <time>2024-08-05T07:01:00Z</time>
      </trkpt>
      <trkpt lat="47.21152" lon="5.91898">
        <ele>272.6</ele>
        <time>2024-08-05T07:01:01Z</time>
      </trkpt>
      <trkpt lat="47.21154" lon="5.91898">
        <ele>272.4</ele>
        <time>2024-08-05T07:01:02Z</time>
      </trkpt>
      <trkpt lat="47.21158" lon="5.91898">
        <ele>272.6</ele>
        <time>2024-08-05T07:01:03Z</time>
      </trkpt>
      <trkpt lat="47.21162" lon="5.91898">
        <ele>272.4</ele>
        <time>2024-08-05T07:01:04Z</time>
      </trkpt>
      <trkpt lat="47.21165" lon="5.919">
        <ele>272.6</ele>
        <time>2024-08-05T07:01:05Z</time>
      </trkpt>
      <trkpt lat="47.21167" lon="5.91903">
        <ele>272.6</ele>
        <time>2024-08-05T07:01:06Z</time>
      </trkpt>
      <trkpt lat="47.21169" lon="5.91907">
        <ele>272.6</ele>
        <time>2024-08-05T07:01:07Z</time>
      </trkpt>
      <trkpt lat="47.21171" lon="5.91911">
        <ele>272.4</ele>
        <time>2024-08-05T07:01:08Z</time>
      </trkpt>
      <trkpt lat="47.21173" lon="5.91915">
        <ele>272.6</ele>
        <time>2024-08-05T07:01:09Z</time>
      </trkpt>
      <trkpt lat="47.21175" lon="5.9192">
        <ele>272.6</ele>
        <time>2024-08-05T07:01:10Z</time>
      </trkpt>
      <trkpt lat="47.21178" lon="5.91924">
        <ele>272.8</ele>
        <time>2024-08-05T07:01:11Z</time>
      </trkpt>
      <trkpt lat="47.21181" lon="5.91926">
        <ele>272.8</ele>
        <time>2024-08-05T07:01:12Z</time>
      </trkpt>
      <trkpt lat="47.21184" lon="5.91927">
        <ele>272.8</ele>
        <time>2024-08-05T07:01:13Z</time>
      </trkpt>
      <trkpt lat="47.21188" lon="5.91926">
        <ele>273</ele>
        <time>2024-08-05T07:01:14Z</time>
      </trkpt>
      <trkpt lat="47.21193" lon="5.91924">
        <ele>273</ele>
        <time>2024-08-05T07:01:15Z</time>
      </trkpt>
      <trkpt lat="47.21198" lon="5.9192">
        <ele>272.8</ele>
        <time>2024-08-05T07:01:16Z</time>
      </trkpt>
      <trkpt lat="47.21204" lon="5.91916">
        <ele>272.8</ele>
        <time>2024-08-05T07:01:17Z</time>
      </trkpt>
      <trkpt lat="47.21209" lon="5.9191">
        <ele>273</ele>
        <time>2024-08-05T07:01:18Z</time>
      </trkpt>
      <trkpt lat="47.21214" lon="5.91903">
        <ele>273</ele>
        <time>2024-08-05T07:01:19Z</time>
      </trkpt>
      <trkpt lat="47.21219" lon="5.91896">
        <ele>273</ele>
        <time>2024-08-05T07:01:20Z</time>
      </trkpt>
      <trkpt lat="47.21224" lon="5.91889">
        <ele>273</ele>
        <time>2024-08-05T07:01:21Z</time>
      </trkpt>
      <trkpt lat="47.21229" lon="5.91881">
        <ele>272.8</ele>
        <time>2024-08-05T07:01:22Z</time>
      </trkpt>
      <trkpt lat="47.21233" lon="5.91875">
        <ele>272.8</ele>
        <time>2024-08-05T07:01:23Z</time>
      </trkpt>
      <trkpt lat="47.21236" lon="5.91869">
        <ele>272.6</ele>
        <time>2024-08-05T07:01:24Z</time>
      </trkpt>
      <trkpt lat="47.21239" lon="5.91864">
        <ele>272.2</ele>
        <time>2024-08-05T07:01:25Z</time>
      </trkpt>
      <trkpt lat="47.21242" lon="5.9186">
        <ele>271.8</ele>
        <time>2024-08-05T07:01:26Z</time>
      </trkpt>
      <trkpt lat="47.21243" lon="5.91857">
        <ele>271.4</ele>
        <time>2024-08-05T07:01:27Z</time>
      </trkpt>
      <trkpt lat="47.21244" lon="5.91855">
        <ele>271.2</ele>
        <time>2024-08-05T07:01:28Z</time>
      </trkpt>
      <trkpt lat="47.21245" lon="5.91853">
        <ele>271</ele>
        <time>2024-08-05T07:01:29Z</time>
      </trkpt>
      <trkpt lat="47.21246" lon="5.91852">
        <ele>271</ele>
        <time>2024-08-05T07:01:30Z</time>
      </trkpt>
      <trkpt lat="47.21247" lon="5.91851">
        <ele>271</ele>
        <time>2024-08-05T07:01:31Z</time>
      </trkpt>
      <trkpt lat="47.21249" lon="5.9185">
        <ele>270.8</ele>
        <time>2024-08-05T07:01:32Z</time>
      </trkpt>
      <trkpt lat="47.21251" lon="5.91848">
        <ele>270.6</ele>
        <time>2024-08-05T07:01:33Z</time>
      </trkpt>
      <trkpt lat="47.21253" lon="5.91846">
        <ele>270.4</ele>
        <time>2024-08-05T07:01:34Z</time>
      </trkpt>
      <trkpt lat="47.21257" lon="5.91844">
        <ele>270.4</ele>
        <time>2024-08-05T07:01:35Z</time>
      </trkpt>
      <trkpt lat="47.21262" lon="5.91842">
        <ele>270.2</ele>
        <time>2024-08-05T07:01:36Z</time>
      </trkpt>
      <trkpt lat="47.21266" lon="5.9184">
        <ele>270.2</ele>
        <time>2024-08-05T07:01:37Z</time>
      </trkpt>
      <trkpt lat="47.2127" lon="5.91837">
        <ele>270.2</ele>
        <time>2024-08-05T07:01:38Z</time>
      </trkpt>
      <trkpt lat="47.21274" lon="5.91835">
        <ele>269.8</ele>
        <time>2024-08-05T07:01:39Z</time>
      </trkpt>
      <trkpt lat="47.21278" lon="5.91832">
        <ele>269.6</ele>
        <time>2024-08-05T07:01:40Z</time>
      </trkpt>
      <trkpt lat="47.21282" lon="5.91829">
        <ele>269</ele>
        <time>2024-08-05T07:01:41Z</time>
      </trkpt>
      <trkpt lat="47.21285" lon="5.91825">
        <ele>268.6</ele>
        <time>2024-08-05T07:01:42Z</time>
      </trkpt>
      <trkpt lat="47.21288" lon="5.91822">
        <ele>268.2</ele>
        <time>2024-08-05T07:01:43Z</time>
      </trkpt>
      <trkpt lat="47.2129" lon="5.91816">
        <ele>268.2</ele>
        <time>2024-08-05T07:01:44Z</time>
      </trkpt>
      <trkpt lat="47.21291" lon="5.91812">
        <ele>267.8</ele>
        <time>2024-08-05T07:01:45Z</time>
      </trkpt>
      <trkpt lat="47.21293" lon="5.91809">
        <ele>267.4</ele>
        <time>2024-08-05T07:01:46Z</time>
      </trkpt>
      <trkpt lat="47.21296" lon="5.91806">
        <ele>267.2</ele>
        <time>2024-08-05T07:01:47Z</time>
      </trkpt>
      <trkpt lat="47.21299" lon="5.91805">
        <ele>267</ele>
        <time>2024-08-05T07:01:48Z</time>
      </trkpt>
      <trkpt lat="47.21302" lon="5.91805">
        <ele>267</ele>
        <time>2024-08-05T07:01:49Z</time>
      </trkpt>
      <trkpt lat="47.21305" lon="5.91806">
        <ele>266.8</ele>
        <time>2024-08-05T07:01:50Z</time>
      </trkpt>
      <trkpt lat="47.21309" lon="5.91808">
        <ele>266.8</ele>
        <time>2024-08-05T07:01:51Z</time>
      </trkpt>
      <trkpt lat="47.21312" lon="5.91811">
        <ele>266.8</ele>
        <time>2024-08-05T07:01:52Z</time>
      </trkpt>
      <trkpt lat="47.21315" lon="5.91813">
        <ele>266.8</ele>
        <time>2024-08-05T07:01:53Z</time>
      </trkpt>
      <trkpt lat="47.21318" lon="5.91816">
        <ele>266.8</ele>
        <time>2024-08-05T07:01:54Z</time>
      </trkpt>
      <trkpt lat="47.21322" lon="5.91819">
        <ele>267</ele>
        <time>2024-08-05T07:01:55Z</time>
      </trkpt>
      <trkpt lat="47.21325" lon="5.91822">
        <ele>266.8</ele>
        <time>2024-08-05T07:01:56Z</time>
      </trkpt>
      <trkpt lat="47.21327" lon="5.91825">
        <ele>267</ele>
        <time>2024-08-05T07:01:57Z</time>
      </trkpt>
      <trkpt lat="47.2133" lon="5.91828">
        <ele>267</ele>
        <time>2024-08-05T07:01:58Z</time>
      </trkpt>
      <trkpt lat="47.21333" lon="5.91831">
        <ele>266.8</ele>
        <time>2024-08-05T07:01:59Z</time>
      </trkpt>
      <trkpt lat="47.21336" lon="5.91834">
        <ele>267</ele>
        <time>2024-08-05T07:02:00Z</time>
      </trkpt>
      <trkpt lat="47.21338" lon="5.91837">
        <ele>267</ele>
        <time>2024-08-05T07:02:01Z</time>
      </trkpt>
      <trkpt lat="47.21341" lon="5.91839">
        <ele>267.2</ele>
        <time>2024-08-05T07:02:02Z</time>
      </trkpt>
      <trkpt lat="47.21343" lon="5.91841">
        <ele>267.2</ele>
        <time>2024-08-05T07:02:03Z</time>
      </trkpt>
      <trkpt lat="47.21346" lon="5.91844">
        <ele>267.6</ele>
        <time>2024-08-05T07:02:04Z</time>
      </trkpt>
      <trkpt lat="47.21349" lon="5.91846">
        <ele>267.8</ele>
        <time>2024-08-05T07:02:05Z</time>
      </trkpt>
      <trkpt lat="47.21352" lon="5.91848">
        <ele>267.8</ele>
        <time>2024-08-05T07:02:06Z</time>
      </trkpt>
      <trkpt lat="47.21355" lon="5.9185">
        <ele>268.2</ele>
        <time>2024-08-05T07:02:07Z</time>
      </trkpt>
      <trkpt lat="47.21358" lon="5.91852">
        <ele>268.4</ele>
        <time>2024-08-05T07:02:08Z</time>
      </trkpt>
      <trkpt lat="47.21361" lon="5.91854">
        <ele>268.8</ele>
        <time>2024-08-05T07:02:09Z</time>
      </trkpt>
      <trkpt lat="47.21363" lon="5.91857">
        <ele>269</ele>
        <time>2024-08-05T07:02:10Z</time>
      </trkpt>
      <trkpt lat="47.21366" lon="5.91859">
        <ele>269.6</ele>
        <time>2024-08-05T07:02:11Z</time>
      </trkpt>
      <trkpt lat="47.21369" lon="5.91861">
        <ele>270</ele>
        <time>2024-08-05T07:02:12Z</time>
      </trkpt>
      <trkpt lat="47.21372" lon="5.91864">
        <ele>270.4</ele>
        <time>2024-08-05T07:02:13Z</time>
      </trkpt>
      <trkpt lat="47.21375" lon="5.91866">
        <ele>270.4</ele>
        <time>2024-08-05T07:02:14Z</time>
      </trkpt>
      <trkpt lat="47.21378" lon="5.91869">
        <ele>270.6</ele>
        <time>2024-08-05T07:02:15Z</time>
      </trkpt>
      <trkpt lat="47.21381" lon="5.91871">
        <ele>271</ele>
        <time>2024-08-05T07:02:16Z</time>
      </trkpt>
      <trkpt lat="47.21384" lon="5.91874">
        <ele>271.2</ele>
        <time>2024-08-05T07:02:17Z</time>
      </trkpt>
      <trkpt lat="47.21387" lon="5.91876">
        <ele>271.4</ele>
        <time>2024-08-05T07:02:18Z</time>
      </trkpt>
      <trkpt lat="47.2139" lon="5.91879">
        <ele>271.8</ele>
        <time>2024-08-05T07:02:19Z</time>
      </trkpt>
      <trkpt lat="47.21393" lon="5.91882">
        <ele>272</ele>
        <time>2024-08-05T07:02:20Z</time>
      </trkpt>
      <trkpt lat="47.21396" lon="5.91884">
        <ele>272.4</ele>
        <time>2024-08-05T07:02:21Z</time>
      </trkpt>
      <trkpt lat="47.21399" lon="5.91887">
        <ele>272.6</ele>
        <time>2024-08-05T07:02:22Z</time>
      </trkpt>
      <trkpt lat="47.21402" lon="5.9189">
        <ele>272.6</ele>
        <time>2024-08-05T07:02:23Z</time>
      </trkpt>
      <trkpt lat="47.21405" lon="5.91892">
        <ele>272.8</ele>
        <time>2024-08-05T07:02:24Z</time>
      </trkpt>
      <trkpt lat="47.21408" lon="5.91895">
        <ele>273</ele>
        <time>2024-08-05T07:02:25Z</time>
      </trkpt>
      <trkpt lat="47.21411" lon="5.91897">
        <ele>273</ele>
        <time>2024-08-05T07:02:26Z</time>
      </trkpt>
      <trkpt lat="47.21414" lon="5.919">
        <ele>273.2</ele>
        <time>2024-08-05T07:02:27Z</time>
      </trkpt>
      <trkpt lat="47.21418" lon="5.91903">
        <ele>273.2</ele>
        <time>2024-08-05T07:02:28Z</time>
      </trkpt>
      <trkpt lat="47.21421" lon="5.91906">
        <ele>273.4</ele>
        <time>2024-08-05T07:02:29Z</time>
      </trkpt>
      <trkpt lat="47.21424" lon="5.91909">
        <ele>273.6</ele>
        <time>2024-08-05T07:02:30Z</time>
      </trkpt>
      <trkpt lat="47.21428" lon="5.91912">
        <ele>273.8</ele>
        <time>2024-08-05T07:02:31Z</time>
      </trkpt>
      <trkpt lat="47.21431" lon="5.91916">
        <ele>274</ele>
        <time>2024-08-05T07:02:32Z</time>
      </trkpt>
      <trkpt lat="47.21434" lon="5.9192">
        <ele>274</ele>
        <time>2024-08-05T07:02:33Z</time>
      </trkpt>
      <trkpt lat="47.21436" lon="5.91924">
        <ele>273.8</ele>
        <time>2024-08-05T07:02:34Z</time>
      </trkpt>
      <trkpt lat="47.2144" lon="5.91928">
        <ele>274</ele>
        <time>2024-08-05T07:02:35Z</time>
      </trkpt>
      <trkpt lat="47.21443" lon="5.91931">
        <ele>274</ele>
        <time>2024-08-05T07:02:36Z</time>
      </trkpt>
      <trkpt lat="47.21447" lon="5.91935">
        <ele>274</ele>
        <time>2024-08-05T07:02:37Z</time>
      </trkpt>
      <trkpt lat="47.2145" lon="5.91939">
        <ele>274.2</ele>
        <time>2024-08-05T07:02:38Z</time>
      </trkpt>
      <trkpt lat="47.21454" lon="5.91942">
        <ele>274.2</ele>
        <time>2024-08-05T07:02:39Z</time>
      </trkpt>
      <trkpt lat="47.21458" lon="5.91946">
        <ele>274.2</ele>
        <time>2024-08-05T07:02:40Z</time>
      </trkpt>
      <trkpt lat="47.21461" lon="5.9195">
        <ele>274.2</ele>
        <time>2024-08-05T07:02:41Z</time>
      </trkpt>
      <trkpt lat="47.21465" lon="5.91954">
        <ele>274.2</ele>
        <time>2024-08-05T07:02:42Z</time>
      </trkpt>
      <trkpt lat="47.21468" lon="5.91959">
        <ele>274.2</ele>
        <time>2024-08-05T07:02:43Z</time>
      </trkpt>
      <trkpt lat="47.21472" lon="5.91964">
        <ele>274.2</ele>
        <time>2024-08-05T07:02:44Z</time>
      </trkpt>
      <trkpt lat="47.21476" lon="5.91968">
        <ele>274.2</ele>
        <time>2024-08-05T07:02:45Z</time>
      </trkpt>
      <trkpt lat="47.2148" lon="5.91973">
        <ele>274.2</ele>
        <time>2024-08-05T07:02:46Z</time>
      </trkpt>
      <trkpt lat="47.21484" lon="5.91978">
        <ele>274.2</ele>
        <time>2024-08-05T07:02:47Z</time>
      </trkpt>
      <trkpt lat="47.21488" lon="5.91983">
        <ele>274</ele>
        <time>2024-08-05T07:02:48Z</time>
      </trkpt>
      <trkpt lat="47.21492" lon="5.91989">
        <ele>274.2</ele>
        <time>2024-08-05T07:02:49Z</time>
      </trkpt>
      <trkpt lat="47.21496" lon="5.91995">
        <ele>274.2</ele>
        <time>2024-08-05T07:02:50Z</time>
      </trkpt>
      <trkpt lat="47.215" lon="5.92002">
        <ele>274.2</ele>
        <time>2024-08-05T07:02:51Z</time>
      </trkpt>
      <trkpt lat="47.21505" lon="5.92008">
        <ele>274</ele>
        <time>2024-08-05T07:02:52Z</time>
      </trkpt>
      <trkpt lat="47.2151" lon="5.92015">
        <ele>274</ele>
        <time>2024-08-05T07:02:53Z</time>
      </trkpt>
      <trkpt lat="47.21516" lon="5.92022">
        <ele>274</ele>
        <time>2024-08-05T07:02:54Z</time>
      </trkpt>
      <trkpt lat="47.21522" lon="5.92029">
        <ele>273.8</ele>
        <time>2024-08-05T07:02:55Z</time>
      </trkpt>
      <trkpt lat="47.21528" lon="5.92036">
        <ele>273.6</ele>
        <time>2024-08-05T07:02:56Z</time>
      </trkpt>
      <trkpt lat="47.21534" lon="5.92044">
        <ele>273.2</ele>
        <time>2024-08-05T07:02:57Z</time>
      </trkpt>
      <trkpt lat="47.21541" lon="5.92051">
        <ele>273.2</ele>
        <time>2024-08-05T07:02:58Z</time>
      </trkpt>
      <trkpt lat="47.21549" lon="5.92058">
        <ele>272.8</ele>
        <time>2024-08-05T07:02:59Z</time>
      </trkpt>
      <trkpt lat="47.21557" lon="5.92065">
        <ele>272.2</ele>
        <time>2024-08-05T07:03:00Z</time>
      </trkpt>
      <trkpt lat="47.21565" lon="5.92071">
        <ele>271.8</ele>
        <time>2024-08-05T07:03:01Z</time>
      </trkpt>
      <trkpt lat="47.21573" lon="5.92077">
        <ele>271.6</ele>
        <time>2024-08-05T07:03:02Z</time>
      </trkpt>
      <trkpt lat="47.2158" lon="5.92081">
        <ele>271</ele>
        <time>2024-08-05T07:03:03Z</time>
      </trkpt>
      <trkpt lat="47.21586" lon="5.92085">
        <ele>270.4</ele>
        <time>2024-08-05T07:03:04Z</time>
      </trkpt>
      <trkpt lat="47.21592" lon="5.9209">
        <ele>269.4</ele>
        <time>2024-08-05T07:03:05Z</time>
      </trkpt>
      <trkpt lat="47.21597" lon="5.92094">
        <ele>268.4</ele>
        <time>2024-08-05T07:03:06Z</time>
      </trkpt>
      <trkpt lat="47.21601" lon="5.92099">
        <ele>267.6</ele>
        <time>2024-08-05T07:03:07Z</time>
      </trkpt>
      <trkpt lat="47.21604" lon="5.92104">
        <ele>267.4</ele>
        <time>2024-08-05T07:03:08Z</time>
      </trkpt>
      <trkpt lat="47.21606" lon="5.92109">
        <ele>267.2</ele>
        <time>2024-08-05T07:03:09Z</time>
      </trkpt>
      <trkpt lat="47.21608" lon="5.92115">
        <ele>267.2</ele>
        <time>2024-08-05T07:03:10Z</time>
      </trkpt>
      <trkpt lat="47.21611" lon="5.9212">
        <ele>267.2</ele>
        <time>2024-08-05T07:03:11Z</time>
      </trkpt>
      <trkpt lat="47.21612" lon="5.92125">
        <ele>267.2</ele>
        <time>2024-08-05T07:03:12Z</time>
      </trkpt>
      <trkpt lat="47.21614" lon="5.92131">
        <ele>267.2</ele>
        <time>2024-08-05T07:03:13Z</time>
      </trkpt>
      <trkpt lat="47.21616" lon="5.92137">
        <ele>267.2</ele>
        <time>2024-08-05T07:03:14Z</time>
      </trkpt>
      <trkpt lat="47.21617" lon="5.92143">
        <ele>267.2</ele>
        <time>2024-08-05T07:03:15Z</time>
      </trkpt>
      <trkpt lat="47.21618" lon="5.92148">
        <ele>267</ele>
        <time>2024-08-05T07:03:16Z</time>
      </trkpt>
      <trkpt lat="47.21618" lon="5.92153">
        <ele>267</ele>
        <time>2024-08-05T07:03:17Z</time>
      </trkpt>
      <trkpt lat="47.21619" lon="5.92158">
        <ele>267.2</ele>
        <time>2024-08-05T07:03:18Z</time>
      </trkpt>
      <trkpt lat="47.21621" lon="5.92162">
        <ele>267.4</ele>
        <time>2024-08-05T07:03:19Z</time>
      </trkpt>
      <trkpt lat="47.21623" lon="5.92166">
        <ele>267.6</ele>
        <time>2024-08-05T07:03:20Z</time>
      </trkpt>
      <trkpt lat="47.21625" lon="5.92171">
        <ele>268</ele>
        <time>2024-08-05T07:03:21Z</time>
      </trkpt>
      <trkpt lat="47.21628" lon="5.92176">
        <ele>268.4</ele>
        <time>2024-08-05T07:03:22Z</time>
      </trkpt>
      <trkpt lat="47.21631" lon="5.92181">
        <ele>268.8</ele>
        <time>2024-08-05T07:03:23Z</time>
      </trkpt>
      <trkpt lat="47.21634" lon="5.92187">
        <ele>269.2</ele>
        <time>2024-08-05T07:03:24Z</time>
      </trkpt>
      <trkpt lat="47.21636" lon="5.92192">
        <ele>269.8</ele>
        <time>2024-08-05T07:03:25Z</time>
      </trkpt>
      <trkpt lat="47.21638" lon="5.92196">
        <ele>270.2</ele>
        <time>2024-08-05T07:03:26Z</time>
      </trkpt>
      <trkpt lat="47.21641" lon="5.92198">
        <ele>270.6</ele>
        <time>2024-08-05T07:03:27Z</time>
      </trkpt>
      <trkpt lat="47.21645" lon="5.922">
        <ele>270.6</ele>
        <time>2024-08-05T07:03:28Z</time>
      </trkpt>
      <trkpt lat="47.21651" lon="5.92201">
        <ele>270.8</ele>
        <time>2024-08-05T07:03:29Z</time>
      </trkpt>
      <trkpt lat="47.21656" lon="5.92203">
        <ele>270.8</ele>
        <time>2024-08-05T07:03:30Z</time>
      </trkpt>
      <trkpt lat="47.2166" lon="5.92203">
        <ele>271</ele>
        <time>2024-08-05T07:03:31Z</time>
      </trkpt>
      <trkpt lat="47.21665" lon="5.92204">
        <ele>271</ele>
        <time>2024-08-05T07:03:32Z</time>
      </trkpt>
      <trkpt lat="47.21669" lon="5.92204">
        <ele>271</ele>
        <time>2024-08-05T07:03:33Z</time>
      </trkpt>
      <trkpt lat="47.21674" lon="5.92204">
        <ele>271</ele>
        <time>2024-08-05T07:03:34Z</time>
      </trkpt>
      <trkpt lat="47.21679" lon="5.92203">
        <ele>271</ele>
        <time>2024-08-05T07:03:35Z</time>
      </trkpt>
      <trkpt lat="47.21684" lon="5.92203">
        <ele>271</ele>
        <time>2024-08-05T07:03:36Z</time>
      </trkpt>
      <trkpt lat="47.2169" lon="5.92203">
        <ele>271</ele>
        <time>2024-08-05T07:03:37Z</time>
      </trkpt>
      <trkpt lat="47.21694" lon="5.92204">
        <ele>271</ele>
        <time>2024-08-05T07:03:38Z</time>
      </trkpt>
      <trkpt lat="47.21698" lon="5.92206">
        <ele>271.2</ele>
        <time>2024-08-05T07:03:39Z</time>
      </trkpt>
      <trkpt lat="47.21702" lon="5.92208">
        <ele>271</ele>
        <time>2024-08-05T07:03:40Z</time>
      </trkpt>
      <trkpt lat="47.21705" lon="5.92209">
        <ele>271.2</ele>
        <time>2024-08-05T07:03:41Z</time>
      </trkpt>
      <trkpt lat="47.21707" lon="5.92211">
        <ele>271.2</ele>
        <time>2024-08-05T07:03:42Z</time>
      </trkpt>
      <trkpt lat="47.2171" lon="5.92213">
        <ele>271.2</ele>
        <time>2024-08-05T07:03:43Z</time>
      </trkpt>
      <trkpt lat="47.21713" lon="5.92214">
        <ele>271.4</ele>
        <time>2024-08-05T07:03:44Z</time>
      </trkpt>
      <trkpt lat="47.21715" lon="5.92216">
        <ele>271.2</ele>
        <time>2024-08-05T07:03:45Z</time>
      </trkpt>
      <trkpt lat="47.21718" lon="5.92218">
        <ele>271.2</ele>
        <time>2024-08-05T07:03:46Z</time>
      </trkpt>
      <trkpt lat="47.2172" lon="5.9222">
        <ele>271.4</ele>
        <time>2024-08-05T07:03:47Z</time>
      </trkpt>
      <trkpt lat="47.21722" lon="5.92221">
        <ele>271.4</ele>
        <time>2024-08-05T07:03:48Z</time>
      </trkpt>
      <trkpt lat="47.21725" lon="5.92222">
        <ele>271.4</ele>
        <time>2024-08-05T07:03:49Z</time>
      </trkpt>
      <trkpt lat="47.21727" lon="5.92223">
        <ele>271.8</ele>
        <time>2024-08-05T07:03:50Z</time>
      </trkpt>
      <trkpt lat="47.2173" lon="5.92225">
        <ele>272</ele>
        <time>2024-08-05T07:03:51Z</time>
      </trkpt>
      <trkpt lat="47.21733" lon="5.92226">
        <ele>272.2</ele>
        <time>2024-08-05T07:03:52Z</time>
      </trkpt>
      <trkpt lat="47.21736" lon="5.92227">
        <ele>272.4</ele>
        <time>2024-08-05T07:03:53Z</time>
      </trkpt>
      <trkpt lat="47.21739" lon="5.92229">
        <ele>272.4</ele>
        <time>2024-08-05T07:03:54Z</time>
      </trkpt>
      <trkpt lat="47.21742" lon="5.9223">
        <ele>272.4</ele>
        <time>2024-08-05T07:03:55Z</time>
      </trkpt>
      <trkpt lat="47.21745" lon="5.9223">
        <ele>272.6</ele>
        <time>2024-08-05T07:03:56Z</time>
      </trkpt>
      <trkpt lat="47.21747" lon="5.9223">
        <ele>272.8</ele>
        <time>2024-08-05T07:03:57Z</time>
      </trkpt>
      <trkpt lat="47.21749" lon="5.92231">
        <ele>273</ele>
        <time>2024-08-05T07:03:58Z</time>
      </trkpt>
      <trkpt lat="47.21752" lon="5.92231">
        <ele>273</ele>
        <time>2024-08-05T07:03:59Z</time>
      </trkpt>
      <trkpt lat="47.21755" lon="5.92232">
        <ele>273.2</ele>
        <time>2024-08-05T07:04:00Z</time>
      </trkpt>
      <trkpt lat="47.21758" lon="5.92233">
        <ele>273.4</ele>
        <time>2024-08-05T07:04:01Z</time>
      </trkpt>
      <trkpt lat="47.21761" lon="5.92234">
        <ele>273.6</ele>
        <time>2024-08-05T07:04:02Z</time>
      </trkpt>
      <trkpt lat="47.21763" lon="5.92235">
        <ele>274</ele>
        <time>2024-08-05T07:04:03Z</time>
      </trkpt>
      <trkpt lat="47.21766" lon="5.92236">
        <ele>274</ele>
        <time>2024-08-05T07:04:04Z</time>
      </trkpt>
      <trkpt lat="47.21769" lon="5.92237">
        <ele>274.4</ele>
        <time>2024-08-05T07:04:05Z</time>
      </trkpt>
      <trkpt lat="47.21772" lon="5.92238">
        <ele>274.4</ele>
        <time>2024-08-05T07:04:06Z</time>
      </trkpt>
      <trkpt lat="47.21776" lon="5.92239">
        <ele>274.4</ele>
        <time>2024-08-05T07:04:07Z</time>
      </trkpt>
      <trkpt lat="47.21779" lon="5.9224">
        <ele>274.4</ele>
        <time>2024-08-05T07:04:08Z</time>
      </trkpt>
      <trkpt lat="47.21782" lon="5.92241">
        <ele>274.8</ele>
        <time>2024-08-05T07:04:09Z</time>
      </trkpt>
      <trkpt lat="47.21786" lon="5.92241">
        <ele>274.8</ele>
        <time>2024-08-05T07:04:10Z</time>
      </trkpt>
      <trkpt lat="47.2179" lon="5.92242">
        <ele>275.2</ele>
        <time>2024-08-05T07:04:11Z</time>
      </trkpt>
      <trkpt lat="47.21793" lon="5.92243">
        <ele>275.4</ele>
        <time>2024-08-05T07:04:12Z</time>
      </trkpt>
      <trkpt lat="47.21797" lon="5.92242">
        <ele>275.4</ele>
        <time>2024-08-05T07:04:13Z</time>
      </trkpt>
      <trkpt lat="47.21801" lon="5.92243">
        <ele>275.6</ele>
        <time>2024-08-05T07:04:14Z</time>
      </trkpt>
      <trkpt lat="47.21805" lon="5.92243">
        <ele>275.8</ele>
        <time>2024-08-05T07:04:15Z</time>
      </trkpt>
      <trkpt lat="47.21809" lon="5.92242">
        <ele>275.8</ele>
        <time>2024-08-05T07:04:16Z</time>
      </trkpt>
      <trkpt lat="47.21813" lon="5.9224">
        <ele>275.8</ele>
        <time>2024-08-05T07:04:17Z</time>
      </trkpt>
      <trkpt lat="47.21817" lon="5.92238">
        <ele>276</ele>
        <time>2024-08-05T07:04:18Z</time>
      </trkpt>
      <trkpt lat="47.21819" lon="5.92236">
        <ele>276.2</ele>
        <time>2024-08-05T07:04:19Z</time>
      </trkpt>
      <trkpt lat="47.21822" lon="5.92234">
        <ele>276.4</ele>
        <time>2024-08-05T07:04:20Z</time>
      </trkpt>
      <trkpt lat="47.21824" lon="5.92232">
        <ele>276.8</ele>
        <time>2024-08-05T07:04:21Z</time>
      </trkpt>
      <trkpt lat="47.21826" lon="5.9223">
        <ele>276.8</ele>
        <time>2024-08-05T07:04:22Z</time>
      </trkpt>
      <trkpt lat="47.21829" lon="5.92227">
        <ele>276.8</ele>
        <time>2024-08-05T07:04:23Z</time>
      </trkpt>
      <trkpt lat="47.21832" lon="5.92224">
        <ele>277</ele>
        <time>2024-08-05T07:04:24Z</time>
      </trkpt>
      <trkpt lat="47.21836" lon="5.92222">
        <ele>277.2</ele>
        <time>2024-08-05T07:04:25Z</time>
      </trkpt>
      <trkpt lat="47.21842" lon="5.92219">
        <ele>277.4</ele>
        <time>2024-08-05T07:04:26Z</time>
      </trkpt>
      <trkpt lat="47.21845" lon="5.92217">
        <ele>277.4</ele>
        <time>2024-08-05T07:04:27Z</time>
      </trkpt>
      <trkpt lat="47.21847" lon="5.92215">
        <ele>277.6</ele>
        <time>2024-08-05T07:04:28Z</time>
      </trkpt>
      <trkpt lat="47.2185" lon="5.92213">
        <ele>277.8</ele>
        <time>2024-08-05T07:04:29Z</time>
      </trkpt>
      <trkpt lat="47.21852" lon="5.92212">
        <ele>278</ele>
        <time>2024-08-05T07:04:30Z</time>
      </trkpt>
      <trkpt lat="47.21854" lon="5.92211">
        <ele>278.2</ele>
        <time>2024-08-05T07:04:31Z</time>
      </trkpt>
      <trkpt lat="47.21857" lon="5.9221">
        <ele>278.4</ele>
        <time>2024-08-05T07:04:32Z</time>
      </trkpt>
      <trkpt lat="47.21861" lon="5.92209">
        <ele>278.8</ele>
        <time>2024-08-05T07:04:33Z</time>
      </trkpt>
      <trkpt lat="47.21864" lon="5.92208">
        <ele>279.2</ele>
        <time>2024-08-05T07:04:34Z</time>
      </trkpt>
      <trkpt lat="47.21867" lon="5.92207">
        <ele>279.4</ele>
        <time>2024-08-05T07:04:35Z</time>
      </trkpt>
      <trkpt lat="47.2187" lon="5.92206">
        <ele>279.8</ele>
        <time>2024-08-05T07:04:36Z</time>
      </trkpt>
      <trkpt lat="47.21874" lon="5.92207">
        <ele>280.2</ele>
        <time>2024-08-05T07:04:37Z</time>
      </trkpt>
      <trkpt lat="47.21878" lon="5.92207">
        <ele>280.6</ele>
        <time>2024-08-05T07:04:38Z</time>
      </trkpt>
      <trkpt lat="47.21881" lon="5.92207">
        <ele>280.6</ele>
        <time>2024-08-05T07:04:39Z</time>
      </trkpt>
      <trkpt lat="47.21885" lon="5.92207">
        <ele>280.8</ele>
        <time>2024-08-05T07:04:40Z</time>
      </trkpt>
      <trkpt lat="47.21889" lon="5.92207">
        <ele>281.2</ele>
        <time>2024-08-05T07:04:41Z</time>
      </trkpt>
      <trkpt lat="47.21893" lon="5.92207">
        <ele>281.2</ele>
        <time>2024-08-05T07:04:42Z</time>
      </trkpt>
      <trkpt lat="47.21897" lon="5.92207">
        <ele>281.6</ele>
        <time>2024-08-05T07:04:43Z</time>
      </trkpt>
      <trkpt lat="47.21901" lon="5.92206">
        <ele>281.8</ele>
        <time>2024-08-05T07:04:44Z</time>
      </trkpt>
      <trkpt lat="47.21906" lon="5.92205">
        <ele>282.2</ele>
        <time>2024-08-05T07:04:45Z</time>
      </trkpt>
      <trkpt lat="47.2191" lon="5.92205">
        <ele>282.4</ele>
        <time>2024-08-05T07:04:46Z</time>
      </trkpt>
      <trkpt lat="47.21914" lon="5.92204">
        <ele>282.6</ele>
        <time>2024-08-05T07:04:47Z</time>
      </trkpt>
      <trkpt lat="47.21918" lon="5.92203">
        <ele>282.8</ele>
        <time>2024-08-05T07:04:48Z</time>
      </trkpt>
      <trkpt lat="47.21922" lon="5.92203">
        <ele>283</ele>
        <time>2024-08-05T07:04:49Z</time>
      </trkpt>
      <trkpt lat="47.21926" lon="5.92203">
        <ele>283.4</ele>
        <time>2024-08-05T07:04:50Z</time>
      </trkpt>
      <trkpt lat="47.21929" lon="5.92204">
        <ele>283.6</ele>
        <time>2024-08-05T07:04:51Z</time>
      </trkpt>
      <trkpt lat="47.21932" lon="5.92204">
        <ele>283.8</ele>
        <time>2024-08-05T07:04:52Z</time>
      </trkpt>
      <trkpt lat="47.21935" lon="5.92205">
        <ele>283.8</ele>
        <time>2024-08-05T07:04:53Z</time>
      </trkpt>
      <trkpt lat="47.21939" lon="5.92207">
        <ele>284</ele>
        <time>2024-08-05T07:04:54Z</time>
      </trkpt>
      <trkpt lat="47.21943" lon="5.92207">
        <ele>284</ele>
        <time>2024-08-05T07:04:55Z</time>
      </trkpt>
      <trkpt lat="47.21947" lon="5.92208">
        <ele>284.2</ele>
        <time>2024-08-05T07:04:56Z</time>
      </trkpt>
      <trkpt lat="47.2195" lon="5.92208">
        <ele>284.4</ele>
        <time>2024-08-05T07:04:57Z</time>
      </trkpt>
      <trkpt lat="47.21954" lon="5.92209">
        <ele>284.6</ele>
        <time>2024-08-05T07:04:58Z</time>
      </trkpt>
      <trkpt lat="47.21957" lon="5.92209">
        <ele>284.6</ele>
        <time>2024-08-05T07:04:59Z</time>
      </trkpt>
      <trkpt lat="47.2196" lon="5.92211">
        <ele>284.6</ele>
        <time>2024-08-05T07:05:00Z</time>
      </trkpt>
      <trkpt lat="47.21963" lon="5.92213">
        <ele>284.6</ele>
        <time>2024-08-05T07:05:01Z</time>
      </trkpt>
      <trkpt lat="47.21965" lon="5.92216">
        <ele>284.8</ele>
        <time>2024-08-05T07:05:02Z</time>
      </trkpt>
      <trkpt lat="47.21968" lon="5.92219">
        <ele>285</ele>
        <time>2024-08-05T07:05:03Z</time>
      </trkpt>
      <trkpt lat="47.21971" lon="5.92222">
        <ele>285</ele>
        <time>2024-08-05T07:05:04Z</time>
      </trkpt>
      <trkpt lat="47.21973" lon="5.92226">
        <ele>285</ele>
        <time>2024-08-05T07:05:05Z</time>
      </trkpt>
      <trkpt lat="47.21975" lon="5.9223">
        <ele>285.2</ele>
        <time>2024-08-05T07:05:06Z</time>
      </trkpt>
      <trkpt lat="47.21978" lon="5.92234">
        <ele>285</ele>
        <time>2024-08-05T07:05:07Z</time>
      </trkpt>
      <trkpt lat="47.2198" lon="5.92238">
        <ele>285</ele>
        <time>2024-08-05T07:05:08Z</time>
      </trkpt>
      <trkpt lat="47.21983" lon="5.92243">
        <ele>285.2</ele>
        <time>2024-08-05T07:05:09Z</time>
      </trkpt>
      <trkpt lat="47.21986" lon="5.92247">
        <ele>285</ele>
        <time>2024-08-05T07:05:10Z</time>
      </trkpt>
      <trkpt lat="47.21989" lon="5.92251">
        <ele>285</ele>
        <time>2024-08-05T07:05:11Z</time>
      </trkpt>
      <trkpt lat="47.21992" lon="5.92256">
        <ele>285</ele>
        <time>2024-08-05T07:05:12Z</time>
      </trkpt>
      <trkpt lat="47.21996" lon="5.9226">
        <ele>285</ele>
        <time>2024-08-05T07:05:13Z</time>
      </trkpt>
      <trkpt lat="47.22" lon="5.92263">
        <ele>285</ele>
        <time>2024-08-05T07:05:14Z</time>
      </trkpt>
      <trkpt lat="47.22004" lon="5.92266">
        <ele>285</ele>
        <time>2024-08-05T07:05:15Z</time>
      </trkpt>
      <trkpt lat="47.2201" lon="5.92268">
        <ele>284.8</ele>
        <time>2024-08-05T07:05:16Z</time>
      </trkpt>
      <trkpt lat="47.22016" lon="5.9227">
        <ele>284.8</ele>
        <time>2024-08-05T07:05:17Z</time>
      </trkpt>
      <trkpt lat="47.22022" lon="5.92272">
        <ele>284.6</ele>
        <time>2024-08-05T07:05:18Z</time>
      </trkpt>
      <trkpt lat="47.22029" lon="5.92273">
        <ele>284.4</ele>
        <time>2024-08-05T07:05:19Z</time>
      </trkpt>
      <trkpt lat="47.22036" lon="5.92274">
        <ele>284.2</ele>
        <time>2024-08-05T07:05:20Z</time>
      </trkpt>
      <trkpt lat="47.22044" lon="5.92275">
        <ele>284</ele>
        <time>2024-08-05T07:05:21Z</time>
      </trkpt>
      <trkpt lat="47.22052" lon="5.92277">
        <ele>284</ele>
        <time>2024-08-05T07:05:22Z</time>
      </trkpt>
      <trkpt lat="47.22061" lon="5.92279">
        <ele>283.6</ele>
        <time>2024-08-05T07:05:23Z</time>
      </trkpt>
      <trkpt lat="47.2207" lon="5.92281">
        <ele>283.4</ele>
        <time>2024-08-05T07:05:24Z</time>
      </trkpt>
      <trkpt lat="47.22079" lon="5.92284">
        <ele>282.8</ele>
        <time>2024-08-05T07:05:25Z</time>
      </trkpt>
      <trkpt lat="47.22088" lon="5.92287">
        <ele>282.4</ele>
        <time>2024-08-05T07:05:26Z</time>
      </trkpt>
      <trkpt lat="47.22097" lon="5.92291">
        <ele>282.2</ele>
        <time>2024-08-05T07:05:27Z</time>
      </trkpt>
      <trkpt lat="47.22107" lon="5.92295">
        <ele>281.6</ele>
        <time>2024-08-05T07:05:28Z</time>
      </trkpt>
      <trkpt lat="47.22116" lon="5.923">
        <ele>281</ele>
        <time>2024-08-05T07:05:29Z</time>
      </trkpt>
      <trkpt lat="47.22126" lon="5.92304">
        <ele>280.4</ele>
        <time>2024-08-05T07:05:30Z</time>
      </trkpt>
      <trkpt lat="47.22137" lon="5.92308">
        <ele>279.6</ele>
        <time>2024-08-05T07:05:31Z</time>
      </trkpt>
      <trkpt lat="47.22147" lon="5.92312">
        <ele>278.6</ele>
        <time>2024-08-05T07:05:32Z</time>
      </trkpt>
      <trkpt lat="47.22157" lon="5.92317">
        <ele>277.6</ele>
        <time>2024-08-05T07:05:33Z</time>
      </trkpt>
      <trkpt lat="47.22167" lon="5.92322">
        <ele>277</ele>
        <time>2024-08-05T07:05:34Z</time>
      </trkpt>
      <trkpt lat="47.22176" lon="5.92329">
        <ele>275.8</ele>
        <time>2024-08-05T07:05:35Z</time>
      </trkpt>
      <trkpt lat="47.22185" lon="5.92336">
        <ele>275</ele>
        <time>2024-08-05T07:05:36Z</time>
      </trkpt>
      <trkpt lat="47.22194" lon="5.92342">
        <ele>274.4</ele>
        <time>2024-08-05T07:05:37Z</time>
      </trkpt>
      <trkpt lat="47.22202" lon="5.9235">
        <ele>273.6</ele>
        <time>2024-08-05T07:05:38Z</time>
      </trkpt>
      <trkpt lat="47.22211" lon="5.92357">
        <ele>272.6</ele>
        <time>2024-08-05T07:05:39Z</time>
      </trkpt>
      <trkpt lat="47.22218" lon="5.92365">
        <ele>272</ele>
        <time>2024-08-05T07:05:40Z</time>
      </trkpt>
      <trkpt lat="47.22224" lon="5.92373">
        <ele>271.4</ele>
        <time>2024-08-05T07:05:41Z</time>
      </trkpt>
      <trkpt lat="47.2223" lon="5.9238">
        <ele>270.8</ele>
        <time>2024-08-05T07:05:42Z</time>
      </trkpt>
      <trkpt lat="47.22236" lon="5.92387">
        <ele>270.2</ele>
        <time>2024-08-05T07:05:43Z</time>
      </trkpt>
      <trkpt lat="47.22241" lon="5.92394">
        <ele>270.2</ele>
        <time>2024-08-05T07:05:44Z</time>
      </trkpt>
      <trkpt lat="47.22247" lon="5.92399">
        <ele>270</ele>
        <time>2024-08-05T07:05:45Z</time>
      </trkpt>
      <trkpt lat="47.22251" lon="5.92406">
        <ele>269.8</ele>
        <time>2024-08-05T07:05:46Z</time>
      </trkpt>
      <trkpt lat="47.22256" lon="5.92411">
        <ele>269.8</ele>
        <time>2024-08-05T07:05:47Z</time>
      </trkpt>
      <trkpt lat="47.2226" lon="5.92419">
        <ele>269.8</ele>
        <time>2024-08-05T07:05:48Z</time>
      </trkpt>
      <trkpt lat="47.22264" lon="5.92426">
        <ele>269.8</ele>
        <time>2024-08-05T07:05:49Z</time>
      </trkpt>
      <trkpt lat="47.22267" lon="5.92431">
        <ele>269.6</ele>
        <time>2024-08-05T07:05:50Z</time>
      </trkpt>
      <trkpt lat="47.22271" lon="5.92436">
        <ele>269.8</ele>
        <time>2024-08-05T07:05:51Z</time>
      </trkpt>
      <trkpt lat="47.22275" lon="5.9244">
        <ele>269.8</ele>
        <time>2024-08-05T07:05:52Z</time>
      </trkpt>
      <trkpt lat="47.22278" lon="5.92442">
        <ele>269.6</ele>
        <time>2024-08-05T07:05:53Z</time>
      </trkpt>
      <trkpt lat="47.22281" lon="5.92443">
        <ele>270</ele>
        <time>2024-08-05T07:05:54Z</time>
      </trkpt>
      <trkpt lat="47.22283" lon="5.92443">
        <ele>270</ele>
        <time>2024-08-05T07:05:55Z</time>
      </trkpt>
      <trkpt lat="47.22286" lon="5.92441">
        <ele>270</ele>
        <time>2024-08-05T07:05:56Z</time>
      </trkpt>
      <trkpt lat="47.22289" lon="5.92438">
        <ele>270</ele>
        <time>2024-08-05T07:05:57Z</time>
      </trkpt>
      <trkpt lat="47.22292" lon="5.92435">
        <ele>270</ele>
        <time>2024-08-05T07:05:58Z</time>
      </trkpt>
      <trkpt lat="47.22294" lon="5.92433">
        <ele>270</ele>
        <time>2024-08-05T07:05:59Z</time>
      </trkpt>
      <trkpt lat="47.22298" lon="5.92431">
        <ele>270</ele>
        <time>2024-08-05T07:06:00Z</time>
      </trkpt>
      <trkpt lat="47.22301" lon="5.92429">
        <ele>270.2</ele>
        <time>2024-08-05T07:06:01Z</time>
      </trkpt>
      <trkpt lat="47.22305" lon="5.92427">
        <ele>270.2</ele>
        <time>2024-08-05T07:06:02Z</time>
      </trkpt>
      <trkpt lat="47.2231" lon="5.92425">
        <ele>270</ele>
        <time>2024-08-05T07:06:03Z</time>
      </trkpt>
      <trkpt lat="47.22316" lon="5.92424">
        <ele>270.2</ele>
        <time>2024-08-05T07:06:04Z</time>
      </trkpt>
      <trkpt lat="47.22321" lon="5.92425">
        <ele>270</ele>
        <time>2024-08-05T07:06:05Z</time>
      </trkpt>
      <trkpt lat="47.22326" lon="5.92426">
        <ele>270</ele>
        <time>2024-08-05T07:06:06Z</time>
      </trkpt>
      <trkpt lat="47.22331" lon="5.92428">
        <ele>270</ele>
        <time>2024-08-05T07:06:07Z</time>
      </trkpt>
      <trkpt lat="47.22335" lon="5.92429">
        <ele>270</ele>
        <time>2024-08-05T07:06:08Z</time>
      </trkpt>
      <trkpt lat="47.22339" lon="5.9243">
        <ele>270</ele>
        <time>2024-08-05T07:06:09Z</time>
      </trkpt>
      <trkpt lat="47.22341" lon="5.9243">
        <ele>270</ele>
        <time>2024-08-05T07:06:10Z</time>
      </trkpt>
      <trkpt lat="47.22342" lon="5.92429">
        <ele>269.8</ele>
        <time>2024-08-05T07:06:11Z</time>
      </trkpt>
      <trkpt lat="47.22342" lon="5.92428">
        <ele>269.6</ele>
        <time>2024-08-05T07:06:12Z</time>
      </trkpt>
      <trkpt lat="47.22342" lon="5.92427">
        <ele>269.2</ele>
        <time>2024-08-05T07:06:13Z</time>
      </trkpt>
      <trkpt lat="47.22342" lon="5.92426">
        <ele>269</ele>
        <time>2024-08-05T07:06:14Z</time>
      </trkpt>
      <trkpt lat="47.22343" lon="5.92425">
        <ele>268.8</ele>
        <time>2024-08-05T07:06:15Z</time>
      </trkpt>
      <trkpt lat="47.22344" lon="5.92423">
        <ele>268.4</ele>
        <time>2024-08-05T07:06:16Z</time>
      </trkpt>
      <trkpt lat="47.22346" lon="5.92421">
        <ele>268</ele>
        <time>2024-08-05T07:06:17Z</time>
      </trkpt>
      <trkpt lat="47.22348" lon="5.9242">
        <ele>267.6</ele>
        <time>2024-08-05T07:06:18Z</time>
      </trkpt>
      <trkpt lat="47.22351" lon="5.92418">
        <ele>267.6</ele>
        <time>2024-08-05T07:06:19Z</time>
      </trkpt>
      <trkpt lat="47.22354" lon="5.92415">
        <ele>267.4</ele>
        <time>2024-08-05T07:06:20Z</time>
      </trkpt>
      <trkpt lat="47.22357" lon="5.92413">
        <ele>267.2</ele>
        <time>2024-08-05T07:06:21Z</time>
      </trkpt>
      <trkpt lat="47.2236" lon="5.92411">
        <ele>267.2</ele>
        <time>2024-08-05T07:06:22Z</time>
      </trkpt>
      <trkpt lat="47.22364" lon="5.92408">
        <ele>267.2</ele>
        <time>2024-08-05T07:06:23Z</time>
      </trkpt>
      <trkpt lat="47.22368" lon="5.92406">
        <ele>267.2</ele>
        <time>2024-08-05T07:06:24Z</time>
      </trkpt>
      <trkpt lat="47.22371" lon="5.92404">
        <ele>267.2</ele>
        <time>2024-08-05T07:06:25Z</time>
      </trkpt>
      <trkpt lat="47.22375" lon="5.92401">
        <ele>267.2</ele>
        <time>2024-08-05T07:06:26Z</time>
      </trkpt>
      <trkpt lat="47.22378" lon="5.92398">
        <ele>267.2</ele>
        <time>2024-08-05T07:06:27Z</time>
      </trkpt>
      <trkpt lat="47.22382" lon="5.92396">
        <ele>267.2</ele>
        <time>2024-08-05T07:06:28Z</time>
      </trkpt>
      <trkpt lat="47.22386" lon="5.92393">
        <ele>267.2</ele>
        <time>2024-08-05T07:06:29Z</time>
      </trkpt>
      <trkpt lat="47.2239" lon="5.92391">
        <ele>267.2</ele>
        <time>2024-08-05T07:06:30Z</time>
      </trkpt>
      <trkpt lat="47.22394" lon="5.92389">
        <ele>267</ele>
        <time>2024-08-05T07:06:31Z</time>
      </trkpt>
      <trkpt lat="47.22397" lon="5.92387">
        <ele>267</ele>
        <time>2024-08-05T07:06:32Z</time>
      </trkpt>
      <trkpt lat="47.224" lon="5.92385">
        <ele>267.2</ele>
        <time>2024-08-05T07:06:33Z</time>
      </trkpt>
      <trkpt lat="47.22401" lon="5.92384">
        <ele>267.2</ele>
        <time>2024-08-05T07:06:34Z</time>
      </trkpt>
      <trkpt lat="47.22403" lon="5.92382">
        <ele>267.4</ele>
        <time>2024-08-05T07:06:35Z</time>
      </trkpt>
      <trkpt lat="47.22404" lon="5.9238">
        <ele>267.2</ele>
        <time>2024-08-05T07:06:36Z</time>
      </trkpt>
      <trkpt lat="47.22405" lon="5.92376">
        <ele>267.6</ele>
        <time>2024-08-05T07:06:37Z</time>
      </trkpt>
      <trkpt lat="47.22406" lon="5.92372">
        <ele>267.6</ele>
        <time>2024-08-05T07:06:38Z</time>
      </trkpt>
      <trkpt lat="47.22406" lon="5.92368">
        <ele>268</ele>
        <time>2024-08-05T07:06:39Z</time>
      </trkpt>
      <trkpt lat="47.22406" lon="5.92364">
        <ele>268</ele>
        <time>2024-08-05T07:06:40Z</time>
      </trkpt>
      <trkpt lat="47.22406" lon="5.9236">
        <ele>268.2</ele>
        <time>2024-08-05T07:06:41Z</time>
      </trkpt>
      <trkpt lat="47.22406" lon="5.92357">
        <ele>268.4</ele>
        <time>2024-08-05T07:06:42Z</time>
      </trkpt>
      <trkpt lat="47.22406" lon="5.92352">
        <ele>268.4</ele>
        <time>2024-08-05T07:06:43Z</time>
      </trkpt>
      <trkpt lat="47.22406" lon="5.92348">
        <ele>268.8</ele>
        <time>2024-08-05T07:06:44Z</time>
      </trkpt>
      <trkpt lat="47.22406" lon="5.92344">
        <ele>268.8</ele>
        <time>2024-08-05T07:06:45Z</time>
      </trkpt>
      <trkpt lat="47.22406" lon="5.9234">
        <ele>269.4</ele>
        <time>2024-08-05T07:06:46Z</time>
      </trkpt>
      <trkpt lat="47.22407" lon="5.92336">
        <ele>269.2</ele>
        <time>2024-08-05T07:06:47Z</time>
      </trkpt>
      <trkpt lat="47.22407" lon="5.92331">
        <ele>269.4</ele>
        <time>2024-08-05T07:06:48Z</time>
      </trkpt>
      <trkpt lat="47.22407" lon="5.92327">
        <ele>269.4</ele>
        <time>2024-08-05T07:06:49Z</time>
      </trkpt>
      <trkpt lat="47.22408" lon="5.92322">
        <ele>269.4</ele>
        <time>2024-08-05T07:06:50Z</time>
      </trkpt>
      <trkpt lat="47.22408" lon="5.92317">
        <ele>269.6</ele>
        <time>2024-08-05T07:06:51Z</time>
      </trkpt>
      <trkpt lat="47.22408" lon="5.92312">
        <ele>269.8</ele>
        <time>2024-08-05T07:06:52Z</time>
      </trkpt>
      <trkpt lat="47.22409" lon="5.92306">
        <ele>269.8</ele>
        <time>2024-08-05T07:06:53Z</time>
      </trkpt>
      <trkpt lat="47.22409" lon="5.92301">
        <ele>270</ele>
        <time>2024-08-05T07:06:54Z</time>
      </trkpt>
      <trkpt lat="47.22409" lon="5.92296">
        <ele>270.2</ele>
        <time>2024-08-05T07:06:55Z</time>
      </trkpt>
      <trkpt lat="47.2241" lon="5.92291">
        <ele>270</ele>
        <time>2024-08-05T07:06:56Z</time>
      </trkpt>
      <trkpt lat="47.2241" lon="5.92287">
        <ele>270</ele>
        <time>2024-08-05T07:06:57Z</time>
      </trkpt>
      <trkpt lat="47.22411" lon="5.92281">
        <ele>270.2</ele>
        <time>2024-08-05T07:06:58Z</time>
      </trkpt>
      <trkpt lat="47.22413" lon="5.92276">
        <ele>270.4</ele>
        <time>2024-08-05T07:06:59Z</time>
      </trkpt>
      <trkpt lat="47.22414" lon="5.9227">
        <ele>270.2</ele>
        <time>2024-08-05T07:07:00Z</time>
      </trkpt>
      <trkpt lat="47.22415" lon="5.92265">
        <ele>270.4</ele>
        <time>2024-08-05T07:07:01Z</time>
      </trkpt>
      <trkpt lat="47.22416" lon="5.9226">
        <ele>270.4</ele>
        <time>2024-08-05T07:07:02Z</time>
      </trkpt>
      <trkpt lat="47.22418" lon="5.92255">
        <ele>270.4</ele>
        <time>2024-08-05T07:07:03Z</time>
      </trkpt>
      <trkpt lat="47.2242" lon="5.92249">
        <ele>270.4</ele>
        <time>2024-08-05T07:07:04Z</time>
      </trkpt>
      <trkpt lat="47.22422" lon="5.92243">
        <ele>270.2</ele>
        <time>2024-08-05T07:07:05Z</time>
      </trkpt>
      <trkpt lat="47.22426" lon="5.92236">
        <ele>270.4</ele>
        <time>2024-08-05T07:07:06Z</time>
      </trkpt>
      <trkpt lat="47.2243" lon="5.92227">
        <ele>270.4</ele>
        <time>2024-08-05T07:07:07Z</time>
      </trkpt>
      <trkpt lat="47.22435" lon="5.92217">
        <ele>270.2</ele>
        <time>2024-08-05T07:07:08Z</time>
      </trkpt>
      <trkpt lat="47.22439" lon="5.92208">
        <ele>270.2</ele>
        <time>2024-08-05T07:07:09Z</time>
      </trkpt>
      <trkpt lat="47.22444" lon="5.92198">
        <ele>270</ele>
        <time>2024-08-05T07:07:10Z</time>
      </trkpt>
      <trkpt lat="47.22448" lon="5.92188">
        <ele>270</ele>
        <time>2024-08-05T07:07:11Z</time>
      </trkpt>
      <trkpt lat="47.22453" lon="5.92178">
        <ele>269.8</ele>
        <time>2024-08-05T07:07:12Z</time>
      </trkpt>
      <trkpt lat="47.22457" lon="5.92169">
        <ele>269.4</ele>
        <time>2024-08-05T07:07:13Z</time>
      </trkpt>
      <trkpt lat="47.22462" lon="5.92158">
        <ele>269.2</ele>
        <time>2024-08-05T07:07:14Z</time>
      </trkpt>
      <trkpt lat="47.22467" lon="5.92148">
        <ele>268.8</ele>
        <time>2024-08-05T07:07:15Z</time>
      </trkpt>
      <trkpt lat="47.22472" lon="5.92137">
        <ele>268.6</ele>
        <time>2024-08-05T07:07:16Z</time>
      </trkpt>
      <trkpt lat="47.22476" lon="5.92128">
        <ele>268.2</ele>
        <time>2024-08-05T07:07:17Z</time>
      </trkpt>
      <trkpt lat="47.2248" lon="5.92119">
        <ele>267.8</ele>
        <time>2024-08-05T07:07:18Z</time>
      </trkpt>
      <trkpt lat="47.22484" lon="5.92111">
        <ele>267.4</ele>
        <time>2024-08-05T07:07:19Z</time>
      </trkpt>
      <trkpt lat="47.22487" lon="5.92103">
        <ele>266.8</ele>
        <time>2024-08-05T07:07:20Z</time>
      </trkpt>
      <trkpt lat="47.2249" lon="5.92094">
        <ele>266.6</ele>
        <time>2024-08-05T07:07:21Z</time>
      </trkpt>
      <trkpt lat="47.22494" lon="5.92085">
        <ele>266.2</ele>
        <time>2024-08-05T07:07:22Z</time>
      </trkpt>
      <trkpt lat="47.22497" lon="5.92077">
        <ele>265.8</ele>
        <time>2024-08-05T07:07:23Z</time>
      </trkpt>
      <trkpt lat="47.22499" lon="5.92069">
        <ele>265.6</ele>
        <time>2024-08-05T07:07:24Z</time>
      </trkpt>
      <trkpt lat="47.22501" lon="5.92061">
        <ele>265.4</ele>
        <time>2024-08-05T07:07:25Z</time>
      </trkpt>
      <trkpt lat="47.22503" lon="5.92054">
        <ele>265.4</ele>
        <time>2024-08-05T07:07:26Z</time>
      </trkpt>
      <trkpt lat="47.22505" lon="5.92047">
        <ele>265.2</ele>
        <time>2024-08-05T07:07:27Z</time>
      </trkpt>
      <trkpt lat="47.22507" lon="5.92039">
        <ele>265.2</ele>
        <time>2024-08-05T07:07:28Z</time>
      </trkpt>
      <trkpt lat="47.22508" lon="5.92031">
        <ele>265.2</ele>
        <time>2024-08-05T07:07:29Z</time>
      </trkpt>
      <trkpt lat="47.22507" lon="5.92022">
        <ele>265.4</ele>
        <time>2024-08-05T07:07:30Z</time>
      </trkpt>
      <trkpt lat="47.22508" lon="5.92014">
        <ele>265.2</ele>
        <time>2024-08-05T07:07:31Z</time>
      </trkpt>
      <trkpt lat="47.22508" lon="5.92007">
        <ele>265.2</ele>
        <time>2024-08-05T07:07:32Z</time>
      </trkpt>
      <trkpt lat="47.22507" lon="5.92">
        <ele>265.2</ele>
        <time>2024-08-05T07:07:33Z</time>
      </trkpt>
      <trkpt lat="47.22507" lon="5.91994">
        <ele>265.2</ele>
        <time>2024-08-05T07:07:34Z</time>
      </trkpt>
      <trkpt lat="47.22507" lon="5.91987">
        <ele>265</ele>
        <time>2024-08-05T07:07:35Z</time>
      </trkpt>
      <trkpt lat="47.22507" lon="5.91981">
        <ele>265.2</ele>
        <time>2024-08-05T07:07:36Z</time>
      </trkpt>
      <trkpt lat="47.22507" lon="5.91976">
        <ele>265</ele>
        <time>2024-08-05T07:07:37Z</time>
      </trkpt>
      <trkpt lat="47.22507" lon="5.9197">
        <ele>265.2</ele>
        <time>2024-08-05T07:07:38Z</time>
      </trkpt>
      <trkpt lat="47.22507" lon="5.91964">
        <ele>265</ele>
        <time>2024-08-05T07:07:39Z</time>
      </trkpt>
      <trkpt lat="47.22507" lon="5.91957">
        <ele>265.2</ele>
        <time>2024-08-05T07:07:40Z</time>
      </trkpt>
      <trkpt lat="47.22507" lon="5.91952">
        <ele>265</ele>
        <time>2024-08-05T07:07:41Z</time>
      </trkpt>
      <trkpt lat="47.22506" lon="5.91946">
        <ele>265.2</ele>
        <time>2024-08-05T07:07:42Z</time>
      </trkpt>
      <trkpt lat="47.22506" lon="5.91941">
        <ele>265.4</ele>
        <time>2024-08-05T07:07:43Z</time>
      </trkpt>
      <trkpt lat="47.22506" lon="5.91935">
        <ele>265.6</ele>
        <time>2024-08-05T07:07:44Z</time>
      </trkpt>
      <trkpt lat="47.22505" lon="5.9193">
        <ele>265.6</ele>
        <time>2024-08-05T07:07:45Z</time>
      </trkpt>
      <trkpt lat="47.22505" lon="5.91925">
        <ele>266</ele>
        <time>2024-08-05T07:07:46Z</time>
      </trkpt>
      <trkpt lat="47.22506" lon="5.9192">
        <ele>266.2</ele>
        <time>2024-08-05T07:07:47Z</time>
      </trkpt>
      <trkpt lat="47.22506" lon="5.91914">
        <ele>266.6</ele>
        <time>2024-08-05T07:07:48Z</time>
      </trkpt>
      <trkpt lat="47.22506" lon="5.9191">
        <ele>266.8</ele>
        <time>2024-08-05T07:07:49Z</time>
      </trkpt>
      <trkpt lat="47.22506" lon="5.91904">
        <ele>267.2</ele>
        <time>2024-08-05T07:07:50Z</time>
      </trkpt>
      <trkpt lat="47.22507" lon="5.91899">
        <ele>267.4</ele>
        <time>2024-08-05T07:07:51Z</time>
      </trkpt>
      <trkpt lat="47.22507" lon="5.91894">
        <ele>267.6</ele>
        <time>2024-08-05T07:07:52Z</time>
      </trkpt>
      <trkpt lat="47.22507" lon="5.91888">
        <ele>267.8</ele>
        <time>2024-08-05T07:07:53Z</time>
      </trkpt>
      <trkpt lat="47.22506" lon="5.91883">
        <ele>268.2</ele>
        <time>2024-08-05T07:07:54Z</time>
      </trkpt>
      <trkpt lat="47.22506" lon="5.91879">
        <ele>268.2</ele>
        <time>2024-08-05T07:07:55Z</time>
      </trkpt>
      <trkpt lat="47.22506" lon="5.91875">
        <ele>268.4</ele>
        <time>2024-08-05T07:07:56Z</time>
      </trkpt>
      <trkpt lat="47.22506" lon="5.91872">
        <ele>268.4</ele>
        <time>2024-08-05T07:07:57Z</time>
      </trkpt>
      <trkpt lat="47.22506" lon="5.91869">
        <ele>268.8</ele>
        <time>2024-08-05T07:07:58Z</time>
      </trkpt>
      <trkpt lat="47.22507" lon="5.91866">
        <ele>269</ele>
        <time>2024-08-05T07:07:59Z</time>
      </trkpt>
      <trkpt lat="47.22507" lon="5.91864">
        <ele>269.4</ele>
        <time>2024-08-05T07:08:00Z</time>
      </trkpt>
      <trkpt lat="47.22507" lon="5.91862">
        <ele>269.4</ele>
        <time>2024-08-05T07:08:01Z</time>
      </trkpt>
      <trkpt lat="47.22506" lon="5.91861">
        <ele>269.6</ele>
        <time>2024-08-05T07:08:02Z</time>
      </trkpt>
      <trkpt lat="47.22506" lon="5.9186">
        <ele>269.8</ele>
        <time>2024-08-05T07:08:03Z</time>
      </trkpt>
      <trkpt lat="47.22505" lon="5.91858">
        <ele>270</ele>
        <time>2024-08-05T07:08:04Z</time>
      </trkpt>
      <trkpt lat="47.22503" lon="5.91857">
        <ele>270.2</ele>
        <time>2024-08-05T07:08:05Z</time>
      </trkpt>
      <trkpt lat="47.22501" lon="5.91857">
        <ele>270.4</ele>
        <time>2024-08-05T07:08:06Z</time>
      </trkpt>
      <trkpt lat="47.22498" lon="5.91857">
        <ele>270.4</ele>
        <time>2024-08-05T07:08:07Z</time>
      </trkpt>
      <trkpt lat="47.22495" lon="5.91857">
        <ele>270.4</ele>
        <time>2024-08-05T07:08:08Z</time>
      </trkpt>
      <trkpt lat="47.22492" lon="5.91857">
        <ele>270.4</ele>
        <time>2024-08-05T07:08:09Z</time>
      </trkpt>
      <trkpt lat="47.2249" lon="5.91856">
        <ele>270.6</ele>
        <time>2024-08-05T07:08:10Z</time>
      </trkpt>
      <trkpt lat="47.22486" lon="5.91856">
        <ele>270.6</ele>
        <time>2024-08-05T07:08:11Z</time>
      </trkpt>
      <trkpt lat="47.22483" lon="5.91856">
        <ele>270.4</ele>
        <time>2024-08-05T07:08:12Z</time>
      </trkpt>
      <trkpt lat="47.22479" lon="5.91856">
        <ele>270.6</ele>
        <time>2024-08-05T07:08:13Z</time>
      </trkpt>
      <trkpt lat="47.22475" lon="5.91856">
        <ele>270.6</ele>
        <time>2024-08-05T07:08:14Z</time>
      </trkpt>
      <trkpt lat="47.22471" lon="5.91855">
        <ele>270.6</ele>
        <time>2024-08-05T07:08:15Z</time>
      </trkpt>
      <trkpt lat="47.22467" lon="5.91854">
        <ele>270.6</ele>
        <time>2024-08-05T07:08:16Z</time>
      </trkpt>
      <trkpt lat="47.22463" lon="5.91852">
        <ele>270.6</ele>
        <time>2024-08-05T07:08:17Z</time>
      </trkpt>
      <trkpt lat="47.22458" lon="5.9185">
        <ele>270.6</ele>
        <time>2024-08-05T07:08:18Z</time>
      </trkpt>
      <trkpt lat="47.22454" lon="5.91847">
        <ele>270.6</ele>
        <time>2024-08-05T07:08:19Z</time>
      </trkpt>
      <trkpt lat="47.2245" lon="5.91845">
        <ele>270.6</ele>
        <time>2024-08-05T07:08:20Z</time>
      </trkpt>
      <trkpt lat="47.22445" lon="5.91843">
        <ele>270.6</ele>
        <time>2024-08-05T07:08:21Z</time>
      </trkpt>
      <trkpt lat="47.22441" lon="5.9184">
        <ele>270.6</ele>
        <time>2024-08-05T07:08:22Z</time>
      </trkpt>
      <trkpt lat="47.22437" lon="5.91837">
        <ele>270.6</ele>
        <time>2024-08-05T07:08:23Z</time>
      </trkpt>
      <trkpt lat="47.22434" lon="5.91834">
        <ele>270.6</ele>
        <time>2024-08-05T07:08:24Z</time>
      </trkpt>
      <trkpt lat="47.2243" lon="5.91831">
        <ele>270.2</ele>
        <time>2024-08-05T07:08:25Z</time>
      </trkpt>
      <trkpt lat="47.22426" lon="5.91827">
        <ele>270.4</ele>
        <time>2024-08-05T07:08:26Z</time>
      </trkpt>
      <trkpt lat="47.22423" lon="5.91823">
        <ele>270.2</ele>
        <time>2024-08-05T07:08:27Z</time>
      </trkpt>
      <trkpt lat="47.22419" lon="5.91819">
        <ele>270.2</ele>
        <time>2024-08-05T07:08:28Z</time>
      </trkpt>
      <trkpt lat="47.22416" lon="5.91815">
        <ele>270.2</ele>
        <time>2024-08-05T07:08:29Z</time>
      </trkpt>
      <trkpt lat="47.22414" lon="5.91811">
        <ele>270</ele>
        <time>2024-08-05T07:08:30Z</time>
      </trkpt>
      <trkpt lat="47.22411" lon="5.91808">
        <ele>269.8</ele>
        <time>2024-08-05T07:08:31Z</time>
      </trkpt>
      <trkpt lat="47.22409" lon="5.91806">
        <ele>269.8</ele>
        <time>2024-08-05T07:08:32Z</time>
      </trkpt>
      <trkpt lat="47.22408" lon="5.91803">
        <ele>269.8</ele>
        <time>2024-08-05T07:08:33Z</time>
      </trkpt>
      <trkpt lat="47.22407" lon="5.91802">
        <ele>269.8</ele>
        <time>2024-08-05T07:08:34Z</time>
      </trkpt>
      <trkpt lat="47.22406" lon="5.91801">
        <ele>269.4</ele>
        <time>2024-08-05T07:08:35Z</time>
      </trkpt>
      <trkpt lat="47.22405" lon="5.91803">
        <ele>269.2</ele>
        <time>2024-08-05T07:08:36Z</time>
      </trkpt>
      <trkpt lat="47.22406" lon="5.91804">
        <ele>269</ele>
        <time>2024-08-05T07:08:37Z</time>
      </trkpt>
      <trkpt lat="47.22407" lon="5.91805">
        <ele>269</ele>
        <time>2024-08-05T07:08:38Z</time>
      </trkpt>
      <trkpt lat="47.22408" lon="5.91804">
        <ele>268.8</ele>
        <time>2024-08-05T07:08:39Z</time>
      </trkpt>
      <trkpt lat="47.22409" lon="5.91802">
        <ele>268.6</ele>
        <time>2024-08-05T07:08:40Z</time>
      </trkpt>
      <trkpt lat="47.22411" lon="5.91798">
        <ele>268.4</ele>
        <time>2024-08-05T07:08:41Z</time>
      </trkpt>
      <trkpt lat="47.22413" lon="5.91794">
        <ele>268.4</ele>
        <time>2024-08-05T07:08:42Z</time>
      </trkpt>
      <trkpt lat="47.22415" lon="5.91789">
        <ele>268.2</ele>
        <time>2024-08-05T07:08:43Z</time>
      </trkpt>
      <trkpt lat="47.22418" lon="5.91783">
        <ele>268.2</ele>
        <time>2024-08-05T07:08:44Z</time>
      </trkpt>
      <trkpt lat="47.2242" lon="5.91777">
        <ele>268.2</ele>
        <time>2024-08-05T07:08:45Z</time>
      </trkpt>
      <trkpt lat="47.22423" lon="5.91769">
        <ele>268.2</ele>
        <time>2024-08-05T07:08:46Z</time>
      </trkpt>
      <trkpt lat="47.22427" lon="5.9176">
        <ele>268</ele>
        <time>2024-08-05T07:08:47Z</time>
      </trkpt>
      <trkpt lat="47.2243" lon="5.91752">
        <ele>268</ele>
        <time>2024-08-05T07:08:48Z</time>
      </trkpt>
      <trkpt lat="47.22434" lon="5.91742">
        <ele>268.2</ele>
        <time>2024-08-05T07:08:49Z</time>
      </trkpt>
      <trkpt lat="47.22436" lon="5.91734">
        <ele>267.8</ele>
        <time>2024-08-05T07:08:50Z</time>
      </trkpt>
      <trkpt lat="47.22439" lon="5.91725">
        <ele>267.2</ele>
        <time>2024-08-05T07:08:51Z</time>
      </trkpt>
      <trkpt lat="47.22441" lon="5.91716">
        <ele>266.8</ele>
        <time>2024-08-05T07:08:52Z</time>
      </trkpt>
      <trkpt lat="47.22442" lon="5.91707">
        <ele>266.2</ele>
        <time>2024-08-05T07:08:53Z</time>
      </trkpt>
      <trkpt lat="47.22442" lon="5.91699">
        <ele>265.8</ele>
        <time>2024-08-05T07:08:54Z</time>
      </trkpt>
      <trkpt lat="47.22441" lon="5.91692">
        <ele>265</ele>
        <time>2024-08-05T07:08:55Z</time>
      </trkpt>
      <trkpt lat="47.22441" lon="5.91686">
        <ele>264.6</ele>
        <time>2024-08-05T07:08:56Z</time>
      </trkpt>
      <trkpt lat="47.2244" lon="5.91681">
        <ele>264.2</ele>
        <time>2024-08-05T07:08:57Z</time>
      </trkpt>
      <trkpt lat="47.2244" lon="5.91676">
        <ele>264.2</ele>
        <time>2024-08-05T07:08:58Z</time>
      </trkpt>
      <trkpt lat="47.2244" lon="5.91671">
        <ele>264.2</ele>
        <time>2024-08-05T07:08:59Z</time>
      </trkpt>
      <trkpt lat="47.2244" lon="5.91666">
        <ele>264.2</ele>
        <time>2024-08-05T07:09:00Z</time>
      </trkpt>
      <trkpt lat="47.22441" lon="5.91662">
        <ele>264</ele>
        <time>2024-08-05T07:09:01Z</time>
      </trkpt>
      <trkpt lat="47.22441" lon="5.91657">
        <ele>264.2</ele>
        <time>2024-08-05T07:09:02Z</time>
      </trkpt>
      <trkpt lat="47.22442" lon="5.91653">
        <ele>264.2</ele>
        <time>2024-08-05T07:09:03Z</time>
      </trkpt>
      <trkpt lat="47.22443" lon="5.91649">
        <ele>264</ele>
        <time>2024-08-05T07:09:04Z</time>
      </trkpt>
      <trkpt lat="47.22444" lon="5.91644">
        <ele>264.2</ele>
        <time>2024-08-05T07:09:05Z</time>
      </trkpt>
      <trkpt lat="47.22445" lon="5.9164">
        <ele>264</ele>
        <time>2024-08-05T07:09:06Z</time>
      </trkpt>
      <trkpt lat="47.22445" lon="5.91636">
        <ele>264</ele>
        <time>2024-08-05T07:09:07Z</time>
      </trkpt>
      <trkpt lat="47.22446" lon="5.91631">
        <ele>264.2</ele>
        <time>2024-08-05T07:09:08Z</time>
      </trkpt>
      <trkpt lat="47.22446" lon="5.91627">
        <ele>264.4</ele>
        <time>2024-08-05T07:09:09Z</time>
      </trkpt>
      <trkpt lat="47.22446" lon="5.91623">
        <ele>264.8</ele>
        <time>2024-08-05T07:09:10Z</time>
      </trkpt>
      <trkpt lat="47.22446" lon="5.91618">
        <ele>265</ele>
        <time>2024-08-05T07:09:11Z</time>
      </trkpt>
      <trkpt lat="47.22446" lon="5.91614">
        <ele>265.2</ele>
        <time>2024-08-05T07:09:12Z</time>
      </trkpt>
      <trkpt lat="47.22446" lon="5.9161">
        <ele>265.2</ele>
        <time>2024-08-05T07:09:13Z</time>
      </trkpt>
      <trkpt lat="47.22446" lon="5.91606">
        <ele>265.6</ele>
        <time>2024-08-05T07:09:14Z</time>
      </trkpt>
      <trkpt lat="47.22446" lon="5.91601">
        <ele>265.8</ele>
        <time>2024-08-05T07:09:15Z</time>
      </trkpt>
      <trkpt lat="47.22446" lon="5.91597">
        <ele>266.2</ele>
        <time>2024-08-05T07:09:16Z</time>
      </trkpt>
      <trkpt lat="47.22446" lon="5.91592">
        <ele>266.6</ele>
        <time>2024-08-05T07:09:17Z</time>
      </trkpt>
      <trkpt lat="47.22445" lon="5.91588">
        <ele>266.6</ele>
        <time>2024-08-05T07:09:18Z</time>
      </trkpt>
      <trkpt lat="47.22445" lon="5.91584">
        <ele>266.6</ele>
        <time>2024-08-05T07:09:19Z</time>
      </trkpt>
      <trkpt lat="47.22444" lon="5.91579">
        <ele>267</ele>
        <time>2024-08-05T07:09:20Z</time>
      </trkpt>
      <trkpt lat="47.22443" lon="5.91575">
        <ele>267.4</ele>
        <time>2024-08-05T07:09:21Z</time>
      </trkpt>
      <trkpt lat="47.22442" lon="5.91571">
        <ele>267.4</ele>
        <time>2024-08-05T07:09:22Z</time>
      </trkpt>
      <trkpt lat="47.22442" lon="5.91567">
        <ele>267.8</ele>
        <time>2024-08-05T07:09:23Z</time>
      </trkpt>
      <trkpt lat="47.22441" lon="5.91562">
        <ele>268.2</ele>
        <time>2024-08-05T07:09:24Z</time>
      </trkpt>
      <trkpt lat="47.2244" lon="5.91558">
        <ele>268.4</ele>
        <time>2024-08-05T07:09:25Z</time>
      </trkpt>
      <trkpt lat="47.22439" lon="5.91554">
        <ele>268.6</ele>
        <time>2024-08-05T07:09:26Z</time>
      </trkpt>
      <trkpt lat="47.22439" lon="5.9155">
        <ele>268.8</ele>
        <time>2024-08-05T07:09:27Z</time>
      </trkpt>
      <trkpt lat="47.22438" lon="5.91545">
        <ele>269.2</ele>
        <time>2024-08-05T07:09:28Z</time>
      </trkpt>
      <trkpt lat="47.22438" lon="5.91541">
        <ele>269.6</ele>
        <time>2024-08-05T07:09:29Z</time>
      </trkpt>
      <trkpt lat="47.22439" lon="5.91537">
        <ele>269.8</ele>
        <time>2024-08-05T07:09:30Z</time>
      </trkpt>
      <trkpt lat="47.22439" lon="5.91532">
        <ele>270</ele>
        <time>2024-08-05T07:09:31Z</time>
      </trkpt>
      <trkpt lat="47.2244" lon="5.91528">
        <ele>270.2</ele>
        <time>2024-08-05T07:09:32Z</time>
      </trkpt>
      <trkpt lat="47.22441" lon="5.91524">
        <ele>270.6</ele>
        <time>2024-08-05T07:09:33Z</time>
      </trkpt>
      <trkpt lat="47.22443" lon="5.9152">
        <ele>270.8</ele>
        <time>2024-08-05T07:09:34Z</time>
      </trkpt>
      <trkpt lat="47.22445" lon="5.91516">
        <ele>271.2</ele>
        <time>2024-08-05T07:09:35Z</time>
      </trkpt>
      <trkpt lat="47.22447" lon="5.91512">
        <ele>271.4</ele>
        <time>2024-08-05T07:09:36Z</time>
      </trkpt>
      <trkpt lat="47.22449" lon="5.91508">
        <ele>271.8</ele>
        <time>2024-08-05T07:09:37Z</time>
      </trkpt>
      <trkpt lat="47.22451" lon="5.91504">
        <ele>272</ele>
        <time>2024-08-05T07:09:38Z</time>
      </trkpt>
      <trkpt lat="47.22453" lon="5.915">
        <ele>272.2</ele>
        <time>2024-08-05T07:09:39Z</time>
      </trkpt>
      <trkpt lat="47.22455" lon="5.91496">
        <ele>272.4</ele>
        <time>2024-08-05T07:09:40Z</time>
      </trkpt>
      <trkpt lat="47.22457" lon="5.91492">
        <ele>272.4</ele>
        <time>2024-08-05T07:09:41Z</time>
      </trkpt>
      <trkpt lat="47.2246" lon="5.91487">
        <ele>272.6</ele>
        <time>2024-08-05T07:09:42Z</time>
      </trkpt>
      <trkpt lat="47.22462" lon="5.91482">
        <ele>272.6</ele>
        <time>2024-08-05T07:09:43Z</time>
      </trkpt>
      <trkpt lat="47.22465" lon="5.91477">
        <ele>272.6</ele>
        <time>2024-08-05T07:09:44Z</time>
      </trkpt>
      <trkpt lat="47.22468" lon="5.91472">
        <ele>272.6</ele>
        <time>2024-08-05T07:09:45Z</time>
      </trkpt>
      <trkpt lat="47.22471" lon="5.91466">
        <ele>272.6</ele>
        <time>2024-08-05T07:09:46Z</time>
      </trkpt>
      <trkpt lat="47.22474" lon="5.91459">
        <ele>272.6</ele>
        <time>2024-08-05T07:09:47Z</time>
      </trkpt>
      <trkpt lat="47.22478" lon="5.91453">
        <ele>272.6</ele>
        <time>2024-08-05T07:09:48Z</time>
      </trkpt>
      <trkpt lat="47.22481" lon="5.91446">
        <ele>272.6</ele>
        <time>2024-08-05T07:09:49Z</time>
      </trkpt>
      <trkpt lat="47.22486" lon="5.91439">
        <ele>272.6</ele>
        <time>2024-08-05T07:09:50Z</time>
      </trkpt>
      <trkpt lat="47.22491" lon="5.91433">
        <ele>272.6</ele>
        <time>2024-08-05T07:09:51Z</time>
      </trkpt>
      <trkpt lat="47.22497" lon="5.91426">
        <ele>272.6</ele>
        <time>2024-08-05T07:09:52Z</time>
      </trkpt>
      <trkpt lat="47.22503" lon="5.91421">
        <ele>272.4</ele>
        <time>2024-08-05T07:09:53Z</time>
      </trkpt>
      <trkpt lat="47.22511" lon="5.91416">
        <ele>272.2</ele>
        <time>2024-08-05T07:09:54Z</time>
      </trkpt>
      <trkpt lat="47.22518" lon="5.9141">
        <ele>272</ele>
        <time>2024-08-05T07:09:55Z</time>
      </trkpt>
      <trkpt lat="47.22526" lon="5.91404">
        <ele>272</ele>
        <time>2024-08-05T07:09:56Z</time>
      </trkpt>
      <trkpt lat="47.22532" lon="5.91397">
        <ele>271.6</ele>
        <time>2024-08-05T07:09:57Z</time>
      </trkpt>
      <trkpt lat="47.22539" lon="5.91388">
        <ele>271.4</ele>
        <time>2024-08-05T07:09:58Z</time>
      </trkpt>
      <trkpt lat="47.22545" lon="5.9138">
        <ele>271</ele>
        <time>2024-08-05T07:09:59Z</time>
      </trkpt>
      <trkpt lat="47.2255" lon="5.91371">
        <ele>270.6</ele>
        <time>2024-08-05T07:10:00Z</time>
      </trkpt>
      <trkpt lat="47.22555" lon="5.91363">
        <ele>270.2</ele>
        <time>2024-08-05T07:10:01Z</time>
      </trkpt>
      <trkpt lat="47.22559" lon="5.91355">
        <ele>269.6</ele>
        <time>2024-08-05T07:10:02Z</time>
      </trkpt>
      <trkpt lat="47.22562" lon="5.91348">
        <ele>269.4</ele>
        <time>2024-08-05T07:10:03Z</time>
      </trkpt>
      <trkpt lat="47.22566" lon="5.91341">
        <ele>269</ele>
        <time>2024-08-05T07:10:04Z</time>
      </trkpt>
      <trkpt lat="47.2257" lon="5.91335">
        <ele>269</ele>
        <time>2024-08-05T07:10:05Z</time>
      </trkpt>
      <trkpt lat="47.22573" lon="5.91329">
        <ele>269</ele>
        <time>2024-08-05T07:10:06Z</time>
      </trkpt>
      <trkpt lat="47.22576" lon="5.91324">
        <ele>269</ele>
        <time>2024-08-05T07:10:07Z</time>
      </trkpt>
      <trkpt lat="47.22579" lon="5.91319">
        <ele>269</ele>
        <time>2024-08-05T07:10:08Z</time>
      </trkpt>
      <trkpt lat="47.22582" lon="5.91315">
        <ele>269</ele>
        <time>2024-08-05T07:10:09Z</time>
      </trkpt>
      <trkpt lat="47.22585" lon="5.91311">
        <ele>268.8</ele>
        <time>2024-08-05T07:10:10Z</time>
      </trkpt>
      <trkpt lat="47.22588" lon="5.91307">
        <ele>268.8</ele>
        <time>2024-08-05T07:10:11Z</time>
      </trkpt>
      <trkpt lat="47.22591" lon="5.91303">
        <ele>269</ele>
        <time>2024-08-05T07:10:12Z</time>
      </trkpt>
      <trkpt lat="47.22594" lon="5.91299">
        <ele>268.8</ele>
        <time>2024-08-05T07:10:13Z</time>
      </trkpt>
      <trkpt lat="47.22597" lon="5.91296">
        <ele>269</ele>
        <time>2024-08-05T07:10:14Z</time>
      </trkpt>
      <trkpt lat="47.226" lon="5.91292">
        <ele>269.2</ele>
        <time>2024-08-05T07:10:15Z</time>
      </trkpt>
      <trkpt lat="47.22603" lon="5.91288">
        <ele>269.4</ele>
        <time>2024-08-05T07:10:16Z</time>
      </trkpt>
      <trkpt lat="47.22606" lon="5.91285">
        <ele>269.8</ele>
        <time>2024-08-05T07:10:17Z</time>
      </trkpt>
      <trkpt lat="47.22608" lon="5.91281">
        <ele>269.8</ele>
        <time>2024-08-05T07:10:18Z</time>
      </trkpt>
      <trkpt lat="47.22611" lon="5.91277">
        <ele>270.2</ele>
        <time>2024-08-05T07:10:19Z</time>
      </trkpt>
      <trkpt lat="47.22614" lon="5.91274">
        <ele>270.4</ele>
        <time>2024-08-05T07:10:20Z</time>
      </trkpt>
      <trkpt lat="47.22617" lon="5.9127">
        <ele>270.8</ele>
        <time>2024-08-05T07:10:21Z</time>
      </trkpt>
      <trkpt lat="47.2262" lon="5.91266">
        <ele>271.2</ele>
        <time>2024-08-05T07:10:22Z</time>
      </trkpt>
      <trkpt lat="47.22622" lon="5.91261">
        <ele>271.4</ele>
        <time>2024-08-05T07:10:23Z</time>
      </trkpt>
      <trkpt lat="47.22624" lon="5.91257">
        <ele>271.8</ele>
        <time>2024-08-05T07:10:24Z</time>
      </trkpt>
      <trkpt lat="47.22625" lon="5.91252">
        <ele>271.8</ele>
        <time>2024-08-05T07:10:25Z</time>
      </trkpt>
      <trkpt lat="47.22626" lon="5.91247">
        <ele>272</ele>
        <time>2024-08-05T07:10:26Z</time>
      </trkpt>
      <trkpt lat="47.22627" lon="5.91242">
        <ele>272</ele>
        <time>2024-08-05T07:10:27Z</time>
      </trkpt>
      <trkpt lat="47.22627" lon="5.91236">
        <ele>272.4</ele>
        <time>2024-08-05T07:10:28Z</time>
      </trkpt>
      <trkpt lat="47.22626" lon="5.9123">
        <ele>272.4</ele>
        <time>2024-08-05T07:10:29Z</time>
      </trkpt>
      <trkpt lat="47.22625" lon="5.91224">
        <ele>272.4</ele>
        <time>2024-08-05T07:10:30Z</time>
      </trkpt>
      <trkpt lat="47.22624" lon="5.91218">
        <ele>272.6</ele>
        <time>2024-08-05T07:10:31Z</time>
      </trkpt>
      <trkpt lat="47.22623" lon="5.91211">
        <ele>272.8</ele>
        <time>2024-08-05T07:10:32Z</time>
      </trkpt>
      <trkpt lat="47.22622" lon="5.91205">
        <ele>272.8</ele>
        <time>2024-08-05T07:10:33Z</time>
      </trkpt>
      <trkpt lat="47.22621" lon="5.91198">
        <ele>272.8</ele>
        <time>2024-08-05T07:10:34Z</time>
      </trkpt>
      <trkpt lat="47.2262" lon="5.91192">
        <ele>273</ele>
        <time>2024-08-05T07:10:35Z</time>
      </trkpt>
      <trkpt lat="47.22619" lon="5.91185">
        <ele>273</ele>
        <time>2024-08-05T07:10:36Z</time>
      </trkpt>
      <trkpt lat="47.22618" lon="5.91179">
        <ele>273</ele>
        <time>2024-08-05T07:10:37Z</time>
      </trkpt>
      <trkpt lat="47.22617" lon="5.91172">
        <ele>273.2</ele>
        <time>2024-08-05T07:10:38Z</time>
      </trkpt>
      <trkpt lat="47.22616" lon="5.91166">
        <ele>273.2</ele>
        <time>2024-08-05T07:10:39Z</time>
      </trkpt>
      <trkpt lat="47.22615" lon="5.9116">
        <ele>273.4</ele>
        <time>2024-08-05T07:10:40Z</time>
      </trkpt>
      <trkpt lat="47.22613" lon="5.91153">
        <ele>273.6</ele>
        <time>2024-08-05T07:10:41Z</time>
      </trkpt>
      <trkpt lat="47.22612" lon="5.91147">
        <ele>273.6</ele>
        <time>2024-08-05T07:10:42Z</time>
      </trkpt>
      <trkpt lat="47.2261" lon="5.91141">
        <ele>273.6</ele>
        <time>2024-08-05T07:10:43Z</time>
      </trkpt>
      <trkpt lat="47.22609" lon="5.91135">
        <ele>273.8</ele>
        <time>2024-08-05T07:10:44Z</time>
      </trkpt>
      <trkpt lat="47.22607" lon="5.91129">
        <ele>273.6</ele>
        <time>2024-08-05T07:10:45Z</time>
      </trkpt>
      <trkpt lat="47.22605" lon="5.91123">
        <ele>273.8</ele>
        <time>2024-08-05T07:10:46Z</time>
      </trkpt>
      <trkpt lat="47.22604" lon="5.91118">
        <ele>273.8</ele>
        <time>2024-08-05T07:10:47Z</time>
      </trkpt>
      <trkpt lat="47.22602" lon="5.91112">
        <ele>273.8</ele>
        <time>2024-08-05T07:10:48Z</time>
      </trkpt>
      <trkpt lat="47.22601" lon="5.91106">
        <ele>273.8</ele>
        <time>2024-08-05T07:10:49Z</time>
      </trkpt>
      <trkpt lat="47.226" lon="5.911">
        <ele>274</ele>
        <time>2024-08-05T07:10:50Z</time>
      </trkpt>
      <trkpt lat="47.22599" lon="5.91094">
        <ele>274</ele>
        <time>2024-08-05T07:10:51Z</time>
      </trkpt>
      <trkpt lat="47.22599" lon="5.91088">
        <ele>274</ele>
        <time>2024-08-05T07:10:52Z</time>
      </trkpt>
      <trkpt lat="47.22598" lon="5.91082">
        <ele>274</ele>
        <time>2024-08-05T07:10:53Z</time>
      </trkpt>
      <trkpt lat="47.22598" lon="5.91076">
        <ele>274.2</ele>
        <time>2024-08-05T07:10:54Z</time>
      </trkpt>
      <trkpt lat="47.22597" lon="5.9107">
        <ele>274.4</ele>
        <time>2024-08-05T07:10:55Z</time>
      </trkpt>
      <trkpt lat="47.22596" lon="5.91064">
        <ele>274.6</ele>
        <time>2024-08-05T07:10:56Z</time>
      </trkpt>
      <trkpt lat="47.22595" lon="5.91058">
        <ele>274.6</ele>
        <time>2024-08-05T07:10:57Z</time>
      </trkpt>
      <trkpt lat="47.22594" lon="5.91052">
        <ele>274.6</ele>
        <time>2024-08-05T07:10:58Z</time>
      </trkpt>
      <trkpt lat="47.22593" lon="5.91046">
        <ele>274.8</ele>
        <time>2024-08-05T07:10:59Z</time>
      </trkpt>
      <trkpt lat="47.22592" lon="5.9104">
        <ele>275</ele>
        <time>2024-08-05T07:11:00Z</time>
      </trkpt>
      <trkpt lat="47.22591" lon="5.91034">
        <ele>275</ele>
        <time>2024-08-05T07:11:01Z</time>
      </trkpt>
      <trkpt lat="47.2259" lon="5.91028">
        <ele>275</ele>
        <time>2024-08-05T07:11:02Z</time>
      </trkpt>
      <trkpt lat="47.22589" lon="5.91022">
        <ele>275</ele>
        <time>2024-08-05T07:11:03Z</time>
      </trkpt>
      <trkpt lat="47.22589" lon="5.91015">
        <ele>275.2</ele>
        <time>2024-08-05T07:11:04Z</time>
      </trkpt>
      <trkpt lat="47.22588" lon="5.91009">
        <ele>275.4</ele>
        <time>2024-08-05T07:11:05Z</time>
      </trkpt>
      <trkpt lat="47.22587" lon="5.91002">
        <ele>275.4</ele>
        <time>2024-08-05T07:11:06Z</time>
      </trkpt>
      <trkpt lat="47.22587" lon="5.90995">
        <ele>275.4</ele>
        <time>2024-08-05T07:11:07Z</time>
      </trkpt>
      <trkpt lat="47.22587" lon="5.90988">
        <ele>275.6</ele>
        <time>2024-08-05T07:11:08Z</time>
      </trkpt>
      <trkpt lat="47.22586" lon="5.90982">
        <ele>275.8</ele>
        <time>2024-08-05T07:11:09Z</time>
      </trkpt>
      <trkpt lat="47.22585" lon="5.90975">
        <ele>276</ele>
        <time>2024-08-05T07:11:10Z</time>
      </trkpt>
      <trkpt lat="47.22585" lon="5.90968">
        <ele>276</ele>
        <time>2024-08-05T07:11:11Z</time>
      </trkpt>
      <trkpt lat="47.22584" lon="5.90962">
        <ele>276</ele>
        <time>2024-08-05T07:11:12Z</time>
      </trkpt>
      <trkpt lat="47.22584" lon="5.90955">
        <ele>276.2</ele>
        <time>2024-08-05T07:11:13Z</time>
      </trkpt>
      <trkpt lat="47.22583" lon="5.90949">
        <ele>276.4</ele>
        <time>2024-08-05T07:11:14Z</time>
      </trkpt>
      <trkpt lat="47.22583" lon="5.90942">
        <ele>276.6</ele>
        <time>2024-08-05T07:11:15Z</time>
      </trkpt>
      <trkpt lat="47.22582" lon="5.90936">
        <ele>276.8</ele>
        <time>2024-08-05T07:11:16Z</time>
      </trkpt>
      <trkpt lat="47.22582" lon="5.90929">
        <ele>277</ele>
        <time>2024-08-05T07:11:17Z</time>
      </trkpt>
      <trkpt lat="47.22581" lon="5.90923">
        <ele>277.2</ele>
        <time>2024-08-05T07:11:18Z</time>
      </trkpt>
      <trkpt lat="47.2258" lon="5.90917">
        <ele>277.4</ele>
        <time>2024-08-05T07:11:19Z</time>
      </trkpt>
      <trkpt lat="47.22579" lon="5.90911">
        <ele>277.4</ele>
        <time>2024-08-05T07:11:20Z</time>
      </trkpt>
      <trkpt lat="47.22578" lon="5.90905">
        <ele>277.6</ele>
        <time>2024-08-05T07:11:21Z</time>
      </trkpt>
      <trkpt lat="47.22577" lon="5.90899">
        <ele>277.6</ele>
        <time>2024-08-05T07:11:22Z</time>
      </trkpt>
      <trkpt lat="47.22576" lon="5.90893">
        <ele>277.6</ele>
        <time>2024-08-05T07:11:23Z</time>
      </trkpt>
      <trkpt lat="47.22574" lon="5.90887">
        <ele>277.6</ele>
        <time>2024-08-05T07:11:24Z</time>
      </trkpt>
      <trkpt lat="47.22573" lon="5.90881">
        <ele>277.6</ele>
        <time>2024-08-05T07:11:25Z</time>
      </trkpt>
      <trkpt lat="47.22573" lon="5.90875">
        <ele>277.8</ele>
        <time>2024-08-05T07:11:26Z</time>
      </trkpt>
      <trkpt lat="47.22573" lon="5.9087">
        <ele>278</ele>
        <time>2024-08-05T07:11:27Z</time>
      </trkpt>
      <trkpt lat="47.22573" lon="5.90865">
        <ele>278</ele>
        <time>2024-08-05T07:11:28Z</time>
      </trkpt>
      <trkpt lat="47.22573" lon="5.90859">
        <ele>278</ele>
        <time>2024-08-05T07:11:29Z</time>
      </trkpt>
      <trkpt lat="47.22574" lon="5.90854">
        <ele>278</ele>
        <time>2024-08-05T07:11:30Z</time>
      </trkpt>
      <trkpt lat="47.22574" lon="5.90848">
        <ele>278</ele>
        <time>2024-08-05T07:11:31Z</time>
      </trkpt>
      <trkpt lat="47.22575" lon="5.90842">
        <ele>278</ele>
        <time>2024-08-05T07:11:32Z</time>
      </trkpt>
      <trkpt lat="47.22576" lon="5.90836">
        <ele>278</ele>
        <time>2024-08-05T07:11:33Z</time>
      </trkpt>
      <trkpt lat="47.22577" lon="5.9083">
        <ele>278</ele>
        <time>2024-08-05T07:11:34Z</time>
      </trkpt>
      <trkpt lat="47.22577" lon="5.90824">
        <ele>278</ele>
        <time>2024-08-05T07:11:35Z</time>
      </trkpt>
      <trkpt lat="47.22578" lon="5.90818">
        <ele>278.2</ele>
        <time>2024-08-05T07:11:36Z</time>
      </trkpt>
      <trkpt lat="47.22578" lon="5.90811">
        <ele>278.2</ele>
        <time>2024-08-05T07:11:37Z</time>
      </trkpt>
      <trkpt lat="47.22577" lon="5.90805">
        <ele>278.4</ele>
        <time>2024-08-05T07:11:38Z</time>
      </trkpt>
      <trkpt lat="47.22578" lon="5.90798">
        <ele>278.4</ele>
        <time>2024-08-05T07:11:39Z</time>
      </trkpt>
      <trkpt lat="47.22578" lon="5.90792">
        <ele>278.6</ele>
        <time>2024-08-05T07:11:40Z</time>
      </trkpt>
      <trkpt lat="47.22578" lon="5.90785">
        <ele>278.6</ele>
        <time>2024-08-05T07:11:41Z</time>
      </trkpt>
      <trkpt lat="47.22579" lon="5.90778">
        <ele>278.6</ele>
        <time>2024-08-05T07:11:42Z</time>
      </trkpt>
      <trkpt lat="47.22579" lon="5.90771">
        <ele>278.8</ele>
        <time>2024-08-05T07:11:43Z</time>
      </trkpt>
      <trkpt lat="47.22579" lon="5.90765">
        <ele>278.8</ele>
        <time>2024-08-05T07:11:44Z</time>
      </trkpt>
      <trkpt lat="47.2258" lon="5.90758">
        <ele>279</ele>
        <time>2024-08-05T07:11:45Z</time>
      </trkpt>
      <trkpt lat="47.2258" lon="5.90751">
        <ele>279</ele>
        <time>2024-08-05T07:11:46Z</time>
      </trkpt>
      <trkpt lat="47.2258" lon="5.90745">
        <ele>279</ele>
        <time>2024-08-05T07:11:47Z</time>
      </trkpt>
      <trkpt lat="47.22581" lon="5.90739">
        <ele>279</ele>
        <time>2024-08-05T07:11:48Z</time>
      </trkpt>
      <trkpt lat="47.22581" lon="5.90732">
        <ele>279.2</ele>
        <time>2024-08-05T07:11:49Z</time>
      </trkpt>
      <trkpt lat="47.22581" lon="5.90726">
        <ele>279.2</ele>
        <time>2024-08-05T07:11:50Z</time>
      </trkpt>
      <trkpt lat="47.22581" lon="5.9072">
        <ele>279.2</ele>
        <time>2024-08-05T07:11:51Z</time>
      </trkpt>
      <trkpt lat="47.22581" lon="5.90713">
        <ele>279.2</ele>
        <time>2024-08-05T07:11:52Z</time>
      </trkpt>
      <trkpt lat="47.22581" lon="5.90706">
        <ele>279.4</ele>
        <time>2024-08-05T07:11:53Z</time>
      </trkpt>
      <trkpt lat="47.22581" lon="5.90698">
        <ele>279.6</ele>
        <time>2024-08-05T07:11:54Z</time>
      </trkpt>
      <trkpt lat="47.22581" lon="5.90691">
        <ele>279.6</ele>
        <time>2024-08-05T07:11:55Z</time>
      </trkpt>
      <trkpt lat="47.22582" lon="5.90684">
        <ele>279.6</ele>
        <time>2024-08-05T07:11:56Z</time>
      </trkpt>
      <trkpt lat="47.22583" lon="5.90676">
        <ele>279.6</ele>
        <time>2024-08-05T07:11:57Z</time>
      </trkpt>
      <trkpt lat="47.22583" lon="5.90668">
        <ele>279.8</ele>
        <time>2024-08-05T07:11:58Z</time>
      </trkpt>
      <trkpt lat="47.22584" lon="5.9066">
        <ele>279.8</ele>
        <time>2024-08-05T07:11:59Z</time>
      </trkpt>
      <trkpt lat="47.22585" lon="5.90653">
        <ele>280</ele>
        <time>2024-08-05T07:12:00Z</time>
      </trkpt>
      <trkpt lat="47.22585" lon="5.90645">
        <ele>280</ele>
        <time>2024-08-05T07:12:01Z</time>
      </trkpt>
      <trkpt lat="47.22586" lon="5.90637">
        <ele>280</ele>
        <time>2024-08-05T07:12:02Z</time>
      </trkpt>
      <trkpt lat="47.22586" lon="5.90629">
        <ele>280.2</ele>
        <time>2024-08-05T07:12:03Z</time>
      </trkpt>
      <trkpt lat="47.22585" lon="5.9062">
        <ele>280.2</ele>
        <time>2024-08-05T07:12:04Z</time>
      </trkpt>
      <trkpt lat="47.22586" lon="5.90612">
        <ele>280.2</ele>
        <time>2024-08-05T07:12:05Z</time>
      </trkpt>
      <trkpt lat="47.22586" lon="5.90603">
        <ele>280.2</ele>
        <time>2024-08-05T07:12:06Z</time>
      </trkpt>
      <trkpt lat="47.22588" lon="5.90594">
        <ele>280.4</ele>
        <time>2024-08-05T07:12:07Z</time>
      </trkpt>
      <trkpt lat="47.22589" lon="5.90584">
        <ele>280.4</ele>
        <time>2024-08-05T07:12:08Z</time>
      </trkpt>
      <trkpt lat="47.2259" lon="5.90575">
        <ele>280.4</ele>
        <time>2024-08-05T07:12:09Z</time>
      </trkpt>
      <trkpt lat="47.2259" lon="5.90566">
        <ele>280.4</ele>
        <time>2024-08-05T07:12:10Z</time>
      </trkpt>
      <trkpt lat="47.2259" lon="5.90557">
        <ele>280.4</ele>
        <time>2024-08-05T07:12:11Z</time>
      </trkpt>
      <trkpt lat="47.22591" lon="5.90548">
        <ele>280.6</ele>
        <time>2024-08-05T07:12:12Z</time>
      </trkpt>
      <trkpt lat="47.22591" lon="5.90538">
        <ele>280.6</ele>
        <time>2024-08-05T07:12:13Z</time>
      </trkpt>
      <trkpt lat="47.22591" lon="5.90529">
        <ele>280.4</ele>
        <time>2024-08-05T07:12:14Z</time>
      </trkpt>
      <trkpt lat="47.22592" lon="5.90519">
        <ele>280.4</ele>
        <time>2024-08-05T07:12:15Z</time>
      </trkpt>
      <trkpt lat="47.22592" lon="5.90509">
        <ele>280.4</ele>
        <time>2024-08-05T07:12:16Z</time>
      </trkpt>
      <trkpt lat="47.22593" lon="5.90499">
        <ele>280.4</ele>
        <time>2024-08-05T07:12:17Z</time>
      </trkpt>
      <trkpt lat="47.22593" lon="5.90489">
        <ele>280.4</ele>
        <time>2024-08-05T07:12:18Z</time>
      </trkpt>
      <trkpt lat="47.22594" lon="5.90479">
        <ele>280.4</ele>
        <time>2024-08-05T07:12:19Z</time>
      </trkpt>
      <trkpt lat="47.22594" lon="5.90469">
        <ele>280.2</ele>
        <time>2024-08-05T07:12:20Z</time>
      </trkpt>
      <trkpt lat="47.22595" lon="5.90459">
        <ele>280.2</ele>
        <time>2024-08-05T07:12:21Z</time>
      </trkpt>
      <trkpt lat="47.22595" lon="5.90449">
        <ele>280</ele>
        <time>2024-08-05T07:12:22Z</time>
      </trkpt>
      <trkpt lat="47.22595" lon="5.9044">
        <ele>280</ele>
        <time>2024-08-05T07:12:23Z</time>
      </trkpt>
      <trkpt lat="47.22596" lon="5.90429">
        <ele>280</ele>
        <time>2024-08-05T07:12:24Z</time>
      </trkpt>
      <trkpt lat="47.22596" lon="5.9042">
        <ele>280</ele>
        <time>2024-08-05T07:12:25Z</time>
      </trkpt>
      <trkpt lat="47.22596" lon="5.9041">
        <ele>279.8</ele>
        <time>2024-08-05T07:12:26Z</time>
      </trkpt>
      <trkpt lat="47.22597" lon="5.904">
        <ele>279.6</ele>
        <time>2024-08-05T07:12:27Z</time>
      </trkpt>
      <trkpt lat="47.22597" lon="5.90391">
        <ele>279.4</ele>
        <time>2024-08-05T07:12:28Z</time>
      </trkpt>
      <trkpt lat="47.22598" lon="5.90382">
        <ele>279.2</ele>
        <time>2024-08-05T07:12:29Z</time>
      </trkpt>
      <trkpt lat="47.22598" lon="5.90373">
        <ele>279</ele>
        <time>2024-08-05T07:12:30Z</time>
      </trkpt>
      <trkpt lat="47.22599" lon="5.90364">
        <ele>279.2</ele>
        <time>2024-08-05T07:12:31Z</time>
      </trkpt>
      <trkpt lat="47.226" lon="5.90355">
        <ele>279.2</ele>
        <time>2024-08-05T07:12:32Z</time>
      </trkpt>
      <trkpt lat="47.226" lon="5.90347">
        <ele>279</ele>
        <time>2024-08-05T07:12:33Z</time>
      </trkpt>
      <trkpt lat="47.22601" lon="5.90338">
        <ele>279</ele>
        <time>2024-08-05T07:12:34Z</time>
      </trkpt>
      <trkpt lat="47.22602" lon="5.9033">
        <ele>279</ele>
        <time>2024-08-05T07:12:35Z</time>
      </trkpt>
      <trkpt lat="47.22602" lon="5.90321">
        <ele>279</ele>
        <time>2024-08-05T07:12:36Z</time>
      </trkpt>
      <trkpt lat="47.22602" lon="5.90312">
        <ele>279</ele>
        <time>2024-08-05T07:12:37Z</time>
      </trkpt>
      <trkpt lat="47.22603" lon="5.90303">
        <ele>279</ele>
        <time>2024-08-05T07:12:38Z</time>
      </trkpt>
      <trkpt lat="47.22604" lon="5.90295">
        <ele>279</ele>
        <time>2024-08-05T07:12:39Z</time>
      </trkpt>
      <trkpt lat="47.22605" lon="5.90287">
        <ele>279</ele>
        <time>2024-08-05T07:12:40Z</time>
      </trkpt>
      <trkpt lat="47.22606" lon="5.9028">
        <ele>279</ele>
        <time>2024-08-05T07:12:41Z</time>
      </trkpt>
      <trkpt lat="47.22607" lon="5.90273">
        <ele>279</ele>
        <time>2024-08-05T07:12:42Z</time>
      </trkpt>
      <trkpt lat="47.22608" lon="5.90266">
        <ele>279.2</ele>
        <time>2024-08-05T07:12:43Z</time>
      </trkpt>
      <trkpt lat="47.2261" lon="5.90259">
        <ele>279.4</ele>
        <time>2024-08-05T07:12:44Z</time>
      </trkpt>
      <trkpt lat="47.22611" lon="5.90251">
        <ele>279.4</ele>
        <time>2024-08-05T07:12:45Z</time>
      </trkpt>
      <trkpt lat="47.22612" lon="5.90243">
        <ele>279.4</ele>
        <time>2024-08-05T07:12:46Z</time>
      </trkpt>
      <trkpt lat="47.22613" lon="5.90235">
        <ele>279.6</ele>
        <time>2024-08-05T07:12:47Z</time>
      </trkpt>
      <trkpt lat="47.22613" lon="5.90227">
        <ele>279.6</ele>
        <time>2024-08-05T07:12:48Z</time>
      </trkpt>
      <trkpt lat="47.22614" lon="5.90219">
        <ele>279.6</ele>
        <time>2024-08-05T07:12:49Z</time>
      </trkpt>
      <trkpt lat="47.22616" lon="5.90211">
        <ele>279.6</ele>
        <time>2024-08-05T07:12:50Z</time>
      </trkpt>
      <trkpt lat="47.22616" lon="5.90202">
        <ele>279.6</ele>
        <time>2024-08-05T07:12:51Z</time>
      </trkpt>
      <trkpt lat="47.22617" lon="5.90193">
        <ele>279.6</ele>
        <time>2024-08-05T07:12:52Z</time>
      </trkpt>
      <trkpt lat="47.22618" lon="5.90185">
        <ele>279.6</ele>
        <time>2024-08-05T07:12:53Z</time>
      </trkpt>
      <trkpt lat="47.22619" lon="5.90175">
        <ele>279.6</ele>
        <time>2024-08-05T07:12:54Z</time>
      </trkpt>
      <trkpt lat="47.2262" lon="5.90165">
        <ele>279.6</ele>
        <time>2024-08-05T07:12:55Z</time>
      </trkpt>
      <trkpt lat="47.22621" lon="5.90156">
        <ele>279.6</ele>
        <time>2024-08-05T07:12:56Z</time>
      </trkpt>
      <trkpt lat="47.22622" lon="5.90146">
        <ele>279.6</ele>
        <time>2024-08-05T07:12:57Z</time>
      </trkpt>
      <trkpt lat="47.22623" lon="5.90137">
        <ele>279.6</ele>
        <time>2024-08-05T07:12:58Z</time>
      </trkpt>
      <trkpt lat="47.22623" lon="5.90127">
        <ele>279.6</ele>
        <time>2024-08-05T07:12:59Z</time>
      </trkpt>
      <trkpt lat="47.22624" lon="5.90117">
        <ele>279.6</ele>
        <time>2024-08-05T07:13:00Z</time>
      </trkpt>
      <trkpt lat="47.22625" lon="5.90107">
        <ele>279.4</ele>
        <time>2024-08-05T07:13:01Z</time>
      </trkpt>
      <trkpt lat="47.22626" lon="5.90097">
        <ele>279.4</ele>
        <time>2024-08-05T07:13:02Z</time>
      </trkpt>
      <trkpt lat="47.22626" lon="5.90087">
        <ele>279.2</ele>
        <time>2024-08-05T07:13:03Z</time>
      </trkpt>
      <trkpt lat="47.22627" lon="5.90077">
        <ele>279.2</ele>
        <time>2024-08-05T07:13:04Z</time>
      </trkpt>
      <trkpt lat="47.22628" lon="5.90067">
        <ele>279</ele>
        <time>2024-08-05T07:13:05Z</time>
      </trkpt>
      <trkpt lat="47.22629" lon="5.90057">
        <ele>278.8</ele>
        <time>2024-08-05T07:13:06Z</time>
      </trkpt>
      <trkpt lat="47.2263" lon="5.90048">
        <ele>278.6</ele>
        <time>2024-08-05T07:13:07Z</time>
      </trkpt>
      <trkpt lat="47.22631" lon="5.90038">
        <ele>278</ele>
        <time>2024-08-05T07:13:08Z</time>
      </trkpt>
      <trkpt lat="47.22632" lon="5.9003">
        <ele>278</ele>
        <time>2024-08-05T07:13:09Z</time>
      </trkpt>
      <trkpt lat="47.22634" lon="5.90022">
        <ele>277.8</ele>
        <time>2024-08-05T07:13:10Z</time>
      </trkpt>
      <trkpt lat="47.22635" lon="5.90015">
        <ele>277.8</ele>
        <time>2024-08-05T07:13:11Z</time>
      </trkpt>
      <trkpt lat="47.22635" lon="5.90008">
        <ele>277.4</ele>
        <time>2024-08-05T07:13:12Z</time>
      </trkpt>
      <trkpt lat="47.22635" lon="5.90002">
        <ele>277.4</ele>
        <time>2024-08-05T07:13:13Z</time>
      </trkpt>
      <trkpt lat="47.22634" lon="5.89996">
        <ele>277.2</ele>
        <time>2024-08-05T07:13:14Z</time>
      </trkpt>
      <trkpt lat="47.22633" lon="5.8999">
        <ele>277</ele>
        <time>2024-08-05T07:13:15Z</time>
      </trkpt>
      <trkpt lat="47.22633" lon="5.89984">
        <ele>276.8</ele>
        <time>2024-08-05T07:13:16Z</time>
      </trkpt>
      <trkpt lat="47.22633" lon="5.89977">
        <ele>276.8</ele>
        <time>2024-08-05T07:13:17Z</time>
      </trkpt>
      <trkpt lat="47.22633" lon="5.8997">
        <ele>276.6</ele>
        <time>2024-08-05T07:13:18Z</time>
      </trkpt>
      <trkpt lat="47.22633" lon="5.89963">
        <ele>276.6</ele>
        <time>2024-08-05T07:13:19Z</time>
      </trkpt>
      <trkpt lat="47.22633" lon="5.89956">
        <ele>276.4</ele>
        <time>2024-08-05T07:13:20Z</time>
      </trkpt>
      <trkpt lat="47.22633" lon="5.89948">
        <ele>276.4</ele>
        <time>2024-08-05T07:13:21Z</time>
      </trkpt>
      <trkpt lat="47.22633" lon="5.89941">
        <ele>276.4</ele>
        <time>2024-08-05T07:13:22Z</time>
      </trkpt>
      <trkpt lat="47.22633" lon="5.89933">
        <ele>276.4</ele>
        <time>2024-08-05T07:13:23Z</time>
      </trkpt>
      <trkpt lat="47.22634" lon="5.89925">
        <ele>276.6</ele>
        <time>2024-08-05T07:13:24Z</time>
      </trkpt>
      <trkpt lat="47.22634" lon="5.89917">
        <ele>276.4</ele>
        <time>2024-08-05T07:13:25Z</time>
      </trkpt>
      <trkpt lat="47.22634" lon="5.89909">
        <ele>276.4</ele>
        <time>2024-08-05T07:13:26Z</time>
      </trkpt>
      <trkpt lat="47.22635" lon="5.89901">
        <ele>276.4</ele>
        <time>2024-08-05T07:13:27Z</time>
      </trkpt>
      <trkpt lat="47.22635" lon="5.89892">
        <ele>276.4</ele>
        <time>2024-08-05T07:13:28Z</time>
      </trkpt>
      <trkpt lat="47.22636" lon="5.89884">
        <ele>276.4</ele>
        <time>2024-08-05T07:13:29Z</time>
      </trkpt>
      <trkpt lat="47.22636" lon="5.89876">
        <ele>276.4</ele>
        <time>2024-08-05T07:13:30Z</time>
      </trkpt>
      <trkpt lat="47.22637" lon="5.89868">
        <ele>276.6</ele>
        <time>2024-08-05T07:13:31Z</time>
      </trkpt>
      <trkpt lat="47.22637" lon="5.8986">
        <ele>276.6</ele>
        <time>2024-08-05T07:13:32Z</time>
      </trkpt>
      <trkpt lat="47.22637" lon="5.89852">
        <ele>276.8</ele>
        <time>2024-08-05T07:13:33Z</time>
      </trkpt>
      <trkpt lat="47.22638" lon="5.89844">
        <ele>276.8</ele>
        <time>2024-08-05T07:13:34Z</time>
      </trkpt>
      <trkpt lat="47.22638" lon="5.89836">
        <ele>276.8</ele>
        <time>2024-08-05T07:13:35Z</time>
      </trkpt>
      <trkpt lat="47.22639" lon="5.89829">
        <ele>276.8</ele>
        <time>2024-08-05T07:13:36Z</time>
      </trkpt>
      <trkpt lat="47.22639" lon="5.89822">
        <ele>277</ele>
        <time>2024-08-05T07:13:37Z</time>
      </trkpt>
      <trkpt lat="47.22639" lon="5.89815">
        <ele>277</ele>
        <time>2024-08-05T07:13:38Z</time>
      </trkpt>
      <trkpt lat="47.2264" lon="5.89808">
        <ele>276.8</ele>
        <time>2024-08-05T07:13:39Z</time>
      </trkpt>
      <trkpt lat="47.2264" lon="5.89802">
        <ele>277</ele>
        <time>2024-08-05T07:13:40Z</time>
      </trkpt>
      <trkpt lat="47.2264" lon="5.89796">
        <ele>277</ele>
        <time>2024-08-05T07:13:41Z</time>
      </trkpt>
      <trkpt lat="47.2264" lon="5.8979">
        <ele>277</ele>
        <time>2024-08-05T07:13:42Z</time>
      </trkpt>
      <trkpt lat="47.22641" lon="5.89784">
        <ele>277.2</ele>
        <time>2024-08-05T07:13:43Z</time>
      </trkpt>
      <trkpt lat="47.22641" lon="5.89778">
        <ele>277.2</ele>
        <time>2024-08-05T07:13:44Z</time>
      </trkpt>
      <trkpt lat="47.22642" lon="5.89773">
        <ele>277.4</ele>
        <time>2024-08-05T07:13:45Z</time>
      </trkpt>
      <trkpt lat="47.22642" lon="5.89767">
        <ele>277.6</ele>
        <time>2024-08-05T07:13:46Z</time>
      </trkpt>
      <trkpt lat="47.22643" lon="5.89761">
        <ele>277.8</ele>
        <time>2024-08-05T07:13:47Z</time>
      </trkpt>
      <trkpt lat="47.22643" lon="5.89755">
        <ele>278</ele>
        <time>2024-08-05T07:13:48Z</time>
      </trkpt>
      <trkpt lat="47.22643" lon="5.89749">
        <ele>278.2</ele>
        <time>2024-08-05T07:13:49Z</time>
      </trkpt>
      <trkpt lat="47.22643" lon="5.89742">
        <ele>278.6</ele>
        <time>2024-08-05T07:13:50Z</time>
      </trkpt>
      <trkpt lat="47.22643" lon="5.89737">
        <ele>278.6</ele>
        <time>2024-08-05T07:13:51Z</time>
      </trkpt>
      <trkpt lat="47.22643" lon="5.89731">
        <ele>279</ele>
        <time>2024-08-05T07:13:52Z</time>
      </trkpt>
      <trkpt lat="47.22643" lon="5.89725">
        <ele>279.2</ele>
        <time>2024-08-05T07:13:53Z</time>
      </trkpt>
      <trkpt lat="47.22642" lon="5.89719">
        <ele>279.6</ele>
        <time>2024-08-05T07:13:54Z</time>
      </trkpt>
      <trkpt lat="47.22642" lon="5.89713">
        <ele>279.8</ele>
        <time>2024-08-05T07:13:55Z</time>
      </trkpt>
      <trkpt lat="47.22642" lon="5.89707">
        <ele>280</ele>
        <time>2024-08-05T07:13:56Z</time>
      </trkpt>
      <trkpt lat="47.22642" lon="5.89701">
        <ele>280.4</ele>
        <time>2024-08-05T07:13:57Z</time>
      </trkpt>
      <trkpt lat="47.22642" lon="5.89695">
        <ele>280.4</ele>
        <time>2024-08-05T07:13:58Z</time>
      </trkpt>
      <trkpt lat="47.22642" lon="5.89689">
        <ele>280.4</ele>
        <time>2024-08-05T07:13:59Z</time>
      </trkpt>
      <trkpt lat="47.22643" lon="5.89683">
        <ele>280.6</ele>
        <time>2024-08-05T07:14:00Z</time>
      </trkpt>
      <trkpt lat="47.22644" lon="5.89677">
        <ele>281</ele>
        <time>2024-08-05T07:14:01Z</time>
      </trkpt>
      <trkpt lat="47.22644" lon="5.89671">
        <ele>281</ele>
        <time>2024-08-05T07:14:02Z</time>
      </trkpt>
      <trkpt lat="47.22645" lon="5.89665">
        <ele>281.4</ele>
        <time>2024-08-05T07:14:03Z</time>
      </trkpt>
      <trkpt lat="47.22645" lon="5.8966">
        <ele>281.6</ele>
        <time>2024-08-05T07:14:04Z</time>
      </trkpt>
      <trkpt lat="47.22646" lon="5.89654">
        <ele>281.8</ele>
        <time>2024-08-05T07:14:05Z</time>
      </trkpt>
      <trkpt lat="47.22646" lon="5.89648">
        <ele>281.8</ele>
        <time>2024-08-05T07:14:06Z</time>
      </trkpt>
      <trkpt lat="47.22646" lon="5.89642">
        <ele>282.2</ele>
        <time>2024-08-05T07:14:07Z</time>
      </trkpt>
      <trkpt lat="47.22646" lon="5.89636">
        <ele>282.6</ele>
        <time>2024-08-05T07:14:08Z</time>
      </trkpt>
      <trkpt lat="47.22646" lon="5.8963">
        <ele>283</ele>
        <time>2024-08-05T07:14:09Z</time>
      </trkpt>
      <trkpt lat="47.22647" lon="5.89623">
        <ele>283</ele>
        <time>2024-08-05T07:14:10Z</time>
      </trkpt>
      <trkpt lat="47.22647" lon="5.89617">
        <ele>283.2</ele>
        <time>2024-08-05T07:14:11Z</time>
      </trkpt>
      <trkpt lat="47.22647" lon="5.8961">
        <ele>283.6</ele>
        <time>2024-08-05T07:14:12Z</time>
      </trkpt>
      <trkpt lat="47.22647" lon="5.89604">
        <ele>283.6</ele>
        <time>2024-08-05T07:14:13Z</time>
      </trkpt>
      <trkpt lat="47.22647" lon="5.89597">
        <ele>283.8</ele>
        <time>2024-08-05T07:14:14Z</time>
      </trkpt>
      <trkpt lat="47.22648" lon="5.89591">
        <ele>283.8</ele>
        <time>2024-08-05T07:14:15Z</time>
      </trkpt>
      <trkpt lat="47.22648" lon="5.89584">
        <ele>283.8</ele>
        <time>2024-08-05T07:14:16Z</time>
      </trkpt>
      <trkpt lat="47.22649" lon="5.89577">
        <ele>284</ele>
        <time>2024-08-05T07:14:17Z</time>
      </trkpt>
      <trkpt lat="47.2265" lon="5.8957">
        <ele>284</ele>
        <time>2024-08-05T07:14:18Z</time>
      </trkpt>
      <trkpt lat="47.22651" lon="5.89564">
        <ele>284.2</ele>
        <time>2024-08-05T07:14:19Z</time>
      </trkpt>
      <trkpt lat="47.22652" lon="5.89557">
        <ele>284.2</ele>
        <time>2024-08-05T07:14:20Z</time>
      </trkpt>
      <trkpt lat="47.22653" lon="5.8955">
        <ele>284.4</ele>
        <time>2024-08-05T07:14:21Z</time>
      </trkpt>
      <trkpt lat="47.22654" lon="5.89544">
        <ele>284.4</ele>
        <time>2024-08-05T07:14:22Z</time>
      </trkpt>
      <trkpt lat="47.22655" lon="5.89537">
        <ele>284.4</ele>
        <time>2024-08-05T07:14:23Z</time>
      </trkpt>
      <trkpt lat="47.22656" lon="5.89531">
        <ele>284.4</ele>
        <time>2024-08-05T07:14:24Z</time>
      </trkpt>
      <trkpt lat="47.22657" lon="5.89524">
        <ele>284.6</ele>
        <time>2024-08-05T07:14:25Z</time>
      </trkpt>
      <trkpt lat="47.22658" lon="5.89518">
        <ele>284.4</ele>
        <time>2024-08-05T07:14:26Z</time>
      </trkpt>
      <trkpt lat="47.22658" lon="5.89512">
        <ele>284.6</ele>
        <time>2024-08-05T07:14:27Z</time>
      </trkpt>
      <trkpt lat="47.22659" lon="5.89506">
        <ele>284.6</ele>
        <time>2024-08-05T07:14:28Z</time>
      </trkpt>
      <trkpt lat="47.2266" lon="5.895">
        <ele>284.8</ele>
        <time>2024-08-05T07:14:29Z</time>
      </trkpt>
      <trkpt lat="47.22662" lon="5.89495">
        <ele>284.8</ele>
        <time>2024-08-05T07:14:30Z</time>
      </trkpt>
      <trkpt lat="47.22664" lon="5.89489">
        <ele>284.8</ele>
        <time>2024-08-05T07:14:31Z</time>
      </trkpt>
      <trkpt lat="47.22666" lon="5.89484">
        <ele>284.6</ele>
        <time>2024-08-05T07:14:32Z</time>
      </trkpt>
      <trkpt lat="47.22667" lon="5.89479">
        <ele>285</ele>
        <time>2024-08-05T07:14:33Z</time>
      </trkpt>
      <trkpt lat="47.22669" lon="5.89474">
        <ele>284.8</ele>
        <time>2024-08-05T07:14:34Z</time>
      </trkpt>
      <trkpt lat="47.2267" lon="5.89468">
        <ele>285.2</ele>
        <time>2024-08-05T07:14:35Z</time>
      </trkpt>
      <trkpt lat="47.22671" lon="5.89463">
        <ele>285.2</ele>
        <time>2024-08-05T07:14:36Z</time>
      </trkpt>
      <trkpt lat="47.22672" lon="5.89457">
        <ele>285.4</ele>
        <time>2024-08-05T07:14:37Z</time>
      </trkpt>
      <trkpt lat="47.22674" lon="5.89452">
        <ele>285.8</ele>
        <time>2024-08-05T07:14:38Z</time>
      </trkpt>
      <trkpt lat="47.22675" lon="5.89446">
        <ele>285.6</ele>
        <time>2024-08-05T07:14:39Z</time>
      </trkpt>
      <trkpt lat="47.22678" lon="5.89441">
        <ele>286</ele>
        <time>2024-08-05T07:14:40Z</time>
      </trkpt>
      <trkpt lat="47.2268" lon="5.89435">
        <ele>286</ele>
        <time>2024-08-05T07:14:41Z</time>
      </trkpt>
      <trkpt lat="47.22682" lon="5.89429">
        <ele>286.2</ele>
        <time>2024-08-05T07:14:42Z</time>
      </trkpt>
      <trkpt lat="47.22685" lon="5.89424">
        <ele>286.2</ele>
        <time>2024-08-05T07:14:43Z</time>
      </trkpt>
      <trkpt lat="47.22686" lon="5.89418">
        <ele>286.4</ele>
        <time>2024-08-05T07:14:44Z</time>
      </trkpt>
      <trkpt lat="47.22687" lon="5.89413">
        <ele>286.6</ele>
        <time>2024-08-05T07:14:45Z</time>
      </trkpt>
      <trkpt lat="47.22689" lon="5.89407">
        <ele>286.6</ele>
        <time>2024-08-05T07:14:46Z</time>
      </trkpt>
      <trkpt lat="47.2269" lon="5.89402">
        <ele>286.8</ele>
        <time>2024-08-05T07:14:47Z</time>
      </trkpt>
      <trkpt lat="47.22691" lon="5.89397">
        <ele>287</ele>
        <time>2024-08-05T07:14:48Z</time>
      </trkpt>
      <trkpt lat="47.22692" lon="5.89391">
        <ele>287</ele>
        <time>2024-08-05T07:14:49Z</time>
      </trkpt>
      <trkpt lat="47.22693" lon="5.89386">
        <ele>287</ele>
        <time>2024-08-05T07:14:50Z</time>
      </trkpt>
      <trkpt lat="47.22695" lon="5.89381">
        <ele>287</ele>
        <time>2024-08-05T07:14:51Z</time>
      </trkpt>
      <trkpt lat="47.22696" lon="5.89376">
        <ele>287.2</ele>
        <time>2024-08-05T07:14:52Z</time>
      </trkpt>
      <trkpt lat="47.22697" lon="5.89371">
        <ele>287.4</ele>
        <time>2024-08-05T07:14:53Z</time>
      </trkpt>
      <trkpt lat="47.22698" lon="5.89366">
        <ele>287.6</ele>
        <time>2024-08-05T07:14:54Z</time>
      </trkpt>
      <trkpt lat="47.22699" lon="5.89361">
        <ele>287.8</ele>
        <time>2024-08-05T07:14:55Z</time>
      </trkpt>
      <trkpt lat="47.227" lon="5.89356">
        <ele>287.8</ele>
        <time>2024-08-05T07:14:56Z</time>
      </trkpt>
      <trkpt lat="47.227" lon="5.8935">
        <ele>288</ele>
        <time>2024-08-05T07:14:57Z</time>
      </trkpt>
      <trkpt lat="47.22701" lon="5.89345">
        <ele>288</ele>
        <time>2024-08-05T07:14:58Z</time>
      </trkpt>
      <trkpt lat="47.22701" lon="5.89339">
        <ele>288.4</ele>
        <time>2024-08-05T07:14:59Z</time>
      </trkpt>
      <trkpt lat="47.22701" lon="5.89333">
        <ele>288.4</ele>
        <time>2024-08-05T07:15:00Z</time>
      </trkpt>
      <trkpt lat="47.22701" lon="5.89326">
        <ele>288.6</ele>
        <time>2024-08-05T07:15:01Z</time>
      </trkpt>
      <trkpt lat="47.22701" lon="5.89319">
        <ele>288.6</ele>
        <time>2024-08-05T07:15:02Z</time>
      </trkpt>
      <trkpt lat="47.227" lon="5.89312">
        <ele>288.6</ele>
        <time>2024-08-05T07:15:03Z</time>
      </trkpt>
      <trkpt lat="47.22699" lon="5.89305">
        <ele>288.6</ele>
        <time>2024-08-05T07:15:04Z</time>
      </trkpt>
      <trkpt lat="47.22698" lon="5.89298">
        <ele>288.8</ele>
        <time>2024-08-05T07:15:05Z</time>
      </trkpt>
      <trkpt lat="47.22696" lon="5.89289">
        <ele>288.6</ele>
        <time>2024-08-05T07:15:06Z</time>
      </trkpt>
      <trkpt lat="47.22695" lon="5.89281">
        <ele>288.6</ele>
        <time>2024-08-05T07:15:07Z</time>
      </trkpt>
      <trkpt lat="47.22693" lon="5.89272">
        <ele>288.6</ele>
        <time>2024-08-05T07:15:08Z</time>
      </trkpt>
      <trkpt lat="47.22691" lon="5.89263">
        <ele>288.6</ele>
        <time>2024-08-05T07:15:09Z</time>
      </trkpt>
      <trkpt lat="47.22689" lon="5.89254">
        <ele>288.8</ele>
        <time>2024-08-05T07:15:10Z</time>
      </trkpt>
      <trkpt lat="47.22687" lon="5.89245">
        <ele>288.6</ele>
        <time>2024-08-05T07:15:11Z</time>
      </trkpt>
      <trkpt lat="47.22685" lon="5.89235">
        <ele>288.6</ele>
        <time>2024-08-05T07:15:12Z</time>
      </trkpt>
      <trkpt lat="47.22683" lon="5.89226">
        <ele>288.4</ele>
        <time>2024-08-05T07:15:13Z</time>
      </trkpt>
      <trkpt lat="47.22681" lon="5.89216">
        <ele>288.2</ele>
        <time>2024-08-05T07:15:14Z</time>
      </trkpt>
      <trkpt lat="47.22679" lon="5.89206">
        <ele>288</ele>
        <time>2024-08-05T07:15:15Z</time>
      </trkpt>
      <trkpt lat="47.22677" lon="5.89197">
        <ele>287.6</ele>
        <time>2024-08-05T07:15:16Z</time>
      </trkpt>
      <trkpt lat="47.22675" lon="5.89186">
        <ele>287.6</ele>
        <time>2024-08-05T07:15:17Z</time>
      </trkpt>
      <trkpt lat="47.22672" lon="5.89176">
        <ele>287.2</ele>
        <time>2024-08-05T07:15:18Z</time>
      </trkpt>
      <trkpt lat="47.2267" lon="5.89165">
        <ele>287.2</ele>
        <time>2024-08-05T07:15:19Z</time>
      </trkpt>
      <trkpt lat="47.22669" lon="5.89154">
        <ele>287</ele>
        <time>2024-08-05T07:15:20Z</time>
      </trkpt>
      <trkpt lat="47.22667" lon="5.89143">
        <ele>286.8</ele>
        <time>2024-08-05T07:15:21Z</time>
      </trkpt>
      <trkpt lat="47.22664" lon="5.89131">
        <ele>286.6</ele>
        <time>2024-08-05T07:15:22Z</time>
      </trkpt>
      <trkpt lat="47.22662" lon="5.8912">
        <ele>286.6</ele>
        <time>2024-08-05T07:15:23Z</time>
      </trkpt>
      <trkpt lat="47.22659" lon="5.89108">
        <ele>286.2</ele>
        <time>2024-08-05T07:15:24Z</time>
      </trkpt>
      <trkpt lat="47.22656" lon="5.89096">
        <ele>286</ele>
        <time>2024-08-05T07:15:25Z</time>
      </trkpt>
      <trkpt lat="47.22654" lon="5.89084">
        <ele>285.8</ele>
        <time>2024-08-05T07:15:26Z</time>
      </trkpt>
      <trkpt lat="47.22651" lon="5.89072">
        <ele>285.6</ele>
        <time>2024-08-05T07:15:27Z</time>
      </trkpt>
      <trkpt lat="47.22647" lon="5.89061">
        <ele>285.2</ele>
        <time>2024-08-05T07:15:28Z</time>
      </trkpt>
      <trkpt lat="47.22644" lon="5.89049">
        <ele>284.8</ele>
        <time>2024-08-05T07:15:29Z</time>
      </trkpt>
      <trkpt lat="47.22641" lon="5.89038">
        <ele>284.4</ele>
        <time>2024-08-05T07:15:30Z</time>
      </trkpt>
      <trkpt lat="47.22638" lon="5.89026">
        <ele>284</ele>
        <time>2024-08-05T07:15:31Z</time>
      </trkpt>
      <trkpt lat="47.22636" lon="5.89014">
        <ele>283.8</ele>
        <time>2024-08-05T07:15:32Z</time>
      </trkpt>
      <trkpt lat="47.22634" lon="5.89003">
        <ele>283.2</ele>
        <time>2024-08-05T07:15:33Z</time>
      </trkpt>
      <trkpt lat="47.22632" lon="5.88992">
        <ele>283.2</ele>
        <time>2024-08-05T07:15:34Z</time>
      </trkpt>
      <trkpt lat="47.2263" lon="5.88981">
        <ele>283</ele>
        <time>2024-08-05T07:15:35Z</time>
      </trkpt>
      <trkpt lat="47.22629" lon="5.8897">
        <ele>282.6</ele>
        <time>2024-08-05T07:15:36Z</time>
      </trkpt>
      <trkpt lat="47.22627" lon="5.8896">
        <ele>282.4</ele>
        <time>2024-08-05T07:15:37Z</time>
      </trkpt>
      <trkpt lat="47.22626" lon="5.8895">
        <ele>282.4</ele>
        <time>2024-08-05T07:15:38Z</time>
      </trkpt>
      <trkpt lat="47.22625" lon="5.8894">
        <ele>282.2</ele>
        <time>2024-08-05T07:15:39Z</time>
      </trkpt>
      <trkpt lat="47.22624" lon="5.88931">
        <ele>281.8</ele>
        <time>2024-08-05T07:15:40Z</time>
      </trkpt>
      <trkpt lat="47.22623" lon="5.88922">
        <ele>281.8</ele>
        <time>2024-08-05T07:15:41Z</time>
      </trkpt>
      <trkpt lat="47.22622" lon="5.88913">
        <ele>281.4</ele>
        <time>2024-08-05T07:15:42Z</time>
      </trkpt>
      <trkpt lat="47.22621" lon="5.88904">
        <ele>281.4</ele>
        <time>2024-08-05T07:15:43Z</time>
      </trkpt>
      <trkpt lat="47.22621" lon="5.88896">
        <ele>281.4</ele>
        <time>2024-08-05T07:15:44Z</time>
      </trkpt>
      <trkpt lat="47.22621" lon="5.88889">
        <ele>281.2</ele>
        <time>2024-08-05T07:15:45Z</time>
      </trkpt>
      <trkpt lat="47.22621" lon="5.88883">
        <ele>281</ele>
        <time>2024-08-05T07:15:46Z</time>
      </trkpt>
      <trkpt lat="47.22622" lon="5.88877">
        <ele>281</ele>
        <time>2024-08-05T07:15:47Z</time>
      </trkpt>
      <trkpt lat="47.22623" lon="5.88871">
        <ele>280.8</ele>
        <time>2024-08-05T07:15:48Z</time>
      </trkpt>
      <trkpt lat="47.22624" lon="5.88866">
        <ele>280.8</ele>
        <time>2024-08-05T07:15:49Z</time>
      </trkpt>
      <trkpt lat="47.22625" lon="5.8886">
        <ele>280.8</ele>
        <time>2024-08-05T07:15:50Z</time>
      </trkpt>
      <trkpt lat="47.22625" lon="5.88855">
        <ele>280.8</ele>
        <time>2024-08-05T07:15:51Z</time>
      </trkpt>
      <trkpt lat="47.22624" lon="5.8885">
        <ele>280.8</ele>
        <time>2024-08-05T07:15:52Z</time>
      </trkpt>
      <trkpt lat="47.22623" lon="5.88845">
        <ele>280.6</ele>
        <time>2024-08-05T07:15:53Z</time>
      </trkpt>
      <trkpt lat="47.2262" lon="5.88841">
        <ele>280.6</ele>
        <time>2024-08-05T07:15:54Z</time>
      </trkpt>
      <trkpt lat="47.22617" lon="5.88837">
        <ele>280.6</ele>
        <time>2024-08-05T07:15:55Z</time>
      </trkpt>
      <trkpt lat="47.22613" lon="5.88835">
        <ele>280.6</ele>
        <time>2024-08-05T07:15:56Z</time>
      </trkpt>
      <trkpt lat="47.22608" lon="5.88835">
        <ele>280.6</ele>
        <time>2024-08-05T07:15:57Z</time>
      </trkpt>
      <trkpt lat="47.22604" lon="5.88836">
        <ele>280.6</ele>
        <time>2024-08-05T07:15:58Z</time>
      </trkpt>
      <trkpt lat="47.226" lon="5.88839">
        <ele>280.4</ele>
        <time>2024-08-05T07:15:59Z</time>
      </trkpt>
      <trkpt lat="47.22597" lon="5.88843">
        <ele>280.6</ele>
        <time>2024-08-05T07:16:00Z</time>
      </trkpt>
      <trkpt lat="47.22594" lon="5.88847">
        <ele>280.6</ele>
        <time>2024-08-05T07:16:01Z</time>
      </trkpt>
      <trkpt lat="47.2259" lon="5.88851">
        <ele>280.6</ele>
        <time>2024-08-05T07:16:02Z</time>
      </trkpt>
      <trkpt lat="47.22587" lon="5.88854">
        <ele>280.6</ele>
        <time>2024-08-05T07:16:03Z</time>
      </trkpt>
      <trkpt lat="47.22584" lon="5.88857">
        <ele>280.6</ele>
        <time>2024-08-05T07:16:04Z</time>
      </trkpt>
      <trkpt lat="47.22581" lon="5.8886">
        <ele>280.6</ele>
        <time>2024-08-05T07:16:05Z</time>
      </trkpt>
      <trkpt lat="47.22578" lon="5.88863">
        <ele>280.8</ele>
        <time>2024-08-05T07:16:06Z</time>
      </trkpt>
      <trkpt lat="47.22575" lon="5.88866">
        <ele>280.8</ele>
        <time>2024-08-05T07:16:07Z</time>
      </trkpt>
      <trkpt lat="47.22572" lon="5.88868">
        <ele>280.8</ele>
        <time>2024-08-05T07:16:08Z</time>
      </trkpt>
      <trkpt lat="47.2257" lon="5.88872">
        <ele>280.6</ele>
        <time>2024-08-05T07:16:09Z</time>
      </trkpt>
      <trkpt lat="47.22568" lon="5.88875">
        <ele>280.6</ele>
        <time>2024-08-05T07:16:10Z</time>
      </trkpt>
      <trkpt lat="47.22566" lon="5.88879">
        <ele>280.8</ele>
        <time>2024-08-05T07:16:11Z</time>
      </trkpt>
      <trkpt lat="47.22564" lon="5.88883">
        <ele>280.8</ele>
        <time>2024-08-05T07:16:12Z</time>
      </trkpt>
      <trkpt lat="47.22563" lon="5.88888">
        <ele>280.6</ele>
        <time>2024-08-05T07:16:13Z</time>
      </trkpt>
      <trkpt lat="47.22563" lon="5.88892">
        <ele>280.8</ele>
        <time>2024-08-05T07:16:14Z</time>
      </trkpt>
      <trkpt lat="47.22562" lon="5.88897">
        <ele>281</ele>
        <time>2024-08-05T07:16:15Z</time>
      </trkpt>
      <trkpt lat="47.22562" lon="5.88901">
        <ele>281.2</ele>
        <time>2024-08-05T07:16:16Z</time>
      </trkpt>
      <trkpt lat="47.22561" lon="5.88906">
        <ele>281.2</ele>
        <time>2024-08-05T07:16:17Z</time>
      </trkpt>
      <trkpt lat="47.22561" lon="5.8891">
        <ele>281.4</ele>
        <time>2024-08-05T07:16:18Z</time>
      </trkpt>
      <trkpt lat="47.22561" lon="5.88914">
        <ele>281.6</ele>
        <time>2024-08-05T07:16:19Z</time>
      </trkpt>
      <trkpt lat="47.2256" lon="5.88919">
        <ele>282</ele>
        <time>2024-08-05T07:16:20Z</time>
      </trkpt>
      <trkpt lat="47.2256" lon="5.88923">
        <ele>282</ele>
        <time>2024-08-05T07:16:21Z</time>
      </trkpt>
      <trkpt lat="47.22559" lon="5.88927">
        <ele>282.6</ele>
        <time>2024-08-05T07:16:22Z</time>
      </trkpt>
      <trkpt lat="47.22558" lon="5.88932">
        <ele>282.8</ele>
        <time>2024-08-05T07:16:23Z</time>
      </trkpt>
      <trkpt lat="47.22557" lon="5.88936">
        <ele>283</ele>
        <time>2024-08-05T07:16:24Z</time>
      </trkpt>
      <trkpt lat="47.22555" lon="5.8894">
        <ele>283.4</ele>
        <time>2024-08-05T07:16:25Z</time>
      </trkpt>
      <trkpt lat="47.22554" lon="5.88945">
        <ele>283.6</ele>
        <time>2024-08-05T07:16:26Z</time>
      </trkpt>
      <trkpt lat="47.22552" lon="5.88949">
        <ele>283.8</ele>
        <time>2024-08-05T07:16:27Z</time>
      </trkpt>
      <trkpt lat="47.2255" lon="5.88953">
        <ele>284.2</ele>
        <time>2024-08-05T07:16:28Z</time>
      </trkpt>
      <trkpt lat="47.22548" lon="5.88957">
        <ele>284.4</ele>
        <time>2024-08-05T07:16:29Z</time>
      </trkpt>
      <trkpt lat="47.22546" lon="5.8896">
        <ele>284.8</ele>
        <time>2024-08-05T07:16:30Z</time>
      </trkpt>
      <trkpt lat="47.22544" lon="5.88963">
        <ele>285.2</ele>
        <time>2024-08-05T07:16:31Z</time>
      </trkpt>
      <trkpt lat="47.22543" lon="5.88967">
        <ele>285.6</ele>
        <time>2024-08-05T07:16:32Z</time>
      </trkpt>
      <trkpt lat="47.22541" lon="5.8897">
        <ele>285.8</ele>
        <time>2024-08-05T07:16:33Z</time>
      </trkpt>
      <trkpt lat="47.22539" lon="5.88973">
        <ele>286</ele>
        <time>2024-08-05T07:16:34Z</time>
      </trkpt>
      <trkpt lat="47.22537" lon="5.88976">
        <ele>286.4</ele>
        <time>2024-08-05T07:16:35Z</time>
      </trkpt>
      <trkpt lat="47.22535" lon="5.88979">
        <ele>286.4</ele>
        <time>2024-08-05T07:16:36Z</time>
      </trkpt>
      <trkpt lat="47.22533" lon="5.88981">
        <ele>286.8</ele>
        <time>2024-08-05T07:16:37Z</time>
      </trkpt>
      <trkpt lat="47.22531" lon="5.88983">
        <ele>287</ele>
        <time>2024-08-05T07:16:38Z</time>
      </trkpt>
      <trkpt lat="47.22529" lon="5.88985">
        <ele>287</ele>
        <time>2024-08-05T07:16:39Z</time>
      </trkpt>
      <trkpt lat="47.22528" lon="5.88986">
        <ele>287.6</ele>
        <time>2024-08-05T07:16:40Z</time>
      </trkpt>
      <trkpt lat="47.22526" lon="5.88988">
        <ele>287.8</ele>
        <time>2024-08-05T07:16:41Z</time>
      </trkpt>
      <trkpt lat="47.22524" lon="5.88989">
        <ele>288.2</ele>
        <time>2024-08-05T07:16:42Z</time>
      </trkpt>
      <trkpt lat="47.22523" lon="5.88991">
        <ele>288.6</ele>
        <time>2024-08-05T07:16:43Z</time>
      </trkpt>
      <trkpt lat="47.22521" lon="5.88993">
        <ele>288.6</ele>
        <time>2024-08-05T07:16:44Z</time>
      </trkpt>
      <trkpt lat="47.22519" lon="5.88995">
        <ele>289.2</ele>
        <time>2024-08-05T07:16:45Z</time>
      </trkpt>
      <trkpt lat="47.22517" lon="5.88997">
        <ele>289.4</ele>
        <time>2024-08-05T07:16:46Z</time>
      </trkpt>
      <trkpt lat="47.22516" lon="5.88999">
        <ele>289.8</ele>
        <time>2024-08-05T07:16:47Z</time>
      </trkpt>
      <trkpt lat="47.22514" lon="5.89003">
        <ele>290.2</ele>
        <time>2024-08-05T07:16:48Z</time>
      </trkpt>
      <trkpt lat="47.22513" lon="5.89005">
        <ele>290.4</ele>
        <time>2024-08-05T07:16:49Z</time>
      </trkpt>
      <trkpt lat="47.22512" lon="5.89008">
        <ele>290.6</ele>
        <time>2024-08-05T07:16:50Z</time>
      </trkpt>
      <trkpt lat="47.2251" lon="5.89011">
        <ele>291</ele>
        <time>2024-08-05T07:16:51Z</time>
      </trkpt>
      <trkpt lat="47.22509" lon="5.89014">
        <ele>291.4</ele>
        <time>2024-08-05T07:16:52Z</time>
      </trkpt>
      <trkpt lat="47.22508" lon="5.89017">
        <ele>291.8</ele>
        <time>2024-08-05T07:16:53Z</time>
      </trkpt>
      <trkpt lat="47.22507" lon="5.8902">
        <ele>292.2</ele>
        <time>2024-08-05T07:16:54Z</time>
      </trkpt>
      <trkpt lat="47.22506" lon="5.89022">
        <ele>292.6</ele>
        <time>2024-08-05T07:16:55Z</time>
      </trkpt>
      <trkpt lat="47.22504" lon="5.89024">
        <ele>293</ele>
        <time>2024-08-05T07:16:56Z</time>
      </trkpt>
      <trkpt lat="47.22503" lon="5.89027">
        <ele>293.2</ele>
        <time>2024-08-05T07:16:57Z</time>
      </trkpt>
      <trkpt lat="47.225" lon="5.89029">
        <ele>293.8</ele>
        <time>2024-08-05T07:16:58Z</time>
      </trkpt>
      <trkpt lat="47.22497" lon="5.8903">
        <ele>294</ele>
        <time>2024-08-05T07:16:59Z</time>
      </trkpt>
      <trkpt lat="47.22494" lon="5.89031">
        <ele>294.2</ele>
        <time>2024-08-05T07:17:00Z</time>
      </trkpt>
      <trkpt lat="47.22492" lon="5.89032">
        <ele>294.2</ele>
        <time>2024-08-05T07:17:01Z</time>
      </trkpt>
      <trkpt lat="47.22488" lon="5.89033">
        <ele>294.6</ele>
        <time>2024-08-05T07:17:02Z</time>
      </trkpt>
      <trkpt lat="47.22485" lon="5.89034">
        <ele>295</ele>
        <time>2024-08-05T07:17:03Z</time>
      </trkpt>
      <trkpt lat="47.22483" lon="5.89035">
        <ele>295.4</ele>
        <time>2024-08-05T07:17:04Z</time>
      </trkpt>
      <trkpt lat="47.22481" lon="5.89036">
        <ele>295.6</ele>
        <time>2024-08-05T07:17:05Z</time>
      </trkpt>
      <trkpt lat="47.22479" lon="5.89036">
        <ele>296</ele>
        <time>2024-08-05T07:17:06Z</time>
      </trkpt>
      <trkpt lat="47.22477" lon="5.89037">
        <ele>296.2</ele>
        <time>2024-08-05T07:17:07Z</time>
      </trkpt>
      <trkpt lat="47.22475" lon="5.89037">
        <ele>296.4</ele>
        <time>2024-08-05T07:17:08Z</time>
      </trkpt>
      <trkpt lat="47.22473" lon="5.89038">
        <ele>296.6</ele>
        <time>2024-08-05T07:17:09Z</time>
      </trkpt>
      <trkpt lat="47.22471" lon="5.89039">
        <ele>296.8</ele>
        <time>2024-08-05T07:17:10Z</time>
      </trkpt>
      <trkpt lat="47.22469" lon="5.8904">
        <ele>296.8</ele>
        <time>2024-08-05T07:17:11Z</time>
      </trkpt>
      <trkpt lat="47.22468" lon="5.89037">
        <ele>296.8</ele>
        <time>2024-08-05T07:17:12Z</time>
      </trkpt>
      <trkpt lat="47.22467" lon="5.89034">
        <ele>297</ele>
        <time>2024-08-05T07:17:13Z</time>
      </trkpt>
      <trkpt lat="47.22465" lon="5.89031">
        <ele>297</ele>
        <time>2024-08-05T07:17:14Z</time>
      </trkpt>
      <trkpt lat="47.22464" lon="5.89027">
        <ele>297.2</ele>
        <time>2024-08-05T07:17:15Z</time>
      </trkpt>
      <trkpt lat="47.22464" lon="5.89023">
        <ele>297.2</ele>
        <time>2024-08-05T07:17:16Z</time>
      </trkpt>
      <trkpt lat="47.22463" lon="5.89018">
        <ele>297.4</ele>
        <time>2024-08-05T07:17:17Z</time>
      </trkpt>
      <trkpt lat="47.22462" lon="5.89014">
        <ele>297.2</ele>
        <time>2024-08-05T07:17:18Z</time>
      </trkpt>
      <trkpt lat="47.22462" lon="5.8901">
        <ele>297.4</ele>
        <time>2024-08-05T07:17:19Z</time>
      </trkpt>
      <trkpt lat="47.22461" lon="5.89006">
        <ele>297.4</ele>
        <time>2024-08-05T07:17:20Z</time>
      </trkpt>
      <trkpt lat="47.22461" lon="5.89002">
        <ele>297.4</ele>
        <time>2024-08-05T07:17:21Z</time>
      </trkpt>
      <trkpt lat="47.22461" lon="5.88998">
        <ele>297.4</ele>
        <time>2024-08-05T07:17:22Z</time>
      </trkpt>
      <trkpt lat="47.2246" lon="5.88995">
        <ele>297.6</ele>
        <time>2024-08-05T07:17:23Z</time>
      </trkpt>
      <trkpt lat="47.22459" lon="5.88991">
        <ele>297.6</ele>
        <time>2024-08-05T07:17:24Z</time>
      </trkpt>
      <trkpt lat="47.22458" lon="5.88987">
        <ele>297.4</ele>
        <time>2024-08-05T07:17:25Z</time>
      </trkpt>
      <trkpt lat="47.22457" lon="5.88983">
        <ele>297.6</ele>
        <time>2024-08-05T07:17:26Z</time>
      </trkpt>
      <trkpt lat="47.22457" lon="5.88978">
        <ele>297.4</ele>
        <time>2024-08-05T07:17:27Z</time>
      </trkpt>
      <trkpt lat="47.22455" lon="5.88974">
        <ele>297.4</ele>
        <time>2024-08-05T07:17:28Z</time>
      </trkpt>
      <trkpt lat="47.22454" lon="5.8897">
        <ele>297.6</ele>
        <time>2024-08-05T07:17:29Z</time>
      </trkpt>
      <trkpt lat="47.22453" lon="5.88965">
        <ele>297.4</ele>
        <time>2024-08-05T07:17:30Z</time>
      </trkpt>
      <trkpt lat="47.22451" lon="5.88961">
        <ele>297.4</ele>
        <time>2024-08-05T07:17:31Z</time>
      </trkpt>
      <trkpt lat="47.22449" lon="5.88957">
        <ele>297.4</ele>
        <time>2024-08-05T07:17:32Z</time>
      </trkpt>
      <trkpt lat="47.22447" lon="5.88952">
        <ele>297.4</ele>
        <time>2024-08-05T07:17:33Z</time>
      </trkpt>
      <trkpt lat="47.22444" lon="5.88946">
        <ele>297.4</ele>
        <time>2024-08-05T07:17:34Z</time>
      </trkpt>
      <trkpt lat="47.22441" lon="5.8894">
        <ele>297.4</ele>
        <time>2024-08-05T07:17:35Z</time>
      </trkpt>
      <trkpt lat="47.2244" lon="5.88936">
        <ele>297.4</ele>
        <time>2024-08-05T07:17:36Z</time>
      </trkpt>
      <trkpt lat="47.22439" lon="5.88933">
        <ele>297.2</ele>
        <time>2024-08-05T07:17:37Z</time>
      </trkpt>
      <trkpt lat="47.22439" lon="5.8893">
        <ele>297.2</ele>
        <time>2024-08-05T07:17:38Z</time>
      </trkpt>
      <trkpt lat="47.22439" lon="5.88929">
        <ele>297.2</ele>
        <time>2024-08-05T07:17:39Z</time>
      </trkpt>
      <trkpt lat="47.22438" lon="5.88928">
        <ele>297</ele>
        <time>2024-08-05T07:17:40Z</time>
      </trkpt>
      <trkpt lat="47.22438" lon="5.88928">
        <ele>296.8</ele>
        <time>2024-08-05T07:17:41Z</time>
      </trkpt>
      <trkpt lat="47.22438" lon="5.88928">
        <ele>296.8</ele>
        <time>2024-08-05T07:17:42Z</time>
      </trkpt>
      <trkpt lat="47.22437" lon="5.88928">
        <ele>296.8</ele>
        <time>2024-08-05T07:17:43Z</time>
      </trkpt>
      <trkpt lat="47.22437" lon="5.88929">
        <ele>296.8</ele>
        <time>2024-08-05T07:17:44Z</time>
      </trkpt>
      <trkpt lat="47.22437" lon="5.88929">
        <ele>296.6</ele>
        <time>2024-08-05T07:17:45Z</time>
      </trkpt>
      <trkpt lat="47.22437" lon="5.88929">
        <ele>296.4</ele>
        <time>2024-08-05T07:17:46Z</time>
      </trkpt>
      <trkpt lat="47.22437" lon="5.8893">
        <ele>296.2</ele>
        <time>2024-08-05T07:17:47Z</time>
      </trkpt>
      <trkpt lat="47.22437" lon="5.8893">
        <ele>296.2</ele>
        <time>2024-08-05T07:17:48Z</time>
      </trkpt>
      <trkpt lat="47.22437" lon="5.8893">
        <ele>296.2</ele>
        <time>2024-08-05T07:17:49Z</time>
      </trkpt>
      <trkpt lat="47.22437" lon="5.8893">
        <ele>296.2</ele>
        <time>2024-08-05T07:17:50Z</time>
      </trkpt>
      <trkpt lat="47.22438" lon="5.8893">
        <ele>296.2</ele>
        <time>2024-08-05T07:17:51Z</time>
      </trkpt>
      <trkpt lat="47.22438" lon="5.8893">
        <ele>296.2</ele>
        <time>2024-08-05T07:17:52Z</time>
      </trkpt>
      <trkpt lat="47.22438" lon="5.8893">
        <ele>296.2</ele>
        <time>2024-08-05T07:17:53Z</time>
      </trkpt>
      <trkpt lat="47.22437" lon="5.88929">
        <ele>296.2</ele>
        <time>2024-08-05T07:17:54Z</time>
      </trkpt>
      <trkpt lat="47.22437" lon="5.88927">
        <ele>296</ele>
        <time>2024-08-05T07:17:55Z</time>
      </trkpt>
      <trkpt lat="47.22436" lon="5.88924">
        <ele>296.2</ele>
        <time>2024-08-05T07:17:56Z</time>
      </trkpt>
      <trkpt lat="47.22434" lon="5.88921">
        <ele>296.2</ele>
        <time>2024-08-05T07:17:57Z</time>
      </trkpt>
      <trkpt lat="47.22433" lon="5.88917">
        <ele>296.2</ele>
        <time>2024-08-05T07:17:58Z</time>
      </trkpt>
      <trkpt lat="47.22432" lon="5.88913">
        <ele>296</ele>
        <time>2024-08-05T07:17:59Z</time>
      </trkpt>
      <trkpt lat="47.22431" lon="5.88909">
        <ele>296.2</ele>
        <time>2024-08-05T07:18:00Z</time>
      </trkpt>
      <trkpt lat="47.2243" lon="5.88905">
        <ele>296</ele>
        <time>2024-08-05T07:18:01Z</time>
      </trkpt>
      <trkpt lat="47.22429" lon="5.88901">
        <ele>296.2</ele>
        <time>2024-08-05T07:18:02Z</time>
      </trkpt>
      <trkpt lat="47.22428" lon="5.88897">
        <ele>296.2</ele>
        <time>2024-08-05T07:18:03Z</time>
      </trkpt>
      <trkpt lat="47.22426" lon="5.88893">
        <ele>296</ele>
        <time>2024-08-05T07:18:04Z</time>
      </trkpt>
      <trkpt lat="47.22425" lon="5.8889">
        <ele>296.2</ele>
        <time>2024-08-05T07:18:05Z</time>
      </trkpt>
      <trkpt lat="47.22423" lon="5.88886">
        <ele>296.2</ele>
        <time>2024-08-05T07:18:06Z</time>
      </trkpt>
      <trkpt lat="47.22421" lon="5.88883">
        <ele>296.2</ele>
        <time>2024-08-05T07:18:07Z</time>
      </trkpt>
      <trkpt lat="47.22418" lon="5.8888">
        <ele>296</ele>
        <time>2024-08-05T07:18:08Z</time>
      </trkpt>
      <trkpt lat="47.22416" lon="5.88876">
        <ele>296.2</ele>
        <time>2024-08-05T07:18:09Z</time>
      </trkpt>
      <trkpt lat="47.22413" lon="5.88873">
        <ele>296</ele>
        <time>2024-08-05T07:18:10Z</time>
      </trkpt>
      <trkpt lat="47.22411" lon="5.88869">
        <ele>295.8</ele>
        <time>2024-08-05T07:18:11Z</time>
      </trkpt>
      <trkpt lat="47.22408" lon="5.88866">
        <ele>295.8</ele>
        <time>2024-08-05T07:18:12Z</time>
      </trkpt>
      <trkpt lat="47.22406" lon="5.88863">
        <ele>296</ele>
        <time>2024-08-05T07:18:13Z</time>
      </trkpt>
      <trkpt lat="47.22403" lon="5.88859">
        <ele>295.8</ele>
        <time>2024-08-05T07:18:14Z</time>
      </trkpt>
      <trkpt lat="47.224" lon="5.88857">
        <ele>295.8</ele>
        <time>2024-08-05T07:18:15Z</time>
      </trkpt>
      <trkpt lat="47.22398" lon="5.88854">
        <ele>295.8</ele>
        <time>2024-08-05T07:18:16Z</time>
      </trkpt>
      <trkpt lat="47.22395" lon="5.88851">
        <ele>295.8</ele>
        <time>2024-08-05T07:18:17Z</time>
      </trkpt>
      <trkpt lat="47.22393" lon="5.88848">
        <ele>295.8</ele>
        <time>2024-08-05T07:18:18Z</time>
      </trkpt>
      <trkpt lat="47.2239" lon="5.88845">
        <ele>296</ele>
        <time>2024-08-05T07:18:19Z</time>
      </trkpt>
      <trkpt lat="47.22388" lon="5.88842">
        <ele>296</ele>
        <time>2024-08-05T07:18:20Z</time>
      </trkpt>
      <trkpt lat="47.22385" lon="5.8884">
        <ele>295.8</ele>
        <time>2024-08-05T07:18:21Z</time>
      </trkpt>
      <trkpt lat="47.22382" lon="5.88838">
        <ele>296.2</ele>
        <time>2024-08-05T07:18:22Z</time>
      </trkpt>
      <trkpt lat="47.22379" lon="5.88835">
        <ele>296.2</ele>
        <time>2024-08-05T07:18:23Z</time>
      </trkpt>
      <trkpt lat="47.22376" lon="5.88833">
        <ele>296.2</ele>
        <time>2024-08-05T07:18:24Z</time>
      </trkpt>
      <trkpt lat="47.22371" lon="5.8883">
        <ele>296.2</ele>
        <time>2024-08-05T07:18:25Z</time>
      </trkpt>
      <trkpt lat="47.22368" lon="5.88828">
        <ele>296.6</ele>
        <time>2024-08-05T07:18:26Z</time>
      </trkpt>
      <trkpt lat="47.22364" lon="5.88826">
        <ele>296.6</ele>
        <time>2024-08-05T07:18:27Z</time>
      </trkpt>
      <trkpt lat="47.22361" lon="5.88824">
        <ele>296.8</ele>
        <time>2024-08-05T07:18:28Z</time>
      </trkpt>
      <trkpt lat="47.22357" lon="5.88823">
        <ele>296.8</ele>
        <time>2024-08-05T07:18:29Z</time>
      </trkpt>
      <trkpt lat="47.22353" lon="5.88823">
        <ele>297</ele>
        <time>2024-08-05T07:18:30Z</time>
      </trkpt>
      <trkpt lat="47.2235" lon="5.88822">
        <ele>297.4</ele>
        <time>2024-08-05T07:18:31Z</time>
      </trkpt>
      <trkpt lat="47.22346" lon="5.8882">
        <ele>297.6</ele>
        <time>2024-08-05T07:18:32Z</time>
      </trkpt>
      <trkpt lat="47.22343" lon="5.88819">
        <ele>297.8</ele>
        <time>2024-08-05T07:18:33Z</time>
      </trkpt>
      <trkpt lat="47.2234" lon="5.88817">
        <ele>298</ele>
        <time>2024-08-05T07:18:34Z</time>
      </trkpt>
      <trkpt lat="47.22337" lon="5.88814">
        <ele>298.4</ele>
        <time>2024-08-05T07:18:35Z</time>
      </trkpt>
      <trkpt lat="47.22334" lon="5.88811">
        <ele>298.8</ele>
        <time>2024-08-05T07:18:36Z</time>
      </trkpt>
      <trkpt lat="47.22332" lon="5.88808">
        <ele>298.8</ele>
        <time>2024-08-05T07:18:37Z</time>
      </trkpt>
      <trkpt lat="47.2233" lon="5.88805">
        <ele>299</ele>
        <time>2024-08-05T07:18:38Z</time>
      </trkpt>
      <trkpt lat="47.22328" lon="5.88803">
        <ele>299</ele>
        <time>2024-08-05T07:18:39Z</time>
      </trkpt>
      <trkpt lat="47.22325" lon="5.888">
        <ele>299.2</ele>
        <time>2024-08-05T07:18:40Z</time>
      </trkpt>
      <trkpt lat="47.22323" lon="5.88798">
        <ele>299.2</ele>
        <time>2024-08-05T07:18:41Z</time>
      </trkpt>
      <trkpt lat="47.22321" lon="5.88795">
        <ele>299.2</ele>
        <time>2024-08-05T07:18:42Z</time>
      </trkpt>
      <trkpt lat="47.22319" lon="5.88792">
        <ele>299.4</ele>
        <time>2024-08-05T07:18:43Z</time>
      </trkpt>
      <trkpt lat="47.22317" lon="5.88789">
        <ele>299.6</ele>
        <time>2024-08-05T07:18:44Z</time>
      </trkpt>
      <trkpt lat="47.22315" lon="5.88785">
        <ele>299.8</ele>
        <time>2024-08-05T07:18:45Z</time>
      </trkpt>
      <trkpt lat="47.22314" lon="5.88782">
        <ele>300</ele>
        <time>2024-08-05T07:18:46Z</time>
      </trkpt>
      <trkpt lat="47.22313" lon="5.88779">
        <ele>300.4</ele>
        <time>2024-08-05T07:18:47Z</time>
      </trkpt>
      <trkpt lat="47.22311" lon="5.88775">
        <ele>300.6</ele>
        <time>2024-08-05T07:18:48Z</time>
      </trkpt>
      <trkpt lat="47.2231" lon="5.88772">
        <ele>300.6</ele>
        <time>2024-08-05T07:18:49Z</time>
      </trkpt>
      <trkpt lat="47.22308" lon="5.88769">
        <ele>300.8</ele>
        <time>2024-08-05T07:18:50Z</time>
      </trkpt>
      <trkpt lat="47.22307" lon="5.88765">
        <ele>301</ele>
        <time>2024-08-05T07:18:51Z</time>
      </trkpt>
      <trkpt lat="47.22305" lon="5.88761">
        <ele>301.2</ele>
        <time>2024-08-05T07:18:52Z</time>
      </trkpt>
      <trkpt lat="47.22303" lon="5.88758">
        <ele>301.4</ele>
        <time>2024-08-05T07:18:53Z</time>
      </trkpt>
      <trkpt lat="47.22302" lon="5.88754">
        <ele>301.6</ele>
        <time>2024-08-05T07:18:54Z</time>
      </trkpt>
      <trkpt lat="47.223" lon="5.8875">
        <ele>301.8</ele>
        <time>2024-08-05T07:18:55Z</time>
      </trkpt>
      <trkpt lat="47.22298" lon="5.88746">
        <ele>302</ele>
        <time>2024-08-05T07:18:56Z</time>
      </trkpt>
      <trkpt lat="47.22297" lon="5.88741">
        <ele>302</ele>
        <time>2024-08-05T07:18:57Z</time>
      </trkpt>
      <trkpt lat="47.22295" lon="5.88737">
        <ele>302.2</ele>
        <time>2024-08-05T07:18:58Z</time>
      </trkpt>
      <trkpt lat="47.22294" lon="5.88734">
        <ele>302.6</ele>
        <time>2024-08-05T07:18:59Z</time>
      </trkpt>
      <trkpt lat="47.22292" lon="5.88731">
        <ele>302.8</ele>
        <time>2024-08-05T07:19:00Z</time>
      </trkpt>
      <trkpt lat="47.2229" lon="5.88728">
        <ele>303</ele>
        <time>2024-08-05T07:19:01Z</time>
      </trkpt>
      <trkpt lat="47.22288" lon="5.88725">
        <ele>303.2</ele>
        <time>2024-08-05T07:19:02Z</time>
      </trkpt>
      <trkpt lat="47.22286" lon="5.88722">
        <ele>303.4</ele>
        <time>2024-08-05T07:19:03Z</time>
      </trkpt>
      <trkpt lat="47.22284" lon="5.88719">
        <ele>303.4</ele>
        <time>2024-08-05T07:19:04Z</time>
      </trkpt>
      <trkpt lat="47.22281" lon="5.88717">
        <ele>303.6</ele>
        <time>2024-08-05T07:19:05Z</time>
      </trkpt>
      <trkpt lat="47.22279" lon="5.88714">
        <ele>303.8</ele>
        <time>2024-08-05T07:19:06Z</time>
      </trkpt>
      <trkpt lat="47.22277" lon="5.88711">
        <ele>304</ele>
        <time>2024-08-05T07:19:07Z</time>
      </trkpt>
      <trkpt lat="47.22274" lon="5.88709">
        <ele>304.4</ele>
        <time>2024-08-05T07:19:08Z</time>
      </trkpt>
      <trkpt lat="47.22271" lon="5.88707">
        <ele>304.6</ele>
        <time>2024-08-05T07:19:09Z</time>
      </trkpt>
      <trkpt lat="47.22268" lon="5.88703">
        <ele>304.6</ele>
        <time>2024-08-05T07:19:10Z</time>
      </trkpt>
      <trkpt lat="47.22266" lon="5.88701">
        <ele>304.6</ele>
        <time>2024-08-05T07:19:11Z</time>
      </trkpt>
      <trkpt lat="47.22263" lon="5.88698">
        <ele>304.6</ele>
        <time>2024-08-05T07:19:12Z</time>
      </trkpt>
      <trkpt lat="47.2226" lon="5.88695">
        <ele>304.6</ele>
        <time>2024-08-05T07:19:13Z</time>
      </trkpt>
      <trkpt lat="47.22256" lon="5.88692">
        <ele>304.8</ele>
        <time>2024-08-05T07:19:14Z</time>
      </trkpt>
      <trkpt lat="47.22253" lon="5.88689">
        <ele>304.8</ele>
        <time>2024-08-05T07:19:15Z</time>
      </trkpt>
      <trkpt lat="47.22249" lon="5.88686">
        <ele>304.6</ele>
        <time>2024-08-05T07:19:16Z</time>
      </trkpt>
      <trkpt lat="47.22246" lon="5.88684">
        <ele>304.6</ele>
        <time>2024-08-05T07:19:17Z</time>
      </trkpt>
      <trkpt lat="47.22243" lon="5.88682">
        <ele>304.8</ele>
        <time>2024-08-05T07:19:18Z</time>
      </trkpt>
      <trkpt lat="47.22238" lon="5.8868">
        <ele>304.8</ele>
        <time>2024-08-05T07:19:19Z</time>
      </trkpt>
      <trkpt lat="47.22234" lon="5.88679">
        <ele>304.6</ele>
        <time>2024-08-05T07:19:20Z</time>
      </trkpt>
      <trkpt lat="47.2223" lon="5.88677">
        <ele>304.8</ele>
        <time>2024-08-05T07:19:21Z</time>
      </trkpt>
      <trkpt lat="47.22225" lon="5.88676">
        <ele>304.6</ele>
        <time>2024-08-05T07:19:22Z</time>
      </trkpt>
      <trkpt lat="47.22219" lon="5.88674">
        <ele>304.6</ele>
        <time>2024-08-05T07:19:23Z</time>
      </trkpt>
      <trkpt lat="47.22214" lon="5.88673">
        <ele>304.4</ele>
        <time>2024-08-05T07:19:24Z</time>
      </trkpt>
      <trkpt lat="47.22208" lon="5.88671">
        <ele>304.2</ele>
        <time>2024-08-05T07:19:25Z</time>
      </trkpt>
      <trkpt lat="47.22203" lon="5.8867">
        <ele>304.4</ele>
        <time>2024-08-05T07:19:26Z</time>
      </trkpt>
      <trkpt lat="47.22196" lon="5.88668">
        <ele>304.2</ele>
        <time>2024-08-05T07:19:27Z</time>
      </trkpt>
      <trkpt lat="47.2219" lon="5.88666">
        <ele>303.8</ele>
        <time>2024-08-05T07:19:28Z</time>
      </trkpt>
      <trkpt lat="47.22184" lon="5.88663">
        <ele>303.6</ele>
        <time>2024-08-05T07:19:29Z</time>
      </trkpt>
      <trkpt lat="47.22178" lon="5.8866">
        <ele>303.4</ele>
        <time>2024-08-05T07:19:30Z</time>
      </trkpt>
      <trkpt lat="47.22172" lon="5.88657">
        <ele>303</ele>
        <time>2024-08-05T07:19:31Z</time>
      </trkpt>
      <trkpt lat="47.22165" lon="5.88654">
        <ele>302.8</ele>
        <time>2024-08-05T07:19:32Z</time>
      </trkpt>
      <trkpt lat="47.22159" lon="5.88651">
        <ele>302.8</ele>
        <time>2024-08-05T07:19:33Z</time>
      </trkpt>
      <trkpt lat="47.22151" lon="5.88649">
        <ele>302.6</ele>
        <time>2024-08-05T07:19:34Z</time>
      </trkpt>
      <trkpt lat="47.22145" lon="5.88647">
        <ele>302.4</ele>
        <time>2024-08-05T07:19:35Z</time>
      </trkpt>
      <trkpt lat="47.22138" lon="5.88646">
        <ele>302.2</ele>
        <time>2024-08-05T07:19:36Z</time>
      </trkpt>
      <trkpt lat="47.22132" lon="5.88645">
        <ele>301.8</ele>
        <time>2024-08-05T07:19:37Z</time>
      </trkpt>
      <trkpt lat="47.22127" lon="5.88645">
        <ele>301.2</ele>
        <time>2024-08-05T07:19:38Z</time>
      </trkpt>
      <trkpt lat="47.22121" lon="5.88643">
        <ele>300.8</ele>
        <time>2024-08-05T07:19:39Z</time>
      </trkpt>
      <trkpt lat="47.22116" lon="5.88641">
        <ele>300.6</ele>
        <time>2024-08-05T07:19:40Z</time>
      </trkpt>
      <trkpt lat="47.22111" lon="5.8864">
        <ele>300</ele>
        <time>2024-08-05T07:19:41Z</time>
      </trkpt>
      <trkpt lat="47.22107" lon="5.88638">
        <ele>300</ele>
        <time>2024-08-05T07:19:42Z</time>
      </trkpt>
      <trkpt lat="47.22103" lon="5.88635">
        <ele>299.6</ele>
        <time>2024-08-05T07:19:43Z</time>
      </trkpt>
      <trkpt lat="47.22099" lon="5.88632">
        <ele>299.4</ele>
        <time>2024-08-05T07:19:44Z</time>
      </trkpt>
      <trkpt lat="47.22097" lon="5.88629">
        <ele>299.4</ele>
        <time>2024-08-05T07:19:45Z</time>
      </trkpt>
      <trkpt lat="47.22095" lon="5.88625">
        <ele>299.2</ele>
        <time>2024-08-05T07:19:46Z</time>
      </trkpt>
      <trkpt lat="47.22093" lon="5.88622">
        <ele>299.2</ele>
        <time>2024-08-05T07:19:47Z</time>
      </trkpt>
      <trkpt lat="47.22091" lon="5.88618">
        <ele>299</ele>
        <time>2024-08-05T07:19:48Z</time>
      </trkpt>
      <trkpt lat="47.22088" lon="5.88615">
        <ele>299</ele>
        <time>2024-08-05T07:19:49Z</time>
      </trkpt>
      <trkpt lat="47.22085" lon="5.88613">
        <ele>299</ele>
        <time>2024-08-05T07:19:50Z</time>
      </trkpt>
      <trkpt lat="47.22083" lon="5.8861">
        <ele>299</ele>
        <time>2024-08-05T07:19:51Z</time>
      </trkpt>
      <trkpt lat="47.2208" lon="5.88607">
        <ele>299</ele>
        <time>2024-08-05T07:19:52Z</time>
      </trkpt>
      <trkpt lat="47.22077" lon="5.88605">
        <ele>299</ele>
        <time>2024-08-05T07:19:53Z</time>
      </trkpt>
      <trkpt lat="47.22073" lon="5.88603">
        <ele>299</ele>
        <time>2024-08-05T07:19:54Z</time>
      </trkpt>
      <trkpt lat="47.2207" lon="5.886">
        <ele>299</ele>
        <time>2024-08-05T07:19:55Z</time>
      </trkpt>
      <trkpt lat="47.22067" lon="5.88598">
        <ele>299.2</ele>
        <time>2024-08-05T07:19:56Z</time>
      </trkpt>
      <trkpt lat="47.22064" lon="5.88595">
        <ele>299.2</ele>
        <time>2024-08-05T07:19:57Z</time>
      </trkpt>
      <trkpt lat="47.22061" lon="5.88592">
        <ele>299.2</ele>
        <time>2024-08-05T07:19:58Z</time>
      </trkpt>
      <trkpt lat="47.22058" lon="5.88588">
        <ele>299.2</ele>
        <time>2024-08-05T07:19:59Z</time>
      </trkpt>
      <trkpt lat="47.22056" lon="5.88584">
        <ele>299.2</ele>
        <time>2024-08-05T07:20:00Z</time>
      </trkpt>
      <trkpt lat="47.22053" lon="5.8858">
        <ele>299.4</ele>
        <time>2024-08-05T07:20:01Z</time>
      </trkpt>
      <trkpt lat="47.22051" lon="5.88576">
        <ele>299.2</ele>
        <time>2024-08-05T07:20:02Z</time>
      </trkpt>
      <trkpt lat="47.22048" lon="5.88573">
        <ele>299.4</ele>
        <time>2024-08-05T07:20:03Z</time>
      </trkpt>
      <trkpt lat="47.22045" lon="5.8857">
        <ele>299.4</ele>
        <time>2024-08-05T07:20:04Z</time>
      </trkpt>
      <trkpt lat="47.22043" lon="5.88567">
        <ele>299.4</ele>
        <time>2024-08-05T07:20:05Z</time>
      </trkpt>
      <trkpt lat="47.2204" lon="5.88563">
        <ele>299.4</ele>
        <time>2024-08-05T07:20:06Z</time>
      </trkpt>
      <trkpt lat="47.22038" lon="5.8856">
        <ele>299.4</ele>
        <time>2024-08-05T07:20:07Z</time>
      </trkpt>
      <trkpt lat="47.22035" lon="5.88556">
        <ele>299.6</ele>
        <time>2024-08-05T07:20:08Z</time>
      </trkpt>
      <trkpt lat="47.22033" lon="5.88553">
        <ele>299.6</ele>
        <time>2024-08-05T07:20:09Z</time>
      </trkpt>
      <trkpt lat="47.22031" lon="5.8855">
        <ele>299.6</ele>
        <time>2024-08-05T07:20:10Z</time>
      </trkpt>
      <trkpt lat="47.22029" lon="5.88546">
        <ele>299.4</ele>
        <time>2024-08-05T07:20:11Z</time>
      </trkpt>
      <trkpt lat="47.22027" lon="5.88543">
        <ele>299.6</ele>
        <time>2024-08-05T07:20:12Z</time>
      </trkpt>
      <trkpt lat="47.22024" lon="5.88539">
        <ele>299.6</ele>
        <time>2024-08-05T07:20:13Z</time>
      </trkpt>
      <trkpt lat="47.22022" lon="5.88535">
        <ele>299.4</ele>
        <time>2024-08-05T07:20:14Z</time>
      </trkpt>
      <trkpt lat="47.22019" lon="5.88532">
        <ele>299.6</ele>
        <time>2024-08-05T07:20:15Z</time>
      </trkpt>
      <trkpt lat="47.22017" lon="5.8853">
        <ele>299.4</ele>
        <time>2024-08-05T07:20:16Z</time>
      </trkpt>
      <trkpt lat="47.22014" lon="5.88528">
        <ele>299.4</ele>
        <time>2024-08-05T07:20:17Z</time>
      </trkpt>
      <trkpt lat="47.22012" lon="5.88526">
        <ele>299.4</ele>
        <time>2024-08-05T07:20:18Z</time>
      </trkpt>
      <trkpt lat="47.2201" lon="5.88525">
        <ele>299.4</ele>
        <time>2024-08-05T07:20:19Z</time>
      </trkpt>
      <trkpt lat="47.22009" lon="5.88524">
        <ele>299.4</ele>
        <time>2024-08-05T07:20:20Z</time>
      </trkpt>
      <trkpt lat="47.22008" lon="5.88524">
        <ele>299.4</ele>
        <time>2024-08-05T07:20:21Z</time>
      </trkpt>
      <trkpt lat="47.22007" lon="5.88524">
        <ele>299.4</ele>
        <time>2024-08-05T07:20:22Z</time>
      </trkpt>
      <trkpt lat="47.22006" lon="5.88524">
        <ele>299.4</ele>
        <time>2024-08-05T07:20:23Z</time>
      </trkpt>
      <trkpt lat="47.22006" lon="5.88524">
        <ele>299.4</ele>
        <time>2024-08-05T07:20:24Z</time>
      </trkpt>
      <trkpt lat="47.22006" lon="5.88524">
        <ele>299.4</ele>
        <time>2024-08-05T07:20:25Z</time>
      </trkpt>
      <trkpt lat="47.22006" lon="5.88524">
        <ele>299.4</ele>
        <time>2024-08-05T07:20:26Z</time>
      </trkpt>
      <trkpt lat="47.22006" lon="5.88524">
        <ele>299.2</ele>
        <time>2024-08-05T07:20:27Z</time>
      </trkpt>
      <trkpt lat="47.22006" lon="5.88524">
        <ele>299.2</ele>
        <time>2024-08-05T07:20:28Z</time>
      </trkpt>
      <trkpt lat="47.22006" lon="5.88524">
        <ele>299</ele>
        <time>2024-08-05T07:20:29Z</time>
      </trkpt>
      <trkpt lat="47.22006" lon="5.88524">
        <ele>299</ele>
        <time>2024-08-05T07:20:30Z</time>
      </trkpt>
      <trkpt lat="47.22006" lon="5.88524">
        <ele>298.8</ele>
        <time>2024-08-05T07:20:31Z</time>
      </trkpt>
      <trkpt lat="47.22007" lon="5.88524">
        <ele>298.8</ele>
        <time>2024-08-05T07:20:32Z</time>
      </trkpt>
      <trkpt lat="47.22007" lon="5.88524">
        <ele>298.6</ele>
        <time>2024-08-05T07:20:33Z</time>
      </trkpt>
      <trkpt lat="47.22007" lon="5.88524">
        <ele>298.6</ele>
        <time>2024-08-05T07:20:34Z</time>
      </trkpt>
      <trkpt lat="47.22007" lon="5.88524">
        <ele>298.4</ele>
        <time>2024-08-05T07:20:35Z</time>
      </trkpt>
      <trkpt lat="47.22007" lon="5.88524">
        <ele>298.4</ele>
        <time>2024-08-05T07:20:36Z</time>
      </trkpt>
      <trkpt lat="47.22007" lon="5.88525">
        <ele>298.2</ele>
        <time>2024-08-05T07:20:37Z</time>
      </trkpt>
      <trkpt lat="47.22007" lon="5.88525">
        <ele>298.2</ele>
        <time>2024-08-05T07:20:38Z</time>
      </trkpt>
      <trkpt lat="47.22007" lon="5.88525">
        <ele>298.2</ele>
        <time>2024-08-05T07:20:39Z</time>
      </trkpt>
      <trkpt lat="47.22007" lon="5.88525">
        <ele>298.2</ele>
        <time>2024-08-05T07:20:40Z</time>
      </trkpt>
      <trkpt lat="47.22007" lon="5.88525">
        <ele>298.4</ele>
        <time>2024-08-05T07:20:41Z</time>
      </trkpt>
      <trkpt lat="47.22007" lon="5.88525">
        <ele>298.4</ele>
        <time>2024-08-05T07:20:42Z</time>
      </trkpt>
      <trkpt lat="47.22007" lon="5.88525">
        <ele>298.2</ele>
        <time>2024-08-05T07:20:43Z</time>
      </trkpt>
      <trkpt lat="47.22007" lon="5.88525">
        <ele>298.2</ele>
        <time>2024-08-05T07:20:44Z</time>
      </trkpt>
      <trkpt lat="47.22007" lon="5.88525">
        <ele>298.2</ele>
        <time>2024-08-05T07:20:45Z</time>
      </trkpt>
      <trkpt lat="47.22007" lon="5.88525">
        <ele>298.2</ele>
        <time>2024-08-05T07:20:46Z</time>
      </trkpt>
      <trkpt lat="47.22007" lon="5.88525">
        <ele>298.2</ele>
        <time>2024-08-05T07:20:47Z</time>
      </trkpt>
      <trkpt lat="47.22007" lon="5.88525">
        <ele>298.2</ele>
        <time>2024-08-05T07:20:48Z</time>
      </trkpt>
      <trkpt lat="47.22007" lon="5.88525">
        <ele>298.4</ele>
        <time>2024-08-05T07:20:49Z</time>
      </trkpt>
      <trkpt lat="47.22007" lon="5.88525">
        <ele>298.2</ele>
        <time>2024-08-05T07:20:50Z</time>
      </trkpt>
      <trkpt lat="47.22007" lon="5.88525">
        <ele>298.4</ele>
        <time>2024-08-05T07:20:51Z</time>
      </trkpt>
      <trkpt lat="47.22007" lon="5.88525">
        <ele>298.4</ele>
        <time>2024-08-05T07:20:52Z</time>
      </trkpt>
      <trkpt lat="47.22007" lon="5.88525">
        <ele>298.4</ele>
        <time>2024-08-05T07:20:53Z</time>
      </trkpt>
      <trkpt lat="47.22007" lon="5.88525">
        <ele>298.2</ele>
        <time>2024-08-05T07:20:54Z</time>
      </trkpt>
      <trkpt lat="47.22007" lon="5.88525">
        <ele>298.4</ele>
        <time>2024-08-05T07:20:55Z</time>
      </trkpt>
      <trkpt lat="47.22007" lon="5.88525">
        <ele>298.2</ele>
        <time>2024-08-05T07:20:56Z</time>
      </trkpt>
      <trkpt lat="47.22007" lon="5.88525">
        <ele>298.2</ele>
        <time>2024-08-05T07:20:57Z</time>
      </trkpt>
      <trkpt lat="47.22007" lon="5.88525">
        <ele>298.2</ele>
        <time>2024-08-05T07:20:58Z</time>
      </trkpt>
      <trkpt lat="47.22007" lon="5.88525">
        <ele>298.4</ele>
        <time>2024-08-05T07:20:59Z</time>
      </trkpt>
      <trkpt lat="47.22007" lon="5.88525">
        <ele>298.4</ele>
        <time>2024-08-05T07:21:00Z</time>
      </trkpt>
      <trkpt lat="47.22007" lon="5.88525">
        <ele>298.4</ele>
        <time>2024-08-05T07:21:01Z</time>
      </trkpt>
      <trkpt lat="47.22007" lon="5.88525">
        <ele>298.4</ele>
        <time>2024-08-05T07:21:02Z</time>
      </trkpt>
      <trkpt lat="47.22007" lon="5.88525">
        <ele>298.4</ele>
        <time>2024-08-05T07:21:03Z</time>
      </trkpt>
      <trkpt lat="47.22007" lon="5.88525">
        <ele>298.4</ele>
        <time>2024-08-05T07:21:04Z</time>
      </trkpt>
      <trkpt lat="47.22007" lon="5.88525">
        <ele>298.4</ele>
        <time>2024-08-05T07:21:05Z</time>
      </trkpt>
      <trkpt lat="47.22007" lon="5.88525">
        <ele>298.4</ele>
        <time>2024-08-05T07:21:06Z</time>
      </trkpt>
      <trkpt lat="47.22007" lon="5.88525">
        <ele>298.4</ele>
        <time>2024-08-05T07:21:07Z</time>
      </trkpt>
      <trkpt lat="47.22007" lon="5.88525">
        <ele>298.4</ele>
        <time>2024-08-05T07:21:08Z</time>
      </trkpt>
      <trkpt lat="47.22008" lon="5.88525">
        <ele>298.2</ele>
        <time>2024-08-05T07:21:09Z</time>
      </trkpt>
      <trkpt lat="47.22008" lon="5.88526">
        <ele>298.4</ele>
        <time>2024-08-05T07:21:10Z</time>
      </trkpt>
      <trkpt lat="47.22008" lon="5.88526">
        <ele>298.2</ele>
        <time>2024-08-05T07:21:11Z</time>
      </trkpt>
      <trkpt lat="47.22008" lon="5.88526">
        <ele>298.2</ele>
        <time>2024-08-05T07:21:12Z</time>
      </trkpt>
      <trkpt lat="47.22008" lon="5.88526">
        <ele>298.4</ele>
        <time>2024-08-05T07:21:13Z</time>
      </trkpt>
      <trkpt lat="47.22008" lon="5.88526">
        <ele>298.4</ele>
        <time>2024-08-05T07:21:14Z</time>
      </trkpt>
      <trkpt lat="47.22008" lon="5.88526">
        <ele>298.4</ele>
        <time>2024-08-05T07:21:15Z</time>
      </trkpt>
      <trkpt lat="47.22008" lon="5.88526">
        <ele>298.4</ele>
        <time>2024-08-05T07:21:16Z</time>
      </trkpt>
      <trkpt lat="47.22008" lon="5.88526">
        <ele>298.4</ele>
        <time>2024-08-05T07:21:17Z</time>
      </trkpt>
      <trkpt lat="47.22008" lon="5.88526">
        <ele>298.4</ele>
        <time>2024-08-05T07:21:18Z</time>
      </trkpt>
      <trkpt lat="47.22008" lon="5.88526">
        <ele>298.4</ele>
        <time>2024-08-05T07:21:19Z</time>
      </trkpt>
      <trkpt lat="47.22008" lon="5.88526">
        <ele>298.2</ele>
        <time>2024-08-05T07:21:20Z</time>
      </trkpt>
      <trkpt lat="47.22008" lon="5.88526">
        <ele>298.4</ele>
        <time>2024-08-05T07:21:21Z</time>
      </trkpt>
      <trkpt lat="47.22008" lon="5.88526">
        <ele>298.2</ele>
        <time>2024-08-05T07:21:22Z</time>
      </trkpt>
      <trkpt lat="47.22008" lon="5.88526">
        <ele>298.2</ele>
        <time>2024-08-05T07:21:23Z</time>
      </trkpt>
      <trkpt lat="47.22008" lon="5.88526">
        <ele>298.2</ele>
        <time>2024-08-05T07:21:24Z</time>
      </trkpt>
      <trkpt lat="47.22008" lon="5.88526">
        <ele>298.2</ele>
        <time>2024-08-05T07:21:25Z</time>
      </trkpt>
      <trkpt lat="47.22008" lon="5.88526">
        <ele>298.2</ele>
        <time>2024-08-05T07:21:26Z</time>
      </trkpt>
      <trkpt lat="47.22008" lon="5.88526">
        <ele>298.2</ele>
        <time>2024-08-05T07:21:27Z</time>
      </trkpt>
      <trkpt lat="47.22008" lon="5.88526">
        <ele>298.2</ele>
        <time>2024-08-05T07:21:28Z</time>
      </trkpt>
      <trkpt lat="47.22008" lon="5.88526">
        <ele>298.2</ele>
        <time>2024-08-05T07:21:29Z</time>
      </trkpt>
      <trkpt lat="47.22008" lon="5.88526">
        <ele>298.2</ele>
        <time>2024-08-05T07:21:30Z</time>
      </trkpt>
      <trkpt lat="47.22008" lon="5.88526">
        <ele>298.2</ele>
        <time>2024-08-05T07:21:31Z</time>
      </trkpt>
      <trkpt lat="47.22008" lon="5.88526">
        <ele>298.2</ele>
        <time>2024-08-05T07:21:32Z</time>
      </trkpt>
      <trkpt lat="47.22008" lon="5.88526">
        <ele>298.2</ele>
        <time>2024-08-05T07:21:33Z</time>
      </trkpt>
      <trkpt lat="47.22008" lon="5.88526">
        <ele>298.2</ele>
        <time>2024-08-05T07:21:34Z</time>
      </trkpt>
      <trkpt lat="47.22008" lon="5.88526">
        <ele>298.2</ele>
        <time>2024-08-05T07:21:35Z</time>
      </trkpt>
      <trkpt lat="47.22008" lon="5.88526">
        <ele>298.2</ele>
        <time>2024-08-05T07:21:36Z</time>
      </trkpt>
      <trkpt lat="47.22008" lon="5.88526">
        <ele>298.2</ele>
        <time>2024-08-05T07:21:37Z</time>
      </trkpt>
      <trkpt lat="47.22008" lon="5.88525">
        <ele>298.2</ele>
        <time>2024-08-05T07:21:38Z</time>
      </trkpt>
      <trkpt lat="47.22007" lon="5.88525">
        <ele>298.2</ele>
        <time>2024-08-05T07:21:39Z</time>
      </trkpt>
      <trkpt lat="47.22007" lon="5.88524">
        <ele>298.2</ele>
        <time>2024-08-05T07:21:40Z</time>
      </trkpt>
      <trkpt lat="47.22006" lon="5.88523">
        <ele>298.2</ele>
        <time>2024-08-05T07:21:41Z</time>
      </trkpt>
      <trkpt lat="47.22005" lon="5.88522">
        <ele>298.2</ele>
        <time>2024-08-05T07:21:42Z</time>
      </trkpt>
      <trkpt lat="47.22005" lon="5.8852">
        <ele>298.2</ele>
        <time>2024-08-05T07:21:43Z</time>
      </trkpt>
      <trkpt lat="47.22004" lon="5.88518">
        <ele>298.2</ele>
        <time>2024-08-05T07:21:44Z</time>
      </trkpt>
      <trkpt lat="47.22004" lon="5.88515">
        <ele>298.2</ele>
        <time>2024-08-05T07:21:45Z</time>
      </trkpt>
      <trkpt lat="47.22003" lon="5.88513">
        <ele>298.2</ele>
        <time>2024-08-05T07:21:46Z</time>
      </trkpt>
      <trkpt lat="47.22001" lon="5.8851">
        <ele>298.2</ele>
        <time>2024-08-05T07:21:47Z</time>
      </trkpt>
      <trkpt lat="47.21999" lon="5.88507">
        <ele>298.2</ele>
        <time>2024-08-05T07:21:48Z</time>
      </trkpt>
      <trkpt lat="47.21997" lon="5.88505">
        <ele>298.2</ele>
        <time>2024-08-05T07:21:49Z</time>
      </trkpt>
      <trkpt lat="47.21995" lon="5.88502">
        <ele>298.4</ele>
        <time>2024-08-05T07:21:50Z</time>
      </trkpt>
      <trkpt lat="47.21992" lon="5.885">
        <ele>298.2</ele>
        <time>2024-08-05T07:21:51Z</time>
      </trkpt>
      <trkpt lat="47.2199" lon="5.88497">
        <ele>298.2</ele>
        <time>2024-08-05T07:21:52Z</time>
      </trkpt>
      <trkpt lat="47.21987" lon="5.88495">
        <ele>298.2</ele>
        <time>2024-08-05T07:21:53Z</time>
      </trkpt>
      <trkpt lat="47.21984" lon="5.88492">
        <ele>298.4</ele>
        <time>2024-08-05T07:21:54Z</time>
      </trkpt>
      <trkpt lat="47.21981" lon="5.88489">
        <ele>298.4</ele>
        <time>2024-08-05T07:21:55Z</time>
      </trkpt>
      <trkpt lat="47.21978" lon="5.88486">
        <ele>298.4</ele>
        <time>2024-08-05T07:21:56Z</time>
      </trkpt>
      <trkpt lat="47.21975" lon="5.88484">
        <ele>298.2</ele>
        <time>2024-08-05T07:21:57Z</time>
      </trkpt>
      <trkpt lat="47.21973" lon="5.88481">
        <ele>298.2</ele>
        <time>2024-08-05T07:21:58Z</time>
      </trkpt>
      <trkpt lat="47.2197" lon="5.88479">
        <ele>298.2</ele>
        <time>2024-08-05T07:21:59Z</time>
      </trkpt>
      <trkpt lat="47.21967" lon="5.88476">
        <ele>298.2</ele>
        <time>2024-08-05T07:22:00Z</time>
      </trkpt>
      <trkpt lat="47.21964" lon="5.88473">
        <ele>298.2</ele>
        <time>2024-08-05T07:22:01Z</time>
      </trkpt>
      <trkpt lat="47.21962" lon="5.88471">
        <ele>298.2</ele>
        <time>2024-08-05T07:22:02Z</time>
      </trkpt>
      <trkpt lat="47.21959" lon="5.88468">
        <ele>298.2</ele>
        <time>2024-08-05T07:22:03Z</time>
      </trkpt>
      <trkpt lat="47.21956" lon="5.88466">
        <ele>298</ele>
        <time>2024-08-05T07:22:04Z</time>
      </trkpt>
      <trkpt lat="47.21953" lon="5.88463">
        <ele>298.2</ele>
        <time>2024-08-05T07:22:05Z</time>
      </trkpt>
      <trkpt lat="47.2195" lon="5.88461">
        <ele>298</ele>
        <time>2024-08-05T07:22:06Z</time>
      </trkpt>
      <trkpt lat="47.21947" lon="5.88458">
        <ele>298.2</ele>
        <time>2024-08-05T07:22:07Z</time>
      </trkpt>
      <trkpt lat="47.21944" lon="5.88456">
        <ele>298</ele>
        <time>2024-08-05T07:22:08Z</time>
      </trkpt>
      <trkpt lat="47.21941" lon="5.88454">
        <ele>298</ele>
        <time>2024-08-05T07:22:09Z</time>
      </trkpt>
      <trkpt lat="47.21938" lon="5.88451">
        <ele>298</ele>
        <time>2024-08-05T07:22:10Z</time>
      </trkpt>
      <trkpt lat="47.21935" lon="5.8845">
        <ele>298</ele>
        <time>2024-08-05T07:22:11Z</time>
      </trkpt>
      <trkpt lat="47.21932" lon="5.88448">
        <ele>298</ele>
        <time>2024-08-05T07:22:12Z</time>
      </trkpt>
      <trkpt lat="47.2193" lon="5.88448">
        <ele>298</ele>
        <time>2024-08-05T07:22:13Z</time>
      </trkpt>
      <trkpt lat="47.21928" lon="5.88447">
        <ele>298</ele>
        <time>2024-08-05T07:22:14Z</time>
      </trkpt>
      <trkpt lat="47.21926" lon="5.88444">
        <ele>298</ele>
        <time>2024-08-05T07:22:15Z</time>
      </trkpt>
      <trkpt lat="47.21926" lon="5.88442">
        <ele>298</ele>
        <time>2024-08-05T07:22:16Z</time>
      </trkpt>
      <trkpt lat="47.21927" lon="5.88442">
        <ele>297.8</ele>
        <time>2024-08-05T07:22:17Z</time>
      </trkpt>
      <trkpt lat="47.21928" lon="5.88443">
        <ele>297.8</ele>
        <time>2024-08-05T07:22:18Z</time>
      </trkpt>
      <trkpt lat="47.21929" lon="5.88443">
        <ele>298</ele>
        <time>2024-08-05T07:22:19Z</time>
      </trkpt>
      <trkpt lat="47.21931" lon="5.88444">
        <ele>298</ele>
        <time>2024-08-05T07:22:20Z</time>
      </trkpt>
      <trkpt lat="47.21931" lon="5.88445">
        <ele>298</ele>
        <time>2024-08-05T07:22:21Z</time>
      </trkpt>
      <trkpt lat="47.21932" lon="5.88445">
        <ele>298</ele>
        <time>2024-08-05T07:22:22Z</time>
      </trkpt>
      <trkpt lat="47.21932" lon="5.88446">
        <ele>298</ele>
        <time>2024-08-05T07:22:23Z</time>
      </trkpt>
      <trkpt lat="47.21932" lon="5.88446">
        <ele>298</ele>
        <time>2024-08-05T07:22:24Z</time>
      </trkpt>
      <trkpt lat="47.21932" lon="5.88446">
        <ele>298</ele>
        <time>2024-08-05T07:22:25Z</time>
      </trkpt>
      <trkpt lat="47.21933" lon="5.88445">
        <ele>298</ele>
        <time>2024-08-05T07:22:26Z</time>
      </trkpt>
      <trkpt lat="47.21933" lon="5.88445">
        <ele>298</ele>
        <time>2024-08-05T07:22:27Z</time>
      </trkpt>
      <trkpt lat="47.21933" lon="5.88445">
        <ele>298</ele>
        <time>2024-08-05T07:22:28Z</time>
      </trkpt>
      <trkpt lat="47.21933" lon="5.88445">
        <ele>297.8</ele>
        <time>2024-08-05T07:22:29Z</time>
      </trkpt>
      <trkpt lat="47.21933" lon="5.88445">
        <ele>298</ele>
        <time>2024-08-05T07:22:30Z</time>
      </trkpt>
      <trkpt lat="47.21933" lon="5.88445">
        <ele>298</ele>
        <time>2024-08-05T07:22:31Z</time>
      </trkpt>
      <trkpt lat="47.21933" lon="5.88445">
        <ele>298</ele>
        <time>2024-08-05T07:22:32Z</time>
      </trkpt>
      <trkpt lat="47.21933" lon="5.88445">
        <ele>298</ele>
        <time>2024-08-05T07:22:33Z</time>
      </trkpt>
      <trkpt lat="47.21933" lon="5.88446">
        <ele>298</ele>
        <time>2024-08-05T07:22:34Z</time>
      </trkpt>
      <trkpt lat="47.21933" lon="5.88446">
        <ele>298</ele>
        <time>2024-08-05T07:22:35Z</time>
      </trkpt>
      <trkpt lat="47.21933" lon="5.88447">
        <ele>298</ele>
        <time>2024-08-05T07:22:36Z</time>
      </trkpt>
      <trkpt lat="47.21933" lon="5.88449">
        <ele>298</ele>
        <time>2024-08-05T07:22:37Z</time>
      </trkpt>
      <trkpt lat="47.21932" lon="5.88451">
        <ele>298</ele>
        <time>2024-08-05T07:22:38Z</time>
      </trkpt>
      <trkpt lat="47.21931" lon="5.88452">
        <ele>298</ele>
        <time>2024-08-05T07:22:39Z</time>
      </trkpt>
      <trkpt lat="47.21929" lon="5.88454">
        <ele>298</ele>
        <time>2024-08-05T07:22:40Z</time>
      </trkpt>
      <trkpt lat="47.21927" lon="5.88456">
        <ele>298</ele>
        <time>2024-08-05T07:22:41Z</time>
      </trkpt>
      <trkpt lat="47.21925" lon="5.88458">
        <ele>298</ele>
        <time>2024-08-05T07:22:42Z</time>
      </trkpt>
      <trkpt lat="47.21922" lon="5.8846">
        <ele>298</ele>
        <time>2024-08-05T07:22:43Z</time>
      </trkpt>
      <trkpt lat="47.21918" lon="5.88464">
        <ele>297.8</ele>
        <time>2024-08-05T07:22:44Z</time>
      </trkpt>
      <trkpt lat="47.21915" lon="5.8847">
        <ele>297.8</ele>
        <time>2024-08-05T07:22:45Z</time>
      </trkpt>
      <trkpt lat="47.21911" lon="5.88475">
        <ele>297.8</ele>
        <time>2024-08-05T07:22:46Z</time>
      </trkpt>
      <trkpt lat="47.21908" lon="5.88482">
        <ele>297.8</ele>
        <time>2024-08-05T07:22:47Z</time>
      </trkpt>
      <trkpt lat="47.21904" lon="5.88489">
        <ele>297.6</ele>
        <time>2024-08-05T07:22:48Z</time>
      </trkpt>
      <trkpt lat="47.21899" lon="5.88496">
        <ele>297.4</ele>
        <time>2024-08-05T07:22:49Z</time>
      </trkpt>
      <trkpt lat="47.21895" lon="5.88504">
        <ele>297.2</ele>
        <time>2024-08-05T07:22:50Z</time>
      </trkpt>
      <trkpt lat="47.2189" lon="5.88513">
        <ele>296.8</ele>
        <time>2024-08-05T07:22:51Z</time>
      </trkpt>
      <trkpt lat="47.21885" lon="5.88522">
        <ele>296.6</ele>
        <time>2024-08-05T07:22:52Z</time>
      </trkpt>
      <trkpt lat="47.2188" lon="5.88531">
        <ele>296.2</ele>
        <time>2024-08-05T07:22:53Z</time>
      </trkpt>
      <trkpt lat="47.21875" lon="5.88541">
        <ele>296.2</ele>
        <time>2024-08-05T07:22:54Z</time>
      </trkpt>
      <trkpt lat="47.2187" lon="5.88551">
        <ele>295.6</ele>
        <time>2024-08-05T07:22:55Z</time>
      </trkpt>
      <trkpt lat="47.21864" lon="5.88562">
        <ele>295</ele>
        <time>2024-08-05T07:22:56Z</time>
      </trkpt>
      <trkpt lat="47.21859" lon="5.88573">
        <ele>294.4</ele>
        <time>2024-08-05T07:22:57Z</time>
      </trkpt>
      <trkpt lat="47.21853" lon="5.88584">
        <ele>293.8</ele>
        <time>2024-08-05T07:22:58Z</time>
      </trkpt>
      <trkpt lat="47.21848" lon="5.88595">
        <ele>293</ele>
        <time>2024-08-05T07:22:59Z</time>
      </trkpt>
      <trkpt lat="47.21842" lon="5.88607">
        <ele>292.4</ele>
        <time>2024-08-05T07:23:00Z</time>
      </trkpt>
      <trkpt lat="47.21836" lon="5.88618">
        <ele>291.8</ele>
        <time>2024-08-05T07:23:01Z</time>
      </trkpt>
      <trkpt lat="47.2183" lon="5.8863">
        <ele>291.4</ele>
        <time>2024-08-05T07:23:02Z</time>
      </trkpt>
      <trkpt lat="47.21824" lon="5.88642">
        <ele>290.6</ele>
        <time>2024-08-05T07:23:03Z</time>
      </trkpt>
      <trkpt lat="47.21818" lon="5.88654">
        <ele>290</ele>
        <time>2024-08-05T07:23:04Z</time>
      </trkpt>
      <trkpt lat="47.21812" lon="5.88665">
        <ele>289</ele>
        <time>2024-08-05T07:23:05Z</time>
      </trkpt>
      <trkpt lat="47.21806" lon="5.88676">
        <ele>288.2</ele>
        <time>2024-08-05T07:23:06Z</time>
      </trkpt>
      <trkpt lat="47.218" lon="5.88687">
        <ele>288.2</ele>
        <time>2024-08-05T07:23:07Z</time>
      </trkpt>
      <trkpt lat="47.21795" lon="5.88697">
        <ele>287.6</ele>
        <time>2024-08-05T07:23:08Z</time>
      </trkpt>
      <trkpt lat="47.2179" lon="5.88707">
        <ele>286.4</ele>
        <time>2024-08-05T07:23:09Z</time>
      </trkpt>
      <trkpt lat="47.21785" lon="5.88717">
        <ele>285.6</ele>
        <time>2024-08-05T07:23:10Z</time>
      </trkpt>
      <trkpt lat="47.2178" lon="5.88727">
        <ele>284.8</ele>
        <time>2024-08-05T07:23:11Z</time>
      </trkpt>
      <trkpt lat="47.21775" lon="5.88736">
        <ele>283.6</ele>
        <time>2024-08-05T07:23:12Z</time>
      </trkpt>
      <trkpt lat="47.21771" lon="5.88745">
        <ele>282.8</ele>
        <time>2024-08-05T07:23:13Z</time>
      </trkpt>
      <trkpt lat="47.21767" lon="5.88752">
        <ele>282.6</ele>
        <time>2024-08-05T07:23:14Z</time>
      </trkpt>
      <trkpt lat="47.21764" lon="5.88759">
        <ele>282</ele>
        <time>2024-08-05T07:23:15Z</time>
      </trkpt>
      <trkpt lat="47.2176" lon="5.88766">
        <ele>281.6</ele>
        <time>2024-08-05T07:23:16Z</time>
      </trkpt>
      <trkpt lat="47.21757" lon="5.88771">
        <ele>281.2</ele>
        <time>2024-08-05T07:23:17Z</time>
      </trkpt>
      <trkpt lat="47.21755" lon="5.88776">
        <ele>280.6</ele>
        <time>2024-08-05T07:23:18Z</time>
      </trkpt>
      <trkpt lat="47.21752" lon="5.88781">
        <ele>280.2</ele>
        <time>2024-08-05T07:23:19Z</time>
      </trkpt>
      <trkpt lat="47.21749" lon="5.88785">
        <ele>279.8</ele>
        <time>2024-08-05T07:23:20Z</time>
      </trkpt>
      <trkpt lat="47.21746" lon="5.88788">
        <ele>279.8</ele>
        <time>2024-08-05T07:23:21Z</time>
      </trkpt>
      <trkpt lat="47.21742" lon="5.88789">
        <ele>279.8</ele>
        <time>2024-08-05T07:23:22Z</time>
      </trkpt>
      <trkpt lat="47.21739" lon="5.88789">
        <ele>279.6</ele>
        <time>2024-08-05T07:23:23Z</time>
      </trkpt>
      <trkpt lat="47.21735" lon="5.88788">
        <ele>279.4</ele>
        <time>2024-08-05T07:23:24Z</time>
      </trkpt>
      <trkpt lat="47.21731" lon="5.88787">
        <ele>279.2</ele>
        <time>2024-08-05T07:23:25Z</time>
      </trkpt>
      <trkpt lat="47.21728" lon="5.88785">
        <ele>279</ele>
        <time>2024-08-05T07:23:26Z</time>
      </trkpt>
      <trkpt lat="47.21724" lon="5.88784">
        <ele>278.8</ele>
        <time>2024-08-05T07:23:27Z</time>
      </trkpt>
      <trkpt lat="47.2172" lon="5.88782">
        <ele>278.6</ele>
        <time>2024-08-05T07:23:28Z</time>
      </trkpt>
      <trkpt lat="47.21715" lon="5.88779">
        <ele>278.6</ele>
        <time>2024-08-05T07:23:29Z</time>
      </trkpt>
      <trkpt lat="47.21711" lon="5.88777">
        <ele>278.6</ele>
        <time>2024-08-05T07:23:30Z</time>
      </trkpt>
      <trkpt lat="47.21705" lon="5.88775">
        <ele>278.4</ele>
        <time>2024-08-05T07:23:31Z</time>
      </trkpt>
      <trkpt lat="47.217" lon="5.88773">
        <ele>278.4</ele>
        <time>2024-08-05T07:23:32Z</time>
      </trkpt>
      <trkpt lat="47.21694" lon="5.88771">
        <ele>278.2</ele>
        <time>2024-08-05T07:23:33Z</time>
      </trkpt>
      <trkpt lat="47.21689" lon="5.8877">
        <ele>278.2</ele>
        <time>2024-08-05T07:23:34Z</time>
      </trkpt>
      <trkpt lat="47.21683" lon="5.88768">
        <ele>278</ele>
        <time>2024-08-05T07:23:35Z</time>
      </trkpt>
      <trkpt lat="47.21677" lon="5.88767">
        <ele>278.2</ele>
        <time>2024-08-05T07:23:36Z</time>
      </trkpt>
      <trkpt lat="47.21671" lon="5.88765">
        <ele>278</ele>
        <time>2024-08-05T07:23:37Z</time>
      </trkpt>
      <trkpt lat="47.21665" lon="5.88763">
        <ele>278</ele>
        <time>2024-08-05T07:23:38Z</time>
      </trkpt>
      <trkpt lat="47.21659" lon="5.88762">
        <ele>277.8</ele>
        <time>2024-08-05T07:23:39Z</time>
      </trkpt>
      <trkpt lat="47.21653" lon="5.8876">
        <ele>277.8</ele>
        <time>2024-08-05T07:23:40Z</time>
      </trkpt>
      <trkpt lat="47.21647" lon="5.88759">
        <ele>277.8</ele>
        <time>2024-08-05T07:23:41Z</time>
      </trkpt>
      <trkpt lat="47.21641" lon="5.88758">
        <ele>277.8</ele>
        <time>2024-08-05T07:23:42Z</time>
      </trkpt>
      <trkpt lat="47.21636" lon="5.88758">
        <ele>277.6</ele>
        <time>2024-08-05T07:23:43Z</time>
      </trkpt>
      <trkpt lat="47.2163" lon="5.88757">
        <ele>277.6</ele>
        <time>2024-08-05T07:23:44Z</time>
      </trkpt>
      <trkpt lat="47.21624" lon="5.88756">
        <ele>277.6</ele>
        <time>2024-08-05T07:23:45Z</time>
      </trkpt>
      <trkpt lat="47.21618" lon="5.88755">
        <ele>277.6</ele>
        <time>2024-08-05T07:23:46Z</time>
      </trkpt>
      <trkpt lat="47.21613" lon="5.88755">
        <ele>277.6</ele>
        <time>2024-08-05T07:23:47Z</time>
      </trkpt>
      <trkpt lat="47.21609" lon="5.88755">
        <ele>277.6</ele>
        <time>2024-08-05T07:23:48Z</time>
      </trkpt>
      <trkpt lat="47.21606" lon="5.88756">
        <ele>277.6</ele>
        <time>2024-08-05T07:23:49Z</time>
      </trkpt>
      <trkpt lat="47.21604" lon="5.88758">
        <ele>277.6</ele>
        <time>2024-08-05T07:23:50Z</time>
      </trkpt>
      <trkpt lat="47.21602" lon="5.8876">
        <ele>277.6</ele>
        <time>2024-08-05T07:23:51Z</time>
      </trkpt>
      <trkpt lat="47.21599" lon="5.8876">
        <ele>277.6</ele>
        <time>2024-08-05T07:23:52Z</time>
      </trkpt>
      <trkpt lat="47.21596" lon="5.88762">
        <ele>277.6</ele>
        <time>2024-08-05T07:23:53Z</time>
      </trkpt>
      <trkpt lat="47.21593" lon="5.88763">
        <ele>277.4</ele>
        <time>2024-08-05T07:23:54Z</time>
      </trkpt>
      <trkpt lat="47.2159" lon="5.88764">
        <ele>277.4</ele>
        <time>2024-08-05T07:23:55Z</time>
      </trkpt>
      <trkpt lat="47.21586" lon="5.88765">
        <ele>277.2</ele>
        <time>2024-08-05T07:23:56Z</time>
      </trkpt>
      <trkpt lat="47.21582" lon="5.88767">
        <ele>277.2</ele>
        <time>2024-08-05T07:23:57Z</time>
      </trkpt>
      <trkpt lat="47.21577" lon="5.88769">
        <ele>277</ele>
        <time>2024-08-05T07:23:58Z</time>
      </trkpt>
      <trkpt lat="47.21573" lon="5.88771">
        <ele>276.8</ele>
        <time>2024-08-05T07:23:59Z</time>
      </trkpt>
      <trkpt lat="47.21569" lon="5.88774">
        <ele>276.6</ele>
        <time>2024-08-05T07:24:00Z</time>
      </trkpt>
      <trkpt lat="47.21564" lon="5.88776">
        <ele>276.6</ele>
        <time>2024-08-05T07:24:01Z</time>
      </trkpt>
      <trkpt lat="47.2156" lon="5.88779">
        <ele>276.6</ele>
        <time>2024-08-05T07:24:02Z</time>
      </trkpt>
      <trkpt lat="47.21557" lon="5.88782">
        <ele>276.6</ele>
        <time>2024-08-05T07:24:03Z</time>
      </trkpt>
      <trkpt lat="47.21553" lon="5.88785">
        <ele>276.6</ele>
        <time>2024-08-05T07:24:04Z</time>
      </trkpt>
      <trkpt lat="47.21548" lon="5.88787">
        <ele>276.6</ele>
        <time>2024-08-05T07:24:05Z</time>
      </trkpt>
      <trkpt lat="47.21544" lon="5.8879">
        <ele>276.6</ele>
        <time>2024-08-05T07:24:06Z</time>
      </trkpt>
      <trkpt lat="47.2154" lon="5.88792">
        <ele>276.6</ele>
        <time>2024-08-05T07:24:07Z</time>
      </trkpt>
      <trkpt lat="47.21537" lon="5.88794">
        <ele>276.6</ele>
        <time>2024-08-05T07:24:08Z</time>
      </trkpt>
      <trkpt lat="47.21533" lon="5.88797">
        <ele>276.6</ele>
        <time>2024-08-05T07:24:09Z</time>
      </trkpt>
      <trkpt lat="47.2153" lon="5.888">
        <ele>276.6</ele>
        <time>2024-08-05T07:24:10Z</time>
      </trkpt>
      <trkpt lat="47.21526" lon="5.88803">
        <ele>276.4</ele>
        <time>2024-08-05T07:24:11Z</time>
      </trkpt>
      <trkpt lat="47.21522" lon="5.88807">
        <ele>276.4</ele>
        <time>2024-08-05T07:24:12Z</time>
      </trkpt>
      <trkpt lat="47.21518" lon="5.8881">
        <ele>276.4</ele>
        <time>2024-08-05T07:24:13Z</time>
      </trkpt>
      <trkpt lat="47.21514" lon="5.88813">
        <ele>276.6</ele>
        <time>2024-08-05T07:24:14Z</time>
      </trkpt>
      <trkpt lat="47.2151" lon="5.88817">
        <ele>276.6</ele>
        <time>2024-08-05T07:24:15Z</time>
      </trkpt>
      <trkpt lat="47.21506" lon="5.88821">
        <ele>276.6</ele>
        <time>2024-08-05T07:24:16Z</time>
      </trkpt>
      <trkpt lat="47.21503" lon="5.88824">
        <ele>276.8</ele>
        <time>2024-08-05T07:24:17Z</time>
      </trkpt>
      <trkpt lat="47.21499" lon="5.88827">
        <ele>276.8</ele>
        <time>2024-08-05T07:24:18Z</time>
      </trkpt>
      <trkpt lat="47.21495" lon="5.8883">
        <ele>276.8</ele>
        <time>2024-08-05T07:24:19Z</time>
      </trkpt>
      <trkpt lat="47.21492" lon="5.88833">
        <ele>276.8</ele>
        <time>2024-08-05T07:24:20Z</time>
      </trkpt>
      <trkpt lat="47.21489" lon="5.88836">
        <ele>276.8</ele>
        <time>2024-08-05T07:24:21Z</time>
      </trkpt>
      <trkpt lat="47.21485" lon="5.88839">
        <ele>276.8</ele>
        <time>2024-08-05T07:24:22Z</time>
      </trkpt>
      <trkpt lat="47.21482" lon="5.88842">
        <ele>277</ele>
        <time>2024-08-05T07:24:23Z</time>
      </trkpt>
      <trkpt lat="47.21479" lon="5.88844">
        <ele>277</ele>
        <time>2024-08-05T07:24:24Z</time>
      </trkpt>
      <trkpt lat="47.21476" lon="5.88846">
        <ele>277.2</ele>
        <time>2024-08-05T07:24:25Z</time>
      </trkpt>
      <trkpt lat="47.21472" lon="5.88848">
        <ele>277.4</ele>
        <time>2024-08-05T07:24:26Z</time>
      </trkpt>
      <trkpt lat="47.21469" lon="5.88849">
        <ele>277.4</ele>
        <time>2024-08-05T07:24:27Z</time>
      </trkpt>
      <trkpt lat="47.21466" lon="5.88851">
        <ele>277.4</ele>
        <time>2024-08-05T07:24:28Z</time>
      </trkpt>
      <trkpt lat="47.21462" lon="5.88853">
        <ele>277.4</ele>
        <time>2024-08-05T07:24:29Z</time>
      </trkpt>
      <trkpt lat="47.21459" lon="5.88856">
        <ele>277.4</ele>
        <time>2024-08-05T07:24:30Z</time>
      </trkpt>
      <trkpt lat="47.21456" lon="5.88858">
        <ele>277.6</ele>
        <time>2024-08-05T07:24:31Z</time>
      </trkpt>
      <trkpt lat="47.21453" lon="5.88861">
        <ele>277.6</ele>
        <time>2024-08-05T07:24:32Z</time>
      </trkpt>
      <trkpt lat="47.2145" lon="5.88865">
        <ele>277.4</ele>
        <time>2024-08-05T07:24:33Z</time>
      </trkpt>
      <trkpt lat="47.21447" lon="5.88868">
        <ele>277.6</ele>
        <time>2024-08-05T07:24:34Z</time>
      </trkpt>
      <trkpt lat="47.21444" lon="5.88873">
        <ele>277.6</ele>
        <time>2024-08-05T07:24:35Z</time>
      </trkpt>
      <trkpt lat="47.21441" lon="5.88878">
        <ele>277.6</ele>
        <time>2024-08-05T07:24:36Z</time>
      </trkpt>
      <trkpt lat="47.21438" lon="5.88884">
        <ele>277.4</ele>
        <time>2024-08-05T07:24:37Z</time>
      </trkpt>
      <trkpt lat="47.21435" lon="5.88889">
        <ele>277.4</ele>
        <time>2024-08-05T07:24:38Z</time>
      </trkpt>
      <trkpt lat="47.21432" lon="5.88895">
        <ele>277.2</ele>
        <time>2024-08-05T07:24:39Z</time>
      </trkpt>
      <trkpt lat="47.21429" lon="5.88901">
        <ele>277</ele>
        <time>2024-08-05T07:24:40Z</time>
      </trkpt>
      <trkpt lat="47.21425" lon="5.88907">
        <ele>276.8</ele>
        <time>2024-08-05T07:24:41Z</time>
      </trkpt>
      <trkpt lat="47.21422" lon="5.88913">
        <ele>276.8</ele>
        <time>2024-08-05T07:24:42Z</time>
      </trkpt>
      <trkpt lat="47.21418" lon="5.88918">
        <ele>276.6</ele>
        <time>2024-08-05T07:24:43Z</time>
      </trkpt>
      <trkpt lat="47.21414" lon="5.88924">
        <ele>276.4</ele>
        <time>2024-08-05T07:24:44Z</time>
      </trkpt>
      <trkpt lat="47.21409" lon="5.88929">
        <ele>276.2</ele>
        <time>2024-08-05T07:24:45Z</time>
      </trkpt>
      <trkpt lat="47.21405" lon="5.88934">
        <ele>276.2</ele>
        <time>2024-08-05T07:24:46Z</time>
      </trkpt>
      <trkpt lat="47.214" lon="5.88939">
        <ele>275.8</ele>
        <time>2024-08-05T07:24:47Z</time>
      </trkpt>
      <trkpt lat="47.21396" lon="5.88944">
        <ele>275.8</ele>
        <time>2024-08-05T07:24:48Z</time>
      </trkpt>
      <trkpt lat="47.21392" lon="5.88949">
        <ele>275.4</ele>
        <time>2024-08-05T07:24:49Z</time>
      </trkpt>
      <trkpt lat="47.21388" lon="5.88953">
        <ele>275</ele>
        <time>2024-08-05T07:24:50Z</time>
      </trkpt>
      <trkpt lat="47.21383" lon="5.88957">
        <ele>274.8</ele>
        <time>2024-08-05T07:24:51Z</time>
      </trkpt>
      <trkpt lat="47.21379" lon="5.8896">
        <ele>274.4</ele>
        <time>2024-08-05T07:24:52Z</time>
      </trkpt>
      <trkpt lat="47.21374" lon="5.88963">
        <ele>274.2</ele>
        <time>2024-08-05T07:24:53Z</time>
      </trkpt>
      <trkpt lat="47.2137" lon="5.88966">
        <ele>273.8</ele>
        <time>2024-08-05T07:24:54Z</time>
      </trkpt>
      <trkpt lat="47.21366" lon="5.88969">
        <ele>273.6</ele>
        <time>2024-08-05T07:24:55Z</time>
      </trkpt>
      <trkpt lat="47.21361" lon="5.88972">
        <ele>273</ele>
        <time>2024-08-05T07:24:56Z</time>
      </trkpt>
      <trkpt lat="47.21357" lon="5.88976">
        <ele>273</ele>
        <time>2024-08-05T07:24:57Z</time>
      </trkpt>
      <trkpt lat="47.21351" lon="5.88979">
        <ele>272.6</ele>
        <time>2024-08-05T07:24:58Z</time>
      </trkpt>
      <trkpt lat="47.21346" lon="5.88983">
        <ele>272</ele>
        <time>2024-08-05T07:24:59Z</time>
      </trkpt>
      <trkpt lat="47.21341" lon="5.88986">
        <ele>272</ele>
        <time>2024-08-05T07:25:00Z</time>
      </trkpt>
      <trkpt lat="47.21335" lon="5.88989">
        <ele>271.6</ele>
        <time>2024-08-05T07:25:01Z</time>
      </trkpt>
      <trkpt lat="47.21329" lon="5.88992">
        <ele>271.2</ele>
        <time>2024-08-05T07:25:02Z</time>
      </trkpt>
      <trkpt lat="47.21324" lon="5.88994">
        <ele>271</ele>
        <time>2024-08-05T07:25:03Z</time>
      </trkpt>
      <trkpt lat="47.21319" lon="5.88996">
        <ele>270.8</ele>
        <time>2024-08-05T07:25:04Z</time>
      </trkpt>
      <trkpt lat="47.21313" lon="5.88999">
        <ele>270.4</ele>
        <time>2024-08-05T07:25:05Z</time>
      </trkpt>
      <trkpt lat="47.21307" lon="5.89001">
        <ele>270.4</ele>
        <time>2024-08-05T07:25:06Z</time>
      </trkpt>
      <trkpt lat="47.21302" lon="5.89005">
        <ele>270</ele>
        <time>2024-08-05T07:25:07Z</time>
      </trkpt>
      <trkpt lat="47.21298" lon="5.89007">
        <ele>269.6</ele>
        <time>2024-08-05T07:25:08Z</time>
      </trkpt>
      <trkpt lat="47.21295" lon="5.89009">
        <ele>269</ele>
        <time>2024-08-05T07:25:09Z</time>
      </trkpt>
      <trkpt lat="47.21292" lon="5.89009">
        <ele>268.8</ele>
        <time>2024-08-05T07:25:10Z</time>
      </trkpt>
      <trkpt lat="47.2129" lon="5.89009">
        <ele>268.4</ele>
        <time>2024-08-05T07:25:11Z</time>
      </trkpt>
      <trkpt lat="47.21288" lon="5.89009">
        <ele>268.2</ele>
        <time>2024-08-05T07:25:12Z</time>
      </trkpt>
      <trkpt lat="47.21287" lon="5.89008">
        <ele>267.6</ele>
        <time>2024-08-05T07:25:13Z</time>
      </trkpt>
      <trkpt lat="47.21286" lon="5.89006">
        <ele>267.2</ele>
        <time>2024-08-05T07:25:14Z</time>
      </trkpt>
      <trkpt lat="47.21284" lon="5.89003">
        <ele>267</ele>
        <time>2024-08-05T07:25:15Z</time>
      </trkpt>
      <trkpt lat="47.21283" lon="5.89">
        <ele>267</ele>
        <time>2024-08-05T07:25:16Z</time>
      </trkpt>
      <trkpt lat="47.21281" lon="5.88996">
        <ele>267</ele>
        <time>2024-08-05T07:25:17Z</time>
      </trkpt>
      <trkpt lat="47.2128" lon="5.88993">
        <ele>266.8</ele>
        <time>2024-08-05T07:25:18Z</time>
      </trkpt>
      <trkpt lat="47.21278" lon="5.88989">
        <ele>266.8</ele>
        <time>2024-08-05T07:25:19Z</time>
      </trkpt>
      <trkpt lat="47.21276" lon="5.88985">
        <ele>266.8</ele>
        <time>2024-08-05T07:25:20Z</time>
      </trkpt>
      <trkpt lat="47.21274" lon="5.88981">
        <ele>267</ele>
        <time>2024-08-05T07:25:21Z</time>
      </trkpt>
      <trkpt lat="47.21273" lon="5.88976">
        <ele>266.8</ele>
        <time>2024-08-05T07:25:22Z</time>
      </trkpt>
      <trkpt lat="47.21272" lon="5.88971">
        <ele>266.8</ele>
        <time>2024-08-05T07:25:23Z</time>
      </trkpt>
      <trkpt lat="47.2127" lon="5.88966">
        <ele>267</ele>
        <time>2024-08-05T07:25:24Z</time>
      </trkpt>
      <trkpt lat="47.21269" lon="5.88961">
        <ele>266.8</ele>
        <time>2024-08-05T07:25:25Z</time>
      </trkpt>
      <trkpt lat="47.21267" lon="5.88955">
        <ele>266.8</ele>
        <time>2024-08-05T07:25:26Z</time>
      </trkpt>
      <trkpt lat="47.21265" lon="5.88949">
        <ele>266.8</ele>
        <time>2024-08-05T07:25:27Z</time>
      </trkpt>
      <trkpt lat="47.21263" lon="5.88943">
        <ele>266.8</ele>
        <time>2024-08-05T07:25:28Z</time>
      </trkpt>
      <trkpt lat="47.21261" lon="5.88937">
        <ele>266.8</ele>
        <time>2024-08-05T07:25:29Z</time>
      </trkpt>
      <trkpt lat="47.21259" lon="5.88931">
        <ele>266.8</ele>
        <time>2024-08-05T07:25:30Z</time>
      </trkpt>
      <trkpt lat="47.21256" lon="5.88925">
        <ele>266.8</ele>
        <time>2024-08-05T07:25:31Z</time>
      </trkpt>
      <trkpt lat="47.21254" lon="5.88919">
        <ele>266.8</ele>
        <time>2024-08-05T07:25:32Z</time>
      </trkpt>
      <trkpt lat="47.21251" lon="5.88913">
        <ele>266.8</ele>
        <time>2024-08-05T07:25:33Z</time>
      </trkpt>
      <trkpt lat="47.21248" lon="5.88906">
        <ele>267</ele>
        <time>2024-08-05T07:25:34Z</time>
      </trkpt>
      <trkpt lat="47.21245" lon="5.88899">
        <ele>266.8</ele>
        <time>2024-08-05T07:25:35Z</time>
      </trkpt>
      <trkpt lat="47.21241" lon="5.88891">
        <ele>266.8</ele>
        <time>2024-08-05T07:25:36Z</time>
      </trkpt>
      <trkpt lat="47.21238" lon="5.88883">
        <ele>266.8</ele>
        <time>2024-08-05T07:25:37Z</time>
      </trkpt>
      <trkpt lat="47.21233" lon="5.88875">
        <ele>266.6</ele>
        <time>2024-08-05T07:25:38Z</time>
      </trkpt>
      <trkpt lat="47.2123" lon="5.88866">
        <ele>266.8</ele>
        <time>2024-08-05T07:25:39Z</time>
      </trkpt>
      <trkpt lat="47.21226" lon="5.88857">
        <ele>266.8</ele>
        <time>2024-08-05T07:25:40Z</time>
      </trkpt>
      <trkpt lat="47.21224" lon="5.88848">
        <ele>266.6</ele>
        <time>2024-08-05T07:25:41Z</time>
      </trkpt>
      <trkpt lat="47.21221" lon="5.88838">
        <ele>266.6</ele>
        <time>2024-08-05T07:25:42Z</time>
      </trkpt>
      <trkpt lat="47.21218" lon="5.88829">
        <ele>266.4</ele>
        <time>2024-08-05T07:25:43Z</time>
      </trkpt>
      <trkpt lat="47.21214" lon="5.88819">
        <ele>266.2</ele>
        <time>2024-08-05T07:25:44Z</time>
      </trkpt>
      <trkpt lat="47.21211" lon="5.8881">
        <ele>266</ele>
        <time>2024-08-05T07:25:45Z</time>
      </trkpt>
      <trkpt lat="47.21209" lon="5.88802">
        <ele>265.8</ele>
        <time>2024-08-05T07:25:46Z</time>
      </trkpt>
      <trkpt lat="47.21207" lon="5.88794">
        <ele>265.4</ele>
        <time>2024-08-05T07:25:47Z</time>
      </trkpt>
      <trkpt lat="47.21205" lon="5.88787">
        <ele>265</ele>
        <time>2024-08-05T07:25:48Z</time>
      </trkpt>
      <trkpt lat="47.21203" lon="5.8878">
        <ele>264.8</ele>
        <time>2024-08-05T07:25:49Z</time>
      </trkpt>
      <trkpt lat="47.212" lon="5.88774">
        <ele>264.8</ele>
        <time>2024-08-05T07:25:50Z</time>
      </trkpt>
      <trkpt lat="47.21198" lon="5.88769">
        <ele>264.8</ele>
        <time>2024-08-05T07:25:51Z</time>
      </trkpt>
      <trkpt lat="47.21196" lon="5.88764">
        <ele>264.8</ele>
        <time>2024-08-05T07:25:52Z</time>
      </trkpt>
      <trkpt lat="47.21195" lon="5.8876">
        <ele>264.8</ele>
        <time>2024-08-05T07:25:53Z</time>
      </trkpt>
      <trkpt lat="47.21193" lon="5.88756">
        <ele>264.8</ele>
        <time>2024-08-05T07:25:54Z</time>
      </trkpt>
      <trkpt lat="47.21191" lon="5.88751">
        <ele>264.8</ele>
        <time>2024-08-05T07:25:55Z</time>
      </trkpt>
      <trkpt lat="47.2119" lon="5.88747">
        <ele>264.8</ele>
        <time>2024-08-05T07:25:56Z</time>
      </trkpt>
      <trkpt lat="47.21189" lon="5.88742">
        <ele>264.8</ele>
        <time>2024-08-05T07:25:57Z</time>
      </trkpt>
      <trkpt lat="47.21188" lon="5.88737">
        <ele>265</ele>
        <time>2024-08-05T07:25:58Z</time>
      </trkpt>
      <trkpt lat="47.21186" lon="5.88732">
        <ele>265.2</ele>
        <time>2024-08-05T07:25:59Z</time>
      </trkpt>
      <trkpt lat="47.21185" lon="5.88727">
        <ele>265.4</ele>
        <time>2024-08-05T07:26:00Z</time>
      </trkpt>
      <trkpt lat="47.21184" lon="5.88723">
        <ele>265.6</ele>
        <time>2024-08-05T07:26:01Z</time>
      </trkpt>
      <trkpt lat="47.21183" lon="5.88719">
        <ele>265.6</ele>
        <time>2024-08-05T07:26:02Z</time>
      </trkpt>
      <trkpt lat="47.21182" lon="5.88714">
        <ele>265.6</ele>
        <time>2024-08-05T07:26:03Z</time>
      </trkpt>
      <trkpt lat="47.21181" lon="5.8871">
        <ele>265.6</ele>
        <time>2024-08-05T07:26:04Z</time>
      </trkpt>
      <trkpt lat="47.21181" lon="5.88705">
        <ele>265.8</ele>
        <time>2024-08-05T07:26:05Z</time>
      </trkpt>
      <trkpt lat="47.21179" lon="5.887">
        <ele>265.8</ele>
        <time>2024-08-05T07:26:06Z</time>
      </trkpt>
      <trkpt lat="47.21178" lon="5.88695">
        <ele>265.8</ele>
        <time>2024-08-05T07:26:07Z</time>
      </trkpt>
      <trkpt lat="47.21176" lon="5.88689">
        <ele>266</ele>
        <time>2024-08-05T07:26:08Z</time>
      </trkpt>
      <trkpt lat="47.21175" lon="5.88684">
        <ele>265.8</ele>
        <time>2024-08-05T07:26:09Z</time>
      </trkpt>
      <trkpt lat="47.21174" lon="5.88678">
        <ele>265.8</ele>
        <time>2024-08-05T07:26:10Z</time>
      </trkpt>
      <trkpt lat="47.21174" lon="5.88671">
        <ele>265.8</ele>
        <time>2024-08-05T07:26:11Z</time>
      </trkpt>
      <trkpt lat="47.21172" lon="5.88664">
        <ele>265.8</ele>
        <time>2024-08-05T07:26:12Z</time>
      </trkpt>
      <trkpt lat="47.21169" lon="5.88656">
        <ele>265.8</ele>
        <time>2024-08-05T07:26:13Z</time>
      </trkpt>
      <trkpt lat="47.21167" lon="5.8865">
        <ele>265.4</ele>
        <time>2024-08-05T07:26:14Z</time>
      </trkpt>
      <trkpt lat="47.21165" lon="5.88642">
        <ele>265.4</ele>
        <time>2024-08-05T07:26:15Z</time>
      </trkpt>
      <trkpt lat="47.21162" lon="5.88634">
        <ele>265</ele>
        <time>2024-08-05T07:26:16Z</time>
      </trkpt>
      <trkpt lat="47.21158" lon="5.88625">
        <ele>264.8</ele>
        <time>2024-08-05T07:26:17Z</time>
      </trkpt>
      <trkpt lat="47.21155" lon="5.88618">
        <ele>264.4</ele>
        <time>2024-08-05T07:26:18Z</time>
      </trkpt>
      <trkpt lat="47.21151" lon="5.8861">
        <ele>264.2</ele>
        <time>2024-08-05T07:26:19Z</time>
      </trkpt>
      <trkpt lat="47.21148" lon="5.88605">
        <ele>263.8</ele>
        <time>2024-08-05T07:26:20Z</time>
      </trkpt>
      <trkpt lat="47.21147" lon="5.886">
        <ele>263.8</ele>
        <time>2024-08-05T07:26:21Z</time>
      </trkpt>
      <trkpt lat="47.21146" lon="5.88597">
        <ele>263.8</ele>
        <time>2024-08-05T07:26:22Z</time>
      </trkpt>
      <trkpt lat="47.21145" lon="5.88595">
        <ele>263.8</ele>
        <time>2024-08-05T07:26:23Z</time>
      </trkpt>
      <trkpt lat="47.21144" lon="5.88593">
        <ele>263.8</ele>
        <time>2024-08-05T07:26:24Z</time>
      </trkpt>
      <trkpt lat="47.21144" lon="5.8859">
        <ele>263.8</ele>
        <time>2024-08-05T07:26:25Z</time>
      </trkpt>
      <trkpt lat="47.21143" lon="5.88588">
        <ele>263.8</ele>
        <time>2024-08-05T07:26:26Z</time>
      </trkpt>
      <trkpt lat="47.21143" lon="5.88585">
        <ele>263.8</ele>
        <time>2024-08-05T07:26:27Z</time>
      </trkpt>
      <trkpt lat="47.21142" lon="5.88582">
        <ele>263.8</ele>
        <time>2024-08-05T07:26:28Z</time>
      </trkpt>
      <trkpt lat="47.21141" lon="5.88578">
        <ele>263.8</ele>
        <time>2024-08-05T07:26:29Z</time>
      </trkpt>
      <trkpt lat="47.2114" lon="5.88575">
        <ele>264</ele>
        <time>2024-08-05T07:26:30Z</time>
      </trkpt>
      <trkpt lat="47.21139" lon="5.88571">
        <ele>264.2</ele>
        <time>2024-08-05T07:26:31Z</time>
      </trkpt>
      <trkpt lat="47.21138" lon="5.88568">
        <ele>264.4</ele>
        <time>2024-08-05T07:26:32Z</time>
      </trkpt>
      <trkpt lat="47.21135" lon="5.88565">
        <ele>264.8</ele>
        <time>2024-08-05T07:26:33Z</time>
      </trkpt>
      <trkpt lat="47.21133" lon="5.88563">
        <ele>265</ele>
        <time>2024-08-05T07:26:34Z</time>
      </trkpt>
      <trkpt lat="47.21131" lon="5.8856">
        <ele>265</ele>
        <time>2024-08-05T07:26:35Z</time>
      </trkpt>
      <trkpt lat="47.21131" lon="5.88557">
        <ele>265.4</ele>
        <time>2024-08-05T07:26:36Z</time>
      </trkpt>
      <trkpt lat="47.2113" lon="5.88554">
        <ele>265.8</ele>
        <time>2024-08-05T07:26:37Z</time>
      </trkpt>
      <trkpt lat="47.21129" lon="5.88551">
        <ele>266</ele>
        <time>2024-08-05T07:26:38Z</time>
      </trkpt>
      <trkpt lat="47.21128" lon="5.88547">
        <ele>266.4</ele>
        <time>2024-08-05T07:26:39Z</time>
      </trkpt>
      <trkpt lat="47.21126" lon="5.88544">
        <ele>266.6</ele>
        <time>2024-08-05T07:26:40Z</time>
      </trkpt>
      <trkpt lat="47.21126" lon="5.88541">
        <ele>266.8</ele>
        <time>2024-08-05T07:26:41Z</time>
      </trkpt>
      <trkpt lat="47.21125" lon="5.88538">
        <ele>267.4</ele>
        <time>2024-08-05T07:26:42Z</time>
      </trkpt>
      <trkpt lat="47.21124" lon="5.88535">
        <ele>267.4</ele>
        <time>2024-08-05T07:26:43Z</time>
      </trkpt>
      <trkpt lat="47.21123" lon="5.88532">
        <ele>267.4</ele>
        <time>2024-08-05T07:26:44Z</time>
      </trkpt>
      <trkpt lat="47.21121" lon="5.88528">
        <ele>267.8</ele>
        <time>2024-08-05T07:26:45Z</time>
      </trkpt>
      <trkpt lat="47.21119" lon="5.88525">
        <ele>267.8</ele>
        <time>2024-08-05T07:26:46Z</time>
      </trkpt>
      <trkpt lat="47.21116" lon="5.88521">
        <ele>268</ele>
        <time>2024-08-05T07:26:47Z</time>
      </trkpt>
      <trkpt lat="47.21115" lon="5.88518">
        <ele>268.2</ele>
        <time>2024-08-05T07:26:48Z</time>
      </trkpt>
      <trkpt lat="47.21113" lon="5.88514">
        <ele>268.4</ele>
        <time>2024-08-05T07:26:49Z</time>
      </trkpt>
      <trkpt lat="47.21112" lon="5.88512">
        <ele>268.6</ele>
        <time>2024-08-05T07:26:50Z</time>
      </trkpt>
      <trkpt lat="47.2111" lon="5.8851">
        <ele>268.8</ele>
        <time>2024-08-05T07:26:51Z</time>
      </trkpt>
      <trkpt lat="47.21109" lon="5.88508">
        <ele>269</ele>
        <time>2024-08-05T07:26:52Z</time>
      </trkpt>
      <trkpt lat="47.21106" lon="5.88505">
        <ele>269</ele>
        <time>2024-08-05T07:26:53Z</time>
      </trkpt>
      <trkpt lat="47.21104" lon="5.88503">
        <ele>269.4</ele>
        <time>2024-08-05T07:26:54Z</time>
      </trkpt>
      <trkpt lat="47.21103" lon="5.885">
        <ele>269.6</ele>
        <time>2024-08-05T07:26:55Z</time>
      </trkpt>
      <trkpt lat="47.21102" lon="5.88497">
        <ele>270</ele>
        <time>2024-08-05T07:26:56Z</time>
      </trkpt>
      <trkpt lat="47.21101" lon="5.88494">
        <ele>270.2</ele>
        <time>2024-08-05T07:26:57Z</time>
      </trkpt>
      <trkpt lat="47.211" lon="5.88492">
        <ele>270.6</ele>
        <time>2024-08-05T07:26:58Z</time>
      </trkpt>
      <trkpt lat="47.21099" lon="5.88489">
        <ele>270.8</ele>
        <time>2024-08-05T07:26:59Z</time>
      </trkpt>
      <trkpt lat="47.21098" lon="5.88487">
        <ele>271.4</ele>
        <time>2024-08-05T07:27:00Z</time>
      </trkpt>
      <trkpt lat="47.21098" lon="5.88485">
        <ele>271.6</ele>
        <time>2024-08-05T07:27:01Z</time>
      </trkpt>
      <trkpt lat="47.21098" lon="5.88483">
        <ele>271.8</ele>
        <time>2024-08-05T07:27:02Z</time>
      </trkpt>
      <trkpt lat="47.21098" lon="5.88481">
        <ele>272.2</ele>
        <time>2024-08-05T07:27:03Z</time>
      </trkpt>
      <trkpt lat="47.21097" lon="5.88478">
        <ele>272.8</ele>
        <time>2024-08-05T07:27:04Z</time>
      </trkpt>
      <trkpt lat="47.21096" lon="5.88475">
        <ele>273.2</ele>
        <time>2024-08-05T07:27:05Z</time>
      </trkpt>
      <trkpt lat="47.21095" lon="5.88471">
        <ele>273.2</ele>
        <time>2024-08-05T07:27:06Z</time>
      </trkpt>
      <trkpt lat="47.21094" lon="5.88468">
        <ele>273.6</ele>
        <time>2024-08-05T07:27:07Z</time>
      </trkpt>
      <trkpt lat="47.21093" lon="5.88464">
        <ele>273.8</ele>
        <time>2024-08-05T07:27:08Z</time>
      </trkpt>
      <trkpt lat="47.21092" lon="5.88461">
        <ele>274.2</ele>
        <time>2024-08-05T07:27:09Z</time>
      </trkpt>
      <trkpt lat="47.21091" lon="5.88458">
        <ele>274.4</ele>
        <time>2024-08-05T07:27:10Z</time>
      </trkpt>
      <trkpt lat="47.21091" lon="5.88455">
        <ele>274.6</ele>
        <time>2024-08-05T07:27:11Z</time>
      </trkpt>
      <trkpt lat="47.21089" lon="5.88451">
        <ele>274.6</ele>
        <time>2024-08-05T07:27:12Z</time>
      </trkpt>
      <trkpt lat="47.21088" lon="5.88448">
        <ele>275</ele>
        <time>2024-08-05T07:27:13Z</time>
      </trkpt>
      <trkpt lat="47.21087" lon="5.88445">
        <ele>275</ele>
        <time>2024-08-05T07:27:14Z</time>
      </trkpt>
      <trkpt lat="47.21086" lon="5.88441">
        <ele>275.4</ele>
        <time>2024-08-05T07:27:15Z</time>
      </trkpt>
      <trkpt lat="47.21084" lon="5.88437">
        <ele>275.4</ele>
        <time>2024-08-05T07:27:16Z</time>
      </trkpt>
      <trkpt lat="47.21083" lon="5.88433">
        <ele>275.6</ele>
        <time>2024-08-05T07:27:17Z</time>
      </trkpt>
      <trkpt lat="47.21083" lon="5.88429">
        <ele>275.8</ele>
        <time>2024-08-05T07:27:18Z</time>
      </trkpt>
      <trkpt lat="47.21081" lon="5.88426">
        <ele>276</ele>
        <time>2024-08-05T07:27:19Z</time>
      </trkpt>
      <trkpt lat="47.21081" lon="5.88423">
        <ele>276.2</ele>
        <time>2024-08-05T07:27:20Z</time>
      </trkpt>
      <trkpt lat="47.2108" lon="5.8842">
        <ele>276.4</ele>
        <time>2024-08-05T07:27:21Z</time>
      </trkpt>
      <trkpt lat="47.2108" lon="5.88418">
        <ele>276.4</ele>
        <time>2024-08-05T07:27:22Z</time>
      </trkpt>
      <trkpt lat="47.21079" lon="5.88415">
        <ele>276.6</ele>
        <time>2024-08-05T07:27:23Z</time>
      </trkpt>
      <trkpt lat="47.21079" lon="5.88412">
        <ele>276.8</ele>
        <time>2024-08-05T07:27:24Z</time>
      </trkpt>
      <trkpt lat="47.21077" lon="5.88408">
        <ele>277</ele>
        <time>2024-08-05T07:27:25Z</time>
      </trkpt>
      <trkpt lat="47.21077" lon="5.88405">
        <ele>277</ele>
        <time>2024-08-05T07:27:26Z</time>
      </trkpt>
      <trkpt lat="47.21076" lon="5.88401">
        <ele>277</ele>
        <time>2024-08-05T07:27:27Z</time>
      </trkpt>
      <trkpt lat="47.21074" lon="5.88398">
        <ele>277</ele>
        <time>2024-08-05T07:27:28Z</time>
      </trkpt>
      <trkpt lat="47.21074" lon="5.88394">
        <ele>277.2</ele>
        <time>2024-08-05T07:27:29Z</time>
      </trkpt>
      <trkpt lat="47.21073" lon="5.8839">
        <ele>277.4</ele>
        <time>2024-08-05T07:27:30Z</time>
      </trkpt>
      <trkpt lat="47.21073" lon="5.88387">
        <ele>277.4</ele>
        <time>2024-08-05T07:27:31Z</time>
      </trkpt>
      <trkpt lat="47.21072" lon="5.88384">
        <ele>277.6</ele>
        <time>2024-08-05T07:27:32Z</time>
      </trkpt>
      <trkpt lat="47.21071" lon="5.88381">
        <ele>277.6</ele>
        <time>2024-08-05T07:27:33Z</time>
      </trkpt>
      <trkpt lat="47.21071" lon="5.88379">
        <ele>277.6</ele>
        <time>2024-08-05T07:27:34Z</time>
      </trkpt>
      <trkpt lat="47.2107" lon="5.88376">
        <ele>277.8</ele>
        <time>2024-08-05T07:27:35Z</time>
      </trkpt>
      <trkpt lat="47.2107" lon="5.88372">
        <ele>277.8</ele>
        <time>2024-08-05T07:27:36Z</time>
      </trkpt>
      <trkpt lat="47.2107" lon="5.88367">
        <ele>277.6</ele>
        <time>2024-08-05T07:27:37Z</time>
      </trkpt>
      <trkpt lat="47.21069" lon="5.88364">
        <ele>277.6</ele>
        <time>2024-08-05T07:27:38Z</time>
      </trkpt>
      <trkpt lat="47.21068" lon="5.8836">
        <ele>277.8</ele>
        <time>2024-08-05T07:27:39Z</time>
      </trkpt>
      <trkpt lat="47.21066" lon="5.88357">
        <ele>277.6</ele>
        <time>2024-08-05T07:27:40Z</time>
      </trkpt>
      <trkpt lat="47.21065" lon="5.88355">
        <ele>277.8</ele>
        <time>2024-08-05T07:27:41Z</time>
      </trkpt>
      <trkpt lat="47.21061" lon="5.88353">
        <ele>277.6</ele>
        <time>2024-08-05T07:27:42Z</time>
      </trkpt>
      <trkpt lat="47.21058" lon="5.88351">
        <ele>277.8</ele>
        <time>2024-08-05T07:27:43Z</time>
      </trkpt>
      <trkpt lat="47.21054" lon="5.88349">
        <ele>277.6</ele>
        <time>2024-08-05T07:27:44Z</time>
      </trkpt>
      <trkpt lat="47.21051" lon="5.88348">
        <ele>277.8</ele>
        <time>2024-08-05T07:27:45Z</time>
      </trkpt>
      <trkpt lat="47.21048" lon="5.88347">
        <ele>277.6</ele>
        <time>2024-08-05T07:27:46Z</time>
      </trkpt>
      <trkpt lat="47.21046" lon="5.88345">
        <ele>277.8</ele>
        <time>2024-08-05T07:27:47Z</time>
      </trkpt>
      <trkpt lat="47.21041" lon="5.88342">
        <ele>277.8</ele>
        <time>2024-08-05T07:27:48Z</time>
      </trkpt>
      <trkpt lat="47.21036" lon="5.8834">
        <ele>277.8</ele>
        <time>2024-08-05T07:27:49Z</time>
      </trkpt>
      <trkpt lat="47.21033" lon="5.88337">
        <ele>277.8</ele>
        <time>2024-08-05T07:27:50Z</time>
      </trkpt>
      <trkpt lat="47.2103" lon="5.88334">
        <ele>278.2</ele>
        <time>2024-08-05T07:27:51Z</time>
      </trkpt>
      <trkpt lat="47.21028" lon="5.88332">
        <ele>278.2</ele>
        <time>2024-08-05T07:27:52Z</time>
      </trkpt>
      <trkpt lat="47.21025" lon="5.8833">
        <ele>278.2</ele>
        <time>2024-08-05T07:27:53Z</time>
      </trkpt>
      <trkpt lat="47.21022" lon="5.88327">
        <ele>278.4</ele>
        <time>2024-08-05T07:27:54Z</time>
      </trkpt>
      <trkpt lat="47.2102" lon="5.88325">
        <ele>278.6</ele>
        <time>2024-08-05T07:27:55Z</time>
      </trkpt>
      <trkpt lat="47.21017" lon="5.88323">
        <ele>279</ele>
        <time>2024-08-05T07:27:56Z</time>
      </trkpt>
      <trkpt lat="47.21014" lon="5.8832">
        <ele>279</ele>
        <time>2024-08-05T07:27:57Z</time>
      </trkpt>
      <trkpt lat="47.21011" lon="5.88318">
        <ele>279.2</ele>
        <time>2024-08-05T07:27:58Z</time>
      </trkpt>
      <trkpt lat="47.21009" lon="5.88315">
        <ele>279.4</ele>
        <time>2024-08-05T07:27:59Z</time>
      </trkpt>
      <trkpt lat="47.21006" lon="5.88313">
        <ele>279.4</ele>
        <time>2024-08-05T07:28:00Z</time>
      </trkpt>
      <trkpt lat="47.21002" lon="5.88312">
        <ele>279.4</ele>
        <time>2024-08-05T07:28:01Z</time>
      </trkpt>
      <trkpt lat="47.21" lon="5.88311">
        <ele>279.6</ele>
        <time>2024-08-05T07:28:02Z</time>
      </trkpt>
      <trkpt lat="47.20999" lon="5.8831">
        <ele>280</ele>
        <time>2024-08-05T07:28:03Z</time>
      </trkpt>
      <trkpt lat="47.20997" lon="5.88308">
        <ele>280.2</ele>
        <time>2024-08-05T07:28:04Z</time>
      </trkpt>
      <trkpt lat="47.20996" lon="5.88307">
        <ele>280.4</ele>
        <time>2024-08-05T07:28:05Z</time>
      </trkpt>
      <trkpt lat="47.20994" lon="5.88304">
        <ele>280.4</ele>
        <time>2024-08-05T07:28:06Z</time>
      </trkpt>
      <trkpt lat="47.20992" lon="5.88302">
        <ele>280.6</ele>
        <time>2024-08-05T07:28:07Z</time>
      </trkpt>
      <trkpt lat="47.2099" lon="5.88298">
        <ele>280.6</ele>
        <time>2024-08-05T07:28:08Z</time>
      </trkpt>
      <trkpt lat="47.20987" lon="5.88294">
        <ele>280.6</ele>
        <time>2024-08-05T07:28:09Z</time>
      </trkpt>
      <trkpt lat="47.20985" lon="5.8829">
        <ele>280.8</ele>
        <time>2024-08-05T07:28:10Z</time>
      </trkpt>
      <trkpt lat="47.20982" lon="5.88287">
        <ele>281</ele>
        <time>2024-08-05T07:28:11Z</time>
      </trkpt>
      <trkpt lat="47.20979" lon="5.88283">
        <ele>281</ele>
        <time>2024-08-05T07:28:12Z</time>
      </trkpt>
      <trkpt lat="47.20974" lon="5.88277">
        <ele>281.2</ele>
        <time>2024-08-05T07:28:13Z</time>
      </trkpt>
      <trkpt lat="47.20971" lon="5.88274">
        <ele>281.2</ele>
        <time>2024-08-05T07:28:14Z</time>
      </trkpt>
      <trkpt lat="47.20967" lon="5.88271">
        <ele>281.2</ele>
        <time>2024-08-05T07:28:15Z</time>
      </trkpt>
      <trkpt lat="47.2096" lon="5.88267">
        <ele>281.2</ele>
        <time>2024-08-05T07:28:16Z</time>
      </trkpt>
      <trkpt lat="47.20953" lon="5.88265">
        <ele>281.2</ele>
        <time>2024-08-05T07:28:17Z</time>
      </trkpt>
      <trkpt lat="47.20946" lon="5.88261">
        <ele>281.6</ele>
        <time>2024-08-05T07:28:18Z</time>
      </trkpt>
      <trkpt lat="47.2094" lon="5.88258">
        <ele>281.6</ele>
        <time>2024-08-05T07:28:19Z</time>
      </trkpt>
      <trkpt lat="47.20934" lon="5.88256">
        <ele>281.8</ele>
        <time>2024-08-05T07:28:20Z</time>
      </trkpt>
      <trkpt lat="47.20929" lon="5.88254">
        <ele>281.8</ele>
        <time>2024-08-05T07:28:21Z</time>
      </trkpt>
      <trkpt lat="47.20925" lon="5.88254">
        <ele>281.8</ele>
        <time>2024-08-05T07:28:22Z</time>
      </trkpt>
      <trkpt lat="47.2092" lon="5.88253">
        <ele>282</ele>
        <time>2024-08-05T07:28:23Z</time>
      </trkpt>
      <trkpt lat="47.20916" lon="5.88253">
        <ele>282</ele>
        <time>2024-08-05T07:28:24Z</time>
      </trkpt>
      <trkpt lat="47.20911" lon="5.88252">
        <ele>282</ele>
        <time>2024-08-05T07:28:25Z</time>
      </trkpt>
      <trkpt lat="47.20906" lon="5.88252">
        <ele>282</ele>
        <time>2024-08-05T07:28:26Z</time>
      </trkpt>
      <trkpt lat="47.20902" lon="5.88252">
        <ele>282.2</ele>
        <time>2024-08-05T07:28:27Z</time>
      </trkpt>
      <trkpt lat="47.20897" lon="5.88252">
        <ele>282.2</ele>
        <time>2024-08-05T07:28:28Z</time>
      </trkpt>
      <trkpt lat="47.20891" lon="5.88252">
        <ele>282.2</ele>
        <time>2024-08-05T07:28:29Z</time>
      </trkpt>
      <trkpt lat="47.20887" lon="5.88251">
        <ele>282</ele>
        <time>2024-08-05T07:28:30Z</time>
      </trkpt>
      <trkpt lat="47.20882" lon="5.8825">
        <ele>282.2</ele>
        <time>2024-08-05T07:28:31Z</time>
      </trkpt>
      <trkpt lat="47.20877" lon="5.88249">
        <ele>282</ele>
        <time>2024-08-05T07:28:32Z</time>
      </trkpt>
      <trkpt lat="47.20873" lon="5.88248">
        <ele>282</ele>
        <time>2024-08-05T07:28:33Z</time>
      </trkpt>
      <trkpt lat="47.20869" lon="5.88247">
        <ele>282.2</ele>
        <time>2024-08-05T07:28:34Z</time>
      </trkpt>
      <trkpt lat="47.20864" lon="5.88244">
        <ele>281.8</ele>
        <time>2024-08-05T07:28:35Z</time>
      </trkpt>
      <trkpt lat="47.2086" lon="5.88243">
        <ele>281.6</ele>
        <time>2024-08-05T07:28:36Z</time>
      </trkpt>
      <trkpt lat="47.20856" lon="5.88241">
        <ele>281.6</ele>
        <time>2024-08-05T07:28:37Z</time>
      </trkpt>
      <trkpt lat="47.20851" lon="5.88241">
        <ele>281.4</ele>
        <time>2024-08-05T07:28:38Z</time>
      </trkpt>
      <trkpt lat="47.20847" lon="5.88241">
        <ele>281.2</ele>
        <time>2024-08-05T07:28:39Z</time>
      </trkpt>
      <trkpt lat="47.20843" lon="5.8824">
        <ele>280.8</ele>
        <time>2024-08-05T07:28:40Z</time>
      </trkpt>
      <trkpt lat="47.20839" lon="5.88239">
        <ele>280.6</ele>
        <time>2024-08-05T07:28:41Z</time>
      </trkpt>
      <trkpt lat="47.20835" lon="5.88238">
        <ele>280.6</ele>
        <time>2024-08-05T07:28:42Z</time>
      </trkpt>
      <trkpt lat="47.2083" lon="5.88236">
        <ele>280.2</ele>
        <time>2024-08-05T07:28:43Z</time>
      </trkpt>
      <trkpt lat="47.20826" lon="5.88235">
        <ele>280.2</ele>
        <time>2024-08-05T07:28:44Z</time>
      </trkpt>
      <trkpt lat="47.20821" lon="5.88234">
        <ele>279.8</ele>
        <time>2024-08-05T07:28:45Z</time>
      </trkpt>
      <trkpt lat="47.20815" lon="5.88232">
        <ele>279.6</ele>
        <time>2024-08-05T07:28:46Z</time>
      </trkpt>
      <trkpt lat="47.2081" lon="5.88231">
        <ele>279.2</ele>
        <time>2024-08-05T07:28:47Z</time>
      </trkpt>
      <trkpt lat="47.20804" lon="5.8823">
        <ele>279</ele>
        <time>2024-08-05T07:28:48Z</time>
      </trkpt>
      <trkpt lat="47.20798" lon="5.88228">
        <ele>279</ele>
        <time>2024-08-05T07:28:49Z</time>
      </trkpt>
      <trkpt lat="47.20791" lon="5.88227">
        <ele>278.6</ele>
        <time>2024-08-05T07:28:50Z</time>
      </trkpt>
      <trkpt lat="47.20785" lon="5.88225">
        <ele>278.6</ele>
        <time>2024-08-05T07:28:51Z</time>
      </trkpt>
      <trkpt lat="47.20778" lon="5.88224">
        <ele>278.4</ele>
        <time>2024-08-05T07:28:52Z</time>
      </trkpt>
      <trkpt lat="47.20772" lon="5.88223">
        <ele>278.2</ele>
        <time>2024-08-05T07:28:53Z</time>
      </trkpt>
      <trkpt lat="47.20765" lon="5.88221">
        <ele>277.8</ele>
        <time>2024-08-05T07:28:54Z</time>
      </trkpt>
      <trkpt lat="47.20758" lon="5.8822">
        <ele>277.8</ele>
        <time>2024-08-05T07:28:55Z</time>
      </trkpt>
      <trkpt lat="47.20751" lon="5.88219">
        <ele>277.4</ele>
        <time>2024-08-05T07:28:56Z</time>
      </trkpt>
      <trkpt lat="47.20744" lon="5.88218">
        <ele>277.4</ele>
        <time>2024-08-05T07:28:57Z</time>
      </trkpt>
      <trkpt lat="47.20737" lon="5.88219">
        <ele>276.8</ele>
        <time>2024-08-05T07:28:58Z</time>
      </trkpt>
      <trkpt lat="47.20731" lon="5.88219">
        <ele>276.8</ele>
        <time>2024-08-05T07:28:59Z</time>
      </trkpt>
      <trkpt lat="47.20726" lon="5.88219">
        <ele>276.4</ele>
        <time>2024-08-05T07:29:00Z</time>
      </trkpt>
      <trkpt lat="47.20722" lon="5.88219">
        <ele>276</ele>
        <time>2024-08-05T07:29:01Z</time>
      </trkpt>
      <trkpt lat="47.20719" lon="5.88219">
        <ele>275.8</ele>
        <time>2024-08-05T07:29:02Z</time>
      </trkpt>
      <trkpt lat="47.20717" lon="5.88217">
        <ele>275.4</ele>
        <time>2024-08-05T07:29:03Z</time>
      </trkpt>
      <trkpt lat="47.20716" lon="5.88214">
        <ele>275.4</ele>
        <time>2024-08-05T07:29:04Z</time>
      </trkpt>
      <trkpt lat="47.20715" lon="5.8821">
        <ele>275</ele>
        <time>2024-08-05T07:29:05Z</time>
      </trkpt>
      <trkpt lat="47.20714" lon="5.88205">
        <ele>275</ele>
        <time>2024-08-05T07:29:06Z</time>
      </trkpt>
      <trkpt lat="47.20713" lon="5.88199">
        <ele>274.6</ele>
        <time>2024-08-05T07:29:07Z</time>
      </trkpt>
      <trkpt lat="47.20711" lon="5.88193">
        <ele>274.2</ele>
        <time>2024-08-05T07:29:08Z</time>
      </trkpt>
      <trkpt lat="47.20709" lon="5.88187">
        <ele>273.8</ele>
        <time>2024-08-05T07:29:09Z</time>
      </trkpt>
      <trkpt lat="47.20706" lon="5.88181">
        <ele>273.6</ele>
        <time>2024-08-05T07:29:10Z</time>
      </trkpt>
      <trkpt lat="47.20704" lon="5.88175">
        <ele>273.4</ele>
        <time>2024-08-05T07:29:11Z</time>
      </trkpt>
      <trkpt lat="47.20702" lon="5.88169">
        <ele>273.2</ele>
        <time>2024-08-05T07:29:12Z</time>
      </trkpt>
      <trkpt lat="47.20701" lon="5.88163">
        <ele>273</ele>
        <time>2024-08-05T07:29:13Z</time>
      </trkpt>
      <trkpt lat="47.207" lon="5.88157">
        <ele>273</ele>
        <time>2024-08-05T07:29:14Z</time>
      </trkpt>
      <trkpt lat="47.20697" lon="5.88151">
        <ele>272.8</ele>
        <time>2024-08-05T07:29:15Z</time>
      </trkpt>
      <trkpt lat="47.20696" lon="5.88145">
        <ele>272.8</ele>
        <time>2024-08-05T07:29:16Z</time>
      </trkpt>
      <trkpt lat="47.20695" lon="5.88139">
        <ele>272.8</ele>
        <time>2024-08-05T07:29:17Z</time>
      </trkpt>
      <trkpt lat="47.20694" lon="5.88134">
        <ele>272.6</ele>
        <time>2024-08-05T07:29:18Z</time>
      </trkpt>
      <trkpt lat="47.20693" lon="5.88129">
        <ele>272.6</ele>
        <time>2024-08-05T07:29:19Z</time>
      </trkpt>
      <trkpt lat="47.20692" lon="5.88123">
        <ele>272.6</ele>
        <time>2024-08-05T07:29:20Z</time>
      </trkpt>
      <trkpt lat="47.20692" lon="5.88117">
        <ele>272.6</ele>
        <time>2024-08-05T07:29:21Z</time>
      </trkpt>
      <trkpt lat="47.20692" lon="5.8811">
        <ele>272.4</ele>
        <time>2024-08-05T07:29:22Z</time>
      </trkpt>
      <trkpt lat="47.20691" lon="5.88104">
        <ele>272.4</ele>
        <time>2024-08-05T07:29:23Z</time>
      </trkpt>
      <trkpt lat="47.2069" lon="5.88098">
        <ele>272.4</ele>
        <time>2024-08-05T07:29:24Z</time>
      </trkpt>
      <trkpt lat="47.20688" lon="5.88092">
        <ele>272.4</ele>
        <time>2024-08-05T07:29:25Z</time>
      </trkpt>
      <trkpt lat="47.20685" lon="5.88086">
        <ele>272.4</ele>
        <time>2024-08-05T07:29:26Z</time>
      </trkpt>
      <trkpt lat="47.20683" lon="5.8808">
        <ele>272.4</ele>
        <time>2024-08-05T07:29:27Z</time>
      </trkpt>
      <trkpt lat="47.20681" lon="5.88075">
        <ele>272.2</ele>
        <time>2024-08-05T07:29:28Z</time>
      </trkpt>
      <trkpt lat="47.20678" lon="5.8807">
        <ele>272</ele>
        <time>2024-08-05T07:29:29Z</time>
      </trkpt>
      <trkpt lat="47.20675" lon="5.88065">
        <ele>272</ele>
        <time>2024-08-05T07:29:30Z</time>
      </trkpt>
      <trkpt lat="47.20674" lon="5.88058">
        <ele>271.8</ele>
        <time>2024-08-05T07:29:31Z</time>
      </trkpt>
      <trkpt lat="47.20672" lon="5.88052">
        <ele>271.8</ele>
        <time>2024-08-05T07:29:32Z</time>
      </trkpt>
      <trkpt lat="47.20671" lon="5.88046">
        <ele>271.8</ele>
        <time>2024-08-05T07:29:33Z</time>
      </trkpt>
      <trkpt lat="47.2067" lon="5.88041">
        <ele>271.6</ele>
        <time>2024-08-05T07:29:34Z</time>
      </trkpt>
      <trkpt lat="47.20669" lon="5.88035">
        <ele>271.6</ele>
        <time>2024-08-05T07:29:35Z</time>
      </trkpt>
      <trkpt lat="47.20669" lon="5.88029">
        <ele>271.6</ele>
        <time>2024-08-05T07:29:36Z</time>
      </trkpt>
      <trkpt lat="47.20668" lon="5.88022">
        <ele>271.6</ele>
        <time>2024-08-05T07:29:37Z</time>
      </trkpt>
      <trkpt lat="47.20666" lon="5.88017">
        <ele>271.6</ele>
        <time>2024-08-05T07:29:38Z</time>
      </trkpt>
      <trkpt lat="47.20665" lon="5.88011">
        <ele>271.6</ele>
        <time>2024-08-05T07:29:39Z</time>
      </trkpt>
      <trkpt lat="47.20663" lon="5.88006">
        <ele>271.6</ele>
        <time>2024-08-05T07:29:40Z</time>
      </trkpt>
      <trkpt lat="47.20661" lon="5.88001">
        <ele>271.4</ele>
        <time>2024-08-05T07:29:41Z</time>
      </trkpt>
      <trkpt lat="47.2066" lon="5.87996">
        <ele>271.6</ele>
        <time>2024-08-05T07:29:42Z</time>
      </trkpt>
      <trkpt lat="47.20659" lon="5.8799">
        <ele>271.4</ele>
        <time>2024-08-05T07:29:43Z</time>
      </trkpt>
      <trkpt lat="47.20659" lon="5.87985">
        <ele>271.6</ele>
        <time>2024-08-05T07:29:44Z</time>
      </trkpt>
      <trkpt lat="47.20658" lon="5.8798">
        <ele>271.6</ele>
        <time>2024-08-05T07:29:45Z</time>
      </trkpt>
      <trkpt lat="47.20657" lon="5.87975">
        <ele>271.6</ele>
        <time>2024-08-05T07:29:46Z</time>
      </trkpt>
      <trkpt lat="47.20658" lon="5.8797">
        <ele>271.6</ele>
        <time>2024-08-05T07:29:47Z</time>
      </trkpt>
      <trkpt lat="47.20659" lon="5.87965">
        <ele>271.4</ele>
        <time>2024-08-05T07:29:48Z</time>
      </trkpt>
      <trkpt lat="47.20659" lon="5.8796">
        <ele>271.6</ele>
        <time>2024-08-05T07:29:49Z</time>
      </trkpt>
      <trkpt lat="47.20659" lon="5.87954">
        <ele>271.6</ele>
        <time>2024-08-05T07:29:50Z</time>
      </trkpt>
      <trkpt lat="47.20659" lon="5.8795">
        <ele>271.6</ele>
        <time>2024-08-05T07:29:51Z</time>
      </trkpt>
      <trkpt lat="47.20657" lon="5.87945">
        <ele>271.6</ele>
        <time>2024-08-05T07:29:52Z</time>
      </trkpt>
      <trkpt lat="47.20655" lon="5.8794">
        <ele>271.8</ele>
        <time>2024-08-05T07:29:53Z</time>
      </trkpt>
      <trkpt lat="47.20654" lon="5.87934">
        <ele>271.8</ele>
        <time>2024-08-05T07:29:54Z</time>
      </trkpt>
      <trkpt lat="47.20653" lon="5.87927">
        <ele>271.8</ele>
        <time>2024-08-05T07:29:55Z</time>
      </trkpt>
      <trkpt lat="47.20651" lon="5.87921">
        <ele>271.6</ele>
        <time>2024-08-05T07:29:56Z</time>
      </trkpt>
      <trkpt lat="47.20649" lon="5.87915">
        <ele>271.8</ele>
        <time>2024-08-05T07:29:57Z</time>
      </trkpt>
      <trkpt lat="47.20647" lon="5.87908">
        <ele>271.8</ele>
        <time>2024-08-05T07:29:58Z</time>
      </trkpt>
      <trkpt lat="47.20646" lon="5.879">
        <ele>271.8</ele>
        <time>2024-08-05T07:29:59Z</time>
      </trkpt>
      <trkpt lat="47.20644" lon="5.87892">
        <ele>271.6</ele>
        <time>2024-08-05T07:30:00Z</time>
      </trkpt>
      <trkpt lat="47.20644" lon="5.87884">
        <ele>271.6</ele>
        <time>2024-08-05T07:30:01Z</time>
      </trkpt>
      <trkpt lat="47.20643" lon="5.87876">
        <ele>271.6</ele>
        <time>2024-08-05T07:30:02Z</time>
      </trkpt>
      <trkpt lat="47.20642" lon="5.87869">
        <ele>271.6</ele>
        <time>2024-08-05T07:30:03Z</time>
      </trkpt>
      <trkpt lat="47.2064" lon="5.87861">
        <ele>271.4</ele>
        <time>2024-08-05T07:30:04Z</time>
      </trkpt>
      <trkpt lat="47.20639" lon="5.87855">
        <ele>271.2</ele>
        <time>2024-08-05T07:30:05Z</time>
      </trkpt>
      <trkpt lat="47.20636" lon="5.87849">
        <ele>271</ele>
        <time>2024-08-05T07:30:06Z</time>
      </trkpt>
      <trkpt lat="47.20633" lon="5.87844">
        <ele>270.8</ele>
        <time>2024-08-05T07:30:07Z</time>
      </trkpt>
      <trkpt lat="47.20631" lon="5.87839">
        <ele>270.6</ele>
        <time>2024-08-05T07:30:08Z</time>
      </trkpt>
      <trkpt lat="47.2063" lon="5.87833">
        <ele>270.4</ele>
        <time>2024-08-05T07:30:09Z</time>
      </trkpt>
      <trkpt lat="47.20627" lon="5.87827">
        <ele>269.8</ele>
        <time>2024-08-05T07:30:10Z</time>
      </trkpt>
      <trkpt lat="47.20624" lon="5.87821">
        <ele>269.6</ele>
        <time>2024-08-05T07:30:11Z</time>
      </trkpt>
      <trkpt lat="47.20622" lon="5.87815">
        <ele>269.4</ele>
        <time>2024-08-05T07:30:12Z</time>
      </trkpt>
      <trkpt lat="47.20619" lon="5.87808">
        <ele>268.8</ele>
        <time>2024-08-05T07:30:13Z</time>
      </trkpt>
      <trkpt lat="47.20616" lon="5.87801">
        <ele>268.6</ele>
        <time>2024-08-05T07:30:14Z</time>
      </trkpt>
      <trkpt lat="47.20614" lon="5.87793">
        <ele>268.2</ele>
        <time>2024-08-05T07:30:15Z</time>
      </trkpt>
      <trkpt lat="47.20613" lon="5.87785">
        <ele>267.6</ele>
        <time>2024-08-05T07:30:16Z</time>
      </trkpt>
      <trkpt lat="47.20611" lon="5.87778">
        <ele>267.2</ele>
        <time>2024-08-05T07:30:17Z</time>
      </trkpt>
      <trkpt lat="47.2061" lon="5.87771">
        <ele>267</ele>
        <time>2024-08-05T07:30:18Z</time>
      </trkpt>
      <trkpt lat="47.20612" lon="5.87764">
        <ele>266.8</ele>
        <time>2024-08-05T07:30:19Z</time>
      </trkpt>
      <trkpt lat="47.20613" lon="5.87757">
        <ele>266.6</ele>
        <time>2024-08-05T07:30:20Z</time>
      </trkpt>
      <trkpt lat="47.20615" lon="5.8775">
        <ele>266.6</ele>
        <time>2024-08-05T07:30:21Z</time>
      </trkpt>
      <trkpt lat="47.20616" lon="5.87743">
        <ele>266.6</ele>
        <time>2024-08-05T07:30:22Z</time>
      </trkpt>
      <trkpt lat="47.20617" lon="5.87736">
        <ele>266.6</ele>
        <time>2024-08-05T07:30:23Z</time>
      </trkpt>
      <trkpt lat="47.20618" lon="5.8773">
        <ele>266.4</ele>
        <time>2024-08-05T07:30:24Z</time>
      </trkpt>
      <trkpt lat="47.20619" lon="5.87724">
        <ele>266.4</ele>
        <time>2024-08-05T07:30:25Z</time>
      </trkpt>
      <trkpt lat="47.20619" lon="5.87718">
        <ele>266.4</ele>
        <time>2024-08-05T07:30:26Z</time>
      </trkpt>
      <trkpt lat="47.2062" lon="5.87713">
        <ele>266.6</ele>
        <time>2024-08-05T07:30:27Z</time>
      </trkpt>
      <trkpt lat="47.20621" lon="5.87708">
        <ele>266.4</ele>
        <time>2024-08-05T07:30:28Z</time>
      </trkpt>
      <trkpt lat="47.20622" lon="5.87703">
        <ele>266.4</ele>
        <time>2024-08-05T07:30:29Z</time>
      </trkpt>
      <trkpt lat="47.20623" lon="5.87698">
        <ele>266.4</ele>
        <time>2024-08-05T07:30:30Z</time>
      </trkpt>
      <trkpt lat="47.20624" lon="5.87693">
        <ele>266.6</ele>
        <time>2024-08-05T07:30:31Z</time>
      </trkpt>
      <trkpt lat="47.20624" lon="5.87688">
        <ele>266.4</ele>
        <time>2024-08-05T07:30:32Z</time>
      </trkpt>
      <trkpt lat="47.20625" lon="5.87683">
        <ele>266.6</ele>
        <time>2024-08-05T07:30:33Z</time>
      </trkpt>
      <trkpt lat="47.20625" lon="5.87679">
        <ele>266.6</ele>
        <time>2024-08-05T07:30:34Z</time>
      </trkpt>
      <trkpt lat="47.20625" lon="5.87674">
        <ele>266.6</ele>
        <time>2024-08-05T07:30:35Z</time>
      </trkpt>
      <trkpt lat="47.20625" lon="5.87671">
        <ele>266.6</ele>
        <time>2024-08-05T07:30:36Z</time>
      </trkpt>
      <trkpt lat="47.20625" lon="5.87667">
        <ele>266.6</ele>
        <time>2024-08-05T07:30:37Z</time>
      </trkpt>
      <trkpt lat="47.20624" lon="5.87665">
        <ele>266.8</ele>
        <time>2024-08-05T07:30:38Z</time>
      </trkpt>
      <trkpt lat="47.20623" lon="5.87663">
        <ele>266.8</ele>
        <time>2024-08-05T07:30:39Z</time>
      </trkpt>
      <trkpt lat="47.20623" lon="5.87661">
        <ele>267</ele>
        <time>2024-08-05T07:30:40Z</time>
      </trkpt>
      <trkpt lat="47.20623" lon="5.87658">
        <ele>267.2</ele>
        <time>2024-08-05T07:30:41Z</time>
      </trkpt>
      <trkpt lat="47.20623" lon="5.87655">
        <ele>267.2</ele>
        <time>2024-08-05T07:30:42Z</time>
      </trkpt>
      <trkpt lat="47.20622" lon="5.87653">
        <ele>267.4</ele>
        <time>2024-08-05T07:30:43Z</time>
      </trkpt>
      <trkpt lat="47.20622" lon="5.87651">
        <ele>267.4</ele>
        <time>2024-08-05T07:30:44Z</time>
      </trkpt>
      <trkpt lat="47.20622" lon="5.87649">
        <ele>267.6</ele>
        <time>2024-08-05T07:30:45Z</time>
      </trkpt>
      <trkpt lat="47.20622" lon="5.87646">
        <ele>267.6</ele>
        <time>2024-08-05T07:30:46Z</time>
      </trkpt>
      <trkpt lat="47.20622" lon="5.87644">
        <ele>267.6</ele>
        <time>2024-08-05T07:30:47Z</time>
      </trkpt>
      <trkpt lat="47.20623" lon="5.8764">
        <ele>267.6</ele>
        <time>2024-08-05T07:30:48Z</time>
      </trkpt>
      <trkpt lat="47.20623" lon="5.87638">
        <ele>267.6</ele>
        <time>2024-08-05T07:30:49Z</time>
      </trkpt>
      <trkpt lat="47.20623" lon="5.87633">
        <ele>268</ele>
        <time>2024-08-05T07:30:50Z</time>
      </trkpt>
      <trkpt lat="47.20624" lon="5.87629">
        <ele>267.8</ele>
        <time>2024-08-05T07:30:51Z</time>
      </trkpt>
      <trkpt lat="47.20624" lon="5.87626">
        <ele>268</ele>
        <time>2024-08-05T07:30:52Z</time>
      </trkpt>
      <trkpt lat="47.20625" lon="5.87623">
        <ele>268.2</ele>
        <time>2024-08-05T07:30:53Z</time>
      </trkpt>
      <trkpt lat="47.20625" lon="5.87619">
        <ele>268.2</ele>
        <time>2024-08-05T07:30:54Z</time>
      </trkpt>
      <trkpt lat="47.20626" lon="5.87616">
        <ele>268.2</ele>
        <time>2024-08-05T07:30:55Z</time>
      </trkpt>
      <trkpt lat="47.20626" lon="5.87613">
        <ele>268.4</ele>
        <time>2024-08-05T07:30:56Z</time>
      </trkpt>
      <trkpt lat="47.20626" lon="5.8761">
        <ele>268.4</ele>
        <time>2024-08-05T07:30:57Z</time>
      </trkpt>
      <trkpt lat="47.20627" lon="5.87607">
        <ele>268.6</ele>
        <time>2024-08-05T07:30:58Z</time>
      </trkpt>
      <trkpt lat="47.20627" lon="5.87605">
        <ele>268.4</ele>
        <time>2024-08-05T07:30:59Z</time>
      </trkpt>
      <trkpt lat="47.20627" lon="5.87602">
        <ele>268.6</ele>
        <time>2024-08-05T07:31:00Z</time>
      </trkpt>
      <trkpt lat="47.20627" lon="5.87599">
        <ele>268.8</ele>
        <time>2024-08-05T07:31:01Z</time>
      </trkpt>
      <trkpt lat="47.20628" lon="5.87596">
        <ele>269</ele>
        <time>2024-08-05T07:31:02Z</time>
      </trkpt>
      <trkpt lat="47.20629" lon="5.87593">
        <ele>269</ele>
        <time>2024-08-05T07:31:03Z</time>
      </trkpt>
      <trkpt lat="47.2063" lon="5.87591">
        <ele>269.4</ele>
        <time>2024-08-05T07:31:04Z</time>
      </trkpt>
      <trkpt lat="47.2063" lon="5.87589">
        <ele>269.6</ele>
        <time>2024-08-05T07:31:05Z</time>
      </trkpt>
      <trkpt lat="47.20631" lon="5.87587">
        <ele>269.6</ele>
        <time>2024-08-05T07:31:06Z</time>
      </trkpt>
      <trkpt lat="47.20632" lon="5.87584">
        <ele>269.8</ele>
        <time>2024-08-05T07:31:07Z</time>
      </trkpt>
      <trkpt lat="47.20633" lon="5.87582">
        <ele>270.2</ele>
        <time>2024-08-05T07:31:08Z</time>
      </trkpt>
      <trkpt lat="47.20634" lon="5.8758">
        <ele>270.2</ele>
        <time>2024-08-05T07:31:09Z</time>
      </trkpt>
      <trkpt lat="47.20635" lon="5.87577">
        <ele>270.4</ele>
        <time>2024-08-05T07:31:10Z</time>
      </trkpt>
      <trkpt lat="47.20636" lon="5.87574">
        <ele>270.4</ele>
        <time>2024-08-05T07:31:11Z</time>
      </trkpt>
      <trkpt lat="47.20637" lon="5.87572">
        <ele>270.8</ele>
        <time>2024-08-05T07:31:12Z</time>
      </trkpt>
      <trkpt lat="47.20638" lon="5.87569">
        <ele>270.8</ele>
        <time>2024-08-05T07:31:13Z</time>
      </trkpt>
      <trkpt lat="47.20638" lon="5.87567">
        <ele>270.8</ele>
        <time>2024-08-05T07:31:14Z</time>
      </trkpt>
      <trkpt lat="47.20638" lon="5.87563">
        <ele>271</ele>
        <time>2024-08-05T07:31:15Z</time>
      </trkpt>
      <trkpt lat="47.20638" lon="5.8756">
        <ele>271</ele>
        <time>2024-08-05T07:31:16Z</time>
      </trkpt>
      <trkpt lat="47.20638" lon="5.87556">
        <ele>271</ele>
        <time>2024-08-05T07:31:17Z</time>
      </trkpt>
      <trkpt lat="47.20638" lon="5.87552">
        <ele>271</ele>
        <time>2024-08-05T07:31:18Z</time>
      </trkpt>
      <trkpt lat="47.20638" lon="5.87548">
        <ele>271</ele>
        <time>2024-08-05T07:31:19Z</time>
      </trkpt>
      <trkpt lat="47.20639" lon="5.87543">
        <ele>270.8</ele>
        <time>2024-08-05T07:31:20Z</time>
      </trkpt>
      <trkpt lat="47.20639" lon="5.87538">
        <ele>271</ele>
        <time>2024-08-05T07:31:21Z</time>
      </trkpt>
      <trkpt lat="47.20641" lon="5.87531">
        <ele>270.8</ele>
        <time>2024-08-05T07:31:22Z</time>
      </trkpt>
      <trkpt lat="47.20642" lon="5.87523">
        <ele>270.8</ele>
        <time>2024-08-05T07:31:23Z</time>
      </trkpt>
      <trkpt lat="47.20643" lon="5.87515">
        <ele>270.8</ele>
        <time>2024-08-05T07:31:24Z</time>
      </trkpt>
      <trkpt lat="47.20643" lon="5.87506">
        <ele>270.6</ele>
        <time>2024-08-05T07:31:25Z</time>
      </trkpt>
      <trkpt lat="47.20642" lon="5.87497">
        <ele>270.4</ele>
        <time>2024-08-05T07:31:26Z</time>
      </trkpt>
      <trkpt lat="47.20641" lon="5.87487">
        <ele>270.4</ele>
        <time>2024-08-05T07:31:27Z</time>
      </trkpt>
      <trkpt lat="47.20639" lon="5.87477">
        <ele>270.4</ele>
        <time>2024-08-05T07:31:28Z</time>
      </trkpt>
      <trkpt lat="47.20638" lon="5.87468">
        <ele>270</ele>
        <time>2024-08-05T07:31:29Z</time>
      </trkpt>
      <trkpt lat="47.20635" lon="5.87458">
        <ele>270</ele>
        <time>2024-08-05T07:31:30Z</time>
      </trkpt>
      <trkpt lat="47.20632" lon="5.87448">
        <ele>269.8</ele>
        <time>2024-08-05T07:31:31Z</time>
      </trkpt>
      <trkpt lat="47.2063" lon="5.87438">
        <ele>269.6</ele>
        <time>2024-08-05T07:31:32Z</time>
      </trkpt>
      <trkpt lat="47.20628" lon="5.87429">
        <ele>269.6</ele>
        <time>2024-08-05T07:31:33Z</time>
      </trkpt>
      <trkpt lat="47.20626" lon="5.87421">
        <ele>269.2</ele>
        <time>2024-08-05T07:31:34Z</time>
      </trkpt>
      <trkpt lat="47.20625" lon="5.87414">
        <ele>268.8</ele>
        <time>2024-08-05T07:31:35Z</time>
      </trkpt>
      <trkpt lat="47.20624" lon="5.87407">
        <ele>268.6</ele>
        <time>2024-08-05T07:31:36Z</time>
      </trkpt>
      <trkpt lat="47.20623" lon="5.87401">
        <ele>268.4</ele>
        <time>2024-08-05T07:31:37Z</time>
      </trkpt>
      <trkpt lat="47.20622" lon="5.87395">
        <ele>268</ele>
        <time>2024-08-05T07:31:38Z</time>
      </trkpt>
      <trkpt lat="47.2062" lon="5.8739">
        <ele>267.4</ele>
        <time>2024-08-05T07:31:39Z</time>
      </trkpt>
      <trkpt lat="47.20619" lon="5.87386">
        <ele>267.2</ele>
        <time>2024-08-05T07:31:40Z</time>
      </trkpt>
      <trkpt lat="47.20617" lon="5.87382">
        <ele>267.2</ele>
        <time>2024-08-05T07:31:41Z</time>
      </trkpt>
      <trkpt lat="47.20615" lon="5.87378">
        <ele>267</ele>
        <time>2024-08-05T07:31:42Z</time>
      </trkpt>
      <trkpt lat="47.20613" lon="5.87375">
        <ele>267</ele>
        <time>2024-08-05T07:31:43Z</time>
      </trkpt>
      <trkpt lat="47.20612" lon="5.87372">
        <ele>267.2</ele>
        <time>2024-08-05T07:31:44Z</time>
      </trkpt>
      <trkpt lat="47.2061" lon="5.87369">
        <ele>267.2</ele>
        <time>2024-08-05T07:31:45Z</time>
      </trkpt>
      <trkpt lat="47.20608" lon="5.87366">
        <ele>267</ele>
        <time>2024-08-05T07:31:46Z</time>
      </trkpt>
      <trkpt lat="47.20606" lon="5.87364">
        <ele>267</ele>
        <time>2024-08-05T07:31:47Z</time>
      </trkpt>
      <trkpt lat="47.20604" lon="5.87361">
        <ele>267</ele>
        <time>2024-08-05T07:31:48Z</time>
      </trkpt>
      <trkpt lat="47.20602" lon="5.87359">
        <ele>267</ele>
        <time>2024-08-05T07:31:49Z</time>
      </trkpt>
      <trkpt lat="47.206" lon="5.87357">
        <ele>267</ele>
        <time>2024-08-05T07:31:50Z</time>
      </trkpt>
      <trkpt lat="47.20598" lon="5.87355">
        <ele>267.2</ele>
        <time>2024-08-05T07:31:51Z</time>
      </trkpt>
      <trkpt lat="47.20596" lon="5.87354">
        <ele>267.6</ele>
        <time>2024-08-05T07:31:52Z</time>
      </trkpt>
      <trkpt lat="47.20593" lon="5.87353">
        <ele>267.6</ele>
        <time>2024-08-05T07:31:53Z</time>
      </trkpt>
      <trkpt lat="47.20591" lon="5.87352">
        <ele>267.8</ele>
        <time>2024-08-05T07:31:54Z</time>
      </trkpt>
      <trkpt lat="47.20588" lon="5.87352">
        <ele>267.8</ele>
        <time>2024-08-05T07:31:55Z</time>
      </trkpt>
      <trkpt lat="47.20585" lon="5.87351">
        <ele>267.8</ele>
        <time>2024-08-05T07:31:56Z</time>
      </trkpt>
      <trkpt lat="47.20582" lon="5.87349">
        <ele>267.8</ele>
        <time>2024-08-05T07:31:57Z</time>
      </trkpt>
      <trkpt lat="47.20579" lon="5.87347">
        <ele>267.8</ele>
        <time>2024-08-05T07:31:58Z</time>
      </trkpt>
      <trkpt lat="47.20576" lon="5.87345">
        <ele>267.8</ele>
        <time>2024-08-05T07:31:59Z</time>
      </trkpt>
      <trkpt lat="47.20574" lon="5.87343">
        <ele>267.8</ele>
        <time>2024-08-05T07:32:00Z</time>
      </trkpt>
      <trkpt lat="47.20572" lon="5.87341">
        <ele>267.6</ele>
        <time>2024-08-05T07:32:01Z</time>
      </trkpt>
      <trkpt lat="47.20569" lon="5.87339">
        <ele>267.6</ele>
        <time>2024-08-05T07:32:02Z</time>
      </trkpt>
      <trkpt lat="47.20566" lon="5.87337">
        <ele>267.8</ele>
        <time>2024-08-05T07:32:03Z</time>
      </trkpt>
      <trkpt lat="47.20564" lon="5.87335">
        <ele>267.6</ele>
        <time>2024-08-05T07:32:04Z</time>
      </trkpt>
      <trkpt lat="47.20561" lon="5.87332">
        <ele>267.6</ele>
        <time>2024-08-05T07:32:05Z</time>
      </trkpt>
      <trkpt lat="47.20558" lon="5.87328">
        <ele>267.6</ele>
        <time>2024-08-05T07:32:06Z</time>
      </trkpt>
      <trkpt lat="47.20555" lon="5.87324">
        <ele>267.4</ele>
        <time>2024-08-05T07:32:07Z</time>
      </trkpt>
      <trkpt lat="47.20551" lon="5.87319">
        <ele>267.4</ele>
        <time>2024-08-05T07:32:08Z</time>
      </trkpt>
      <trkpt lat="47.20547" lon="5.87315">
        <ele>267</ele>
        <time>2024-08-05T07:32:09Z</time>
      </trkpt>
      <trkpt lat="47.20544" lon="5.8731">
        <ele>267</ele>
        <time>2024-08-05T07:32:10Z</time>
      </trkpt>
      <trkpt lat="47.20538" lon="5.87305">
        <ele>266.6</ele>
        <time>2024-08-05T07:32:11Z</time>
      </trkpt>
      <trkpt lat="47.20532" lon="5.87301">
        <ele>266.6</ele>
        <time>2024-08-05T07:32:12Z</time>
      </trkpt>
      <trkpt lat="47.20528" lon="5.87296">
        <ele>266</ele>
        <time>2024-08-05T07:32:13Z</time>
      </trkpt>
      <trkpt lat="47.20522" lon="5.87291">
        <ele>265.8</ele>
        <time>2024-08-05T07:32:14Z</time>
      </trkpt>
      <trkpt lat="47.20517" lon="5.87286">
        <ele>265.6</ele>
        <time>2024-08-05T07:32:15Z</time>
      </trkpt>
      <trkpt lat="47.20512" lon="5.87282">
        <ele>265.2</ele>
        <time>2024-08-05T07:32:16Z</time>
      </trkpt>
      <trkpt lat="47.20506" lon="5.87276">
        <ele>265</ele>
        <time>2024-08-05T07:32:17Z</time>
      </trkpt>
      <trkpt lat="47.205" lon="5.8727">
        <ele>264.8</ele>
        <time>2024-08-05T07:32:18Z</time>
      </trkpt>
      <trkpt lat="47.20494" lon="5.87264">
        <ele>264.6</ele>
        <time>2024-08-05T07:32:19Z</time>
      </trkpt>
      <trkpt lat="47.20489" lon="5.87259">
        <ele>264.2</ele>
        <time>2024-08-05T07:32:20Z</time>
      </trkpt>
      <trkpt lat="47.20484" lon="5.87254">
        <ele>264</ele>
        <time>2024-08-05T07:32:21Z</time>
      </trkpt>
      <trkpt lat="47.20481" lon="5.8725">
        <ele>263.8</ele>
        <time>2024-08-05T07:32:22Z</time>
      </trkpt>
      <trkpt lat="47.20477" lon="5.87246">
        <ele>263.2</ele>
        <time>2024-08-05T07:32:23Z</time>
      </trkpt>
      <trkpt lat="47.20472" lon="5.87242">
        <ele>262.8</ele>
        <time>2024-08-05T07:32:24Z</time>
      </trkpt>
      <trkpt lat="47.20469" lon="5.8724">
        <ele>262.4</ele>
        <time>2024-08-05T07:32:25Z</time>
      </trkpt>
      <trkpt lat="47.20465" lon="5.87238">
        <ele>262</ele>
        <time>2024-08-05T07:32:26Z</time>
      </trkpt>
      <trkpt lat="47.20462" lon="5.87237">
        <ele>261.6</ele>
        <time>2024-08-05T07:32:27Z</time>
      </trkpt>
      <trkpt lat="47.20459" lon="5.87236">
        <ele>261.4</ele>
        <time>2024-08-05T07:32:28Z</time>
      </trkpt>
      <trkpt lat="47.20457" lon="5.87235">
        <ele>261.2</ele>
        <time>2024-08-05T07:32:29Z</time>
      </trkpt>
      <trkpt lat="47.20455" lon="5.87235">
        <ele>260.8</ele>
        <time>2024-08-05T07:32:30Z</time>
      </trkpt>
      <trkpt lat="47.20453" lon="5.87236">
        <ele>260.4</ele>
        <time>2024-08-05T07:32:31Z</time>
      </trkpt>
      <trkpt lat="47.2045" lon="5.87238">
        <ele>259.8</ele>
        <time>2024-08-05T07:32:32Z</time>
      </trkpt>
      <trkpt lat="47.20448" lon="5.8724">
        <ele>259.4</ele>
        <time>2024-08-05T07:32:33Z</time>
      </trkpt>
      <trkpt lat="47.20445" lon="5.87243">
        <ele>259.4</ele>
        <time>2024-08-05T07:32:34Z</time>
      </trkpt>
      <trkpt lat="47.20443" lon="5.87246">
        <ele>259.4</ele>
        <time>2024-08-05T07:32:35Z</time>
      </trkpt>
      <trkpt lat="47.2044" lon="5.87249">
        <ele>259.2</ele>
        <time>2024-08-05T07:32:36Z</time>
      </trkpt>
      <trkpt lat="47.20437" lon="5.87252">
        <ele>259.2</ele>
        <time>2024-08-05T07:32:37Z</time>
      </trkpt>
      <trkpt lat="47.20434" lon="5.87256">
        <ele>259.2</ele>
        <time>2024-08-05T07:32:38Z</time>
      </trkpt>
      <trkpt lat="47.20431" lon="5.87259">
        <ele>259</ele>
        <time>2024-08-05T07:32:39Z</time>
      </trkpt>
      <trkpt lat="47.20428" lon="5.87263">
        <ele>259</ele>
        <time>2024-08-05T07:32:40Z</time>
      </trkpt>
      <trkpt lat="47.20425" lon="5.87267">
        <ele>259</ele>
        <time>2024-08-05T07:32:41Z</time>
      </trkpt>
      <trkpt lat="47.20423" lon="5.87271">
        <ele>259</ele>
        <time>2024-08-05T07:32:42Z</time>
      </trkpt>
      <trkpt lat="47.20419" lon="5.87274">
        <ele>259</ele>
        <time>2024-08-05T07:32:43Z</time>
      </trkpt>
      <trkpt lat="47.20416" lon="5.87278">
        <ele>259</ele>
        <time>2024-08-05T07:32:44Z</time>
      </trkpt>
      <trkpt lat="47.20413" lon="5.87281">
        <ele>259</ele>
        <time>2024-08-05T07:32:45Z</time>
      </trkpt>
      <trkpt lat="47.20409" lon="5.87284">
        <ele>259.2</ele>
        <time>2024-08-05T07:32:46Z</time>
      </trkpt>
      <trkpt lat="47.20405" lon="5.87287">
        <ele>259.4</ele>
        <time>2024-08-05T07:32:47Z</time>
      </trkpt>
      <trkpt lat="47.20402" lon="5.8729">
        <ele>259.2</ele>
        <time>2024-08-05T07:32:48Z</time>
      </trkpt>
      <trkpt lat="47.20398" lon="5.87293">
        <ele>259.4</ele>
        <time>2024-08-05T07:32:49Z</time>
      </trkpt>
      <trkpt lat="47.20394" lon="5.87296">
        <ele>259.6</ele>
        <time>2024-08-05T07:32:50Z</time>
      </trkpt>
      <trkpt lat="47.20391" lon="5.87299">
        <ele>259.6</ele>
        <time>2024-08-05T07:32:51Z</time>
      </trkpt>
      <trkpt lat="47.20387" lon="5.87302">
        <ele>259.6</ele>
        <time>2024-08-05T07:32:52Z</time>
      </trkpt>
      <trkpt lat="47.20384" lon="5.87305">
        <ele>259.6</ele>
        <time>2024-08-05T07:32:53Z</time>
      </trkpt>
      <trkpt lat="47.2038" lon="5.87309">
        <ele>259.8</ele>
        <time>2024-08-05T07:32:54Z</time>
      </trkpt>
      <trkpt lat="47.20377" lon="5.87313">
        <ele>259.8</ele>
        <time>2024-08-05T07:32:55Z</time>
      </trkpt>
      <trkpt lat="47.20373" lon="5.87317">
        <ele>259.8</ele>
        <time>2024-08-05T07:32:56Z</time>
      </trkpt>
      <trkpt lat="47.2037" lon="5.87322">
        <ele>260</ele>
        <time>2024-08-05T07:32:57Z</time>
      </trkpt>
      <trkpt lat="47.20367" lon="5.87326">
        <ele>259.8</ele>
        <time>2024-08-05T07:32:58Z</time>
      </trkpt>
      <trkpt lat="47.20362" lon="5.87328">
        <ele>260</ele>
        <time>2024-08-05T07:32:59Z</time>
      </trkpt>
      <trkpt lat="47.20359" lon="5.87331">
        <ele>260</ele>
        <time>2024-08-05T07:33:00Z</time>
      </trkpt>
      <trkpt lat="47.20355" lon="5.87334">
        <ele>260</ele>
        <time>2024-08-05T07:33:01Z</time>
      </trkpt>
      <trkpt lat="47.20352" lon="5.87337">
        <ele>260.2</ele>
        <time>2024-08-05T07:33:02Z</time>
      </trkpt>
      <trkpt lat="47.20349" lon="5.8734">
        <ele>260.6</ele>
        <time>2024-08-05T07:33:03Z</time>
      </trkpt>
      <trkpt lat="47.20345" lon="5.87342">
        <ele>260.6</ele>
        <time>2024-08-05T07:33:04Z</time>
      </trkpt>
      <trkpt lat="47.20341" lon="5.87344">
        <ele>260.8</ele>
        <time>2024-08-05T07:33:05Z</time>
      </trkpt>
      <trkpt lat="47.20337" lon="5.87347">
        <ele>260.8</ele>
        <time>2024-08-05T07:33:06Z</time>
      </trkpt>
      <trkpt lat="47.20333" lon="5.8735">
        <ele>261</ele>
        <time>2024-08-05T07:33:07Z</time>
      </trkpt>
      <trkpt lat="47.20329" lon="5.87352">
        <ele>261</ele>
        <time>2024-08-05T07:33:08Z</time>
      </trkpt>
      <trkpt lat="47.20326" lon="5.87354">
        <ele>261.2</ele>
        <time>2024-08-05T07:33:09Z</time>
      </trkpt>
      <trkpt lat="47.20323" lon="5.87357">
        <ele>261.4</ele>
        <time>2024-08-05T07:33:10Z</time>
      </trkpt>
      <trkpt lat="47.2032" lon="5.8736">
        <ele>261.6</ele>
        <time>2024-08-05T07:33:11Z</time>
      </trkpt>
      <trkpt lat="47.20317" lon="5.87364">
        <ele>261.6</ele>
        <time>2024-08-05T07:33:12Z</time>
      </trkpt>
      <trkpt lat="47.20314" lon="5.87367">
        <ele>261.8</ele>
        <time>2024-08-05T07:33:13Z</time>
      </trkpt>
      <trkpt lat="47.20311" lon="5.8737">
        <ele>261.8</ele>
        <time>2024-08-05T07:33:14Z</time>
      </trkpt>
      <trkpt lat="47.20308" lon="5.87374">
        <ele>262</ele>
        <time>2024-08-05T07:33:15Z</time>
      </trkpt>
      <trkpt lat="47.20305" lon="5.87377">
        <ele>262</ele>
        <time>2024-08-05T07:33:16Z</time>
      </trkpt>
      <trkpt lat="47.20303" lon="5.8738">
        <ele>262.4</ele>
        <time>2024-08-05T07:33:17Z</time>
      </trkpt>
      <trkpt lat="47.20299" lon="5.87383">
        <ele>262.4</ele>
        <time>2024-08-05T07:33:18Z</time>
      </trkpt>
      <trkpt lat="47.20296" lon="5.87387">
        <ele>262.4</ele>
        <time>2024-08-05T07:33:19Z</time>
      </trkpt>
      <trkpt lat="47.20292" lon="5.87389">
        <ele>262.6</ele>
        <time>2024-08-05T07:33:20Z</time>
      </trkpt>
      <trkpt lat="47.20288" lon="5.87391">
        <ele>262.6</ele>
        <time>2024-08-05T07:33:21Z</time>
      </trkpt>
      <trkpt lat="47.20285" lon="5.87393">
        <ele>262.8</ele>
        <time>2024-08-05T07:33:22Z</time>
      </trkpt>
      <trkpt lat="47.2028" lon="5.87394">
        <ele>263</ele>
        <time>2024-08-05T07:33:23Z</time>
      </trkpt>
      <trkpt lat="47.20276" lon="5.87396">
        <ele>263</ele>
        <time>2024-08-05T07:33:24Z</time>
      </trkpt>
      <trkpt lat="47.20271" lon="5.87397">
        <ele>263.2</ele>
        <time>2024-08-05T07:33:25Z</time>
      </trkpt>
      <trkpt lat="47.20267" lon="5.87399">
        <ele>263.2</ele>
        <time>2024-08-05T07:33:26Z</time>
      </trkpt>
      <trkpt lat="47.20262" lon="5.87399">
        <ele>263.2</ele>
        <time>2024-08-05T07:33:27Z</time>
      </trkpt>
      <trkpt lat="47.20258" lon="5.87401">
        <ele>263.6</ele>
        <time>2024-08-05T07:33:28Z</time>
      </trkpt>
      <trkpt lat="47.20254" lon="5.87402">
        <ele>263.6</ele>
        <time>2024-08-05T07:33:29Z</time>
      </trkpt>
      <trkpt lat="47.2025" lon="5.87403">
        <ele>263.6</ele>
        <time>2024-08-05T07:33:30Z</time>
      </trkpt>
      <trkpt lat="47.20246" lon="5.87403">
        <ele>263.8</ele>
        <time>2024-08-05T07:33:31Z</time>
      </trkpt>
      <trkpt lat="47.20242" lon="5.87403">
        <ele>264</ele>
        <time>2024-08-05T07:33:32Z</time>
      </trkpt>
      <trkpt lat="47.20238" lon="5.87402">
        <ele>264.2</ele>
        <time>2024-08-05T07:33:33Z</time>
      </trkpt>
      <trkpt lat="47.20235" lon="5.87402">
        <ele>264.4</ele>
        <time>2024-08-05T07:33:34Z</time>
      </trkpt>
      <trkpt lat="47.20231" lon="5.87402">
        <ele>264.6</ele>
        <time>2024-08-05T07:33:35Z</time>
      </trkpt>
      <trkpt lat="47.20228" lon="5.87402">
        <ele>265</ele>
        <time>2024-08-05T07:33:36Z</time>
      </trkpt>
      <trkpt lat="47.20224" lon="5.87402">
        <ele>265</ele>
        <time>2024-08-05T07:33:37Z</time>
      </trkpt>
      <trkpt lat="47.2022" lon="5.87401">
        <ele>265.2</ele>
        <time>2024-08-05T07:33:38Z</time>
      </trkpt>
      <trkpt lat="47.20217" lon="5.874">
        <ele>265.2</ele>
        <time>2024-08-05T07:33:39Z</time>
      </trkpt>
      <trkpt lat="47.20213" lon="5.874">
        <ele>265.4</ele>
        <time>2024-08-05T07:33:40Z</time>
      </trkpt>
      <trkpt lat="47.20209" lon="5.874">
        <ele>265.6</ele>
        <time>2024-08-05T07:33:41Z</time>
      </trkpt>
      <trkpt lat="47.20205" lon="5.87399">
        <ele>265.6</ele>
        <time>2024-08-05T07:33:42Z</time>
      </trkpt>
      <trkpt lat="47.20201" lon="5.87399">
        <ele>265.8</ele>
        <time>2024-08-05T07:33:43Z</time>
      </trkpt>
      <trkpt lat="47.20197" lon="5.87398">
        <ele>265.8</ele>
        <time>2024-08-05T07:33:44Z</time>
      </trkpt>
      <trkpt lat="47.20194" lon="5.87397">
        <ele>266</ele>
        <time>2024-08-05T07:33:45Z</time>
      </trkpt>
      <trkpt lat="47.2019" lon="5.87396">
        <ele>266.2</ele>
        <time>2024-08-05T07:33:46Z</time>
      </trkpt>
      <trkpt lat="47.20186" lon="5.87395">
        <ele>266.2</ele>
        <time>2024-08-05T07:33:47Z</time>
      </trkpt>
      <trkpt lat="47.20183" lon="5.87393">
        <ele>266.2</ele>
        <time>2024-08-05T07:33:48Z</time>
      </trkpt>
      <trkpt lat="47.20179" lon="5.87392">
        <ele>266.4</ele>
        <time>2024-08-05T07:33:49Z</time>
      </trkpt>
      <trkpt lat="47.20176" lon="5.8739">
        <ele>266.6</ele>
        <time>2024-08-05T07:33:50Z</time>
      </trkpt>
      <trkpt lat="47.20173" lon="5.87389">
        <ele>266.6</ele>
        <time>2024-08-05T07:33:51Z</time>
      </trkpt>
      <trkpt lat="47.20169" lon="5.87388">
        <ele>266.8</ele>
        <time>2024-08-05T07:33:52Z</time>
      </trkpt>
      <trkpt lat="47.20166" lon="5.87387">
        <ele>266.8</ele>
        <time>2024-08-05T07:33:53Z</time>
      </trkpt>
      <trkpt lat="47.20163" lon="5.87386">
        <ele>267.2</ele>
        <time>2024-08-05T07:33:54Z</time>
      </trkpt>
      <trkpt lat="47.20159" lon="5.87385">
        <ele>267.2</ele>
        <time>2024-08-05T07:33:55Z</time>
      </trkpt>
      <trkpt lat="47.20156" lon="5.87385">
        <ele>267.2</ele>
        <time>2024-08-05T07:33:56Z</time>
      </trkpt>
      <trkpt lat="47.20152" lon="5.87385">
        <ele>267.8</ele>
        <time>2024-08-05T07:33:57Z</time>
      </trkpt>
      <trkpt lat="47.20148" lon="5.87386">
        <ele>267.8</ele>
        <time>2024-08-05T07:33:58Z</time>
      </trkpt>
      <trkpt lat="47.20144" lon="5.87387">
        <ele>268</ele>
        <time>2024-08-05T07:33:59Z</time>
      </trkpt>
      <trkpt lat="47.2014" lon="5.87388">
        <ele>268</ele>
        <time>2024-08-05T07:34:00Z</time>
      </trkpt>
      <trkpt lat="47.20136" lon="5.87389">
        <ele>268</ele>
        <time>2024-08-05T07:34:01Z</time>
      </trkpt>
      <trkpt lat="47.20132" lon="5.8739">
        <ele>268.2</ele>
        <time>2024-08-05T07:34:02Z</time>
      </trkpt>
      <trkpt lat="47.20128" lon="5.87391">
        <ele>268.4</ele>
        <time>2024-08-05T07:34:03Z</time>
      </trkpt>
      <trkpt lat="47.20123" lon="5.87393">
        <ele>268.6</ele>
        <time>2024-08-05T07:34:04Z</time>
      </trkpt>
      <trkpt lat="47.20119" lon="5.87395">
        <ele>268.8</ele>
        <time>2024-08-05T07:34:05Z</time>
      </trkpt>
      <trkpt lat="47.20115" lon="5.87397">
        <ele>268.6</ele>
        <time>2024-08-05T07:34:06Z</time>
      </trkpt>
      <trkpt lat="47.2011" lon="5.87399">
        <ele>268.6</ele>
        <time>2024-08-05T07:34:07Z</time>
      </trkpt>
      <trkpt lat="47.20105" lon="5.87401">
        <ele>268.6</ele>
        <time>2024-08-05T07:34:08Z</time>
      </trkpt>
      <trkpt lat="47.201" lon="5.87403">
        <ele>268.8</ele>
        <time>2024-08-05T07:34:09Z</time>
      </trkpt>
      <trkpt lat="47.20095" lon="5.87406">
        <ele>268.6</ele>
        <time>2024-08-05T07:34:10Z</time>
      </trkpt>
      <trkpt lat="47.20091" lon="5.87409">
        <ele>268.8</ele>
        <time>2024-08-05T07:34:11Z</time>
      </trkpt>
      <trkpt lat="47.20086" lon="5.87412">
        <ele>268.8</ele>
        <time>2024-08-05T07:34:12Z</time>
      </trkpt>
      <trkpt lat="47.2008" lon="5.87415">
        <ele>268.8</ele>
        <time>2024-08-05T07:34:13Z</time>
      </trkpt>
      <trkpt lat="47.20075" lon="5.87418">
        <ele>268.6</ele>
        <time>2024-08-05T07:34:14Z</time>
      </trkpt>
      <trkpt lat="47.20059" lon="5.87429">
        <ele>268</ele>
        <time>2024-08-05T07:34:17Z</time>
      </trkpt>
      <trkpt lat="47.20055" lon="5.87432">
        <ele>268</ele>
        <time>2024-08-05T07:34:18Z</time>
      </trkpt>
      <trkpt lat="47.20052" lon="5.87435">
        <ele>267.8</ele>
        <time>2024-08-05T07:34:19Z</time>
      </trkpt>
      <trkpt lat="47.20048" lon="5.87438">
        <ele>267.6</ele>
        <time>2024-08-05T07:34:20Z</time>
      </trkpt>
      <trkpt lat="47.20044" lon="5.87441">
        <ele>267.6</ele>
        <time>2024-08-05T07:34:21Z</time>
      </trkpt>
      <trkpt lat="47.2004" lon="5.87444">
        <ele>267.4</ele>
        <time>2024-08-05T07:34:22Z</time>
      </trkpt>
      <trkpt lat="47.20037" lon="5.87447">
        <ele>267.4</ele>
        <time>2024-08-05T07:34:23Z</time>
      </trkpt>
      <trkpt lat="47.20033" lon="5.8745">
        <ele>267.2</ele>
        <time>2024-08-05T07:34:24Z</time>
      </trkpt>
      <trkpt lat="47.20029" lon="5.87452">
        <ele>267.2</ele>
        <time>2024-08-05T07:34:25Z</time>
      </trkpt>
      <trkpt lat="47.20026" lon="5.87454">
        <ele>267.4</ele>
        <time>2024-08-05T07:34:26Z</time>
      </trkpt>
      <trkpt lat="47.20023" lon="5.87456">
        <ele>267.2</ele>
        <time>2024-08-05T07:34:27Z</time>
      </trkpt>
      <trkpt lat="47.20019" lon="5.87458">
        <ele>267.2</ele>
        <time>2024-08-05T07:34:28Z</time>
      </trkpt>
      <trkpt lat="47.20015" lon="5.8746">
        <ele>267.2</ele>
        <time>2024-08-05T07:34:29Z</time>
      </trkpt>
      <trkpt lat="47.20012" lon="5.87461">
        <ele>267.4</ele>
        <time>2024-08-05T07:34:30Z</time>
      </trkpt>
      <trkpt lat="47.20008" lon="5.87463">
        <ele>267.2</ele>
        <time>2024-08-05T07:34:31Z</time>
      </trkpt>
      <trkpt lat="47.20005" lon="5.87465">
        <ele>267.2</ele>
        <time>2024-08-05T07:34:32Z</time>
      </trkpt>
      <trkpt lat="47.2" lon="5.87467">
        <ele>267.4</ele>
        <time>2024-08-05T07:34:33Z</time>
      </trkpt>
      <trkpt lat="47.19997" lon="5.87469">
        <ele>267.6</ele>
        <time>2024-08-05T07:34:34Z</time>
      </trkpt>
      <trkpt lat="47.19992" lon="5.87469">
        <ele>267.8</ele>
        <time>2024-08-05T07:34:35Z</time>
      </trkpt>
      <trkpt lat="47.19988" lon="5.87471">
        <ele>267.8</ele>
        <time>2024-08-05T07:34:36Z</time>
      </trkpt>
      <trkpt lat="47.19985" lon="5.87473">
        <ele>268</ele>
        <time>2024-08-05T07:34:37Z</time>
      </trkpt>
      <trkpt lat="47.19981" lon="5.87475">
        <ele>268.4</ele>
        <time>2024-08-05T07:34:38Z</time>
      </trkpt>
      <trkpt lat="47.19977" lon="5.87476">
        <ele>268.6</ele>
        <time>2024-08-05T07:34:39Z</time>
      </trkpt>
      <trkpt lat="47.19974" lon="5.87478">
        <ele>268.6</ele>
        <time>2024-08-05T07:34:40Z</time>
      </trkpt>
      <trkpt lat="47.1997" lon="5.87481">
        <ele>269</ele>
        <time>2024-08-05T07:34:41Z</time>
      </trkpt>
      <trkpt lat="47.19966" lon="5.87483">
        <ele>269.2</ele>
        <time>2024-08-05T07:34:42Z</time>
      </trkpt>
      <trkpt lat="47.19962" lon="5.87487">
        <ele>269.4</ele>
        <time>2024-08-05T07:34:43Z</time>
      </trkpt>
      <trkpt lat="47.19958" lon="5.87491">
        <ele>269.6</ele>
        <time>2024-08-05T07:34:44Z</time>
      </trkpt>
      <trkpt lat="47.19954" lon="5.87494">
        <ele>269.6</ele>
        <time>2024-08-05T07:34:45Z</time>
      </trkpt>
      <trkpt lat="47.1995" lon="5.87496">
        <ele>269.8</ele>
        <time>2024-08-05T07:34:46Z</time>
      </trkpt>
      <trkpt lat="47.19946" lon="5.87499">
        <ele>270</ele>
        <time>2024-08-05T07:34:47Z</time>
      </trkpt>
      <trkpt lat="47.19942" lon="5.87502">
        <ele>270.2</ele>
        <time>2024-08-05T07:34:48Z</time>
      </trkpt>
      <trkpt lat="47.19938" lon="5.87504">
        <ele>270.4</ele>
        <time>2024-08-05T07:34:49Z</time>
      </trkpt>
      <trkpt lat="47.19934" lon="5.87506">
        <ele>270.6</ele>
        <time>2024-08-05T07:34:50Z</time>
      </trkpt>
      <trkpt lat="47.19931" lon="5.87508">
        <ele>270.6</ele>
        <time>2024-08-05T07:34:51Z</time>
      </trkpt>
      <trkpt lat="47.19927" lon="5.8751">
        <ele>270.8</ele>
        <time>2024-08-05T07:34:52Z</time>
      </trkpt>
      <trkpt lat="47.19923" lon="5.87512">
        <ele>271.4</ele>
        <time>2024-08-05T07:34:53Z</time>
      </trkpt>
      <trkpt lat="47.1992" lon="5.87514">
        <ele>271.6</ele>
        <time>2024-08-05T07:34:54Z</time>
      </trkpt>
      <trkpt lat="47.19916" lon="5.87516">
        <ele>272</ele>
        <time>2024-08-05T07:34:55Z</time>
      </trkpt>
      <trkpt lat="47.19912" lon="5.87519">
        <ele>272</ele>
        <time>2024-08-05T07:34:56Z</time>
      </trkpt>
      <trkpt lat="47.1991" lon="5.87522">
        <ele>272.4</ele>
        <time>2024-08-05T07:34:57Z</time>
      </trkpt>
      <trkpt lat="47.19907" lon="5.87524">
        <ele>272.8</ele>
        <time>2024-08-05T07:34:58Z</time>
      </trkpt>
      <trkpt lat="47.19904" lon="5.87526">
        <ele>273</ele>
        <time>2024-08-05T07:34:59Z</time>
      </trkpt>
      <trkpt lat="47.199" lon="5.87528">
        <ele>273</ele>
        <time>2024-08-05T07:35:00Z</time>
      </trkpt>
      <trkpt lat="47.19897" lon="5.8753">
        <ele>273.2</ele>
        <time>2024-08-05T07:35:01Z</time>
      </trkpt>
      <trkpt lat="47.19893" lon="5.87532">
        <ele>273.6</ele>
        <time>2024-08-05T07:35:02Z</time>
      </trkpt>
      <trkpt lat="47.1989" lon="5.87535">
        <ele>273.6</ele>
        <time>2024-08-05T07:35:03Z</time>
      </trkpt>
      <trkpt lat="47.19886" lon="5.87538">
        <ele>273.8</ele>
        <time>2024-08-05T07:35:04Z</time>
      </trkpt>
      <trkpt lat="47.19883" lon="5.8754">
        <ele>274</ele>
        <time>2024-08-05T07:35:05Z</time>
      </trkpt>
      <trkpt lat="47.19879" lon="5.87542">
        <ele>274</ele>
        <time>2024-08-05T07:35:06Z</time>
      </trkpt>
      <trkpt lat="47.19875" lon="5.87544">
        <ele>274.2</ele>
        <time>2024-08-05T07:35:07Z</time>
      </trkpt>
      <trkpt lat="47.19871" lon="5.87547">
        <ele>274.6</ele>
        <time>2024-08-05T07:35:08Z</time>
      </trkpt>
      <trkpt lat="47.19868" lon="5.87549">
        <ele>274.6</ele>
        <time>2024-08-05T07:35:09Z</time>
      </trkpt>
      <trkpt lat="47.19865" lon="5.87552">
        <ele>274.8</ele>
        <time>2024-08-05T07:35:10Z</time>
      </trkpt>
      <trkpt lat="47.19861" lon="5.87555">
        <ele>274.8</ele>
        <time>2024-08-05T07:35:11Z</time>
      </trkpt>
      <trkpt lat="47.19858" lon="5.87558">
        <ele>275</ele>
        <time>2024-08-05T07:35:12Z</time>
      </trkpt>
      <trkpt lat="47.19854" lon="5.8756">
        <ele>275.2</ele>
        <time>2024-08-05T07:35:13Z</time>
      </trkpt>
      <trkpt lat="47.19851" lon="5.87563">
        <ele>275.4</ele>
        <time>2024-08-05T07:35:14Z</time>
      </trkpt>
      <trkpt lat="47.19847" lon="5.87566">
        <ele>275.6</ele>
        <time>2024-08-05T07:35:15Z</time>
      </trkpt>
      <trkpt lat="47.19842" lon="5.87565">
        <ele>275.8</ele>
        <time>2024-08-05T07:35:16Z</time>
      </trkpt>
      <trkpt lat="47.19838" lon="5.87567">
        <ele>275.6</ele>
        <time>2024-08-05T07:35:17Z</time>
      </trkpt>
      <trkpt lat="47.19834" lon="5.87567">
        <ele>275.6</ele>
        <time>2024-08-05T07:35:18Z</time>
      </trkpt>
      <trkpt lat="47.1983" lon="5.87567">
        <ele>275.8</ele>
        <time>2024-08-05T07:35:19Z</time>
      </trkpt>
      <trkpt lat="47.19827" lon="5.87567">
        <ele>276</ele>
        <time>2024-08-05T07:35:20Z</time>
      </trkpt>
      <trkpt lat="47.19823" lon="5.87565">
        <ele>276</ele>
        <time>2024-08-05T07:35:21Z</time>
      </trkpt>
      <trkpt lat="47.19821" lon="5.87562">
        <ele>276</ele>
        <time>2024-08-05T07:35:22Z</time>
      </trkpt>
      <trkpt lat="47.19819" lon="5.87558">
        <ele>276.2</ele>
        <time>2024-08-05T07:35:23Z</time>
      </trkpt>
      <trkpt lat="47.19817" lon="5.87555">
        <ele>276</ele>
        <time>2024-08-05T07:35:24Z</time>
      </trkpt>
      <trkpt lat="47.19815" lon="5.87552">
        <ele>276.2</ele>
        <time>2024-08-05T07:35:25Z</time>
      </trkpt>
      <trkpt lat="47.19813" lon="5.87549">
        <ele>276.4</ele>
        <time>2024-08-05T07:35:26Z</time>
      </trkpt>
      <trkpt lat="47.19811" lon="5.87546">
        <ele>276.2</ele>
        <time>2024-08-05T07:35:27Z</time>
      </trkpt>
      <trkpt lat="47.19809" lon="5.87543">
        <ele>276.2</ele>
        <time>2024-08-05T07:35:28Z</time>
      </trkpt>
      <trkpt lat="47.19807" lon="5.8754">
        <ele>276.4</ele>
        <time>2024-08-05T07:35:29Z</time>
      </trkpt>
      <trkpt lat="47.19805" lon="5.87535">
        <ele>276.6</ele>
        <time>2024-08-05T07:35:30Z</time>
      </trkpt>
      <trkpt lat="47.19803" lon="5.87532">
        <ele>276.8</ele>
        <time>2024-08-05T07:35:31Z</time>
      </trkpt>
      <trkpt lat="47.19802" lon="5.87528">
        <ele>276.8</ele>
        <time>2024-08-05T07:35:32Z</time>
      </trkpt>
      <trkpt lat="47.19801" lon="5.87524">
        <ele>277</ele>
        <time>2024-08-05T07:35:33Z</time>
      </trkpt>
      <trkpt lat="47.198" lon="5.8752">
        <ele>277.4</ele>
        <time>2024-08-05T07:35:34Z</time>
      </trkpt>
      <trkpt lat="47.19798" lon="5.87517">
        <ele>277.6</ele>
        <time>2024-08-05T07:35:35Z</time>
      </trkpt>
      <trkpt lat="47.19796" lon="5.87513">
        <ele>277.8</ele>
        <time>2024-08-05T07:35:36Z</time>
      </trkpt>
      <trkpt lat="47.19795" lon="5.87508">
        <ele>278</ele>
        <time>2024-08-05T07:35:37Z</time>
      </trkpt>
      <trkpt lat="47.19792" lon="5.87505">
        <ele>278.4</ele>
        <time>2024-08-05T07:35:38Z</time>
      </trkpt>
      <trkpt lat="47.19789" lon="5.875">
        <ele>278.6</ele>
        <time>2024-08-05T07:35:39Z</time>
      </trkpt>
      <trkpt lat="47.19787" lon="5.87496">
        <ele>278.8</ele>
        <time>2024-08-05T07:35:40Z</time>
      </trkpt>
      <trkpt lat="47.19785" lon="5.87491">
        <ele>279</ele>
        <time>2024-08-05T07:35:41Z</time>
      </trkpt>
      <trkpt lat="47.19783" lon="5.87485">
        <ele>279.2</ele>
        <time>2024-08-05T07:35:42Z</time>
      </trkpt>
      <trkpt lat="47.19781" lon="5.87479">
        <ele>279.4</ele>
        <time>2024-08-05T07:35:43Z</time>
      </trkpt>
      <trkpt lat="47.19779" lon="5.87473">
        <ele>279.4</ele>
        <time>2024-08-05T07:35:44Z</time>
      </trkpt>
      <trkpt lat="47.19777" lon="5.87468">
        <ele>279.4</ele>
        <time>2024-08-05T07:35:45Z</time>
      </trkpt>
      <trkpt lat="47.19775" lon="5.87464">
        <ele>279.6</ele>
        <time>2024-08-05T07:35:46Z</time>
      </trkpt>
      <trkpt lat="47.19773" lon="5.87459">
        <ele>279.6</ele>
        <time>2024-08-05T07:35:47Z</time>
      </trkpt>
      <trkpt lat="47.19771" lon="5.87455">
        <ele>279.6</ele>
        <time>2024-08-05T07:35:48Z</time>
      </trkpt>
      <trkpt lat="47.19769" lon="5.8745">
        <ele>279.6</ele>
        <time>2024-08-05T07:35:49Z</time>
      </trkpt>
      <trkpt lat="47.19767" lon="5.87446">
        <ele>279.6</ele>
        <time>2024-08-05T07:35:50Z</time>
      </trkpt>
      <trkpt lat="47.19765" lon="5.87442">
        <ele>279.8</ele>
        <time>2024-08-05T07:35:51Z</time>
      </trkpt>
      <trkpt lat="47.19763" lon="5.87439">
        <ele>279.8</ele>
        <time>2024-08-05T07:35:52Z</time>
      </trkpt>
      <trkpt lat="47.19761" lon="5.87434">
        <ele>279.6</ele>
        <time>2024-08-05T07:35:53Z</time>
      </trkpt>
      <trkpt lat="47.19759" lon="5.87431">
        <ele>279.6</ele>
        <time>2024-08-05T07:35:54Z</time>
      </trkpt>
      <trkpt lat="47.19756" lon="5.87427">
        <ele>279.8</ele>
        <time>2024-08-05T07:35:55Z</time>
      </trkpt>
      <trkpt lat="47.19754" lon="5.87422">
        <ele>279.8</ele>
        <time>2024-08-05T07:35:56Z</time>
      </trkpt>
      <trkpt lat="47.19752" lon="5.87418">
        <ele>279.8</ele>
        <time>2024-08-05T07:35:57Z</time>
      </trkpt>
      <trkpt lat="47.19749" lon="5.87413">
        <ele>279.6</ele>
        <time>2024-08-05T07:35:58Z</time>
      </trkpt>
      <trkpt lat="47.19747" lon="5.87408">
        <ele>279.6</ele>
        <time>2024-08-05T07:35:59Z</time>
      </trkpt>
      <trkpt lat="47.19744" lon="5.87402">
        <ele>279.8</ele>
        <time>2024-08-05T07:36:00Z</time>
      </trkpt>
      <trkpt lat="47.19741" lon="5.87397">
        <ele>279.4</ele>
        <time>2024-08-05T07:36:01Z</time>
      </trkpt>
      <trkpt lat="47.19738" lon="5.87391">
        <ele>279.6</ele>
        <time>2024-08-05T07:36:02Z</time>
      </trkpt>
      <trkpt lat="47.19734" lon="5.87386">
        <ele>279.4</ele>
        <time>2024-08-05T07:36:03Z</time>
      </trkpt>
      <trkpt lat="47.19731" lon="5.8738">
        <ele>279.4</ele>
        <time>2024-08-05T07:36:04Z</time>
      </trkpt>
      <trkpt lat="47.19728" lon="5.87373">
        <ele>279.4</ele>
        <time>2024-08-05T07:36:05Z</time>
      </trkpt>
      <trkpt lat="47.19725" lon="5.87367">
        <ele>279.4</ele>
        <time>2024-08-05T07:36:06Z</time>
      </trkpt>
      <trkpt lat="47.19722" lon="5.87361">
        <ele>279.2</ele>
        <time>2024-08-05T07:36:07Z</time>
      </trkpt>
      <trkpt lat="47.19719" lon="5.87354">
        <ele>279.4</ele>
        <time>2024-08-05T07:36:08Z</time>
      </trkpt>
      <trkpt lat="47.19717" lon="5.87347">
        <ele>279.4</ele>
        <time>2024-08-05T07:36:09Z</time>
      </trkpt>
      <trkpt lat="47.19714" lon="5.87341">
        <ele>279.4</ele>
        <time>2024-08-05T07:36:10Z</time>
      </trkpt>
      <trkpt lat="47.19711" lon="5.87335">
        <ele>279.2</ele>
        <time>2024-08-05T07:36:11Z</time>
      </trkpt>
      <trkpt lat="47.19708" lon="5.8733">
        <ele>279.2</ele>
        <time>2024-08-05T07:36:12Z</time>
      </trkpt>
      <trkpt lat="47.19705" lon="5.87324">
        <ele>279.2</ele>
        <time>2024-08-05T07:36:13Z</time>
      </trkpt>
      <trkpt lat="47.19702" lon="5.87319">
        <ele>279.2</ele>
        <time>2024-08-05T07:36:14Z</time>
      </trkpt>
      <trkpt lat="47.19699" lon="5.87313">
        <ele>279.2</ele>
        <time>2024-08-05T07:36:15Z</time>
      </trkpt>
      <trkpt lat="47.19697" lon="5.87307">
        <ele>279.2</ele>
        <time>2024-08-05T07:36:16Z</time>
      </trkpt>
      <trkpt lat="47.19694" lon="5.87301">
        <ele>279.2</ele>
        <time>2024-08-05T07:36:17Z</time>
      </trkpt>
      <trkpt lat="47.19691" lon="5.87295">
        <ele>279.2</ele>
        <time>2024-08-05T07:36:18Z</time>
      </trkpt>
      <trkpt lat="47.19688" lon="5.87288">
        <ele>279.2</ele>
        <time>2024-08-05T07:36:19Z</time>
      </trkpt>
      <trkpt lat="47.19685" lon="5.87282">
        <ele>279</ele>
        <time>2024-08-05T07:36:20Z</time>
      </trkpt>
      <trkpt lat="47.19681" lon="5.87275">
        <ele>279.2</ele>
        <time>2024-08-05T07:36:21Z</time>
      </trkpt>
      <trkpt lat="47.19677" lon="5.87268">
        <ele>279.2</ele>
        <time>2024-08-05T07:36:22Z</time>
      </trkpt>
      <trkpt lat="47.19673" lon="5.87261">
        <ele>279.2</ele>
        <time>2024-08-05T07:36:23Z</time>
      </trkpt>
      <trkpt lat="47.19669" lon="5.87254">
        <ele>279</ele>
        <time>2024-08-05T07:36:24Z</time>
      </trkpt>
      <trkpt lat="47.19665" lon="5.87246">
        <ele>279</ele>
        <time>2024-08-05T07:36:25Z</time>
      </trkpt>
      <trkpt lat="47.19661" lon="5.87239">
        <ele>279</ele>
        <time>2024-08-05T07:36:26Z</time>
      </trkpt>
      <trkpt lat="47.19657" lon="5.87232">
        <ele>278.8</ele>
        <time>2024-08-05T07:36:27Z</time>
      </trkpt>
      <trkpt lat="47.19653" lon="5.87224">
        <ele>278.8</ele>
        <time>2024-08-05T07:36:28Z</time>
      </trkpt>
      <trkpt lat="47.19649" lon="5.87217">
        <ele>278.4</ele>
        <time>2024-08-05T07:36:29Z</time>
      </trkpt>
      <trkpt lat="47.19646" lon="5.8721">
        <ele>278.4</ele>
        <time>2024-08-05T07:36:30Z</time>
      </trkpt>
      <trkpt lat="47.19642" lon="5.87202">
        <ele>278.2</ele>
        <time>2024-08-05T07:36:31Z</time>
      </trkpt>
      <trkpt lat="47.19639" lon="5.87196">
        <ele>277.8</ele>
        <time>2024-08-05T07:36:32Z</time>
      </trkpt>
      <trkpt lat="47.19636" lon="5.87189">
        <ele>277.6</ele>
        <time>2024-08-05T07:36:33Z</time>
      </trkpt>
      <trkpt lat="47.19634" lon="5.87183">
        <ele>277.6</ele>
        <time>2024-08-05T07:36:34Z</time>
      </trkpt>
      <trkpt lat="47.19632" lon="5.87178">
        <ele>277.4</ele>
        <time>2024-08-05T07:36:35Z</time>
      </trkpt>
      <trkpt lat="47.19631" lon="5.87173">
        <ele>277.2</ele>
        <time>2024-08-05T07:36:36Z</time>
      </trkpt>
      <trkpt lat="47.19629" lon="5.87169">
        <ele>277</ele>
        <time>2024-08-05T07:36:37Z</time>
      </trkpt>
      <trkpt lat="47.19628" lon="5.87167">
        <ele>276.8</ele>
        <time>2024-08-05T07:36:38Z</time>
      </trkpt>
      <trkpt lat="47.19625" lon="5.87165">
        <ele>276.6</ele>
        <time>2024-08-05T07:36:39Z</time>
      </trkpt>
      <trkpt lat="47.19622" lon="5.87165">
        <ele>276.2</ele>
        <time>2024-08-05T07:36:40Z</time>
      </trkpt>
      <trkpt lat="47.19618" lon="5.87167">
        <ele>276</ele>
        <time>2024-08-05T07:36:41Z</time>
      </trkpt>
      <trkpt lat="47.19614" lon="5.8717">
        <ele>275.8</ele>
        <time>2024-08-05T07:36:42Z</time>
      </trkpt>
      <trkpt lat="47.1961" lon="5.87173">
        <ele>275.6</ele>
        <time>2024-08-05T07:36:43Z</time>
      </trkpt>
      <trkpt lat="47.19606" lon="5.87177">
        <ele>275.4</ele>
        <time>2024-08-05T07:36:44Z</time>
      </trkpt>
      <trkpt lat="47.19602" lon="5.87181">
        <ele>275.4</ele>
        <time>2024-08-05T07:36:45Z</time>
      </trkpt>
      <trkpt lat="47.19597" lon="5.87186">
        <ele>275.2</ele>
        <time>2024-08-05T07:36:46Z</time>
      </trkpt>
      <trkpt lat="47.19592" lon="5.8719">
        <ele>275</ele>
        <time>2024-08-05T07:36:47Z</time>
      </trkpt>
      <trkpt lat="47.19587" lon="5.87195">
        <ele>275</ele>
        <time>2024-08-05T07:36:48Z</time>
      </trkpt>
      <trkpt lat="47.19583" lon="5.872">
        <ele>275</ele>
        <time>2024-08-05T07:36:49Z</time>
      </trkpt>
      <trkpt lat="47.1958" lon="5.87206">
        <ele>274.8</ele>
        <time>2024-08-05T07:36:50Z</time>
      </trkpt>
      <trkpt lat="47.19576" lon="5.87211">
        <ele>274.8</ele>
        <time>2024-08-05T07:36:51Z</time>
      </trkpt>
      <trkpt lat="47.19573" lon="5.87217">
        <ele>274.6</ele>
        <time>2024-08-05T07:36:52Z</time>
      </trkpt>
      <trkpt lat="47.19569" lon="5.87223">
        <ele>274.4</ele>
        <time>2024-08-05T07:36:53Z</time>
      </trkpt>
      <trkpt lat="47.19564" lon="5.8723">
        <ele>274.2</ele>
        <time>2024-08-05T07:36:54Z</time>
      </trkpt>
      <trkpt lat="47.19559" lon="5.87236">
        <ele>274</ele>
        <time>2024-08-05T07:36:55Z</time>
      </trkpt>
      <trkpt lat="47.19553" lon="5.87243">
        <ele>274</ele>
        <time>2024-08-05T07:36:56Z</time>
      </trkpt>
      <trkpt lat="47.19546" lon="5.87251">
        <ele>273.8</ele>
        <time>2024-08-05T07:36:57Z</time>
      </trkpt>
      <trkpt lat="47.19539" lon="5.87259">
        <ele>273.6</ele>
        <time>2024-08-05T07:36:58Z</time>
      </trkpt>
      <trkpt lat="47.19533" lon="5.87267">
        <ele>273.4</ele>
        <time>2024-08-05T07:36:59Z</time>
      </trkpt>
      <trkpt lat="47.19526" lon="5.87277">
        <ele>273</ele>
        <time>2024-08-05T07:37:00Z</time>
      </trkpt>
      <trkpt lat="47.1952" lon="5.87287">
        <ele>272.6</ele>
        <time>2024-08-05T07:37:01Z</time>
      </trkpt>
      <trkpt lat="47.19514" lon="5.87297">
        <ele>272</ele>
        <time>2024-08-05T07:37:02Z</time>
      </trkpt>
      <trkpt lat="47.19508" lon="5.87306">
        <ele>271.6</ele>
        <time>2024-08-05T07:37:03Z</time>
      </trkpt>
      <trkpt lat="47.19502" lon="5.87315">
        <ele>271.2</ele>
        <time>2024-08-05T07:37:04Z</time>
      </trkpt>
      <trkpt lat="47.19497" lon="5.87324">
        <ele>270.2</ele>
        <time>2024-08-05T07:37:05Z</time>
      </trkpt>
      <trkpt lat="47.19491" lon="5.87332">
        <ele>269</ele>
        <time>2024-08-05T07:37:06Z</time>
      </trkpt>
      <trkpt lat="47.19486" lon="5.8734">
        <ele>268</ele>
        <time>2024-08-05T07:37:07Z</time>
      </trkpt>
      <trkpt lat="47.19481" lon="5.87348">
        <ele>267.2</ele>
        <time>2024-08-05T07:37:08Z</time>
      </trkpt>
      <trkpt lat="47.19476" lon="5.87355">
        <ele>266.8</ele>
        <time>2024-08-05T07:37:09Z</time>
      </trkpt>
      <trkpt lat="47.19472" lon="5.87362">
        <ele>266.4</ele>
        <time>2024-08-05T07:37:10Z</time>
      </trkpt>
      <trkpt lat="47.19468" lon="5.87369">
        <ele>266</ele>
        <time>2024-08-05T07:37:11Z</time>
      </trkpt>
      <trkpt lat="47.19464" lon="5.87376">
        <ele>265.6</ele>
        <time>2024-08-05T07:37:12Z</time>
      </trkpt>
      <trkpt lat="47.19461" lon="5.87382">
        <ele>265.4</ele>
        <time>2024-08-05T07:37:13Z</time>
      </trkpt>
      <trkpt lat="47.19459" lon="5.87388">
        <ele>264.8</ele>
        <time>2024-08-05T07:37:14Z</time>
      </trkpt>
      <trkpt lat="47.19456" lon="5.87393">
        <ele>264.6</ele>
        <time>2024-08-05T07:37:15Z</time>
      </trkpt>
      <trkpt lat="47.19453" lon="5.87398">
        <ele>264</ele>
        <time>2024-08-05T07:37:16Z</time>
      </trkpt>
      <trkpt lat="47.19451" lon="5.87403">
        <ele>264</ele>
        <time>2024-08-05T07:37:17Z</time>
      </trkpt>
      <trkpt lat="47.1945" lon="5.87407">
        <ele>264</ele>
        <time>2024-08-05T07:37:18Z</time>
      </trkpt>
      <trkpt lat="47.1945" lon="5.87411">
        <ele>263.8</ele>
        <time>2024-08-05T07:37:19Z</time>
      </trkpt>
      <trkpt lat="47.19449" lon="5.87415">
        <ele>263.8</ele>
        <time>2024-08-05T07:37:20Z</time>
      </trkpt>
      <trkpt lat="47.1945" lon="5.8742">
        <ele>263.8</ele>
        <time>2024-08-05T07:37:21Z</time>
      </trkpt>
      <trkpt lat="47.1945" lon="5.87424">
        <ele>263.8</ele>
        <time>2024-08-05T07:37:22Z</time>
      </trkpt>
      <trkpt lat="47.19451" lon="5.87428">
        <ele>263.8</ele>
        <time>2024-08-05T07:37:23Z</time>
      </trkpt>
      <trkpt lat="47.19452" lon="5.87432">
        <ele>263.8</ele>
        <time>2024-08-05T07:37:24Z</time>
      </trkpt>
      <trkpt lat="47.19453" lon="5.87437">
        <ele>263.8</ele>
        <time>2024-08-05T07:37:25Z</time>
      </trkpt>
      <trkpt lat="47.19454" lon="5.87441">
        <ele>263.8</ele>
        <time>2024-08-05T07:37:26Z</time>
      </trkpt>
      <trkpt lat="47.19455" lon="5.87446">
        <ele>263.8</ele>
        <time>2024-08-05T07:37:27Z</time>
      </trkpt>
      <trkpt lat="47.19457" lon="5.87451">
        <ele>263.8</ele>
        <time>2024-08-05T07:37:28Z</time>
      </trkpt>
      <trkpt lat="47.19459" lon="5.87455">
        <ele>263.8</ele>
        <time>2024-08-05T07:37:29Z</time>
      </trkpt>
      <trkpt lat="47.19462" lon="5.8746">
        <ele>264.2</ele>
        <time>2024-08-05T07:37:30Z</time>
      </trkpt>
      <trkpt lat="47.19464" lon="5.87464">
        <ele>264.2</ele>
        <time>2024-08-05T07:37:31Z</time>
      </trkpt>
      <trkpt lat="47.19466" lon="5.87467">
        <ele>264.2</ele>
        <time>2024-08-05T07:37:32Z</time>
      </trkpt>
      <trkpt lat="47.19468" lon="5.87471">
        <ele>264.4</ele>
        <time>2024-08-05T07:37:33Z</time>
      </trkpt>
      <trkpt lat="47.19469" lon="5.87474">
        <ele>264.6</ele>
        <time>2024-08-05T07:37:34Z</time>
      </trkpt>
      <trkpt lat="47.19471" lon="5.87479">
        <ele>264.6</ele>
        <time>2024-08-05T07:37:35Z</time>
      </trkpt>
      <trkpt lat="47.19474" lon="5.87484">
        <ele>265</ele>
        <time>2024-08-05T07:37:36Z</time>
      </trkpt>
      <trkpt lat="47.19475" lon="5.87488">
        <ele>265.2</ele>
        <time>2024-08-05T07:37:37Z</time>
      </trkpt>
      <trkpt lat="47.19476" lon="5.87491">
        <ele>265.6</ele>
        <time>2024-08-05T07:37:38Z</time>
      </trkpt>
      <trkpt lat="47.19477" lon="5.87493">
        <ele>265.8</ele>
        <time>2024-08-05T07:37:39Z</time>
      </trkpt>
      <trkpt lat="47.19478" lon="5.87496">
        <ele>265.8</ele>
        <time>2024-08-05T07:37:40Z</time>
      </trkpt>
      <trkpt lat="47.19479" lon="5.87499">
        <ele>265.8</ele>
        <time>2024-08-05T07:37:41Z</time>
      </trkpt>
      <trkpt lat="47.19481" lon="5.87504">
        <ele>266.2</ele>
        <time>2024-08-05T07:37:42Z</time>
      </trkpt>
      <trkpt lat="47.19482" lon="5.87508">
        <ele>266.4</ele>
        <time>2024-08-05T07:37:43Z</time>
      </trkpt>
      <trkpt lat="47.19482" lon="5.87512">
        <ele>266.8</ele>
        <time>2024-08-05T07:37:44Z</time>
      </trkpt>
      <trkpt lat="47.19483" lon="5.87515">
        <ele>267</ele>
        <time>2024-08-05T07:37:45Z</time>
      </trkpt>
      <trkpt lat="47.19483" lon="5.87519">
        <ele>267</ele>
        <time>2024-08-05T07:37:46Z</time>
      </trkpt>
      <trkpt lat="47.19482" lon="5.87523">
        <ele>267.2</ele>
        <time>2024-08-05T07:37:47Z</time>
      </trkpt>
      <trkpt lat="47.19482" lon="5.87527">
        <ele>267.4</ele>
        <time>2024-08-05T07:37:48Z</time>
      </trkpt>
      <trkpt lat="47.19482" lon="5.87531">
        <ele>267.4</ele>
        <time>2024-08-05T07:37:49Z</time>
      </trkpt>
      <trkpt lat="47.19482" lon="5.87535">
        <ele>267.4</ele>
        <time>2024-08-05T07:37:50Z</time>
      </trkpt>
      <trkpt lat="47.19482" lon="5.8754">
        <ele>267.8</ele>
        <time>2024-08-05T07:37:51Z</time>
      </trkpt>
      <trkpt lat="47.19482" lon="5.87544">
        <ele>267.8</ele>
        <time>2024-08-05T07:37:52Z</time>
      </trkpt>
      <trkpt lat="47.19483" lon="5.87548">
        <ele>268</ele>
        <time>2024-08-05T07:37:53Z</time>
      </trkpt>
      <trkpt lat="47.19483" lon="5.87553">
        <ele>268</ele>
        <time>2024-08-05T07:37:54Z</time>
      </trkpt>
      <trkpt lat="47.19484" lon="5.87558">
        <ele>268.4</ele>
        <time>2024-08-05T07:37:55Z</time>
      </trkpt>
      <trkpt lat="47.19484" lon="5.87561">
        <ele>268.4</ele>
        <time>2024-08-05T07:37:56Z</time>
      </trkpt>
      <trkpt lat="47.19484" lon="5.87564">
        <ele>268.4</ele>
        <time>2024-08-05T07:37:57Z</time>
      </trkpt>
      <trkpt lat="47.19484" lon="5.87567">
        <ele>268.6</ele>
        <time>2024-08-05T07:37:58Z</time>
      </trkpt>
      <trkpt lat="47.19485" lon="5.8757">
        <ele>269</ele>
        <time>2024-08-05T07:37:59Z</time>
      </trkpt>
      <trkpt lat="47.19486" lon="5.87574">
        <ele>269</ele>
        <time>2024-08-05T07:38:00Z</time>
      </trkpt>
      <trkpt lat="47.19487" lon="5.87577">
        <ele>269</ele>
        <time>2024-08-05T07:38:01Z</time>
      </trkpt>
      <trkpt lat="47.19489" lon="5.87581">
        <ele>269.2</ele>
        <time>2024-08-05T07:38:02Z</time>
      </trkpt>
      <trkpt lat="47.1949" lon="5.87585">
        <ele>269.4</ele>
        <time>2024-08-05T07:38:03Z</time>
      </trkpt>
      <trkpt lat="47.19491" lon="5.87589">
        <ele>269.6</ele>
        <time>2024-08-05T07:38:04Z</time>
      </trkpt>
      <trkpt lat="47.19492" lon="5.87592">
        <ele>269.8</ele>
        <time>2024-08-05T07:38:05Z</time>
      </trkpt>
      <trkpt lat="47.19493" lon="5.87596">
        <ele>270</ele>
        <time>2024-08-05T07:38:06Z</time>
      </trkpt>
      <trkpt lat="47.19495" lon="5.87599">
        <ele>270</ele>
        <time>2024-08-05T07:38:07Z</time>
      </trkpt>
      <trkpt lat="47.19495" lon="5.87601">
        <ele>270</ele>
        <time>2024-08-05T07:38:08Z</time>
      </trkpt>
      <trkpt lat="47.19495" lon="5.87603">
        <ele>270</ele>
        <time>2024-08-05T07:38:09Z</time>
      </trkpt>
      <trkpt lat="47.19495" lon="5.87603">
        <ele>270.2</ele>
        <time>2024-08-05T07:38:10Z</time>
      </trkpt>
      <trkpt lat="47.19495" lon="5.87602">
        <ele>270.4</ele>
        <time>2024-08-05T07:38:11Z</time>
      </trkpt>
      <trkpt lat="47.19495" lon="5.87601">
        <ele>270.6</ele>
        <time>2024-08-05T07:38:12Z</time>
      </trkpt>
      <trkpt lat="47.19494" lon="5.876">
        <ele>270.8</ele>
        <time>2024-08-05T07:38:13Z</time>
      </trkpt>
      <trkpt lat="47.19494" lon="5.87598">
        <ele>270.6</ele>
        <time>2024-08-05T07:38:14Z</time>
      </trkpt>
      <trkpt lat="47.19493" lon="5.87596">
        <ele>270.6</ele>
        <time>2024-08-05T07:38:15Z</time>
      </trkpt>
      <trkpt lat="47.19493" lon="5.87594">
        <ele>270.8</ele>
        <time>2024-08-05T07:38:16Z</time>
      </trkpt>
      <trkpt lat="47.19492" lon="5.87591">
        <ele>270.8</ele>
        <time>2024-08-05T07:38:17Z</time>
      </trkpt>
      <trkpt lat="47.1949" lon="5.87588">
        <ele>270.8</ele>
        <time>2024-08-05T07:38:18Z</time>
      </trkpt>
      <trkpt lat="47.19489" lon="5.87585">
        <ele>270.6</ele>
        <time>2024-08-05T07:38:19Z</time>
      </trkpt>
      <trkpt lat="47.19488" lon="5.87581">
        <ele>270.6</ele>
        <time>2024-08-05T07:38:20Z</time>
      </trkpt>
      <trkpt lat="47.19487" lon="5.87579">
        <ele>270.6</ele>
        <time>2024-08-05T07:38:21Z</time>
      </trkpt>
      <trkpt lat="47.19487" lon="5.87575">
        <ele>270.8</ele>
        <time>2024-08-05T07:38:22Z</time>
      </trkpt>
      <trkpt lat="47.19486" lon="5.87572">
        <ele>270.8</ele>
        <time>2024-08-05T07:38:23Z</time>
      </trkpt>
      <trkpt lat="47.19485" lon="5.87569">
        <ele>270.4</ele>
        <time>2024-08-05T07:38:24Z</time>
      </trkpt>
      <trkpt lat="47.19485" lon="5.87565">
        <ele>270.4</ele>
        <time>2024-08-05T07:38:25Z</time>
      </trkpt>
      <trkpt lat="47.19485" lon="5.87561">
        <ele>270.4</ele>
        <time>2024-08-05T07:38:26Z</time>
      </trkpt>
      <trkpt lat="47.19485" lon="5.87557">
        <ele>270.2</ele>
        <time>2024-08-05T07:38:27Z</time>
      </trkpt>
      <trkpt lat="47.19486" lon="5.87554">
        <ele>270</ele>
        <time>2024-08-05T07:38:28Z</time>
      </trkpt>
      <trkpt lat="47.19486" lon="5.8755">
        <ele>269.8</ele>
        <time>2024-08-05T07:38:29Z</time>
      </trkpt>
      <trkpt lat="47.19487" lon="5.87545">
        <ele>269.8</ele>
        <time>2024-08-05T07:38:30Z</time>
      </trkpt>
      <trkpt lat="47.19487" lon="5.8754">
        <ele>269.6</ele>
        <time>2024-08-05T07:38:31Z</time>
      </trkpt>
      <trkpt lat="47.19486" lon="5.87536">
        <ele>269.6</ele>
        <time>2024-08-05T07:38:32Z</time>
      </trkpt>
      <trkpt lat="47.19486" lon="5.87533">
        <ele>269.2</ele>
        <time>2024-08-05T07:38:33Z</time>
      </trkpt>
      <trkpt lat="47.19485" lon="5.87529">
        <ele>269.2</ele>
        <time>2024-08-05T07:38:34Z</time>
      </trkpt>
      <trkpt lat="47.19485" lon="5.87526">
        <ele>269</ele>
        <time>2024-08-05T07:38:35Z</time>
      </trkpt>
      <trkpt lat="47.19484" lon="5.87524">
        <ele>269</ele>
        <time>2024-08-05T07:38:36Z</time>
      </trkpt>
      <trkpt lat="47.19483" lon="5.87521">
        <ele>268.6</ele>
        <time>2024-08-05T07:38:37Z</time>
      </trkpt>
      <trkpt lat="47.19482" lon="5.87519">
        <ele>268.4</ele>
        <time>2024-08-05T07:38:38Z</time>
      </trkpt>
      <trkpt lat="47.19483" lon="5.87516">
        <ele>268.4</ele>
        <time>2024-08-05T07:38:39Z</time>
      </trkpt>
      <trkpt lat="47.19483" lon="5.87515">
        <ele>268.2</ele>
        <time>2024-08-05T07:38:40Z</time>
      </trkpt>
      <trkpt lat="47.19484" lon="5.87514">
        <ele>268.2</ele>
        <time>2024-08-05T07:38:41Z</time>
      </trkpt>
      <trkpt lat="47.19484" lon="5.87512">
        <ele>268</ele>
        <time>2024-08-05T07:38:42Z</time>
      </trkpt>
      <trkpt lat="47.19484" lon="5.87511">
        <ele>268</ele>
        <time>2024-08-05T07:38:43Z</time>
      </trkpt>
      <trkpt lat="47.19483" lon="5.8751">
        <ele>267.8</ele>
        <time>2024-08-05T07:38:44Z</time>
      </trkpt>
      <trkpt lat="47.19483" lon="5.87509">
        <ele>267.8</ele>
        <time>2024-08-05T07:38:45Z</time>
      </trkpt>
      <trkpt lat="47.19483" lon="5.87507">
        <ele>267.8</ele>
        <time>2024-08-05T07:38:46Z</time>
      </trkpt>
      <trkpt lat="47.19482" lon="5.87505">
        <ele>267.4</ele>
        <time>2024-08-05T07:38:47Z</time>
      </trkpt>
      <trkpt lat="47.19481" lon="5.87503">
        <ele>267.2</ele>
        <time>2024-08-05T07:38:48Z</time>
      </trkpt>
      <trkpt lat="47.19481" lon="5.875">
        <ele>267.2</ele>
        <time>2024-08-05T07:38:49Z</time>
      </trkpt>
      <trkpt lat="47.1948" lon="5.87497">
        <ele>267.2</ele>
        <time>2024-08-05T07:38:50Z</time>
      </trkpt>
      <trkpt lat="47.19479" lon="5.87495">
        <ele>267</ele>
        <time>2024-08-05T07:38:51Z</time>
      </trkpt>
      <trkpt lat="47.19478" lon="5.87492">
        <ele>267</ele>
        <time>2024-08-05T07:38:52Z</time>
      </trkpt>
      <trkpt lat="47.19478" lon="5.87488">
        <ele>267</ele>
        <time>2024-08-05T07:38:53Z</time>
      </trkpt>
      <trkpt lat="47.19476" lon="5.87485">
        <ele>266.8</ele>
        <time>2024-08-05T07:38:54Z</time>
      </trkpt>
      <trkpt lat="47.19475" lon="5.87481">
        <ele>266.8</ele>
        <time>2024-08-05T07:38:55Z</time>
      </trkpt>
      <trkpt lat="47.19473" lon="5.87476">
        <ele>266.4</ele>
        <time>2024-08-05T07:38:56Z</time>
      </trkpt>
      <trkpt lat="47.19472" lon="5.87472">
        <ele>266.4</ele>
        <time>2024-08-05T07:38:57Z</time>
      </trkpt>
      <trkpt lat="47.19471" lon="5.87468">
        <ele>266.4</ele>
        <time>2024-08-05T07:38:58Z</time>
      </trkpt>
      <trkpt lat="47.1947" lon="5.87464">
        <ele>266.4</ele>
        <time>2024-08-05T07:38:59Z</time>
      </trkpt>
      <trkpt lat="47.19469" lon="5.87459">
        <ele>266.2</ele>
        <time>2024-08-05T07:39:00Z</time>
      </trkpt>
      <trkpt lat="47.19467" lon="5.87454">
        <ele>266</ele>
        <time>2024-08-05T07:39:01Z</time>
      </trkpt>
      <trkpt lat="47.19466" lon="5.8745">
        <ele>266</ele>
        <time>2024-08-05T07:39:02Z</time>
      </trkpt>
      <trkpt lat="47.19465" lon="5.87447">
        <ele>265.8</ele>
        <time>2024-08-05T07:39:03Z</time>
      </trkpt>
      <trkpt lat="47.19464" lon="5.87443">
        <ele>265.8</ele>
        <time>2024-08-05T07:39:04Z</time>
      </trkpt>
      <trkpt lat="47.19465" lon="5.87442">
        <ele>265.6</ele>
        <time>2024-08-05T07:39:05Z</time>
      </trkpt>
      <trkpt lat="47.19464" lon="5.8744">
        <ele>265.2</ele>
        <time>2024-08-05T07:39:06Z</time>
      </trkpt>
      <trkpt lat="47.19463" lon="5.87439">
        <ele>265.2</ele>
        <time>2024-08-05T07:39:07Z</time>
      </trkpt>
      <trkpt lat="47.19463" lon="5.87438">
        <ele>265.2</ele>
        <time>2024-08-05T07:39:08Z</time>
      </trkpt>
      <trkpt lat="47.19462" lon="5.87438">
        <ele>264.8</ele>
        <time>2024-08-05T07:39:09Z</time>
      </trkpt>
      <trkpt lat="47.19461" lon="5.87438">
        <ele>264.6</ele>
        <time>2024-08-05T07:39:10Z</time>
      </trkpt>
      <trkpt lat="47.19461" lon="5.87438">
        <ele>264.4</ele>
        <time>2024-08-05T07:39:11Z</time>
      </trkpt>
      <trkpt lat="47.19461" lon="5.87438">
        <ele>264.4</ele>
        <time>2024-08-05T07:39:12Z</time>
      </trkpt>
      <trkpt lat="47.19461" lon="5.87438">
        <ele>264.2</ele>
        <time>2024-08-05T07:39:13Z</time>
      </trkpt>
      <trkpt lat="47.19461" lon="5.87438">
        <ele>264.2</ele>
        <time>2024-08-05T07:39:14Z</time>
      </trkpt>
      <trkpt lat="47.19461" lon="5.87437">
        <ele>264.2</ele>
        <time>2024-08-05T07:39:15Z</time>
      </trkpt>
      <trkpt lat="47.19461" lon="5.87437">
        <ele>264</ele>
        <time>2024-08-05T07:39:16Z</time>
      </trkpt>
      <trkpt lat="47.19461" lon="5.87436">
        <ele>264.2</ele>
        <time>2024-08-05T07:39:17Z</time>
      </trkpt>
      <trkpt lat="47.19461" lon="5.87436">
        <ele>264.2</ele>
        <time>2024-08-05T07:39:18Z</time>
      </trkpt>
      <trkpt lat="47.19461" lon="5.87436">
        <ele>264.2</ele>
        <time>2024-08-05T07:39:19Z</time>
      </trkpt>
      <trkpt lat="47.19461" lon="5.87436">
        <ele>264.2</ele>
        <time>2024-08-05T07:39:20Z</time>
      </trkpt>
      <trkpt lat="47.19462" lon="5.87437">
        <ele>264.2</ele>
        <time>2024-08-05T07:39:21Z</time>
      </trkpt>
      <trkpt lat="47.19462" lon="5.87437">
        <ele>264</ele>
        <time>2024-08-05T07:39:22Z</time>
      </trkpt>
      <trkpt lat="47.19462" lon="5.87437">
        <ele>264.2</ele>
        <time>2024-08-05T07:39:23Z</time>
      </trkpt>
      <trkpt lat="47.19462" lon="5.87437">
        <ele>264.2</ele>
        <time>2024-08-05T07:39:24Z</time>
      </trkpt>
      <trkpt lat="47.19462" lon="5.87438">
        <ele>264.2</ele>
        <time>2024-08-05T07:39:25Z</time>
      </trkpt>
      <trkpt lat="47.19462" lon="5.87438">
        <ele>264.2</ele>
        <time>2024-08-05T07:39:26Z</time>
      </trkpt>
      <trkpt lat="47.19462" lon="5.87438">
        <ele>264</ele>
        <time>2024-08-05T07:39:27Z</time>
      </trkpt>
      <trkpt lat="47.19462" lon="5.87438">
        <ele>264.2</ele>
        <time>2024-08-05T07:39:28Z</time>
      </trkpt>
      <trkpt lat="47.19462" lon="5.87439">
        <ele>264.2</ele>
        <time>2024-08-05T07:39:29Z</time>
      </trkpt>
      <trkpt lat="47.19462" lon="5.87439">
        <ele>264.2</ele>
        <time>2024-08-05T07:39:30Z</time>
      </trkpt>
      <trkpt lat="47.19462" lon="5.87439">
        <ele>264.2</ele>
        <time>2024-08-05T07:39:31Z</time>
      </trkpt>
      <trkpt lat="47.19462" lon="5.87439">
        <ele>264</ele>
        <time>2024-08-05T07:39:32Z</time>
      </trkpt>
      <trkpt lat="47.19462" lon="5.87439">
        <ele>264.2</ele>
        <time>2024-08-05T07:39:33Z</time>
      </trkpt>
      <trkpt lat="47.19462" lon="5.87439">
        <ele>264.2</ele>
        <time>2024-08-05T07:39:34Z</time>
      </trkpt>
      <trkpt lat="47.19462" lon="5.87439">
        <ele>264</ele>
        <time>2024-08-05T07:39:35Z</time>
      </trkpt>
      <trkpt lat="47.19462" lon="5.87439">
        <ele>264.2</ele>
        <time>2024-08-05T07:39:36Z</time>
      </trkpt>
      <trkpt lat="47.19462" lon="5.87439">
        <ele>264.2</ele>
        <time>2024-08-05T07:39:37Z</time>
      </trkpt>
      <trkpt lat="47.19462" lon="5.8744">
        <ele>264.2</ele>
        <time>2024-08-05T07:39:38Z</time>
      </trkpt>
      <trkpt lat="47.19462" lon="5.8744">
        <ele>264</ele>
        <time>2024-08-05T07:39:39Z</time>
      </trkpt>
      <trkpt lat="47.19462" lon="5.87439">
        <ele>264.2</ele>
        <time>2024-08-05T07:39:40Z</time>
      </trkpt>
      <trkpt lat="47.19462" lon="5.87438">
        <ele>264</ele>
        <time>2024-08-05T07:39:41Z</time>
      </trkpt>
      <trkpt lat="47.19461" lon="5.87436">
        <ele>264</ele>
        <time>2024-08-05T07:39:42Z</time>
      </trkpt>
      <trkpt lat="47.19461" lon="5.87435">
        <ele>264</ele>
        <time>2024-08-05T07:39:43Z</time>
      </trkpt>
      <trkpt lat="47.19461" lon="5.87434">
        <ele>264.2</ele>
        <time>2024-08-05T07:39:44Z</time>
      </trkpt>
      <trkpt lat="47.19461" lon="5.87434">
        <ele>264</ele>
        <time>2024-08-05T07:39:45Z</time>
      </trkpt>
      <trkpt lat="47.19461" lon="5.87433">
        <ele>264</ele>
        <time>2024-08-05T07:39:46Z</time>
      </trkpt>
      <trkpt lat="47.19462" lon="5.87433">
        <ele>264</ele>
        <time>2024-08-05T07:39:47Z</time>
      </trkpt>
      <trkpt lat="47.19462" lon="5.87434">
        <ele>264</ele>
        <time>2024-08-05T07:39:48Z</time>
      </trkpt>
      <trkpt lat="47.19463" lon="5.87434">
        <ele>264</ele>
        <time>2024-08-05T07:39:49Z</time>
      </trkpt>
      <trkpt lat="47.19464" lon="5.87435">
        <ele>264.2</ele>
        <time>2024-08-05T07:39:50Z</time>
      </trkpt>
      <trkpt lat="47.19464" lon="5.87436">
        <ele>264.2</ele>
        <time>2024-08-05T07:39:51Z</time>
      </trkpt>
      <trkpt lat="47.19465" lon="5.87437">
        <ele>264</ele>
        <time>2024-08-05T07:39:52Z</time>
      </trkpt>
      <trkpt lat="47.19467" lon="5.87438">
        <ele>264</ele>
        <time>2024-08-05T07:39:53Z</time>
      </trkpt>
      <trkpt lat="47.19468" lon="5.8744">
        <ele>264.2</ele>
        <time>2024-08-05T07:39:54Z</time>
      </trkpt>
      <trkpt lat="47.19469" lon="5.87442">
        <ele>264.2</ele>
        <time>2024-08-05T07:39:55Z</time>
      </trkpt>
      <trkpt lat="47.19469" lon="5.87445">
        <ele>264</ele>
        <time>2024-08-05T07:39:56Z</time>
      </trkpt>
      <trkpt lat="47.1947" lon="5.87447">
        <ele>264.2</ele>
        <time>2024-08-05T07:39:57Z</time>
      </trkpt>
      <trkpt lat="47.19471" lon="5.8745">
        <ele>264.2</ele>
        <time>2024-08-05T07:39:58Z</time>
      </trkpt>
      <trkpt lat="47.19472" lon="5.87453">
        <ele>264.2</ele>
        <time>2024-08-05T07:39:59Z</time>
      </trkpt>
      <trkpt lat="47.19473" lon="5.87455">
        <ele>264.2</ele>
        <time>2024-08-05T07:40:00Z</time>
      </trkpt>
      <trkpt lat="47.19474" lon="5.87458">
        <ele>264.4</ele>
        <time>2024-08-05T07:40:01Z</time>
      </trkpt>
      <trkpt lat="47.19474" lon="5.87461">
        <ele>264.6</ele>
        <time>2024-08-05T07:40:02Z</time>
      </trkpt>
      <trkpt lat="47.19475" lon="5.87464">
        <ele>264.6</ele>
        <time>2024-08-05T07:40:03Z</time>
      </trkpt>
      <trkpt lat="47.19477" lon="5.87467">
        <ele>264.8</ele>
        <time>2024-08-05T07:40:04Z</time>
      </trkpt>
      <trkpt lat="47.19478" lon="5.8747">
        <ele>264.8</ele>
        <time>2024-08-05T07:40:05Z</time>
      </trkpt>
      <trkpt lat="47.19479" lon="5.87474">
        <ele>265</ele>
        <time>2024-08-05T07:40:06Z</time>
      </trkpt>
      <trkpt lat="47.1948" lon="5.87477">
        <ele>265</ele>
        <time>2024-08-05T07:40:07Z</time>
      </trkpt>
      <trkpt lat="47.19482" lon="5.87481">
        <ele>265.4</ele>
        <time>2024-08-05T07:40:08Z</time>
      </trkpt>
      <trkpt lat="47.19483" lon="5.87484">
        <ele>265.4</ele>
        <time>2024-08-05T07:40:09Z</time>
      </trkpt>
      <trkpt lat="47.19484" lon="5.87486">
        <ele>265.6</ele>
        <time>2024-08-05T07:40:10Z</time>
      </trkpt>
      <trkpt lat="47.19485" lon="5.87489">
        <ele>265.6</ele>
        <time>2024-08-05T07:40:11Z</time>
      </trkpt>
      <trkpt lat="47.19485" lon="5.87492">
        <ele>265.8</ele>
        <time>2024-08-05T07:40:12Z</time>
      </trkpt>
      <trkpt lat="47.19485" lon="5.87495">
        <ele>265.8</ele>
        <time>2024-08-05T07:40:13Z</time>
      </trkpt>
      <trkpt lat="47.19485" lon="5.87497">
        <ele>266.2</ele>
        <time>2024-08-05T07:40:14Z</time>
      </trkpt>
      <trkpt lat="47.19485" lon="5.875">
        <ele>266.2</ele>
        <time>2024-08-05T07:40:15Z</time>
      </trkpt>
      <trkpt lat="47.19485" lon="5.87503">
        <ele>266.4</ele>
        <time>2024-08-05T07:40:16Z</time>
      </trkpt>
      <trkpt lat="47.19485" lon="5.87507">
        <ele>266.4</ele>
        <time>2024-08-05T07:40:17Z</time>
      </trkpt>
      <trkpt lat="47.19485" lon="5.87511">
        <ele>266.4</ele>
        <time>2024-08-05T07:40:18Z</time>
      </trkpt>
      <trkpt lat="47.19486" lon="5.87514">
        <ele>266.8</ele>
        <time>2024-08-05T07:40:19Z</time>
      </trkpt>
      <trkpt lat="47.19486" lon="5.87518">
        <ele>266.8</ele>
        <time>2024-08-05T07:40:20Z</time>
      </trkpt>
      <trkpt lat="47.19486" lon="5.87521">
        <ele>267</ele>
        <time>2024-08-05T07:40:21Z</time>
      </trkpt>
      <trkpt lat="47.19486" lon="5.87525">
        <ele>267.2</ele>
        <time>2024-08-05T07:40:22Z</time>
      </trkpt>
      <trkpt lat="47.19486" lon="5.87529">
        <ele>267.2</ele>
        <time>2024-08-05T07:40:23Z</time>
      </trkpt>
      <trkpt lat="47.19486" lon="5.87532">
        <ele>267.4</ele>
        <time>2024-08-05T07:40:24Z</time>
      </trkpt>
      <trkpt lat="47.19486" lon="5.87536">
        <ele>267.4</ele>
        <time>2024-08-05T07:40:25Z</time>
      </trkpt>
      <trkpt lat="47.19486" lon="5.87539">
        <ele>267.6</ele>
        <time>2024-08-05T07:40:26Z</time>
      </trkpt>
      <trkpt lat="47.19486" lon="5.87543">
        <ele>267.6</ele>
        <time>2024-08-05T07:40:27Z</time>
      </trkpt>
      <trkpt lat="47.19485" lon="5.87546">
        <ele>268</ele>
        <time>2024-08-05T07:40:28Z</time>
      </trkpt>
      <trkpt lat="47.19485" lon="5.8755">
        <ele>268</ele>
        <time>2024-08-05T07:40:29Z</time>
      </trkpt>
      <trkpt lat="47.19485" lon="5.87553">
        <ele>268.2</ele>
        <time>2024-08-05T07:40:30Z</time>
      </trkpt>
      <trkpt lat="47.19485" lon="5.87557">
        <ele>268.4</ele>
        <time>2024-08-05T07:40:31Z</time>
      </trkpt>
      <trkpt lat="47.19484" lon="5.8756">
        <ele>268.4</ele>
        <time>2024-08-05T07:40:32Z</time>
      </trkpt>
      <trkpt lat="47.19484" lon="5.87563">
        <ele>268.4</ele>
        <time>2024-08-05T07:40:33Z</time>
      </trkpt>
      <trkpt lat="47.19485" lon="5.87566">
        <ele>268.6</ele>
        <time>2024-08-05T07:40:34Z</time>
      </trkpt>
      <trkpt lat="47.19485" lon="5.87569">
        <ele>268.6</ele>
        <time>2024-08-05T07:40:35Z</time>
      </trkpt>
      <trkpt lat="47.19485" lon="5.87572">
        <ele>268.8</ele>
        <time>2024-08-05T07:40:36Z</time>
      </trkpt>
      <trkpt lat="47.19485" lon="5.87575">
        <ele>268.8</ele>
        <time>2024-08-05T07:40:37Z</time>
      </trkpt>
      <trkpt lat="47.19486" lon="5.87578">
        <ele>268.8</ele>
        <time>2024-08-05T07:40:38Z</time>
      </trkpt>
      <trkpt lat="47.19486" lon="5.87582">
        <ele>268.8</ele>
        <time>2024-08-05T07:40:39Z</time>
      </trkpt>
      <trkpt lat="47.19487" lon="5.87585">
        <ele>269.2</ele>
        <time>2024-08-05T07:40:40Z</time>
      </trkpt>
      <trkpt lat="47.19488" lon="5.87589">
        <ele>269.2</ele>
        <time>2024-08-05T07:40:41Z</time>
      </trkpt>
      <trkpt lat="47.19489" lon="5.87593">
        <ele>269.6</ele>
        <time>2024-08-05T07:40:42Z</time>
      </trkpt>
      <trkpt lat="47.1949" lon="5.87598">
        <ele>269.8</ele>
        <time>2024-08-05T07:40:43Z</time>
      </trkpt>
      <trkpt lat="47.19491" lon="5.87602">
        <ele>269.8</ele>
        <time>2024-08-05T07:40:44Z</time>
      </trkpt>
      <trkpt lat="47.19493" lon="5.87606">
        <ele>269.8</ele>
        <time>2024-08-05T07:40:45Z</time>
      </trkpt>
      <trkpt lat="47.19494" lon="5.8761">
        <ele>270</ele>
        <time>2024-08-05T07:40:46Z</time>
      </trkpt>
      <trkpt lat="47.19496" lon="5.87614">
        <ele>270</ele>
        <time>2024-08-05T07:40:47Z</time>
      </trkpt>
      <trkpt lat="47.19497" lon="5.87617">
        <ele>270.2</ele>
        <time>2024-08-05T07:40:48Z</time>
      </trkpt>
      <trkpt lat="47.19498" lon="5.87621">
        <ele>270.4</ele>
        <time>2024-08-05T07:40:49Z</time>
      </trkpt>
      <trkpt lat="47.19499" lon="5.87624">
        <ele>270.6</ele>
        <time>2024-08-05T07:40:50Z</time>
      </trkpt>
      <trkpt lat="47.195" lon="5.87626">
        <ele>270.8</ele>
        <time>2024-08-05T07:40:51Z</time>
      </trkpt>
      <trkpt lat="47.19501" lon="5.87628">
        <ele>271</ele>
        <time>2024-08-05T07:40:52Z</time>
      </trkpt>
      <trkpt lat="47.19501" lon="5.8763">
        <ele>271.2</ele>
        <time>2024-08-05T07:40:53Z</time>
      </trkpt>
      <trkpt lat="47.19501" lon="5.87631">
        <ele>271.2</ele>
        <time>2024-08-05T07:40:54Z</time>
      </trkpt>
      <trkpt lat="47.19502" lon="5.87632">
        <ele>271.2</ele>
        <time>2024-08-05T07:40:55Z</time>
      </trkpt>
      <trkpt lat="47.19503" lon="5.87633">
        <ele>271.4</ele>
        <time>2024-08-05T07:40:56Z</time>
      </trkpt>
      <trkpt lat="47.19504" lon="5.87634">
        <ele>271.6</ele>
        <time>2024-08-05T07:40:57Z</time>
      </trkpt>
      <trkpt lat="47.19506" lon="5.87636">
        <ele>271.8</ele>
        <time>2024-08-05T07:40:58Z</time>
      </trkpt>
      <trkpt lat="47.19508" lon="5.87637">
        <ele>271.8</ele>
        <time>2024-08-05T07:40:59Z</time>
      </trkpt>
      <trkpt lat="47.1951" lon="5.87638">
        <ele>272</ele>
        <time>2024-08-05T07:41:00Z</time>
      </trkpt>
      <trkpt lat="47.19512" lon="5.8764">
        <ele>271.8</ele>
        <time>2024-08-05T07:41:01Z</time>
      </trkpt>
      <trkpt lat="47.19514" lon="5.87642">
        <ele>272</ele>
        <time>2024-08-05T07:41:02Z</time>
      </trkpt>
      <trkpt lat="47.19516" lon="5.87643">
        <ele>272</ele>
        <time>2024-08-05T07:41:03Z</time>
      </trkpt>
      <trkpt lat="47.19518" lon="5.87645">
        <ele>272.2</ele>
        <time>2024-08-05T07:41:04Z</time>
      </trkpt>
      <trkpt lat="47.19521" lon="5.87646">
        <ele>272.2</ele>
        <time>2024-08-05T07:41:05Z</time>
      </trkpt>
      <trkpt lat="47.19523" lon="5.87648">
        <ele>272.4</ele>
        <time>2024-08-05T07:41:06Z</time>
      </trkpt>
      <trkpt lat="47.19524" lon="5.8765">
        <ele>272.4</ele>
        <time>2024-08-05T07:41:07Z</time>
      </trkpt>
      <trkpt lat="47.19526" lon="5.87652">
        <ele>272.6</ele>
        <time>2024-08-05T07:41:08Z</time>
      </trkpt>
      <trkpt lat="47.19528" lon="5.87654">
        <ele>272.6</ele>
        <time>2024-08-05T07:41:09Z</time>
      </trkpt>
      <trkpt lat="47.1953" lon="5.87656">
        <ele>272.8</ele>
        <time>2024-08-05T07:41:10Z</time>
      </trkpt>
      <trkpt lat="47.19531" lon="5.87659">
        <ele>272.8</ele>
        <time>2024-08-05T07:41:11Z</time>
      </trkpt>
      <trkpt lat="47.19533" lon="5.87662">
        <ele>273</ele>
        <time>2024-08-05T07:41:12Z</time>
      </trkpt>
      <trkpt lat="47.19534" lon="5.87665">
        <ele>273</ele>
        <time>2024-08-05T07:41:13Z</time>
      </trkpt>
      <trkpt lat="47.19534" lon="5.87667">
        <ele>273.2</ele>
        <time>2024-08-05T07:41:14Z</time>
      </trkpt>
      <trkpt lat="47.19534" lon="5.8767">
        <ele>273.4</ele>
        <time>2024-08-05T07:41:15Z</time>
      </trkpt>
      <trkpt lat="47.19534" lon="5.87673">
        <ele>273.4</ele>
        <time>2024-08-05T07:41:16Z</time>
      </trkpt>
      <trkpt lat="47.19533" lon="5.87674">
        <ele>273.4</ele>
        <time>2024-08-05T07:41:17Z</time>
      </trkpt>
      <trkpt lat="47.19531" lon="5.87674">
        <ele>273.8</ele>
        <time>2024-08-05T07:41:18Z</time>
      </trkpt>
      <trkpt lat="47.19529" lon="5.87672">
        <ele>273.8</ele>
        <time>2024-08-05T07:41:19Z</time>
      </trkpt>
      <trkpt lat="47.19527" lon="5.87671">
        <ele>274</ele>
        <time>2024-08-05T07:41:20Z</time>
      </trkpt>
      <trkpt lat="47.19524" lon="5.8767">
        <ele>274.2</ele>
        <time>2024-08-05T07:41:21Z</time>
      </trkpt>
      <trkpt lat="47.19521" lon="5.87669">
        <ele>274.4</ele>
        <time>2024-08-05T07:41:22Z</time>
      </trkpt>
      <trkpt lat="47.19519" lon="5.87667">
        <ele>274.6</ele>
        <time>2024-08-05T07:41:23Z</time>
      </trkpt>
      <trkpt lat="47.19516" lon="5.87666">
        <ele>274.8</ele>
        <time>2024-08-05T07:41:24Z</time>
      </trkpt>
      <trkpt lat="47.19514" lon="5.87664">
        <ele>275</ele>
        <time>2024-08-05T07:41:25Z</time>
      </trkpt>
      <trkpt lat="47.19511" lon="5.87662">
        <ele>275</ele>
        <time>2024-08-05T07:41:26Z</time>
      </trkpt>
      <trkpt lat="47.19509" lon="5.87661">
        <ele>275.2</ele>
        <time>2024-08-05T07:41:27Z</time>
      </trkpt>
      <trkpt lat="47.19507" lon="5.87659">
        <ele>275.2</ele>
        <time>2024-08-05T07:41:28Z</time>
      </trkpt>
      <trkpt lat="47.19504" lon="5.87656">
        <ele>275.2</ele>
        <time>2024-08-05T07:41:29Z</time>
      </trkpt>
      <trkpt lat="47.19501" lon="5.87654">
        <ele>275.4</ele>
        <time>2024-08-05T07:41:30Z</time>
      </trkpt>
      <trkpt lat="47.19499" lon="5.87652">
        <ele>275.4</ele>
        <time>2024-08-05T07:41:31Z</time>
      </trkpt>
      <trkpt lat="47.19497" lon="5.8765">
        <ele>275.4</ele>
        <time>2024-08-05T07:41:32Z</time>
      </trkpt>
      <trkpt lat="47.19495" lon="5.87648">
        <ele>275.6</ele>
        <time>2024-08-05T07:41:33Z</time>
      </trkpt>
      <trkpt lat="47.19493" lon="5.87646">
        <ele>275.8</ele>
        <time>2024-08-05T07:41:34Z</time>
      </trkpt>
      <trkpt lat="47.19491" lon="5.87643">
        <ele>275.6</ele>
        <time>2024-08-05T07:41:35Z</time>
      </trkpt>
      <trkpt lat="47.19489" lon="5.87641">
        <ele>275.8</ele>
        <time>2024-08-05T07:41:36Z</time>
      </trkpt>
      <trkpt lat="47.19487" lon="5.87639">
        <ele>276</ele>
        <time>2024-08-05T07:41:37Z</time>
      </trkpt>
      <trkpt lat="47.19485" lon="5.87638">
        <ele>276</ele>
        <time>2024-08-05T07:41:38Z</time>
      </trkpt>
      <trkpt lat="47.19483" lon="5.87636">
        <ele>276.2</ele>
        <time>2024-08-05T07:41:39Z</time>
      </trkpt>
      <trkpt lat="47.19481" lon="5.87633">
        <ele>276.4</ele>
        <time>2024-08-05T07:41:40Z</time>
      </trkpt>
      <trkpt lat="47.19478" lon="5.8763">
        <ele>276.2</ele>
        <time>2024-08-05T07:41:41Z</time>
      </trkpt>
      <trkpt lat="47.19475" lon="5.87628">
        <ele>276.4</ele>
        <time>2024-08-05T07:41:42Z</time>
      </trkpt>
      <trkpt lat="47.19472" lon="5.87626">
        <ele>276.4</ele>
        <time>2024-08-05T07:41:43Z</time>
      </trkpt>
      <trkpt lat="47.1947" lon="5.87626">
        <ele>276.6</ele>
        <time>2024-08-05T07:41:44Z</time>
      </trkpt>
      <trkpt lat="47.19467" lon="5.87624">
        <ele>277</ele>
        <time>2024-08-05T07:41:45Z</time>
      </trkpt>
      <trkpt lat="47.19465" lon="5.87623">
        <ele>277.2</ele>
        <time>2024-08-05T07:41:46Z</time>
      </trkpt>
      <trkpt lat="47.19462" lon="5.87621">
        <ele>277.2</ele>
        <time>2024-08-05T07:41:47Z</time>
      </trkpt>
      <trkpt lat="47.1946" lon="5.87619">
        <ele>277.4</ele>
        <time>2024-08-05T07:41:48Z</time>
      </trkpt>
      <trkpt lat="47.19457" lon="5.87618">
        <ele>277.8</ele>
        <time>2024-08-05T07:41:49Z</time>
      </trkpt>
      <trkpt lat="47.19455" lon="5.87617">
        <ele>277.8</ele>
        <time>2024-08-05T07:41:50Z</time>
      </trkpt>
      <trkpt lat="47.19453" lon="5.87616">
        <ele>277.8</ele>
        <time>2024-08-05T07:41:51Z</time>
      </trkpt>
      <trkpt lat="47.19451" lon="5.87615">
        <ele>278.2</ele>
        <time>2024-08-05T07:41:52Z</time>
      </trkpt>
      <trkpt lat="47.19448" lon="5.87614">
        <ele>278.2</ele>
        <time>2024-08-05T07:41:53Z</time>
      </trkpt>
      <trkpt lat="47.19445" lon="5.87612">
        <ele>278.4</ele>
        <time>2024-08-05T07:41:54Z</time>
      </trkpt>
      <trkpt lat="47.19442" lon="5.8761">
        <ele>278.6</ele>
        <time>2024-08-05T07:41:55Z</time>
      </trkpt>
      <trkpt lat="47.19438" lon="5.87609">
        <ele>278.4</ele>
        <time>2024-08-05T07:41:56Z</time>
      </trkpt>
      <trkpt lat="47.19434" lon="5.87606">
        <ele>278.4</ele>
        <time>2024-08-05T07:41:57Z</time>
      </trkpt>
      <trkpt lat="47.19431" lon="5.87605">
        <ele>278.6</ele>
        <time>2024-08-05T07:41:58Z</time>
      </trkpt>
      <trkpt lat="47.19429" lon="5.87603">
        <ele>278.6</ele>
        <time>2024-08-05T07:41:59Z</time>
      </trkpt>
      <trkpt lat="47.19426" lon="5.87601">
        <ele>278.6</ele>
        <time>2024-08-05T07:42:00Z</time>
      </trkpt>
      <trkpt lat="47.19423" lon="5.876">
        <ele>278.8</ele>
        <time>2024-08-05T07:42:01Z</time>
      </trkpt>
      <trkpt lat="47.19421" lon="5.87599">
        <ele>279</ele>
        <time>2024-08-05T07:42:02Z</time>
      </trkpt>
      <trkpt lat="47.19419" lon="5.87599">
        <ele>278.8</ele>
        <time>2024-08-05T07:42:03Z</time>
      </trkpt>
      <trkpt lat="47.19418" lon="5.87599">
        <ele>279</ele>
        <time>2024-08-05T07:42:04Z</time>
      </trkpt>
      <trkpt lat="47.19416" lon="5.87598">
        <ele>279.2</ele>
        <time>2024-08-05T07:42:05Z</time>
      </trkpt>
      <trkpt lat="47.19414" lon="5.87596">
        <ele>279.2</ele>
        <time>2024-08-05T07:42:06Z</time>
      </trkpt>
      <trkpt lat="47.19413" lon="5.87595">
        <ele>279.4</ele>
        <time>2024-08-05T07:42:07Z</time>
      </trkpt>
      <trkpt lat="47.19411" lon="5.87594">
        <ele>279.6</ele>
        <time>2024-08-05T07:42:08Z</time>
      </trkpt>
      <trkpt lat="47.19408" lon="5.87593">
        <ele>279.6</ele>
        <time>2024-08-05T07:42:09Z</time>
      </trkpt>
      <trkpt lat="47.19406" lon="5.87592">
        <ele>279.8</ele>
        <time>2024-08-05T07:42:10Z</time>
      </trkpt>
      <trkpt lat="47.19403" lon="5.87591">
        <ele>279.8</ele>
        <time>2024-08-05T07:42:11Z</time>
      </trkpt>
      <trkpt lat="47.194" lon="5.87591">
        <ele>280</ele>
        <time>2024-08-05T07:42:12Z</time>
      </trkpt>
      <trkpt lat="47.19397" lon="5.87591">
        <ele>280</ele>
        <time>2024-08-05T07:42:13Z</time>
      </trkpt>
      <trkpt lat="47.19394" lon="5.8759">
        <ele>280.2</ele>
        <time>2024-08-05T07:42:14Z</time>
      </trkpt>
      <trkpt lat="47.19391" lon="5.8759">
        <ele>280.4</ele>
        <time>2024-08-05T07:42:15Z</time>
      </trkpt>
      <trkpt lat="47.19388" lon="5.8759">
        <ele>280.4</ele>
        <time>2024-08-05T07:42:16Z</time>
      </trkpt>
      <trkpt lat="47.19385" lon="5.87589">
        <ele>280.4</ele>
        <time>2024-08-05T07:42:17Z</time>
      </trkpt>
      <trkpt lat="47.19382" lon="5.87588">
        <ele>280.8</ele>
        <time>2024-08-05T07:42:18Z</time>
      </trkpt>
      <trkpt lat="47.19379" lon="5.87587">
        <ele>281</ele>
        <time>2024-08-05T07:42:19Z</time>
      </trkpt>
      <trkpt lat="47.19375" lon="5.87586">
        <ele>281.2</ele>
        <time>2024-08-05T07:42:20Z</time>
      </trkpt>
      <trkpt lat="47.19372" lon="5.87586">
        <ele>281.2</ele>
        <time>2024-08-05T07:42:21Z</time>
      </trkpt>
      <trkpt lat="47.19369" lon="5.87586">
        <ele>281.2</ele>
        <time>2024-08-05T07:42:22Z</time>
      </trkpt>
      <trkpt lat="47.19366" lon="5.87586">
        <ele>281.6</ele>
        <time>2024-08-05T07:42:23Z</time>
      </trkpt>
      <trkpt lat="47.19363" lon="5.87587">
        <ele>281.8</ele>
        <time>2024-08-05T07:42:24Z</time>
      </trkpt>
      <trkpt lat="47.1936" lon="5.87587">
        <ele>282</ele>
        <time>2024-08-05T07:42:25Z</time>
      </trkpt>
      <trkpt lat="47.19357" lon="5.87587">
        <ele>282.2</ele>
        <time>2024-08-05T07:42:26Z</time>
      </trkpt>
      <trkpt lat="47.19354" lon="5.87587">
        <ele>282.4</ele>
        <time>2024-08-05T07:42:27Z</time>
      </trkpt>
      <trkpt lat="47.1935" lon="5.87588">
        <ele>282.6</ele>
        <time>2024-08-05T07:42:28Z</time>
      </trkpt>
      <trkpt lat="47.19348" lon="5.87588">
        <ele>282.8</ele>
        <time>2024-08-05T07:42:29Z</time>
      </trkpt>
      <trkpt lat="47.19345" lon="5.87588">
        <ele>283</ele>
        <time>2024-08-05T07:42:30Z</time>
      </trkpt>
      <trkpt lat="47.19342" lon="5.87588">
        <ele>283</ele>
        <time>2024-08-05T07:42:31Z</time>
      </trkpt>
      <trkpt lat="47.19339" lon="5.87588">
        <ele>283.2</ele>
        <time>2024-08-05T07:42:32Z</time>
      </trkpt>
      <trkpt lat="47.19335" lon="5.87588">
        <ele>283.6</ele>
        <time>2024-08-05T07:42:33Z</time>
      </trkpt>
      <trkpt lat="47.19332" lon="5.87589">
        <ele>283.8</ele>
        <time>2024-08-05T07:42:34Z</time>
      </trkpt>
      <trkpt lat="47.19329" lon="5.87589">
        <ele>283.8</ele>
        <time>2024-08-05T07:42:35Z</time>
      </trkpt>
      <trkpt lat="47.19327" lon="5.8759">
        <ele>284</ele>
        <time>2024-08-05T07:42:36Z</time>
      </trkpt>
      <trkpt lat="47.19323" lon="5.8759">
        <ele>284.2</ele>
        <time>2024-08-05T07:42:37Z</time>
      </trkpt>
      <trkpt lat="47.1932" lon="5.8759">
        <ele>284.4</ele>
        <time>2024-08-05T07:42:38Z</time>
      </trkpt>
      <trkpt lat="47.19318" lon="5.8759">
        <ele>284.8</ele>
        <time>2024-08-05T07:42:39Z</time>
      </trkpt>
      <trkpt lat="47.19315" lon="5.8759">
        <ele>284.8</ele>
        <time>2024-08-05T07:42:40Z</time>
      </trkpt>
      <trkpt lat="47.19312" lon="5.8759">
        <ele>285</ele>
        <time>2024-08-05T07:42:41Z</time>
      </trkpt>
      <trkpt lat="47.1931" lon="5.8759">
        <ele>285.2</ele>
        <time>2024-08-05T07:42:42Z</time>
      </trkpt>
      <trkpt lat="47.19308" lon="5.87589">
        <ele>285.4</ele>
        <time>2024-08-05T07:42:43Z</time>
      </trkpt>
      <trkpt lat="47.19306" lon="5.87588">
        <ele>285.4</ele>
        <time>2024-08-05T07:42:44Z</time>
      </trkpt>
      <trkpt lat="47.19305" lon="5.87587">
        <ele>285.4</ele>
        <time>2024-08-05T07:42:45Z</time>
      </trkpt>
      <trkpt lat="47.19304" lon="5.87585">
        <ele>285.4</ele>
        <time>2024-08-05T07:42:46Z</time>
      </trkpt>
      <trkpt lat="47.19303" lon="5.87584">
        <ele>285.6</ele>
        <time>2024-08-05T07:42:47Z</time>
      </trkpt>
      <trkpt lat="47.19303" lon="5.87583">
        <ele>285.4</ele>
        <time>2024-08-05T07:42:48Z</time>
      </trkpt>
      <trkpt lat="47.19302" lon="5.87582">
        <ele>285.6</ele>
        <time>2024-08-05T07:42:49Z</time>
      </trkpt>
      <trkpt lat="47.19302" lon="5.87581">
        <ele>285.6</ele>
        <time>2024-08-05T07:42:50Z</time>
      </trkpt>
      <trkpt lat="47.19302" lon="5.87579">
        <ele>285.6</ele>
        <time>2024-08-05T07:42:51Z</time>
      </trkpt>
      <trkpt lat="47.19301" lon="5.87577">
        <ele>285.6</ele>
        <time>2024-08-05T07:42:52Z</time>
      </trkpt>
      <trkpt lat="47.19301" lon="5.87574">
        <ele>285.6</ele>
        <time>2024-08-05T07:42:53Z</time>
      </trkpt>
      <trkpt lat="47.193" lon="5.87571">
        <ele>285.6</ele>
        <time>2024-08-05T07:42:54Z</time>
      </trkpt>
      <trkpt lat="47.19299" lon="5.87567">
        <ele>285.6</ele>
        <time>2024-08-05T07:42:55Z</time>
      </trkpt>
      <trkpt lat="47.19299" lon="5.87561">
        <ele>285.6</ele>
        <time>2024-08-05T07:42:56Z</time>
      </trkpt>
      <trkpt lat="47.19298" lon="5.87555">
        <ele>285.6</ele>
        <time>2024-08-05T07:42:57Z</time>
      </trkpt>
      <trkpt lat="47.19297" lon="5.87549">
        <ele>285.6</ele>
        <time>2024-08-05T07:42:58Z</time>
      </trkpt>
      <trkpt lat="47.19295" lon="5.87544">
        <ele>285.6</ele>
        <time>2024-08-05T07:42:59Z</time>
      </trkpt>
      <trkpt lat="47.19293" lon="5.87539">
        <ele>285.6</ele>
        <time>2024-08-05T07:43:00Z</time>
      </trkpt>
      <trkpt lat="47.19291" lon="5.87533">
        <ele>285.6</ele>
        <time>2024-08-05T07:43:01Z</time>
      </trkpt>
      <trkpt lat="47.19288" lon="5.87529">
        <ele>285.4</ele>
        <time>2024-08-05T07:43:02Z</time>
      </trkpt>
      <trkpt lat="47.19285" lon="5.87524">
        <ele>285.8</ele>
        <time>2024-08-05T07:43:03Z</time>
      </trkpt>
      <trkpt lat="47.19283" lon="5.87521">
        <ele>285.6</ele>
        <time>2024-08-05T07:43:04Z</time>
      </trkpt>
      <trkpt lat="47.19279" lon="5.87516">
        <ele>285.6</ele>
        <time>2024-08-05T07:43:05Z</time>
      </trkpt>
      <trkpt lat="47.19276" lon="5.87511">
        <ele>285.6</ele>
        <time>2024-08-05T07:43:06Z</time>
      </trkpt>
      <trkpt lat="47.19272" lon="5.87506">
        <ele>285.6</ele>
        <time>2024-08-05T07:43:07Z</time>
      </trkpt>
      <trkpt lat="47.19269" lon="5.87501">
        <ele>285.6</ele>
        <time>2024-08-05T07:43:08Z</time>
      </trkpt>
      <trkpt lat="47.19266" lon="5.87497">
        <ele>285.8</ele>
        <time>2024-08-05T07:43:09Z</time>
      </trkpt>
      <trkpt lat="47.19263" lon="5.87492">
        <ele>285.6</ele>
        <time>2024-08-05T07:43:10Z</time>
      </trkpt>
      <trkpt lat="47.1926" lon="5.87488">
        <ele>285.6</ele>
        <time>2024-08-05T07:43:11Z</time>
      </trkpt>
      <trkpt lat="47.19257" lon="5.87483">
        <ele>285.6</ele>
        <time>2024-08-05T07:43:12Z</time>
      </trkpt>
      <trkpt lat="47.19254" lon="5.87478">
        <ele>285.6</ele>
        <time>2024-08-05T07:43:13Z</time>
      </trkpt>
      <trkpt lat="47.1925" lon="5.87474">
        <ele>285.6</ele>
        <time>2024-08-05T07:43:14Z</time>
      </trkpt>
      <trkpt lat="47.19246" lon="5.87468">
        <ele>285.6</ele>
        <time>2024-08-05T07:43:15Z</time>
      </trkpt>
      <trkpt lat="47.19241" lon="5.87463">
        <ele>285.6</ele>
        <time>2024-08-05T07:43:16Z</time>
      </trkpt>
      <trkpt lat="47.19237" lon="5.87457">
        <ele>285.4</ele>
        <time>2024-08-05T07:43:17Z</time>
      </trkpt>
      <trkpt lat="47.19232" lon="5.87451">
        <ele>285.4</ele>
        <time>2024-08-05T07:43:18Z</time>
      </trkpt>
      <trkpt lat="47.19227" lon="5.87446">
        <ele>285.4</ele>
        <time>2024-08-05T07:43:19Z</time>
      </trkpt>
      <trkpt lat="47.19222" lon="5.8744">
        <ele>285.6</ele>
        <time>2024-08-05T07:43:20Z</time>
      </trkpt>
      <trkpt lat="47.19217" lon="5.87434">
        <ele>285.4</ele>
        <time>2024-08-05T07:43:21Z</time>
      </trkpt>
      <trkpt lat="47.19212" lon="5.87428">
        <ele>285.2</ele>
        <time>2024-08-05T07:43:22Z</time>
      </trkpt>
      <trkpt lat="47.19207" lon="5.87422">
        <ele>285.2</ele>
        <time>2024-08-05T07:43:23Z</time>
      </trkpt>
      <trkpt lat="47.19202" lon="5.87416">
        <ele>285.2</ele>
        <time>2024-08-05T07:43:24Z</time>
      </trkpt>
      <trkpt lat="47.19197" lon="5.8741">
        <ele>285</ele>
        <time>2024-08-05T07:43:25Z</time>
      </trkpt>
      <trkpt lat="47.19192" lon="5.87403">
        <ele>285</ele>
        <time>2024-08-05T07:43:26Z</time>
      </trkpt>
      <trkpt lat="47.19187" lon="5.87397">
        <ele>285</ele>
        <time>2024-08-05T07:43:27Z</time>
      </trkpt>
      <trkpt lat="47.19183" lon="5.8739">
        <ele>284.8</ele>
        <time>2024-08-05T07:43:28Z</time>
      </trkpt>
      <trkpt lat="47.19179" lon="5.87383">
        <ele>284.6</ele>
        <time>2024-08-05T07:43:29Z</time>
      </trkpt>
      <trkpt lat="47.19175" lon="5.87375">
        <ele>284.4</ele>
        <time>2024-08-05T07:43:30Z</time>
      </trkpt>
      <trkpt lat="47.1917" lon="5.87368">
        <ele>284.2</ele>
        <time>2024-08-05T07:43:31Z</time>
      </trkpt>
      <trkpt lat="47.19166" lon="5.87361">
        <ele>283.8</ele>
        <time>2024-08-05T07:43:32Z</time>
      </trkpt>
      <trkpt lat="47.19163" lon="5.87354">
        <ele>283.8</ele>
        <time>2024-08-05T07:43:33Z</time>
      </trkpt>
      <trkpt lat="47.1916" lon="5.87346">
        <ele>283.6</ele>
        <time>2024-08-05T07:43:34Z</time>
      </trkpt>
      <trkpt lat="47.19158" lon="5.87339">
        <ele>283.6</ele>
        <time>2024-08-05T07:43:35Z</time>
      </trkpt>
      <trkpt lat="47.19157" lon="5.87331">
        <ele>283.6</ele>
        <time>2024-08-05T07:43:36Z</time>
      </trkpt>
      <trkpt lat="47.19157" lon="5.87324">
        <ele>283.6</ele>
        <time>2024-08-05T07:43:37Z</time>
      </trkpt>
      <trkpt lat="47.19157" lon="5.87317">
        <ele>283.4</ele>
        <time>2024-08-05T07:43:38Z</time>
      </trkpt>
      <trkpt lat="47.19157" lon="5.87311">
        <ele>283.6</ele>
        <time>2024-08-05T07:43:39Z</time>
      </trkpt>
      <trkpt lat="47.19157" lon="5.87304">
        <ele>283.6</ele>
        <time>2024-08-05T07:43:40Z</time>
      </trkpt>
      <trkpt lat="47.19156" lon="5.87298">
        <ele>283.6</ele>
        <time>2024-08-05T07:43:41Z</time>
      </trkpt>
      <trkpt lat="47.19156" lon="5.8729">
        <ele>283.4</ele>
        <time>2024-08-05T07:43:42Z</time>
      </trkpt>
      <trkpt lat="47.19156" lon="5.87283">
        <ele>283.8</ele>
        <time>2024-08-05T07:43:43Z</time>
      </trkpt>
      <trkpt lat="47.19154" lon="5.87275">
        <ele>283.8</ele>
        <time>2024-08-05T07:43:44Z</time>
      </trkpt>
      <trkpt lat="47.19152" lon="5.87267">
        <ele>283.8</ele>
        <time>2024-08-05T07:43:45Z</time>
      </trkpt>
      <trkpt lat="47.1915" lon="5.8726">
        <ele>284.2</ele>
        <time>2024-08-05T07:43:46Z</time>
      </trkpt>
      <trkpt lat="47.19148" lon="5.87252">
        <ele>284.4</ele>
        <time>2024-08-05T07:43:47Z</time>
      </trkpt>
      <trkpt lat="47.19146" lon="5.87245">
        <ele>284.4</ele>
        <time>2024-08-05T07:43:48Z</time>
      </trkpt>
      <trkpt lat="47.19143" lon="5.87238">
        <ele>284.6</ele>
        <time>2024-08-05T07:43:49Z</time>
      </trkpt>
      <trkpt lat="47.19141" lon="5.87231">
        <ele>284.4</ele>
        <time>2024-08-05T07:43:50Z</time>
      </trkpt>
      <trkpt lat="47.19139" lon="5.87225">
        <ele>284.6</ele>
        <time>2024-08-05T07:43:51Z</time>
      </trkpt>
      <trkpt lat="47.19137" lon="5.8722">
        <ele>284.8</ele>
        <time>2024-08-05T07:43:52Z</time>
      </trkpt>
      <trkpt lat="47.19134" lon="5.87216">
        <ele>284.8</ele>
        <time>2024-08-05T07:43:53Z</time>
      </trkpt>
      <trkpt lat="47.19131" lon="5.87212">
        <ele>284.8</ele>
        <time>2024-08-05T07:43:54Z</time>
      </trkpt>
      <trkpt lat="47.19129" lon="5.87208">
        <ele>284.8</ele>
        <time>2024-08-05T07:43:55Z</time>
      </trkpt>
      <trkpt lat="47.19126" lon="5.87205">
        <ele>284.8</ele>
        <time>2024-08-05T07:43:56Z</time>
      </trkpt>
      <trkpt lat="47.19123" lon="5.87201">
        <ele>285</ele>
        <time>2024-08-05T07:43:57Z</time>
      </trkpt>
      <trkpt lat="47.1912" lon="5.87197">
        <ele>285</ele>
        <time>2024-08-05T07:43:58Z</time>
      </trkpt>
      <trkpt lat="47.19118" lon="5.87193">
        <ele>285</ele>
        <time>2024-08-05T07:43:59Z</time>
      </trkpt>
      <trkpt lat="47.19115" lon="5.87189">
        <ele>285</ele>
        <time>2024-08-05T07:44:00Z</time>
      </trkpt>
      <trkpt lat="47.19113" lon="5.87185">
        <ele>285</ele>
        <time>2024-08-05T07:44:01Z</time>
      </trkpt>
      <trkpt lat="47.1911" lon="5.87182">
        <ele>285</ele>
        <time>2024-08-05T07:44:02Z</time>
      </trkpt>
      <trkpt lat="47.19108" lon="5.87178">
        <ele>285.2</ele>
        <time>2024-08-05T07:44:03Z</time>
      </trkpt>
      <trkpt lat="47.19106" lon="5.87174">
        <ele>285.2</ele>
        <time>2024-08-05T07:44:04Z</time>
      </trkpt>
      <trkpt lat="47.19104" lon="5.8717">
        <ele>285.4</ele>
        <time>2024-08-05T07:44:05Z</time>
      </trkpt>
      <trkpt lat="47.19102" lon="5.87167">
        <ele>285.4</ele>
        <time>2024-08-05T07:44:06Z</time>
      </trkpt>
      <trkpt lat="47.191" lon="5.87164">
        <ele>285.8</ele>
        <time>2024-08-05T07:44:07Z</time>
      </trkpt>
      <trkpt lat="47.19099" lon="5.8716">
        <ele>285.8</ele>
        <time>2024-08-05T07:44:08Z</time>
      </trkpt>
      <trkpt lat="47.19096" lon="5.87156">
        <ele>286.2</ele>
        <time>2024-08-05T07:44:09Z</time>
      </trkpt>
      <trkpt lat="47.19094" lon="5.87152">
        <ele>286.4</ele>
        <time>2024-08-05T07:44:10Z</time>
      </trkpt>
      <trkpt lat="47.19091" lon="5.87148">
        <ele>286.4</ele>
        <time>2024-08-05T07:44:11Z</time>
      </trkpt>
      <trkpt lat="47.19088" lon="5.87143">
        <ele>286.6</ele>
        <time>2024-08-05T07:44:12Z</time>
      </trkpt>
      <trkpt lat="47.19085" lon="5.87139">
        <ele>286.4</ele>
        <time>2024-08-05T07:44:13Z</time>
      </trkpt>
      <trkpt lat="47.19082" lon="5.87134">
        <ele>286.6</ele>
        <time>2024-08-05T07:44:14Z</time>
      </trkpt>
      <trkpt lat="47.19079" lon="5.8713">
        <ele>286.6</ele>
        <time>2024-08-05T07:44:15Z</time>
      </trkpt>
      <trkpt lat="47.19077" lon="5.87126">
        <ele>286.6</ele>
        <time>2024-08-05T07:44:16Z</time>
      </trkpt>
      <trkpt lat="47.19075" lon="5.87123">
        <ele>286.8</ele>
        <time>2024-08-05T07:44:17Z</time>
      </trkpt>
      <trkpt lat="47.19072" lon="5.8712">
        <ele>286.6</ele>
        <time>2024-08-05T07:44:18Z</time>
      </trkpt>
      <trkpt lat="47.1907" lon="5.87118">
        <ele>286.8</ele>
        <time>2024-08-05T07:44:19Z</time>
      </trkpt>
      <trkpt lat="47.19068" lon="5.87118">
        <ele>286.8</ele>
        <time>2024-08-05T07:44:20Z</time>
      </trkpt>
      <trkpt lat="47.19066" lon="5.87118">
        <ele>286.8</ele>
        <time>2024-08-05T07:44:21Z</time>
      </trkpt>
      <trkpt lat="47.19064" lon="5.87118">
        <ele>286.8</ele>
        <time>2024-08-05T07:44:22Z</time>
      </trkpt>
      <trkpt lat="47.19061" lon="5.87119">
        <ele>286.8</ele>
        <time>2024-08-05T07:44:23Z</time>
      </trkpt>
      <trkpt lat="47.19057" lon="5.87119">
        <ele>286.8</ele>
        <time>2024-08-05T07:44:24Z</time>
      </trkpt>
      <trkpt lat="47.19054" lon="5.87119">
        <ele>286.8</ele>
        <time>2024-08-05T07:44:25Z</time>
      </trkpt>
      <trkpt lat="47.1905" lon="5.8712">
        <ele>286.8</ele>
        <time>2024-08-05T07:44:26Z</time>
      </trkpt>
      <trkpt lat="47.19046" lon="5.87121">
        <ele>286.8</ele>
        <time>2024-08-05T07:44:27Z</time>
      </trkpt>
      <trkpt lat="47.1904" lon="5.87122">
        <ele>286.6</ele>
        <time>2024-08-05T07:44:28Z</time>
      </trkpt>
      <trkpt lat="47.19035" lon="5.87124">
        <ele>286.6</ele>
        <time>2024-08-05T07:44:29Z</time>
      </trkpt>
      <trkpt lat="47.19031" lon="5.87125">
        <ele>286.8</ele>
        <time>2024-08-05T07:44:30Z</time>
      </trkpt>
      <trkpt lat="47.19026" lon="5.87127">
        <ele>286.8</ele>
        <time>2024-08-05T07:44:31Z</time>
      </trkpt>
      <trkpt lat="47.19021" lon="5.8713">
        <ele>286.6</ele>
        <time>2024-08-05T07:44:32Z</time>
      </trkpt>
      <trkpt lat="47.19017" lon="5.87132">
        <ele>286.8</ele>
        <time>2024-08-05T07:44:33Z</time>
      </trkpt>
      <trkpt lat="47.19012" lon="5.87135">
        <ele>286.8</ele>
        <time>2024-08-05T07:44:34Z</time>
      </trkpt>
      <trkpt lat="47.19008" lon="5.87138">
        <ele>286.6</ele>
        <time>2024-08-05T07:44:35Z</time>
      </trkpt>
      <trkpt lat="47.19003" lon="5.87141">
        <ele>286.6</ele>
        <time>2024-08-05T07:44:36Z</time>
      </trkpt>
      <trkpt lat="47.18998" lon="5.87144">
        <ele>286.6</ele>
        <time>2024-08-05T07:44:37Z</time>
      </trkpt>
      <trkpt lat="47.18992" lon="5.87147">
        <ele>286.6</ele>
        <time>2024-08-05T07:44:38Z</time>
      </trkpt>
      <trkpt lat="47.18987" lon="5.8715">
        <ele>286.6</ele>
        <time>2024-08-05T07:44:39Z</time>
      </trkpt>
      <trkpt lat="47.18981" lon="5.87152">
        <ele>286.4</ele>
        <time>2024-08-05T07:44:40Z</time>
      </trkpt>
      <trkpt lat="47.18974" lon="5.87154">
        <ele>286.4</ele>
        <time>2024-08-05T07:44:41Z</time>
      </trkpt>
      <trkpt lat="47.18966" lon="5.87155">
        <ele>286.2</ele>
        <time>2024-08-05T07:44:42Z</time>
      </trkpt>
      <trkpt lat="47.18959" lon="5.87156">
        <ele>286.2</ele>
        <time>2024-08-05T07:44:43Z</time>
      </trkpt>
      <trkpt lat="47.18953" lon="5.87156">
        <ele>286</ele>
        <time>2024-08-05T07:44:44Z</time>
      </trkpt>
      <trkpt lat="47.18947" lon="5.87156">
        <ele>285.8</ele>
        <time>2024-08-05T07:44:45Z</time>
      </trkpt>
      <trkpt lat="47.18941" lon="5.87155">
        <ele>285.6</ele>
        <time>2024-08-05T07:44:46Z</time>
      </trkpt>
      <trkpt lat="47.18936" lon="5.87153">
        <ele>285.4</ele>
        <time>2024-08-05T07:44:47Z</time>
      </trkpt>
      <trkpt lat="47.1893" lon="5.87151">
        <ele>285.4</ele>
        <time>2024-08-05T07:44:48Z</time>
      </trkpt>
      <trkpt lat="47.18925" lon="5.87148">
        <ele>285.2</ele>
        <time>2024-08-05T07:44:49Z</time>
      </trkpt>
      <trkpt lat="47.18921" lon="5.87144">
        <ele>285.2</ele>
        <time>2024-08-05T07:44:50Z</time>
      </trkpt>
      <trkpt lat="47.18916" lon="5.8714">
        <ele>285.2</ele>
        <time>2024-08-05T07:44:51Z</time>
      </trkpt>
      <trkpt lat="47.18912" lon="5.87136">
        <ele>285</ele>
        <time>2024-08-05T07:44:52Z</time>
      </trkpt>
      <trkpt lat="47.18909" lon="5.87132">
        <ele>285</ele>
        <time>2024-08-05T07:44:53Z</time>
      </trkpt>
      <trkpt lat="47.18906" lon="5.87128">
        <ele>285.2</ele>
        <time>2024-08-05T07:44:54Z</time>
      </trkpt>
      <trkpt lat="47.18903" lon="5.87123">
        <ele>285.2</ele>
        <time>2024-08-05T07:44:55Z</time>
      </trkpt>
      <trkpt lat="47.189" lon="5.87119">
        <ele>285.2</ele>
        <time>2024-08-05T07:44:56Z</time>
      </trkpt>
      <trkpt lat="47.18897" lon="5.87113">
        <ele>285.2</ele>
        <time>2024-08-05T07:44:57Z</time>
      </trkpt>
      <trkpt lat="47.18894" lon="5.87107">
        <ele>285</ele>
        <time>2024-08-05T07:44:58Z</time>
      </trkpt>
      <trkpt lat="47.18892" lon="5.87102">
        <ele>285</ele>
        <time>2024-08-05T07:44:59Z</time>
      </trkpt>
      <trkpt lat="47.18889" lon="5.87097">
        <ele>285.4</ele>
        <time>2024-08-05T07:45:00Z</time>
      </trkpt>
      <trkpt lat="47.18887" lon="5.87092">
        <ele>285.4</ele>
        <time>2024-08-05T07:45:01Z</time>
      </trkpt>
      <trkpt lat="47.18885" lon="5.87087">
        <ele>285.6</ele>
        <time>2024-08-05T07:45:02Z</time>
      </trkpt>
      <trkpt lat="47.18882" lon="5.87083">
        <ele>285.6</ele>
        <time>2024-08-05T07:45:03Z</time>
      </trkpt>
      <trkpt lat="47.1888" lon="5.87076">
        <ele>286</ele>
        <time>2024-08-05T07:45:04Z</time>
      </trkpt>
      <trkpt lat="47.18877" lon="5.8707">
        <ele>286.2</ele>
        <time>2024-08-05T07:45:05Z</time>
      </trkpt>
      <trkpt lat="47.18874" lon="5.87064">
        <ele>286.2</ele>
        <time>2024-08-05T07:45:06Z</time>
      </trkpt>
      <trkpt lat="47.18871" lon="5.87057">
        <ele>286.4</ele>
        <time>2024-08-05T07:45:07Z</time>
      </trkpt>
      <trkpt lat="47.18866" lon="5.87051">
        <ele>286.4</ele>
        <time>2024-08-05T07:45:08Z</time>
      </trkpt>
      <trkpt lat="47.18862" lon="5.87044">
        <ele>286.2</ele>
        <time>2024-08-05T07:45:09Z</time>
      </trkpt>
      <trkpt lat="47.18857" lon="5.87037">
        <ele>286.4</ele>
        <time>2024-08-05T07:45:10Z</time>
      </trkpt>
      <trkpt lat="47.18853" lon="5.87029">
        <ele>286.4</ele>
        <time>2024-08-05T07:45:11Z</time>
      </trkpt>
      <trkpt lat="47.18849" lon="5.87023">
        <ele>286.4</ele>
        <time>2024-08-05T07:45:12Z</time>
      </trkpt>
      <trkpt lat="47.18846" lon="5.87014">
        <ele>286.4</ele>
        <time>2024-08-05T07:45:13Z</time>
      </trkpt>
      <trkpt lat="47.18844" lon="5.87007">
        <ele>286.4</ele>
        <time>2024-08-05T07:45:14Z</time>
      </trkpt>
      <trkpt lat="47.18841" lon="5.86999">
        <ele>286.4</ele>
        <time>2024-08-05T07:45:15Z</time>
      </trkpt>
      <trkpt lat="47.1884" lon="5.86989">
        <ele>286.4</ele>
        <time>2024-08-05T07:45:16Z</time>
      </trkpt>
      <trkpt lat="47.18838" lon="5.86981">
        <ele>286.4</ele>
        <time>2024-08-05T07:45:17Z</time>
      </trkpt>
      <trkpt lat="47.18838" lon="5.86973">
        <ele>286.4</ele>
        <time>2024-08-05T07:45:18Z</time>
      </trkpt>
      <trkpt lat="47.18838" lon="5.86964">
        <ele>286.2</ele>
        <time>2024-08-05T07:45:19Z</time>
      </trkpt>
      <trkpt lat="47.18835" lon="5.86954">
        <ele>286</ele>
        <time>2024-08-05T07:45:20Z</time>
      </trkpt>
      <trkpt lat="47.18832" lon="5.86945">
        <ele>285.6</ele>
        <time>2024-08-05T07:45:21Z</time>
      </trkpt>
      <trkpt lat="47.1883" lon="5.86938">
        <ele>285.6</ele>
        <time>2024-08-05T07:45:22Z</time>
      </trkpt>
      <trkpt lat="47.18828" lon="5.8693">
        <ele>285</ele>
        <time>2024-08-05T07:45:23Z</time>
      </trkpt>
      <trkpt lat="47.18826" lon="5.86923">
        <ele>284.8</ele>
        <time>2024-08-05T07:45:24Z</time>
      </trkpt>
      <trkpt lat="47.18824" lon="5.86916">
        <ele>284.8</ele>
        <time>2024-08-05T07:45:25Z</time>
      </trkpt>
      <trkpt lat="47.18822" lon="5.8691">
        <ele>284.4</ele>
        <time>2024-08-05T07:45:26Z</time>
      </trkpt>
      <trkpt lat="47.18818" lon="5.86902">
        <ele>284.2</ele>
        <time>2024-08-05T07:45:27Z</time>
      </trkpt>
      <trkpt lat="47.18817" lon="5.86895">
        <ele>284.4</ele>
        <time>2024-08-05T07:45:28Z</time>
      </trkpt>
      <trkpt lat="47.18815" lon="5.86888">
        <ele>284.2</ele>
        <time>2024-08-05T07:45:29Z</time>
      </trkpt>
      <trkpt lat="47.18813" lon="5.8688">
        <ele>284</ele>
        <time>2024-08-05T07:45:30Z</time>
      </trkpt>
      <trkpt lat="47.18811" lon="5.86873">
        <ele>284</ele>
        <time>2024-08-05T07:45:31Z</time>
      </trkpt>
      <trkpt lat="47.18809" lon="5.86866">
        <ele>284</ele>
        <time>2024-08-05T07:45:32Z</time>
      </trkpt>
      <trkpt lat="47.18806" lon="5.86857">
        <ele>283.6</ele>
        <time>2024-08-05T07:45:33Z</time>
      </trkpt>
      <trkpt lat="47.18802" lon="5.86849">
        <ele>283.4</ele>
        <time>2024-08-05T07:45:34Z</time>
      </trkpt>
      <trkpt lat="47.18798" lon="5.86838">
        <ele>283.4</ele>
        <time>2024-08-05T07:45:35Z</time>
      </trkpt>
      <trkpt lat="47.18795" lon="5.86829">
        <ele>283.4</ele>
        <time>2024-08-05T07:45:36Z</time>
      </trkpt>
      <trkpt lat="47.18792" lon="5.86821">
        <ele>283.4</ele>
        <time>2024-08-05T07:45:37Z</time>
      </trkpt>
      <trkpt lat="47.18789" lon="5.86813">
        <ele>283.4</ele>
        <time>2024-08-05T07:45:38Z</time>
      </trkpt>
      <trkpt lat="47.18787" lon="5.86805">
        <ele>283.2</ele>
        <time>2024-08-05T07:45:39Z</time>
      </trkpt>
      <trkpt lat="47.18784" lon="5.86797">
        <ele>283.2</ele>
        <time>2024-08-05T07:45:40Z</time>
      </trkpt>
      <trkpt lat="47.18781" lon="5.8679">
        <ele>283.2</ele>
        <time>2024-08-05T07:45:41Z</time>
      </trkpt>
      <trkpt lat="47.18778" lon="5.86783">
        <ele>283</ele>
        <time>2024-08-05T07:45:42Z</time>
      </trkpt>
      <trkpt lat="47.18775" lon="5.86777">
        <ele>283</ele>
        <time>2024-08-05T07:45:43Z</time>
      </trkpt>
      <trkpt lat="47.18774" lon="5.8677">
        <ele>282.8</ele>
        <time>2024-08-05T07:45:44Z</time>
      </trkpt>
      <trkpt lat="47.18772" lon="5.86763">
        <ele>282.8</ele>
        <time>2024-08-05T07:45:45Z</time>
      </trkpt>
      <trkpt lat="47.1877" lon="5.86757">
        <ele>282.8</ele>
        <time>2024-08-05T07:45:46Z</time>
      </trkpt>
      <trkpt lat="47.1877" lon="5.86751">
        <ele>282.8</ele>
        <time>2024-08-05T07:45:47Z</time>
      </trkpt>
      <trkpt lat="47.18768" lon="5.86745">
        <ele>282.6</ele>
        <time>2024-08-05T07:45:48Z</time>
      </trkpt>
      <trkpt lat="47.18768" lon="5.8674">
        <ele>282.6</ele>
        <time>2024-08-05T07:45:49Z</time>
      </trkpt>
      <trkpt lat="47.18768" lon="5.86736">
        <ele>282.4</ele>
        <time>2024-08-05T07:45:50Z</time>
      </trkpt>
      <trkpt lat="47.18767" lon="5.86732">
        <ele>282.2</ele>
        <time>2024-08-05T07:45:51Z</time>
      </trkpt>
      <trkpt lat="47.18767" lon="5.86727">
        <ele>282.2</ele>
        <time>2024-08-05T07:45:52Z</time>
      </trkpt>
      <trkpt lat="47.18764" lon="5.8672">
        <ele>282.2</ele>
        <time>2024-08-05T07:45:53Z</time>
      </trkpt>
      <trkpt lat="47.18761" lon="5.86714">
        <ele>282</ele>
        <time>2024-08-05T07:45:54Z</time>
      </trkpt>
      <trkpt lat="47.18758" lon="5.86707">
        <ele>282</ele>
        <time>2024-08-05T07:45:55Z</time>
      </trkpt>
      <trkpt lat="47.18757" lon="5.86702">
        <ele>282</ele>
        <time>2024-08-05T07:45:56Z</time>
      </trkpt>
      <trkpt lat="47.18756" lon="5.86698">
        <ele>282</ele>
        <time>2024-08-05T07:45:57Z</time>
      </trkpt>
      <trkpt lat="47.18755" lon="5.86693">
        <ele>282.2</ele>
        <time>2024-08-05T07:45:58Z</time>
      </trkpt>
      <trkpt lat="47.18752" lon="5.86687">
        <ele>282.2</ele>
        <time>2024-08-05T07:45:59Z</time>
      </trkpt>
      <trkpt lat="47.18749" lon="5.86682">
        <ele>282</ele>
        <time>2024-08-05T07:46:00Z</time>
      </trkpt>
      <trkpt lat="47.18747" lon="5.86677">
        <ele>282</ele>
        <time>2024-08-05T07:46:01Z</time>
      </trkpt>
      <trkpt lat="47.18745" lon="5.86672">
        <ele>282</ele>
        <time>2024-08-05T07:46:02Z</time>
      </trkpt>
      <trkpt lat="47.18743" lon="5.86667">
        <ele>281.8</ele>
        <time>2024-08-05T07:46:03Z</time>
      </trkpt>
      <trkpt lat="47.18742" lon="5.86663">
        <ele>281.8</ele>
        <time>2024-08-05T07:46:04Z</time>
      </trkpt>
      <trkpt lat="47.1874" lon="5.8666">
        <ele>281.8</ele>
        <time>2024-08-05T07:46:05Z</time>
      </trkpt>
      <trkpt lat="47.18739" lon="5.86657">
        <ele>282</ele>
        <time>2024-08-05T07:46:06Z</time>
      </trkpt>
      <trkpt lat="47.18738" lon="5.86655">
        <ele>281.8</ele>
        <time>2024-08-05T07:46:07Z</time>
      </trkpt>
      <trkpt lat="47.18735" lon="5.86651">
        <ele>281.8</ele>
        <time>2024-08-05T07:46:08Z</time>
      </trkpt>
      <trkpt lat="47.18734" lon="5.86649">
        <ele>281.8</ele>
        <time>2024-08-05T07:46:09Z</time>
      </trkpt>
      <trkpt lat="47.18732" lon="5.86647">
        <ele>281.8</ele>
        <time>2024-08-05T07:46:10Z</time>
      </trkpt>
      <trkpt lat="47.18731" lon="5.86646">
        <ele>281.6</ele>
        <time>2024-08-05T07:46:11Z</time>
      </trkpt>
      <trkpt lat="47.18732" lon="5.86646">
        <ele>281.6</ele>
        <time>2024-08-05T07:46:12Z</time>
      </trkpt>
      <trkpt lat="47.18732" lon="5.86646">
        <ele>281.6</ele>
        <time>2024-08-05T07:46:13Z</time>
      </trkpt>
      <trkpt lat="47.18733" lon="5.86646">
        <ele>281.4</ele>
        <time>2024-08-05T07:46:14Z</time>
      </trkpt>
      <trkpt lat="47.18733" lon="5.86646">
        <ele>281.4</ele>
        <time>2024-08-05T07:46:15Z</time>
      </trkpt>
      <trkpt lat="47.18733" lon="5.86646">
        <ele>281.4</ele>
        <time>2024-08-05T07:46:16Z</time>
      </trkpt>
      <trkpt lat="47.18733" lon="5.86646">
        <ele>281.4</ele>
        <time>2024-08-05T07:46:17Z</time>
      </trkpt>
      <trkpt lat="47.18733" lon="5.86646">
        <ele>281.4</ele>
        <time>2024-08-05T07:46:18Z</time>
      </trkpt>
      <trkpt lat="47.18732" lon="5.86646">
        <ele>281.4</ele>
        <time>2024-08-05T07:46:19Z</time>
      </trkpt>
      <trkpt lat="47.18731" lon="5.86645">
        <ele>281.4</ele>
        <time>2024-08-05T07:46:20Z</time>
      </trkpt>
      <trkpt lat="47.1873" lon="5.86644">
        <ele>281.2</ele>
        <time>2024-08-05T07:46:21Z</time>
      </trkpt>
      <trkpt lat="47.18729" lon="5.86643">
        <ele>281.4</ele>
        <time>2024-08-05T07:46:22Z</time>
      </trkpt>
      <trkpt lat="47.18728" lon="5.86642">
        <ele>281.2</ele>
        <time>2024-08-05T07:46:23Z</time>
      </trkpt>
      <trkpt lat="47.18726" lon="5.86641">
        <ele>281.2</ele>
        <time>2024-08-05T07:46:24Z</time>
      </trkpt>
      <trkpt lat="47.18725" lon="5.86641">
        <ele>281.2</ele>
        <time>2024-08-05T07:46:25Z</time>
      </trkpt>
      <trkpt lat="47.18724" lon="5.86641">
        <ele>281.4</ele>
        <time>2024-08-05T07:46:26Z</time>
      </trkpt>
      <trkpt lat="47.18723" lon="5.86641">
        <ele>281.4</ele>
        <time>2024-08-05T07:46:27Z</time>
      </trkpt>
      <trkpt lat="47.18722" lon="5.86641">
        <ele>281.2</ele>
        <time>2024-08-05T07:46:28Z</time>
      </trkpt>
      <trkpt lat="47.18721" lon="5.86641">
        <ele>281.2</ele>
        <time>2024-08-05T07:46:29Z</time>
      </trkpt>
      <trkpt lat="47.18721" lon="5.8664">
        <ele>281.2</ele>
        <time>2024-08-05T07:46:30Z</time>
      </trkpt>
      <trkpt lat="47.1872" lon="5.8664">
        <ele>281.2</ele>
        <time>2024-08-05T07:46:31Z</time>
      </trkpt>
      <trkpt lat="47.1872" lon="5.8664">
        <ele>281.2</ele>
        <time>2024-08-05T07:46:32Z</time>
      </trkpt>
      <trkpt lat="47.1872" lon="5.86639">
        <ele>281.4</ele>
        <time>2024-08-05T07:46:33Z</time>
      </trkpt>
      <trkpt lat="47.18719" lon="5.86638">
        <ele>281.2</ele>
        <time>2024-08-05T07:46:34Z</time>
      </trkpt>
      <trkpt lat="47.18719" lon="5.86638">
        <ele>281.4</ele>
        <time>2024-08-05T07:46:35Z</time>
      </trkpt>
      <trkpt lat="47.18718" lon="5.86637">
        <ele>281.4</ele>
        <time>2024-08-05T07:46:36Z</time>
      </trkpt>
      <trkpt lat="47.18718" lon="5.86637">
        <ele>281.2</ele>
        <time>2024-08-05T07:46:37Z</time>
      </trkpt>
      <trkpt lat="47.18719" lon="5.86636">
        <ele>281.2</ele>
        <time>2024-08-05T07:46:38Z</time>
      </trkpt>
      <trkpt lat="47.18719" lon="5.86636">
        <ele>281.2</ele>
        <time>2024-08-05T07:46:39Z</time>
      </trkpt>
      <trkpt lat="47.18719" lon="5.86636">
        <ele>281.2</ele>
        <time>2024-08-05T07:46:40Z</time>
      </trkpt>
      <trkpt lat="47.18719" lon="5.86636">
        <ele>281.2</ele>
        <time>2024-08-05T07:46:41Z</time>
      </trkpt>
      <trkpt lat="47.18719" lon="5.86635">
        <ele>281.4</ele>
        <time>2024-08-05T07:46:42Z</time>
      </trkpt>
      <trkpt lat="47.18719" lon="5.86635">
        <ele>281.2</ele>
        <time>2024-08-05T07:46:43Z</time>
      </trkpt>
      <trkpt lat="47.1872" lon="5.86636">
        <ele>281.4</ele>
        <time>2024-08-05T07:46:44Z</time>
      </trkpt>
      <trkpt lat="47.18721" lon="5.86637">
        <ele>281.2</ele>
        <time>2024-08-05T07:46:45Z</time>
      </trkpt>
      <trkpt lat="47.18722" lon="5.86638">
        <ele>281.4</ele>
        <time>2024-08-05T07:46:46Z</time>
      </trkpt>
      <trkpt lat="47.18723" lon="5.86639">
        <ele>281.2</ele>
        <time>2024-08-05T07:46:47Z</time>
      </trkpt>
      <trkpt lat="47.18724" lon="5.8664">
        <ele>281.4</ele>
        <time>2024-08-05T07:46:48Z</time>
      </trkpt>
      <trkpt lat="47.18724" lon="5.8664">
        <ele>281.2</ele>
        <time>2024-08-05T07:46:49Z</time>
      </trkpt>
      <trkpt lat="47.18724" lon="5.8664">
        <ele>281.2</ele>
        <time>2024-08-05T07:46:50Z</time>
      </trkpt>
      <trkpt lat="47.18724" lon="5.86641">
        <ele>281.4</ele>
        <time>2024-08-05T07:46:51Z</time>
      </trkpt>
      <trkpt lat="47.18724" lon="5.8664">
        <ele>281.2</ele>
        <time>2024-08-05T07:46:52Z</time>
      </trkpt>
      <trkpt lat="47.18724" lon="5.8664">
        <ele>281.2</ele>
        <time>2024-08-05T07:46:53Z</time>
      </trkpt>
      <trkpt lat="47.18725" lon="5.8664">
        <ele>281.2</ele>
        <time>2024-08-05T07:46:54Z</time>
      </trkpt>
      <trkpt lat="47.18724" lon="5.86639">
        <ele>281.2</ele>
        <time>2024-08-05T07:46:55Z</time>
      </trkpt>
      <trkpt lat="47.18724" lon="5.86637">
        <ele>281.2</ele>
        <time>2024-08-05T07:46:56Z</time>
      </trkpt>
      <trkpt lat="47.18724" lon="5.86635">
        <ele>281.4</ele>
        <time>2024-08-05T07:46:57Z</time>
      </trkpt>
      <trkpt lat="47.18723" lon="5.86633">
        <ele>281.4</ele>
        <time>2024-08-05T07:46:58Z</time>
      </trkpt>
      <trkpt lat="47.18723" lon="5.8663">
        <ele>281.4</ele>
        <time>2024-08-05T07:46:59Z</time>
      </trkpt>
      <trkpt lat="47.18721" lon="5.86624">
        <ele>281.4</ele>
        <time>2024-08-05T07:47:00Z</time>
      </trkpt>
      <trkpt lat="47.18719" lon="5.8662">
        <ele>281.4</ele>
        <time>2024-08-05T07:47:01Z</time>
      </trkpt>
      <trkpt lat="47.18717" lon="5.86615">
        <ele>281.4</ele>
        <time>2024-08-05T07:47:02Z</time>
      </trkpt>
      <trkpt lat="47.18716" lon="5.86611">
        <ele>281.4</ele>
        <time>2024-08-05T07:47:03Z</time>
      </trkpt>
      <trkpt lat="47.18714" lon="5.86606">
        <ele>281.4</ele>
        <time>2024-08-05T07:47:04Z</time>
      </trkpt>
      <trkpt lat="47.18713" lon="5.86602">
        <ele>281.6</ele>
        <time>2024-08-05T07:47:05Z</time>
      </trkpt>
      <trkpt lat="47.18711" lon="5.86599">
        <ele>281.6</ele>
        <time>2024-08-05T07:47:06Z</time>
      </trkpt>
      <trkpt lat="47.1871" lon="5.86595">
        <ele>281.4</ele>
        <time>2024-08-05T07:47:07Z</time>
      </trkpt>
      <trkpt lat="47.18709" lon="5.86591">
        <ele>281.4</ele>
        <time>2024-08-05T07:47:08Z</time>
      </trkpt>
      <trkpt lat="47.18707" lon="5.86587">
        <ele>281.6</ele>
        <time>2024-08-05T07:47:09Z</time>
      </trkpt>
      <trkpt lat="47.18703" lon="5.86582">
        <ele>281.6</ele>
        <time>2024-08-05T07:47:10Z</time>
      </trkpt>
      <trkpt lat="47.187" lon="5.86576">
        <ele>281.6</ele>
        <time>2024-08-05T07:47:11Z</time>
      </trkpt>
      <trkpt lat="47.18697" lon="5.86569">
        <ele>281.6</ele>
        <time>2024-08-05T07:47:12Z</time>
      </trkpt>
      <trkpt lat="47.18694" lon="5.86561">
        <ele>281.6</ele>
        <time>2024-08-05T07:47:13Z</time>
      </trkpt>
      <trkpt lat="47.18691" lon="5.86553">
        <ele>281.8</ele>
        <time>2024-08-05T07:47:14Z</time>
      </trkpt>
      <trkpt lat="47.18689" lon="5.86547">
        <ele>282</ele>
        <time>2024-08-05T07:47:15Z</time>
      </trkpt>
      <trkpt lat="47.18685" lon="5.8654">
        <ele>282</ele>
        <time>2024-08-05T07:47:16Z</time>
      </trkpt>
      <trkpt lat="47.18681" lon="5.86534">
        <ele>282</ele>
        <time>2024-08-05T07:47:17Z</time>
      </trkpt>
      <trkpt lat="47.18679" lon="5.86529">
        <ele>282</ele>
        <time>2024-08-05T07:47:18Z</time>
      </trkpt>
      <trkpt lat="47.18677" lon="5.86525">
        <ele>282</ele>
        <time>2024-08-05T07:47:19Z</time>
      </trkpt>
      <trkpt lat="47.18676" lon="5.86519">
        <ele>282</ele>
        <time>2024-08-05T07:47:20Z</time>
      </trkpt>
      <trkpt lat="47.18672" lon="5.86512">
        <ele>282</ele>
        <time>2024-08-05T07:47:21Z</time>
      </trkpt>
      <trkpt lat="47.1867" lon="5.86506">
        <ele>282</ele>
        <time>2024-08-05T07:47:22Z</time>
      </trkpt>
      <trkpt lat="47.18668" lon="5.86501">
        <ele>282</ele>
        <time>2024-08-05T07:47:23Z</time>
      </trkpt>
      <trkpt lat="47.18666" lon="5.86497">
        <ele>282</ele>
        <time>2024-08-05T07:47:24Z</time>
      </trkpt>
      <trkpt lat="47.18663" lon="5.86491">
        <ele>281.8</ele>
        <time>2024-08-05T07:47:25Z</time>
      </trkpt>
      <trkpt lat="47.1866" lon="5.86485">
        <ele>282</ele>
        <time>2024-08-05T07:47:26Z</time>
      </trkpt>
      <trkpt lat="47.18656" lon="5.86479">
        <ele>281.6</ele>
        <time>2024-08-05T07:47:27Z</time>
      </trkpt>
      <trkpt lat="47.18654" lon="5.86476">
        <ele>281.6</ele>
        <time>2024-08-05T07:47:28Z</time>
      </trkpt>
      <trkpt lat="47.18652" lon="5.86471">
        <ele>281.6</ele>
        <time>2024-08-05T07:47:29Z</time>
      </trkpt>
      <trkpt lat="47.18652" lon="5.86467">
        <ele>281.4</ele>
        <time>2024-08-05T07:47:30Z</time>
      </trkpt>
      <trkpt lat="47.18648" lon="5.86461">
        <ele>281.4</ele>
        <time>2024-08-05T07:47:31Z</time>
      </trkpt>
      <trkpt lat="47.18645" lon="5.86455">
        <ele>281.4</ele>
        <time>2024-08-05T07:47:32Z</time>
      </trkpt>
      <trkpt lat="47.18642" lon="5.86449">
        <ele>281.2</ele>
        <time>2024-08-05T07:47:33Z</time>
      </trkpt>
      <trkpt lat="47.1864" lon="5.86446">
        <ele>281.2</ele>
        <time>2024-08-05T07:47:34Z</time>
      </trkpt>
      <trkpt lat="47.18637" lon="5.86443">
        <ele>281</ele>
        <time>2024-08-05T07:47:35Z</time>
      </trkpt>
      <trkpt lat="47.18635" lon="5.8644">
        <ele>281</ele>
        <time>2024-08-05T07:47:36Z</time>
      </trkpt>
      <trkpt lat="47.18632" lon="5.86435">
        <ele>281</ele>
        <time>2024-08-05T07:47:37Z</time>
      </trkpt>
      <trkpt lat="47.1863" lon="5.8643">
        <ele>280.8</ele>
        <time>2024-08-05T07:47:38Z</time>
      </trkpt>
      <trkpt lat="47.18628" lon="5.86425">
        <ele>280.6</ele>
        <time>2024-08-05T07:47:39Z</time>
      </trkpt>
      <trkpt lat="47.18626" lon="5.8642">
        <ele>280.6</ele>
        <time>2024-08-05T07:47:40Z</time>
      </trkpt>
      <trkpt lat="47.18623" lon="5.86414">
        <ele>280.4</ele>
        <time>2024-08-05T07:47:41Z</time>
      </trkpt>
      <trkpt lat="47.18622" lon="5.8641">
        <ele>280.4</ele>
        <time>2024-08-05T07:47:42Z</time>
      </trkpt>
      <trkpt lat="47.1862" lon="5.86406">
        <ele>280.2</ele>
        <time>2024-08-05T07:47:43Z</time>
      </trkpt>
      <trkpt lat="47.18617" lon="5.86404">
        <ele>280</ele>
        <time>2024-08-05T07:47:44Z</time>
      </trkpt>
      <trkpt lat="47.1861" lon="5.86399">
        <ele>280</ele>
        <time>2024-08-05T07:47:45Z</time>
      </trkpt>
      <trkpt lat="47.18602" lon="5.86395">
        <ele>279.8</ele>
        <time>2024-08-05T07:47:46Z</time>
      </trkpt>
      <trkpt lat="47.18588" lon="5.86393">
        <ele>279.8</ele>
        <time>2024-08-05T07:47:47Z</time>
      </trkpt>
      <trkpt lat="47.18578" lon="5.8639">
        <ele>279.6</ele>
        <time>2024-08-05T07:47:48Z</time>
      </trkpt>
      <trkpt lat="47.18571" lon="5.86387">
        <ele>279.4</ele>
        <time>2024-08-05T07:47:49Z</time>
      </trkpt>
      <trkpt lat="47.18567" lon="5.86384">
        <ele>279.2</ele>
        <time>2024-08-05T07:47:50Z</time>
      </trkpt>
      <trkpt lat="47.1856" lon="5.86379">
        <ele>279</ele>
        <time>2024-08-05T07:47:51Z</time>
      </trkpt>
      <trkpt lat="47.18552" lon="5.86373">
        <ele>278.8</ele>
        <time>2024-08-05T07:47:52Z</time>
      </trkpt>
      <trkpt lat="47.18542" lon="5.86368">
        <ele>278.6</ele>
        <time>2024-08-05T07:47:53Z</time>
      </trkpt>
      <trkpt lat="47.18532" lon="5.86364">
        <ele>278.4</ele>
        <time>2024-08-05T07:47:54Z</time>
      </trkpt>
      <trkpt lat="47.18525" lon="5.8636">
        <ele>278.2</ele>
        <time>2024-08-05T07:47:55Z</time>
      </trkpt>
      <trkpt lat="47.18518" lon="5.86357">
        <ele>277.6</ele>
        <time>2024-08-05T07:47:56Z</time>
      </trkpt>
      <trkpt lat="47.18511" lon="5.86354">
        <ele>277.4</ele>
        <time>2024-08-05T07:47:57Z</time>
      </trkpt>
      <trkpt lat="47.18504" lon="5.86351">
        <ele>277.2</ele>
        <time>2024-08-05T07:47:58Z</time>
      </trkpt>
      <trkpt lat="47.18498" lon="5.86347">
        <ele>277</ele>
        <time>2024-08-05T07:47:59Z</time>
      </trkpt>
      <trkpt lat="47.18493" lon="5.86343">
        <ele>277</ele>
        <time>2024-08-05T07:48:00Z</time>
      </trkpt>
      <trkpt lat="47.18488" lon="5.86339">
        <ele>276.8</ele>
        <time>2024-08-05T07:48:01Z</time>
      </trkpt>
      <trkpt lat="47.18482" lon="5.86335">
        <ele>276.8</ele>
        <time>2024-08-05T07:48:02Z</time>
      </trkpt>
      <trkpt lat="47.18476" lon="5.8633">
        <ele>276.2</ele>
        <time>2024-08-05T07:48:03Z</time>
      </trkpt>
      <trkpt lat="47.18471" lon="5.86325">
        <ele>276.2</ele>
        <time>2024-08-05T07:48:04Z</time>
      </trkpt>
      <trkpt lat="47.18465" lon="5.8632">
        <ele>275.8</ele>
        <time>2024-08-05T07:48:05Z</time>
      </trkpt>
      <trkpt lat="47.18459" lon="5.86315">
        <ele>275.8</ele>
        <time>2024-08-05T07:48:06Z</time>
      </trkpt>
      <trkpt lat="47.18454" lon="5.8631">
        <ele>275.6</ele>
        <time>2024-08-05T07:48:07Z</time>
      </trkpt>
      <trkpt lat="47.1845" lon="5.86304">
        <ele>275.4</ele>
        <time>2024-08-05T07:48:08Z</time>
      </trkpt>
      <trkpt lat="47.18445" lon="5.86299">
        <ele>275.4</ele>
        <time>2024-08-05T07:48:09Z</time>
      </trkpt>
      <trkpt lat="47.18443" lon="5.86295">
        <ele>275.2</ele>
        <time>2024-08-05T07:48:10Z</time>
      </trkpt>
      <trkpt lat="47.1844" lon="5.86291">
        <ele>275.2</ele>
        <time>2024-08-05T07:48:11Z</time>
      </trkpt>
      <trkpt lat="47.18438" lon="5.86287">
        <ele>275</ele>
        <time>2024-08-05T07:48:12Z</time>
      </trkpt>
      <trkpt lat="47.18437" lon="5.86282">
        <ele>275</ele>
        <time>2024-08-05T07:48:13Z</time>
      </trkpt>
      <trkpt lat="47.18434" lon="5.86276">
        <ele>275</ele>
        <time>2024-08-05T07:48:14Z</time>
      </trkpt>
      <trkpt lat="47.18432" lon="5.86271">
        <ele>274.8</ele>
        <time>2024-08-05T07:48:15Z</time>
      </trkpt>
      <trkpt lat="47.18432" lon="5.86266">
        <ele>274.8</ele>
        <time>2024-08-05T07:48:16Z</time>
      </trkpt>
      <trkpt lat="47.18432" lon="5.86262">
        <ele>275</ele>
        <time>2024-08-05T07:48:17Z</time>
      </trkpt>
      <trkpt lat="47.18431" lon="5.86258">
        <ele>274.8</ele>
        <time>2024-08-05T07:48:18Z</time>
      </trkpt>
      <trkpt lat="47.18427" lon="5.86252">
        <ele>274.6</ele>
        <time>2024-08-05T07:48:19Z</time>
      </trkpt>
      <trkpt lat="47.18424" lon="5.86245">
        <ele>274.8</ele>
        <time>2024-08-05T07:48:20Z</time>
      </trkpt>
      <trkpt lat="47.18421" lon="5.86239">
        <ele>274.6</ele>
        <time>2024-08-05T07:48:21Z</time>
      </trkpt>
      <trkpt lat="47.18418" lon="5.86234">
        <ele>274.6</ele>
        <time>2024-08-05T07:48:22Z</time>
      </trkpt>
      <trkpt lat="47.18416" lon="5.86229">
        <ele>274.4</ele>
        <time>2024-08-05T07:48:23Z</time>
      </trkpt>
      <trkpt lat="47.18415" lon="5.86224">
        <ele>274.4</ele>
        <time>2024-08-05T07:48:24Z</time>
      </trkpt>
      <trkpt lat="47.18413" lon="5.8622">
        <ele>274.4</ele>
        <time>2024-08-05T07:48:25Z</time>
      </trkpt>
      <trkpt lat="47.1841" lon="5.86213">
        <ele>274.4</ele>
        <time>2024-08-05T07:48:26Z</time>
      </trkpt>
      <trkpt lat="47.18408" lon="5.86209">
        <ele>274.2</ele>
        <time>2024-08-05T07:48:27Z</time>
      </trkpt>
      <trkpt lat="47.18406" lon="5.86204">
        <ele>274.2</ele>
        <time>2024-08-05T07:48:28Z</time>
      </trkpt>
      <trkpt lat="47.18401" lon="5.86197">
        <ele>274.2</ele>
        <time>2024-08-05T07:48:29Z</time>
      </trkpt>
      <trkpt lat="47.184" lon="5.86192">
        <ele>274.2</ele>
        <time>2024-08-05T07:48:30Z</time>
      </trkpt>
      <trkpt lat="47.18398" lon="5.86187">
        <ele>274.2</ele>
        <time>2024-08-05T07:48:31Z</time>
      </trkpt>
      <trkpt lat="47.18397" lon="5.86182">
        <ele>274.2</ele>
        <time>2024-08-05T07:48:32Z</time>
      </trkpt>
      <trkpt lat="47.18395" lon="5.86178">
        <ele>273.8</ele>
        <time>2024-08-05T07:48:33Z</time>
      </trkpt>
      <trkpt lat="47.18393" lon="5.86173">
        <ele>273.6</ele>
        <time>2024-08-05T07:48:34Z</time>
      </trkpt>
      <trkpt lat="47.18392" lon="5.86169">
        <ele>273.4</ele>
        <time>2024-08-05T07:48:35Z</time>
      </trkpt>
      <trkpt lat="47.1839" lon="5.86164">
        <ele>273.2</ele>
        <time>2024-08-05T07:48:36Z</time>
      </trkpt>
      <trkpt lat="47.18386" lon="5.86158">
        <ele>273</ele>
        <time>2024-08-05T07:48:37Z</time>
      </trkpt>
      <trkpt lat="47.18379" lon="5.8615">
        <ele>272.8</ele>
        <time>2024-08-05T07:48:38Z</time>
      </trkpt>
      <trkpt lat="47.18377" lon="5.86145">
        <ele>272.8</ele>
        <time>2024-08-05T07:48:39Z</time>
      </trkpt>
      <trkpt lat="47.18374" lon="5.8614">
        <ele>272.4</ele>
        <time>2024-08-05T07:48:40Z</time>
      </trkpt>
      <trkpt lat="47.18365" lon="5.86131">
        <ele>272.2</ele>
        <time>2024-08-05T07:48:41Z</time>
      </trkpt>
      <trkpt lat="47.18358" lon="5.86123">
        <ele>271.8</ele>
        <time>2024-08-05T07:48:42Z</time>
      </trkpt>
      <trkpt lat="47.1835" lon="5.86113">
        <ele>271.8</ele>
        <time>2024-08-05T07:48:43Z</time>
      </trkpt>
      <trkpt lat="47.18344" lon="5.86105">
        <ele>271.4</ele>
        <time>2024-08-05T07:48:44Z</time>
      </trkpt>
      <trkpt lat="47.18341" lon="5.86097">
        <ele>271</ele>
        <time>2024-08-05T07:48:45Z</time>
      </trkpt>
      <trkpt lat="47.18338" lon="5.86091">
        <ele>270.8</ele>
        <time>2024-08-05T07:48:46Z</time>
      </trkpt>
      <trkpt lat="47.18337" lon="5.86084">
        <ele>270.8</ele>
        <time>2024-08-05T07:48:47Z</time>
      </trkpt>
      <trkpt lat="47.1833" lon="5.86074">
        <ele>270.4</ele>
        <time>2024-08-05T07:48:48Z</time>
      </trkpt>
      <trkpt lat="47.18323" lon="5.86064">
        <ele>270.2</ele>
        <time>2024-08-05T07:48:49Z</time>
      </trkpt>
      <trkpt lat="47.18318" lon="5.86056">
        <ele>270.2</ele>
        <time>2024-08-05T07:48:50Z</time>
      </trkpt>
      <trkpt lat="47.18312" lon="5.86048">
        <ele>270</ele>
        <time>2024-08-05T07:48:51Z</time>
      </trkpt>
      <trkpt lat="47.18307" lon="5.8604">
        <ele>269.8</ele>
        <time>2024-08-05T07:48:52Z</time>
      </trkpt>
      <trkpt lat="47.18302" lon="5.86033">
        <ele>269.6</ele>
        <time>2024-08-05T07:48:53Z</time>
      </trkpt>
      <trkpt lat="47.18297" lon="5.86025">
        <ele>269.2</ele>
        <time>2024-08-05T07:48:54Z</time>
      </trkpt>
      <trkpt lat="47.18293" lon="5.86018">
        <ele>269.2</ele>
        <time>2024-08-05T07:48:55Z</time>
      </trkpt>
      <trkpt lat="47.18289" lon="5.86011">
        <ele>269</ele>
        <time>2024-08-05T07:48:56Z</time>
      </trkpt>
      <trkpt lat="47.18285" lon="5.86005">
        <ele>268.8</ele>
        <time>2024-08-05T07:48:57Z</time>
      </trkpt>
      <trkpt lat="47.18283" lon="5.85999">
        <ele>269</ele>
        <time>2024-08-05T07:48:58Z</time>
      </trkpt>
      <trkpt lat="47.1828" lon="5.85992">
        <ele>268.8</ele>
        <time>2024-08-05T07:48:59Z</time>
      </trkpt>
      <trkpt lat="47.1828" lon="5.85986">
        <ele>268.8</ele>
        <time>2024-08-05T07:49:00Z</time>
      </trkpt>
      <trkpt lat="47.1828" lon="5.85981">
        <ele>268.8</ele>
        <time>2024-08-05T07:49:01Z</time>
      </trkpt>
      <trkpt lat="47.1828" lon="5.85976">
        <ele>268.8</ele>
        <time>2024-08-05T07:49:02Z</time>
      </trkpt>
      <trkpt lat="47.18276" lon="5.8597">
        <ele>268.8</ele>
        <time>2024-08-05T07:49:03Z</time>
      </trkpt>
      <trkpt lat="47.18271" lon="5.85963">
        <ele>268.8</ele>
        <time>2024-08-05T07:49:04Z</time>
      </trkpt>
      <trkpt lat="47.18268" lon="5.85958">
        <ele>268.8</ele>
        <time>2024-08-05T07:49:05Z</time>
      </trkpt>
      <trkpt lat="47.18267" lon="5.85952">
        <ele>268.6</ele>
        <time>2024-08-05T07:49:06Z</time>
      </trkpt>
      <trkpt lat="47.18266" lon="5.85947">
        <ele>268.8</ele>
        <time>2024-08-05T07:49:07Z</time>
      </trkpt>
      <trkpt lat="47.18265" lon="5.85943">
        <ele>268.8</ele>
        <time>2024-08-05T07:49:08Z</time>
      </trkpt>
      <trkpt lat="47.18264" lon="5.85939">
        <ele>268.8</ele>
        <time>2024-08-05T07:49:09Z</time>
      </trkpt>
      <trkpt lat="47.18264" lon="5.85936">
        <ele>269</ele>
        <time>2024-08-05T07:49:10Z</time>
      </trkpt>
      <trkpt lat="47.18261" lon="5.85931">
        <ele>269.2</ele>
        <time>2024-08-05T07:49:11Z</time>
      </trkpt>
      <trkpt lat="47.18258" lon="5.85926">
        <ele>269</ele>
        <time>2024-08-05T07:49:12Z</time>
      </trkpt>
      <trkpt lat="47.18258" lon="5.85924">
        <ele>269.2</ele>
        <time>2024-08-05T07:49:13Z</time>
      </trkpt>
      <trkpt lat="47.18257" lon="5.85921">
        <ele>269.2</ele>
        <time>2024-08-05T07:49:14Z</time>
      </trkpt>
      <trkpt lat="47.18258" lon="5.85918">
        <ele>269.4</ele>
        <time>2024-08-05T07:49:15Z</time>
      </trkpt>
      <trkpt lat="47.18259" lon="5.85917">
        <ele>269.2</ele>
        <time>2024-08-05T07:49:16Z</time>
      </trkpt>
      <trkpt lat="47.1826" lon="5.85915">
        <ele>269.4</ele>
        <time>2024-08-05T07:49:17Z</time>
      </trkpt>
      <trkpt lat="47.1826" lon="5.85914">
        <ele>269.2</ele>
        <time>2024-08-05T07:49:18Z</time>
      </trkpt>
      <trkpt lat="47.1826" lon="5.85913">
        <ele>269.4</ele>
        <time>2024-08-05T07:49:19Z</time>
      </trkpt>
      <trkpt lat="47.18258" lon="5.85911">
        <ele>269.4</ele>
        <time>2024-08-05T07:49:20Z</time>
      </trkpt>
      <trkpt lat="47.18257" lon="5.8591">
        <ele>269.6</ele>
        <time>2024-08-05T07:49:21Z</time>
      </trkpt>
      <trkpt lat="47.18255" lon="5.85908">
        <ele>269.6</ele>
        <time>2024-08-05T07:49:22Z</time>
      </trkpt>
      <trkpt lat="47.1825" lon="5.85904">
        <ele>269.4</ele>
        <time>2024-08-05T07:49:23Z</time>
      </trkpt>
      <trkpt lat="47.18246" lon="5.85901">
        <ele>269.4</ele>
        <time>2024-08-05T07:49:24Z</time>
      </trkpt>
      <trkpt lat="47.18241" lon="5.85899">
        <ele>269.4</ele>
        <time>2024-08-05T07:49:25Z</time>
      </trkpt>
      <trkpt lat="47.18237" lon="5.85899">
        <ele>269.6</ele>
        <time>2024-08-05T07:49:26Z</time>
      </trkpt>
      <trkpt lat="47.18235" lon="5.859">
        <ele>269.4</ele>
        <time>2024-08-05T07:49:27Z</time>
      </trkpt>
      <trkpt lat="47.18233" lon="5.85901">
        <ele>269.4</ele>
        <time>2024-08-05T07:49:28Z</time>
      </trkpt>
      <trkpt lat="47.1823" lon="5.85902">
        <ele>269.6</ele>
        <time>2024-08-05T07:49:29Z</time>
      </trkpt>
      <trkpt lat="47.18228" lon="5.85902">
        <ele>269.2</ele>
        <time>2024-08-05T07:49:30Z</time>
      </trkpt>
      <trkpt lat="47.18223" lon="5.85901">
        <ele>269.2</ele>
        <time>2024-08-05T07:49:31Z</time>
      </trkpt>
      <trkpt lat="47.18221" lon="5.85902">
        <ele>268.8</ele>
        <time>2024-08-05T07:49:32Z</time>
      </trkpt>
      <trkpt lat="47.18217" lon="5.85902">
        <ele>268.6</ele>
        <time>2024-08-05T07:49:33Z</time>
      </trkpt>
      <trkpt lat="47.18214" lon="5.85902">
        <ele>268.2</ele>
        <time>2024-08-05T07:49:34Z</time>
      </trkpt>
      <trkpt lat="47.18212" lon="5.85903">
        <ele>267.6</ele>
        <time>2024-08-05T07:49:35Z</time>
      </trkpt>
      <trkpt lat="47.18209" lon="5.85901">
        <ele>267.2</ele>
        <time>2024-08-05T07:49:36Z</time>
      </trkpt>
      <trkpt lat="47.18206" lon="5.85899">
        <ele>266.6</ele>
        <time>2024-08-05T07:49:37Z</time>
      </trkpt>
      <trkpt lat="47.18207" lon="5.85897">
        <ele>266.4</ele>
        <time>2024-08-05T07:49:38Z</time>
      </trkpt>
      <trkpt lat="47.18208" lon="5.85892">
        <ele>266</ele>
        <time>2024-08-05T07:49:39Z</time>
      </trkpt>
      <trkpt lat="47.18208" lon="5.85888">
        <ele>265.2</ele>
        <time>2024-08-05T07:49:40Z</time>
      </trkpt>
      <trkpt lat="47.18207" lon="5.85884">
        <ele>264.8</ele>
        <time>2024-08-05T07:49:41Z</time>
      </trkpt>
      <trkpt lat="47.18207" lon="5.8588">
        <ele>264.4</ele>
        <time>2024-08-05T07:49:42Z</time>
      </trkpt>
      <trkpt lat="47.18207" lon="5.85876">
        <ele>264.4</ele>
        <time>2024-08-05T07:49:43Z</time>
      </trkpt>
      <trkpt lat="47.18207" lon="5.85873">
        <ele>264.4</ele>
        <time>2024-08-05T07:49:44Z</time>
      </trkpt>
      <trkpt lat="47.18209" lon="5.85871">
        <ele>264.4</ele>
        <time>2024-08-05T07:49:45Z</time>
      </trkpt>
      <trkpt lat="47.18211" lon="5.8587">
        <ele>264.2</ele>
        <time>2024-08-05T07:49:46Z</time>
      </trkpt>
      <trkpt lat="47.18212" lon="5.85867">
        <ele>264.4</ele>
        <time>2024-08-05T07:49:47Z</time>
      </trkpt>
      <trkpt lat="47.18213" lon="5.85865">
        <ele>264.4</ele>
        <time>2024-08-05T07:49:48Z</time>
      </trkpt>
      <trkpt lat="47.18214" lon="5.85862">
        <ele>264.4</ele>
        <time>2024-08-05T07:49:49Z</time>
      </trkpt>
      <trkpt lat="47.18215" lon="5.85858">
        <ele>264.2</ele>
        <time>2024-08-05T07:49:50Z</time>
      </trkpt>
      <trkpt lat="47.18216" lon="5.85854">
        <ele>264.6</ele>
        <time>2024-08-05T07:49:51Z</time>
      </trkpt>
      <trkpt lat="47.18216" lon="5.85849">
        <ele>264.6</ele>
        <time>2024-08-05T07:49:52Z</time>
      </trkpt>
      <trkpt lat="47.18216" lon="5.85844">
        <ele>264.6</ele>
        <time>2024-08-05T07:49:53Z</time>
      </trkpt>
      <trkpt lat="47.18215" lon="5.85838">
        <ele>264.6</ele>
        <time>2024-08-05T07:49:54Z</time>
      </trkpt>
      <trkpt lat="47.18214" lon="5.85832">
        <ele>264.8</ele>
        <time>2024-08-05T07:49:55Z</time>
      </trkpt>
      <trkpt lat="47.18212" lon="5.85826">
        <ele>264.8</ele>
        <time>2024-08-05T07:49:56Z</time>
      </trkpt>
      <trkpt lat="47.1821" lon="5.85819">
        <ele>264.8</ele>
        <time>2024-08-05T07:49:57Z</time>
      </trkpt>
      <trkpt lat="47.18208" lon="5.85811">
        <ele>264.6</ele>
        <time>2024-08-05T07:49:58Z</time>
      </trkpt>
      <trkpt lat="47.18205" lon="5.85801">
        <ele>264.8</ele>
        <time>2024-08-05T07:49:59Z</time>
      </trkpt>
      <trkpt lat="47.18203" lon="5.85792">
        <ele>264.6</ele>
        <time>2024-08-05T07:50:00Z</time>
      </trkpt>
      <trkpt lat="47.182" lon="5.85781">
        <ele>264.8</ele>
        <time>2024-08-05T07:50:01Z</time>
      </trkpt>
      <trkpt lat="47.18198" lon="5.8577">
        <ele>264.6</ele>
        <time>2024-08-05T07:50:02Z</time>
      </trkpt>
      <trkpt lat="47.18193" lon="5.85757">
        <ele>264.4</ele>
        <time>2024-08-05T07:50:03Z</time>
      </trkpt>
      <trkpt lat="47.18192" lon="5.85746">
        <ele>263.8</ele>
        <time>2024-08-05T07:50:04Z</time>
      </trkpt>
      <trkpt lat="47.18191" lon="5.85736">
        <ele>263</ele>
        <time>2024-08-05T07:50:05Z</time>
      </trkpt>
      <trkpt lat="47.18188" lon="5.85725">
        <ele>262.2</ele>
        <time>2024-08-05T07:50:06Z</time>
      </trkpt>
      <trkpt lat="47.18187" lon="5.85715">
        <ele>261.6</ele>
        <time>2024-08-05T07:50:07Z</time>
      </trkpt>
      <trkpt lat="47.18186" lon="5.85706">
        <ele>260.6</ele>
        <time>2024-08-05T07:50:08Z</time>
      </trkpt>
      <trkpt lat="47.18184" lon="5.857">
        <ele>260</ele>
        <time>2024-08-05T07:50:09Z</time>
      </trkpt>
      <trkpt lat="47.1818" lon="5.85693">
        <ele>259.6</ele>
        <time>2024-08-05T07:50:10Z</time>
      </trkpt>
      <trkpt lat="47.18176" lon="5.85688">
        <ele>259.4</ele>
        <time>2024-08-05T07:50:11Z</time>
      </trkpt>
      <trkpt lat="47.18172" lon="5.85683">
        <ele>259.2</ele>
        <time>2024-08-05T07:50:12Z</time>
      </trkpt>
      <trkpt lat="47.18168" lon="5.8568">
        <ele>258.8</ele>
        <time>2024-08-05T07:50:13Z</time>
      </trkpt>
      <trkpt lat="47.18163" lon="5.85675">
        <ele>258.6</ele>
        <time>2024-08-05T07:50:14Z</time>
      </trkpt>
      <trkpt lat="47.18158" lon="5.85671">
        <ele>258.6</ele>
        <time>2024-08-05T07:50:15Z</time>
      </trkpt>
      <trkpt lat="47.18155" lon="5.85667">
        <ele>258.2</ele>
        <time>2024-08-05T07:50:16Z</time>
      </trkpt>
      <trkpt lat="47.18151" lon="5.85662">
        <ele>257.8</ele>
        <time>2024-08-05T07:50:17Z</time>
      </trkpt>
      <trkpt lat="47.18149" lon="5.85658">
        <ele>257.4</ele>
        <time>2024-08-05T07:50:18Z</time>
      </trkpt>
      <trkpt lat="47.18147" lon="5.85656">
        <ele>256.6</ele>
        <time>2024-08-05T07:50:19Z</time>
      </trkpt>
      <trkpt lat="47.18145" lon="5.85653">
        <ele>255.6</ele>
        <time>2024-08-05T07:50:20Z</time>
      </trkpt>
      <trkpt lat="47.18142" lon="5.85647">
        <ele>254.4</ele>
        <time>2024-08-05T07:50:21Z</time>
      </trkpt>
      <trkpt lat="47.1814" lon="5.85643">
        <ele>253.6</ele>
        <time>2024-08-05T07:50:22Z</time>
      </trkpt>
      <trkpt lat="47.18139" lon="5.85638">
        <ele>253.2</ele>
        <time>2024-08-05T07:50:23Z</time>
      </trkpt>
      <trkpt lat="47.18137" lon="5.85634">
        <ele>252.8</ele>
        <time>2024-08-05T07:50:24Z</time>
      </trkpt>
      <trkpt lat="47.18136" lon="5.8563">
        <ele>252.6</ele>
        <time>2024-08-05T07:50:25Z</time>
      </trkpt>
      <trkpt lat="47.18134" lon="5.85626">
        <ele>252.6</ele>
        <time>2024-08-05T07:50:26Z</time>
      </trkpt>
      <trkpt lat="47.18133" lon="5.85623">
        <ele>252.4</ele>
        <time>2024-08-05T07:50:27Z</time>
      </trkpt>
      <trkpt lat="47.18131" lon="5.85621">
        <ele>252.4</ele>
        <time>2024-08-05T07:50:28Z</time>
      </trkpt>
      <trkpt lat="47.1813" lon="5.85619">
        <ele>252.4</ele>
        <time>2024-08-05T07:50:29Z</time>
      </trkpt>
      <trkpt lat="47.18129" lon="5.85616">
        <ele>252.4</ele>
        <time>2024-08-05T07:50:30Z</time>
      </trkpt>
      <trkpt lat="47.18126" lon="5.85612">
        <ele>252.4</ele>
        <time>2024-08-05T07:50:31Z</time>
      </trkpt>
      <trkpt lat="47.18123" lon="5.85608">
        <ele>252.2</ele>
        <time>2024-08-05T07:50:32Z</time>
      </trkpt>
      <trkpt lat="47.18121" lon="5.85604">
        <ele>252.4</ele>
        <time>2024-08-05T07:50:33Z</time>
      </trkpt>
      <trkpt lat="47.18119" lon="5.85602">
        <ele>252.4</ele>
        <time>2024-08-05T07:50:34Z</time>
      </trkpt>
      <trkpt lat="47.18117" lon="5.85598">
        <ele>252.4</ele>
        <time>2024-08-05T07:50:35Z</time>
      </trkpt>
      <trkpt lat="47.18114" lon="5.85595">
        <ele>252.4</ele>
        <time>2024-08-05T07:50:36Z</time>
      </trkpt>
      <trkpt lat="47.18111" lon="5.85592">
        <ele>252.2</ele>
        <time>2024-08-05T07:50:37Z</time>
      </trkpt>
      <trkpt lat="47.18108" lon="5.85587">
        <ele>252.4</ele>
        <time>2024-08-05T07:50:38Z</time>
      </trkpt>
      <trkpt lat="47.18105" lon="5.85583">
        <ele>252.2</ele>
        <time>2024-08-05T07:50:39Z</time>
      </trkpt>
      <trkpt lat="47.18104" lon="5.85579">
        <ele>252.2</ele>
        <time>2024-08-05T07:50:40Z</time>
      </trkpt>
      <trkpt lat="47.18103" lon="5.85577">
        <ele>252.2</ele>
        <time>2024-08-05T07:50:41Z</time>
      </trkpt>
      <trkpt lat="47.18102" lon="5.85574">
        <ele>252</ele>
        <time>2024-08-05T07:50:42Z</time>
      </trkpt>
      <trkpt lat="47.181" lon="5.8557">
        <ele>251.8</ele>
        <time>2024-08-05T07:50:43Z</time>
      </trkpt>
      <trkpt lat="47.18099" lon="5.85567">
        <ele>252</ele>
        <time>2024-08-05T07:50:44Z</time>
      </trkpt>
      <trkpt lat="47.18098" lon="5.85564">
        <ele>251.8</ele>
        <time>2024-08-05T07:50:45Z</time>
      </trkpt>
      <trkpt lat="47.18097" lon="5.85562">
        <ele>251.6</ele>
        <time>2024-08-05T07:50:46Z</time>
      </trkpt>
      <trkpt lat="47.18096" lon="5.85561">
        <ele>251.4</ele>
        <time>2024-08-05T07:50:47Z</time>
      </trkpt>
      <trkpt lat="47.18094" lon="5.8556">
        <ele>251.4</ele>
        <time>2024-08-05T07:50:48Z</time>
      </trkpt>
      <trkpt lat="47.18093" lon="5.85559">
        <ele>251.2</ele>
        <time>2024-08-05T07:50:49Z</time>
      </trkpt>
      <trkpt lat="47.1809" lon="5.8556">
        <ele>251.2</ele>
        <time>2024-08-05T07:50:50Z</time>
      </trkpt>
      <trkpt lat="47.18083" lon="5.85558">
        <ele>251</ele>
        <time>2024-08-05T07:50:51Z</time>
      </trkpt>
      <trkpt lat="47.18077" lon="5.85559">
        <ele>251.2</ele>
        <time>2024-08-05T07:50:52Z</time>
      </trkpt>
      <trkpt lat="47.18071" lon="5.85559">
        <ele>251</ele>
        <time>2024-08-05T07:50:53Z</time>
      </trkpt>
      <trkpt lat="47.18065" lon="5.85559">
        <ele>251</ele>
        <time>2024-08-05T07:50:54Z</time>
      </trkpt>
      <trkpt lat="47.18057" lon="5.85555">
        <ele>251</ele>
        <time>2024-08-05T07:50:55Z</time>
      </trkpt>
      <trkpt lat="47.18049" lon="5.85548">
        <ele>250.8</ele>
        <time>2024-08-05T07:50:56Z</time>
      </trkpt>
      <trkpt lat="47.1804" lon="5.8554">
        <ele>250.4</ele>
        <time>2024-08-05T07:50:57Z</time>
      </trkpt>
      <trkpt lat="47.1803" lon="5.85531">
        <ele>250.4</ele>
        <time>2024-08-05T07:50:58Z</time>
      </trkpt>
      <trkpt lat="47.18021" lon="5.85523">
        <ele>249.8</ele>
        <time>2024-08-05T07:50:59Z</time>
      </trkpt>
      <trkpt lat="47.18014" lon="5.85516">
        <ele>249</ele>
        <time>2024-08-05T07:51:00Z</time>
      </trkpt>
      <trkpt lat="47.18007" lon="5.8551">
        <ele>247.8</ele>
        <time>2024-08-05T07:51:01Z</time>
      </trkpt>
      <trkpt lat="47.18001" lon="5.85504">
        <ele>246.8</ele>
        <time>2024-08-05T07:51:02Z</time>
      </trkpt>
      <trkpt lat="47.17993" lon="5.85495">
        <ele>246</ele>
        <time>2024-08-05T07:51:03Z</time>
      </trkpt>
      <trkpt lat="47.17985" lon="5.85487">
        <ele>245.4</ele>
        <time>2024-08-05T07:51:04Z</time>
      </trkpt>
      <trkpt lat="47.17978" lon="5.85479">
        <ele>245</ele>
        <time>2024-08-05T07:51:05Z</time>
      </trkpt>
      <trkpt lat="47.17972" lon="5.85473">
        <ele>245</ele>
        <time>2024-08-05T07:51:06Z</time>
      </trkpt>
      <trkpt lat="47.17965" lon="5.85466">
        <ele>244.6</ele>
        <time>2024-08-05T07:51:07Z</time>
      </trkpt>
      <trkpt lat="47.1796" lon="5.85458">
        <ele>244.4</ele>
        <time>2024-08-05T07:51:08Z</time>
      </trkpt>
      <trkpt lat="47.17953" lon="5.8545">
        <ele>244.2</ele>
        <time>2024-08-05T07:51:09Z</time>
      </trkpt>
      <trkpt lat="47.17948" lon="5.85443">
        <ele>244.2</ele>
        <time>2024-08-05T07:51:10Z</time>
      </trkpt>
      <trkpt lat="47.17943" lon="5.85437">
        <ele>243.8</ele>
        <time>2024-08-05T07:51:11Z</time>
      </trkpt>
      <trkpt lat="47.17938" lon="5.85429">
        <ele>243.8</ele>
        <time>2024-08-05T07:51:12Z</time>
      </trkpt>
      <trkpt lat="47.17935" lon="5.85422">
        <ele>243.6</ele>
        <time>2024-08-05T07:51:13Z</time>
      </trkpt>
      <trkpt lat="47.17931" lon="5.85414">
        <ele>243.6</ele>
        <time>2024-08-05T07:51:14Z</time>
      </trkpt>
      <trkpt lat="47.17927" lon="5.85408">
        <ele>243.6</ele>
        <time>2024-08-05T07:51:15Z</time>
      </trkpt>
      <trkpt lat="47.17923" lon="5.85401">
        <ele>243.2</ele>
        <time>2024-08-05T07:51:16Z</time>
      </trkpt>
      <trkpt lat="47.17919" lon="5.85395">
        <ele>243.2</ele>
        <time>2024-08-05T07:51:17Z</time>
      </trkpt>
      <trkpt lat="47.17914" lon="5.85387">
        <ele>243</ele>
        <time>2024-08-05T07:51:18Z</time>
      </trkpt>
      <trkpt lat="47.1791" lon="5.8538">
        <ele>242.8</ele>
        <time>2024-08-05T07:51:19Z</time>
      </trkpt>
      <trkpt lat="47.17906" lon="5.85371">
        <ele>242.8</ele>
        <time>2024-08-05T07:51:20Z</time>
      </trkpt>
      <trkpt lat="47.179" lon="5.85363">
        <ele>242.8</ele>
        <time>2024-08-05T07:51:21Z</time>
      </trkpt>
      <trkpt lat="47.17894" lon="5.85355">
        <ele>242.8</ele>
        <time>2024-08-05T07:51:22Z</time>
      </trkpt>
      <trkpt lat="47.17889" lon="5.85348">
        <ele>242.6</ele>
        <time>2024-08-05T07:51:23Z</time>
      </trkpt>
      <trkpt lat="47.17883" lon="5.85341">
        <ele>242.4</ele>
        <time>2024-08-05T07:51:24Z</time>
      </trkpt>
      <trkpt lat="47.17879" lon="5.85333">
        <ele>242.4</ele>
        <time>2024-08-05T07:51:25Z</time>
      </trkpt>
      <trkpt lat="47.17875" lon="5.85326">
        <ele>242</ele>
        <time>2024-08-05T07:51:26Z</time>
      </trkpt>
      <trkpt lat="47.17871" lon="5.85319">
        <ele>242</ele>
        <time>2024-08-05T07:51:27Z</time>
      </trkpt>
      <trkpt lat="47.17867" lon="5.85311">
        <ele>241.8</ele>
        <time>2024-08-05T07:51:28Z</time>
      </trkpt>
      <trkpt lat="47.17863" lon="5.85304">
        <ele>241.8</ele>
        <time>2024-08-05T07:51:29Z</time>
      </trkpt>
      <trkpt lat="47.17859" lon="5.85296">
        <ele>241.8</ele>
        <time>2024-08-05T07:51:30Z</time>
      </trkpt>
      <trkpt lat="47.17856" lon="5.85289">
        <ele>241.6</ele>
        <time>2024-08-05T07:51:31Z</time>
      </trkpt>
      <trkpt lat="47.17852" lon="5.85282">
        <ele>241.8</ele>
        <time>2024-08-05T07:51:32Z</time>
      </trkpt>
      <trkpt lat="47.17848" lon="5.85275">
        <ele>241.6</ele>
        <time>2024-08-05T07:51:33Z</time>
      </trkpt>
      <trkpt lat="47.17845" lon="5.85268">
        <ele>241.6</ele>
        <time>2024-08-05T07:51:34Z</time>
      </trkpt>
      <trkpt lat="47.17842" lon="5.85261">
        <ele>241.6</ele>
        <time>2024-08-05T07:51:35Z</time>
      </trkpt>
      <trkpt lat="47.17839" lon="5.85255">
        <ele>241.4</ele>
        <time>2024-08-05T07:51:36Z</time>
      </trkpt>
      <trkpt lat="47.17836" lon="5.85248">
        <ele>241.4</ele>
        <time>2024-08-05T07:51:37Z</time>
      </trkpt>
      <trkpt lat="47.17833" lon="5.85242">
        <ele>241.2</ele>
        <time>2024-08-05T07:51:38Z</time>
      </trkpt>
      <trkpt lat="47.1783" lon="5.85236">
        <ele>241.2</ele>
        <time>2024-08-05T07:51:39Z</time>
      </trkpt>
      <trkpt lat="47.17827" lon="5.8523">
        <ele>241</ele>
        <time>2024-08-05T07:51:40Z</time>
      </trkpt>
      <trkpt lat="47.17824" lon="5.85224">
        <ele>241</ele>
        <time>2024-08-05T07:51:41Z</time>
      </trkpt>
      <trkpt lat="47.17821" lon="5.85217">
        <ele>241</ele>
        <time>2024-08-05T07:51:42Z</time>
      </trkpt>
      <trkpt lat="47.17818" lon="5.85211">
        <ele>241</ele>
        <time>2024-08-05T07:51:43Z</time>
      </trkpt>
      <trkpt lat="47.17815" lon="5.85206">
        <ele>241</ele>
        <time>2024-08-05T07:51:44Z</time>
      </trkpt>
      <trkpt lat="47.17812" lon="5.852">
        <ele>240.8</ele>
        <time>2024-08-05T07:51:45Z</time>
      </trkpt>
      <trkpt lat="47.17808" lon="5.85195">
        <ele>240.6</ele>
        <time>2024-08-05T07:51:46Z</time>
      </trkpt>
      <trkpt lat="47.17803" lon="5.8519">
        <ele>240.6</ele>
        <time>2024-08-05T07:51:47Z</time>
      </trkpt>
      <trkpt lat="47.17799" lon="5.85186">
        <ele>240.2</ele>
        <time>2024-08-05T07:51:48Z</time>
      </trkpt>
      <trkpt lat="47.17794" lon="5.8518">
        <ele>240.2</ele>
        <time>2024-08-05T07:51:49Z</time>
      </trkpt>
      <trkpt lat="47.1779" lon="5.85174">
        <ele>240.2</ele>
        <time>2024-08-05T07:51:50Z</time>
      </trkpt>
      <trkpt lat="47.17786" lon="5.85167">
        <ele>240.2</ele>
        <time>2024-08-05T07:51:51Z</time>
      </trkpt>
      <trkpt lat="47.17782" lon="5.85159">
        <ele>239.8</ele>
        <time>2024-08-05T07:51:52Z</time>
      </trkpt>
      <trkpt lat="47.17778" lon="5.8515">
        <ele>239.6</ele>
        <time>2024-08-05T07:51:53Z</time>
      </trkpt>
      <trkpt lat="47.17773" lon="5.85139">
        <ele>239.4</ele>
        <time>2024-08-05T07:51:54Z</time>
      </trkpt>
      <trkpt lat="47.1777" lon="5.8513">
        <ele>239.2</ele>
        <time>2024-08-05T07:51:55Z</time>
      </trkpt>
      <trkpt lat="47.17767" lon="5.8512">
        <ele>238.8</ele>
        <time>2024-08-05T07:51:56Z</time>
      </trkpt>
      <trkpt lat="47.17765" lon="5.8511">
        <ele>238.6</ele>
        <time>2024-08-05T07:51:57Z</time>
      </trkpt>
      <trkpt lat="47.17762" lon="5.851">
        <ele>238.4</ele>
        <time>2024-08-05T07:51:58Z</time>
      </trkpt>
      <trkpt lat="47.17759" lon="5.85091">
        <ele>238</ele>
        <time>2024-08-05T07:51:59Z</time>
      </trkpt>
      <trkpt lat="47.17756" lon="5.85081">
        <ele>237.8</ele>
        <time>2024-08-05T07:52:00Z</time>
      </trkpt>
      <trkpt lat="47.17755" lon="5.85073">
        <ele>237.6</ele>
        <time>2024-08-05T07:52:01Z</time>
      </trkpt>
      <trkpt lat="47.17753" lon="5.85065">
        <ele>237.4</ele>
        <time>2024-08-05T07:52:02Z</time>
      </trkpt>
      <trkpt lat="47.17752" lon="5.85059">
        <ele>237.4</ele>
        <time>2024-08-05T07:52:03Z</time>
      </trkpt>
      <trkpt lat="47.17751" lon="5.85055">
        <ele>237.2</ele>
        <time>2024-08-05T07:52:04Z</time>
      </trkpt>
      <trkpt lat="47.1775" lon="5.85053">
        <ele>237</ele>
        <time>2024-08-05T07:52:05Z</time>
      </trkpt>
      <trkpt lat="47.17748" lon="5.85051">
        <ele>236.8</ele>
        <time>2024-08-05T07:52:06Z</time>
      </trkpt>
      <trkpt lat="47.17746" lon="5.85049">
        <ele>236.8</ele>
        <time>2024-08-05T07:52:07Z</time>
      </trkpt>
      <trkpt lat="47.17746" lon="5.85049">
        <ele>236.6</ele>
        <time>2024-08-05T07:52:08Z</time>
      </trkpt>
      <trkpt lat="47.17745" lon="5.85049">
        <ele>236.2</ele>
        <time>2024-08-05T07:52:09Z</time>
      </trkpt>
      <trkpt lat="47.17745" lon="5.85048">
        <ele>236</ele>
        <time>2024-08-05T07:52:10Z</time>
      </trkpt>
      <trkpt lat="47.17745" lon="5.85048">
        <ele>235.6</ele>
        <time>2024-08-05T07:52:11Z</time>
      </trkpt>
      <trkpt lat="47.17744" lon="5.85047">
        <ele>235.2</ele>
        <time>2024-08-05T07:52:12Z</time>
      </trkpt>
      <trkpt lat="47.17744" lon="5.85046">
        <ele>235</ele>
        <time>2024-08-05T07:52:13Z</time>
      </trkpt>
      <trkpt lat="47.17743" lon="5.85045">
        <ele>234.8</ele>
        <time>2024-08-05T07:52:14Z</time>
      </trkpt>
      <trkpt lat="47.17743" lon="5.85045">
        <ele>234.6</ele>
        <time>2024-08-05T07:52:15Z</time>
      </trkpt>
      <trkpt lat="47.17742" lon="5.85044">
        <ele>234</ele>
        <time>2024-08-05T07:52:16Z</time>
      </trkpt>
      <trkpt lat="47.17741" lon="5.85044">
        <ele>233.8</ele>
        <time>2024-08-05T07:52:17Z</time>
      </trkpt>
      <trkpt lat="47.1774" lon="5.85043">
        <ele>233.6</ele>
        <time>2024-08-05T07:52:18Z</time>
      </trkpt>
      <trkpt lat="47.17739" lon="5.85042">
        <ele>233.6</ele>
        <time>2024-08-05T07:52:19Z</time>
      </trkpt>
      <trkpt lat="47.17737" lon="5.8504">
        <ele>233.4</ele>
        <time>2024-08-05T07:52:20Z</time>
      </trkpt>
      <trkpt lat="47.17736" lon="5.8504">
        <ele>233.6</ele>
        <time>2024-08-05T07:52:21Z</time>
      </trkpt>
      <trkpt lat="47.17735" lon="5.8504">
        <ele>233.6</ele>
        <time>2024-08-05T07:52:22Z</time>
      </trkpt>
      <trkpt lat="47.17734" lon="5.8504">
        <ele>233.6</ele>
        <time>2024-08-05T07:52:23Z</time>
      </trkpt>
      <trkpt lat="47.17733" lon="5.8504">
        <ele>233.6</ele>
        <time>2024-08-05T07:52:24Z</time>
      </trkpt>
      <trkpt lat="47.17733" lon="5.8504">
        <ele>233.6</ele>
        <time>2024-08-05T07:52:25Z</time>
      </trkpt>
      <trkpt lat="47.17733" lon="5.8504">
        <ele>233.4</ele>
        <time>2024-08-05T07:52:26Z</time>
      </trkpt>
      <trkpt lat="47.17733" lon="5.8504">
        <ele>233.6</ele>
        <time>2024-08-05T07:52:27Z</time>
      </trkpt>
      <trkpt lat="47.17732" lon="5.8504">
        <ele>233.6</ele>
        <time>2024-08-05T07:52:28Z</time>
      </trkpt>
      <trkpt lat="47.17732" lon="5.8504">
        <ele>233.6</ele>
        <time>2024-08-05T07:52:29Z</time>
      </trkpt>
      <trkpt lat="47.17732" lon="5.85041">
        <ele>233.6</ele>
        <time>2024-08-05T07:52:30Z</time>
      </trkpt>
      <trkpt lat="47.17732" lon="5.85041">
        <ele>233.6</ele>
        <time>2024-08-05T07:52:31Z</time>
      </trkpt>
      <trkpt lat="47.17732" lon="5.85041">
        <ele>233.8</ele>
        <time>2024-08-05T07:52:32Z</time>
      </trkpt>
      <trkpt lat="47.17732" lon="5.85041">
        <ele>233.6</ele>
        <time>2024-08-05T07:52:33Z</time>
      </trkpt>
      <trkpt lat="47.17731" lon="5.85042">
        <ele>233.8</ele>
        <time>2024-08-05T07:52:34Z</time>
      </trkpt>
      <trkpt lat="47.17732" lon="5.85042">
        <ele>233.8</ele>
        <time>2024-08-05T07:52:35Z</time>
      </trkpt>
      <trkpt lat="47.17732" lon="5.85043">
        <ele>234</ele>
        <time>2024-08-05T07:52:36Z</time>
      </trkpt>
      <trkpt lat="47.17732" lon="5.85044">
        <ele>233.8</ele>
        <time>2024-08-05T07:52:37Z</time>
      </trkpt>
      <trkpt lat="47.17733" lon="5.85044">
        <ele>233.8</ele>
        <time>2024-08-05T07:52:38Z</time>
      </trkpt>
      <trkpt lat="47.17733" lon="5.85044">
        <ele>234</ele>
        <time>2024-08-05T07:52:39Z</time>
      </trkpt>
      <trkpt lat="47.17733" lon="5.85044">
        <ele>233.8</ele>
        <time>2024-08-05T07:52:40Z</time>
      </trkpt>
      <trkpt lat="47.17733" lon="5.85043">
        <ele>233.8</ele>
        <time>2024-08-05T07:52:41Z</time>
      </trkpt>
      <trkpt lat="47.17734" lon="5.85042">
        <ele>233.8</ele>
        <time>2024-08-05T07:52:42Z</time>
      </trkpt>
      <trkpt lat="47.17734" lon="5.8504">
        <ele>233.8</ele>
        <time>2024-08-05T07:52:43Z</time>
      </trkpt>
      <trkpt lat="47.17734" lon="5.85039">
        <ele>233.8</ele>
        <time>2024-08-05T07:52:44Z</time>
      </trkpt>
      <trkpt lat="47.17734" lon="5.85036">
        <ele>234</ele>
        <time>2024-08-05T07:52:45Z</time>
      </trkpt>
      <trkpt lat="47.17735" lon="5.85034">
        <ele>233.8</ele>
        <time>2024-08-05T07:52:46Z</time>
      </trkpt>
      <trkpt lat="47.17734" lon="5.85032">
        <ele>233.8</ele>
        <time>2024-08-05T07:52:47Z</time>
      </trkpt>
      <trkpt lat="47.17733" lon="5.8503">
        <ele>233.8</ele>
        <time>2024-08-05T07:52:48Z</time>
      </trkpt>
      <trkpt lat="47.17732" lon="5.85028">
        <ele>234</ele>
        <time>2024-08-05T07:52:49Z</time>
      </trkpt>
      <trkpt lat="47.17731" lon="5.85027">
        <ele>234</ele>
        <time>2024-08-05T07:52:50Z</time>
      </trkpt>
      <trkpt lat="47.17729" lon="5.85026">
        <ele>234</ele>
        <time>2024-08-05T07:52:51Z</time>
      </trkpt>
      <trkpt lat="47.17728" lon="5.85026">
        <ele>234.2</ele>
        <time>2024-08-05T07:52:52Z</time>
      </trkpt>
      <trkpt lat="47.17726" lon="5.85025">
        <ele>234.4</ele>
        <time>2024-08-05T07:52:53Z</time>
      </trkpt>
      <trkpt lat="47.17725" lon="5.85025">
        <ele>234.8</ele>
        <time>2024-08-05T07:52:54Z</time>
      </trkpt>
      <trkpt lat="47.17724" lon="5.85025">
        <ele>235</ele>
        <time>2024-08-05T07:52:55Z</time>
      </trkpt>
      <trkpt lat="47.17722" lon="5.85024">
        <ele>235.4</ele>
        <time>2024-08-05T07:52:56Z</time>
      </trkpt>
      <trkpt lat="47.17721" lon="5.85023">
        <ele>235.4</ele>
        <time>2024-08-05T07:52:57Z</time>
      </trkpt>
      <trkpt lat="47.17719" lon="5.85022">
        <ele>235.6</ele>
        <time>2024-08-05T07:52:58Z</time>
      </trkpt>
      <trkpt lat="47.17718" lon="5.85022">
        <ele>235.8</ele>
        <time>2024-08-05T07:52:59Z</time>
      </trkpt>
      <trkpt lat="47.17717" lon="5.85022">
        <ele>236</ele>
        <time>2024-08-05T07:53:00Z</time>
      </trkpt>
      <trkpt lat="47.17714" lon="5.85021">
        <ele>236.2</ele>
        <time>2024-08-05T07:53:01Z</time>
      </trkpt>
      <trkpt lat="47.17713" lon="5.85021">
        <ele>236.6</ele>
        <time>2024-08-05T07:53:02Z</time>
      </trkpt>
      <trkpt lat="47.17711" lon="5.85021">
        <ele>236.8</ele>
        <time>2024-08-05T07:53:03Z</time>
      </trkpt>
      <trkpt lat="47.1771" lon="5.85021">
        <ele>237</ele>
        <time>2024-08-05T07:53:04Z</time>
      </trkpt>
      <trkpt lat="47.17708" lon="5.85021">
        <ele>237.4</ele>
        <time>2024-08-05T07:53:05Z</time>
      </trkpt>
      <trkpt lat="47.17707" lon="5.85022">
        <ele>237.6</ele>
        <time>2024-08-05T07:53:06Z</time>
      </trkpt>
      <trkpt lat="47.17706" lon="5.85022">
        <ele>238</ele>
        <time>2024-08-05T07:53:07Z</time>
      </trkpt>
      <trkpt lat="47.17704" lon="5.85022">
        <ele>238.4</ele>
        <time>2024-08-05T07:53:08Z</time>
      </trkpt>
      <trkpt lat="47.17703" lon="5.85022">
        <ele>238.4</ele>
        <time>2024-08-05T07:53:09Z</time>
      </trkpt>
      <trkpt lat="47.17702" lon="5.85023">
        <ele>238.6</ele>
        <time>2024-08-05T07:53:10Z</time>
      </trkpt>
      <trkpt lat="47.17701" lon="5.85024">
        <ele>239</ele>
        <time>2024-08-05T07:53:11Z</time>
      </trkpt>
      <trkpt lat="47.17701" lon="5.85025">
        <ele>239.2</ele>
        <time>2024-08-05T07:53:12Z</time>
      </trkpt>
      <trkpt lat="47.177" lon="5.85023">
        <ele>239.6</ele>
        <time>2024-08-05T07:53:13Z</time>
      </trkpt>
      <trkpt lat="47.17699" lon="5.85022">
        <ele>239.8</ele>
        <time>2024-08-05T07:53:14Z</time>
      </trkpt>
      <trkpt lat="47.17698" lon="5.85022">
        <ele>240.2</ele>
        <time>2024-08-05T07:53:15Z</time>
      </trkpt>
      <trkpt lat="47.17697" lon="5.85021">
        <ele>240.6</ele>
        <time>2024-08-05T07:53:16Z</time>
      </trkpt>
      <trkpt lat="47.17696" lon="5.8502">
        <ele>241</ele>
        <time>2024-08-05T07:53:17Z</time>
      </trkpt>
      <trkpt lat="47.17696" lon="5.85021">
        <ele>241.2</ele>
        <time>2024-08-05T07:53:18Z</time>
      </trkpt>
      <trkpt lat="47.17695" lon="5.85022">
        <ele>241.2</ele>
        <time>2024-08-05T07:53:19Z</time>
      </trkpt>
      <trkpt lat="47.17695" lon="5.85023">
        <ele>241.2</ele>
        <time>2024-08-05T07:53:20Z</time>
      </trkpt>
      <trkpt lat="47.17695" lon="5.85023">
        <ele>241.2</ele>
        <time>2024-08-05T07:53:21Z</time>
      </trkpt>
      <trkpt lat="47.17695" lon="5.85024">
        <ele>241.2</ele>
        <time>2024-08-05T07:53:22Z</time>
      </trkpt>
      <trkpt lat="47.17695" lon="5.85024">
        <ele>241.2</ele>
        <time>2024-08-05T07:53:23Z</time>
      </trkpt>
      <trkpt lat="47.17695" lon="5.85025">
        <ele>241.2</ele>
        <time>2024-08-05T07:53:24Z</time>
      </trkpt>
      <trkpt lat="47.17695" lon="5.85025">
        <ele>241.2</ele>
        <time>2024-08-05T07:53:25Z</time>
      </trkpt>
      <trkpt lat="47.17696" lon="5.85026">
        <ele>241.2</ele>
        <time>2024-08-05T07:53:26Z</time>
      </trkpt>
      <trkpt lat="47.17696" lon="5.85026">
        <ele>241.2</ele>
        <time>2024-08-05T07:53:27Z</time>
      </trkpt>
      <trkpt lat="47.17696" lon="5.85026">
        <ele>241.2</ele>
        <time>2024-08-05T07:53:28Z</time>
      </trkpt>
      <trkpt lat="47.17697" lon="5.85027">
        <ele>241.2</ele>
        <time>2024-08-05T07:53:29Z</time>
      </trkpt>
      <trkpt lat="47.17697" lon="5.85027">
        <ele>241.2</ele>
        <time>2024-08-05T07:53:30Z</time>
      </trkpt>
      <trkpt lat="47.17697" lon="5.85027">
        <ele>241.2</ele>
        <time>2024-08-05T07:53:31Z</time>
      </trkpt>
      <trkpt lat="47.17697" lon="5.85027">
        <ele>241.2</ele>
        <time>2024-08-05T07:53:32Z</time>
      </trkpt>
      <trkpt lat="47.17697" lon="5.85027">
        <ele>241.2</ele>
        <time>2024-08-05T07:53:33Z</time>
      </trkpt>
      <trkpt lat="47.17698" lon="5.85027">
        <ele>241.2</ele>
        <time>2024-08-05T07:53:34Z</time>
      </trkpt>
      <trkpt lat="47.17697" lon="5.85027">
        <ele>241.2</ele>
        <time>2024-08-05T07:53:35Z</time>
      </trkpt>
      <trkpt lat="47.17698" lon="5.85028">
        <ele>241.2</ele>
        <time>2024-08-05T07:53:36Z</time>
      </trkpt>
      <trkpt lat="47.17699" lon="5.85027">
        <ele>241.2</ele>
        <time>2024-08-05T07:53:37Z</time>
      </trkpt>
      <trkpt lat="47.177" lon="5.85027">
        <ele>241</ele>
        <time>2024-08-05T07:53:38Z</time>
      </trkpt>
      <trkpt lat="47.17701" lon="5.85027">
        <ele>241.2</ele>
        <time>2024-08-05T07:53:39Z</time>
      </trkpt>
      <trkpt lat="47.17702" lon="5.85027">
        <ele>241</ele>
        <time>2024-08-05T07:53:40Z</time>
      </trkpt>
      <trkpt lat="47.17704" lon="5.85026">
        <ele>241.2</ele>
        <time>2024-08-05T07:53:41Z</time>
      </trkpt>
      <trkpt lat="47.17706" lon="5.85026">
        <ele>240.8</ele>
        <time>2024-08-05T07:53:42Z</time>
      </trkpt>
      <trkpt lat="47.17708" lon="5.85026">
        <ele>241</ele>
        <time>2024-08-05T07:53:43Z</time>
      </trkpt>
      <trkpt lat="47.17711" lon="5.85024">
        <ele>240.8</ele>
        <time>2024-08-05T07:53:44Z</time>
      </trkpt>
      <trkpt lat="47.17714" lon="5.85023">
        <ele>240.4</ele>
        <time>2024-08-05T07:53:45Z</time>
      </trkpt>
      <trkpt lat="47.17717" lon="5.8502">
        <ele>240.4</ele>
        <time>2024-08-05T07:53:46Z</time>
      </trkpt>
      <trkpt lat="47.1772" lon="5.85017">
        <ele>239.6</ele>
        <time>2024-08-05T07:53:47Z</time>
      </trkpt>
      <trkpt lat="47.17725" lon="5.85012">
        <ele>239.4</ele>
        <time>2024-08-05T07:53:48Z</time>
      </trkpt>
      <trkpt lat="47.17728" lon="5.85007">
        <ele>238.8</ele>
        <time>2024-08-05T07:53:49Z</time>
      </trkpt>
      <trkpt lat="47.17732" lon="5.85002">
        <ele>238.2</ele>
        <time>2024-08-05T07:53:50Z</time>
      </trkpt>
      <trkpt lat="47.17735" lon="5.84997">
        <ele>237.6</ele>
        <time>2024-08-05T07:53:51Z</time>
      </trkpt>
      <trkpt lat="47.17737" lon="5.84992">
        <ele>237.6</ele>
        <time>2024-08-05T07:53:52Z</time>
      </trkpt>
      <trkpt lat="47.17739" lon="5.84987">
        <ele>237.2</ele>
        <time>2024-08-05T07:53:53Z</time>
      </trkpt>
      <trkpt lat="47.1774" lon="5.84982">
        <ele>236.8</ele>
        <time>2024-08-05T07:53:54Z</time>
      </trkpt>
      <trkpt lat="47.17743" lon="5.84978">
        <ele>236.4</ele>
        <time>2024-08-05T07:53:55Z</time>
      </trkpt>
      <trkpt lat="47.17746" lon="5.84972">
        <ele>236.2</ele>
        <time>2024-08-05T07:53:56Z</time>
      </trkpt>
      <trkpt lat="47.17749" lon="5.84968">
        <ele>236</ele>
        <time>2024-08-05T07:53:57Z</time>
      </trkpt>
      <trkpt lat="47.17754" lon="5.84963">
        <ele>235.8</ele>
        <time>2024-08-05T07:53:58Z</time>
      </trkpt>
      <trkpt lat="47.17759" lon="5.84958">
        <ele>235.6</ele>
        <time>2024-08-05T07:53:59Z</time>
      </trkpt>
      <trkpt lat="47.17763" lon="5.84953">
        <ele>235.6</ele>
        <time>2024-08-05T07:54:00Z</time>
      </trkpt>
      <trkpt lat="47.17767" lon="5.84949">
        <ele>235.4</ele>
        <time>2024-08-05T07:54:01Z</time>
      </trkpt>
      <trkpt lat="47.17771" lon="5.84945">
        <ele>235.2</ele>
        <time>2024-08-05T07:54:02Z</time>
      </trkpt>
      <trkpt lat="47.17774" lon="5.84939">
        <ele>235</ele>
        <time>2024-08-05T07:54:03Z</time>
      </trkpt>
      <trkpt lat="47.17776" lon="5.84931">
        <ele>234.6</ele>
        <time>2024-08-05T07:54:04Z</time>
      </trkpt>
      <trkpt lat="47.17778" lon="5.84924">
        <ele>234.4</ele>
        <time>2024-08-05T07:54:05Z</time>
      </trkpt>
      <trkpt lat="47.1778" lon="5.84915">
        <ele>234</ele>
        <time>2024-08-05T07:54:06Z</time>
      </trkpt>
      <trkpt lat="47.17782" lon="5.84907">
        <ele>234</ele>
        <time>2024-08-05T07:54:07Z</time>
      </trkpt>
      <trkpt lat="47.17784" lon="5.84898">
        <ele>233.8</ele>
        <time>2024-08-05T07:54:08Z</time>
      </trkpt>
      <trkpt lat="47.17785" lon="5.84888">
        <ele>233.4</ele>
        <time>2024-08-05T07:54:09Z</time>
      </trkpt>
      <trkpt lat="47.17786" lon="5.84878">
        <ele>233.4</ele>
        <time>2024-08-05T07:54:10Z</time>
      </trkpt>
      <trkpt lat="47.17787" lon="5.84869">
        <ele>233.4</ele>
        <time>2024-08-05T07:54:11Z</time>
      </trkpt>
      <trkpt lat="47.17787" lon="5.8486">
        <ele>233.2</ele>
        <time>2024-08-05T07:54:12Z</time>
      </trkpt>
      <trkpt lat="47.17788" lon="5.8485">
        <ele>232.8</ele>
        <time>2024-08-05T07:54:13Z</time>
      </trkpt>
      <trkpt lat="47.17788" lon="5.84841">
        <ele>232.8</ele>
        <time>2024-08-05T07:54:14Z</time>
      </trkpt>
      <trkpt lat="47.17786" lon="5.84833">
        <ele>232.6</ele>
        <time>2024-08-05T07:54:15Z</time>
      </trkpt>
      <trkpt lat="47.17785" lon="5.84825">
        <ele>232.4</ele>
        <time>2024-08-05T07:54:16Z</time>
      </trkpt>
      <trkpt lat="47.17783" lon="5.84818">
        <ele>232.4</ele>
        <time>2024-08-05T07:54:17Z</time>
      </trkpt>
      <trkpt lat="47.17781" lon="5.8481">
        <ele>232</ele>
        <time>2024-08-05T07:54:18Z</time>
      </trkpt>
      <trkpt lat="47.17779" lon="5.84803">
        <ele>231.8</ele>
        <time>2024-08-05T07:54:19Z</time>
      </trkpt>
      <trkpt lat="47.17776" lon="5.84797">
        <ele>231.6</ele>
        <time>2024-08-05T07:54:20Z</time>
      </trkpt>
      <trkpt lat="47.17773" lon="5.84791">
        <ele>231.4</ele>
        <time>2024-08-05T07:54:21Z</time>
      </trkpt>
      <trkpt lat="47.17769" lon="5.84786">
        <ele>231.4</ele>
        <time>2024-08-05T07:54:22Z</time>
      </trkpt>
      <trkpt lat="47.17766" lon="5.8478">
        <ele>231.2</ele>
        <time>2024-08-05T07:54:23Z</time>
      </trkpt>
      <trkpt lat="47.17762" lon="5.84774">
        <ele>231.2</ele>
        <time>2024-08-05T07:54:24Z</time>
      </trkpt>
      <trkpt lat="47.17758" lon="5.84768">
        <ele>231.2</ele>
        <time>2024-08-05T07:54:25Z</time>
      </trkpt>
      <trkpt lat="47.17755" lon="5.84763">
        <ele>231.2</ele>
        <time>2024-08-05T07:54:26Z</time>
      </trkpt>
      <trkpt lat="47.17752" lon="5.84757">
        <ele>231.2</ele>
        <time>2024-08-05T07:54:27Z</time>
      </trkpt>
      <trkpt lat="47.17748" lon="5.84752">
        <ele>231.2</ele>
        <time>2024-08-05T07:54:28Z</time>
      </trkpt>
      <trkpt lat="47.17745" lon="5.84747">
        <ele>231</ele>
        <time>2024-08-05T07:54:29Z</time>
      </trkpt>
      <trkpt lat="47.17741" lon="5.84742">
        <ele>231</ele>
        <time>2024-08-05T07:54:30Z</time>
      </trkpt>
      <trkpt lat="47.17738" lon="5.84738">
        <ele>231</ele>
        <time>2024-08-05T07:54:31Z</time>
      </trkpt>
      <trkpt lat="47.17734" lon="5.84733">
        <ele>231</ele>
        <time>2024-08-05T07:54:32Z</time>
      </trkpt>
      <trkpt lat="47.17731" lon="5.84728">
        <ele>231.2</ele>
        <time>2024-08-05T07:54:33Z</time>
      </trkpt>
      <trkpt lat="47.17727" lon="5.84723">
        <ele>231</ele>
        <time>2024-08-05T07:54:34Z</time>
      </trkpt>
      <trkpt lat="47.17723" lon="5.84718">
        <ele>231</ele>
        <time>2024-08-05T07:54:35Z</time>
      </trkpt>
      <trkpt lat="47.17722" lon="5.84712">
        <ele>231</ele>
        <time>2024-08-05T07:54:36Z</time>
      </trkpt>
      <trkpt lat="47.17719" lon="5.84707">
        <ele>231.2</ele>
        <time>2024-08-05T07:54:37Z</time>
      </trkpt>
      <trkpt lat="47.17718" lon="5.847">
        <ele>231</ele>
        <time>2024-08-05T07:54:38Z</time>
      </trkpt>
      <trkpt lat="47.17717" lon="5.84693">
        <ele>231.2</ele>
        <time>2024-08-05T07:54:39Z</time>
      </trkpt>
      <trkpt lat="47.17716" lon="5.84686">
        <ele>231</ele>
        <time>2024-08-05T07:54:40Z</time>
      </trkpt>
      <trkpt lat="47.17713" lon="5.8468">
        <ele>231</ele>
        <time>2024-08-05T07:54:41Z</time>
      </trkpt>
      <trkpt lat="47.17713" lon="5.84673">
        <ele>231</ele>
        <time>2024-08-05T07:54:42Z</time>
      </trkpt>
      <trkpt lat="47.17713" lon="5.84666">
        <ele>231.2</ele>
        <time>2024-08-05T07:54:43Z</time>
      </trkpt>
      <trkpt lat="47.17712" lon="5.84659">
        <ele>231.2</ele>
        <time>2024-08-05T07:54:44Z</time>
      </trkpt>
      <trkpt lat="47.17711" lon="5.84652">
        <ele>231.2</ele>
        <time>2024-08-05T07:54:45Z</time>
      </trkpt>
      <trkpt lat="47.17709" lon="5.84645">
        <ele>231.4</ele>
        <time>2024-08-05T07:54:46Z</time>
      </trkpt>
      <trkpt lat="47.17708" lon="5.84639">
        <ele>231.2</ele>
        <time>2024-08-05T07:54:47Z</time>
      </trkpt>
      <trkpt lat="47.17706" lon="5.84632">
        <ele>231.2</ele>
        <time>2024-08-05T07:54:48Z</time>
      </trkpt>
      <trkpt lat="47.17704" lon="5.84625">
        <ele>231.2</ele>
        <time>2024-08-05T07:54:49Z</time>
      </trkpt>
      <trkpt lat="47.17703" lon="5.84619">
        <ele>231.4</ele>
        <time>2024-08-05T07:54:50Z</time>
      </trkpt>
      <trkpt lat="47.17703" lon="5.84612">
        <ele>231.4</ele>
        <time>2024-08-05T07:54:51Z</time>
      </trkpt>
      <trkpt lat="47.177" lon="5.84606">
        <ele>231.2</ele>
        <time>2024-08-05T07:54:52Z</time>
      </trkpt>
      <trkpt lat="47.177" lon="5.846">
        <ele>231.2</ele>
        <time>2024-08-05T07:54:53Z</time>
      </trkpt>
      <trkpt lat="47.177" lon="5.84594">
        <ele>231.6</ele>
        <time>2024-08-05T07:54:54Z</time>
      </trkpt>
      <trkpt lat="47.177" lon="5.84589">
        <ele>231.6</ele>
        <time>2024-08-05T07:54:55Z</time>
      </trkpt>
      <trkpt lat="47.177" lon="5.84584">
        <ele>231.8</ele>
        <time>2024-08-05T07:54:56Z</time>
      </trkpt>
      <trkpt lat="47.17698" lon="5.8458">
        <ele>231.8</ele>
        <time>2024-08-05T07:54:57Z</time>
      </trkpt>
      <trkpt lat="47.17696" lon="5.84577">
        <ele>232</ele>
        <time>2024-08-05T07:54:58Z</time>
      </trkpt>
      <trkpt lat="47.17695" lon="5.84573">
        <ele>232.2</ele>
        <time>2024-08-05T07:54:59Z</time>
      </trkpt>
      <trkpt lat="47.17694" lon="5.84569">
        <ele>232.2</ele>
        <time>2024-08-05T07:55:00Z</time>
      </trkpt>
      <trkpt lat="47.17692" lon="5.84567">
        <ele>232.4</ele>
        <time>2024-08-05T07:55:01Z</time>
      </trkpt>
      <trkpt lat="47.1769" lon="5.84564">
        <ele>232.8</ele>
        <time>2024-08-05T07:55:02Z</time>
      </trkpt>
      <trkpt lat="47.17688" lon="5.84561">
        <ele>232.8</ele>
        <time>2024-08-05T07:55:03Z</time>
      </trkpt>
      <trkpt lat="47.17686" lon="5.84558">
        <ele>233.2</ele>
        <time>2024-08-05T07:55:04Z</time>
      </trkpt>
      <trkpt lat="47.17683" lon="5.84554">
        <ele>233.2</ele>
        <time>2024-08-05T07:55:05Z</time>
      </trkpt>
      <trkpt lat="47.17682" lon="5.8455">
        <ele>233.4</ele>
        <time>2024-08-05T07:55:06Z</time>
      </trkpt>
      <trkpt lat="47.17679" lon="5.84545">
        <ele>233.6</ele>
        <time>2024-08-05T07:55:07Z</time>
      </trkpt>
      <trkpt lat="47.17677" lon="5.8454">
        <ele>233.8</ele>
        <time>2024-08-05T07:55:08Z</time>
      </trkpt>
      <trkpt lat="47.17675" lon="5.84534">
        <ele>233.8</ele>
        <time>2024-08-05T07:55:09Z</time>
      </trkpt>
      <trkpt lat="47.17673" lon="5.84528">
        <ele>233.8</ele>
        <time>2024-08-05T07:55:10Z</time>
      </trkpt>
      <trkpt lat="47.17671" lon="5.8452">
        <ele>233.8</ele>
        <time>2024-08-05T07:55:11Z</time>
      </trkpt>
      <trkpt lat="47.17669" lon="5.84512">
        <ele>233.8</ele>
        <time>2024-08-05T07:55:12Z</time>
      </trkpt>
      <trkpt lat="47.17666" lon="5.84503">
        <ele>233.8</ele>
        <time>2024-08-05T07:55:13Z</time>
      </trkpt>
      <trkpt lat="47.17664" lon="5.84493">
        <ele>233.8</ele>
        <time>2024-08-05T07:55:14Z</time>
      </trkpt>
      <trkpt lat="47.1766" lon="5.84482">
        <ele>233.8</ele>
        <time>2024-08-05T07:55:15Z</time>
      </trkpt>
      <trkpt lat="47.17656" lon="5.84471">
        <ele>234</ele>
        <time>2024-08-05T07:55:16Z</time>
      </trkpt>
      <trkpt lat="47.17652" lon="5.84461">
        <ele>233.6</ele>
        <time>2024-08-05T07:55:17Z</time>
      </trkpt>
      <trkpt lat="47.17648" lon="5.84452">
        <ele>233.4</ele>
        <time>2024-08-05T07:55:18Z</time>
      </trkpt>
      <trkpt lat="47.17645" lon="5.84443">
        <ele>233.4</ele>
        <time>2024-08-05T07:55:19Z</time>
      </trkpt>
      <trkpt lat="47.1764" lon="5.84435">
        <ele>233</ele>
        <time>2024-08-05T07:55:20Z</time>
      </trkpt>
      <trkpt lat="47.17634" lon="5.84426">
        <ele>232.6</ele>
        <time>2024-08-05T07:55:21Z</time>
      </trkpt>
      <trkpt lat="47.17629" lon="5.84417">
        <ele>232</ele>
        <time>2024-08-05T07:55:22Z</time>
      </trkpt>
      <trkpt lat="47.17625" lon="5.84408">
        <ele>231.2</ele>
        <time>2024-08-05T07:55:23Z</time>
      </trkpt>
      <trkpt lat="47.1762" lon="5.84399">
        <ele>230.8</ele>
        <time>2024-08-05T07:55:24Z</time>
      </trkpt>
      <trkpt lat="47.17614" lon="5.84391">
        <ele>230.6</ele>
        <time>2024-08-05T07:55:25Z</time>
      </trkpt>
      <trkpt lat="47.17608" lon="5.84385">
        <ele>230</ele>
        <time>2024-08-05T07:55:26Z</time>
      </trkpt>
      <trkpt lat="47.17602" lon="5.8438">
        <ele>229.6</ele>
        <time>2024-08-05T07:55:27Z</time>
      </trkpt>
      <trkpt lat="47.17596" lon="5.84376">
        <ele>229.2</ele>
        <time>2024-08-05T07:55:28Z</time>
      </trkpt>
      <trkpt lat="47.17591" lon="5.84372">
        <ele>228.6</ele>
        <time>2024-08-05T07:55:29Z</time>
      </trkpt>
      <trkpt lat="47.17586" lon="5.84367">
        <ele>228.2</ele>
        <time>2024-08-05T07:55:30Z</time>
      </trkpt>
      <trkpt lat="47.17581" lon="5.84363">
        <ele>227.6</ele>
        <time>2024-08-05T07:55:31Z</time>
      </trkpt>
      <trkpt lat="47.17575" lon="5.84359">
        <ele>227.2</ele>
        <time>2024-08-05T07:55:32Z</time>
      </trkpt>
      <trkpt lat="47.1757" lon="5.84355">
        <ele>226.8</ele>
        <time>2024-08-05T07:55:33Z</time>
      </trkpt>
      <trkpt lat="47.17565" lon="5.84352">
        <ele>226.6</ele>
        <time>2024-08-05T07:55:34Z</time>
      </trkpt>
      <trkpt lat="47.1756" lon="5.84349">
        <ele>226.2</ele>
        <time>2024-08-05T07:55:35Z</time>
      </trkpt>
      <trkpt lat="47.17555" lon="5.84345">
        <ele>226.2</ele>
        <time>2024-08-05T07:55:36Z</time>
      </trkpt>
      <trkpt lat="47.17551" lon="5.84343">
        <ele>226</ele>
        <time>2024-08-05T07:55:37Z</time>
      </trkpt>
      <trkpt lat="47.17547" lon="5.8434">
        <ele>225.8</ele>
        <time>2024-08-05T07:55:38Z</time>
      </trkpt>
      <trkpt lat="47.17544" lon="5.84338">
        <ele>225.8</ele>
        <time>2024-08-05T07:55:39Z</time>
      </trkpt>
      <trkpt lat="47.17541" lon="5.84336">
        <ele>225.8</ele>
        <time>2024-08-05T07:55:40Z</time>
      </trkpt>
      <trkpt lat="47.17539" lon="5.84335">
        <ele>225.8</ele>
        <time>2024-08-05T07:55:41Z</time>
      </trkpt>
      <trkpt lat="47.17536" lon="5.84333">
        <ele>225.8</ele>
        <time>2024-08-05T07:55:42Z</time>
      </trkpt>
      <trkpt lat="47.17533" lon="5.84331">
        <ele>225.6</ele>
        <time>2024-08-05T07:55:43Z</time>
      </trkpt>
      <trkpt lat="47.17529" lon="5.84328">
        <ele>225.6</ele>
        <time>2024-08-05T07:55:44Z</time>
      </trkpt>
      <trkpt lat="47.17526" lon="5.84326">
        <ele>225.6</ele>
        <time>2024-08-05T07:55:45Z</time>
      </trkpt>
      <trkpt lat="47.17523" lon="5.84323">
        <ele>225.6</ele>
        <time>2024-08-05T07:55:46Z</time>
      </trkpt>
      <trkpt lat="47.1752" lon="5.8432">
        <ele>225.4</ele>
        <time>2024-08-05T07:55:47Z</time>
      </trkpt>
      <trkpt lat="47.17517" lon="5.84317">
        <ele>225.6</ele>
        <time>2024-08-05T07:55:48Z</time>
      </trkpt>
      <trkpt lat="47.17514" lon="5.84315">
        <ele>225.6</ele>
        <time>2024-08-05T07:55:49Z</time>
      </trkpt>
      <trkpt lat="47.17511" lon="5.84311">
        <ele>225.4</ele>
        <time>2024-08-05T07:55:50Z</time>
      </trkpt>
      <trkpt lat="47.17508" lon="5.84307">
        <ele>225.6</ele>
        <time>2024-08-05T07:55:51Z</time>
      </trkpt>
      <trkpt lat="47.17505" lon="5.84303">
        <ele>225.6</ele>
        <time>2024-08-05T07:55:52Z</time>
      </trkpt>
      <trkpt lat="47.17504" lon="5.84298">
        <ele>225.6</ele>
        <time>2024-08-05T07:55:53Z</time>
      </trkpt>
      <trkpt lat="47.17502" lon="5.84293">
        <ele>225.4</ele>
        <time>2024-08-05T07:55:54Z</time>
      </trkpt>
      <trkpt lat="47.17501" lon="5.84287">
        <ele>225.6</ele>
        <time>2024-08-05T07:55:55Z</time>
      </trkpt>
      <trkpt lat="47.175" lon="5.84279">
        <ele>225.6</ele>
        <time>2024-08-05T07:55:56Z</time>
      </trkpt>
      <trkpt lat="47.17499" lon="5.84273">
        <ele>225.6</ele>
        <time>2024-08-05T07:55:57Z</time>
      </trkpt>
      <trkpt lat="47.17499" lon="5.84268">
        <ele>225.6</ele>
        <time>2024-08-05T07:55:58Z</time>
      </trkpt>
      <trkpt lat="47.17499" lon="5.84264">
        <ele>225.4</ele>
        <time>2024-08-05T07:55:59Z</time>
      </trkpt>
      <trkpt lat="47.17499" lon="5.84259">
        <ele>225.6</ele>
        <time>2024-08-05T07:56:00Z</time>
      </trkpt>
      <trkpt lat="47.175" lon="5.84252">
        <ele>225.6</ele>
        <time>2024-08-05T07:56:01Z</time>
      </trkpt>
      <trkpt lat="47.175" lon="5.84245">
        <ele>225.6</ele>
        <time>2024-08-05T07:56:02Z</time>
      </trkpt>
      <trkpt lat="47.17501" lon="5.84238">
        <ele>225.6</ele>
        <time>2024-08-05T07:56:03Z</time>
      </trkpt>
      <trkpt lat="47.175" lon="5.84232">
        <ele>225.6</ele>
        <time>2024-08-05T07:56:04Z</time>
      </trkpt>
      <trkpt lat="47.175" lon="5.84227">
        <ele>225.6</ele>
        <time>2024-08-05T07:56:05Z</time>
      </trkpt>
      <trkpt lat="47.17499" lon="5.84221">
        <ele>225.6</ele>
        <time>2024-08-05T07:56:06Z</time>
      </trkpt>
      <trkpt lat="47.17498" lon="5.84215">
        <ele>225.8</ele>
        <time>2024-08-05T07:56:07Z</time>
      </trkpt>
      <trkpt lat="47.17498" lon="5.84209">
        <ele>225.6</ele>
        <time>2024-08-05T07:56:08Z</time>
      </trkpt>
      <trkpt lat="47.17498" lon="5.84203">
        <ele>225.8</ele>
        <time>2024-08-05T07:56:09Z</time>
      </trkpt>
      <trkpt lat="47.17497" lon="5.84197">
        <ele>225.8</ele>
        <time>2024-08-05T07:56:10Z</time>
      </trkpt>
      <trkpt lat="47.17497" lon="5.84192">
        <ele>225.8</ele>
        <time>2024-08-05T07:56:11Z</time>
      </trkpt>
      <trkpt lat="47.17496" lon="5.84187">
        <ele>225.8</ele>
        <time>2024-08-05T07:56:12Z</time>
      </trkpt>
      <trkpt lat="47.17495" lon="5.84183">
        <ele>226</ele>
        <time>2024-08-05T07:56:13Z</time>
      </trkpt>
      <trkpt lat="47.17494" lon="5.84178">
        <ele>226</ele>
        <time>2024-08-05T07:56:14Z</time>
      </trkpt>
      <trkpt lat="47.17494" lon="5.84172">
        <ele>226</ele>
        <time>2024-08-05T07:56:15Z</time>
      </trkpt>
      <trkpt lat="47.17494" lon="5.84167">
        <ele>226</ele>
        <time>2024-08-05T07:56:16Z</time>
      </trkpt>
      <trkpt lat="47.17493" lon="5.84162">
        <ele>226.2</ele>
        <time>2024-08-05T07:56:17Z</time>
      </trkpt>
      <trkpt lat="47.17493" lon="5.84158">
        <ele>226.4</ele>
        <time>2024-08-05T07:56:18Z</time>
      </trkpt>
      <trkpt lat="47.17491" lon="5.84153">
        <ele>226.6</ele>
        <time>2024-08-05T07:56:19Z</time>
      </trkpt>
      <trkpt lat="47.17489" lon="5.84149">
        <ele>226.6</ele>
        <time>2024-08-05T07:56:20Z</time>
      </trkpt>
      <trkpt lat="47.17488" lon="5.84145">
        <ele>227</ele>
        <time>2024-08-05T07:56:21Z</time>
      </trkpt>
      <trkpt lat="47.17487" lon="5.8414">
        <ele>227.2</ele>
        <time>2024-08-05T07:56:22Z</time>
      </trkpt>
      <trkpt lat="47.17486" lon="5.84136">
        <ele>227.6</ele>
        <time>2024-08-05T07:56:23Z</time>
      </trkpt>
      <trkpt lat="47.17486" lon="5.84132">
        <ele>227.6</ele>
        <time>2024-08-05T07:56:24Z</time>
      </trkpt>
      <trkpt lat="47.17485" lon="5.84128">
        <ele>227.8</ele>
        <time>2024-08-05T07:56:25Z</time>
      </trkpt>
      <trkpt lat="47.17485" lon="5.84124">
        <ele>228</ele>
        <time>2024-08-05T07:56:26Z</time>
      </trkpt>
      <trkpt lat="47.17485" lon="5.8412">
        <ele>228.2</ele>
        <time>2024-08-05T07:56:27Z</time>
      </trkpt>
      <trkpt lat="47.17486" lon="5.84115">
        <ele>228.8</ele>
        <time>2024-08-05T07:56:28Z</time>
      </trkpt>
      <trkpt lat="47.17488" lon="5.84111">
        <ele>229</ele>
        <time>2024-08-05T07:56:29Z</time>
      </trkpt>
      <trkpt lat="47.1749" lon="5.84106">
        <ele>229.2</ele>
        <time>2024-08-05T07:56:30Z</time>
      </trkpt>
      <trkpt lat="47.17492" lon="5.84102">
        <ele>229.6</ele>
        <time>2024-08-05T07:56:31Z</time>
      </trkpt>
      <trkpt lat="47.17494" lon="5.84099">
        <ele>230.2</ele>
        <time>2024-08-05T07:56:32Z</time>
      </trkpt>
      <trkpt lat="47.17496" lon="5.84096">
        <ele>230.4</ele>
        <time>2024-08-05T07:56:33Z</time>
      </trkpt>
      <trkpt lat="47.17499" lon="5.84094">
        <ele>230.6</ele>
        <time>2024-08-05T07:56:34Z</time>
      </trkpt>
      <trkpt lat="47.17501" lon="5.84092">
        <ele>230.8</ele>
        <time>2024-08-05T07:56:35Z</time>
      </trkpt>
      <trkpt lat="47.17503" lon="5.84091">
        <ele>231</ele>
        <time>2024-08-05T07:56:36Z</time>
      </trkpt>
      <trkpt lat="47.17505" lon="5.84089">
        <ele>231.4</ele>
        <time>2024-08-05T07:56:37Z</time>
      </trkpt>
      <trkpt lat="47.17507" lon="5.84088">
        <ele>231.6</ele>
        <time>2024-08-05T07:56:38Z</time>
      </trkpt>
      <trkpt lat="47.17509" lon="5.84087">
        <ele>232</ele>
        <time>2024-08-05T07:56:39Z</time>
      </trkpt>
      <trkpt lat="47.17511" lon="5.84086">
        <ele>232.4</ele>
        <time>2024-08-05T07:56:40Z</time>
      </trkpt>
      <trkpt lat="47.17514" lon="5.84085">
        <ele>232.6</ele>
        <time>2024-08-05T07:56:41Z</time>
      </trkpt>
      <trkpt lat="47.17516" lon="5.84084">
        <ele>232.8</ele>
        <time>2024-08-05T07:56:42Z</time>
      </trkpt>
      <trkpt lat="47.17519" lon="5.84083">
        <ele>233</ele>
        <time>2024-08-05T07:56:43Z</time>
      </trkpt>
      <trkpt lat="47.17521" lon="5.84082">
        <ele>233.2</ele>
        <time>2024-08-05T07:56:44Z</time>
      </trkpt>
      <trkpt lat="47.17524" lon="5.84082">
        <ele>233.4</ele>
        <time>2024-08-05T07:56:45Z</time>
      </trkpt>
      <trkpt lat="47.17527" lon="5.84081">
        <ele>233.4</ele>
        <time>2024-08-05T07:56:46Z</time>
      </trkpt>
      <trkpt lat="47.1753" lon="5.8408">
        <ele>233.4</ele>
        <time>2024-08-05T07:56:47Z</time>
      </trkpt>
      <trkpt lat="47.17534" lon="5.84079">
        <ele>233.6</ele>
        <time>2024-08-05T07:56:48Z</time>
      </trkpt>
      <trkpt lat="47.17537" lon="5.84079">
        <ele>233.8</ele>
        <time>2024-08-05T07:56:49Z</time>
      </trkpt>
      <trkpt lat="47.1754" lon="5.84079">
        <ele>234</ele>
        <time>2024-08-05T07:56:50Z</time>
      </trkpt>
      <trkpt lat="47.17542" lon="5.84079">
        <ele>234.2</ele>
        <time>2024-08-05T07:56:51Z</time>
      </trkpt>
      <trkpt lat="47.17544" lon="5.84079">
        <ele>234.2</ele>
        <time>2024-08-05T07:56:52Z</time>
      </trkpt>
      <trkpt lat="47.17546" lon="5.84079">
        <ele>234.2</ele>
        <time>2024-08-05T07:56:53Z</time>
      </trkpt>
      <trkpt lat="47.17548" lon="5.84078">
        <ele>234.4</ele>
        <time>2024-08-05T07:56:54Z</time>
      </trkpt>
      <trkpt lat="47.17551" lon="5.84077">
        <ele>234.6</ele>
        <time>2024-08-05T07:56:55Z</time>
      </trkpt>
      <trkpt lat="47.17553" lon="5.84076">
        <ele>234.8</ele>
        <time>2024-08-05T07:56:56Z</time>
      </trkpt>
      <trkpt lat="47.17555" lon="5.84073">
        <ele>234.8</ele>
        <time>2024-08-05T07:56:57Z</time>
      </trkpt>
      <trkpt lat="47.17557" lon="5.8407">
        <ele>235</ele>
        <time>2024-08-05T07:56:58Z</time>
      </trkpt>
      <trkpt lat="47.1756" lon="5.84067">
        <ele>235</ele>
        <time>2024-08-05T07:56:59Z</time>
      </trkpt>
      <trkpt lat="47.17563" lon="5.84064">
        <ele>235.4</ele>
        <time>2024-08-05T07:57:00Z</time>
      </trkpt>
      <trkpt lat="47.17566" lon="5.84061">
        <ele>235.4</ele>
        <time>2024-08-05T07:57:01Z</time>
      </trkpt>
      <trkpt lat="47.1757" lon="5.84059">
        <ele>235.6</ele>
        <time>2024-08-05T07:57:02Z</time>
      </trkpt>
      <trkpt lat="47.17573" lon="5.84056">
        <ele>235.6</ele>
        <time>2024-08-05T07:57:03Z</time>
      </trkpt>
      <trkpt lat="47.17577" lon="5.84054">
        <ele>236</ele>
        <time>2024-08-05T07:57:04Z</time>
      </trkpt>
      <trkpt lat="47.17579" lon="5.84051">
        <ele>236</ele>
        <time>2024-08-05T07:57:05Z</time>
      </trkpt>
      <trkpt lat="47.17583" lon="5.84048">
        <ele>236.2</ele>
        <time>2024-08-05T07:57:06Z</time>
      </trkpt>
      <trkpt lat="47.17585" lon="5.84045">
        <ele>236.6</ele>
        <time>2024-08-05T07:57:07Z</time>
      </trkpt>
      <trkpt lat="47.17587" lon="5.84041">
        <ele>236.6</ele>
        <time>2024-08-05T07:57:08Z</time>
      </trkpt>
      <trkpt lat="47.17588" lon="5.84037">
        <ele>236.8</ele>
        <time>2024-08-05T07:57:09Z</time>
      </trkpt>
      <trkpt lat="47.17589" lon="5.84033">
        <ele>237</ele>
        <time>2024-08-05T07:57:10Z</time>
      </trkpt>
      <trkpt lat="47.17589" lon="5.84029">
        <ele>237.4</ele>
        <time>2024-08-05T07:57:11Z</time>
      </trkpt>
      <trkpt lat="47.17589" lon="5.84026">
        <ele>237.6</ele>
        <time>2024-08-05T07:57:12Z</time>
      </trkpt>
      <trkpt lat="47.17589" lon="5.84022">
        <ele>237.8</ele>
        <time>2024-08-05T07:57:13Z</time>
      </trkpt>
      <trkpt lat="47.17589" lon="5.8402">
        <ele>238.2</ele>
        <time>2024-08-05T07:57:14Z</time>
      </trkpt>
      <trkpt lat="47.1759" lon="5.84016">
        <ele>238.4</ele>
        <time>2024-08-05T07:57:15Z</time>
      </trkpt>
      <trkpt lat="47.17591" lon="5.84013">
        <ele>238.8</ele>
        <time>2024-08-05T07:57:16Z</time>
      </trkpt>
      <trkpt lat="47.17591" lon="5.8401">
        <ele>239.2</ele>
        <time>2024-08-05T07:57:17Z</time>
      </trkpt>
      <trkpt lat="47.17591" lon="5.84007">
        <ele>239.4</ele>
        <time>2024-08-05T07:57:18Z</time>
      </trkpt>
      <trkpt lat="47.17591" lon="5.84004">
        <ele>239.6</ele>
        <time>2024-08-05T07:57:19Z</time>
      </trkpt>
      <trkpt lat="47.17591" lon="5.84001">
        <ele>239.8</ele>
        <time>2024-08-05T07:57:20Z</time>
      </trkpt>
      <trkpt lat="47.17592" lon="5.83998">
        <ele>240.2</ele>
        <time>2024-08-05T07:57:21Z</time>
      </trkpt>
      <trkpt lat="47.17592" lon="5.83996">
        <ele>240.4</ele>
        <time>2024-08-05T07:57:22Z</time>
      </trkpt>
      <trkpt lat="47.17593" lon="5.83993">
        <ele>240.8</ele>
        <time>2024-08-05T07:57:23Z</time>
      </trkpt>
      <trkpt lat="47.17593" lon="5.83991">
        <ele>241</ele>
        <time>2024-08-05T07:57:24Z</time>
      </trkpt>
      <trkpt lat="47.17593" lon="5.83989">
        <ele>241.4</ele>
        <time>2024-08-05T07:57:25Z</time>
      </trkpt>
      <trkpt lat="47.17592" lon="5.83987">
        <ele>242</ele>
        <time>2024-08-05T07:57:26Z</time>
      </trkpt>
      <trkpt lat="47.17592" lon="5.83985">
        <ele>242</ele>
        <time>2024-08-05T07:57:27Z</time>
      </trkpt>
      <trkpt lat="47.17592" lon="5.83982">
        <ele>242.2</ele>
        <time>2024-08-05T07:57:28Z</time>
      </trkpt>
      <trkpt lat="47.17593" lon="5.83979">
        <ele>242.6</ele>
        <time>2024-08-05T07:57:29Z</time>
      </trkpt>
      <trkpt lat="47.17593" lon="5.83973">
        <ele>242.6</ele>
        <time>2024-08-05T07:57:30Z</time>
      </trkpt>
      <trkpt lat="47.17593" lon="5.83969">
        <ele>242.8</ele>
        <time>2024-08-05T07:57:31Z</time>
      </trkpt>
      <trkpt lat="47.17592" lon="5.83966">
        <ele>242.8</ele>
        <time>2024-08-05T07:57:32Z</time>
      </trkpt>
      <trkpt lat="47.17592" lon="5.8396">
        <ele>243</ele>
        <time>2024-08-05T07:57:33Z</time>
      </trkpt>
      <trkpt lat="47.17592" lon="5.83955">
        <ele>243.4</ele>
        <time>2024-08-05T07:57:34Z</time>
      </trkpt>
      <trkpt lat="47.17591" lon="5.8395">
        <ele>243.4</ele>
        <time>2024-08-05T07:57:35Z</time>
      </trkpt>
      <trkpt lat="47.17591" lon="5.83946">
        <ele>243.6</ele>
        <time>2024-08-05T07:57:36Z</time>
      </trkpt>
      <trkpt lat="47.17592" lon="5.83942">
        <ele>243.8</ele>
        <time>2024-08-05T07:57:37Z</time>
      </trkpt>
      <trkpt lat="47.17592" lon="5.83937">
        <ele>244</ele>
        <time>2024-08-05T07:57:38Z</time>
      </trkpt>
      <trkpt lat="47.17592" lon="5.83929">
        <ele>244.4</ele>
        <time>2024-08-05T07:57:39Z</time>
      </trkpt>
      <trkpt lat="47.17593" lon="5.83923">
        <ele>244.6</ele>
        <time>2024-08-05T07:57:40Z</time>
      </trkpt>
      <trkpt lat="47.17593" lon="5.83916">
        <ele>244.8</ele>
        <time>2024-08-05T07:57:41Z</time>
      </trkpt>
      <trkpt lat="47.17593" lon="5.8391">
        <ele>245.2</ele>
        <time>2024-08-05T07:57:42Z</time>
      </trkpt>
      <trkpt lat="47.17593" lon="5.83904">
        <ele>245.4</ele>
        <time>2024-08-05T07:57:43Z</time>
      </trkpt>
      <trkpt lat="47.17594" lon="5.83899">
        <ele>245.6</ele>
        <time>2024-08-05T07:57:44Z</time>
      </trkpt>
      <trkpt lat="47.17594" lon="5.83894">
        <ele>245.8</ele>
        <time>2024-08-05T07:57:45Z</time>
      </trkpt>
      <trkpt lat="47.17594" lon="5.8389">
        <ele>246</ele>
        <time>2024-08-05T07:57:46Z</time>
      </trkpt>
      <trkpt lat="47.17595" lon="5.83886">
        <ele>246.4</ele>
        <time>2024-08-05T07:57:47Z</time>
      </trkpt>
      <trkpt lat="47.17594" lon="5.83882">
        <ele>246.6</ele>
        <time>2024-08-05T07:57:48Z</time>
      </trkpt>
      <trkpt lat="47.17594" lon="5.83878">
        <ele>246.6</ele>
        <time>2024-08-05T07:57:49Z</time>
      </trkpt>
      <trkpt lat="47.17595" lon="5.83874">
        <ele>246.8</ele>
        <time>2024-08-05T07:57:50Z</time>
      </trkpt>
      <trkpt lat="47.17596" lon="5.83871">
        <ele>247</ele>
        <time>2024-08-05T07:57:51Z</time>
      </trkpt>
      <trkpt lat="47.17598" lon="5.83869">
        <ele>247</ele>
        <time>2024-08-05T07:57:52Z</time>
      </trkpt>
      <trkpt lat="47.17599" lon="5.83867">
        <ele>247</ele>
        <time>2024-08-05T07:57:53Z</time>
      </trkpt>
      <trkpt lat="47.176" lon="5.83865">
        <ele>247.4</ele>
        <time>2024-08-05T07:57:54Z</time>
      </trkpt>
      <trkpt lat="47.17601" lon="5.83865">
        <ele>247.2</ele>
        <time>2024-08-05T07:57:55Z</time>
      </trkpt>
      <trkpt lat="47.17601" lon="5.83864">
        <ele>247.4</ele>
        <time>2024-08-05T07:57:56Z</time>
      </trkpt>
      <trkpt lat="47.17602" lon="5.83864">
        <ele>247.4</ele>
        <time>2024-08-05T07:57:57Z</time>
      </trkpt>
      <trkpt lat="47.17602" lon="5.83863">
        <ele>247.6</ele>
        <time>2024-08-05T07:57:58Z</time>
      </trkpt>
      <trkpt lat="47.17602" lon="5.83861">
        <ele>247.6</ele>
        <time>2024-08-05T07:57:59Z</time>
      </trkpt>
      <trkpt lat="47.17602" lon="5.83858">
        <ele>247.4</ele>
        <time>2024-08-05T07:58:00Z</time>
      </trkpt>
      <trkpt lat="47.17601" lon="5.83856">
        <ele>247.4</ele>
        <time>2024-08-05T07:58:01Z</time>
      </trkpt>
      <trkpt lat="47.176" lon="5.83855">
        <ele>247.6</ele>
        <time>2024-08-05T07:58:02Z</time>
      </trkpt>
      <trkpt lat="47.17599" lon="5.83855">
        <ele>247.6</ele>
        <time>2024-08-05T07:58:03Z</time>
      </trkpt>
      <trkpt lat="47.17597" lon="5.83855">
        <ele>247.8</ele>
        <time>2024-08-05T07:58:04Z</time>
      </trkpt>
      <trkpt lat="47.17595" lon="5.83855">
        <ele>247.8</ele>
        <time>2024-08-05T07:58:05Z</time>
      </trkpt>
      <trkpt lat="47.17593" lon="5.83855">
        <ele>247.6</ele>
        <time>2024-08-05T07:58:06Z</time>
      </trkpt>
      <trkpt lat="47.1759" lon="5.83856">
        <ele>247.6</ele>
        <time>2024-08-05T07:58:07Z</time>
      </trkpt>
      <trkpt lat="47.17588" lon="5.83855">
        <ele>247.6</ele>
        <time>2024-08-05T07:58:08Z</time>
      </trkpt>
      <trkpt lat="47.17586" lon="5.83855">
        <ele>247.8</ele>
        <time>2024-08-05T07:58:09Z</time>
      </trkpt>
      <trkpt lat="47.17584" lon="5.83854">
        <ele>247.8</ele>
        <time>2024-08-05T07:58:10Z</time>
      </trkpt>
      <trkpt lat="47.17581" lon="5.83854">
        <ele>247.8</ele>
        <time>2024-08-05T07:58:11Z</time>
      </trkpt>
      <trkpt lat="47.17579" lon="5.83854">
        <ele>247.8</ele>
        <time>2024-08-05T07:58:12Z</time>
      </trkpt>
      <trkpt lat="47.17576" lon="5.83855">
        <ele>247.8</ele>
        <time>2024-08-05T07:58:13Z</time>
      </trkpt>
      <trkpt lat="47.17573" lon="5.83856">
        <ele>247.8</ele>
        <time>2024-08-05T07:58:14Z</time>
      </trkpt>
      <trkpt lat="47.17571" lon="5.83858">
        <ele>247.8</ele>
        <time>2024-08-05T07:58:15Z</time>
      </trkpt>
      <trkpt lat="47.17568" lon="5.83859">
        <ele>247.6</ele>
        <time>2024-08-05T07:58:16Z</time>
      </trkpt>
      <trkpt lat="47.17566" lon="5.83861">
        <ele>247.6</ele>
        <time>2024-08-05T07:58:17Z</time>
      </trkpt>
      <trkpt lat="47.17563" lon="5.83863">
        <ele>247.6</ele>
        <time>2024-08-05T07:58:18Z</time>
      </trkpt>
      <trkpt lat="47.1756" lon="5.83865">
        <ele>247.6</ele>
        <time>2024-08-05T07:58:19Z</time>
      </trkpt>
      <trkpt lat="47.17557" lon="5.83867">
        <ele>247.4</ele>
        <time>2024-08-05T07:58:20Z</time>
      </trkpt>
      <trkpt lat="47.17553" lon="5.83868">
        <ele>247.2</ele>
        <time>2024-08-05T07:58:21Z</time>
      </trkpt>
      <trkpt lat="47.17548" lon="5.83869">
        <ele>247.2</ele>
        <time>2024-08-05T07:58:22Z</time>
      </trkpt>
      <trkpt lat="47.17544" lon="5.83871">
        <ele>247.2</ele>
        <time>2024-08-05T07:58:23Z</time>
      </trkpt>
      <trkpt lat="47.17539" lon="5.83873">
        <ele>247.2</ele>
        <time>2024-08-05T07:58:24Z</time>
      </trkpt>
      <trkpt lat="47.17534" lon="5.83873">
        <ele>247.2</ele>
        <time>2024-08-05T07:58:25Z</time>
      </trkpt>
      <trkpt lat="47.1753" lon="5.83874">
        <ele>247.2</ele>
        <time>2024-08-05T07:58:26Z</time>
      </trkpt>
      <trkpt lat="47.17526" lon="5.83875">
        <ele>247.2</ele>
        <time>2024-08-05T07:58:27Z</time>
      </trkpt>
      <trkpt lat="47.17523" lon="5.83877">
        <ele>247</ele>
        <time>2024-08-05T07:58:28Z</time>
      </trkpt>
      <trkpt lat="47.17521" lon="5.83878">
        <ele>246.8</ele>
        <time>2024-08-05T07:58:29Z</time>
      </trkpt>
      <trkpt lat="47.17518" lon="5.83881">
        <ele>246.8</ele>
        <time>2024-08-05T07:58:30Z</time>
      </trkpt>
      <trkpt lat="47.17515" lon="5.83883">
        <ele>246.8</ele>
        <time>2024-08-05T07:58:31Z</time>
      </trkpt>
      <trkpt lat="47.17512" lon="5.83885">
        <ele>246.8</ele>
        <time>2024-08-05T07:58:32Z</time>
      </trkpt>
      <trkpt lat="47.17508" lon="5.83888">
        <ele>246.6</ele>
        <time>2024-08-05T07:58:33Z</time>
      </trkpt>
      <trkpt lat="47.17504" lon="5.83891">
        <ele>246.2</ele>
        <time>2024-08-05T07:58:34Z</time>
      </trkpt>
      <trkpt lat="47.17499" lon="5.83894">
        <ele>246.2</ele>
        <time>2024-08-05T07:58:35Z</time>
      </trkpt>
      <trkpt lat="47.17495" lon="5.83895">
        <ele>245.8</ele>
        <time>2024-08-05T07:58:36Z</time>
      </trkpt>
      <trkpt lat="47.17491" lon="5.83896">
        <ele>245.6</ele>
        <time>2024-08-05T07:58:37Z</time>
      </trkpt>
      <trkpt lat="47.17487" lon="5.83895">
        <ele>245.6</ele>
        <time>2024-08-05T07:58:38Z</time>
      </trkpt>
      <trkpt lat="47.17484" lon="5.83895">
        <ele>245.2</ele>
        <time>2024-08-05T07:58:39Z</time>
      </trkpt>
      <trkpt lat="47.17481" lon="5.83894">
        <ele>245</ele>
        <time>2024-08-05T07:58:40Z</time>
      </trkpt>
      <trkpt lat="47.17478" lon="5.83893">
        <ele>245</ele>
        <time>2024-08-05T07:58:41Z</time>
      </trkpt>
      <trkpt lat="47.17476" lon="5.83892">
        <ele>244.8</ele>
        <time>2024-08-05T07:58:42Z</time>
      </trkpt>
      <trkpt lat="47.17473" lon="5.8389">
        <ele>244.4</ele>
        <time>2024-08-05T07:58:43Z</time>
      </trkpt>
      <trkpt lat="47.17471" lon="5.83888">
        <ele>244.2</ele>
        <time>2024-08-05T07:58:44Z</time>
      </trkpt>
      <trkpt lat="47.17468" lon="5.83885">
        <ele>244</ele>
        <time>2024-08-05T07:58:45Z</time>
      </trkpt>
      <trkpt lat="47.17466" lon="5.83882">
        <ele>244</ele>
        <time>2024-08-05T07:58:46Z</time>
      </trkpt>
      <trkpt lat="47.17464" lon="5.83879">
        <ele>244</ele>
        <time>2024-08-05T07:58:47Z</time>
      </trkpt>
      <trkpt lat="47.17461" lon="5.83876">
        <ele>244</ele>
        <time>2024-08-05T07:58:48Z</time>
      </trkpt>
      <trkpt lat="47.17459" lon="5.83873">
        <ele>243.8</ele>
        <time>2024-08-05T07:58:49Z</time>
      </trkpt>
      <trkpt lat="47.17457" lon="5.83871">
        <ele>243.8</ele>
        <time>2024-08-05T07:58:50Z</time>
      </trkpt>
      <trkpt lat="47.17454" lon="5.83869">
        <ele>243.8</ele>
        <time>2024-08-05T07:58:51Z</time>
      </trkpt>
      <trkpt lat="47.17451" lon="5.83867">
        <ele>243.8</ele>
        <time>2024-08-05T07:58:52Z</time>
      </trkpt>
      <trkpt lat="47.17448" lon="5.83866">
        <ele>244</ele>
        <time>2024-08-05T07:58:53Z</time>
      </trkpt>
      <trkpt lat="47.17445" lon="5.83864">
        <ele>244</ele>
        <time>2024-08-05T07:58:54Z</time>
      </trkpt>
      <trkpt lat="47.17442" lon="5.83862">
        <ele>244</ele>
        <time>2024-08-05T07:58:55Z</time>
      </trkpt>
      <trkpt lat="47.17439" lon="5.83861">
        <ele>244.2</ele>
        <time>2024-08-05T07:58:56Z</time>
      </trkpt>
      <trkpt lat="47.17436" lon="5.8386">
        <ele>244.2</ele>
        <time>2024-08-05T07:58:57Z</time>
      </trkpt>
      <trkpt lat="47.17433" lon="5.83859">
        <ele>244.4</ele>
        <time>2024-08-05T07:58:58Z</time>
      </trkpt>
      <trkpt lat="47.1743" lon="5.83857">
        <ele>244.2</ele>
        <time>2024-08-05T07:58:59Z</time>
      </trkpt>
      <trkpt lat="47.17426" lon="5.83855">
        <ele>244.6</ele>
        <time>2024-08-05T07:59:00Z</time>
      </trkpt>
      <trkpt lat="47.17423" lon="5.83854">
        <ele>245</ele>
        <time>2024-08-05T07:59:01Z</time>
      </trkpt>
      <trkpt lat="47.1742" lon="5.83853">
        <ele>245.2</ele>
        <time>2024-08-05T07:59:02Z</time>
      </trkpt>
      <trkpt lat="47.17416" lon="5.83852">
        <ele>245.6</ele>
        <time>2024-08-05T07:59:03Z</time>
      </trkpt>
      <trkpt lat="47.17413" lon="5.8385">
        <ele>245.8</ele>
        <time>2024-08-05T07:59:04Z</time>
      </trkpt>
      <trkpt lat="47.1741" lon="5.83848">
        <ele>246</ele>
        <time>2024-08-05T07:59:05Z</time>
      </trkpt>
      <trkpt lat="47.17408" lon="5.83847">
        <ele>246.2</ele>
        <time>2024-08-05T07:59:06Z</time>
      </trkpt>
      <trkpt lat="47.17405" lon="5.83846">
        <ele>246.2</ele>
        <time>2024-08-05T07:59:07Z</time>
      </trkpt>
      <trkpt lat="47.17402" lon="5.83845">
        <ele>246.6</ele>
        <time>2024-08-05T07:59:08Z</time>
      </trkpt>
      <trkpt lat="47.17399" lon="5.83845">
        <ele>246.8</ele>
        <time>2024-08-05T07:59:09Z</time>
      </trkpt>
      <trkpt lat="47.17396" lon="5.83844">
        <ele>247</ele>
        <time>2024-08-05T07:59:10Z</time>
      </trkpt>
      <trkpt lat="47.17393" lon="5.83843">
        <ele>247.2</ele>
        <time>2024-08-05T07:59:11Z</time>
      </trkpt>
      <trkpt lat="47.1739" lon="5.83842">
        <ele>247.4</ele>
        <time>2024-08-05T07:59:12Z</time>
      </trkpt>
      <trkpt lat="47.17388" lon="5.83841">
        <ele>247.8</ele>
        <time>2024-08-05T07:59:13Z</time>
      </trkpt>
      <trkpt lat="47.17386" lon="5.83841">
        <ele>247.8</ele>
        <time>2024-08-05T07:59:14Z</time>
      </trkpt>
      <trkpt lat="47.17382" lon="5.8384">
        <ele>248</ele>
        <time>2024-08-05T07:59:15Z</time>
      </trkpt>
      <trkpt lat="47.17379" lon="5.83839">
        <ele>248.4</ele>
        <time>2024-08-05T07:59:16Z</time>
      </trkpt>
      <trkpt lat="47.17375" lon="5.83838">
        <ele>248.6</ele>
        <time>2024-08-05T07:59:17Z</time>
      </trkpt>
      <trkpt lat="47.17372" lon="5.83837">
        <ele>248.8</ele>
        <time>2024-08-05T07:59:18Z</time>
      </trkpt>
      <trkpt lat="47.17367" lon="5.83836">
        <ele>248.8</ele>
        <time>2024-08-05T07:59:19Z</time>
      </trkpt>
      <trkpt lat="47.17363" lon="5.83835">
        <ele>249</ele>
        <time>2024-08-05T07:59:20Z</time>
      </trkpt>
      <trkpt lat="47.17361" lon="5.83835">
        <ele>249</ele>
        <time>2024-08-05T07:59:21Z</time>
      </trkpt>
      <trkpt lat="47.17358" lon="5.83834">
        <ele>249.4</ele>
        <time>2024-08-05T07:59:22Z</time>
      </trkpt>
      <trkpt lat="47.17354" lon="5.83834">
        <ele>249.4</ele>
        <time>2024-08-05T07:59:23Z</time>
      </trkpt>
      <trkpt lat="47.17351" lon="5.83834">
        <ele>249.8</ele>
        <time>2024-08-05T07:59:24Z</time>
      </trkpt>
      <trkpt lat="47.17347" lon="5.83834">
        <ele>250</ele>
        <time>2024-08-05T07:59:25Z</time>
      </trkpt>
      <trkpt lat="47.17344" lon="5.83834">
        <ele>250</ele>
        <time>2024-08-05T07:59:26Z</time>
      </trkpt>
      <trkpt lat="47.1734" lon="5.83834">
        <ele>250.2</ele>
        <time>2024-08-05T07:59:27Z</time>
      </trkpt>
      <trkpt lat="47.17336" lon="5.83834">
        <ele>250.2</ele>
        <time>2024-08-05T07:59:28Z</time>
      </trkpt>
      <trkpt lat="47.17332" lon="5.83835">
        <ele>250.2</ele>
        <time>2024-08-05T07:59:29Z</time>
      </trkpt>
      <trkpt lat="47.17329" lon="5.83835">
        <ele>250.2</ele>
        <time>2024-08-05T07:59:30Z</time>
      </trkpt>
      <trkpt lat="47.17325" lon="5.83836">
        <ele>250.4</ele>
        <time>2024-08-05T07:59:31Z</time>
      </trkpt>
      <trkpt lat="47.17321" lon="5.83837">
        <ele>250.2</ele>
        <time>2024-08-05T07:59:32Z</time>
      </trkpt>
      <trkpt lat="47.17318" lon="5.83837">
        <ele>250.4</ele>
        <time>2024-08-05T07:59:33Z</time>
      </trkpt>
      <trkpt lat="47.17314" lon="5.83838">
        <ele>250.2</ele>
        <time>2024-08-05T07:59:34Z</time>
      </trkpt>
      <trkpt lat="47.1731" lon="5.83839">
        <ele>250.4</ele>
        <time>2024-08-05T07:59:35Z</time>
      </trkpt>
      <trkpt lat="47.17305" lon="5.8384">
        <ele>250.2</ele>
        <time>2024-08-05T07:59:36Z</time>
      </trkpt>
      <trkpt lat="47.17301" lon="5.83841">
        <ele>250.2</ele>
        <time>2024-08-05T07:59:37Z</time>
      </trkpt>
      <trkpt lat="47.17297" lon="5.83841">
        <ele>250.2</ele>
        <time>2024-08-05T07:59:38Z</time>
      </trkpt>
      <trkpt lat="47.17293" lon="5.83841">
        <ele>250</ele>
        <time>2024-08-05T07:59:39Z</time>
      </trkpt>
      <trkpt lat="47.17289" lon="5.8384">
        <ele>250</ele>
        <time>2024-08-05T07:59:40Z</time>
      </trkpt>
      <trkpt lat="47.17285" lon="5.83839">
        <ele>250</ele>
        <time>2024-08-05T07:59:41Z</time>
      </trkpt>
      <trkpt lat="47.17282" lon="5.83837">
        <ele>249.8</ele>
        <time>2024-08-05T07:59:42Z</time>
      </trkpt>
      <trkpt lat="47.1728" lon="5.83836">
        <ele>249.8</ele>
        <time>2024-08-05T07:59:43Z</time>
      </trkpt>
      <trkpt lat="47.17278" lon="5.83834">
        <ele>249.8</ele>
        <time>2024-08-05T07:59:44Z</time>
      </trkpt>
      <trkpt lat="47.17275" lon="5.83832">
        <ele>249.6</ele>
        <time>2024-08-05T07:59:45Z</time>
      </trkpt>
      <trkpt lat="47.17273" lon="5.8383">
        <ele>249.8</ele>
        <time>2024-08-05T07:59:46Z</time>
      </trkpt>
      <trkpt lat="47.1727" lon="5.83827">
        <ele>249.8</ele>
        <time>2024-08-05T07:59:47Z</time>
      </trkpt>
      <trkpt lat="47.17268" lon="5.83825">
        <ele>249.8</ele>
        <time>2024-08-05T07:59:48Z</time>
      </trkpt>
      <trkpt lat="47.17266" lon="5.83823">
        <ele>249.6</ele>
        <time>2024-08-05T07:59:49Z</time>
      </trkpt>
      <trkpt lat="47.17264" lon="5.83821">
        <ele>249.8</ele>
        <time>2024-08-05T07:59:50Z</time>
      </trkpt>
      <trkpt lat="47.17261" lon="5.83819">
        <ele>250</ele>
        <time>2024-08-05T07:59:51Z</time>
      </trkpt>
      <trkpt lat="47.17258" lon="5.83816">
        <ele>250</ele>
        <time>2024-08-05T07:59:52Z</time>
      </trkpt>
      <trkpt lat="47.17256" lon="5.83814">
        <ele>250</ele>
        <time>2024-08-05T07:59:53Z</time>
      </trkpt>
      <trkpt lat="47.17254" lon="5.83813">
        <ele>250.2</ele>
        <time>2024-08-05T07:59:54Z</time>
      </trkpt>
      <trkpt lat="47.17251" lon="5.8381">
        <ele>250.4</ele>
        <time>2024-08-05T07:59:55Z</time>
      </trkpt>
      <trkpt lat="47.17248" lon="5.83808">
        <ele>250.6</ele>
        <time>2024-08-05T07:59:56Z</time>
      </trkpt>
      <trkpt lat="47.17246" lon="5.83806">
        <ele>250.6</ele>
        <time>2024-08-05T07:59:57Z</time>
      </trkpt>
      <trkpt lat="47.17244" lon="5.83804">
        <ele>250.8</ele>
        <time>2024-08-05T07:59:58Z</time>
      </trkpt>
      <trkpt lat="47.17242" lon="5.83802">
        <ele>250.8</ele>
        <time>2024-08-05T07:59:59Z</time>
      </trkpt>
      <trkpt lat="47.1724" lon="5.838">
        <ele>251</ele>
        <time>2024-08-05T08:00:00Z</time>
      </trkpt>
      <trkpt lat="47.17237" lon="5.83798">
        <ele>251.2</ele>
        <time>2024-08-05T08:00:01Z</time>
      </trkpt>
      <trkpt lat="47.17234" lon="5.83796">
        <ele>251.4</ele>
        <time>2024-08-05T08:00:02Z</time>
      </trkpt>
      <trkpt lat="47.1723" lon="5.83793">
        <ele>251.4</ele>
        <time>2024-08-05T08:00:03Z</time>
      </trkpt>
      <trkpt lat="47.17228" lon="5.83791">
        <ele>251.6</ele>
        <time>2024-08-05T08:00:04Z</time>
      </trkpt>
      <trkpt lat="47.17226" lon="5.83788">
        <ele>251.8</ele>
        <time>2024-08-05T08:00:05Z</time>
      </trkpt>
      <trkpt lat="47.17224" lon="5.83786">
        <ele>252</ele>
        <time>2024-08-05T08:00:06Z</time>
      </trkpt>
      <trkpt lat="47.1722" lon="5.83783">
        <ele>252.2</ele>
        <time>2024-08-05T08:00:07Z</time>
      </trkpt>
      <trkpt lat="47.17218" lon="5.83781">
        <ele>252.2</ele>
        <time>2024-08-05T08:00:08Z</time>
      </trkpt>
      <trkpt lat="47.17215" lon="5.83779">
        <ele>252.4</ele>
        <time>2024-08-05T08:00:09Z</time>
      </trkpt>
      <trkpt lat="47.17212" lon="5.83776">
        <ele>252.4</ele>
        <time>2024-08-05T08:00:10Z</time>
      </trkpt>
      <trkpt lat="47.1721" lon="5.83773">
        <ele>252.6</ele>
        <time>2024-08-05T08:00:11Z</time>
      </trkpt>
      <trkpt lat="47.17206" lon="5.83771">
        <ele>252.6</ele>
        <time>2024-08-05T08:00:12Z</time>
      </trkpt>
      <trkpt lat="47.17204" lon="5.83769">
        <ele>252.6</ele>
        <time>2024-08-05T08:00:13Z</time>
      </trkpt>
      <trkpt lat="47.172" lon="5.83767">
        <ele>253</ele>
        <time>2024-08-05T08:00:14Z</time>
      </trkpt>
      <trkpt lat="47.17197" lon="5.83764">
        <ele>253.2</ele>
        <time>2024-08-05T08:00:15Z</time>
      </trkpt>
      <trkpt lat="47.17196" lon="5.83763">
        <ele>253.2</ele>
        <time>2024-08-05T08:00:16Z</time>
      </trkpt>
      <trkpt lat="47.17195" lon="5.83761">
        <ele>253.4</ele>
        <time>2024-08-05T08:00:17Z</time>
      </trkpt>
      <trkpt lat="47.17194" lon="5.8376">
        <ele>253.4</ele>
        <time>2024-08-05T08:00:18Z</time>
      </trkpt>
      <trkpt lat="47.17193" lon="5.8376">
        <ele>253.6</ele>
        <time>2024-08-05T08:00:19Z</time>
      </trkpt>
      <trkpt lat="47.17192" lon="5.8376">
        <ele>253.6</ele>
        <time>2024-08-05T08:00:20Z</time>
      </trkpt>
      <trkpt lat="47.17191" lon="5.8376">
        <ele>253.6</ele>
        <time>2024-08-05T08:00:21Z</time>
      </trkpt>
      <trkpt lat="47.1719" lon="5.83759">
        <ele>253.6</ele>
        <time>2024-08-05T08:00:22Z</time>
      </trkpt>
      <trkpt lat="47.17187" lon="5.83757">
        <ele>253.6</ele>
        <time>2024-08-05T08:00:23Z</time>
      </trkpt>
      <trkpt lat="47.17186" lon="5.83756">
        <ele>253.6</ele>
        <time>2024-08-05T08:00:24Z</time>
      </trkpt>
      <trkpt lat="47.17186" lon="5.83755">
        <ele>253.6</ele>
        <time>2024-08-05T08:00:25Z</time>
      </trkpt>
      <trkpt lat="47.17185" lon="5.83755">
        <ele>253.6</ele>
        <time>2024-08-05T08:00:26Z</time>
      </trkpt>
      <trkpt lat="47.17183" lon="5.83753">
        <ele>253.8</ele>
        <time>2024-08-05T08:00:27Z</time>
      </trkpt>
      <trkpt lat="47.17183" lon="5.83753">
        <ele>253.8</ele>
        <time>2024-08-05T08:00:28Z</time>
      </trkpt>
      <trkpt lat="47.17183" lon="5.83753">
        <ele>253.8</ele>
        <time>2024-08-05T08:00:29Z</time>
      </trkpt>
      <trkpt lat="47.17183" lon="5.83753">
        <ele>253.8</ele>
        <time>2024-08-05T08:00:30Z</time>
      </trkpt>
      <trkpt lat="47.17183" lon="5.83753">
        <ele>253.8</ele>
        <time>2024-08-05T08:00:31Z</time>
      </trkpt>
      <trkpt lat="47.17183" lon="5.83753">
        <ele>253.8</ele>
        <time>2024-08-05T08:00:32Z</time>
      </trkpt>
      <trkpt lat="47.17183" lon="5.83753">
        <ele>254</ele>
        <time>2024-08-05T08:00:33Z</time>
      </trkpt>
      <trkpt lat="47.17183" lon="5.83753">
        <ele>253.8</ele>
        <time>2024-08-05T08:00:34Z</time>
      </trkpt>
      <trkpt lat="47.17183" lon="5.83753">
        <ele>253.8</ele>
        <time>2024-08-05T08:00:35Z</time>
      </trkpt>
      <trkpt lat="47.17182" lon="5.83752">
        <ele>254</ele>
        <time>2024-08-05T08:00:36Z</time>
      </trkpt>
      <trkpt lat="47.17182" lon="5.83752">
        <ele>254</ele>
        <time>2024-08-05T08:00:37Z</time>
      </trkpt>
      <trkpt lat="47.17181" lon="5.83751">
        <ele>253.8</ele>
        <time>2024-08-05T08:00:38Z</time>
      </trkpt>
      <trkpt lat="47.1718" lon="5.83751">
        <ele>253.8</ele>
        <time>2024-08-05T08:00:39Z</time>
      </trkpt>
      <trkpt lat="47.17179" lon="5.83749">
        <ele>254</ele>
        <time>2024-08-05T08:00:40Z</time>
      </trkpt>
      <trkpt lat="47.17178" lon="5.83748">
        <ele>254</ele>
        <time>2024-08-05T08:00:41Z</time>
      </trkpt>
      <trkpt lat="47.17177" lon="5.83747">
        <ele>254</ele>
        <time>2024-08-05T08:00:42Z</time>
      </trkpt>
      <trkpt lat="47.17175" lon="5.83745">
        <ele>254</ele>
        <time>2024-08-05T08:00:43Z</time>
      </trkpt>
      <trkpt lat="47.17174" lon="5.83744">
        <ele>254</ele>
        <time>2024-08-05T08:00:44Z</time>
      </trkpt>
      <trkpt lat="47.17172" lon="5.83743">
        <ele>254</ele>
        <time>2024-08-05T08:00:45Z</time>
      </trkpt>
      <trkpt lat="47.1717" lon="5.83742">
        <ele>254</ele>
        <time>2024-08-05T08:00:46Z</time>
      </trkpt>
      <trkpt lat="47.17168" lon="5.83741">
        <ele>254.2</ele>
        <time>2024-08-05T08:00:47Z</time>
      </trkpt>
      <trkpt lat="47.17167" lon="5.8374">
        <ele>254.2</ele>
        <time>2024-08-05T08:00:48Z</time>
      </trkpt>
      <trkpt lat="47.17166" lon="5.83739">
        <ele>254.4</ele>
        <time>2024-08-05T08:00:49Z</time>
      </trkpt>
      <trkpt lat="47.17163" lon="5.83736">
        <ele>254.4</ele>
        <time>2024-08-05T08:00:50Z</time>
      </trkpt>
      <trkpt lat="47.17161" lon="5.83735">
        <ele>254.4</ele>
        <time>2024-08-05T08:00:51Z</time>
      </trkpt>
      <trkpt lat="47.17158" lon="5.83733">
        <ele>254.6</ele>
        <time>2024-08-05T08:00:52Z</time>
      </trkpt>
      <trkpt lat="47.17156" lon="5.83732">
        <ele>254.4</ele>
        <time>2024-08-05T08:00:53Z</time>
      </trkpt>
      <trkpt lat="47.17154" lon="5.83731">
        <ele>254.4</ele>
        <time>2024-08-05T08:00:54Z</time>
      </trkpt>
      <trkpt lat="47.17152" lon="5.8373">
        <ele>254.6</ele>
        <time>2024-08-05T08:00:55Z</time>
      </trkpt>
      <trkpt lat="47.1715" lon="5.83729">
        <ele>254.4</ele>
        <time>2024-08-05T08:00:56Z</time>
      </trkpt>
      <trkpt lat="47.17148" lon="5.83729">
        <ele>254.6</ele>
        <time>2024-08-05T08:00:57Z</time>
      </trkpt>
      <trkpt lat="47.17145" lon="5.83728">
        <ele>254.4</ele>
        <time>2024-08-05T08:00:58Z</time>
      </trkpt>
      <trkpt lat="47.17144" lon="5.83727">
        <ele>254.6</ele>
        <time>2024-08-05T08:00:59Z</time>
      </trkpt>
      <trkpt lat="47.17143" lon="5.83725">
        <ele>254.4</ele>
        <time>2024-08-05T08:01:00Z</time>
      </trkpt>
      <trkpt lat="47.17142" lon="5.83724">
        <ele>254.4</ele>
        <time>2024-08-05T08:01:01Z</time>
      </trkpt>
      <trkpt lat="47.17141" lon="5.83722">
        <ele>254.4</ele>
        <time>2024-08-05T08:01:02Z</time>
      </trkpt>
      <trkpt lat="47.1714" lon="5.8372">
        <ele>254.2</ele>
        <time>2024-08-05T08:01:03Z</time>
      </trkpt>
      <trkpt lat="47.17138" lon="5.83716">
        <ele>254.2</ele>
        <time>2024-08-05T08:01:04Z</time>
      </trkpt>
      <trkpt lat="47.17135" lon="5.83712">
        <ele>254.4</ele>
        <time>2024-08-05T08:01:05Z</time>
      </trkpt>
      <trkpt lat="47.17133" lon="5.8371">
        <ele>254.2</ele>
        <time>2024-08-05T08:01:06Z</time>
      </trkpt>
      <trkpt lat="47.17132" lon="5.83709">
        <ele>254.2</ele>
        <time>2024-08-05T08:01:07Z</time>
      </trkpt>
      <trkpt lat="47.1713" lon="5.83708">
        <ele>254.2</ele>
        <time>2024-08-05T08:01:08Z</time>
      </trkpt>
      <trkpt lat="47.17127" lon="5.83706">
        <ele>254.2</ele>
        <time>2024-08-05T08:01:09Z</time>
      </trkpt>
      <trkpt lat="47.17125" lon="5.83704">
        <ele>254.2</ele>
        <time>2024-08-05T08:01:10Z</time>
      </trkpt>
      <trkpt lat="47.17121" lon="5.83701">
        <ele>254.2</ele>
        <time>2024-08-05T08:01:11Z</time>
      </trkpt>
      <trkpt lat="47.17119" lon="5.83699">
        <ele>254.4</ele>
        <time>2024-08-05T08:01:12Z</time>
      </trkpt>
      <trkpt lat="47.17117" lon="5.83697">
        <ele>254.4</ele>
        <time>2024-08-05T08:01:13Z</time>
      </trkpt>
      <trkpt lat="47.17115" lon="5.83695">
        <ele>254.6</ele>
        <time>2024-08-05T08:01:14Z</time>
      </trkpt>
      <trkpt lat="47.17112" lon="5.83693">
        <ele>254.8</ele>
        <time>2024-08-05T08:01:15Z</time>
      </trkpt>
      <trkpt lat="47.17109" lon="5.83691">
        <ele>254.8</ele>
        <time>2024-08-05T08:01:16Z</time>
      </trkpt>
      <trkpt lat="47.17106" lon="5.83688">
        <ele>255</ele>
        <time>2024-08-05T08:01:17Z</time>
      </trkpt>
      <trkpt lat="47.17104" lon="5.83686">
        <ele>255.2</ele>
        <time>2024-08-05T08:01:18Z</time>
      </trkpt>
      <trkpt lat="47.17102" lon="5.83683">
        <ele>255</ele>
        <time>2024-08-05T08:01:19Z</time>
      </trkpt>
      <trkpt lat="47.17099" lon="5.83681">
        <ele>255.2</ele>
        <time>2024-08-05T08:01:20Z</time>
      </trkpt>
      <trkpt lat="47.17097" lon="5.83679">
        <ele>255.4</ele>
        <time>2024-08-05T08:01:21Z</time>
      </trkpt>
      <trkpt lat="47.17095" lon="5.83677">
        <ele>255.4</ele>
        <time>2024-08-05T08:01:22Z</time>
      </trkpt>
      <trkpt lat="47.17092" lon="5.83674">
        <ele>255.4</ele>
        <time>2024-08-05T08:01:23Z</time>
      </trkpt>
      <trkpt lat="47.1709" lon="5.83672">
        <ele>255.6</ele>
        <time>2024-08-05T08:01:24Z</time>
      </trkpt>
      <trkpt lat="47.17088" lon="5.8367">
        <ele>255.4</ele>
        <time>2024-08-05T08:01:25Z</time>
      </trkpt>
      <trkpt lat="47.17086" lon="5.83668">
        <ele>255.8</ele>
        <time>2024-08-05T08:01:26Z</time>
      </trkpt>
      <trkpt lat="47.17084" lon="5.83667">
        <ele>255.8</ele>
        <time>2024-08-05T08:01:27Z</time>
      </trkpt>
      <trkpt lat="47.17082" lon="5.83665">
        <ele>255.8</ele>
        <time>2024-08-05T08:01:28Z</time>
      </trkpt>
      <trkpt lat="47.1708" lon="5.83664">
        <ele>255.6</ele>
        <time>2024-08-05T08:01:29Z</time>
      </trkpt>
      <trkpt lat="47.17078" lon="5.83663">
        <ele>255.6</ele>
        <time>2024-08-05T08:01:30Z</time>
      </trkpt>
      <trkpt lat="47.17077" lon="5.83662">
        <ele>255.8</ele>
        <time>2024-08-05T08:01:31Z</time>
      </trkpt>
      <trkpt lat="47.17074" lon="5.83662">
        <ele>255.8</ele>
        <time>2024-08-05T08:01:32Z</time>
      </trkpt>
      <trkpt lat="47.17071" lon="5.8366">
        <ele>255.8</ele>
        <time>2024-08-05T08:01:33Z</time>
      </trkpt>
      <trkpt lat="47.17068" lon="5.83659">
        <ele>255.8</ele>
        <time>2024-08-05T08:01:34Z</time>
      </trkpt>
      <trkpt lat="47.17066" lon="5.83657">
        <ele>255.8</ele>
        <time>2024-08-05T08:01:35Z</time>
      </trkpt>
      <trkpt lat="47.17063" lon="5.83654">
        <ele>255.8</ele>
        <time>2024-08-05T08:01:36Z</time>
      </trkpt>
      <trkpt lat="47.17059" lon="5.83652">
        <ele>255.6</ele>
        <time>2024-08-05T08:01:37Z</time>
      </trkpt>
      <trkpt lat="47.17056" lon="5.8365">
        <ele>255.6</ele>
        <time>2024-08-05T08:01:38Z</time>
      </trkpt>
      <trkpt lat="47.17053" lon="5.83648">
        <ele>255.6</ele>
        <time>2024-08-05T08:01:39Z</time>
      </trkpt>
      <trkpt lat="47.17051" lon="5.83646">
        <ele>255.6</ele>
        <time>2024-08-05T08:01:40Z</time>
      </trkpt>
      <trkpt lat="47.17049" lon="5.83645">
        <ele>255.6</ele>
        <time>2024-08-05T08:01:41Z</time>
      </trkpt>
      <trkpt lat="47.17046" lon="5.83642">
        <ele>255.6</ele>
        <time>2024-08-05T08:01:42Z</time>
      </trkpt>
      <trkpt lat="47.17042" lon="5.83639">
        <ele>255.6</ele>
        <time>2024-08-05T08:01:43Z</time>
      </trkpt>
      <trkpt lat="47.17039" lon="5.83636">
        <ele>255.4</ele>
        <time>2024-08-05T08:01:44Z</time>
      </trkpt>
      <trkpt lat="47.17037" lon="5.83633">
        <ele>255.4</ele>
        <time>2024-08-05T08:01:45Z</time>
      </trkpt>
      <trkpt lat="47.17033" lon="5.83631">
        <ele>255.4</ele>
        <time>2024-08-05T08:01:46Z</time>
      </trkpt>
      <trkpt lat="47.17029" lon="5.83627">
        <ele>255.4</ele>
        <time>2024-08-05T08:01:47Z</time>
      </trkpt>
      <trkpt lat="47.17024" lon="5.83623">
        <ele>255.4</ele>
        <time>2024-08-05T08:01:48Z</time>
      </trkpt>
      <trkpt lat="47.1702" lon="5.83619">
        <ele>255.2</ele>
        <time>2024-08-05T08:01:49Z</time>
      </trkpt>
      <trkpt lat="47.17014" lon="5.83614">
        <ele>255.4</ele>
        <time>2024-08-05T08:01:50Z</time>
      </trkpt>
      <trkpt lat="47.17012" lon="5.83611">
        <ele>255.4</ele>
        <time>2024-08-05T08:01:51Z</time>
      </trkpt>
      <trkpt lat="47.17008" lon="5.83608">
        <ele>255.4</ele>
        <time>2024-08-05T08:01:52Z</time>
      </trkpt>
      <trkpt lat="47.17005" lon="5.83606">
        <ele>255.2</ele>
        <time>2024-08-05T08:01:53Z</time>
      </trkpt>
      <trkpt lat="47.17002" lon="5.83604">
        <ele>255.2</ele>
        <time>2024-08-05T08:01:54Z</time>
      </trkpt>
      <trkpt lat="47.16997" lon="5.83602">
        <ele>255</ele>
        <time>2024-08-05T08:01:55Z</time>
      </trkpt>
      <trkpt lat="47.16993" lon="5.83598">
        <ele>255</ele>
        <time>2024-08-05T08:01:56Z</time>
      </trkpt>
      <trkpt lat="47.16989" lon="5.83594">
        <ele>255</ele>
        <time>2024-08-05T08:01:57Z</time>
      </trkpt>
      <trkpt lat="47.16984" lon="5.8359">
        <ele>254.8</ele>
        <time>2024-08-05T08:01:58Z</time>
      </trkpt>
      <trkpt lat="47.16981" lon="5.83587">
        <ele>254.6</ele>
        <time>2024-08-05T08:01:59Z</time>
      </trkpt>
      <trkpt lat="47.16977" lon="5.83584">
        <ele>254.4</ele>
        <time>2024-08-05T08:02:00Z</time>
      </trkpt>
      <trkpt lat="47.16974" lon="5.83581">
        <ele>254.4</ele>
        <time>2024-08-05T08:02:01Z</time>
      </trkpt>
      <trkpt lat="47.1697" lon="5.83578">
        <ele>254</ele>
        <time>2024-08-05T08:02:02Z</time>
      </trkpt>
      <trkpt lat="47.16966" lon="5.83575">
        <ele>253.8</ele>
        <time>2024-08-05T08:02:03Z</time>
      </trkpt>
      <trkpt lat="47.16961" lon="5.83571">
        <ele>253.8</ele>
        <time>2024-08-05T08:02:04Z</time>
      </trkpt>
      <trkpt lat="47.16958" lon="5.83568">
        <ele>253.6</ele>
        <time>2024-08-05T08:02:05Z</time>
      </trkpt>
      <trkpt lat="47.16954" lon="5.83566">
        <ele>253.6</ele>
        <time>2024-08-05T08:02:06Z</time>
      </trkpt>
      <trkpt lat="47.16951" lon="5.83563">
        <ele>253.4</ele>
        <time>2024-08-05T08:02:07Z</time>
      </trkpt>
      <trkpt lat="47.16948" lon="5.83561">
        <ele>253.2</ele>
        <time>2024-08-05T08:02:08Z</time>
      </trkpt>
      <trkpt lat="47.16946" lon="5.83559">
        <ele>253</ele>
        <time>2024-08-05T08:02:09Z</time>
      </trkpt>
      <trkpt lat="47.16945" lon="5.83557">
        <ele>252.8</ele>
        <time>2024-08-05T08:02:10Z</time>
      </trkpt>
      <trkpt lat="47.16944" lon="5.83555">
        <ele>252.6</ele>
        <time>2024-08-05T08:02:11Z</time>
      </trkpt>
      <trkpt lat="47.16944" lon="5.83554">
        <ele>252.4</ele>
        <time>2024-08-05T08:02:12Z</time>
      </trkpt>
      <trkpt lat="47.16942" lon="5.83552">
        <ele>252</ele>
        <time>2024-08-05T08:02:13Z</time>
      </trkpt>
      <trkpt lat="47.16941" lon="5.8355">
        <ele>252</ele>
        <time>2024-08-05T08:02:14Z</time>
      </trkpt>
      <trkpt lat="47.1694" lon="5.83551">
        <ele>251.6</ele>
        <time>2024-08-05T08:02:15Z</time>
      </trkpt>
      <trkpt lat="47.16939" lon="5.83552">
        <ele>251.4</ele>
        <time>2024-08-05T08:02:16Z</time>
      </trkpt>
      <trkpt lat="47.16936" lon="5.83554">
        <ele>251.4</ele>
        <time>2024-08-05T08:02:17Z</time>
      </trkpt>
      <trkpt lat="47.16933" lon="5.83556">
        <ele>251</ele>
        <time>2024-08-05T08:02:18Z</time>
      </trkpt>
      <trkpt lat="47.16929" lon="5.83559">
        <ele>251.2</ele>
        <time>2024-08-05T08:02:19Z</time>
      </trkpt>
      <trkpt lat="47.16926" lon="5.83563">
        <ele>250.8</ele>
        <time>2024-08-05T08:02:20Z</time>
      </trkpt>
      <trkpt lat="47.16923" lon="5.83567">
        <ele>250.8</ele>
        <time>2024-08-05T08:02:21Z</time>
      </trkpt>
      <trkpt lat="47.16921" lon="5.83571">
        <ele>250.8</ele>
        <time>2024-08-05T08:02:22Z</time>
      </trkpt>
      <trkpt lat="47.16919" lon="5.83575">
        <ele>250.6</ele>
        <time>2024-08-05T08:02:23Z</time>
      </trkpt>
      <trkpt lat="47.16918" lon="5.8358">
        <ele>250.6</ele>
        <time>2024-08-05T08:02:24Z</time>
      </trkpt>
      <trkpt lat="47.16916" lon="5.83584">
        <ele>250.6</ele>
        <time>2024-08-05T08:02:25Z</time>
      </trkpt>
      <trkpt lat="47.16914" lon="5.83587">
        <ele>250.4</ele>
        <time>2024-08-05T08:02:26Z</time>
      </trkpt>
      <trkpt lat="47.16913" lon="5.83592">
        <ele>250.4</ele>
        <time>2024-08-05T08:02:27Z</time>
      </trkpt>
      <trkpt lat="47.16909" lon="5.83594">
        <ele>250</ele>
        <time>2024-08-05T08:02:28Z</time>
      </trkpt>
      <trkpt lat="47.16907" lon="5.83598">
        <ele>249.8</ele>
        <time>2024-08-05T08:02:29Z</time>
      </trkpt>
      <trkpt lat="47.16905" lon="5.83603">
        <ele>249.6</ele>
        <time>2024-08-05T08:02:30Z</time>
      </trkpt>
      <trkpt lat="47.16902" lon="5.83607">
        <ele>249.4</ele>
        <time>2024-08-05T08:02:31Z</time>
      </trkpt>
      <trkpt lat="47.169" lon="5.83611">
        <ele>248.8</ele>
        <time>2024-08-05T08:02:32Z</time>
      </trkpt>
      <trkpt lat="47.16899" lon="5.83616">
        <ele>248.6</ele>
        <time>2024-08-05T08:02:33Z</time>
      </trkpt>
      <trkpt lat="47.16897" lon="5.83621">
        <ele>248.2</ele>
        <time>2024-08-05T08:02:34Z</time>
      </trkpt>
      <trkpt lat="47.16896" lon="5.83625">
        <ele>248</ele>
        <time>2024-08-05T08:02:35Z</time>
      </trkpt>
      <trkpt lat="47.16894" lon="5.83629">
        <ele>248</ele>
        <time>2024-08-05T08:02:36Z</time>
      </trkpt>
      <trkpt lat="47.16894" lon="5.83633">
        <ele>247.6</ele>
        <time>2024-08-05T08:02:37Z</time>
      </trkpt>
      <trkpt lat="47.16893" lon="5.83636">
        <ele>247.4</ele>
        <time>2024-08-05T08:02:38Z</time>
      </trkpt>
      <trkpt lat="47.16892" lon="5.83638">
        <ele>246.8</ele>
        <time>2024-08-05T08:02:39Z</time>
      </trkpt>
      <trkpt lat="47.16891" lon="5.8364">
        <ele>246.4</ele>
        <time>2024-08-05T08:02:40Z</time>
      </trkpt>
      <trkpt lat="47.16889" lon="5.83641">
        <ele>246</ele>
        <time>2024-08-05T08:02:41Z</time>
      </trkpt>
      <trkpt lat="47.16886" lon="5.83642">
        <ele>245.4</ele>
        <time>2024-08-05T08:02:42Z</time>
      </trkpt>
      <trkpt lat="47.16883" lon="5.83643">
        <ele>245</ele>
        <time>2024-08-05T08:02:43Z</time>
      </trkpt>
      <trkpt lat="47.16879" lon="5.83642">
        <ele>244.2</ele>
        <time>2024-08-05T08:02:44Z</time>
      </trkpt>
      <trkpt lat="47.16875" lon="5.83642">
        <ele>243.8</ele>
        <time>2024-08-05T08:02:45Z</time>
      </trkpt>
      <trkpt lat="47.16869" lon="5.83641">
        <ele>243.4</ele>
        <time>2024-08-05T08:02:46Z</time>
      </trkpt>
      <trkpt lat="47.16864" lon="5.8364">
        <ele>243</ele>
        <time>2024-08-05T08:02:47Z</time>
      </trkpt>
      <trkpt lat="47.16859" lon="5.83639">
        <ele>242.8</ele>
        <time>2024-08-05T08:02:48Z</time>
      </trkpt>
      <trkpt lat="47.16852" lon="5.83638">
        <ele>242.6</ele>
        <time>2024-08-05T08:02:49Z</time>
      </trkpt>
      <trkpt lat="47.16846" lon="5.83636">
        <ele>242</ele>
        <time>2024-08-05T08:02:50Z</time>
      </trkpt>
      <trkpt lat="47.1684" lon="5.83633">
        <ele>241.6</ele>
        <time>2024-08-05T08:02:51Z</time>
      </trkpt>
      <trkpt lat="47.16835" lon="5.83629">
        <ele>240.8</ele>
        <time>2024-08-05T08:02:52Z</time>
      </trkpt>
      <trkpt lat="47.16829" lon="5.83624">
        <ele>240.4</ele>
        <time>2024-08-05T08:02:53Z</time>
      </trkpt>
      <trkpt lat="47.16823" lon="5.83619">
        <ele>239.4</ele>
        <time>2024-08-05T08:02:54Z</time>
      </trkpt>
      <trkpt lat="47.16819" lon="5.83615">
        <ele>238.6</ele>
        <time>2024-08-05T08:02:55Z</time>
      </trkpt>
      <trkpt lat="47.16815" lon="5.83611">
        <ele>237.6</ele>
        <time>2024-08-05T08:02:56Z</time>
      </trkpt>
      <trkpt lat="47.16811" lon="5.83607">
        <ele>237.6</ele>
        <time>2024-08-05T08:02:57Z</time>
      </trkpt>
      <trkpt lat="47.16807" lon="5.83602">
        <ele>236.6</ele>
        <time>2024-08-05T08:02:58Z</time>
      </trkpt>
      <trkpt lat="47.16804" lon="5.83598">
        <ele>235.4</ele>
        <time>2024-08-05T08:02:59Z</time>
      </trkpt>
      <trkpt lat="47.16801" lon="5.83595">
        <ele>234.6</ele>
        <time>2024-08-05T08:03:00Z</time>
      </trkpt>
      <trkpt lat="47.16799" lon="5.83592">
        <ele>233.6</ele>
        <time>2024-08-05T08:03:01Z</time>
      </trkpt>
      <trkpt lat="47.16797" lon="5.8359">
        <ele>232.2</ele>
        <time>2024-08-05T08:03:02Z</time>
      </trkpt>
      <trkpt lat="47.16795" lon="5.83588">
        <ele>230.8</ele>
        <time>2024-08-05T08:03:03Z</time>
      </trkpt>
      <trkpt lat="47.16794" lon="5.83587">
        <ele>229.6</ele>
        <time>2024-08-05T08:03:04Z</time>
      </trkpt>
      <trkpt lat="47.16793" lon="5.83587">
        <ele>228.4</ele>
        <time>2024-08-05T08:03:05Z</time>
      </trkpt>
      <trkpt lat="47.16791" lon="5.83588">
        <ele>227.6</ele>
        <time>2024-08-05T08:03:06Z</time>
      </trkpt>
      <trkpt lat="47.1679" lon="5.83589">
        <ele>226.8</ele>
        <time>2024-08-05T08:03:07Z</time>
      </trkpt>
      <trkpt lat="47.16789" lon="5.83591">
        <ele>225.8</ele>
        <time>2024-08-05T08:03:08Z</time>
      </trkpt>
      <trkpt lat="47.16788" lon="5.83594">
        <ele>225</ele>
        <time>2024-08-05T08:03:09Z</time>
      </trkpt>
      <trkpt lat="47.16787" lon="5.83597">
        <ele>224.6</ele>
        <time>2024-08-05T08:03:10Z</time>
      </trkpt>
      <trkpt lat="47.16785" lon="5.836">
        <ele>224</ele>
        <time>2024-08-05T08:03:11Z</time>
      </trkpt>
      <trkpt lat="47.16784" lon="5.83603">
        <ele>223.8</ele>
        <time>2024-08-05T08:03:12Z</time>
      </trkpt>
      <trkpt lat="47.16782" lon="5.83607">
        <ele>223.8</ele>
        <time>2024-08-05T08:03:13Z</time>
      </trkpt>
      <trkpt lat="47.16781" lon="5.83611">
        <ele>223.8</ele>
        <time>2024-08-05T08:03:14Z</time>
      </trkpt>
      <trkpt lat="47.16779" lon="5.83616">
        <ele>223.6</ele>
        <time>2024-08-05T08:03:15Z</time>
      </trkpt>
      <trkpt lat="47.16776" lon="5.8362">
        <ele>223.6</ele>
        <time>2024-08-05T08:03:16Z</time>
      </trkpt>
      <trkpt lat="47.16773" lon="5.83623">
        <ele>223.6</ele>
        <time>2024-08-05T08:03:17Z</time>
      </trkpt>
      <trkpt lat="47.1677" lon="5.83626">
        <ele>223.6</ele>
        <time>2024-08-05T08:03:18Z</time>
      </trkpt>
      <trkpt lat="47.16767" lon="5.83628">
        <ele>223.6</ele>
        <time>2024-08-05T08:03:19Z</time>
      </trkpt>
      <trkpt lat="47.16763" lon="5.8363">
        <ele>223.6</ele>
        <time>2024-08-05T08:03:20Z</time>
      </trkpt>
      <trkpt lat="47.16761" lon="5.83632">
        <ele>223.6</ele>
        <time>2024-08-05T08:03:21Z</time>
      </trkpt>
      <trkpt lat="47.1676" lon="5.83634">
        <ele>223.8</ele>
        <time>2024-08-05T08:03:22Z</time>
      </trkpt>
      <trkpt lat="47.16758" lon="5.83635">
        <ele>223.6</ele>
        <time>2024-08-05T08:03:23Z</time>
      </trkpt>
      <trkpt lat="47.16758" lon="5.83638">
        <ele>223.6</ele>
        <time>2024-08-05T08:03:24Z</time>
      </trkpt>
      <trkpt lat="47.16756" lon="5.83639">
        <ele>223.6</ele>
        <time>2024-08-05T08:03:25Z</time>
      </trkpt>
      <trkpt lat="47.16756" lon="5.83641">
        <ele>223.6</ele>
        <time>2024-08-05T08:03:26Z</time>
      </trkpt>
      <trkpt lat="47.16756" lon="5.83643">
        <ele>223.6</ele>
        <time>2024-08-05T08:03:27Z</time>
      </trkpt>
      <trkpt lat="47.16756" lon="5.83645">
        <ele>223.6</ele>
        <time>2024-08-05T08:03:28Z</time>
      </trkpt>
      <trkpt lat="47.16756" lon="5.83647">
        <ele>223.6</ele>
        <time>2024-08-05T08:03:29Z</time>
      </trkpt>
      <trkpt lat="47.16756" lon="5.83649">
        <ele>223.6</ele>
        <time>2024-08-05T08:03:30Z</time>
      </trkpt>
      <trkpt lat="47.16757" lon="5.8365">
        <ele>223.6</ele>
        <time>2024-08-05T08:03:31Z</time>
      </trkpt>
      <trkpt lat="47.16757" lon="5.83652">
        <ele>223.8</ele>
        <time>2024-08-05T08:03:32Z</time>
      </trkpt>
      <trkpt lat="47.16756" lon="5.83654">
        <ele>223.6</ele>
        <time>2024-08-05T08:03:33Z</time>
      </trkpt>
      <trkpt lat="47.16755" lon="5.83656">
        <ele>223.6</ele>
        <time>2024-08-05T08:03:34Z</time>
      </trkpt>
      <trkpt lat="47.16754" lon="5.83657">
        <ele>223.6</ele>
        <time>2024-08-05T08:03:35Z</time>
      </trkpt>
      <trkpt lat="47.16753" lon="5.83659">
        <ele>223.6</ele>
        <time>2024-08-05T08:03:36Z</time>
      </trkpt>
      <trkpt lat="47.16751" lon="5.83661">
        <ele>223.6</ele>
        <time>2024-08-05T08:03:37Z</time>
      </trkpt>
      <trkpt lat="47.1675" lon="5.83663">
        <ele>223.6</ele>
        <time>2024-08-05T08:03:38Z</time>
      </trkpt>
      <trkpt lat="47.16748" lon="5.83666">
        <ele>223.6</ele>
        <time>2024-08-05T08:03:39Z</time>
      </trkpt>
      <trkpt lat="47.16747" lon="5.83669">
        <ele>223.6</ele>
        <time>2024-08-05T08:03:40Z</time>
      </trkpt>
      <trkpt lat="47.16746" lon="5.83672">
        <ele>223.6</ele>
        <time>2024-08-05T08:03:41Z</time>
      </trkpt>
      <trkpt lat="47.16744" lon="5.83673">
        <ele>223.6</ele>
        <time>2024-08-05T08:03:42Z</time>
      </trkpt>
      <trkpt lat="47.16742" lon="5.83674">
        <ele>223.8</ele>
        <time>2024-08-05T08:03:43Z</time>
      </trkpt>
      <trkpt lat="47.16741" lon="5.83674">
        <ele>223.6</ele>
        <time>2024-08-05T08:03:44Z</time>
      </trkpt>
      <trkpt lat="47.16739" lon="5.83674">
        <ele>223.6</ele>
        <time>2024-08-05T08:03:45Z</time>
      </trkpt>
      <trkpt lat="47.16738" lon="5.83672">
        <ele>223.6</ele>
        <time>2024-08-05T08:03:46Z</time>
      </trkpt>
      <trkpt lat="47.16736" lon="5.83669">
        <ele>223.6</ele>
        <time>2024-08-05T08:03:47Z</time>
      </trkpt>
      <trkpt lat="47.16735" lon="5.83667">
        <ele>223.6</ele>
        <time>2024-08-05T08:03:48Z</time>
      </trkpt>
      <trkpt lat="47.16735" lon="5.83664">
        <ele>223.8</ele>
        <time>2024-08-05T08:03:49Z</time>
      </trkpt>
      <trkpt lat="47.16735" lon="5.8366">
        <ele>223.6</ele>
        <time>2024-08-05T08:03:50Z</time>
      </trkpt>
      <trkpt lat="47.16734" lon="5.83656">
        <ele>223.8</ele>
        <time>2024-08-05T08:03:51Z</time>
      </trkpt>
      <trkpt lat="47.16733" lon="5.83652">
        <ele>223.6</ele>
        <time>2024-08-05T08:03:52Z</time>
      </trkpt>
      <trkpt lat="47.16733" lon="5.83648">
        <ele>223.6</ele>
        <time>2024-08-05T08:03:53Z</time>
      </trkpt>
      <trkpt lat="47.16733" lon="5.83643">
        <ele>223.6</ele>
        <time>2024-08-05T08:03:54Z</time>
      </trkpt>
      <trkpt lat="47.16733" lon="5.83638">
        <ele>223.6</ele>
        <time>2024-08-05T08:03:55Z</time>
      </trkpt>
      <trkpt lat="47.16733" lon="5.83632">
        <ele>223.4</ele>
        <time>2024-08-05T08:03:56Z</time>
      </trkpt>
      <trkpt lat="47.16733" lon="5.83626">
        <ele>223.4</ele>
        <time>2024-08-05T08:03:57Z</time>
      </trkpt>
      <trkpt lat="47.16733" lon="5.8362">
        <ele>223.6</ele>
        <time>2024-08-05T08:03:58Z</time>
      </trkpt>
      <trkpt lat="47.16733" lon="5.83614">
        <ele>223.6</ele>
        <time>2024-08-05T08:03:59Z</time>
      </trkpt>
      <trkpt lat="47.16734" lon="5.83607">
        <ele>223.4</ele>
        <time>2024-08-05T08:04:00Z</time>
      </trkpt>
      <trkpt lat="47.16734" lon="5.836">
        <ele>223.6</ele>
        <time>2024-08-05T08:04:01Z</time>
      </trkpt>
      <trkpt lat="47.16734" lon="5.83594">
        <ele>223.6</ele>
        <time>2024-08-05T08:04:02Z</time>
      </trkpt>
      <trkpt lat="47.16734" lon="5.83588">
        <ele>223.6</ele>
        <time>2024-08-05T08:04:03Z</time>
      </trkpt>
      <trkpt lat="47.16735" lon="5.83584">
        <ele>223.4</ele>
        <time>2024-08-05T08:04:04Z</time>
      </trkpt>
      <trkpt lat="47.16735" lon="5.83581">
        <ele>223.4</ele>
        <time>2024-08-05T08:04:05Z</time>
      </trkpt>
      <trkpt lat="47.16735" lon="5.83577">
        <ele>223.4</ele>
        <time>2024-08-05T08:04:06Z</time>
      </trkpt>
      <trkpt lat="47.16735" lon="5.83573">
        <ele>223.4</ele>
        <time>2024-08-05T08:04:07Z</time>
      </trkpt>
      <trkpt lat="47.16734" lon="5.83569">
        <ele>223.4</ele>
        <time>2024-08-05T08:04:08Z</time>
      </trkpt>
      <trkpt lat="47.16735" lon="5.83563">
        <ele>223.4</ele>
        <time>2024-08-05T08:04:09Z</time>
      </trkpt>
      <trkpt lat="47.16735" lon="5.83557">
        <ele>223.4</ele>
        <time>2024-08-05T08:04:10Z</time>
      </trkpt>
      <trkpt lat="47.16735" lon="5.83552">
        <ele>223.4</ele>
        <time>2024-08-05T08:04:11Z</time>
      </trkpt>
      <trkpt lat="47.16735" lon="5.83546">
        <ele>223.4</ele>
        <time>2024-08-05T08:04:12Z</time>
      </trkpt>
      <trkpt lat="47.16735" lon="5.83539">
        <ele>223.4</ele>
        <time>2024-08-05T08:04:13Z</time>
      </trkpt>
      <trkpt lat="47.16734" lon="5.83533">
        <ele>223.4</ele>
        <time>2024-08-05T08:04:14Z</time>
      </trkpt>
      <trkpt lat="47.16735" lon="5.83526">
        <ele>223.4</ele>
        <time>2024-08-05T08:04:15Z</time>
      </trkpt>
      <trkpt lat="47.16735" lon="5.8352">
        <ele>223.4</ele>
        <time>2024-08-05T08:04:16Z</time>
      </trkpt>
      <trkpt lat="47.16734" lon="5.83513">
        <ele>223.4</ele>
        <time>2024-08-05T08:04:17Z</time>
      </trkpt>
      <trkpt lat="47.16734" lon="5.83506">
        <ele>223.4</ele>
        <time>2024-08-05T08:04:18Z</time>
      </trkpt>
      <trkpt lat="47.16734" lon="5.835">
        <ele>223.4</ele>
        <time>2024-08-05T08:04:19Z</time>
      </trkpt>
      <trkpt lat="47.16734" lon="5.83492">
        <ele>223.4</ele>
        <time>2024-08-05T08:04:20Z</time>
      </trkpt>
      <trkpt lat="47.16734" lon="5.83484">
        <ele>223.6</ele>
        <time>2024-08-05T08:04:21Z</time>
      </trkpt>
      <trkpt lat="47.16734" lon="5.83477">
        <ele>223.8</ele>
        <time>2024-08-05T08:04:22Z</time>
      </trkpt>
      <trkpt lat="47.16733" lon="5.83469">
        <ele>223.6</ele>
        <time>2024-08-05T08:04:23Z</time>
      </trkpt>
      <trkpt lat="47.16733" lon="5.83461">
        <ele>223.6</ele>
        <time>2024-08-05T08:04:24Z</time>
      </trkpt>
      <trkpt lat="47.16732" lon="5.83454">
        <ele>223.6</ele>
        <time>2024-08-05T08:04:25Z</time>
      </trkpt>
      <trkpt lat="47.16731" lon="5.83446">
        <ele>223.6</ele>
        <time>2024-08-05T08:04:26Z</time>
      </trkpt>
      <trkpt lat="47.16731" lon="5.83438">
        <ele>223.6</ele>
        <time>2024-08-05T08:04:27Z</time>
      </trkpt>
      <trkpt lat="47.16731" lon="5.8343">
        <ele>223.8</ele>
        <time>2024-08-05T08:04:28Z</time>
      </trkpt>
      <trkpt lat="47.1673" lon="5.83422">
        <ele>223.8</ele>
        <time>2024-08-05T08:04:29Z</time>
      </trkpt>
      <trkpt lat="47.1673" lon="5.83415">
        <ele>223.8</ele>
        <time>2024-08-05T08:04:30Z</time>
      </trkpt>
      <trkpt lat="47.16729" lon="5.83407">
        <ele>223.6</ele>
        <time>2024-08-05T08:04:31Z</time>
      </trkpt>
      <trkpt lat="47.16729" lon="5.834">
        <ele>223.8</ele>
        <time>2024-08-05T08:04:32Z</time>
      </trkpt>
      <trkpt lat="47.16728" lon="5.83392">
        <ele>223.8</ele>
        <time>2024-08-05T08:04:33Z</time>
      </trkpt>
      <trkpt lat="47.16728" lon="5.83385">
        <ele>223.8</ele>
        <time>2024-08-05T08:04:34Z</time>
      </trkpt>
      <trkpt lat="47.16728" lon="5.83377">
        <ele>223.8</ele>
        <time>2024-08-05T08:04:35Z</time>
      </trkpt>
      <trkpt lat="47.16727" lon="5.8337">
        <ele>223.8</ele>
        <time>2024-08-05T08:04:36Z</time>
      </trkpt>
      <trkpt lat="47.16727" lon="5.83362">
        <ele>224</ele>
        <time>2024-08-05T08:04:37Z</time>
      </trkpt>
      <trkpt lat="47.16725" lon="5.83353">
        <ele>223.8</ele>
        <time>2024-08-05T08:04:38Z</time>
      </trkpt>
      <trkpt lat="47.16724" lon="5.83345">
        <ele>224</ele>
        <time>2024-08-05T08:04:39Z</time>
      </trkpt>
      <trkpt lat="47.16722" lon="5.83336">
        <ele>224</ele>
        <time>2024-08-05T08:04:40Z</time>
      </trkpt>
      <trkpt lat="47.1672" lon="5.83327">
        <ele>223.8</ele>
        <time>2024-08-05T08:04:41Z</time>
      </trkpt>
      <trkpt lat="47.16718" lon="5.83318">
        <ele>224</ele>
        <time>2024-08-05T08:04:42Z</time>
      </trkpt>
      <trkpt lat="47.16716" lon="5.83309">
        <ele>223.8</ele>
        <time>2024-08-05T08:04:43Z</time>
      </trkpt>
      <trkpt lat="47.16714" lon="5.833">
        <ele>223.8</ele>
        <time>2024-08-05T08:04:44Z</time>
      </trkpt>
      <trkpt lat="47.16712" lon="5.83291">
        <ele>224</ele>
        <time>2024-08-05T08:04:45Z</time>
      </trkpt>
      <trkpt lat="47.1671" lon="5.83281">
        <ele>224</ele>
        <time>2024-08-05T08:04:46Z</time>
      </trkpt>
      <trkpt lat="47.16709" lon="5.83273">
        <ele>224</ele>
        <time>2024-08-05T08:04:47Z</time>
      </trkpt>
      <trkpt lat="47.16707" lon="5.83264">
        <ele>224</ele>
        <time>2024-08-05T08:04:48Z</time>
      </trkpt>
      <trkpt lat="47.16705" lon="5.83255">
        <ele>224</ele>
        <time>2024-08-05T08:04:49Z</time>
      </trkpt>
      <trkpt lat="47.16703" lon="5.83247">
        <ele>223.8</ele>
        <time>2024-08-05T08:04:50Z</time>
      </trkpt>
      <trkpt lat="47.16702" lon="5.83239">
        <ele>224</ele>
        <time>2024-08-05T08:04:51Z</time>
      </trkpt>
      <trkpt lat="47.167" lon="5.83231">
        <ele>223.8</ele>
        <time>2024-08-05T08:04:52Z</time>
      </trkpt>
      <trkpt lat="47.16698" lon="5.83223">
        <ele>224</ele>
        <time>2024-08-05T08:04:53Z</time>
      </trkpt>
      <trkpt lat="47.16697" lon="5.83215">
        <ele>223.8</ele>
        <time>2024-08-05T08:04:54Z</time>
      </trkpt>
      <trkpt lat="47.16695" lon="5.83207">
        <ele>223.8</ele>
        <time>2024-08-05T08:04:55Z</time>
      </trkpt>
      <trkpt lat="47.16694" lon="5.83199">
        <ele>223.8</ele>
        <time>2024-08-05T08:04:56Z</time>
      </trkpt>
      <trkpt lat="47.16692" lon="5.83191">
        <ele>224</ele>
        <time>2024-08-05T08:04:57Z</time>
      </trkpt>
      <trkpt lat="47.16691" lon="5.83184">
        <ele>223.8</ele>
        <time>2024-08-05T08:04:58Z</time>
      </trkpt>
      <trkpt lat="47.16689" lon="5.83176">
        <ele>223.8</ele>
        <time>2024-08-05T08:04:59Z</time>
      </trkpt>
      <trkpt lat="47.16688" lon="5.83169">
        <ele>223.8</ele>
        <time>2024-08-05T08:05:00Z</time>
      </trkpt>
      <trkpt lat="47.16686" lon="5.83161">
        <ele>224</ele>
        <time>2024-08-05T08:05:01Z</time>
      </trkpt>
      <trkpt lat="47.16684" lon="5.83153">
        <ele>223.8</ele>
        <time>2024-08-05T08:05:02Z</time>
      </trkpt>
      <trkpt lat="47.16682" lon="5.83144">
        <ele>224</ele>
        <time>2024-08-05T08:05:03Z</time>
      </trkpt>
      <trkpt lat="47.1668" lon="5.83136">
        <ele>223.8</ele>
        <time>2024-08-05T08:05:04Z</time>
      </trkpt>
      <trkpt lat="47.16678" lon="5.83128">
        <ele>223.8</ele>
        <time>2024-08-05T08:05:05Z</time>
      </trkpt>
      <trkpt lat="47.16676" lon="5.8312">
        <ele>223.8</ele>
        <time>2024-08-05T08:05:06Z</time>
      </trkpt>
      <trkpt lat="47.16673" lon="5.83112">
        <ele>223.8</ele>
        <time>2024-08-05T08:05:07Z</time>
      </trkpt>
      <trkpt lat="47.16671" lon="5.83104">
        <ele>224</ele>
        <time>2024-08-05T08:05:08Z</time>
      </trkpt>
      <trkpt lat="47.16669" lon="5.83096">
        <ele>224</ele>
        <time>2024-08-05T08:05:09Z</time>
      </trkpt>
      <trkpt lat="47.16667" lon="5.83089">
        <ele>224</ele>
        <time>2024-08-05T08:05:10Z</time>
      </trkpt>
      <trkpt lat="47.16664" lon="5.83081">
        <ele>223.8</ele>
        <time>2024-08-05T08:05:11Z</time>
      </trkpt>
      <trkpt lat="47.16662" lon="5.83074">
        <ele>223.8</ele>
        <time>2024-08-05T08:05:12Z</time>
      </trkpt>
      <trkpt lat="47.1666" lon="5.83067">
        <ele>223.8</ele>
        <time>2024-08-05T08:05:13Z</time>
      </trkpt>
      <trkpt lat="47.16658" lon="5.83059">
        <ele>223.8</ele>
        <time>2024-08-05T08:05:14Z</time>
      </trkpt>
      <trkpt lat="47.16657" lon="5.83052">
        <ele>223.8</ele>
        <time>2024-08-05T08:05:15Z</time>
      </trkpt>
      <trkpt lat="47.16655" lon="5.83044">
        <ele>223.8</ele>
        <time>2024-08-05T08:05:16Z</time>
      </trkpt>
      <trkpt lat="47.16653" lon="5.83037">
        <ele>223.8</ele>
        <time>2024-08-05T08:05:17Z</time>
      </trkpt>
      <trkpt lat="47.16651" lon="5.83029">
        <ele>223.8</ele>
        <time>2024-08-05T08:05:18Z</time>
      </trkpt>
      <trkpt lat="47.16649" lon="5.83022">
        <ele>223.8</ele>
        <time>2024-08-05T08:05:19Z</time>
      </trkpt>
      <trkpt lat="47.16648" lon="5.83015">
        <ele>223.8</ele>
        <time>2024-08-05T08:05:20Z</time>
      </trkpt>
      <trkpt lat="47.16645" lon="5.83008">
        <ele>223.8</ele>
        <time>2024-08-05T08:05:21Z</time>
      </trkpt>
      <trkpt lat="47.16643" lon="5.83002">
        <ele>223.8</ele>
        <time>2024-08-05T08:05:22Z</time>
      </trkpt>
      <trkpt lat="47.16641" lon="5.82998">
        <ele>223.6</ele>
        <time>2024-08-05T08:05:23Z</time>
      </trkpt>
      <trkpt lat="47.16638" lon="5.82994">
        <ele>223.6</ele>
        <time>2024-08-05T08:05:24Z</time>
      </trkpt>
      <trkpt lat="47.16636" lon="5.82991">
        <ele>223.8</ele>
        <time>2024-08-05T08:05:25Z</time>
      </trkpt>
      <trkpt lat="47.16636" lon="5.82989">
        <ele>223.6</ele>
        <time>2024-08-05T08:05:26Z</time>
      </trkpt>
      <trkpt lat="47.16635" lon="5.82987">
        <ele>223.6</ele>
        <time>2024-08-05T08:05:27Z</time>
      </trkpt>
      <trkpt lat="47.16635" lon="5.82985">
        <ele>223.6</ele>
        <time>2024-08-05T08:05:28Z</time>
      </trkpt>
      <trkpt lat="47.16636" lon="5.82982">
        <ele>223.6</ele>
        <time>2024-08-05T08:05:29Z</time>
      </trkpt>
      <trkpt lat="47.16637" lon="5.8298">
        <ele>223.8</ele>
        <time>2024-08-05T08:05:30Z</time>
      </trkpt>
      <trkpt lat="47.16637" lon="5.82978">
        <ele>223.6</ele>
        <time>2024-08-05T08:05:31Z</time>
      </trkpt>
      <trkpt lat="47.16637" lon="5.82976">
        <ele>223.6</ele>
        <time>2024-08-05T08:05:32Z</time>
      </trkpt>
      <trkpt lat="47.16637" lon="5.82974">
        <ele>223.6</ele>
        <time>2024-08-05T08:05:33Z</time>
      </trkpt>
      <trkpt lat="47.16637" lon="5.82972">
        <ele>223.6</ele>
        <time>2024-08-05T08:05:34Z</time>
      </trkpt>
      <trkpt lat="47.16637" lon="5.8297">
        <ele>223.6</ele>
        <time>2024-08-05T08:05:35Z</time>
      </trkpt>
      <trkpt lat="47.16638" lon="5.82969">
        <ele>223.4</ele>
        <time>2024-08-05T08:05:36Z</time>
      </trkpt>
      <trkpt lat="47.16637" lon="5.82968">
        <ele>223.4</ele>
        <time>2024-08-05T08:05:37Z</time>
      </trkpt>
      <trkpt lat="47.16635" lon="5.82968">
        <ele>223.8</ele>
        <time>2024-08-05T08:05:38Z</time>
      </trkpt>
      <trkpt lat="47.16634" lon="5.82969">
        <ele>224.4</ele>
        <time>2024-08-05T08:05:39Z</time>
      </trkpt>
      <trkpt lat="47.16633" lon="5.82969">
        <ele>224.8</ele>
        <time>2024-08-05T08:05:40Z</time>
      </trkpt>
      <trkpt lat="47.16632" lon="5.82969">
        <ele>225.4</ele>
        <time>2024-08-05T08:05:41Z</time>
      </trkpt>
      <trkpt lat="47.16631" lon="5.82969">
        <ele>225.6</ele>
        <time>2024-08-05T08:05:42Z</time>
      </trkpt>
      <trkpt lat="47.1663" lon="5.82969">
        <ele>225.6</ele>
        <time>2024-08-05T08:05:43Z</time>
      </trkpt>
      <trkpt lat="47.1663" lon="5.82969">
        <ele>225.8</ele>
        <time>2024-08-05T08:05:44Z</time>
      </trkpt>
      <trkpt lat="47.1663" lon="5.82968">
        <ele>225.8</ele>
        <time>2024-08-05T08:05:45Z</time>
      </trkpt>
      <trkpt lat="47.16629" lon="5.82968">
        <ele>226</ele>
        <time>2024-08-05T08:05:46Z</time>
      </trkpt>
      <trkpt lat="47.16628" lon="5.82968">
        <ele>225.8</ele>
        <time>2024-08-05T08:05:47Z</time>
      </trkpt>
      <trkpt lat="47.16627" lon="5.82968">
        <ele>226</ele>
        <time>2024-08-05T08:05:48Z</time>
      </trkpt>
      <trkpt lat="47.16626" lon="5.82968">
        <ele>226</ele>
        <time>2024-08-05T08:05:49Z</time>
      </trkpt>
      <trkpt lat="47.16624" lon="5.82969">
        <ele>226</ele>
        <time>2024-08-05T08:05:50Z</time>
      </trkpt>
      <trkpt lat="47.16623" lon="5.8297">
        <ele>226.2</ele>
        <time>2024-08-05T08:05:51Z</time>
      </trkpt>
      <trkpt lat="47.16621" lon="5.8297">
        <ele>226</ele>
        <time>2024-08-05T08:05:52Z</time>
      </trkpt>
      <trkpt lat="47.1662" lon="5.82971">
        <ele>226.2</ele>
        <time>2024-08-05T08:05:53Z</time>
      </trkpt>
      <trkpt lat="47.16618" lon="5.82973">
        <ele>226.2</ele>
        <time>2024-08-05T08:05:54Z</time>
      </trkpt>
      <trkpt lat="47.16616" lon="5.82974">
        <ele>226.2</ele>
        <time>2024-08-05T08:05:55Z</time>
      </trkpt>
      <trkpt lat="47.16614" lon="5.82976">
        <ele>226.2</ele>
        <time>2024-08-05T08:05:56Z</time>
      </trkpt>
      <trkpt lat="47.16612" lon="5.82977">
        <ele>226.2</ele>
        <time>2024-08-05T08:05:57Z</time>
      </trkpt>
      <trkpt lat="47.1661" lon="5.82978">
        <ele>226.4</ele>
        <time>2024-08-05T08:05:58Z</time>
      </trkpt>
      <trkpt lat="47.16607" lon="5.82979">
        <ele>226.4</ele>
        <time>2024-08-05T08:05:59Z</time>
      </trkpt>
      <trkpt lat="47.16604" lon="5.82981">
        <ele>226.4</ele>
        <time>2024-08-05T08:06:00Z</time>
      </trkpt>
      <trkpt lat="47.16601" lon="5.82982">
        <ele>226.4</ele>
        <time>2024-08-05T08:06:01Z</time>
      </trkpt>
      <trkpt lat="47.16598" lon="5.82983">
        <ele>226.8</ele>
        <time>2024-08-05T08:06:02Z</time>
      </trkpt>
      <trkpt lat="47.16595" lon="5.82985">
        <ele>226.8</ele>
        <time>2024-08-05T08:06:03Z</time>
      </trkpt>
      <trkpt lat="47.16592" lon="5.82988">
        <ele>226.8</ele>
        <time>2024-08-05T08:06:04Z</time>
      </trkpt>
      <trkpt lat="47.16588" lon="5.8299">
        <ele>227</ele>
        <time>2024-08-05T08:06:05Z</time>
      </trkpt>
      <trkpt lat="47.16584" lon="5.82993">
        <ele>227</ele>
        <time>2024-08-05T08:06:06Z</time>
      </trkpt>
      <trkpt lat="47.1658" lon="5.82996">
        <ele>227.2</ele>
        <time>2024-08-05T08:06:07Z</time>
      </trkpt>
      <trkpt lat="47.16574" lon="5.82999">
        <ele>227</ele>
        <time>2024-08-05T08:06:08Z</time>
      </trkpt>
      <trkpt lat="47.16569" lon="5.83002">
        <ele>227</ele>
        <time>2024-08-05T08:06:09Z</time>
      </trkpt>
      <trkpt lat="47.16564" lon="5.83005">
        <ele>227.2</ele>
        <time>2024-08-05T08:06:10Z</time>
      </trkpt>
      <trkpt lat="47.16558" lon="5.83008">
        <ele>227.2</ele>
        <time>2024-08-05T08:06:11Z</time>
      </trkpt>
      <trkpt lat="47.16552" lon="5.83012">
        <ele>227.2</ele>
        <time>2024-08-05T08:06:12Z</time>
      </trkpt>
      <trkpt lat="47.16547" lon="5.83015">
        <ele>227.2</ele>
        <time>2024-08-05T08:06:13Z</time>
      </trkpt>
      <trkpt lat="47.16541" lon="5.83019">
        <ele>227.2</ele>
        <time>2024-08-05T08:06:14Z</time>
      </trkpt>
      <trkpt lat="47.16536" lon="5.83022">
        <ele>227.2</ele>
        <time>2024-08-05T08:06:15Z</time>
      </trkpt>
      <trkpt lat="47.16531" lon="5.83026">
        <ele>227.2</ele>
        <time>2024-08-05T08:06:16Z</time>
      </trkpt>
      <trkpt lat="47.16525" lon="5.83029">
        <ele>227.2</ele>
        <time>2024-08-05T08:06:17Z</time>
      </trkpt>
      <trkpt lat="47.16519" lon="5.83032">
        <ele>227.4</ele>
        <time>2024-08-05T08:06:18Z</time>
      </trkpt>
      <trkpt lat="47.16514" lon="5.83035">
        <ele>227.2</ele>
        <time>2024-08-05T08:06:19Z</time>
      </trkpt>
      <trkpt lat="47.16508" lon="5.83038">
        <ele>227.2</ele>
        <time>2024-08-05T08:06:20Z</time>
      </trkpt>
      <trkpt lat="47.16503" lon="5.8304">
        <ele>227.2</ele>
        <time>2024-08-05T08:06:21Z</time>
      </trkpt>
      <trkpt lat="47.16498" lon="5.83043">
        <ele>227.4</ele>
        <time>2024-08-05T08:06:22Z</time>
      </trkpt>
      <trkpt lat="47.16493" lon="5.83046">
        <ele>227.2</ele>
        <time>2024-08-05T08:06:23Z</time>
      </trkpt>
      <trkpt lat="47.16489" lon="5.83049">
        <ele>227</ele>
        <time>2024-08-05T08:06:24Z</time>
      </trkpt>
      <trkpt lat="47.16486" lon="5.83053">
        <ele>227</ele>
        <time>2024-08-05T08:06:25Z</time>
      </trkpt>
      <trkpt lat="47.16485" lon="5.83057">
        <ele>227.2</ele>
        <time>2024-08-05T08:06:26Z</time>
      </trkpt>
      <trkpt lat="47.16484" lon="5.83061">
        <ele>227</ele>
        <time>2024-08-05T08:06:27Z</time>
      </trkpt>
      <trkpt lat="47.16484" lon="5.83064">
        <ele>226.8</ele>
        <time>2024-08-05T08:06:28Z</time>
      </trkpt>
      <trkpt lat="47.16484" lon="5.83066">
        <ele>226.6</ele>
        <time>2024-08-05T08:06:29Z</time>
      </trkpt>
      <trkpt lat="47.16484" lon="5.83067">
        <ele>226.4</ele>
        <time>2024-08-05T08:06:30Z</time>
      </trkpt>
      <trkpt lat="47.16484" lon="5.83068">
        <ele>226.4</ele>
        <time>2024-08-05T08:06:31Z</time>
      </trkpt>
      <trkpt lat="47.16483" lon="5.8307">
        <ele>226.2</ele>
        <time>2024-08-05T08:06:32Z</time>
      </trkpt>
      <trkpt lat="47.16482" lon="5.83071">
        <ele>226</ele>
        <time>2024-08-05T08:06:33Z</time>
      </trkpt>
      <trkpt lat="47.1648" lon="5.83071">
        <ele>226</ele>
        <time>2024-08-05T08:06:34Z</time>
      </trkpt>
      <trkpt lat="47.16479" lon="5.83071">
        <ele>226</ele>
        <time>2024-08-05T08:06:35Z</time>
      </trkpt>
      <trkpt lat="47.16478" lon="5.8307">
        <ele>226</ele>
        <time>2024-08-05T08:06:36Z</time>
      </trkpt>
      <trkpt lat="47.16478" lon="5.83069">
        <ele>225.8</ele>
        <time>2024-08-05T08:06:37Z</time>
      </trkpt>
      <trkpt lat="47.16477" lon="5.83067">
        <ele>225.8</ele>
        <time>2024-08-05T08:06:38Z</time>
      </trkpt>
      <trkpt lat="47.16476" lon="5.83066">
        <ele>225.6</ele>
        <time>2024-08-05T08:06:39Z</time>
      </trkpt>
      <trkpt lat="47.16476" lon="5.83064">
        <ele>225.4</ele>
        <time>2024-08-05T08:06:40Z</time>
      </trkpt>
      <trkpt lat="47.16476" lon="5.83062">
        <ele>225.4</ele>
        <time>2024-08-05T08:06:41Z</time>
      </trkpt>
      <trkpt lat="47.16475" lon="5.8306">
        <ele>225.4</ele>
        <time>2024-08-05T08:06:42Z</time>
      </trkpt>
      <trkpt lat="47.16476" lon="5.83058">
        <ele>225.4</ele>
        <time>2024-08-05T08:06:43Z</time>
      </trkpt>
      <trkpt lat="47.16476" lon="5.83057">
        <ele>225.2</ele>
        <time>2024-08-05T08:06:44Z</time>
      </trkpt>
      <trkpt lat="47.16475" lon="5.83056">
        <ele>225.4</ele>
        <time>2024-08-05T08:06:45Z</time>
      </trkpt>
      <trkpt lat="47.16474" lon="5.83055">
        <ele>225.4</ele>
        <time>2024-08-05T08:06:46Z</time>
      </trkpt>
      <trkpt lat="47.16473" lon="5.83054">
        <ele>225.4</ele>
        <time>2024-08-05T08:06:47Z</time>
      </trkpt>
      <trkpt lat="47.16471" lon="5.83054">
        <ele>225.2</ele>
        <time>2024-08-05T08:06:48Z</time>
      </trkpt>
      <trkpt lat="47.16468" lon="5.83052">
        <ele>225.4</ele>
        <time>2024-08-05T08:06:49Z</time>
      </trkpt>
      <trkpt lat="47.16466" lon="5.83052">
        <ele>225.4</ele>
        <time>2024-08-05T08:06:50Z</time>
      </trkpt>
      <trkpt lat="47.16464" lon="5.83051">
        <ele>225.4</ele>
        <time>2024-08-05T08:06:51Z</time>
      </trkpt>
      <trkpt lat="47.16462" lon="5.8305">
        <ele>225.4</ele>
        <time>2024-08-05T08:06:52Z</time>
      </trkpt>
      <trkpt lat="47.1646" lon="5.83049">
        <ele>225.4</ele>
        <time>2024-08-05T08:06:53Z</time>
      </trkpt>
      <trkpt lat="47.16458" lon="5.83047">
        <ele>225.4</ele>
        <time>2024-08-05T08:06:54Z</time>
      </trkpt>
      <trkpt lat="47.16456" lon="5.83045">
        <ele>225.4</ele>
        <time>2024-08-05T08:06:55Z</time>
      </trkpt>
      <trkpt lat="47.16453" lon="5.83042">
        <ele>225.4</ele>
        <time>2024-08-05T08:06:56Z</time>
      </trkpt>
      <trkpt lat="47.1645" lon="5.8304">
        <ele>225.6</ele>
        <time>2024-08-05T08:06:57Z</time>
      </trkpt>
      <trkpt lat="47.16447" lon="5.83037">
        <ele>225.8</ele>
        <time>2024-08-05T08:06:58Z</time>
      </trkpt>
      <trkpt lat="47.16445" lon="5.83034">
        <ele>225.6</ele>
        <time>2024-08-05T08:06:59Z</time>
      </trkpt>
      <trkpt lat="47.16443" lon="5.83031">
        <ele>225.6</ele>
        <time>2024-08-05T08:07:00Z</time>
      </trkpt>
      <trkpt lat="47.16441" lon="5.83027">
        <ele>225.8</ele>
        <time>2024-08-05T08:07:01Z</time>
      </trkpt>
      <trkpt lat="47.16439" lon="5.83023">
        <ele>225.8</ele>
        <time>2024-08-05T08:07:02Z</time>
      </trkpt>
      <trkpt lat="47.16437" lon="5.83018">
        <ele>225.8</ele>
        <time>2024-08-05T08:07:03Z</time>
      </trkpt>
      <trkpt lat="47.16434" lon="5.83013">
        <ele>225.8</ele>
        <time>2024-08-05T08:07:04Z</time>
      </trkpt>
      <trkpt lat="47.16433" lon="5.83009">
        <ele>226</ele>
        <time>2024-08-05T08:07:05Z</time>
      </trkpt>
      <trkpt lat="47.16432" lon="5.83005">
        <ele>226.2</ele>
        <time>2024-08-05T08:07:06Z</time>
      </trkpt>
      <trkpt lat="47.16431" lon="5.83">
        <ele>226.4</ele>
        <time>2024-08-05T08:07:07Z</time>
      </trkpt>
      <trkpt lat="47.1643" lon="5.82996">
        <ele>226.6</ele>
        <time>2024-08-05T08:07:08Z</time>
      </trkpt>
      <trkpt lat="47.16429" lon="5.82992">
        <ele>226.8</ele>
        <time>2024-08-05T08:07:09Z</time>
      </trkpt>
      <trkpt lat="47.16428" lon="5.82988">
        <ele>227</ele>
        <time>2024-08-05T08:07:10Z</time>
      </trkpt>
      <trkpt lat="47.16427" lon="5.82983">
        <ele>227.2</ele>
        <time>2024-08-05T08:07:11Z</time>
      </trkpt>
      <trkpt lat="47.16426" lon="5.82979">
        <ele>227.4</ele>
        <time>2024-08-05T08:07:12Z</time>
      </trkpt>
      <trkpt lat="47.16424" lon="5.82974">
        <ele>227.6</ele>
        <time>2024-08-05T08:07:13Z</time>
      </trkpt>
      <trkpt lat="47.16423" lon="5.82969">
        <ele>228</ele>
        <time>2024-08-05T08:07:14Z</time>
      </trkpt>
      <trkpt lat="47.16421" lon="5.82964">
        <ele>228.2</ele>
        <time>2024-08-05T08:07:15Z</time>
      </trkpt>
      <trkpt lat="47.16421" lon="5.8296">
        <ele>228.4</ele>
        <time>2024-08-05T08:07:16Z</time>
      </trkpt>
      <trkpt lat="47.1642" lon="5.82956">
        <ele>228.4</ele>
        <time>2024-08-05T08:07:17Z</time>
      </trkpt>
      <trkpt lat="47.16421" lon="5.82951">
        <ele>228.6</ele>
        <time>2024-08-05T08:07:18Z</time>
      </trkpt>
      <trkpt lat="47.1642" lon="5.82947">
        <ele>228.8</ele>
        <time>2024-08-05T08:07:19Z</time>
      </trkpt>
      <trkpt lat="47.16418" lon="5.82941">
        <ele>229.2</ele>
        <time>2024-08-05T08:07:20Z</time>
      </trkpt>
      <trkpt lat="47.16418" lon="5.82936">
        <ele>229.2</ele>
        <time>2024-08-05T08:07:21Z</time>
      </trkpt>
      <trkpt lat="47.16417" lon="5.82931">
        <ele>229.6</ele>
        <time>2024-08-05T08:07:22Z</time>
      </trkpt>
      <trkpt lat="47.16416" lon="5.82926">
        <ele>229.8</ele>
        <time>2024-08-05T08:07:23Z</time>
      </trkpt>
      <trkpt lat="47.16415" lon="5.82921">
        <ele>230</ele>
        <time>2024-08-05T08:07:24Z</time>
      </trkpt>
      <trkpt lat="47.16414" lon="5.82916">
        <ele>230.2</ele>
        <time>2024-08-05T08:07:25Z</time>
      </trkpt>
      <trkpt lat="47.16413" lon="5.82911">
        <ele>230.6</ele>
        <time>2024-08-05T08:07:26Z</time>
      </trkpt>
      <trkpt lat="47.16413" lon="5.82906">
        <ele>230.8</ele>
        <time>2024-08-05T08:07:27Z</time>
      </trkpt>
      <trkpt lat="47.16413" lon="5.82901">
        <ele>231</ele>
        <time>2024-08-05T08:07:28Z</time>
      </trkpt>
      <trkpt lat="47.16413" lon="5.82896">
        <ele>231</ele>
        <time>2024-08-05T08:07:29Z</time>
      </trkpt>
      <trkpt lat="47.16413" lon="5.82891">
        <ele>231.4</ele>
        <time>2024-08-05T08:07:30Z</time>
      </trkpt>
      <trkpt lat="47.16413" lon="5.82886">
        <ele>231.6</ele>
        <time>2024-08-05T08:07:31Z</time>
      </trkpt>
      <trkpt lat="47.16411" lon="5.82882">
        <ele>232</ele>
        <time>2024-08-05T08:07:32Z</time>
      </trkpt>
      <trkpt lat="47.1641" lon="5.82877">
        <ele>232</ele>
        <time>2024-08-05T08:07:33Z</time>
      </trkpt>
      <trkpt lat="47.16409" lon="5.82872">
        <ele>232.4</ele>
        <time>2024-08-05T08:07:34Z</time>
      </trkpt>
      <trkpt lat="47.16408" lon="5.82868">
        <ele>232.6</ele>
        <time>2024-08-05T08:07:35Z</time>
      </trkpt>
      <trkpt lat="47.16408" lon="5.82864">
        <ele>233</ele>
        <time>2024-08-05T08:07:36Z</time>
      </trkpt>
      <trkpt lat="47.16407" lon="5.82859">
        <ele>233.2</ele>
        <time>2024-08-05T08:07:37Z</time>
      </trkpt>
      <trkpt lat="47.16406" lon="5.82855">
        <ele>233.2</ele>
        <time>2024-08-05T08:07:38Z</time>
      </trkpt>
      <trkpt lat="47.16404" lon="5.8285">
        <ele>233.2</ele>
        <time>2024-08-05T08:07:39Z</time>
      </trkpt>
      <trkpt lat="47.16403" lon="5.82845">
        <ele>233.4</ele>
        <time>2024-08-05T08:07:40Z</time>
      </trkpt>
      <trkpt lat="47.16402" lon="5.8284">
        <ele>233.6</ele>
        <time>2024-08-05T08:07:41Z</time>
      </trkpt>
      <trkpt lat="47.16401" lon="5.82835">
        <ele>233.8</ele>
        <time>2024-08-05T08:07:42Z</time>
      </trkpt>
      <trkpt lat="47.16399" lon="5.82831">
        <ele>234</ele>
        <time>2024-08-05T08:07:43Z</time>
      </trkpt>
      <trkpt lat="47.16398" lon="5.82826">
        <ele>234.2</ele>
        <time>2024-08-05T08:07:44Z</time>
      </trkpt>
      <trkpt lat="47.16398" lon="5.82822">
        <ele>234.4</ele>
        <time>2024-08-05T08:07:45Z</time>
      </trkpt>
      <trkpt lat="47.16397" lon="5.82818">
        <ele>234.6</ele>
        <time>2024-08-05T08:07:46Z</time>
      </trkpt>
      <trkpt lat="47.16396" lon="5.82814">
        <ele>235</ele>
        <time>2024-08-05T08:07:47Z</time>
      </trkpt>
      <trkpt lat="47.16395" lon="5.82809">
        <ele>235.4</ele>
        <time>2024-08-05T08:07:48Z</time>
      </trkpt>
      <trkpt lat="47.16395" lon="5.82804">
        <ele>235.6</ele>
        <time>2024-08-05T08:07:49Z</time>
      </trkpt>
      <trkpt lat="47.16394" lon="5.82799">
        <ele>235.8</ele>
        <time>2024-08-05T08:07:50Z</time>
      </trkpt>
      <trkpt lat="47.16393" lon="5.82795">
        <ele>236.2</ele>
        <time>2024-08-05T08:07:51Z</time>
      </trkpt>
      <trkpt lat="47.16392" lon="5.8279">
        <ele>236.6</ele>
        <time>2024-08-05T08:07:52Z</time>
      </trkpt>
      <trkpt lat="47.16391" lon="5.82786">
        <ele>236.8</ele>
        <time>2024-08-05T08:07:53Z</time>
      </trkpt>
      <trkpt lat="47.1639" lon="5.8278">
        <ele>237</ele>
        <time>2024-08-05T08:07:54Z</time>
      </trkpt>
      <trkpt lat="47.16389" lon="5.82775">
        <ele>237.2</ele>
        <time>2024-08-05T08:07:55Z</time>
      </trkpt>
      <trkpt lat="47.16388" lon="5.8277">
        <ele>237.4</ele>
        <time>2024-08-05T08:07:56Z</time>
      </trkpt>
      <trkpt lat="47.16386" lon="5.82765">
        <ele>237.6</ele>
        <time>2024-08-05T08:07:57Z</time>
      </trkpt>
      <trkpt lat="47.16384" lon="5.8276">
        <ele>237.8</ele>
        <time>2024-08-05T08:07:58Z</time>
      </trkpt>
      <trkpt lat="47.16383" lon="5.82755">
        <ele>238.2</ele>
        <time>2024-08-05T08:07:59Z</time>
      </trkpt>
      <trkpt lat="47.16382" lon="5.82751">
        <ele>238.4</ele>
        <time>2024-08-05T08:08:00Z</time>
      </trkpt>
      <trkpt lat="47.16381" lon="5.82747">
        <ele>238.4</ele>
        <time>2024-08-05T08:08:01Z</time>
      </trkpt>
      <trkpt lat="47.1638" lon="5.82743">
        <ele>238.6</ele>
        <time>2024-08-05T08:08:02Z</time>
      </trkpt>
      <trkpt lat="47.16379" lon="5.82739">
        <ele>238.6</ele>
        <time>2024-08-05T08:08:03Z</time>
      </trkpt>
      <trkpt lat="47.16377" lon="5.82735">
        <ele>238.8</ele>
        <time>2024-08-05T08:08:04Z</time>
      </trkpt>
      <trkpt lat="47.16375" lon="5.82731">
        <ele>239</ele>
        <time>2024-08-05T08:08:05Z</time>
      </trkpt>
      <trkpt lat="47.16373" lon="5.82728">
        <ele>239.2</ele>
        <time>2024-08-05T08:08:06Z</time>
      </trkpt>
      <trkpt lat="47.16372" lon="5.82724">
        <ele>239.4</ele>
        <time>2024-08-05T08:08:07Z</time>
      </trkpt>
      <trkpt lat="47.1637" lon="5.82721">
        <ele>239.6</ele>
        <time>2024-08-05T08:08:08Z</time>
      </trkpt>
      <trkpt lat="47.16368" lon="5.82717">
        <ele>239.6</ele>
        <time>2024-08-05T08:08:09Z</time>
      </trkpt>
      <trkpt lat="47.16366" lon="5.82714">
        <ele>239.8</ele>
        <time>2024-08-05T08:08:10Z</time>
      </trkpt>
      <trkpt lat="47.16364" lon="5.8271">
        <ele>240</ele>
        <time>2024-08-05T08:08:11Z</time>
      </trkpt>
      <trkpt lat="47.16361" lon="5.82706">
        <ele>240</ele>
        <time>2024-08-05T08:08:12Z</time>
      </trkpt>
      <trkpt lat="47.16359" lon="5.82703">
        <ele>240.2</ele>
        <time>2024-08-05T08:08:13Z</time>
      </trkpt>
      <trkpt lat="47.16356" lon="5.82699">
        <ele>240.4</ele>
        <time>2024-08-05T08:08:14Z</time>
      </trkpt>
      <trkpt lat="47.16353" lon="5.82696">
        <ele>240.4</ele>
        <time>2024-08-05T08:08:15Z</time>
      </trkpt>
      <trkpt lat="47.1635" lon="5.82692">
        <ele>240.8</ele>
        <time>2024-08-05T08:08:16Z</time>
      </trkpt>
      <trkpt lat="47.16347" lon="5.82689">
        <ele>241</ele>
        <time>2024-08-05T08:08:17Z</time>
      </trkpt>
      <trkpt lat="47.16342" lon="5.82684">
        <ele>241</ele>
        <time>2024-08-05T08:08:18Z</time>
      </trkpt>
      <trkpt lat="47.16338" lon="5.82681">
        <ele>241.2</ele>
        <time>2024-08-05T08:08:19Z</time>
      </trkpt>
      <trkpt lat="47.16334" lon="5.82679">
        <ele>241.2</ele>
        <time>2024-08-05T08:08:20Z</time>
      </trkpt>
      <trkpt lat="47.1633" lon="5.82677">
        <ele>241.4</ele>
        <time>2024-08-05T08:08:21Z</time>
      </trkpt>
      <trkpt lat="47.16326" lon="5.82676">
        <ele>241.2</ele>
        <time>2024-08-05T08:08:22Z</time>
      </trkpt>
      <trkpt lat="47.16322" lon="5.82674">
        <ele>241.2</ele>
        <time>2024-08-05T08:08:23Z</time>
      </trkpt>
      <trkpt lat="47.16318" lon="5.82672">
        <ele>241.2</ele>
        <time>2024-08-05T08:08:24Z</time>
      </trkpt>
      <trkpt lat="47.16313" lon="5.82671">
        <ele>241.4</ele>
        <time>2024-08-05T08:08:25Z</time>
      </trkpt>
      <trkpt lat="47.16309" lon="5.82668">
        <ele>241.4</ele>
        <time>2024-08-05T08:08:26Z</time>
      </trkpt>
      <trkpt lat="47.16304" lon="5.82665">
        <ele>241.4</ele>
        <time>2024-08-05T08:08:27Z</time>
      </trkpt>
      <trkpt lat="47.16298" lon="5.82663">
        <ele>241.4</ele>
        <time>2024-08-05T08:08:28Z</time>
      </trkpt>
      <trkpt lat="47.16293" lon="5.82661">
        <ele>241.4</ele>
        <time>2024-08-05T08:08:29Z</time>
      </trkpt>
      <trkpt lat="47.16288" lon="5.82658">
        <ele>241.2</ele>
        <time>2024-08-05T08:08:30Z</time>
      </trkpt>
      <trkpt lat="47.16282" lon="5.82656">
        <ele>241</ele>
        <time>2024-08-05T08:08:31Z</time>
      </trkpt>
      <trkpt lat="47.16277" lon="5.82654">
        <ele>241</ele>
        <time>2024-08-05T08:08:32Z</time>
      </trkpt>
      <trkpt lat="47.16272" lon="5.82652">
        <ele>241</ele>
        <time>2024-08-05T08:08:33Z</time>
      </trkpt>
      <trkpt lat="47.16268" lon="5.8265">
        <ele>240.8</ele>
        <time>2024-08-05T08:08:34Z</time>
      </trkpt>
      <trkpt lat="47.16265" lon="5.8265">
        <ele>240.8</ele>
        <time>2024-08-05T08:08:35Z</time>
      </trkpt>
      <trkpt lat="47.16265" lon="5.82651">
        <ele>240.8</ele>
        <time>2024-08-05T08:08:36Z</time>
      </trkpt>
      <trkpt lat="47.16264" lon="5.82652">
        <ele>240.4</ele>
        <time>2024-08-05T08:08:37Z</time>
      </trkpt>
      <trkpt lat="47.16265" lon="5.82653">
        <ele>240.4</ele>
        <time>2024-08-05T08:08:38Z</time>
      </trkpt>
      <trkpt lat="47.16266" lon="5.82654">
        <ele>240.2</ele>
        <time>2024-08-05T08:08:39Z</time>
      </trkpt>
      <trkpt lat="47.16266" lon="5.82655">
        <ele>240</ele>
        <time>2024-08-05T08:08:40Z</time>
      </trkpt>
      <trkpt lat="47.16267" lon="5.82656">
        <ele>239.8</ele>
        <time>2024-08-05T08:08:41Z</time>
      </trkpt>
      <trkpt lat="47.16267" lon="5.82657">
        <ele>239.6</ele>
        <time>2024-08-05T08:08:42Z</time>
      </trkpt>
      <trkpt lat="47.16267" lon="5.82657">
        <ele>239.2</ele>
        <time>2024-08-05T08:08:43Z</time>
      </trkpt>
      <trkpt lat="47.16267" lon="5.82657">
        <ele>239.2</ele>
        <time>2024-08-05T08:08:44Z</time>
      </trkpt>
      <trkpt lat="47.16267" lon="5.82658">
        <ele>239.2</ele>
        <time>2024-08-05T08:08:45Z</time>
      </trkpt>
      <trkpt lat="47.16267" lon="5.82658">
        <ele>239.2</ele>
        <time>2024-08-05T08:08:46Z</time>
      </trkpt>
      <trkpt lat="47.16267" lon="5.82658">
        <ele>239</ele>
        <time>2024-08-05T08:08:47Z</time>
      </trkpt>
      <trkpt lat="47.16267" lon="5.82658">
        <ele>239.2</ele>
        <time>2024-08-05T08:08:48Z</time>
      </trkpt>
      <trkpt lat="47.16267" lon="5.82658">
        <ele>239</ele>
        <time>2024-08-05T08:08:49Z</time>
      </trkpt>
      <trkpt lat="47.16267" lon="5.82658">
        <ele>239</ele>
        <time>2024-08-05T08:08:50Z</time>
      </trkpt>
      <trkpt lat="47.16267" lon="5.82658">
        <ele>239</ele>
        <time>2024-08-05T08:08:51Z</time>
      </trkpt>
      <trkpt lat="47.16267" lon="5.82658">
        <ele>239</ele>
        <time>2024-08-05T08:08:52Z</time>
      </trkpt>
      <trkpt lat="47.16267" lon="5.82658">
        <ele>239</ele>
        <time>2024-08-05T08:08:53Z</time>
      </trkpt>
      <trkpt lat="47.16267" lon="5.82658">
        <ele>239</ele>
        <time>2024-08-05T08:08:54Z</time>
      </trkpt>
      <trkpt lat="47.16267" lon="5.82658">
        <ele>239</ele>
        <time>2024-08-05T08:08:55Z</time>
      </trkpt>
      <trkpt lat="47.16267" lon="5.82658">
        <ele>239</ele>
        <time>2024-08-05T08:08:56Z</time>
      </trkpt>
      <trkpt lat="47.16267" lon="5.82658">
        <ele>239</ele>
        <time>2024-08-05T08:08:57Z</time>
      </trkpt>
      <trkpt lat="47.16268" lon="5.82659">
        <ele>239</ele>
        <time>2024-08-05T08:08:58Z</time>
      </trkpt>
      <trkpt lat="47.16268" lon="5.82659">
        <ele>238.8</ele>
        <time>2024-08-05T08:08:59Z</time>
      </trkpt>
      <trkpt lat="47.16268" lon="5.82659">
        <ele>239</ele>
        <time>2024-08-05T08:09:00Z</time>
      </trkpt>
      <trkpt lat="47.16268" lon="5.82659">
        <ele>239</ele>
        <time>2024-08-05T08:09:01Z</time>
      </trkpt>
      <trkpt lat="47.16268" lon="5.82659">
        <ele>239</ele>
        <time>2024-08-05T08:09:02Z</time>
      </trkpt>
      <trkpt lat="47.16268" lon="5.82659">
        <ele>239</ele>
        <time>2024-08-05T08:09:03Z</time>
      </trkpt>
      <trkpt lat="47.16268" lon="5.82659">
        <ele>239</ele>
        <time>2024-08-05T08:09:04Z</time>
      </trkpt>
      <trkpt lat="47.16268" lon="5.82659">
        <ele>238.8</ele>
        <time>2024-08-05T08:09:05Z</time>
      </trkpt>
      <trkpt lat="47.16268" lon="5.82659">
        <ele>238.8</ele>
        <time>2024-08-05T08:09:06Z</time>
      </trkpt>
      <trkpt lat="47.16268" lon="5.82659">
        <ele>238.8</ele>
        <time>2024-08-05T08:09:07Z</time>
      </trkpt>
      <trkpt lat="47.16268" lon="5.82659">
        <ele>239</ele>
        <time>2024-08-05T08:09:08Z</time>
      </trkpt>
      <trkpt lat="47.16268" lon="5.82659">
        <ele>239</ele>
        <time>2024-08-05T08:09:09Z</time>
      </trkpt>
      <trkpt lat="47.16268" lon="5.82659">
        <ele>239</ele>
        <time>2024-08-05T08:09:10Z</time>
      </trkpt>
      <trkpt lat="47.16268" lon="5.8266">
        <ele>239</ele>
        <time>2024-08-05T08:09:11Z</time>
      </trkpt>
      <trkpt lat="47.16269" lon="5.8266">
        <ele>239</ele>
        <time>2024-08-05T08:09:12Z</time>
      </trkpt>
      <trkpt lat="47.16269" lon="5.8266">
        <ele>238.8</ele>
        <time>2024-08-05T08:09:13Z</time>
      </trkpt>
      <trkpt lat="47.16269" lon="5.8266">
        <ele>239</ele>
        <time>2024-08-05T08:09:14Z</time>
      </trkpt>
      <trkpt lat="47.1627" lon="5.8266">
        <ele>239</ele>
        <time>2024-08-05T08:09:15Z</time>
      </trkpt>
      <trkpt lat="47.1627" lon="5.8266">
        <ele>239</ele>
        <time>2024-08-05T08:09:16Z</time>
      </trkpt>
      <trkpt lat="47.1627" lon="5.82661">
        <ele>239</ele>
        <time>2024-08-05T08:09:17Z</time>
      </trkpt>
      <trkpt lat="47.1627" lon="5.82661">
        <ele>239</ele>
        <time>2024-08-05T08:09:18Z</time>
      </trkpt>
      <trkpt lat="47.16271" lon="5.82661">
        <ele>239</ele>
        <time>2024-08-05T08:09:19Z</time>
      </trkpt>
      <trkpt lat="47.16271" lon="5.82661">
        <ele>239</ele>
        <time>2024-08-05T08:09:20Z</time>
      </trkpt>
      <trkpt lat="47.16271" lon="5.82661">
        <ele>239</ele>
        <time>2024-08-05T08:09:21Z</time>
      </trkpt>
      <trkpt lat="47.16271" lon="5.82661">
        <ele>239</ele>
        <time>2024-08-05T08:09:22Z</time>
      </trkpt>
      <trkpt lat="47.16271" lon="5.82661">
        <ele>239</ele>
        <time>2024-08-05T08:09:23Z</time>
      </trkpt>
      <trkpt lat="47.16271" lon="5.82661">
        <ele>239</ele>
        <time>2024-08-05T08:09:24Z</time>
      </trkpt>
      <trkpt lat="47.16271" lon="5.82661">
        <ele>239</ele>
        <time>2024-08-05T08:09:25Z</time>
      </trkpt>
      <trkpt lat="47.16271" lon="5.82661">
        <ele>239</ele>
        <time>2024-08-05T08:09:26Z</time>
      </trkpt>
      <trkpt lat="47.16271" lon="5.82661">
        <ele>239</ele>
        <time>2024-08-05T08:09:27Z</time>
      </trkpt>
      <trkpt lat="47.16271" lon="5.82661">
        <ele>239</ele>
        <time>2024-08-05T08:09:28Z</time>
      </trkpt>
      <trkpt lat="47.16271" lon="5.82661">
        <ele>239</ele>
        <time>2024-08-05T08:09:29Z</time>
      </trkpt>
      <trkpt lat="47.16271" lon="5.82661">
        <ele>239.2</ele>
        <time>2024-08-05T08:09:30Z</time>
      </trkpt>
      <trkpt lat="47.16271" lon="5.82661">
        <ele>239.2</ele>
        <time>2024-08-05T08:09:31Z</time>
      </trkpt>
      <trkpt lat="47.16271" lon="5.82661">
        <ele>239.2</ele>
        <time>2024-08-05T08:09:32Z</time>
      </trkpt>
      <trkpt lat="47.16272" lon="5.82661">
        <ele>239</ele>
        <time>2024-08-05T08:09:33Z</time>
      </trkpt>
      <trkpt lat="47.16272" lon="5.8266">
        <ele>239.2</ele>
        <time>2024-08-05T08:09:34Z</time>
      </trkpt>
      <trkpt lat="47.16272" lon="5.82659">
        <ele>239</ele>
        <time>2024-08-05T08:09:35Z</time>
      </trkpt>
      <trkpt lat="47.16271" lon="5.82658">
        <ele>239.2</ele>
        <time>2024-08-05T08:09:36Z</time>
      </trkpt>
      <trkpt lat="47.1627" lon="5.82657">
        <ele>239</ele>
        <time>2024-08-05T08:09:37Z</time>
      </trkpt>
      <trkpt lat="47.16268" lon="5.82657">
        <ele>239.2</ele>
        <time>2024-08-05T08:09:38Z</time>
      </trkpt>
      <trkpt lat="47.16266" lon="5.82656">
        <ele>239.2</ele>
        <time>2024-08-05T08:09:39Z</time>
      </trkpt>
      <trkpt lat="47.16264" lon="5.82655">
        <ele>239.2</ele>
        <time>2024-08-05T08:09:40Z</time>
      </trkpt>
      <trkpt lat="47.1626" lon="5.82653">
        <ele>239.4</ele>
        <time>2024-08-05T08:09:41Z</time>
      </trkpt>
      <trkpt lat="47.16257" lon="5.82651">
        <ele>239.4</ele>
        <time>2024-08-05T08:09:42Z</time>
      </trkpt>
      <trkpt lat="47.16253" lon="5.82649">
        <ele>239.4</ele>
        <time>2024-08-05T08:09:43Z</time>
      </trkpt>
      <trkpt lat="47.16248" lon="5.82646">
        <ele>239.4</ele>
        <time>2024-08-05T08:09:44Z</time>
      </trkpt>
      <trkpt lat="47.16244" lon="5.82644">
        <ele>239.4</ele>
        <time>2024-08-05T08:09:45Z</time>
      </trkpt>
      <trkpt lat="47.1624" lon="5.82641">
        <ele>239.4</ele>
        <time>2024-08-05T08:09:46Z</time>
      </trkpt>
      <trkpt lat="47.16235" lon="5.82639">
        <ele>239.4</ele>
        <time>2024-08-05T08:09:47Z</time>
      </trkpt>
      <trkpt lat="47.16231" lon="5.82637">
        <ele>239.4</ele>
        <time>2024-08-05T08:09:48Z</time>
      </trkpt>
      <trkpt lat="47.16226" lon="5.82636">
        <ele>239.4</ele>
        <time>2024-08-05T08:09:49Z</time>
      </trkpt>
      <trkpt lat="47.16222" lon="5.82634">
        <ele>239.4</ele>
        <time>2024-08-05T08:09:50Z</time>
      </trkpt>
      <trkpt lat="47.16218" lon="5.82632">
        <ele>239.4</ele>
        <time>2024-08-05T08:09:51Z</time>
      </trkpt>
      <trkpt lat="47.16214" lon="5.8263">
        <ele>239.4</ele>
        <time>2024-08-05T08:09:52Z</time>
      </trkpt>
      <trkpt lat="47.16209" lon="5.82628">
        <ele>239.4</ele>
        <time>2024-08-05T08:09:53Z</time>
      </trkpt>
      <trkpt lat="47.16205" lon="5.82626">
        <ele>239.6</ele>
        <time>2024-08-05T08:09:54Z</time>
      </trkpt>
      <trkpt lat="47.162" lon="5.82624">
        <ele>239.6</ele>
        <time>2024-08-05T08:09:55Z</time>
      </trkpt>
      <trkpt lat="47.16195" lon="5.82622">
        <ele>239.6</ele>
        <time>2024-08-05T08:09:56Z</time>
      </trkpt>
      <trkpt lat="47.1619" lon="5.8262">
        <ele>239.8</ele>
        <time>2024-08-05T08:09:57Z</time>
      </trkpt>
      <trkpt lat="47.16185" lon="5.82619">
        <ele>240</ele>
        <time>2024-08-05T08:09:58Z</time>
      </trkpt>
      <trkpt lat="47.1618" lon="5.82618">
        <ele>240</ele>
        <time>2024-08-05T08:09:59Z</time>
      </trkpt>
      <trkpt lat="47.16175" lon="5.82617">
        <ele>240</ele>
        <time>2024-08-05T08:10:00Z</time>
      </trkpt>
      <trkpt lat="47.16171" lon="5.82616">
        <ele>240.2</ele>
        <time>2024-08-05T08:10:01Z</time>
      </trkpt>
      <trkpt lat="47.16166" lon="5.82615">
        <ele>240.2</ele>
        <time>2024-08-05T08:10:02Z</time>
      </trkpt>
      <trkpt lat="47.16162" lon="5.82614">
        <ele>240.2</ele>
        <time>2024-08-05T08:10:03Z</time>
      </trkpt>
      <trkpt lat="47.16158" lon="5.82614">
        <ele>240.2</ele>
        <time>2024-08-05T08:10:04Z</time>
      </trkpt>
      <trkpt lat="47.16154" lon="5.82613">
        <ele>240.2</ele>
        <time>2024-08-05T08:10:05Z</time>
      </trkpt>
      <trkpt lat="47.16149" lon="5.82612">
        <ele>240.4</ele>
        <time>2024-08-05T08:10:06Z</time>
      </trkpt>
      <trkpt lat="47.16145" lon="5.82611">
        <ele>240.4</ele>
        <time>2024-08-05T08:10:07Z</time>
      </trkpt>
      <trkpt lat="47.16141" lon="5.82611">
        <ele>240.6</ele>
        <time>2024-08-05T08:10:08Z</time>
      </trkpt>
      <trkpt lat="47.16137" lon="5.8261">
        <ele>240.6</ele>
        <time>2024-08-05T08:10:09Z</time>
      </trkpt>
      <trkpt lat="47.16133" lon="5.82609">
        <ele>240.6</ele>
        <time>2024-08-05T08:10:10Z</time>
      </trkpt>
      <trkpt lat="47.16128" lon="5.82609">
        <ele>240.8</ele>
        <time>2024-08-05T08:10:11Z</time>
      </trkpt>
      <trkpt lat="47.16125" lon="5.82609">
        <ele>240.8</ele>
        <time>2024-08-05T08:10:12Z</time>
      </trkpt>
      <trkpt lat="47.1612" lon="5.82608">
        <ele>241</ele>
        <time>2024-08-05T08:10:13Z</time>
      </trkpt>
      <trkpt lat="47.16116" lon="5.82607">
        <ele>241.2</ele>
        <time>2024-08-05T08:10:14Z</time>
      </trkpt>
      <trkpt lat="47.16112" lon="5.82607">
        <ele>241.2</ele>
        <time>2024-08-05T08:10:15Z</time>
      </trkpt>
      <trkpt lat="47.16108" lon="5.82606">
        <ele>241.6</ele>
        <time>2024-08-05T08:10:16Z</time>
      </trkpt>
      <trkpt lat="47.16104" lon="5.82606">
        <ele>241.8</ele>
        <time>2024-08-05T08:10:17Z</time>
      </trkpt>
      <trkpt lat="47.161" lon="5.82605">
        <ele>242.2</ele>
        <time>2024-08-05T08:10:18Z</time>
      </trkpt>
      <trkpt lat="47.16096" lon="5.82605">
        <ele>242.4</ele>
        <time>2024-08-05T08:10:19Z</time>
      </trkpt>
      <trkpt lat="47.16091" lon="5.82604">
        <ele>243</ele>
        <time>2024-08-05T08:10:20Z</time>
      </trkpt>
      <trkpt lat="47.16087" lon="5.82604">
        <ele>243.2</ele>
        <time>2024-08-05T08:10:21Z</time>
      </trkpt>
      <trkpt lat="47.16083" lon="5.82603">
        <ele>243.6</ele>
        <time>2024-08-05T08:10:22Z</time>
      </trkpt>
      <trkpt lat="47.16079" lon="5.82603">
        <ele>243.8</ele>
        <time>2024-08-05T08:10:23Z</time>
      </trkpt>
      <trkpt lat="47.16075" lon="5.82602">
        <ele>244.2</ele>
        <time>2024-08-05T08:10:24Z</time>
      </trkpt>
      <trkpt lat="47.16072" lon="5.82602">
        <ele>244.6</ele>
        <time>2024-08-05T08:10:25Z</time>
      </trkpt>
      <trkpt lat="47.16068" lon="5.82602">
        <ele>244.8</ele>
        <time>2024-08-05T08:10:26Z</time>
      </trkpt>
      <trkpt lat="47.16064" lon="5.82601">
        <ele>245</ele>
        <time>2024-08-05T08:10:27Z</time>
      </trkpt>
      <trkpt lat="47.1606" lon="5.82601">
        <ele>245.4</ele>
        <time>2024-08-05T08:10:28Z</time>
      </trkpt>
      <trkpt lat="47.16056" lon="5.82601">
        <ele>245.6</ele>
        <time>2024-08-05T08:10:29Z</time>
      </trkpt>
      <trkpt lat="47.16052" lon="5.82601">
        <ele>245.8</ele>
        <time>2024-08-05T08:10:30Z</time>
      </trkpt>
      <trkpt lat="47.16048" lon="5.82602">
        <ele>246.2</ele>
        <time>2024-08-05T08:10:31Z</time>
      </trkpt>
      <trkpt lat="47.16044" lon="5.82602">
        <ele>246.4</ele>
        <time>2024-08-05T08:10:32Z</time>
      </trkpt>
      <trkpt lat="47.16039" lon="5.82604">
        <ele>246.4</ele>
        <time>2024-08-05T08:10:33Z</time>
      </trkpt>
      <trkpt lat="47.16035" lon="5.82605">
        <ele>246.4</ele>
        <time>2024-08-05T08:10:34Z</time>
      </trkpt>
      <trkpt lat="47.16031" lon="5.82607">
        <ele>246.6</ele>
        <time>2024-08-05T08:10:35Z</time>
      </trkpt>
      <trkpt lat="47.16027" lon="5.8261">
        <ele>246.8</ele>
        <time>2024-08-05T08:10:36Z</time>
      </trkpt>
      <trkpt lat="47.16022" lon="5.82613">
        <ele>246.8</ele>
        <time>2024-08-05T08:10:37Z</time>
      </trkpt>
      <trkpt lat="47.16019" lon="5.82615">
        <ele>247</ele>
        <time>2024-08-05T08:10:38Z</time>
      </trkpt>
      <trkpt lat="47.16015" lon="5.82619">
        <ele>247.2</ele>
        <time>2024-08-05T08:10:39Z</time>
      </trkpt>
      <trkpt lat="47.16011" lon="5.82622">
        <ele>247.2</ele>
        <time>2024-08-05T08:10:40Z</time>
      </trkpt>
      <trkpt lat="47.16007" lon="5.82626">
        <ele>247.4</ele>
        <time>2024-08-05T08:10:41Z</time>
      </trkpt>
      <trkpt lat="47.16004" lon="5.8263">
        <ele>247.4</ele>
        <time>2024-08-05T08:10:42Z</time>
      </trkpt>
      <trkpt lat="47.16001" lon="5.82634">
        <ele>247.6</ele>
        <time>2024-08-05T08:10:43Z</time>
      </trkpt>
      <trkpt lat="47.15997" lon="5.82638">
        <ele>247.4</ele>
        <time>2024-08-05T08:10:44Z</time>
      </trkpt>
      <trkpt lat="47.15994" lon="5.82641">
        <ele>247.8</ele>
        <time>2024-08-05T08:10:45Z</time>
      </trkpt>
      <trkpt lat="47.15991" lon="5.82645">
        <ele>247.8</ele>
        <time>2024-08-05T08:10:46Z</time>
      </trkpt>
      <trkpt lat="47.15988" lon="5.82649">
        <ele>248</ele>
        <time>2024-08-05T08:10:47Z</time>
      </trkpt>
      <trkpt lat="47.15985" lon="5.82653">
        <ele>248.2</ele>
        <time>2024-08-05T08:10:48Z</time>
      </trkpt>
      <trkpt lat="47.15982" lon="5.82657">
        <ele>248.2</ele>
        <time>2024-08-05T08:10:49Z</time>
      </trkpt>
      <trkpt lat="47.15979" lon="5.82661">
        <ele>248.4</ele>
        <time>2024-08-05T08:10:50Z</time>
      </trkpt>
      <trkpt lat="47.15977" lon="5.82666">
        <ele>248.6</ele>
        <time>2024-08-05T08:10:51Z</time>
      </trkpt>
      <trkpt lat="47.15974" lon="5.8267">
        <ele>248.8</ele>
        <time>2024-08-05T08:10:52Z</time>
      </trkpt>
      <trkpt lat="47.15971" lon="5.82673">
        <ele>249.2</ele>
        <time>2024-08-05T08:10:53Z</time>
      </trkpt>
      <trkpt lat="47.15968" lon="5.82677">
        <ele>249.2</ele>
        <time>2024-08-05T08:10:54Z</time>
      </trkpt>
      <trkpt lat="47.15966" lon="5.8268">
        <ele>249.4</ele>
        <time>2024-08-05T08:10:55Z</time>
      </trkpt>
      <trkpt lat="47.15963" lon="5.82684">
        <ele>249.4</ele>
        <time>2024-08-05T08:10:56Z</time>
      </trkpt>
      <trkpt lat="47.15961" lon="5.82687">
        <ele>249.6</ele>
        <time>2024-08-05T08:10:57Z</time>
      </trkpt>
      <trkpt lat="47.15959" lon="5.8269">
        <ele>249.8</ele>
        <time>2024-08-05T08:10:58Z</time>
      </trkpt>
      <trkpt lat="47.15957" lon="5.82693">
        <ele>250</ele>
        <time>2024-08-05T08:10:59Z</time>
      </trkpt>
      <trkpt lat="47.15956" lon="5.82696">
        <ele>250.4</ele>
        <time>2024-08-05T08:11:00Z</time>
      </trkpt>
      <trkpt lat="47.15954" lon="5.827">
        <ele>250.6</ele>
        <time>2024-08-05T08:11:01Z</time>
      </trkpt>
      <trkpt lat="47.15952" lon="5.82703">
        <ele>251.2</ele>
        <time>2024-08-05T08:11:02Z</time>
      </trkpt>
      <trkpt lat="47.15949" lon="5.82707">
        <ele>251.8</ele>
        <time>2024-08-05T08:11:03Z</time>
      </trkpt>
      <trkpt lat="47.15947" lon="5.8271">
        <ele>252.4</ele>
        <time>2024-08-05T08:11:04Z</time>
      </trkpt>
      <trkpt lat="47.15944" lon="5.82714">
        <ele>252.6</ele>
        <time>2024-08-05T08:11:05Z</time>
      </trkpt>
      <trkpt lat="47.15942" lon="5.82717">
        <ele>253</ele>
        <time>2024-08-05T08:11:06Z</time>
      </trkpt>
      <trkpt lat="47.15939" lon="5.82721">
        <ele>253.4</ele>
        <time>2024-08-05T08:11:07Z</time>
      </trkpt>
      <trkpt lat="47.15936" lon="5.82725">
        <ele>253.4</ele>
        <time>2024-08-05T08:11:08Z</time>
      </trkpt>
      <trkpt lat="47.15933" lon="5.82729">
        <ele>253.4</ele>
        <time>2024-08-05T08:11:09Z</time>
      </trkpt>
      <trkpt lat="47.15929" lon="5.82733">
        <ele>253.4</ele>
        <time>2024-08-05T08:11:10Z</time>
      </trkpt>
      <trkpt lat="47.15925" lon="5.82737">
        <ele>253.6</ele>
        <time>2024-08-05T08:11:11Z</time>
      </trkpt>
      <trkpt lat="47.15921" lon="5.82742">
        <ele>253.6</ele>
        <time>2024-08-05T08:11:12Z</time>
      </trkpt>
      <trkpt lat="47.15917" lon="5.82748">
        <ele>253.4</ele>
        <time>2024-08-05T08:11:13Z</time>
      </trkpt>
      <trkpt lat="47.15912" lon="5.82753">
        <ele>253.4</ele>
        <time>2024-08-05T08:11:14Z</time>
      </trkpt>
      <trkpt lat="47.15907" lon="5.82759">
        <ele>253.6</ele>
        <time>2024-08-05T08:11:15Z</time>
      </trkpt>
      <trkpt lat="47.15902" lon="5.82765">
        <ele>253.4</ele>
        <time>2024-08-05T08:11:16Z</time>
      </trkpt>
      <trkpt lat="47.15896" lon="5.82769">
        <ele>253.4</ele>
        <time>2024-08-05T08:11:17Z</time>
      </trkpt>
      <trkpt lat="47.15891" lon="5.82774">
        <ele>253</ele>
        <time>2024-08-05T08:11:18Z</time>
      </trkpt>
      <trkpt lat="47.15885" lon="5.82777">
        <ele>253</ele>
        <time>2024-08-05T08:11:19Z</time>
      </trkpt>
      <trkpt lat="47.15879" lon="5.82778">
        <ele>252.6</ele>
        <time>2024-08-05T08:11:20Z</time>
      </trkpt>
      <trkpt lat="47.15873" lon="5.8278">
        <ele>252.4</ele>
        <time>2024-08-05T08:11:21Z</time>
      </trkpt>
      <trkpt lat="47.15867" lon="5.82781">
        <ele>252</ele>
        <time>2024-08-05T08:11:22Z</time>
      </trkpt>
      <trkpt lat="47.15861" lon="5.82784">
        <ele>252</ele>
        <time>2024-08-05T08:11:23Z</time>
      </trkpt>
      <trkpt lat="47.15855" lon="5.82787">
        <ele>251.6</ele>
        <time>2024-08-05T08:11:24Z</time>
      </trkpt>
      <trkpt lat="47.15848" lon="5.82791">
        <ele>251.4</ele>
        <time>2024-08-05T08:11:25Z</time>
      </trkpt>
      <trkpt lat="47.15841" lon="5.82796">
        <ele>251.4</ele>
        <time>2024-08-05T08:11:26Z</time>
      </trkpt>
      <trkpt lat="47.15834" lon="5.82801">
        <ele>251</ele>
        <time>2024-08-05T08:11:27Z</time>
      </trkpt>
      <trkpt lat="47.15828" lon="5.82807">
        <ele>250.8</ele>
        <time>2024-08-05T08:11:28Z</time>
      </trkpt>
      <trkpt lat="47.15822" lon="5.82812">
        <ele>250.6</ele>
        <time>2024-08-05T08:11:29Z</time>
      </trkpt>
      <trkpt lat="47.15816" lon="5.82817">
        <ele>250.6</ele>
        <time>2024-08-05T08:11:30Z</time>
      </trkpt>
      <trkpt lat="47.1581" lon="5.82823">
        <ele>250.4</ele>
        <time>2024-08-05T08:11:31Z</time>
      </trkpt>
      <trkpt lat="47.15805" lon="5.82828">
        <ele>250.2</ele>
        <time>2024-08-05T08:11:32Z</time>
      </trkpt>
      <trkpt lat="47.158" lon="5.82833">
        <ele>249.6</ele>
        <time>2024-08-05T08:11:33Z</time>
      </trkpt>
      <trkpt lat="47.15796" lon="5.82838">
        <ele>249.4</ele>
        <time>2024-08-05T08:11:34Z</time>
      </trkpt>
      <trkpt lat="47.15791" lon="5.82843">
        <ele>249.2</ele>
        <time>2024-08-05T08:11:35Z</time>
      </trkpt>
      <trkpt lat="47.15787" lon="5.82848">
        <ele>249</ele>
        <time>2024-08-05T08:11:36Z</time>
      </trkpt>
      <trkpt lat="47.15783" lon="5.82852">
        <ele>249</ele>
        <time>2024-08-05T08:11:37Z</time>
      </trkpt>
      <trkpt lat="47.15779" lon="5.82857">
        <ele>248.8</ele>
        <time>2024-08-05T08:11:38Z</time>
      </trkpt>
      <trkpt lat="47.15775" lon="5.82861">
        <ele>248.8</ele>
        <time>2024-08-05T08:11:39Z</time>
      </trkpt>
      <trkpt lat="47.15771" lon="5.82865">
        <ele>248.8</ele>
        <time>2024-08-05T08:11:40Z</time>
      </trkpt>
      <trkpt lat="47.15767" lon="5.82869">
        <ele>249</ele>
        <time>2024-08-05T08:11:41Z</time>
      </trkpt>
      <trkpt lat="47.15764" lon="5.82873">
        <ele>248.8</ele>
        <time>2024-08-05T08:11:42Z</time>
      </trkpt>
      <trkpt lat="47.15761" lon="5.82877">
        <ele>249</ele>
        <time>2024-08-05T08:11:43Z</time>
      </trkpt>
      <trkpt lat="47.15757" lon="5.82881">
        <ele>249</ele>
        <time>2024-08-05T08:11:44Z</time>
      </trkpt>
      <trkpt lat="47.15754" lon="5.82884">
        <ele>248.8</ele>
        <time>2024-08-05T08:11:45Z</time>
      </trkpt>
      <trkpt lat="47.15751" lon="5.82888">
        <ele>249</ele>
        <time>2024-08-05T08:11:46Z</time>
      </trkpt>
      <trkpt lat="47.15748" lon="5.82892">
        <ele>249.2</ele>
        <time>2024-08-05T08:11:47Z</time>
      </trkpt>
      <trkpt lat="47.15746" lon="5.82896">
        <ele>249.4</ele>
        <time>2024-08-05T08:11:48Z</time>
      </trkpt>
      <trkpt lat="47.15743" lon="5.82899">
        <ele>249.2</ele>
        <time>2024-08-05T08:11:49Z</time>
      </trkpt>
      <trkpt lat="47.15741" lon="5.82903">
        <ele>249.4</ele>
        <time>2024-08-05T08:11:50Z</time>
      </trkpt>
      <trkpt lat="47.15738" lon="5.82906">
        <ele>249.8</ele>
        <time>2024-08-05T08:11:51Z</time>
      </trkpt>
      <trkpt lat="47.15736" lon="5.8291">
        <ele>249.8</ele>
        <time>2024-08-05T08:11:52Z</time>
      </trkpt>
      <trkpt lat="47.15734" lon="5.82914">
        <ele>250</ele>
        <time>2024-08-05T08:11:53Z</time>
      </trkpt>
      <trkpt lat="47.15732" lon="5.82917">
        <ele>250.4</ele>
        <time>2024-08-05T08:11:54Z</time>
      </trkpt>
      <trkpt lat="47.15729" lon="5.82921">
        <ele>250.6</ele>
        <time>2024-08-05T08:11:55Z</time>
      </trkpt>
      <trkpt lat="47.15727" lon="5.82925">
        <ele>250.8</ele>
        <time>2024-08-05T08:11:56Z</time>
      </trkpt>
      <trkpt lat="47.15726" lon="5.82928">
        <ele>250.8</ele>
        <time>2024-08-05T08:11:57Z</time>
      </trkpt>
      <trkpt lat="47.15724" lon="5.82932">
        <ele>251.2</ele>
        <time>2024-08-05T08:11:58Z</time>
      </trkpt>
      <trkpt lat="47.15722" lon="5.82935">
        <ele>251.4</ele>
        <time>2024-08-05T08:11:59Z</time>
      </trkpt>
      <trkpt lat="47.1572" lon="5.82939">
        <ele>251.6</ele>
        <time>2024-08-05T08:12:00Z</time>
      </trkpt>
      <trkpt lat="47.15718" lon="5.82942">
        <ele>251.6</ele>
        <time>2024-08-05T08:12:01Z</time>
      </trkpt>
      <trkpt lat="47.15715" lon="5.82946">
        <ele>251.8</ele>
        <time>2024-08-05T08:12:02Z</time>
      </trkpt>
      <trkpt lat="47.15713" lon="5.8295">
        <ele>252.4</ele>
        <time>2024-08-05T08:12:03Z</time>
      </trkpt>
      <trkpt lat="47.15711" lon="5.82954">
        <ele>252.6</ele>
        <time>2024-08-05T08:12:04Z</time>
      </trkpt>
      <trkpt lat="47.1571" lon="5.82958">
        <ele>253</ele>
        <time>2024-08-05T08:12:05Z</time>
      </trkpt>
      <trkpt lat="47.15708" lon="5.82962">
        <ele>253.4</ele>
        <time>2024-08-05T08:12:06Z</time>
      </trkpt>
      <trkpt lat="47.15706" lon="5.82966">
        <ele>253.6</ele>
        <time>2024-08-05T08:12:07Z</time>
      </trkpt>
      <trkpt lat="47.15704" lon="5.8297">
        <ele>254</ele>
        <time>2024-08-05T08:12:08Z</time>
      </trkpt>
      <trkpt lat="47.15702" lon="5.82974">
        <ele>254.2</ele>
        <time>2024-08-05T08:12:09Z</time>
      </trkpt>
      <trkpt lat="47.157" lon="5.82978">
        <ele>254.4</ele>
        <time>2024-08-05T08:12:10Z</time>
      </trkpt>
      <trkpt lat="47.15699" lon="5.82983">
        <ele>254.6</ele>
        <time>2024-08-05T08:12:11Z</time>
      </trkpt>
      <trkpt lat="47.15697" lon="5.82987">
        <ele>254.6</ele>
        <time>2024-08-05T08:12:12Z</time>
      </trkpt>
      <trkpt lat="47.15695" lon="5.82991">
        <ele>254.8</ele>
        <time>2024-08-05T08:12:13Z</time>
      </trkpt>
      <trkpt lat="47.15692" lon="5.82995">
        <ele>255</ele>
        <time>2024-08-05T08:12:14Z</time>
      </trkpt>
      <trkpt lat="47.1569" lon="5.82999">
        <ele>255</ele>
        <time>2024-08-05T08:12:15Z</time>
      </trkpt>
      <trkpt lat="47.15688" lon="5.83004">
        <ele>255.4</ele>
        <time>2024-08-05T08:12:16Z</time>
      </trkpt>
      <trkpt lat="47.15685" lon="5.83008">
        <ele>255.6</ele>
        <time>2024-08-05T08:12:17Z</time>
      </trkpt>
      <trkpt lat="47.15684" lon="5.83012">
        <ele>256</ele>
        <time>2024-08-05T08:12:18Z</time>
      </trkpt>
      <trkpt lat="47.15682" lon="5.83016">
        <ele>256</ele>
        <time>2024-08-05T08:12:19Z</time>
      </trkpt>
      <trkpt lat="47.1568" lon="5.8302">
        <ele>256</ele>
        <time>2024-08-05T08:12:20Z</time>
      </trkpt>
      <trkpt lat="47.15678" lon="5.83024">
        <ele>256.2</ele>
        <time>2024-08-05T08:12:21Z</time>
      </trkpt>
      <trkpt lat="47.15677" lon="5.83029">
        <ele>256.6</ele>
        <time>2024-08-05T08:12:22Z</time>
      </trkpt>
      <trkpt lat="47.15675" lon="5.83033">
        <ele>256.6</ele>
        <time>2024-08-05T08:12:23Z</time>
      </trkpt>
      <trkpt lat="47.15674" lon="5.83037">
        <ele>257</ele>
        <time>2024-08-05T08:12:24Z</time>
      </trkpt>
      <trkpt lat="47.15672" lon="5.83041">
        <ele>257</ele>
        <time>2024-08-05T08:12:25Z</time>
      </trkpt>
      <trkpt lat="47.15671" lon="5.83046">
        <ele>257.4</ele>
        <time>2024-08-05T08:12:26Z</time>
      </trkpt>
      <trkpt lat="47.15669" lon="5.8305">
        <ele>257.4</ele>
        <time>2024-08-05T08:12:27Z</time>
      </trkpt>
      <trkpt lat="47.15667" lon="5.83054">
        <ele>257.8</ele>
        <time>2024-08-05T08:12:28Z</time>
      </trkpt>
      <trkpt lat="47.15665" lon="5.83059">
        <ele>258</ele>
        <time>2024-08-05T08:12:29Z</time>
      </trkpt>
      <trkpt lat="47.15663" lon="5.83063">
        <ele>258</ele>
        <time>2024-08-05T08:12:30Z</time>
      </trkpt>
      <trkpt lat="47.15661" lon="5.83067">
        <ele>258.6</ele>
        <time>2024-08-05T08:12:31Z</time>
      </trkpt>
      <trkpt lat="47.15657" lon="5.83071">
        <ele>258.8</ele>
        <time>2024-08-05T08:12:32Z</time>
      </trkpt>
      <trkpt lat="47.15654" lon="5.83073">
        <ele>259</ele>
        <time>2024-08-05T08:12:33Z</time>
      </trkpt>
      <trkpt lat="47.1565" lon="5.83075">
        <ele>259.2</ele>
        <time>2024-08-05T08:12:34Z</time>
      </trkpt>
      <trkpt lat="47.15647" lon="5.83075">
        <ele>259.4</ele>
        <time>2024-08-05T08:12:35Z</time>
      </trkpt>
      <trkpt lat="47.15642" lon="5.83075">
        <ele>259.4</ele>
        <time>2024-08-05T08:12:36Z</time>
      </trkpt>
      <trkpt lat="47.15638" lon="5.83073">
        <ele>259.8</ele>
        <time>2024-08-05T08:12:37Z</time>
      </trkpt>
      <trkpt lat="47.15633" lon="5.83071">
        <ele>260</ele>
        <time>2024-08-05T08:12:38Z</time>
      </trkpt>
      <trkpt lat="47.1563" lon="5.83069">
        <ele>260</ele>
        <time>2024-08-05T08:12:39Z</time>
      </trkpt>
      <trkpt lat="47.15625" lon="5.83067">
        <ele>260</ele>
        <time>2024-08-05T08:12:40Z</time>
      </trkpt>
      <trkpt lat="47.1562" lon="5.83064">
        <ele>260</ele>
        <time>2024-08-05T08:12:41Z</time>
      </trkpt>
      <trkpt lat="47.15616" lon="5.83061">
        <ele>260</ele>
        <time>2024-08-05T08:12:42Z</time>
      </trkpt>
      <trkpt lat="47.15611" lon="5.83057">
        <ele>260</ele>
        <time>2024-08-05T08:12:43Z</time>
      </trkpt>
      <trkpt lat="47.15606" lon="5.83054">
        <ele>260</ele>
        <time>2024-08-05T08:12:44Z</time>
      </trkpt>
      <trkpt lat="47.15602" lon="5.8305">
        <ele>260</ele>
        <time>2024-08-05T08:12:45Z</time>
      </trkpt>
      <trkpt lat="47.15597" lon="5.83048">
        <ele>260.2</ele>
        <time>2024-08-05T08:12:46Z</time>
      </trkpt>
      <trkpt lat="47.15593" lon="5.83046">
        <ele>260</ele>
        <time>2024-08-05T08:12:47Z</time>
      </trkpt>
      <trkpt lat="47.15589" lon="5.83043">
        <ele>260</ele>
        <time>2024-08-05T08:12:48Z</time>
      </trkpt>
      <trkpt lat="47.15586" lon="5.83041">
        <ele>260.2</ele>
        <time>2024-08-05T08:12:49Z</time>
      </trkpt>
      <trkpt lat="47.15582" lon="5.83039">
        <ele>260.2</ele>
        <time>2024-08-05T08:12:50Z</time>
      </trkpt>
      <trkpt lat="47.15578" lon="5.83036">
        <ele>260.2</ele>
        <time>2024-08-05T08:12:51Z</time>
      </trkpt>
      <trkpt lat="47.15575" lon="5.83033">
        <ele>260.4</ele>
        <time>2024-08-05T08:12:52Z</time>
      </trkpt>
      <trkpt lat="47.15571" lon="5.83029">
        <ele>260.2</ele>
        <time>2024-08-05T08:12:53Z</time>
      </trkpt>
      <trkpt lat="47.15567" lon="5.83025">
        <ele>260.2</ele>
        <time>2024-08-05T08:12:54Z</time>
      </trkpt>
      <trkpt lat="47.15563" lon="5.83021">
        <ele>260.2</ele>
        <time>2024-08-05T08:12:55Z</time>
      </trkpt>
      <trkpt lat="47.1556" lon="5.83018">
        <ele>260.2</ele>
        <time>2024-08-05T08:12:56Z</time>
      </trkpt>
      <trkpt lat="47.15556" lon="5.83015">
        <ele>260.4</ele>
        <time>2024-08-05T08:12:57Z</time>
      </trkpt>
      <trkpt lat="47.15553" lon="5.83012">
        <ele>260.2</ele>
        <time>2024-08-05T08:12:58Z</time>
      </trkpt>
      <trkpt lat="47.15549" lon="5.83009">
        <ele>260.2</ele>
        <time>2024-08-05T08:12:59Z</time>
      </trkpt>
      <trkpt lat="47.15546" lon="5.83007">
        <ele>260.2</ele>
        <time>2024-08-05T08:13:00Z</time>
      </trkpt>
      <trkpt lat="47.15543" lon="5.83005">
        <ele>260.2</ele>
        <time>2024-08-05T08:13:01Z</time>
      </trkpt>
      <trkpt lat="47.15539" lon="5.83003">
        <ele>260.2</ele>
        <time>2024-08-05T08:13:02Z</time>
      </trkpt>
      <trkpt lat="47.15536" lon="5.83002">
        <ele>260.2</ele>
        <time>2024-08-05T08:13:03Z</time>
      </trkpt>
      <trkpt lat="47.15533" lon="5.83">
        <ele>260.2</ele>
        <time>2024-08-05T08:13:04Z</time>
      </trkpt>
      <trkpt lat="47.15529" lon="5.82999">
        <ele>260.2</ele>
        <time>2024-08-05T08:13:05Z</time>
      </trkpt>
      <trkpt lat="47.15525" lon="5.82997">
        <ele>260</ele>
        <time>2024-08-05T08:13:06Z</time>
      </trkpt>
      <trkpt lat="47.15522" lon="5.82997">
        <ele>260</ele>
        <time>2024-08-05T08:13:07Z</time>
      </trkpt>
      <trkpt lat="47.15518" lon="5.82997">
        <ele>259.8</ele>
        <time>2024-08-05T08:13:08Z</time>
      </trkpt>
      <trkpt lat="47.15515" lon="5.82998">
        <ele>259.6</ele>
        <time>2024-08-05T08:13:09Z</time>
      </trkpt>
      <trkpt lat="47.15512" lon="5.82999">
        <ele>259.6</ele>
        <time>2024-08-05T08:13:10Z</time>
      </trkpt>
      <trkpt lat="47.15509" lon="5.83001">
        <ele>259.4</ele>
        <time>2024-08-05T08:13:11Z</time>
      </trkpt>
      <trkpt lat="47.15507" lon="5.83003">
        <ele>259.2</ele>
        <time>2024-08-05T08:13:12Z</time>
      </trkpt>
      <trkpt lat="47.15505" lon="5.83005">
        <ele>259.2</ele>
        <time>2024-08-05T08:13:13Z</time>
      </trkpt>
      <trkpt lat="47.15502" lon="5.83007">
        <ele>259</ele>
        <time>2024-08-05T08:13:14Z</time>
      </trkpt>
      <trkpt lat="47.15501" lon="5.83011">
        <ele>259</ele>
        <time>2024-08-05T08:13:15Z</time>
      </trkpt>
      <trkpt lat="47.15499" lon="5.83015">
        <ele>259</ele>
        <time>2024-08-05T08:13:16Z</time>
      </trkpt>
      <trkpt lat="47.15497" lon="5.83018">
        <ele>259</ele>
        <time>2024-08-05T08:13:17Z</time>
      </trkpt>
      <trkpt lat="47.15495" lon="5.83021">
        <ele>259</ele>
        <time>2024-08-05T08:13:18Z</time>
      </trkpt>
      <trkpt lat="47.15493" lon="5.83025">
        <ele>259</ele>
        <time>2024-08-05T08:13:19Z</time>
      </trkpt>
      <trkpt lat="47.15491" lon="5.83029">
        <ele>259</ele>
        <time>2024-08-05T08:13:20Z</time>
      </trkpt>
      <trkpt lat="47.15489" lon="5.83033">
        <ele>259</ele>
        <time>2024-08-05T08:13:21Z</time>
      </trkpt>
      <trkpt lat="47.15487" lon="5.83037">
        <ele>259</ele>
        <time>2024-08-05T08:13:22Z</time>
      </trkpt>
      <trkpt lat="47.15486" lon="5.83041">
        <ele>259.2</ele>
        <time>2024-08-05T08:13:23Z</time>
      </trkpt>
      <trkpt lat="47.15485" lon="5.83046">
        <ele>259.2</ele>
        <time>2024-08-05T08:13:24Z</time>
      </trkpt>
      <trkpt lat="47.15482" lon="5.83049">
        <ele>259.4</ele>
        <time>2024-08-05T08:13:25Z</time>
      </trkpt>
      <trkpt lat="47.1548" lon="5.83054">
        <ele>259.6</ele>
        <time>2024-08-05T08:13:26Z</time>
      </trkpt>
      <trkpt lat="47.15478" lon="5.83058">
        <ele>259.4</ele>
        <time>2024-08-05T08:13:27Z</time>
      </trkpt>
      <trkpt lat="47.15476" lon="5.83062">
        <ele>259.6</ele>
        <time>2024-08-05T08:13:28Z</time>
      </trkpt>
      <trkpt lat="47.15475" lon="5.83065">
        <ele>259.6</ele>
        <time>2024-08-05T08:13:29Z</time>
      </trkpt>
      <trkpt lat="47.15473" lon="5.83068">
        <ele>259.8</ele>
        <time>2024-08-05T08:13:30Z</time>
      </trkpt>
      <trkpt lat="47.15471" lon="5.83072">
        <ele>260</ele>
        <time>2024-08-05T08:13:31Z</time>
      </trkpt>
      <trkpt lat="47.1547" lon="5.83076">
        <ele>260.2</ele>
        <time>2024-08-05T08:13:32Z</time>
      </trkpt>
      <trkpt lat="47.15467" lon="5.83078">
        <ele>260.4</ele>
        <time>2024-08-05T08:13:33Z</time>
      </trkpt>
      <trkpt lat="47.15465" lon="5.83082">
        <ele>260.4</ele>
        <time>2024-08-05T08:13:34Z</time>
      </trkpt>
      <trkpt lat="47.15464" lon="5.83085">
        <ele>260.6</ele>
        <time>2024-08-05T08:13:35Z</time>
      </trkpt>
      <trkpt lat="47.15463" lon="5.83089">
        <ele>260.8</ele>
        <time>2024-08-05T08:13:36Z</time>
      </trkpt>
      <trkpt lat="47.15462" lon="5.83093">
        <ele>261</ele>
        <time>2024-08-05T08:13:37Z</time>
      </trkpt>
      <trkpt lat="47.1546" lon="5.83096">
        <ele>261.2</ele>
        <time>2024-08-05T08:13:38Z</time>
      </trkpt>
      <trkpt lat="47.15459" lon="5.831">
        <ele>261.4</ele>
        <time>2024-08-05T08:13:39Z</time>
      </trkpt>
      <trkpt lat="47.15457" lon="5.83105">
        <ele>261.6</ele>
        <time>2024-08-05T08:13:40Z</time>
      </trkpt>
      <trkpt lat="47.15456" lon="5.83108">
        <ele>261.8</ele>
        <time>2024-08-05T08:13:41Z</time>
      </trkpt>
      <trkpt lat="47.15455" lon="5.83111">
        <ele>262.2</ele>
        <time>2024-08-05T08:13:42Z</time>
      </trkpt>
      <trkpt lat="47.15454" lon="5.83115">
        <ele>262.2</ele>
        <time>2024-08-05T08:13:43Z</time>
      </trkpt>
      <trkpt lat="47.15452" lon="5.83119">
        <ele>262.6</ele>
        <time>2024-08-05T08:13:44Z</time>
      </trkpt>
      <trkpt lat="47.15451" lon="5.83124">
        <ele>262.8</ele>
        <time>2024-08-05T08:13:45Z</time>
      </trkpt>
      <trkpt lat="47.1545" lon="5.83127">
        <ele>263.2</ele>
        <time>2024-08-05T08:13:46Z</time>
      </trkpt>
      <trkpt lat="47.15448" lon="5.83131">
        <ele>263.4</ele>
        <time>2024-08-05T08:13:47Z</time>
      </trkpt>
      <trkpt lat="47.15446" lon="5.83133">
        <ele>263.6</ele>
        <time>2024-08-05T08:13:48Z</time>
      </trkpt>
      <trkpt lat="47.15443" lon="5.83137">
        <ele>264</ele>
        <time>2024-08-05T08:13:49Z</time>
      </trkpt>
      <trkpt lat="47.1544" lon="5.83139">
        <ele>264.2</ele>
        <time>2024-08-05T08:13:50Z</time>
      </trkpt>
      <trkpt lat="47.15436" lon="5.83141">
        <ele>264.2</ele>
        <time>2024-08-05T08:13:51Z</time>
      </trkpt>
      <trkpt lat="47.15431" lon="5.83143">
        <ele>264.4</ele>
        <time>2024-08-05T08:13:52Z</time>
      </trkpt>
      <trkpt lat="47.15427" lon="5.83146">
        <ele>264.6</ele>
        <time>2024-08-05T08:13:53Z</time>
      </trkpt>
      <trkpt lat="47.15423" lon="5.83148">
        <ele>264.8</ele>
        <time>2024-08-05T08:13:54Z</time>
      </trkpt>
      <trkpt lat="47.15419" lon="5.83151">
        <ele>264.8</ele>
        <time>2024-08-05T08:13:55Z</time>
      </trkpt>
      <trkpt lat="47.15416" lon="5.83154">
        <ele>265</ele>
        <time>2024-08-05T08:13:56Z</time>
      </trkpt>
      <trkpt lat="47.15412" lon="5.83157">
        <ele>265.2</ele>
        <time>2024-08-05T08:13:57Z</time>
      </trkpt>
      <trkpt lat="47.15409" lon="5.83159">
        <ele>265.2</ele>
        <time>2024-08-05T08:13:58Z</time>
      </trkpt>
      <trkpt lat="47.15405" lon="5.83162">
        <ele>265</ele>
        <time>2024-08-05T08:13:59Z</time>
      </trkpt>
      <trkpt lat="47.15401" lon="5.83164">
        <ele>265</ele>
        <time>2024-08-05T08:14:00Z</time>
      </trkpt>
      <trkpt lat="47.15398" lon="5.83166">
        <ele>265</ele>
        <time>2024-08-05T08:14:01Z</time>
      </trkpt>
      <trkpt lat="47.15395" lon="5.83167">
        <ele>265</ele>
        <time>2024-08-05T08:14:02Z</time>
      </trkpt>
      <trkpt lat="47.15392" lon="5.83168">
        <ele>265</ele>
        <time>2024-08-05T08:14:03Z</time>
      </trkpt>
      <trkpt lat="47.15388" lon="5.8317">
        <ele>265</ele>
        <time>2024-08-05T08:14:04Z</time>
      </trkpt>
      <trkpt lat="47.15385" lon="5.83172">
        <ele>265.2</ele>
        <time>2024-08-05T08:14:05Z</time>
      </trkpt>
      <trkpt lat="47.15382" lon="5.83174">
        <ele>265.2</ele>
        <time>2024-08-05T08:14:06Z</time>
      </trkpt>
      <trkpt lat="47.15378" lon="5.83176">
        <ele>265.4</ele>
        <time>2024-08-05T08:14:07Z</time>
      </trkpt>
      <trkpt lat="47.15374" lon="5.83178">
        <ele>265.6</ele>
        <time>2024-08-05T08:14:08Z</time>
      </trkpt>
      <trkpt lat="47.15371" lon="5.8318">
        <ele>265.6</ele>
        <time>2024-08-05T08:14:09Z</time>
      </trkpt>
      <trkpt lat="47.15368" lon="5.83182">
        <ele>266.2</ele>
        <time>2024-08-05T08:14:10Z</time>
      </trkpt>
      <trkpt lat="47.15363" lon="5.83185">
        <ele>266.4</ele>
        <time>2024-08-05T08:14:11Z</time>
      </trkpt>
      <trkpt lat="47.15359" lon="5.83187">
        <ele>266.4</ele>
        <time>2024-08-05T08:14:12Z</time>
      </trkpt>
      <trkpt lat="47.15355" lon="5.83189">
        <ele>266.4</ele>
        <time>2024-08-05T08:14:13Z</time>
      </trkpt>
      <trkpt lat="47.1535" lon="5.83192">
        <ele>266.6</ele>
        <time>2024-08-05T08:14:14Z</time>
      </trkpt>
      <trkpt lat="47.15346" lon="5.83194">
        <ele>266.4</ele>
        <time>2024-08-05T08:14:15Z</time>
      </trkpt>
      <trkpt lat="47.15341" lon="5.83197">
        <ele>266.4</ele>
        <time>2024-08-05T08:14:16Z</time>
      </trkpt>
      <trkpt lat="47.15336" lon="5.832">
        <ele>266.6</ele>
        <time>2024-08-05T08:14:17Z</time>
      </trkpt>
      <trkpt lat="47.1533" lon="5.83203">
        <ele>266.6</ele>
        <time>2024-08-05T08:14:18Z</time>
      </trkpt>
      <trkpt lat="47.15325" lon="5.83206">
        <ele>266.6</ele>
        <time>2024-08-05T08:14:19Z</time>
      </trkpt>
      <trkpt lat="47.15319" lon="5.83209">
        <ele>266.6</ele>
        <time>2024-08-05T08:14:20Z</time>
      </trkpt>
      <trkpt lat="47.15314" lon="5.83211">
        <ele>266.6</ele>
        <time>2024-08-05T08:14:21Z</time>
      </trkpt>
      <trkpt lat="47.15308" lon="5.83213">
        <ele>266.6</ele>
        <time>2024-08-05T08:14:22Z</time>
      </trkpt>
      <trkpt lat="47.15303" lon="5.83214">
        <ele>266.6</ele>
        <time>2024-08-05T08:14:23Z</time>
      </trkpt>
      <trkpt lat="47.15298" lon="5.83215">
        <ele>266.4</ele>
        <time>2024-08-05T08:14:24Z</time>
      </trkpt>
      <trkpt lat="47.15292" lon="5.83217">
        <ele>266</ele>
        <time>2024-08-05T08:14:25Z</time>
      </trkpt>
      <trkpt lat="47.15288" lon="5.8322">
        <ele>266</ele>
        <time>2024-08-05T08:14:26Z</time>
      </trkpt>
      <trkpt lat="47.15283" lon="5.83222">
        <ele>266</ele>
        <time>2024-08-05T08:14:27Z</time>
      </trkpt>
      <trkpt lat="47.15279" lon="5.83225">
        <ele>265.8</ele>
        <time>2024-08-05T08:14:28Z</time>
      </trkpt>
      <trkpt lat="47.15274" lon="5.83227">
        <ele>266</ele>
        <time>2024-08-05T08:14:29Z</time>
      </trkpt>
      <trkpt lat="47.1527" lon="5.8323">
        <ele>266</ele>
        <time>2024-08-05T08:14:30Z</time>
      </trkpt>
      <trkpt lat="47.15266" lon="5.83232">
        <ele>265.8</ele>
        <time>2024-08-05T08:14:31Z</time>
      </trkpt>
      <trkpt lat="47.15262" lon="5.83234">
        <ele>266</ele>
        <time>2024-08-05T08:14:32Z</time>
      </trkpt>
      <trkpt lat="47.15259" lon="5.83236">
        <ele>265.8</ele>
        <time>2024-08-05T08:14:33Z</time>
      </trkpt>
      <trkpt lat="47.15256" lon="5.83239">
        <ele>265.8</ele>
        <time>2024-08-05T08:14:34Z</time>
      </trkpt>
      <trkpt lat="47.15253" lon="5.83243">
        <ele>265.8</ele>
        <time>2024-08-05T08:14:35Z</time>
      </trkpt>
      <trkpt lat="47.1525" lon="5.83245">
        <ele>266</ele>
        <time>2024-08-05T08:14:36Z</time>
      </trkpt>
      <trkpt lat="47.15247" lon="5.83248">
        <ele>266</ele>
        <time>2024-08-05T08:14:37Z</time>
      </trkpt>
      <trkpt lat="47.15244" lon="5.83251">
        <ele>266.2</ele>
        <time>2024-08-05T08:14:38Z</time>
      </trkpt>
      <trkpt lat="47.15241" lon="5.83254">
        <ele>266.4</ele>
        <time>2024-08-05T08:14:39Z</time>
      </trkpt>
      <trkpt lat="47.15237" lon="5.83256">
        <ele>266.6</ele>
        <time>2024-08-05T08:14:40Z</time>
      </trkpt>
      <trkpt lat="47.15234" lon="5.83259">
        <ele>266.8</ele>
        <time>2024-08-05T08:14:41Z</time>
      </trkpt>
      <trkpt lat="47.15231" lon="5.83262">
        <ele>266.8</ele>
        <time>2024-08-05T08:14:42Z</time>
      </trkpt>
      <trkpt lat="47.15228" lon="5.83264">
        <ele>267.2</ele>
        <time>2024-08-05T08:14:43Z</time>
      </trkpt>
      <trkpt lat="47.15225" lon="5.83267">
        <ele>267.4</ele>
        <time>2024-08-05T08:14:44Z</time>
      </trkpt>
      <trkpt lat="47.15222" lon="5.8327">
        <ele>267.6</ele>
        <time>2024-08-05T08:14:45Z</time>
      </trkpt>
      <trkpt lat="47.15219" lon="5.83272">
        <ele>267.8</ele>
        <time>2024-08-05T08:14:46Z</time>
      </trkpt>
      <trkpt lat="47.15217" lon="5.83275">
        <ele>268.2</ele>
        <time>2024-08-05T08:14:47Z</time>
      </trkpt>
      <trkpt lat="47.15214" lon="5.83278">
        <ele>268.4</ele>
        <time>2024-08-05T08:14:48Z</time>
      </trkpt>
      <trkpt lat="47.15211" lon="5.83282">
        <ele>268.6</ele>
        <time>2024-08-05T08:14:49Z</time>
      </trkpt>
      <trkpt lat="47.15208" lon="5.83286">
        <ele>268.6</ele>
        <time>2024-08-05T08:14:50Z</time>
      </trkpt>
      <trkpt lat="47.15206" lon="5.83288">
        <ele>268.8</ele>
        <time>2024-08-05T08:14:51Z</time>
      </trkpt>
      <trkpt lat="47.15203" lon="5.83291">
        <ele>269.2</ele>
        <time>2024-08-05T08:14:52Z</time>
      </trkpt>
      <trkpt lat="47.15201" lon="5.83294">
        <ele>269.2</ele>
        <time>2024-08-05T08:14:53Z</time>
      </trkpt>
      <trkpt lat="47.15198" lon="5.83297">
        <ele>269.6</ele>
        <time>2024-08-05T08:14:54Z</time>
      </trkpt>
      <trkpt lat="47.15196" lon="5.83301">
        <ele>269.8</ele>
        <time>2024-08-05T08:14:55Z</time>
      </trkpt>
      <trkpt lat="47.15193" lon="5.83305">
        <ele>270</ele>
        <time>2024-08-05T08:14:56Z</time>
      </trkpt>
      <trkpt lat="47.15191" lon="5.83309">
        <ele>270</ele>
        <time>2024-08-05T08:14:57Z</time>
      </trkpt>
      <trkpt lat="47.15188" lon="5.83313">
        <ele>270.2</ele>
        <time>2024-08-05T08:14:58Z</time>
      </trkpt>
      <trkpt lat="47.15185" lon="5.83316">
        <ele>270.4</ele>
        <time>2024-08-05T08:14:59Z</time>
      </trkpt>
      <trkpt lat="47.15182" lon="5.8332">
        <ele>270.6</ele>
        <time>2024-08-05T08:15:00Z</time>
      </trkpt>
      <trkpt lat="47.15179" lon="5.83324">
        <ele>270.8</ele>
        <time>2024-08-05T08:15:01Z</time>
      </trkpt>
      <trkpt lat="47.15177" lon="5.83328">
        <ele>271</ele>
        <time>2024-08-05T08:15:02Z</time>
      </trkpt>
      <trkpt lat="47.15175" lon="5.83331">
        <ele>271.2</ele>
        <time>2024-08-05T08:15:03Z</time>
      </trkpt>
      <trkpt lat="47.15173" lon="5.83335">
        <ele>271.4</ele>
        <time>2024-08-05T08:15:04Z</time>
      </trkpt>
      <trkpt lat="47.15171" lon="5.83338">
        <ele>271.6</ele>
        <time>2024-08-05T08:15:05Z</time>
      </trkpt>
      <trkpt lat="47.15169" lon="5.83342">
        <ele>271.8</ele>
        <time>2024-08-05T08:15:06Z</time>
      </trkpt>
      <trkpt lat="47.15167" lon="5.83346">
        <ele>272</ele>
        <time>2024-08-05T08:15:07Z</time>
      </trkpt>
      <trkpt lat="47.15165" lon="5.8335">
        <ele>272.2</ele>
        <time>2024-08-05T08:15:08Z</time>
      </trkpt>
      <trkpt lat="47.15163" lon="5.83354">
        <ele>272.4</ele>
        <time>2024-08-05T08:15:09Z</time>
      </trkpt>
      <trkpt lat="47.15161" lon="5.83358">
        <ele>272.8</ele>
        <time>2024-08-05T08:15:10Z</time>
      </trkpt>
      <trkpt lat="47.1516" lon="5.83364">
        <ele>273</ele>
        <time>2024-08-05T08:15:11Z</time>
      </trkpt>
      <trkpt lat="47.15159" lon="5.83368">
        <ele>273.4</ele>
        <time>2024-08-05T08:15:12Z</time>
      </trkpt>
      <trkpt lat="47.15158" lon="5.83373">
        <ele>273.6</ele>
        <time>2024-08-05T08:15:13Z</time>
      </trkpt>
      <trkpt lat="47.15157" lon="5.83379">
        <ele>273.6</ele>
        <time>2024-08-05T08:15:14Z</time>
      </trkpt>
      <trkpt lat="47.15157" lon="5.83386">
        <ele>273.8</ele>
        <time>2024-08-05T08:15:15Z</time>
      </trkpt>
      <trkpt lat="47.15156" lon="5.83392">
        <ele>274</ele>
        <time>2024-08-05T08:15:16Z</time>
      </trkpt>
      <trkpt lat="47.15154" lon="5.83398">
        <ele>273.8</ele>
        <time>2024-08-05T08:15:17Z</time>
      </trkpt>
      <trkpt lat="47.15153" lon="5.83404">
        <ele>273.8</ele>
        <time>2024-08-05T08:15:18Z</time>
      </trkpt>
      <trkpt lat="47.15153" lon="5.8341">
        <ele>273.8</ele>
        <time>2024-08-05T08:15:19Z</time>
      </trkpt>
      <trkpt lat="47.15152" lon="5.83415">
        <ele>273.8</ele>
        <time>2024-08-05T08:15:20Z</time>
      </trkpt>
      <trkpt lat="47.15152" lon="5.83421">
        <ele>273.8</ele>
        <time>2024-08-05T08:15:21Z</time>
      </trkpt>
      <trkpt lat="47.15152" lon="5.83428">
        <ele>274</ele>
        <time>2024-08-05T08:15:22Z</time>
      </trkpt>
      <trkpt lat="47.15152" lon="5.83435">
        <ele>273.8</ele>
        <time>2024-08-05T08:15:23Z</time>
      </trkpt>
      <trkpt lat="47.15152" lon="5.83443">
        <ele>274</ele>
        <time>2024-08-05T08:15:24Z</time>
      </trkpt>
      <trkpt lat="47.15152" lon="5.8345">
        <ele>274</ele>
        <time>2024-08-05T08:15:25Z</time>
      </trkpt>
      <trkpt lat="47.15152" lon="5.83458">
        <ele>273.8</ele>
        <time>2024-08-05T08:15:26Z</time>
      </trkpt>
      <trkpt lat="47.15151" lon="5.83466">
        <ele>273.8</ele>
        <time>2024-08-05T08:15:27Z</time>
      </trkpt>
      <trkpt lat="47.15151" lon="5.83473">
        <ele>273.4</ele>
        <time>2024-08-05T08:15:28Z</time>
      </trkpt>
      <trkpt lat="47.1515" lon="5.8348">
        <ele>273.4</ele>
        <time>2024-08-05T08:15:29Z</time>
      </trkpt>
      <trkpt lat="47.15149" lon="5.83487">
        <ele>273.2</ele>
        <time>2024-08-05T08:15:30Z</time>
      </trkpt>
      <trkpt lat="47.15149" lon="5.83493">
        <ele>273</ele>
        <time>2024-08-05T08:15:31Z</time>
      </trkpt>
      <trkpt lat="47.1515" lon="5.835">
        <ele>272.4</ele>
        <time>2024-08-05T08:15:32Z</time>
      </trkpt>
      <trkpt lat="47.1515" lon="5.83507">
        <ele>272.2</ele>
        <time>2024-08-05T08:15:33Z</time>
      </trkpt>
      <trkpt lat="47.15151" lon="5.83514">
        <ele>271.8</ele>
        <time>2024-08-05T08:15:34Z</time>
      </trkpt>
      <trkpt lat="47.15153" lon="5.83522">
        <ele>271.4</ele>
        <time>2024-08-05T08:15:35Z</time>
      </trkpt>
      <trkpt lat="47.15155" lon="5.8353">
        <ele>271.2</ele>
        <time>2024-08-05T08:15:36Z</time>
      </trkpt>
      <trkpt lat="47.15157" lon="5.83538">
        <ele>270.4</ele>
        <time>2024-08-05T08:15:37Z</time>
      </trkpt>
      <trkpt lat="47.1516" lon="5.83546">
        <ele>269.8</ele>
        <time>2024-08-05T08:15:38Z</time>
      </trkpt>
      <trkpt lat="47.15163" lon="5.83553">
        <ele>269.6</ele>
        <time>2024-08-05T08:15:39Z</time>
      </trkpt>
      <trkpt lat="47.15166" lon="5.83561">
        <ele>269.6</ele>
        <time>2024-08-05T08:15:40Z</time>
      </trkpt>
      <trkpt lat="47.15169" lon="5.83568">
        <ele>269</ele>
        <time>2024-08-05T08:15:41Z</time>
      </trkpt>
      <trkpt lat="47.15172" lon="5.83575">
        <ele>268.8</ele>
        <time>2024-08-05T08:15:42Z</time>
      </trkpt>
      <trkpt lat="47.15175" lon="5.83582">
        <ele>268.4</ele>
        <time>2024-08-05T08:15:43Z</time>
      </trkpt>
      <trkpt lat="47.15178" lon="5.83589">
        <ele>268</ele>
        <time>2024-08-05T08:15:44Z</time>
      </trkpt>
      <trkpt lat="47.15181" lon="5.83597">
        <ele>268</ele>
        <time>2024-08-05T08:15:45Z</time>
      </trkpt>
      <trkpt lat="47.15185" lon="5.83605">
        <ele>267.8</ele>
        <time>2024-08-05T08:15:46Z</time>
      </trkpt>
      <trkpt lat="47.15188" lon="5.83613">
        <ele>267.6</ele>
        <time>2024-08-05T08:15:47Z</time>
      </trkpt>
      <trkpt lat="47.15191" lon="5.83621">
        <ele>267.4</ele>
        <time>2024-08-05T08:15:48Z</time>
      </trkpt>
      <trkpt lat="47.15194" lon="5.83628">
        <ele>267.4</ele>
        <time>2024-08-05T08:15:49Z</time>
      </trkpt>
      <trkpt lat="47.15197" lon="5.83636">
        <ele>267.2</ele>
        <time>2024-08-05T08:15:50Z</time>
      </trkpt>
      <trkpt lat="47.152" lon="5.83644">
        <ele>267</ele>
        <time>2024-08-05T08:15:51Z</time>
      </trkpt>
      <trkpt lat="47.15204" lon="5.83651">
        <ele>267</ele>
        <time>2024-08-05T08:15:52Z</time>
      </trkpt>
      <trkpt lat="47.15207" lon="5.83658">
        <ele>267</ele>
        <time>2024-08-05T08:15:53Z</time>
      </trkpt>
      <trkpt lat="47.1521" lon="5.83664">
        <ele>266.8</ele>
        <time>2024-08-05T08:15:54Z</time>
      </trkpt>
      <trkpt lat="47.15212" lon="5.83672">
        <ele>266.8</ele>
        <time>2024-08-05T08:15:55Z</time>
      </trkpt>
      <trkpt lat="47.15214" lon="5.83679">
        <ele>267</ele>
        <time>2024-08-05T08:15:56Z</time>
      </trkpt>
      <trkpt lat="47.15217" lon="5.83685">
        <ele>267</ele>
        <time>2024-08-05T08:15:57Z</time>
      </trkpt>
      <trkpt lat="47.15218" lon="5.83691">
        <ele>266.8</ele>
        <time>2024-08-05T08:15:58Z</time>
      </trkpt>
      <trkpt lat="47.1522" lon="5.83698">
        <ele>266.8</ele>
        <time>2024-08-05T08:15:59Z</time>
      </trkpt>
      <trkpt lat="47.15222" lon="5.83705">
        <ele>266.8</ele>
        <time>2024-08-05T08:16:00Z</time>
      </trkpt>
      <trkpt lat="47.15224" lon="5.83713">
        <ele>266.8</ele>
        <time>2024-08-05T08:16:01Z</time>
      </trkpt>
      <trkpt lat="47.15226" lon="5.83721">
        <ele>266.8</ele>
        <time>2024-08-05T08:16:02Z</time>
      </trkpt>
      <trkpt lat="47.15228" lon="5.8373">
        <ele>266.8</ele>
        <time>2024-08-05T08:16:03Z</time>
      </trkpt>
      <trkpt lat="47.1523" lon="5.83739">
        <ele>266.8</ele>
        <time>2024-08-05T08:16:04Z</time>
      </trkpt>
      <trkpt lat="47.15232" lon="5.83748">
        <ele>266.6</ele>
        <time>2024-08-05T08:16:05Z</time>
      </trkpt>
      <trkpt lat="47.15233" lon="5.83757">
        <ele>266.6</ele>
        <time>2024-08-05T08:16:06Z</time>
      </trkpt>
      <trkpt lat="47.15233" lon="5.83768">
        <ele>266.8</ele>
        <time>2024-08-05T08:16:07Z</time>
      </trkpt>
      <trkpt lat="47.15234" lon="5.83778">
        <ele>266.6</ele>
        <time>2024-08-05T08:16:08Z</time>
      </trkpt>
      <trkpt lat="47.15236" lon="5.83787">
        <ele>266.6</ele>
        <time>2024-08-05T08:16:09Z</time>
      </trkpt>
      <trkpt lat="47.15237" lon="5.83798">
        <ele>266.2</ele>
        <time>2024-08-05T08:16:10Z</time>
      </trkpt>
      <trkpt lat="47.1524" lon="5.83807">
        <ele>266.2</ele>
        <time>2024-08-05T08:16:11Z</time>
      </trkpt>
      <trkpt lat="47.15242" lon="5.83816">
        <ele>265.8</ele>
        <time>2024-08-05T08:16:12Z</time>
      </trkpt>
      <trkpt lat="47.15244" lon="5.83825">
        <ele>265.6</ele>
        <time>2024-08-05T08:16:13Z</time>
      </trkpt>
      <trkpt lat="47.15247" lon="5.83834">
        <ele>265.6</ele>
        <time>2024-08-05T08:16:14Z</time>
      </trkpt>
      <trkpt lat="47.15249" lon="5.83842">
        <ele>265.2</ele>
        <time>2024-08-05T08:16:15Z</time>
      </trkpt>
      <trkpt lat="47.15251" lon="5.8385">
        <ele>265.2</ele>
        <time>2024-08-05T08:16:16Z</time>
      </trkpt>
      <trkpt lat="47.15253" lon="5.83858">
        <ele>264.8</ele>
        <time>2024-08-05T08:16:17Z</time>
      </trkpt>
      <trkpt lat="47.15256" lon="5.83866">
        <ele>264.6</ele>
        <time>2024-08-05T08:16:18Z</time>
      </trkpt>
      <trkpt lat="47.15257" lon="5.83874">
        <ele>264.6</ele>
        <time>2024-08-05T08:16:19Z</time>
      </trkpt>
      <trkpt lat="47.15259" lon="5.83882">
        <ele>264.4</ele>
        <time>2024-08-05T08:16:20Z</time>
      </trkpt>
      <trkpt lat="47.15261" lon="5.8389">
        <ele>264.2</ele>
        <time>2024-08-05T08:16:21Z</time>
      </trkpt>
      <trkpt lat="47.15263" lon="5.83898">
        <ele>264.2</ele>
        <time>2024-08-05T08:16:22Z</time>
      </trkpt>
      <trkpt lat="47.15265" lon="5.83905">
        <ele>264</ele>
        <time>2024-08-05T08:16:23Z</time>
      </trkpt>
      <trkpt lat="47.15267" lon="5.83913">
        <ele>264</ele>
        <time>2024-08-05T08:16:24Z</time>
      </trkpt>
      <trkpt lat="47.15269" lon="5.83921">
        <ele>264</ele>
        <time>2024-08-05T08:16:25Z</time>
      </trkpt>
      <trkpt lat="47.1527" lon="5.83928">
        <ele>264</ele>
        <time>2024-08-05T08:16:26Z</time>
      </trkpt>
      <trkpt lat="47.15272" lon="5.83936">
        <ele>264</ele>
        <time>2024-08-05T08:16:27Z</time>
      </trkpt>
      <trkpt lat="47.15273" lon="5.83944">
        <ele>264</ele>
        <time>2024-08-05T08:16:28Z</time>
      </trkpt>
      <trkpt lat="47.15274" lon="5.83952">
        <ele>264</ele>
        <time>2024-08-05T08:16:29Z</time>
      </trkpt>
      <trkpt lat="47.15275" lon="5.8396">
        <ele>264</ele>
        <time>2024-08-05T08:16:30Z</time>
      </trkpt>
      <trkpt lat="47.15276" lon="5.83969">
        <ele>264</ele>
        <time>2024-08-05T08:16:31Z</time>
      </trkpt>
      <trkpt lat="47.15278" lon="5.83978">
        <ele>264</ele>
        <time>2024-08-05T08:16:32Z</time>
      </trkpt>
      <trkpt lat="47.15278" lon="5.83986">
        <ele>263.8</ele>
        <time>2024-08-05T08:16:33Z</time>
      </trkpt>
      <trkpt lat="47.15279" lon="5.83995">
        <ele>263.8</ele>
        <time>2024-08-05T08:16:34Z</time>
      </trkpt>
      <trkpt lat="47.15279" lon="5.84004">
        <ele>263.8</ele>
        <time>2024-08-05T08:16:35Z</time>
      </trkpt>
      <trkpt lat="47.1528" lon="5.84013">
        <ele>264</ele>
        <time>2024-08-05T08:16:36Z</time>
      </trkpt>
      <trkpt lat="47.1528" lon="5.84022">
        <ele>264</ele>
        <time>2024-08-05T08:16:37Z</time>
      </trkpt>
      <trkpt lat="47.15281" lon="5.84031">
        <ele>263.8</ele>
        <time>2024-08-05T08:16:38Z</time>
      </trkpt>
      <trkpt lat="47.15281" lon="5.8404">
        <ele>263.8</ele>
        <time>2024-08-05T08:16:39Z</time>
      </trkpt>
      <trkpt lat="47.15281" lon="5.84048">
        <ele>263.6</ele>
        <time>2024-08-05T08:16:40Z</time>
      </trkpt>
      <trkpt lat="47.15281" lon="5.84058">
        <ele>263.4</ele>
        <time>2024-08-05T08:16:41Z</time>
      </trkpt>
      <trkpt lat="47.15282" lon="5.84066">
        <ele>263.2</ele>
        <time>2024-08-05T08:16:42Z</time>
      </trkpt>
      <trkpt lat="47.15283" lon="5.84073">
        <ele>263.2</ele>
        <time>2024-08-05T08:16:43Z</time>
      </trkpt>
      <trkpt lat="47.15283" lon="5.84081">
        <ele>263</ele>
        <time>2024-08-05T08:16:44Z</time>
      </trkpt>
      <trkpt lat="47.15283" lon="5.84087">
        <ele>263.2</ele>
        <time>2024-08-05T08:16:45Z</time>
      </trkpt>
      <trkpt lat="47.15284" lon="5.84094">
        <ele>263.2</ele>
        <time>2024-08-05T08:16:46Z</time>
      </trkpt>
      <trkpt lat="47.15284" lon="5.84099">
        <ele>263.2</ele>
        <time>2024-08-05T08:16:47Z</time>
      </trkpt>
      <trkpt lat="47.15285" lon="5.84105">
        <ele>263</ele>
        <time>2024-08-05T08:16:48Z</time>
      </trkpt>
      <trkpt lat="47.15285" lon="5.84109">
        <ele>263</ele>
        <time>2024-08-05T08:16:49Z</time>
      </trkpt>
      <trkpt lat="47.15285" lon="5.84113">
        <ele>263</ele>
        <time>2024-08-05T08:16:50Z</time>
      </trkpt>
      <trkpt lat="47.15285" lon="5.84118">
        <ele>263</ele>
        <time>2024-08-05T08:16:51Z</time>
      </trkpt>
      <trkpt lat="47.15285" lon="5.84122">
        <ele>263.2</ele>
        <time>2024-08-05T08:16:52Z</time>
      </trkpt>
      <trkpt lat="47.15285" lon="5.84127">
        <ele>263</ele>
        <time>2024-08-05T08:16:53Z</time>
      </trkpt>
      <trkpt lat="47.15285" lon="5.84132">
        <ele>263.2</ele>
        <time>2024-08-05T08:16:54Z</time>
      </trkpt>
      <trkpt lat="47.15285" lon="5.84137">
        <ele>263</ele>
        <time>2024-08-05T08:16:55Z</time>
      </trkpt>
      <trkpt lat="47.15285" lon="5.84142">
        <ele>263.2</ele>
        <time>2024-08-05T08:16:56Z</time>
      </trkpt>
      <trkpt lat="47.15285" lon="5.84147">
        <ele>263.6</ele>
        <time>2024-08-05T08:16:57Z</time>
      </trkpt>
      <trkpt lat="47.15285" lon="5.84152">
        <ele>263.8</ele>
        <time>2024-08-05T08:16:58Z</time>
      </trkpt>
      <trkpt lat="47.15285" lon="5.84157">
        <ele>264</ele>
        <time>2024-08-05T08:16:59Z</time>
      </trkpt>
      <trkpt lat="47.15285" lon="5.84161">
        <ele>264.2</ele>
        <time>2024-08-05T08:17:00Z</time>
      </trkpt>
      <trkpt lat="47.15286" lon="5.84166">
        <ele>264.6</ele>
        <time>2024-08-05T08:17:01Z</time>
      </trkpt>
      <trkpt lat="47.15286" lon="5.84171">
        <ele>265</ele>
        <time>2024-08-05T08:17:02Z</time>
      </trkpt>
      <trkpt lat="47.15287" lon="5.84176">
        <ele>265</ele>
        <time>2024-08-05T08:17:03Z</time>
      </trkpt>
      <trkpt lat="47.15288" lon="5.84181">
        <ele>265.4</ele>
        <time>2024-08-05T08:17:04Z</time>
      </trkpt>
      <trkpt lat="47.15288" lon="5.84185">
        <ele>265.4</ele>
        <time>2024-08-05T08:17:05Z</time>
      </trkpt>
      <trkpt lat="47.15289" lon="5.84191">
        <ele>265.6</ele>
        <time>2024-08-05T08:17:06Z</time>
      </trkpt>
      <trkpt lat="47.15291" lon="5.84196">
        <ele>265.8</ele>
        <time>2024-08-05T08:17:07Z</time>
      </trkpt>
      <trkpt lat="47.15292" lon="5.84201">
        <ele>265.8</ele>
        <time>2024-08-05T08:17:08Z</time>
      </trkpt>
      <trkpt lat="47.15293" lon="5.84206">
        <ele>265.8</ele>
        <time>2024-08-05T08:17:09Z</time>
      </trkpt>
      <trkpt lat="47.15295" lon="5.8421">
        <ele>266.2</ele>
        <time>2024-08-05T08:17:10Z</time>
      </trkpt>
      <trkpt lat="47.15297" lon="5.84215">
        <ele>266.4</ele>
        <time>2024-08-05T08:17:11Z</time>
      </trkpt>
      <trkpt lat="47.15298" lon="5.8422">
        <ele>266.6</ele>
        <time>2024-08-05T08:17:12Z</time>
      </trkpt>
      <trkpt lat="47.15299" lon="5.84224">
        <ele>266.6</ele>
        <time>2024-08-05T08:17:13Z</time>
      </trkpt>
      <trkpt lat="47.15301" lon="5.84228">
        <ele>266.6</ele>
        <time>2024-08-05T08:17:14Z</time>
      </trkpt>
      <trkpt lat="47.15302" lon="5.84233">
        <ele>266.6</ele>
        <time>2024-08-05T08:17:15Z</time>
      </trkpt>
      <trkpt lat="47.15304" lon="5.84237">
        <ele>266.8</ele>
        <time>2024-08-05T08:17:16Z</time>
      </trkpt>
      <trkpt lat="47.15305" lon="5.84241">
        <ele>266.8</ele>
        <time>2024-08-05T08:17:17Z</time>
      </trkpt>
      <trkpt lat="47.15307" lon="5.84246">
        <ele>266.8</ele>
        <time>2024-08-05T08:17:18Z</time>
      </trkpt>
      <trkpt lat="47.15309" lon="5.8425">
        <ele>267</ele>
        <time>2024-08-05T08:17:19Z</time>
      </trkpt>
      <trkpt lat="47.15311" lon="5.84254">
        <ele>267.2</ele>
        <time>2024-08-05T08:17:20Z</time>
      </trkpt>
      <trkpt lat="47.15312" lon="5.84258">
        <ele>267.6</ele>
        <time>2024-08-05T08:17:21Z</time>
      </trkpt>
      <trkpt lat="47.15314" lon="5.84262">
        <ele>267.6</ele>
        <time>2024-08-05T08:17:22Z</time>
      </trkpt>
      <trkpt lat="47.15316" lon="5.84266">
        <ele>268</ele>
        <time>2024-08-05T08:17:23Z</time>
      </trkpt>
      <trkpt lat="47.15317" lon="5.8427">
        <ele>268.2</ele>
        <time>2024-08-05T08:17:24Z</time>
      </trkpt>
      <trkpt lat="47.15319" lon="5.84274">
        <ele>268.6</ele>
        <time>2024-08-05T08:17:25Z</time>
      </trkpt>
      <trkpt lat="47.15321" lon="5.84278">
        <ele>268.8</ele>
        <time>2024-08-05T08:17:26Z</time>
      </trkpt>
      <trkpt lat="47.15323" lon="5.84282">
        <ele>269.2</ele>
        <time>2024-08-05T08:17:27Z</time>
      </trkpt>
      <trkpt lat="47.15324" lon="5.84287">
        <ele>269.6</ele>
        <time>2024-08-05T08:17:28Z</time>
      </trkpt>
      <trkpt lat="47.15326" lon="5.84291">
        <ele>269.6</ele>
        <time>2024-08-05T08:17:29Z</time>
      </trkpt>
      <trkpt lat="47.15327" lon="5.84295">
        <ele>269.8</ele>
        <time>2024-08-05T08:17:30Z</time>
      </trkpt>
      <trkpt lat="47.15329" lon="5.84299">
        <ele>270.2</ele>
        <time>2024-08-05T08:17:31Z</time>
      </trkpt>
      <trkpt lat="47.15331" lon="5.84303">
        <ele>270.4</ele>
        <time>2024-08-05T08:17:32Z</time>
      </trkpt>
      <trkpt lat="47.15333" lon="5.84307">
        <ele>270.4</ele>
        <time>2024-08-05T08:17:33Z</time>
      </trkpt>
      <trkpt lat="47.15335" lon="5.84311">
        <ele>270.8</ele>
        <time>2024-08-05T08:17:34Z</time>
      </trkpt>
      <trkpt lat="47.15336" lon="5.84315">
        <ele>270.8</ele>
        <time>2024-08-05T08:17:35Z</time>
      </trkpt>
      <trkpt lat="47.15338" lon="5.84319">
        <ele>271</ele>
        <time>2024-08-05T08:17:36Z</time>
      </trkpt>
      <trkpt lat="47.1534" lon="5.84323">
        <ele>271.2</ele>
        <time>2024-08-05T08:17:37Z</time>
      </trkpt>
      <trkpt lat="47.15342" lon="5.84327">
        <ele>271.2</ele>
        <time>2024-08-05T08:17:38Z</time>
      </trkpt>
      <trkpt lat="47.15344" lon="5.84331">
        <ele>271.4</ele>
        <time>2024-08-05T08:17:39Z</time>
      </trkpt>
      <trkpt lat="47.15345" lon="5.84335">
        <ele>271.6</ele>
        <time>2024-08-05T08:17:40Z</time>
      </trkpt>
      <trkpt lat="47.15347" lon="5.84339">
        <ele>271.4</ele>
        <time>2024-08-05T08:17:41Z</time>
      </trkpt>
      <trkpt lat="47.15348" lon="5.84343">
        <ele>271.6</ele>
        <time>2024-08-05T08:17:42Z</time>
      </trkpt>
      <trkpt lat="47.15349" lon="5.84347">
        <ele>271.8</ele>
        <time>2024-08-05T08:17:43Z</time>
      </trkpt>
      <trkpt lat="47.1535" lon="5.84351">
        <ele>272.2</ele>
        <time>2024-08-05T08:17:44Z</time>
      </trkpt>
      <trkpt lat="47.15352" lon="5.84355">
        <ele>272.2</ele>
        <time>2024-08-05T08:17:45Z</time>
      </trkpt>
      <trkpt lat="47.15354" lon="5.84358">
        <ele>272.4</ele>
        <time>2024-08-05T08:17:46Z</time>
      </trkpt>
      <trkpt lat="47.15357" lon="5.84362">
        <ele>272.6</ele>
        <time>2024-08-05T08:17:47Z</time>
      </trkpt>
      <trkpt lat="47.15359" lon="5.84365">
        <ele>272.6</ele>
        <time>2024-08-05T08:17:48Z</time>
      </trkpt>
      <trkpt lat="47.15361" lon="5.84367">
        <ele>272.8</ele>
        <time>2024-08-05T08:17:49Z</time>
      </trkpt>
      <trkpt lat="47.15362" lon="5.84369">
        <ele>272.8</ele>
        <time>2024-08-05T08:17:50Z</time>
      </trkpt>
      <trkpt lat="47.15364" lon="5.8437">
        <ele>272.8</ele>
        <time>2024-08-05T08:17:51Z</time>
      </trkpt>
      <trkpt lat="47.15365" lon="5.84371">
        <ele>273</ele>
        <time>2024-08-05T08:17:52Z</time>
      </trkpt>
      <trkpt lat="47.15365" lon="5.84371">
        <ele>273.2</ele>
        <time>2024-08-05T08:17:53Z</time>
      </trkpt>
      <trkpt lat="47.15366" lon="5.84372">
        <ele>273.2</ele>
        <time>2024-08-05T08:17:54Z</time>
      </trkpt>
      <trkpt lat="47.15366" lon="5.84373">
        <ele>273.4</ele>
        <time>2024-08-05T08:17:55Z</time>
      </trkpt>
      <trkpt lat="47.15367" lon="5.84375">
        <ele>273.6</ele>
        <time>2024-08-05T08:17:56Z</time>
      </trkpt>
      <trkpt lat="47.15367" lon="5.84377">
        <ele>273.6</ele>
        <time>2024-08-05T08:17:57Z</time>
      </trkpt>
      <trkpt lat="47.15368" lon="5.8438">
        <ele>273.6</ele>
        <time>2024-08-05T08:17:58Z</time>
      </trkpt>
      <trkpt lat="47.15369" lon="5.84384">
        <ele>273.8</ele>
        <time>2024-08-05T08:17:59Z</time>
      </trkpt>
      <trkpt lat="47.1537" lon="5.84387">
        <ele>274</ele>
        <time>2024-08-05T08:18:00Z</time>
      </trkpt>
      <trkpt lat="47.15372" lon="5.84391">
        <ele>273.8</ele>
        <time>2024-08-05T08:18:01Z</time>
      </trkpt>
      <trkpt lat="47.15374" lon="5.84395">
        <ele>273.8</ele>
        <time>2024-08-05T08:18:02Z</time>
      </trkpt>
      <trkpt lat="47.15375" lon="5.84399">
        <ele>273.8</ele>
        <time>2024-08-05T08:18:03Z</time>
      </trkpt>
      <trkpt lat="47.15377" lon="5.84404">
        <ele>273.8</ele>
        <time>2024-08-05T08:18:04Z</time>
      </trkpt>
      <trkpt lat="47.15378" lon="5.84409">
        <ele>273.8</ele>
        <time>2024-08-05T08:18:05Z</time>
      </trkpt>
      <trkpt lat="47.1538" lon="5.84414">
        <ele>273.8</ele>
        <time>2024-08-05T08:18:06Z</time>
      </trkpt>
      <trkpt lat="47.15382" lon="5.84419">
        <ele>274</ele>
        <time>2024-08-05T08:18:07Z</time>
      </trkpt>
      <trkpt lat="47.15384" lon="5.84423">
        <ele>274</ele>
        <time>2024-08-05T08:18:08Z</time>
      </trkpt>
      <trkpt lat="47.15387" lon="5.84428">
        <ele>273.8</ele>
        <time>2024-08-05T08:18:09Z</time>
      </trkpt>
      <trkpt lat="47.15389" lon="5.84433">
        <ele>274</ele>
        <time>2024-08-05T08:18:10Z</time>
      </trkpt>
      <trkpt lat="47.15392" lon="5.84438">
        <ele>273.8</ele>
        <time>2024-08-05T08:18:11Z</time>
      </trkpt>
      <trkpt lat="47.15395" lon="5.84442">
        <ele>273.8</ele>
        <time>2024-08-05T08:18:12Z</time>
      </trkpt>
      <trkpt lat="47.15398" lon="5.84448">
        <ele>273.8</ele>
        <time>2024-08-05T08:18:13Z</time>
      </trkpt>
      <trkpt lat="47.154" lon="5.84453">
        <ele>273.6</ele>
        <time>2024-08-05T08:18:14Z</time>
      </trkpt>
      <trkpt lat="47.15402" lon="5.84458">
        <ele>273.8</ele>
        <time>2024-08-05T08:18:15Z</time>
      </trkpt>
      <trkpt lat="47.15402" lon="5.84461">
        <ele>273.4</ele>
        <time>2024-08-05T08:18:16Z</time>
      </trkpt>
      <trkpt lat="47.15401" lon="5.84465">
        <ele>273.4</ele>
        <time>2024-08-05T08:18:17Z</time>
      </trkpt>
      <trkpt lat="47.154" lon="5.84469">
        <ele>273</ele>
        <time>2024-08-05T08:18:18Z</time>
      </trkpt>
      <trkpt lat="47.15398" lon="5.84474">
        <ele>272.8</ele>
        <time>2024-08-05T08:18:19Z</time>
      </trkpt>
      <trkpt lat="47.15397" lon="5.84479">
        <ele>272.4</ele>
        <time>2024-08-05T08:18:20Z</time>
      </trkpt>
      <trkpt lat="47.15395" lon="5.84485">
        <ele>272</ele>
        <time>2024-08-05T08:18:21Z</time>
      </trkpt>
      <trkpt lat="47.15394" lon="5.8449">
        <ele>271.6</ele>
        <time>2024-08-05T08:18:22Z</time>
      </trkpt>
      <trkpt lat="47.15392" lon="5.84498">
        <ele>271.2</ele>
        <time>2024-08-05T08:18:23Z</time>
      </trkpt>
      <trkpt lat="47.15391" lon="5.84504">
        <ele>270.6</ele>
        <time>2024-08-05T08:18:24Z</time>
      </trkpt>
      <trkpt lat="47.1539" lon="5.84511">
        <ele>270.2</ele>
        <time>2024-08-05T08:18:25Z</time>
      </trkpt>
      <trkpt lat="47.15389" lon="5.84517">
        <ele>270</ele>
        <time>2024-08-05T08:18:26Z</time>
      </trkpt>
      <trkpt lat="47.15386" lon="5.84524">
        <ele>269.2</ele>
        <time>2024-08-05T08:18:27Z</time>
      </trkpt>
      <trkpt lat="47.15384" lon="5.84531">
        <ele>268.8</ele>
        <time>2024-08-05T08:18:28Z</time>
      </trkpt>
      <trkpt lat="47.15383" lon="5.84541">
        <ele>268.2</ele>
        <time>2024-08-05T08:18:29Z</time>
      </trkpt>
      <trkpt lat="47.15382" lon="5.84549">
        <ele>267.8</ele>
        <time>2024-08-05T08:18:30Z</time>
      </trkpt>
      <trkpt lat="47.15382" lon="5.84557">
        <ele>267.2</ele>
        <time>2024-08-05T08:18:31Z</time>
      </trkpt>
      <trkpt lat="47.15382" lon="5.84563">
        <ele>266.4</ele>
        <time>2024-08-05T08:18:32Z</time>
      </trkpt>
      <trkpt lat="47.15382" lon="5.84568">
        <ele>265.8</ele>
        <time>2024-08-05T08:18:33Z</time>
      </trkpt>
      <trkpt lat="47.15382" lon="5.84572">
        <ele>265.2</ele>
        <time>2024-08-05T08:18:34Z</time>
      </trkpt>
      <trkpt lat="47.15381" lon="5.84575">
        <ele>265.2</ele>
        <time>2024-08-05T08:18:35Z</time>
      </trkpt>
      <trkpt lat="47.15381" lon="5.84577">
        <ele>264.6</ele>
        <time>2024-08-05T08:18:36Z</time>
      </trkpt>
      <trkpt lat="47.15381" lon="5.84578">
        <ele>264</ele>
        <time>2024-08-05T08:18:37Z</time>
      </trkpt>
      <trkpt lat="47.15381" lon="5.84579">
        <ele>263.2</ele>
        <time>2024-08-05T08:18:38Z</time>
      </trkpt>
      <trkpt lat="47.15381" lon="5.8458">
        <ele>262.8</ele>
        <time>2024-08-05T08:18:39Z</time>
      </trkpt>
      <trkpt lat="47.15381" lon="5.8458">
        <ele>261.6</ele>
        <time>2024-08-05T08:18:40Z</time>
      </trkpt>
      <trkpt lat="47.1538" lon="5.84581">
        <ele>261</ele>
        <time>2024-08-05T08:18:41Z</time>
      </trkpt>
      <trkpt lat="47.1538" lon="5.84582">
        <ele>260.6</ele>
        <time>2024-08-05T08:18:42Z</time>
      </trkpt>
      <trkpt lat="47.1538" lon="5.84583">
        <ele>260</ele>
        <time>2024-08-05T08:18:43Z</time>
      </trkpt>
      <trkpt lat="47.15379" lon="5.84585">
        <ele>259.6</ele>
        <time>2024-08-05T08:18:44Z</time>
      </trkpt>
      <trkpt lat="47.15379" lon="5.84587">
        <ele>259.4</ele>
        <time>2024-08-05T08:18:45Z</time>
      </trkpt>
      <trkpt lat="47.15379" lon="5.84589">
        <ele>259</ele>
        <time>2024-08-05T08:18:46Z</time>
      </trkpt>
      <trkpt lat="47.1538" lon="5.84592">
        <ele>259</ele>
        <time>2024-08-05T08:18:47Z</time>
      </trkpt>
      <trkpt lat="47.1538" lon="5.84596">
        <ele>258.8</ele>
        <time>2024-08-05T08:18:48Z</time>
      </trkpt>
      <trkpt lat="47.1538" lon="5.846">
        <ele>258.8</ele>
        <time>2024-08-05T08:18:49Z</time>
      </trkpt>
      <trkpt lat="47.1538" lon="5.84606">
        <ele>258.8</ele>
        <time>2024-08-05T08:18:50Z</time>
      </trkpt>
      <trkpt lat="47.15381" lon="5.84613">
        <ele>258.6</ele>
        <time>2024-08-05T08:18:51Z</time>
      </trkpt>
      <trkpt lat="47.15382" lon="5.84621">
        <ele>258.6</ele>
        <time>2024-08-05T08:18:52Z</time>
      </trkpt>
      <trkpt lat="47.15384" lon="5.84629">
        <ele>258.6</ele>
        <time>2024-08-05T08:18:53Z</time>
      </trkpt>
      <trkpt lat="47.15386" lon="5.84637">
        <ele>258.4</ele>
        <time>2024-08-05T08:18:54Z</time>
      </trkpt>
      <trkpt lat="47.15387" lon="5.84645">
        <ele>257.8</ele>
        <time>2024-08-05T08:18:55Z</time>
      </trkpt>
      <trkpt lat="47.15389" lon="5.84652">
        <ele>257.6</ele>
        <time>2024-08-05T08:18:56Z</time>
      </trkpt>
      <trkpt lat="47.1539" lon="5.8466">
        <ele>257.6</ele>
        <time>2024-08-05T08:18:57Z</time>
      </trkpt>
      <trkpt lat="47.15392" lon="5.84667">
        <ele>257</ele>
        <time>2024-08-05T08:18:58Z</time>
      </trkpt>
      <trkpt lat="47.15394" lon="5.84676">
        <ele>256.4</ele>
        <time>2024-08-05T08:18:59Z</time>
      </trkpt>
      <trkpt lat="47.15396" lon="5.84682">
        <ele>256</ele>
        <time>2024-08-05T08:19:00Z</time>
      </trkpt>
      <trkpt lat="47.15397" lon="5.84689">
        <ele>255.6</ele>
        <time>2024-08-05T08:19:01Z</time>
      </trkpt>
      <trkpt lat="47.15399" lon="5.84696">
        <ele>255.2</ele>
        <time>2024-08-05T08:19:02Z</time>
      </trkpt>
      <trkpt lat="47.154" lon="5.84704">
        <ele>255.2</ele>
        <time>2024-08-05T08:19:03Z</time>
      </trkpt>
      <trkpt lat="47.15402" lon="5.84709">
        <ele>254.6</ele>
        <time>2024-08-05T08:19:04Z</time>
      </trkpt>
      <trkpt lat="47.15403" lon="5.84717">
        <ele>254.2</ele>
        <time>2024-08-05T08:19:05Z</time>
      </trkpt>
      <trkpt lat="47.15405" lon="5.84722">
        <ele>253.8</ele>
        <time>2024-08-05T08:19:06Z</time>
      </trkpt>
      <trkpt lat="47.15406" lon="5.8473">
        <ele>253.2</ele>
        <time>2024-08-05T08:19:07Z</time>
      </trkpt>
      <trkpt lat="47.15407" lon="5.84737">
        <ele>252.6</ele>
        <time>2024-08-05T08:19:08Z</time>
      </trkpt>
      <trkpt lat="47.15408" lon="5.84742">
        <ele>252.2</ele>
        <time>2024-08-05T08:19:09Z</time>
      </trkpt>
      <trkpt lat="47.15408" lon="5.84746">
        <ele>251.6</ele>
        <time>2024-08-05T08:19:10Z</time>
      </trkpt>
      <trkpt lat="47.15408" lon="5.84756">
        <ele>251</ele>
        <time>2024-08-05T08:19:11Z</time>
      </trkpt>
      <trkpt lat="47.15409" lon="5.84761">
        <ele>250.8</ele>
        <time>2024-08-05T08:19:12Z</time>
      </trkpt>
      <trkpt lat="47.15409" lon="5.84768">
        <ele>250.4</ele>
        <time>2024-08-05T08:19:13Z</time>
      </trkpt>
      <trkpt lat="47.15408" lon="5.84771">
        <ele>249.8</ele>
        <time>2024-08-05T08:19:14Z</time>
      </trkpt>
      <trkpt lat="47.15407" lon="5.84775">
        <ele>249.4</ele>
        <time>2024-08-05T08:19:15Z</time>
      </trkpt>
      <trkpt lat="47.15406" lon="5.84778">
        <ele>248.8</ele>
        <time>2024-08-05T08:19:16Z</time>
      </trkpt>
      <trkpt lat="47.15405" lon="5.8478">
        <ele>248.2</ele>
        <time>2024-08-05T08:19:17Z</time>
      </trkpt>
      <trkpt lat="47.15403" lon="5.84781">
        <ele>247.4</ele>
        <time>2024-08-05T08:19:18Z</time>
      </trkpt>
      <trkpt lat="47.15402" lon="5.84783">
        <ele>247.4</ele>
        <time>2024-08-05T08:19:19Z</time>
      </trkpt>
      <trkpt lat="47.15401" lon="5.84783">
        <ele>247</ele>
        <time>2024-08-05T08:19:20Z</time>
      </trkpt>
      <trkpt lat="47.154" lon="5.84785">
        <ele>246.8</ele>
        <time>2024-08-05T08:19:21Z</time>
      </trkpt>
      <trkpt lat="47.15399" lon="5.84786">
        <ele>246.8</ele>
        <time>2024-08-05T08:19:22Z</time>
      </trkpt>
      <trkpt lat="47.15398" lon="5.84787">
        <ele>246.6</ele>
        <time>2024-08-05T08:19:23Z</time>
      </trkpt>
      <trkpt lat="47.15397" lon="5.84788">
        <ele>246.8</ele>
        <time>2024-08-05T08:19:24Z</time>
      </trkpt>
      <trkpt lat="47.15396" lon="5.84789">
        <ele>246.6</ele>
        <time>2024-08-05T08:19:25Z</time>
      </trkpt>
      <trkpt lat="47.15396" lon="5.84791">
        <ele>246.6</ele>
        <time>2024-08-05T08:19:26Z</time>
      </trkpt>
      <trkpt lat="47.15395" lon="5.84792">
        <ele>246.6</ele>
        <time>2024-08-05T08:19:27Z</time>
      </trkpt>
      <trkpt lat="47.15394" lon="5.84794">
        <ele>246.6</ele>
        <time>2024-08-05T08:19:28Z</time>
      </trkpt>
      <trkpt lat="47.15392" lon="5.84795">
        <ele>246.6</ele>
        <time>2024-08-05T08:19:29Z</time>
      </trkpt>
      <trkpt lat="47.15391" lon="5.84797">
        <ele>246.8</ele>
        <time>2024-08-05T08:19:30Z</time>
      </trkpt>
      <trkpt lat="47.1539" lon="5.84798">
        <ele>247</ele>
        <time>2024-08-05T08:19:31Z</time>
      </trkpt>
      <trkpt lat="47.15389" lon="5.84799">
        <ele>247.2</ele>
        <time>2024-08-05T08:19:32Z</time>
      </trkpt>
      <trkpt lat="47.15388" lon="5.84801">
        <ele>247.8</ele>
        <time>2024-08-05T08:19:33Z</time>
      </trkpt>
      <trkpt lat="47.15386" lon="5.84802">
        <ele>248</ele>
        <time>2024-08-05T08:19:34Z</time>
      </trkpt>
      <trkpt lat="47.15385" lon="5.84804">
        <ele>248.2</ele>
        <time>2024-08-05T08:19:35Z</time>
      </trkpt>
      <trkpt lat="47.15384" lon="5.84805">
        <ele>248.4</ele>
        <time>2024-08-05T08:19:36Z</time>
      </trkpt>
      <trkpt lat="47.15382" lon="5.84806">
        <ele>248.6</ele>
        <time>2024-08-05T08:19:37Z</time>
      </trkpt>
      <trkpt lat="47.15381" lon="5.84807">
        <ele>248.8</ele>
        <time>2024-08-05T08:19:38Z</time>
      </trkpt>
      <trkpt lat="47.15378" lon="5.84807">
        <ele>249.4</ele>
        <time>2024-08-05T08:19:39Z</time>
      </trkpt>
      <trkpt lat="47.15377" lon="5.84808">
        <ele>249.4</ele>
        <time>2024-08-05T08:19:40Z</time>
      </trkpt>
      <trkpt lat="47.15375" lon="5.8481">
        <ele>249.6</ele>
        <time>2024-08-05T08:19:41Z</time>
      </trkpt>
      <trkpt lat="47.15374" lon="5.84811">
        <ele>249.8</ele>
        <time>2024-08-05T08:19:42Z</time>
      </trkpt>
      <trkpt lat="47.15372" lon="5.84811">
        <ele>250.4</ele>
        <time>2024-08-05T08:19:43Z</time>
      </trkpt>
      <trkpt lat="47.1537" lon="5.84812">
        <ele>250.6</ele>
        <time>2024-08-05T08:19:44Z</time>
      </trkpt>
      <trkpt lat="47.15369" lon="5.84813">
        <ele>251</ele>
        <time>2024-08-05T08:19:45Z</time>
      </trkpt>
      <trkpt lat="47.15368" lon="5.84814">
        <ele>251.4</ele>
        <time>2024-08-05T08:19:46Z</time>
      </trkpt>
      <trkpt lat="47.15367" lon="5.84815">
        <ele>251.6</ele>
        <time>2024-08-05T08:19:47Z</time>
      </trkpt>
      <trkpt lat="47.15365" lon="5.84815">
        <ele>252</ele>
        <time>2024-08-05T08:19:48Z</time>
      </trkpt>
      <trkpt lat="47.15364" lon="5.84815">
        <ele>252.2</ele>
        <time>2024-08-05T08:19:49Z</time>
      </trkpt>
      <trkpt lat="47.15363" lon="5.84816">
        <ele>252.4</ele>
        <time>2024-08-05T08:19:50Z</time>
      </trkpt>
      <trkpt lat="47.15362" lon="5.84817">
        <ele>252.6</ele>
        <time>2024-08-05T08:19:51Z</time>
      </trkpt>
      <trkpt lat="47.15361" lon="5.84818">
        <ele>252.8</ele>
        <time>2024-08-05T08:19:52Z</time>
      </trkpt>
      <trkpt lat="47.1536" lon="5.84819">
        <ele>253.2</ele>
        <time>2024-08-05T08:19:53Z</time>
      </trkpt>
      <trkpt lat="47.15359" lon="5.84819">
        <ele>253.4</ele>
        <time>2024-08-05T08:19:54Z</time>
      </trkpt>
      <trkpt lat="47.15358" lon="5.8482">
        <ele>253.6</ele>
        <time>2024-08-05T08:19:55Z</time>
      </trkpt>
      <trkpt lat="47.15357" lon="5.8482">
        <ele>254</ele>
        <time>2024-08-05T08:19:56Z</time>
      </trkpt>
      <trkpt lat="47.15356" lon="5.84821">
        <ele>254.4</ele>
        <time>2024-08-05T08:19:57Z</time>
      </trkpt>
      <trkpt lat="47.15355" lon="5.84822">
        <ele>254.6</ele>
        <time>2024-08-05T08:19:58Z</time>
      </trkpt>
      <trkpt lat="47.15353" lon="5.84822">
        <ele>254.8</ele>
        <time>2024-08-05T08:19:59Z</time>
      </trkpt>
      <trkpt lat="47.15352" lon="5.84822">
        <ele>255.2</ele>
        <time>2024-08-05T08:20:00Z</time>
      </trkpt>
      <trkpt lat="47.15351" lon="5.84822">
        <ele>255.6</ele>
        <time>2024-08-05T08:20:01Z</time>
      </trkpt>
      <trkpt lat="47.15349" lon="5.8482">
        <ele>255.6</ele>
        <time>2024-08-05T08:20:02Z</time>
      </trkpt>
      <trkpt lat="47.15348" lon="5.84819">
        <ele>255.8</ele>
        <time>2024-08-05T08:20:03Z</time>
      </trkpt>
      <trkpt lat="47.15347" lon="5.84818">
        <ele>256</ele>
        <time>2024-08-05T08:20:04Z</time>
      </trkpt>
      <trkpt lat="47.15346" lon="5.84817">
        <ele>256.2</ele>
        <time>2024-08-05T08:20:05Z</time>
      </trkpt>
      <trkpt lat="47.15346" lon="5.84816">
        <ele>256.6</ele>
        <time>2024-08-05T08:20:06Z</time>
      </trkpt>
      <trkpt lat="47.15345" lon="5.84814">
        <ele>256.8</ele>
        <time>2024-08-05T08:20:07Z</time>
      </trkpt>
      <trkpt lat="47.15345" lon="5.84813">
        <ele>257.2</ele>
        <time>2024-08-05T08:20:08Z</time>
      </trkpt>
      <trkpt lat="47.15344" lon="5.84811">
        <ele>257.4</ele>
        <time>2024-08-05T08:20:09Z</time>
      </trkpt>
      <trkpt lat="47.15343" lon="5.8481">
        <ele>258</ele>
        <time>2024-08-05T08:20:10Z</time>
      </trkpt>
      <trkpt lat="47.15343" lon="5.84808">
        <ele>258.2</ele>
        <time>2024-08-05T08:20:11Z</time>
      </trkpt>
      <trkpt lat="47.15343" lon="5.84807">
        <ele>258.2</ele>
        <time>2024-08-05T08:20:12Z</time>
      </trkpt>
      <trkpt lat="47.15343" lon="5.84807">
        <ele>258.4</ele>
        <time>2024-08-05T08:20:13Z</time>
      </trkpt>
      <trkpt lat="47.15343" lon="5.84807">
        <ele>258.8</ele>
        <time>2024-08-05T08:20:14Z</time>
      </trkpt>
      <trkpt lat="47.15343" lon="5.84807">
        <ele>258.8</ele>
        <time>2024-08-05T08:20:15Z</time>
      </trkpt>
      <trkpt lat="47.15343" lon="5.84807">
        <ele>259.2</ele>
        <time>2024-08-05T08:20:16Z</time>
      </trkpt>
      <trkpt lat="47.15343" lon="5.84807">
        <ele>259.6</ele>
        <time>2024-08-05T08:20:17Z</time>
      </trkpt>
      <trkpt lat="47.15343" lon="5.84806">
        <ele>259.8</ele>
        <time>2024-08-05T08:20:18Z</time>
      </trkpt>
      <trkpt lat="47.15342" lon="5.84806">
        <ele>260</ele>
        <time>2024-08-05T08:20:19Z</time>
      </trkpt>
      <trkpt lat="47.15342" lon="5.84805">
        <ele>260.2</ele>
        <time>2024-08-05T08:20:20Z</time>
      </trkpt>
      <trkpt lat="47.15341" lon="5.84804">
        <ele>260.2</ele>
        <time>2024-08-05T08:20:21Z</time>
      </trkpt>
      <trkpt lat="47.15341" lon="5.84803">
        <ele>260.4</ele>
        <time>2024-08-05T08:20:22Z</time>
      </trkpt>
      <trkpt lat="47.1534" lon="5.84802">
        <ele>260.4</ele>
        <time>2024-08-05T08:20:23Z</time>
      </trkpt>
      <trkpt lat="47.1534" lon="5.84801">
        <ele>260.4</ele>
        <time>2024-08-05T08:20:24Z</time>
      </trkpt>
      <trkpt lat="47.15339" lon="5.848">
        <ele>260.6</ele>
        <time>2024-08-05T08:20:25Z</time>
      </trkpt>
      <trkpt lat="47.15339" lon="5.848">
        <ele>260.6</ele>
        <time>2024-08-05T08:20:26Z</time>
      </trkpt>
      <trkpt lat="47.15338" lon="5.84799">
        <ele>260.6</ele>
        <time>2024-08-05T08:20:27Z</time>
      </trkpt>
      <trkpt lat="47.15338" lon="5.84798">
        <ele>260.8</ele>
        <time>2024-08-05T08:20:28Z</time>
      </trkpt>
      <trkpt lat="47.15338" lon="5.84797">
        <ele>260.6</ele>
        <time>2024-08-05T08:20:29Z</time>
      </trkpt>
      <trkpt lat="47.15338" lon="5.84797">
        <ele>261</ele>
        <time>2024-08-05T08:20:30Z</time>
      </trkpt>
      <trkpt lat="47.15337" lon="5.84796">
        <ele>261</ele>
        <time>2024-08-05T08:20:31Z</time>
      </trkpt>
      <trkpt lat="47.15337" lon="5.84796">
        <ele>261.2</ele>
        <time>2024-08-05T08:20:32Z</time>
      </trkpt>
      <trkpt lat="47.15337" lon="5.84796">
        <ele>261.4</ele>
        <time>2024-08-05T08:20:33Z</time>
      </trkpt>
      <trkpt lat="47.15337" lon="5.84795">
        <ele>261.6</ele>
        <time>2024-08-05T08:20:34Z</time>
      </trkpt>
      <trkpt lat="47.15337" lon="5.84795">
        <ele>261.8</ele>
        <time>2024-08-05T08:20:35Z</time>
      </trkpt>
      <trkpt lat="47.15337" lon="5.84794">
        <ele>262</ele>
        <time>2024-08-05T08:20:36Z</time>
      </trkpt>
      <trkpt lat="47.15337" lon="5.84793">
        <ele>262</ele>
        <time>2024-08-05T08:20:37Z</time>
      </trkpt>
      <trkpt lat="47.15336" lon="5.84793">
        <ele>262.2</ele>
        <time>2024-08-05T08:20:38Z</time>
      </trkpt>
      <trkpt lat="47.15336" lon="5.84792">
        <ele>262.4</ele>
        <time>2024-08-05T08:20:39Z</time>
      </trkpt>
      <trkpt lat="47.15335" lon="5.84791">
        <ele>262.4</ele>
        <time>2024-08-05T08:20:40Z</time>
      </trkpt>
      <trkpt lat="47.15335" lon="5.8479">
        <ele>262.6</ele>
        <time>2024-08-05T08:20:41Z</time>
      </trkpt>
      <trkpt lat="47.15334" lon="5.84789">
        <ele>262.4</ele>
        <time>2024-08-05T08:20:42Z</time>
      </trkpt>
      <trkpt lat="47.15334" lon="5.84789">
        <ele>262.6</ele>
        <time>2024-08-05T08:20:43Z</time>
      </trkpt>
      <trkpt lat="47.15333" lon="5.84788">
        <ele>262.6</ele>
        <time>2024-08-05T08:20:44Z</time>
      </trkpt>
      <trkpt lat="47.15333" lon="5.84787">
        <ele>262.6</ele>
        <time>2024-08-05T08:20:45Z</time>
      </trkpt>
      <trkpt lat="47.15333" lon="5.84787">
        <ele>262.8</ele>
        <time>2024-08-05T08:20:46Z</time>
      </trkpt>
      <trkpt lat="47.15332" lon="5.84786">
        <ele>263</ele>
        <time>2024-08-05T08:20:47Z</time>
      </trkpt>
      <trkpt lat="47.15332" lon="5.84785">
        <ele>263.2</ele>
        <time>2024-08-05T08:20:48Z</time>
      </trkpt>
      <trkpt lat="47.15332" lon="5.84784">
        <ele>263.4</ele>
        <time>2024-08-05T08:20:49Z</time>
      </trkpt>
      <trkpt lat="47.15332" lon="5.84783">
        <ele>263.4</ele>
        <time>2024-08-05T08:20:50Z</time>
      </trkpt>
      <trkpt lat="47.15331" lon="5.84782">
        <ele>263.4</ele>
        <time>2024-08-05T08:20:51Z</time>
      </trkpt>
      <trkpt lat="47.15331" lon="5.84781">
        <ele>263.6</ele>
        <time>2024-08-05T08:20:52Z</time>
      </trkpt>
      <trkpt lat="47.15331" lon="5.84781">
        <ele>263.8</ele>
        <time>2024-08-05T08:20:53Z</time>
      </trkpt>
      <trkpt lat="47.15331" lon="5.8478">
        <ele>264.2</ele>
        <time>2024-08-05T08:20:54Z</time>
      </trkpt>
      <trkpt lat="47.1533" lon="5.84779">
        <ele>264.2</ele>
        <time>2024-08-05T08:20:55Z</time>
      </trkpt>
      <trkpt lat="47.1533" lon="5.84778">
        <ele>264.4</ele>
        <time>2024-08-05T08:20:56Z</time>
      </trkpt>
      <trkpt lat="47.1533" lon="5.84777">
        <ele>264.6</ele>
        <time>2024-08-05T08:20:57Z</time>
      </trkpt>
      <trkpt lat="47.15329" lon="5.84776">
        <ele>264.8</ele>
        <time>2024-08-05T08:20:58Z</time>
      </trkpt>
      <trkpt lat="47.15328" lon="5.84776">
        <ele>264.8</ele>
        <time>2024-08-05T08:20:59Z</time>
      </trkpt>
      <trkpt lat="47.15328" lon="5.84775">
        <ele>265.2</ele>
        <time>2024-08-05T08:21:00Z</time>
      </trkpt>
      <trkpt lat="47.15328" lon="5.84775">
        <ele>265.2</ele>
        <time>2024-08-05T08:21:01Z</time>
      </trkpt>
      <trkpt lat="47.15328" lon="5.84774">
        <ele>265.2</ele>
        <time>2024-08-05T08:21:02Z</time>
      </trkpt>
      <trkpt lat="47.15327" lon="5.84774">
        <ele>265.4</ele>
        <time>2024-08-05T08:21:03Z</time>
      </trkpt>
      <trkpt lat="47.15327" lon="5.84773">
        <ele>265.6</ele>
        <time>2024-08-05T08:21:04Z</time>
      </trkpt>
      <trkpt lat="47.15327" lon="5.84772">
        <ele>265.6</ele>
        <time>2024-08-05T08:21:05Z</time>
      </trkpt>
      <trkpt lat="47.15326" lon="5.84772">
        <ele>265.8</ele>
        <time>2024-08-05T08:21:06Z</time>
      </trkpt>
      <trkpt lat="47.15326" lon="5.84771">
        <ele>265.8</ele>
        <time>2024-08-05T08:21:07Z</time>
      </trkpt>
      <trkpt lat="47.15326" lon="5.84771">
        <ele>265.8</ele>
        <time>2024-08-05T08:21:08Z</time>
      </trkpt>
      <trkpt lat="47.15325" lon="5.8477">
        <ele>266</ele>
        <time>2024-08-05T08:21:09Z</time>
      </trkpt>
      <trkpt lat="47.15325" lon="5.8477">
        <ele>266.4</ele>
        <time>2024-08-05T08:21:10Z</time>
      </trkpt>
      <trkpt lat="47.15324" lon="5.84769">
        <ele>266.4</ele>
        <time>2024-08-05T08:21:11Z</time>
      </trkpt>
      <trkpt lat="47.15324" lon="5.84769">
        <ele>266.4</ele>
        <time>2024-08-05T08:21:12Z</time>
      </trkpt>
      <trkpt lat="47.15324" lon="5.84769">
        <ele>266.8</ele>
        <time>2024-08-05T08:21:13Z</time>
      </trkpt>
      <trkpt lat="47.15324" lon="5.84769">
        <ele>267</ele>
        <time>2024-08-05T08:21:14Z</time>
      </trkpt>
      <trkpt lat="47.15324" lon="5.84769">
        <ele>267</ele>
        <time>2024-08-05T08:21:15Z</time>
      </trkpt>
      <trkpt lat="47.15324" lon="5.84769">
        <ele>267.2</ele>
        <time>2024-08-05T08:21:16Z</time>
      </trkpt>
      <trkpt lat="47.15324" lon="5.84769">
        <ele>267.4</ele>
        <time>2024-08-05T08:21:17Z</time>
      </trkpt>
      <trkpt lat="47.15324" lon="5.84769">
        <ele>267.6</ele>
        <time>2024-08-05T08:21:18Z</time>
      </trkpt>
      <trkpt lat="47.15324" lon="5.84769">
        <ele>267.6</ele>
        <time>2024-08-05T08:21:19Z</time>
      </trkpt>
      <trkpt lat="47.15323" lon="5.84769">
        <ele>267.6</ele>
        <time>2024-08-05T08:21:20Z</time>
      </trkpt>
      <trkpt lat="47.15323" lon="5.84769">
        <ele>267.8</ele>
        <time>2024-08-05T08:21:21Z</time>
      </trkpt>
      <trkpt lat="47.15323" lon="5.84768">
        <ele>267.6</ele>
        <time>2024-08-05T08:21:22Z</time>
      </trkpt>
      <trkpt lat="47.15323" lon="5.84767">
        <ele>267.8</ele>
        <time>2024-08-05T08:21:23Z</time>
      </trkpt>
      <trkpt lat="47.15322" lon="5.84766">
        <ele>267.8</ele>
        <time>2024-08-05T08:21:24Z</time>
      </trkpt>
      <trkpt lat="47.15322" lon="5.84765">
        <ele>267.8</ele>
        <time>2024-08-05T08:21:25Z</time>
      </trkpt>
      <trkpt lat="47.15321" lon="5.84764">
        <ele>267.8</ele>
        <time>2024-08-05T08:21:26Z</time>
      </trkpt>
      <trkpt lat="47.15321" lon="5.84762">
        <ele>267.8</ele>
        <time>2024-08-05T08:21:27Z</time>
      </trkpt>
      <trkpt lat="47.1532" lon="5.84761">
        <ele>268</ele>
        <time>2024-08-05T08:21:28Z</time>
      </trkpt>
      <trkpt lat="47.15319" lon="5.84759">
        <ele>267.8</ele>
        <time>2024-08-05T08:21:29Z</time>
      </trkpt>
      <trkpt lat="47.15319" lon="5.84757">
        <ele>268</ele>
        <time>2024-08-05T08:21:30Z</time>
      </trkpt>
      <trkpt lat="47.15318" lon="5.84756">
        <ele>268</ele>
        <time>2024-08-05T08:21:31Z</time>
      </trkpt>
      <trkpt lat="47.15317" lon="5.84754">
        <ele>268.2</ele>
        <time>2024-08-05T08:21:32Z</time>
      </trkpt>
      <trkpt lat="47.15317" lon="5.84752">
        <ele>268.4</ele>
        <time>2024-08-05T08:21:33Z</time>
      </trkpt>
      <trkpt lat="47.15316" lon="5.8475">
        <ele>268.6</ele>
        <time>2024-08-05T08:21:34Z</time>
      </trkpt>
      <trkpt lat="47.15315" lon="5.84748">
        <ele>269</ele>
        <time>2024-08-05T08:21:35Z</time>
      </trkpt>
      <trkpt lat="47.15314" lon="5.84746">
        <ele>269.2</ele>
        <time>2024-08-05T08:21:36Z</time>
      </trkpt>
      <trkpt lat="47.15314" lon="5.84744">
        <ele>269.4</ele>
        <time>2024-08-05T08:21:37Z</time>
      </trkpt>
      <trkpt lat="47.15313" lon="5.84742">
        <ele>269.8</ele>
        <time>2024-08-05T08:21:38Z</time>
      </trkpt>
      <trkpt lat="47.15311" lon="5.8474">
        <ele>270</ele>
        <time>2024-08-05T08:21:39Z</time>
      </trkpt>
      <trkpt lat="47.1531" lon="5.84737">
        <ele>270</ele>
        <time>2024-08-05T08:21:40Z</time>
      </trkpt>
      <trkpt lat="47.15309" lon="5.84735">
        <ele>270.2</ele>
        <time>2024-08-05T08:21:41Z</time>
      </trkpt>
      <trkpt lat="47.15308" lon="5.84733">
        <ele>270.4</ele>
        <time>2024-08-05T08:21:42Z</time>
      </trkpt>
      <trkpt lat="47.15307" lon="5.84731">
        <ele>271</ele>
        <time>2024-08-05T08:21:43Z</time>
      </trkpt>
      <trkpt lat="47.15306" lon="5.8473">
        <ele>271</ele>
        <time>2024-08-05T08:21:44Z</time>
      </trkpt>
      <trkpt lat="47.15306" lon="5.84728">
        <ele>271.2</ele>
        <time>2024-08-05T08:21:45Z</time>
      </trkpt>
      <trkpt lat="47.15305" lon="5.84727">
        <ele>271.2</ele>
        <time>2024-08-05T08:21:46Z</time>
      </trkpt>
      <trkpt lat="47.15304" lon="5.84725">
        <ele>271.4</ele>
        <time>2024-08-05T08:21:47Z</time>
      </trkpt>
      <trkpt lat="47.15303" lon="5.84723">
        <ele>271.6</ele>
        <time>2024-08-05T08:21:48Z</time>
      </trkpt>
      <trkpt lat="47.15303" lon="5.84722">
        <ele>272</ele>
        <time>2024-08-05T08:21:49Z</time>
      </trkpt>
      <trkpt lat="47.15302" lon="5.8472">
        <ele>272.4</ele>
        <time>2024-08-05T08:21:50Z</time>
      </trkpt>
      <trkpt lat="47.15301" lon="5.84718">
        <ele>272.8</ele>
        <time>2024-08-05T08:21:51Z</time>
      </trkpt>
      <trkpt lat="47.153" lon="5.84717">
        <ele>272.8</ele>
        <time>2024-08-05T08:21:52Z</time>
      </trkpt>
      <trkpt lat="47.15299" lon="5.84715">
        <ele>273</ele>
        <time>2024-08-05T08:21:53Z</time>
      </trkpt>
      <trkpt lat="47.15298" lon="5.84713">
        <ele>273.2</ele>
        <time>2024-08-05T08:21:54Z</time>
      </trkpt>
      <trkpt lat="47.15298" lon="5.84712">
        <ele>273.6</ele>
        <time>2024-08-05T08:21:55Z</time>
      </trkpt>
      <trkpt lat="47.15297" lon="5.8471">
        <ele>273.6</ele>
        <time>2024-08-05T08:21:56Z</time>
      </trkpt>
      <trkpt lat="47.15296" lon="5.84708">
        <ele>274</ele>
        <time>2024-08-05T08:21:57Z</time>
      </trkpt>
      <trkpt lat="47.15296" lon="5.84706">
        <ele>274.4</ele>
        <time>2024-08-05T08:21:58Z</time>
      </trkpt>
      <trkpt lat="47.15295" lon="5.84704">
        <ele>274.8</ele>
        <time>2024-08-05T08:21:59Z</time>
      </trkpt>
      <trkpt lat="47.15295" lon="5.84703">
        <ele>275</ele>
        <time>2024-08-05T08:22:00Z</time>
      </trkpt>
      <trkpt lat="47.15294" lon="5.84702">
        <ele>275.6</ele>
        <time>2024-08-05T08:22:01Z</time>
      </trkpt>
      <trkpt lat="47.15293" lon="5.847">
        <ele>275.8</ele>
        <time>2024-08-05T08:22:02Z</time>
      </trkpt>
      <trkpt lat="47.15292" lon="5.84699">
        <ele>276.2</ele>
        <time>2024-08-05T08:22:03Z</time>
      </trkpt>
      <trkpt lat="47.15291" lon="5.84697">
        <ele>276.4</ele>
        <time>2024-08-05T08:22:04Z</time>
      </trkpt>
      <trkpt lat="47.1529" lon="5.84696">
        <ele>276.6</ele>
        <time>2024-08-05T08:22:05Z</time>
      </trkpt>
      <trkpt lat="47.15289" lon="5.84694">
        <ele>277</ele>
        <time>2024-08-05T08:22:06Z</time>
      </trkpt>
      <trkpt lat="47.15289" lon="5.84693">
        <ele>277</ele>
        <time>2024-08-05T08:22:07Z</time>
      </trkpt>
      <trkpt lat="47.15288" lon="5.84692">
        <ele>277.4</ele>
        <time>2024-08-05T08:22:08Z</time>
      </trkpt>
      <trkpt lat="47.15287" lon="5.84691">
        <ele>277.6</ele>
        <time>2024-08-05T08:22:09Z</time>
      </trkpt>
      <trkpt lat="47.15286" lon="5.84689">
        <ele>277.6</ele>
        <time>2024-08-05T08:22:10Z</time>
      </trkpt>
      <trkpt lat="47.15285" lon="5.84688">
        <ele>277.8</ele>
        <time>2024-08-05T08:22:11Z</time>
      </trkpt>
      <trkpt lat="47.15284" lon="5.84686">
        <ele>278</ele>
        <time>2024-08-05T08:22:12Z</time>
      </trkpt>
      <trkpt lat="47.15283" lon="5.84685">
        <ele>278.4</ele>
        <time>2024-08-05T08:22:13Z</time>
      </trkpt>
      <trkpt lat="47.15283" lon="5.84684">
        <ele>278.6</ele>
        <time>2024-08-05T08:22:14Z</time>
      </trkpt>
      <trkpt lat="47.15282" lon="5.84683">
        <ele>279</ele>
        <time>2024-08-05T08:22:15Z</time>
      </trkpt>
      <trkpt lat="47.15281" lon="5.84682">
        <ele>279.2</ele>
        <time>2024-08-05T08:22:16Z</time>
      </trkpt>
      <trkpt lat="47.1528" lon="5.84681">
        <ele>279.6</ele>
        <time>2024-08-05T08:22:17Z</time>
      </trkpt>
      <trkpt lat="47.15279" lon="5.84679">
        <ele>279.6</ele>
        <time>2024-08-05T08:22:18Z</time>
      </trkpt>
      <trkpt lat="47.15278" lon="5.84678">
        <ele>279.8</ele>
        <time>2024-08-05T08:22:19Z</time>
      </trkpt>
      <trkpt lat="47.15277" lon="5.84677">
        <ele>280.2</ele>
        <time>2024-08-05T08:22:20Z</time>
      </trkpt>
      <trkpt lat="47.15276" lon="5.84676">
        <ele>280.2</ele>
        <time>2024-08-05T08:22:21Z</time>
      </trkpt>
      <trkpt lat="47.15275" lon="5.84675">
        <ele>280.6</ele>
        <time>2024-08-05T08:22:22Z</time>
      </trkpt>
      <trkpt lat="47.15274" lon="5.84673">
        <ele>280.8</ele>
        <time>2024-08-05T08:22:23Z</time>
      </trkpt>
      <trkpt lat="47.15272" lon="5.84672">
        <ele>281</ele>
        <time>2024-08-05T08:22:24Z</time>
      </trkpt>
      <trkpt lat="47.15271" lon="5.84671">
        <ele>281.4</ele>
        <time>2024-08-05T08:22:25Z</time>
      </trkpt>
      <trkpt lat="47.1527" lon="5.8467">
        <ele>281.4</ele>
        <time>2024-08-05T08:22:26Z</time>
      </trkpt>
      <trkpt lat="47.15269" lon="5.84669">
        <ele>281.8</ele>
        <time>2024-08-05T08:22:27Z</time>
      </trkpt>
      <trkpt lat="47.15268" lon="5.84669">
        <ele>281.8</ele>
        <time>2024-08-05T08:22:28Z</time>
      </trkpt>
      <trkpt lat="47.15266" lon="5.84669">
        <ele>281.8</ele>
        <time>2024-08-05T08:22:29Z</time>
      </trkpt>
      <trkpt lat="47.15265" lon="5.8467">
        <ele>282</ele>
        <time>2024-08-05T08:22:30Z</time>
      </trkpt>
      <trkpt lat="47.15264" lon="5.8467">
        <ele>282.4</ele>
        <time>2024-08-05T08:22:31Z</time>
      </trkpt>
      <trkpt lat="47.15264" lon="5.84671">
        <ele>282.4</ele>
        <time>2024-08-05T08:22:32Z</time>
      </trkpt>
      <trkpt lat="47.15263" lon="5.84672">
        <ele>282.6</ele>
        <time>2024-08-05T08:22:33Z</time>
      </trkpt>
      <trkpt lat="47.15263" lon="5.84673">
        <ele>282.8</ele>
        <time>2024-08-05T08:22:34Z</time>
      </trkpt>
      <trkpt lat="47.15263" lon="5.84674">
        <ele>283</ele>
        <time>2024-08-05T08:22:35Z</time>
      </trkpt>
      <trkpt lat="47.15263" lon="5.84675">
        <ele>283.2</ele>
        <time>2024-08-05T08:22:36Z</time>
      </trkpt>
      <trkpt lat="47.15263" lon="5.84677">
        <ele>283.4</ele>
        <time>2024-08-05T08:22:37Z</time>
      </trkpt>
      <trkpt lat="47.15262" lon="5.84678">
        <ele>283.8</ele>
        <time>2024-08-05T08:22:38Z</time>
      </trkpt>
      <trkpt lat="47.15262" lon="5.8468">
        <ele>284</ele>
        <time>2024-08-05T08:22:39Z</time>
      </trkpt>
      <trkpt lat="47.15262" lon="5.84681">
        <ele>284.2</ele>
        <time>2024-08-05T08:22:40Z</time>
      </trkpt>
      <trkpt lat="47.15262" lon="5.84682">
        <ele>284.4</ele>
        <time>2024-08-05T08:22:41Z</time>
      </trkpt>
      <trkpt lat="47.15262" lon="5.84683">
        <ele>284.6</ele>
        <time>2024-08-05T08:22:42Z</time>
      </trkpt>
      <trkpt lat="47.15261" lon="5.84684">
        <ele>285</ele>
        <time>2024-08-05T08:22:43Z</time>
      </trkpt>
      <trkpt lat="47.15262" lon="5.84686">
        <ele>285.2</ele>
        <time>2024-08-05T08:22:44Z</time>
      </trkpt>
      <trkpt lat="47.15262" lon="5.84687">
        <ele>285.4</ele>
        <time>2024-08-05T08:22:45Z</time>
      </trkpt>
      <trkpt lat="47.15262" lon="5.84688">
        <ele>285.8</ele>
        <time>2024-08-05T08:22:46Z</time>
      </trkpt>
      <trkpt lat="47.15261" lon="5.8469">
        <ele>285.8</ele>
        <time>2024-08-05T08:22:47Z</time>
      </trkpt>
      <trkpt lat="47.15261" lon="5.84691">
        <ele>286</ele>
        <time>2024-08-05T08:22:48Z</time>
      </trkpt>
      <trkpt lat="47.15262" lon="5.84693">
        <ele>286.2</ele>
        <time>2024-08-05T08:22:49Z</time>
      </trkpt>
      <trkpt lat="47.15262" lon="5.84695">
        <ele>286.4</ele>
        <time>2024-08-05T08:22:50Z</time>
      </trkpt>
      <trkpt lat="47.15262" lon="5.84697">
        <ele>286.4</ele>
        <time>2024-08-05T08:22:51Z</time>
      </trkpt>
      <trkpt lat="47.15262" lon="5.847">
        <ele>286.4</ele>
        <time>2024-08-05T08:22:52Z</time>
      </trkpt>
      <trkpt lat="47.15262" lon="5.84703">
        <ele>286.6</ele>
        <time>2024-08-05T08:22:53Z</time>
      </trkpt>
      <trkpt lat="47.15263" lon="5.84705">
        <ele>286.8</ele>
        <time>2024-08-05T08:22:54Z</time>
      </trkpt>
      <trkpt lat="47.15263" lon="5.84708">
        <ele>287</ele>
        <time>2024-08-05T08:22:55Z</time>
      </trkpt>
      <trkpt lat="47.15263" lon="5.8471">
        <ele>287.2</ele>
        <time>2024-08-05T08:22:56Z</time>
      </trkpt>
      <trkpt lat="47.15263" lon="5.84712">
        <ele>287.4</ele>
        <time>2024-08-05T08:22:57Z</time>
      </trkpt>
      <trkpt lat="47.15263" lon="5.84713">
        <ele>287.8</ele>
        <time>2024-08-05T08:22:58Z</time>
      </trkpt>
      <trkpt lat="47.15263" lon="5.84715">
        <ele>287.8</ele>
        <time>2024-08-05T08:22:59Z</time>
      </trkpt>
      <trkpt lat="47.15263" lon="5.84717">
        <ele>288</ele>
        <time>2024-08-05T08:23:00Z</time>
      </trkpt>
      <trkpt lat="47.15264" lon="5.84719">
        <ele>288.2</ele>
        <time>2024-08-05T08:23:01Z</time>
      </trkpt>
      <trkpt lat="47.15265" lon="5.84721">
        <ele>288.4</ele>
        <time>2024-08-05T08:23:02Z</time>
      </trkpt>
      <trkpt lat="47.15265" lon="5.84723">
        <ele>288.8</ele>
        <time>2024-08-05T08:23:03Z</time>
      </trkpt>
      <trkpt lat="47.15265" lon="5.84725">
        <ele>289</ele>
        <time>2024-08-05T08:23:04Z</time>
      </trkpt>
      <trkpt lat="47.15266" lon="5.84727">
        <ele>289.2</ele>
        <time>2024-08-05T08:23:05Z</time>
      </trkpt>
      <trkpt lat="47.15266" lon="5.84729">
        <ele>289.4</ele>
        <time>2024-08-05T08:23:06Z</time>
      </trkpt>
      <trkpt lat="47.15266" lon="5.84731">
        <ele>289.6</ele>
        <time>2024-08-05T08:23:07Z</time>
      </trkpt>
      <trkpt lat="47.15266" lon="5.84733">
        <ele>289.8</ele>
        <time>2024-08-05T08:23:08Z</time>
      </trkpt>
      <trkpt lat="47.15266" lon="5.84735">
        <ele>289.8</ele>
        <time>2024-08-05T08:23:09Z</time>
      </trkpt>
      <trkpt lat="47.15267" lon="5.84737">
        <ele>290.2</ele>
        <time>2024-08-05T08:23:10Z</time>
      </trkpt>
      <trkpt lat="47.15267" lon="5.84739">
        <ele>290.6</ele>
        <time>2024-08-05T08:23:11Z</time>
      </trkpt>
      <trkpt lat="47.15266" lon="5.84741">
        <ele>290.8</ele>
        <time>2024-08-05T08:23:12Z</time>
      </trkpt>
      <trkpt lat="47.15266" lon="5.84742">
        <ele>290.8</ele>
        <time>2024-08-05T08:23:13Z</time>
      </trkpt>
      <trkpt lat="47.15265" lon="5.84744">
        <ele>291</ele>
        <time>2024-08-05T08:23:14Z</time>
      </trkpt>
      <trkpt lat="47.15265" lon="5.84746">
        <ele>291.2</ele>
        <time>2024-08-05T08:23:15Z</time>
      </trkpt>
      <trkpt lat="47.15264" lon="5.84748">
        <ele>291.2</ele>
        <time>2024-08-05T08:23:16Z</time>
      </trkpt>
      <trkpt lat="47.15263" lon="5.8475">
        <ele>291.6</ele>
        <time>2024-08-05T08:23:17Z</time>
      </trkpt>
      <trkpt lat="47.15262" lon="5.8475">
        <ele>291.8</ele>
        <time>2024-08-05T08:23:18Z</time>
      </trkpt>
      <trkpt lat="47.15261" lon="5.8475">
        <ele>292</ele>
        <time>2024-08-05T08:23:19Z</time>
      </trkpt>
      <trkpt lat="47.1526" lon="5.8475">
        <ele>292</ele>
        <time>2024-08-05T08:23:20Z</time>
      </trkpt>
      <trkpt lat="47.15258" lon="5.8475">
        <ele>292.4</ele>
        <time>2024-08-05T08:23:21Z</time>
      </trkpt>
      <trkpt lat="47.15258" lon="5.84749">
        <ele>292.6</ele>
        <time>2024-08-05T08:23:22Z</time>
      </trkpt>
      <trkpt lat="47.15257" lon="5.84749">
        <ele>292.8</ele>
        <time>2024-08-05T08:23:23Z</time>
      </trkpt>
      <trkpt lat="47.15256" lon="5.84748">
        <ele>293.4</ele>
        <time>2024-08-05T08:23:24Z</time>
      </trkpt>
      <trkpt lat="47.15256" lon="5.84748">
        <ele>293.6</ele>
        <time>2024-08-05T08:23:25Z</time>
      </trkpt>
      <trkpt lat="47.15255" lon="5.84747">
        <ele>293.8</ele>
        <time>2024-08-05T08:23:26Z</time>
      </trkpt>
      <trkpt lat="47.15255" lon="5.84746">
        <ele>294.2</ele>
        <time>2024-08-05T08:23:27Z</time>
      </trkpt>
      <trkpt lat="47.15254" lon="5.84745">
        <ele>294.6</ele>
        <time>2024-08-05T08:23:28Z</time>
      </trkpt>
      <trkpt lat="47.15253" lon="5.84743">
        <ele>294.8</ele>
        <time>2024-08-05T08:23:29Z</time>
      </trkpt>
      <trkpt lat="47.15252" lon="5.84742">
        <ele>295.2</ele>
        <time>2024-08-05T08:23:30Z</time>
      </trkpt>
      <trkpt lat="47.15251" lon="5.84741">
        <ele>295.2</ele>
        <time>2024-08-05T08:23:31Z</time>
      </trkpt>
      <trkpt lat="47.1525" lon="5.84741">
        <ele>295.6</ele>
        <time>2024-08-05T08:23:32Z</time>
      </trkpt>
      <trkpt lat="47.15249" lon="5.8474">
        <ele>295.8</ele>
        <time>2024-08-05T08:23:33Z</time>
      </trkpt>
      <trkpt lat="47.15249" lon="5.8474">
        <ele>296.2</ele>
        <time>2024-08-05T08:23:34Z</time>
      </trkpt>
      <trkpt lat="47.15248" lon="5.84738">
        <ele>296.2</ele>
        <time>2024-08-05T08:23:35Z</time>
      </trkpt>
      <trkpt lat="47.15247" lon="5.84737">
        <ele>296.2</ele>
        <time>2024-08-05T08:23:36Z</time>
      </trkpt>
      <trkpt lat="47.15246" lon="5.84736">
        <ele>296.4</ele>
        <time>2024-08-05T08:23:37Z</time>
      </trkpt>
      <trkpt lat="47.15245" lon="5.84734">
        <ele>296.8</ele>
        <time>2024-08-05T08:23:38Z</time>
      </trkpt>
      <trkpt lat="47.15244" lon="5.84733">
        <ele>296.8</ele>
        <time>2024-08-05T08:23:39Z</time>
      </trkpt>
      <trkpt lat="47.15243" lon="5.84732">
        <ele>297</ele>
        <time>2024-08-05T08:23:40Z</time>
      </trkpt>
      <trkpt lat="47.15243" lon="5.84732">
        <ele>297.2</ele>
        <time>2024-08-05T08:23:41Z</time>
      </trkpt>
      <trkpt lat="47.15242" lon="5.84731">
        <ele>297.4</ele>
        <time>2024-08-05T08:23:42Z</time>
      </trkpt>
      <trkpt lat="47.1524" lon="5.84729">
        <ele>297.6</ele>
        <time>2024-08-05T08:23:43Z</time>
      </trkpt>
      <trkpt lat="47.15239" lon="5.84728">
        <ele>297.6</ele>
        <time>2024-08-05T08:23:44Z</time>
      </trkpt>
      <trkpt lat="47.15238" lon="5.84726">
        <ele>297.6</ele>
        <time>2024-08-05T08:23:45Z</time>
      </trkpt>
      <trkpt lat="47.15237" lon="5.84725">
        <ele>297.8</ele>
        <time>2024-08-05T08:23:46Z</time>
      </trkpt>
      <trkpt lat="47.15236" lon="5.84724">
        <ele>298.2</ele>
        <time>2024-08-05T08:23:47Z</time>
      </trkpt>
      <trkpt lat="47.15235" lon="5.84724">
        <ele>298.4</ele>
        <time>2024-08-05T08:23:48Z</time>
      </trkpt>
      <trkpt lat="47.15234" lon="5.84723">
        <ele>298.4</ele>
        <time>2024-08-05T08:23:49Z</time>
      </trkpt>
      <trkpt lat="47.15234" lon="5.84722">
        <ele>298.6</ele>
        <time>2024-08-05T08:23:50Z</time>
      </trkpt>
      <trkpt lat="47.15233" lon="5.84721">
        <ele>298.8</ele>
        <time>2024-08-05T08:23:51Z</time>
      </trkpt>
      <trkpt lat="47.15232" lon="5.8472">
        <ele>298.8</ele>
        <time>2024-08-05T08:23:52Z</time>
      </trkpt>
      <trkpt lat="47.15231" lon="5.8472">
        <ele>299</ele>
        <time>2024-08-05T08:23:53Z</time>
      </trkpt>
      <trkpt lat="47.1523" lon="5.84719">
        <ele>299.2</ele>
        <time>2024-08-05T08:23:54Z</time>
      </trkpt>
      <trkpt lat="47.15229" lon="5.84719">
        <ele>299.2</ele>
        <time>2024-08-05T08:23:55Z</time>
      </trkpt>
      <trkpt lat="47.15228" lon="5.84719">
        <ele>299.2</ele>
        <time>2024-08-05T08:23:56Z</time>
      </trkpt>
      <trkpt lat="47.15227" lon="5.84718">
        <ele>299.4</ele>
        <time>2024-08-05T08:23:57Z</time>
      </trkpt>
      <trkpt lat="47.15226" lon="5.84718">
        <ele>299.8</ele>
        <time>2024-08-05T08:23:58Z</time>
      </trkpt>
      <trkpt lat="47.15224" lon="5.84718">
        <ele>300</ele>
        <time>2024-08-05T08:23:59Z</time>
      </trkpt>
      <trkpt lat="47.15222" lon="5.84716">
        <ele>300.2</ele>
        <time>2024-08-05T08:24:00Z</time>
      </trkpt>
      <trkpt lat="47.1522" lon="5.84716">
        <ele>300.4</ele>
        <time>2024-08-05T08:24:01Z</time>
      </trkpt>
      <trkpt lat="47.15219" lon="5.84716">
        <ele>300.4</ele>
        <time>2024-08-05T08:24:02Z</time>
      </trkpt>
      <trkpt lat="47.15217" lon="5.84717">
        <ele>300.6</ele>
        <time>2024-08-05T08:24:03Z</time>
      </trkpt>
      <trkpt lat="47.15215" lon="5.84717">
        <ele>301</ele>
        <time>2024-08-05T08:24:04Z</time>
      </trkpt>
      <trkpt lat="47.15213" lon="5.84718">
        <ele>301.2</ele>
        <time>2024-08-05T08:24:05Z</time>
      </trkpt>
      <trkpt lat="47.15211" lon="5.84719">
        <ele>301.4</ele>
        <time>2024-08-05T08:24:06Z</time>
      </trkpt>
      <trkpt lat="47.15208" lon="5.84719">
        <ele>301.6</ele>
        <time>2024-08-05T08:24:07Z</time>
      </trkpt>
      <trkpt lat="47.15207" lon="5.84719">
        <ele>301.8</ele>
        <time>2024-08-05T08:24:08Z</time>
      </trkpt>
      <trkpt lat="47.15205" lon="5.84719">
        <ele>301.8</ele>
        <time>2024-08-05T08:24:09Z</time>
      </trkpt>
      <trkpt lat="47.15203" lon="5.84719">
        <ele>302</ele>
        <time>2024-08-05T08:24:10Z</time>
      </trkpt>
      <trkpt lat="47.15202" lon="5.84718">
        <ele>302</ele>
        <time>2024-08-05T08:24:11Z</time>
      </trkpt>
      <trkpt lat="47.152" lon="5.84717">
        <ele>301.8</ele>
        <time>2024-08-05T08:24:12Z</time>
      </trkpt>
      <trkpt lat="47.15199" lon="5.84716">
        <ele>302</ele>
        <time>2024-08-05T08:24:13Z</time>
      </trkpt>
      <trkpt lat="47.15198" lon="5.84715">
        <ele>302.2</ele>
        <time>2024-08-05T08:24:14Z</time>
      </trkpt>
      <trkpt lat="47.15197" lon="5.84714">
        <ele>302</ele>
        <time>2024-08-05T08:24:15Z</time>
      </trkpt>
      <trkpt lat="47.15196" lon="5.84713">
        <ele>302</ele>
        <time>2024-08-05T08:24:16Z</time>
      </trkpt>
      <trkpt lat="47.15194" lon="5.84711">
        <ele>302.2</ele>
        <time>2024-08-05T08:24:17Z</time>
      </trkpt>
      <trkpt lat="47.15193" lon="5.8471">
        <ele>302.2</ele>
        <time>2024-08-05T08:24:18Z</time>
      </trkpt>
      <trkpt lat="47.15192" lon="5.84708">
        <ele>302.2</ele>
        <time>2024-08-05T08:24:19Z</time>
      </trkpt>
      <trkpt lat="47.1519" lon="5.84706">
        <ele>302.2</ele>
        <time>2024-08-05T08:24:20Z</time>
      </trkpt>
      <trkpt lat="47.15188" lon="5.84704">
        <ele>302.4</ele>
        <time>2024-08-05T08:24:21Z</time>
      </trkpt>
      <trkpt lat="47.15186" lon="5.84704">
        <ele>302.4</ele>
        <time>2024-08-05T08:24:22Z</time>
      </trkpt>
      <trkpt lat="47.15185" lon="5.84704">
        <ele>302.8</ele>
        <time>2024-08-05T08:24:23Z</time>
      </trkpt>
      <trkpt lat="47.15183" lon="5.84704">
        <ele>303</ele>
        <time>2024-08-05T08:24:24Z</time>
      </trkpt>
      <trkpt lat="47.1518" lon="5.84704">
        <ele>303.2</ele>
        <time>2024-08-05T08:24:25Z</time>
      </trkpt>
      <trkpt lat="47.15179" lon="5.84705">
        <ele>303.6</ele>
        <time>2024-08-05T08:24:26Z</time>
      </trkpt>
      <trkpt lat="47.15178" lon="5.84706">
        <ele>303.8</ele>
        <time>2024-08-05T08:24:27Z</time>
      </trkpt>
      <trkpt lat="47.15175" lon="5.84707">
        <ele>304.2</ele>
        <time>2024-08-05T08:24:28Z</time>
      </trkpt>
      <trkpt lat="47.15173" lon="5.84707">
        <ele>304.4</ele>
        <time>2024-08-05T08:24:29Z</time>
      </trkpt>
      <trkpt lat="47.15172" lon="5.84707">
        <ele>304.6</ele>
        <time>2024-08-05T08:24:30Z</time>
      </trkpt>
      <trkpt lat="47.15171" lon="5.84709">
        <ele>304.8</ele>
        <time>2024-08-05T08:24:31Z</time>
      </trkpt>
      <trkpt lat="47.15169" lon="5.8471">
        <ele>305.2</ele>
        <time>2024-08-05T08:24:32Z</time>
      </trkpt>
      <trkpt lat="47.15167" lon="5.8471">
        <ele>305.6</ele>
        <time>2024-08-05T08:24:33Z</time>
      </trkpt>
      <trkpt lat="47.15165" lon="5.84711">
        <ele>306</ele>
        <time>2024-08-05T08:24:34Z</time>
      </trkpt>
      <trkpt lat="47.15164" lon="5.84714">
        <ele>306.2</ele>
        <time>2024-08-05T08:24:35Z</time>
      </trkpt>
      <trkpt lat="47.15163" lon="5.84715">
        <ele>306.4</ele>
        <time>2024-08-05T08:24:36Z</time>
      </trkpt>
      <trkpt lat="47.15161" lon="5.84716">
        <ele>306.8</ele>
        <time>2024-08-05T08:24:37Z</time>
      </trkpt>
      <trkpt lat="47.15159" lon="5.84717">
        <ele>307.2</ele>
        <time>2024-08-05T08:24:38Z</time>
      </trkpt>
      <trkpt lat="47.15158" lon="5.84718">
        <ele>307.6</ele>
        <time>2024-08-05T08:24:39Z</time>
      </trkpt>
      <trkpt lat="47.15156" lon="5.84719">
        <ele>307.6</ele>
        <time>2024-08-05T08:24:40Z</time>
      </trkpt>
      <trkpt lat="47.15155" lon="5.8472">
        <ele>308</ele>
        <time>2024-08-05T08:24:41Z</time>
      </trkpt>
      <trkpt lat="47.15153" lon="5.84719">
        <ele>308.4</ele>
        <time>2024-08-05T08:24:42Z</time>
      </trkpt>
      <trkpt lat="47.15152" lon="5.84719">
        <ele>308.6</ele>
        <time>2024-08-05T08:24:43Z</time>
      </trkpt>
      <trkpt lat="47.15151" lon="5.8472">
        <ele>308.8</ele>
        <time>2024-08-05T08:24:44Z</time>
      </trkpt>
      <trkpt lat="47.15149" lon="5.84719">
        <ele>309</ele>
        <time>2024-08-05T08:24:45Z</time>
      </trkpt>
      <trkpt lat="47.15147" lon="5.84719">
        <ele>309.2</ele>
        <time>2024-08-05T08:24:46Z</time>
      </trkpt>
      <trkpt lat="47.15145" lon="5.84718">
        <ele>309.4</ele>
        <time>2024-08-05T08:24:47Z</time>
      </trkpt>
      <trkpt lat="47.15144" lon="5.84717">
        <ele>309.6</ele>
        <time>2024-08-05T08:24:48Z</time>
      </trkpt>
      <trkpt lat="47.15142" lon="5.84716">
        <ele>309.8</ele>
        <time>2024-08-05T08:24:49Z</time>
      </trkpt>
      <trkpt lat="47.1514" lon="5.84715">
        <ele>310.2</ele>
        <time>2024-08-05T08:24:50Z</time>
      </trkpt>
      <trkpt lat="47.15139" lon="5.84714">
        <ele>310.4</ele>
        <time>2024-08-05T08:24:51Z</time>
      </trkpt>
      <trkpt lat="47.15138" lon="5.84714">
        <ele>310.6</ele>
        <time>2024-08-05T08:24:52Z</time>
      </trkpt>
      <trkpt lat="47.15138" lon="5.84713">
        <ele>310.8</ele>
        <time>2024-08-05T08:24:53Z</time>
      </trkpt>
      <trkpt lat="47.15137" lon="5.84711">
        <ele>311</ele>
        <time>2024-08-05T08:24:54Z</time>
      </trkpt>
      <trkpt lat="47.15136" lon="5.8471">
        <ele>311.4</ele>
        <time>2024-08-05T08:24:55Z</time>
      </trkpt>
      <trkpt lat="47.15135" lon="5.84708">
        <ele>311.6</ele>
        <time>2024-08-05T08:24:56Z</time>
      </trkpt>
      <trkpt lat="47.15133" lon="5.84706">
        <ele>312</ele>
        <time>2024-08-05T08:24:57Z</time>
      </trkpt>
      <trkpt lat="47.15132" lon="5.84703">
        <ele>312.2</ele>
        <time>2024-08-05T08:24:58Z</time>
      </trkpt>
      <trkpt lat="47.1513" lon="5.84701">
        <ele>312.4</ele>
        <time>2024-08-05T08:24:59Z</time>
      </trkpt>
      <trkpt lat="47.1513" lon="5.84699">
        <ele>312.6</ele>
        <time>2024-08-05T08:25:00Z</time>
      </trkpt>
      <trkpt lat="47.15128" lon="5.84697">
        <ele>312.6</ele>
        <time>2024-08-05T08:25:01Z</time>
      </trkpt>
      <trkpt lat="47.15127" lon="5.84695">
        <ele>312.8</ele>
        <time>2024-08-05T08:25:02Z</time>
      </trkpt>
      <trkpt lat="47.15126" lon="5.84693">
        <ele>313</ele>
        <time>2024-08-05T08:25:03Z</time>
      </trkpt>
      <trkpt lat="47.15125" lon="5.84691">
        <ele>313.4</ele>
        <time>2024-08-05T08:25:04Z</time>
      </trkpt>
      <trkpt lat="47.15123" lon="5.84689">
        <ele>313.6</ele>
        <time>2024-08-05T08:25:05Z</time>
      </trkpt>
      <trkpt lat="47.15122" lon="5.84687">
        <ele>313.8</ele>
        <time>2024-08-05T08:25:06Z</time>
      </trkpt>
      <trkpt lat="47.15121" lon="5.84685">
        <ele>314</ele>
        <time>2024-08-05T08:25:07Z</time>
      </trkpt>
      <trkpt lat="47.15121" lon="5.84684">
        <ele>314.2</ele>
        <time>2024-08-05T08:25:08Z</time>
      </trkpt>
      <trkpt lat="47.15119" lon="5.84683">
        <ele>314.4</ele>
        <time>2024-08-05T08:25:09Z</time>
      </trkpt>
      <trkpt lat="47.15118" lon="5.84681">
        <ele>314.6</ele>
        <time>2024-08-05T08:25:10Z</time>
      </trkpt>
      <trkpt lat="47.15117" lon="5.84679">
        <ele>314.8</ele>
        <time>2024-08-05T08:25:11Z</time>
      </trkpt>
      <trkpt lat="47.15115" lon="5.84677">
        <ele>315</ele>
        <time>2024-08-05T08:25:12Z</time>
      </trkpt>
      <trkpt lat="47.15114" lon="5.84675">
        <ele>315.2</ele>
        <time>2024-08-05T08:25:13Z</time>
      </trkpt>
      <trkpt lat="47.15113" lon="5.84674">
        <ele>315.4</ele>
        <time>2024-08-05T08:25:14Z</time>
      </trkpt>
      <trkpt lat="47.15111" lon="5.84672">
        <ele>315.8</ele>
        <time>2024-08-05T08:25:15Z</time>
      </trkpt>
      <trkpt lat="47.1511" lon="5.84671">
        <ele>315.6</ele>
        <time>2024-08-05T08:25:16Z</time>
      </trkpt>
      <trkpt lat="47.15109" lon="5.8467">
        <ele>316</ele>
        <time>2024-08-05T08:25:17Z</time>
      </trkpt>
      <trkpt lat="47.15109" lon="5.84669">
        <ele>315.8</ele>
        <time>2024-08-05T08:25:18Z</time>
      </trkpt>
      <trkpt lat="47.15108" lon="5.84668">
        <ele>316.2</ele>
        <time>2024-08-05T08:25:19Z</time>
      </trkpt>
      <trkpt lat="47.15106" lon="5.84666">
        <ele>316.2</ele>
        <time>2024-08-05T08:25:20Z</time>
      </trkpt>
      <trkpt lat="47.15105" lon="5.84664">
        <ele>316.4</ele>
        <time>2024-08-05T08:25:21Z</time>
      </trkpt>
      <trkpt lat="47.15104" lon="5.84662">
        <ele>316.6</ele>
        <time>2024-08-05T08:25:22Z</time>
      </trkpt>
      <trkpt lat="47.15103" lon="5.84661">
        <ele>316.6</ele>
        <time>2024-08-05T08:25:23Z</time>
      </trkpt>
      <trkpt lat="47.15102" lon="5.84659">
        <ele>316.6</ele>
        <time>2024-08-05T08:25:24Z</time>
      </trkpt>
      <trkpt lat="47.15101" lon="5.84656">
        <ele>316.8</ele>
        <time>2024-08-05T08:25:25Z</time>
      </trkpt>
      <trkpt lat="47.15099" lon="5.84655">
        <ele>316.8</ele>
        <time>2024-08-05T08:25:26Z</time>
      </trkpt>
      <trkpt lat="47.15098" lon="5.84653">
        <ele>317</ele>
        <time>2024-08-05T08:25:27Z</time>
      </trkpt>
      <trkpt lat="47.15097" lon="5.84651">
        <ele>317.2</ele>
        <time>2024-08-05T08:25:28Z</time>
      </trkpt>
      <trkpt lat="47.15096" lon="5.84649">
        <ele>317.2</ele>
        <time>2024-08-05T08:25:29Z</time>
      </trkpt>
      <trkpt lat="47.15095" lon="5.84648">
        <ele>317.2</ele>
        <time>2024-08-05T08:25:30Z</time>
      </trkpt>
      <trkpt lat="47.15094" lon="5.84646">
        <ele>317.4</ele>
        <time>2024-08-05T08:25:31Z</time>
      </trkpt>
      <trkpt lat="47.15092" lon="5.84644">
        <ele>317.6</ele>
        <time>2024-08-05T08:25:32Z</time>
      </trkpt>
      <trkpt lat="47.15091" lon="5.84642">
        <ele>317.6</ele>
        <time>2024-08-05T08:25:33Z</time>
      </trkpt>
      <trkpt lat="47.15091" lon="5.8464">
        <ele>317.8</ele>
        <time>2024-08-05T08:25:34Z</time>
      </trkpt>
      <trkpt lat="47.1509" lon="5.84638">
        <ele>317.8</ele>
        <time>2024-08-05T08:25:35Z</time>
      </trkpt>
      <trkpt lat="47.15089" lon="5.84636">
        <ele>317.8</ele>
        <time>2024-08-05T08:25:36Z</time>
      </trkpt>
      <trkpt lat="47.15088" lon="5.84635">
        <ele>318</ele>
        <time>2024-08-05T08:25:37Z</time>
      </trkpt>
      <trkpt lat="47.15087" lon="5.84634">
        <ele>318</ele>
        <time>2024-08-05T08:25:38Z</time>
      </trkpt>
      <trkpt lat="47.15086" lon="5.84632">
        <ele>318</ele>
        <time>2024-08-05T08:25:39Z</time>
      </trkpt>
      <trkpt lat="47.15084" lon="5.84631">
        <ele>318.2</ele>
        <time>2024-08-05T08:25:40Z</time>
      </trkpt>
      <trkpt lat="47.15083" lon="5.84629">
        <ele>318.4</ele>
        <time>2024-08-05T08:25:41Z</time>
      </trkpt>
      <trkpt lat="47.15081" lon="5.84628">
        <ele>318.4</ele>
        <time>2024-08-05T08:25:42Z</time>
      </trkpt>
      <trkpt lat="47.1508" lon="5.84628">
        <ele>318.6</ele>
        <time>2024-08-05T08:25:43Z</time>
      </trkpt>
      <trkpt lat="47.15078" lon="5.84627">
        <ele>318.4</ele>
        <time>2024-08-05T08:25:44Z</time>
      </trkpt>
      <trkpt lat="47.15076" lon="5.84626">
        <ele>318.4</ele>
        <time>2024-08-05T08:25:45Z</time>
      </trkpt>
      <trkpt lat="47.15075" lon="5.84625">
        <ele>318.6</ele>
        <time>2024-08-05T08:25:46Z</time>
      </trkpt>
      <trkpt lat="47.15073" lon="5.84624">
        <ele>318.6</ele>
        <time>2024-08-05T08:25:47Z</time>
      </trkpt>
      <trkpt lat="47.15072" lon="5.84623">
        <ele>318.6</ele>
        <time>2024-08-05T08:25:48Z</time>
      </trkpt>
      <trkpt lat="47.15071" lon="5.84622">
        <ele>318.6</ele>
        <time>2024-08-05T08:25:49Z</time>
      </trkpt>
      <trkpt lat="47.15069" lon="5.84619">
        <ele>318.8</ele>
        <time>2024-08-05T08:25:50Z</time>
      </trkpt>
      <trkpt lat="47.15068" lon="5.84618">
        <ele>318.8</ele>
        <time>2024-08-05T08:25:51Z</time>
      </trkpt>
      <trkpt lat="47.15066" lon="5.84616">
        <ele>318.8</ele>
        <time>2024-08-05T08:25:52Z</time>
      </trkpt>
      <trkpt lat="47.15065" lon="5.84614">
        <ele>319</ele>
        <time>2024-08-05T08:25:53Z</time>
      </trkpt>
      <trkpt lat="47.15064" lon="5.84612">
        <ele>319.2</ele>
        <time>2024-08-05T08:25:54Z</time>
      </trkpt>
      <trkpt lat="47.15062" lon="5.8461">
        <ele>319.2</ele>
        <time>2024-08-05T08:25:55Z</time>
      </trkpt>
      <trkpt lat="47.1506" lon="5.84608">
        <ele>319.4</ele>
        <time>2024-08-05T08:25:56Z</time>
      </trkpt>
      <trkpt lat="47.15059" lon="5.84606">
        <ele>319.4</ele>
        <time>2024-08-05T08:25:57Z</time>
      </trkpt>
      <trkpt lat="47.15058" lon="5.84604">
        <ele>319.6</ele>
        <time>2024-08-05T08:25:58Z</time>
      </trkpt>
      <trkpt lat="47.15056" lon="5.84602">
        <ele>319.6</ele>
        <time>2024-08-05T08:25:59Z</time>
      </trkpt>
      <trkpt lat="47.15055" lon="5.846">
        <ele>320</ele>
        <time>2024-08-05T08:26:00Z</time>
      </trkpt>
      <trkpt lat="47.15054" lon="5.84598">
        <ele>320</ele>
        <time>2024-08-05T08:26:01Z</time>
      </trkpt>
      <trkpt lat="47.15053" lon="5.84596">
        <ele>320</ele>
        <time>2024-08-05T08:26:02Z</time>
      </trkpt>
      <trkpt lat="47.15052" lon="5.84594">
        <ele>320</ele>
        <time>2024-08-05T08:26:03Z</time>
      </trkpt>
      <trkpt lat="47.1505" lon="5.84592">
        <ele>320</ele>
        <time>2024-08-05T08:26:04Z</time>
      </trkpt>
      <trkpt lat="47.15049" lon="5.8459">
        <ele>320.2</ele>
        <time>2024-08-05T08:26:05Z</time>
      </trkpt>
      <trkpt lat="47.15047" lon="5.84587">
        <ele>320.4</ele>
        <time>2024-08-05T08:26:06Z</time>
      </trkpt>
      <trkpt lat="47.15046" lon="5.84586">
        <ele>320.4</ele>
        <time>2024-08-05T08:26:07Z</time>
      </trkpt>
      <trkpt lat="47.15044" lon="5.84583">
        <ele>320.6</ele>
        <time>2024-08-05T08:26:08Z</time>
      </trkpt>
      <trkpt lat="47.15042" lon="5.84581">
        <ele>320.6</ele>
        <time>2024-08-05T08:26:09Z</time>
      </trkpt>
      <trkpt lat="47.1504" lon="5.84578">
        <ele>320.8</ele>
        <time>2024-08-05T08:26:10Z</time>
      </trkpt>
      <trkpt lat="47.15039" lon="5.84576">
        <ele>320.8</ele>
        <time>2024-08-05T08:26:11Z</time>
      </trkpt>
      <trkpt lat="47.15038" lon="5.84574">
        <ele>320.8</ele>
        <time>2024-08-05T08:26:12Z</time>
      </trkpt>
      <trkpt lat="47.15036" lon="5.84572">
        <ele>321</ele>
        <time>2024-08-05T08:26:13Z</time>
      </trkpt>
      <trkpt lat="47.15034" lon="5.8457">
        <ele>321.2</ele>
        <time>2024-08-05T08:26:14Z</time>
      </trkpt>
      <trkpt lat="47.15033" lon="5.84568">
        <ele>321.4</ele>
        <time>2024-08-05T08:26:15Z</time>
      </trkpt>
      <trkpt lat="47.15031" lon="5.84566">
        <ele>321.2</ele>
        <time>2024-08-05T08:26:16Z</time>
      </trkpt>
      <trkpt lat="47.1503" lon="5.84564">
        <ele>321.4</ele>
        <time>2024-08-05T08:26:17Z</time>
      </trkpt>
      <trkpt lat="47.15029" lon="5.84563">
        <ele>321.2</ele>
        <time>2024-08-05T08:26:18Z</time>
      </trkpt>
      <trkpt lat="47.15028" lon="5.84561">
        <ele>321.4</ele>
        <time>2024-08-05T08:26:19Z</time>
      </trkpt>
      <trkpt lat="47.15027" lon="5.8456">
        <ele>321.4</ele>
        <time>2024-08-05T08:26:20Z</time>
      </trkpt>
      <trkpt lat="47.15025" lon="5.84559">
        <ele>321.4</ele>
        <time>2024-08-05T08:26:21Z</time>
      </trkpt>
      <trkpt lat="47.15024" lon="5.84556">
        <ele>321.4</ele>
        <time>2024-08-05T08:26:22Z</time>
      </trkpt>
      <trkpt lat="47.15022" lon="5.84554">
        <ele>321.6</ele>
        <time>2024-08-05T08:26:23Z</time>
      </trkpt>
      <trkpt lat="47.1502" lon="5.84551">
        <ele>321.6</ele>
        <time>2024-08-05T08:26:24Z</time>
      </trkpt>
      <trkpt lat="47.15019" lon="5.84549">
        <ele>321.6</ele>
        <time>2024-08-05T08:26:25Z</time>
      </trkpt>
      <trkpt lat="47.15017" lon="5.84546">
        <ele>321.8</ele>
        <time>2024-08-05T08:26:26Z</time>
      </trkpt>
      <trkpt lat="47.15015" lon="5.84543">
        <ele>321.8</ele>
        <time>2024-08-05T08:26:27Z</time>
      </trkpt>
      <trkpt lat="47.15013" lon="5.8454">
        <ele>321.8</ele>
        <time>2024-08-05T08:26:28Z</time>
      </trkpt>
      <trkpt lat="47.15011" lon="5.84537">
        <ele>322</ele>
        <time>2024-08-05T08:26:29Z</time>
      </trkpt>
      <trkpt lat="47.15008" lon="5.84533">
        <ele>322.2</ele>
        <time>2024-08-05T08:26:30Z</time>
      </trkpt>
      <trkpt lat="47.15007" lon="5.8453">
        <ele>322.2</ele>
        <time>2024-08-05T08:26:31Z</time>
      </trkpt>
      <trkpt lat="47.15006" lon="5.84527">
        <ele>322.4</ele>
        <time>2024-08-05T08:26:32Z</time>
      </trkpt>
      <trkpt lat="47.15005" lon="5.84524">
        <ele>322.4</ele>
        <time>2024-08-05T08:26:33Z</time>
      </trkpt>
      <trkpt lat="47.15003" lon="5.84521">
        <ele>322.6</ele>
        <time>2024-08-05T08:26:34Z</time>
      </trkpt>
      <trkpt lat="47.15003" lon="5.84519">
        <ele>322.6</ele>
        <time>2024-08-05T08:26:35Z</time>
      </trkpt>
      <trkpt lat="47.15002" lon="5.84516">
        <ele>322.6</ele>
        <time>2024-08-05T08:26:36Z</time>
      </trkpt>
      <trkpt lat="47.15002" lon="5.84513">
        <ele>322.8</ele>
        <time>2024-08-05T08:26:37Z</time>
      </trkpt>
      <trkpt lat="47.15001" lon="5.8451">
        <ele>322.6</ele>
        <time>2024-08-05T08:26:38Z</time>
      </trkpt>
      <trkpt lat="47.15001" lon="5.84507">
        <ele>322.8</ele>
        <time>2024-08-05T08:26:39Z</time>
      </trkpt>
      <trkpt lat="47.15001" lon="5.84504">
        <ele>323</ele>
        <time>2024-08-05T08:26:40Z</time>
      </trkpt>
      <trkpt lat="47.15001" lon="5.84501">
        <ele>323.4</ele>
        <time>2024-08-05T08:26:41Z</time>
      </trkpt>
      <trkpt lat="47.15001" lon="5.84498">
        <ele>323.4</ele>
        <time>2024-08-05T08:26:42Z</time>
      </trkpt>
      <trkpt lat="47.15001" lon="5.84495">
        <ele>323.6</ele>
        <time>2024-08-05T08:26:43Z</time>
      </trkpt>
      <trkpt lat="47.15" lon="5.84491">
        <ele>324</ele>
        <time>2024-08-05T08:26:44Z</time>
      </trkpt>
      <trkpt lat="47.15" lon="5.84488">
        <ele>324.2</ele>
        <time>2024-08-05T08:26:45Z</time>
      </trkpt>
      <trkpt lat="47.15" lon="5.84486">
        <ele>324.6</ele>
        <time>2024-08-05T08:26:46Z</time>
      </trkpt>
      <trkpt lat="47.14999" lon="5.84484">
        <ele>325</ele>
        <time>2024-08-05T08:26:47Z</time>
      </trkpt>
      <trkpt lat="47.14999" lon="5.84481">
        <ele>325.4</ele>
        <time>2024-08-05T08:26:48Z</time>
      </trkpt>
      <trkpt lat="47.14999" lon="5.84478">
        <ele>325.6</ele>
        <time>2024-08-05T08:26:49Z</time>
      </trkpt>
      <trkpt lat="47.14998" lon="5.84475">
        <ele>325.6</ele>
        <time>2024-08-05T08:26:50Z</time>
      </trkpt>
      <trkpt lat="47.14997" lon="5.84471">
        <ele>326</ele>
        <time>2024-08-05T08:26:51Z</time>
      </trkpt>
      <trkpt lat="47.14996" lon="5.84469">
        <ele>326.4</ele>
        <time>2024-08-05T08:26:52Z</time>
      </trkpt>
      <trkpt lat="47.14996" lon="5.84466">
        <ele>326.4</ele>
        <time>2024-08-05T08:26:53Z</time>
      </trkpt>
      <trkpt lat="47.14995" lon="5.84461">
        <ele>326.6</ele>
        <time>2024-08-05T08:26:54Z</time>
      </trkpt>
      <trkpt lat="47.14996" lon="5.84459">
        <ele>326.8</ele>
        <time>2024-08-05T08:26:55Z</time>
      </trkpt>
      <trkpt lat="47.14995" lon="5.84456">
        <ele>327.2</ele>
        <time>2024-08-05T08:26:56Z</time>
      </trkpt>
      <trkpt lat="47.14995" lon="5.84453">
        <ele>327.4</ele>
        <time>2024-08-05T08:26:57Z</time>
      </trkpt>
      <trkpt lat="47.14994" lon="5.84451">
        <ele>327.4</ele>
        <time>2024-08-05T08:26:58Z</time>
      </trkpt>
      <trkpt lat="47.14993" lon="5.84448">
        <ele>327.4</ele>
        <time>2024-08-05T08:26:59Z</time>
      </trkpt>
      <trkpt lat="47.14993" lon="5.84446">
        <ele>327.6</ele>
        <time>2024-08-05T08:27:00Z</time>
      </trkpt>
      <trkpt lat="47.14992" lon="5.84443">
        <ele>327.6</ele>
        <time>2024-08-05T08:27:01Z</time>
      </trkpt>
      <trkpt lat="47.14991" lon="5.84441">
        <ele>328</ele>
        <time>2024-08-05T08:27:02Z</time>
      </trkpt>
      <trkpt lat="47.1499" lon="5.84438">
        <ele>328.2</ele>
        <time>2024-08-05T08:27:03Z</time>
      </trkpt>
      <trkpt lat="47.1499" lon="5.84437">
        <ele>328.4</ele>
        <time>2024-08-05T08:27:04Z</time>
      </trkpt>
      <trkpt lat="47.14989" lon="5.84435">
        <ele>328.6</ele>
        <time>2024-08-05T08:27:05Z</time>
      </trkpt>
      <trkpt lat="47.14988" lon="5.84434">
        <ele>328.8</ele>
        <time>2024-08-05T08:27:06Z</time>
      </trkpt>
      <trkpt lat="47.14988" lon="5.84432">
        <ele>329</ele>
        <time>2024-08-05T08:27:07Z</time>
      </trkpt>
      <trkpt lat="47.14988" lon="5.84431">
        <ele>329.4</ele>
        <time>2024-08-05T08:27:08Z</time>
      </trkpt>
      <trkpt lat="47.14988" lon="5.8443">
        <ele>329.4</ele>
        <time>2024-08-05T08:27:09Z</time>
      </trkpt>
      <trkpt lat="47.14988" lon="5.84428">
        <ele>329.6</ele>
        <time>2024-08-05T08:27:10Z</time>
      </trkpt>
      <trkpt lat="47.14989" lon="5.84427">
        <ele>329.6</ele>
        <time>2024-08-05T08:27:11Z</time>
      </trkpt>
      <trkpt lat="47.14989" lon="5.84426">
        <ele>329.6</ele>
        <time>2024-08-05T08:27:12Z</time>
      </trkpt>
      <trkpt lat="47.14989" lon="5.84425">
        <ele>329.8</ele>
        <time>2024-08-05T08:27:13Z</time>
      </trkpt>
      <trkpt lat="47.14988" lon="5.84425">
        <ele>329.8</ele>
        <time>2024-08-05T08:27:14Z</time>
      </trkpt>
      <trkpt lat="47.14988" lon="5.84425">
        <ele>330</ele>
        <time>2024-08-05T08:27:15Z</time>
      </trkpt>
      <trkpt lat="47.14988" lon="5.84425">
        <ele>330</ele>
        <time>2024-08-05T08:27:16Z</time>
      </trkpt>
      <trkpt lat="47.14987" lon="5.84424">
        <ele>330</ele>
        <time>2024-08-05T08:27:17Z</time>
      </trkpt>
      <trkpt lat="47.14987" lon="5.84424">
        <ele>330.2</ele>
        <time>2024-08-05T08:27:18Z</time>
      </trkpt>
      <trkpt lat="47.14987" lon="5.84424">
        <ele>330.2</ele>
        <time>2024-08-05T08:27:19Z</time>
      </trkpt>
      <trkpt lat="47.14987" lon="5.84424">
        <ele>330.2</ele>
        <time>2024-08-05T08:27:20Z</time>
      </trkpt>
      <trkpt lat="47.14987" lon="5.84424">
        <ele>330.2</ele>
        <time>2024-08-05T08:27:21Z</time>
      </trkpt>
      <trkpt lat="47.14987" lon="5.84424">
        <ele>330.2</ele>
        <time>2024-08-05T08:27:22Z</time>
      </trkpt>
      <trkpt lat="47.14986" lon="5.84424">
        <ele>330.4</ele>
        <time>2024-08-05T08:27:23Z</time>
      </trkpt>
      <trkpt lat="47.14986" lon="5.84424">
        <ele>330.4</ele>
        <time>2024-08-05T08:27:24Z</time>
      </trkpt>
      <trkpt lat="47.14985" lon="5.84425">
        <ele>330.4</ele>
        <time>2024-08-05T08:27:25Z</time>
      </trkpt>
      <trkpt lat="47.14985" lon="5.84425">
        <ele>330.4</ele>
        <time>2024-08-05T08:27:26Z</time>
      </trkpt>
      <trkpt lat="47.14985" lon="5.84425">
        <ele>330.4</ele>
        <time>2024-08-05T08:27:27Z</time>
      </trkpt>
      <trkpt lat="47.14985" lon="5.84425">
        <ele>330</ele>
        <time>2024-08-05T08:27:28Z</time>
      </trkpt>
      <trkpt lat="47.14985" lon="5.84425">
        <ele>330</ele>
        <time>2024-08-05T08:27:29Z</time>
      </trkpt>
      <trkpt lat="47.14985" lon="5.84425">
        <ele>330</ele>
        <time>2024-08-05T08:27:30Z</time>
      </trkpt>
      <trkpt lat="47.14985" lon="5.84425">
        <ele>330</ele>
        <time>2024-08-05T08:27:31Z</time>
      </trkpt>
      <trkpt lat="47.14985" lon="5.84425">
        <ele>330</ele>
        <time>2024-08-05T08:27:32Z</time>
      </trkpt>
      <trkpt lat="47.14985" lon="5.84425">
        <ele>329.8</ele>
        <time>2024-08-05T08:27:33Z</time>
      </trkpt>
      <trkpt lat="47.14985" lon="5.84425">
        <ele>329.8</ele>
        <time>2024-08-05T08:27:34Z</time>
      </trkpt>
      <trkpt lat="47.14985" lon="5.84425">
        <ele>330</ele>
        <time>2024-08-05T08:27:35Z</time>
      </trkpt>
      <trkpt lat="47.14985" lon="5.84425">
        <ele>330</ele>
        <time>2024-08-05T08:27:36Z</time>
      </trkpt>
      <trkpt lat="47.14985" lon="5.84425">
        <ele>329.8</ele>
        <time>2024-08-05T08:27:37Z</time>
      </trkpt>
      <trkpt lat="47.14985" lon="5.84425">
        <ele>330</ele>
        <time>2024-08-05T08:27:38Z</time>
      </trkpt>
      <trkpt lat="47.14985" lon="5.84425">
        <ele>329.8</ele>
        <time>2024-08-05T08:27:39Z</time>
      </trkpt>
      <trkpt lat="47.14985" lon="5.84425">
        <ele>330</ele>
        <time>2024-08-05T08:27:40Z</time>
      </trkpt>
      <trkpt lat="47.14985" lon="5.84426">
        <ele>330</ele>
        <time>2024-08-05T08:27:41Z</time>
      </trkpt>
      <trkpt lat="47.14985" lon="5.84426">
        <ele>329.8</ele>
        <time>2024-08-05T08:27:42Z</time>
      </trkpt>
      <trkpt lat="47.14985" lon="5.84426">
        <ele>330</ele>
        <time>2024-08-05T08:27:43Z</time>
      </trkpt>
      <trkpt lat="47.14985" lon="5.84426">
        <ele>330</ele>
        <time>2024-08-05T08:27:44Z</time>
      </trkpt>
      <trkpt lat="47.14985" lon="5.84426">
        <ele>330</ele>
        <time>2024-08-05T08:27:45Z</time>
      </trkpt>
      <trkpt lat="47.14985" lon="5.84426">
        <ele>330</ele>
        <time>2024-08-05T08:27:46Z</time>
      </trkpt>
      <trkpt lat="47.14985" lon="5.84426">
        <ele>330</ele>
        <time>2024-08-05T08:27:47Z</time>
      </trkpt>
      <trkpt lat="47.14985" lon="5.84426">
        <ele>330</ele>
        <time>2024-08-05T08:27:48Z</time>
      </trkpt>
      <trkpt lat="47.14985" lon="5.84426">
        <ele>330</ele>
        <time>2024-08-05T08:27:49Z</time>
      </trkpt>
      <trkpt lat="47.14985" lon="5.84426">
        <ele>329.8</ele>
        <time>2024-08-05T08:27:50Z</time>
      </trkpt>
      <trkpt lat="47.14985" lon="5.84426">
        <ele>329.8</ele>
        <time>2024-08-05T08:27:51Z</time>
      </trkpt>
      <trkpt lat="47.14985" lon="5.84426">
        <ele>329.8</ele>
        <time>2024-08-05T08:27:52Z</time>
      </trkpt>
      <trkpt lat="47.14985" lon="5.84426">
        <ele>329.8</ele>
        <time>2024-08-05T08:27:53Z</time>
      </trkpt>
      <trkpt lat="47.14985" lon="5.84426">
        <ele>329.8</ele>
        <time>2024-08-05T08:27:54Z</time>
      </trkpt>
      <trkpt lat="47.14986" lon="5.84426">
        <ele>329.8</ele>
        <time>2024-08-05T08:27:55Z</time>
      </trkpt>
      <trkpt lat="47.14986" lon="5.84426">
        <ele>329.8</ele>
        <time>2024-08-05T08:27:56Z</time>
      </trkpt>
      <trkpt lat="47.14986" lon="5.84426">
        <ele>329.8</ele>
        <time>2024-08-05T08:27:57Z</time>
      </trkpt>
      <trkpt lat="47.14986" lon="5.84426">
        <ele>329.8</ele>
        <time>2024-08-05T08:27:58Z</time>
      </trkpt>
      <trkpt lat="47.14986" lon="5.84426">
        <ele>329.8</ele>
        <time>2024-08-05T08:27:59Z</time>
      </trkpt>
      <trkpt lat="47.14986" lon="5.84426">
        <ele>329.6</ele>
        <time>2024-08-05T08:28:00Z</time>
      </trkpt>
      <trkpt lat="47.14987" lon="5.84426">
        <ele>329.6</ele>
        <time>2024-08-05T08:28:01Z</time>
      </trkpt>
      <trkpt lat="47.14987" lon="5.84426">
        <ele>329.8</ele>
        <time>2024-08-05T08:28:02Z</time>
      </trkpt>
      <trkpt lat="47.14987" lon="5.84426">
        <ele>329.6</ele>
        <time>2024-08-05T08:28:03Z</time>
      </trkpt>
      <trkpt lat="47.14987" lon="5.84426">
        <ele>329.6</ele>
        <time>2024-08-05T08:28:04Z</time>
      </trkpt>
      <trkpt lat="47.14987" lon="5.84426">
        <ele>329.4</ele>
        <time>2024-08-05T08:28:05Z</time>
      </trkpt>
      <trkpt lat="47.14987" lon="5.84426">
        <ele>329.4</ele>
        <time>2024-08-05T08:28:06Z</time>
      </trkpt>
      <trkpt lat="47.14987" lon="5.84426">
        <ele>329.4</ele>
        <time>2024-08-05T08:28:07Z</time>
      </trkpt>
      <trkpt lat="47.14987" lon="5.84426">
        <ele>329.4</ele>
        <time>2024-08-05T08:28:08Z</time>
      </trkpt>
      <trkpt lat="47.14987" lon="5.84426">
        <ele>329.6</ele>
        <time>2024-08-05T08:28:09Z</time>
      </trkpt>
      <trkpt lat="47.14987" lon="5.84426">
        <ele>329.6</ele>
        <time>2024-08-05T08:28:10Z</time>
      </trkpt>
      <trkpt lat="47.14987" lon="5.84426">
        <ele>329.4</ele>
        <time>2024-08-05T08:28:11Z</time>
      </trkpt>
      <trkpt lat="47.14987" lon="5.84426">
        <ele>329.6</ele>
        <time>2024-08-05T08:28:12Z</time>
      </trkpt>
      <trkpt lat="47.14987" lon="5.84426">
        <ele>329.6</ele>
        <time>2024-08-05T08:28:13Z</time>
      </trkpt>
      <trkpt lat="47.14987" lon="5.84426">
        <ele>329.4</ele>
        <time>2024-08-05T08:28:14Z</time>
      </trkpt>
      <trkpt lat="47.14987" lon="5.84426">
        <ele>329.4</ele>
        <time>2024-08-05T08:28:15Z</time>
      </trkpt>
      <trkpt lat="47.14987" lon="5.84426">
        <ele>329.4</ele>
        <time>2024-08-05T08:28:16Z</time>
      </trkpt>
      <trkpt lat="47.14987" lon="5.84426">
        <ele>329.4</ele>
        <time>2024-08-05T08:28:17Z</time>
      </trkpt>
      <trkpt lat="47.14987" lon="5.84426">
        <ele>329.4</ele>
        <time>2024-08-05T08:28:18Z</time>
      </trkpt>
      <trkpt lat="47.14987" lon="5.84426">
        <ele>329.6</ele>
        <time>2024-08-05T08:28:19Z</time>
      </trkpt>
      <trkpt lat="47.14987" lon="5.84426">
        <ele>329.4</ele>
        <time>2024-08-05T08:28:20Z</time>
      </trkpt>
      <trkpt lat="47.14987" lon="5.84426">
        <ele>329.4</ele>
        <time>2024-08-05T08:28:21Z</time>
      </trkpt>
      <trkpt lat="47.14987" lon="5.84426">
        <ele>329.4</ele>
        <time>2024-08-05T08:28:22Z</time>
      </trkpt>
      <trkpt lat="47.14987" lon="5.84426">
        <ele>329.4</ele>
        <time>2024-08-05T08:28:23Z</time>
      </trkpt>
      <trkpt lat="47.14987" lon="5.84426">
        <ele>329.2</ele>
        <time>2024-08-05T08:28:24Z</time>
      </trkpt>
      <trkpt lat="47.14987" lon="5.84426">
        <ele>329.2</ele>
        <time>2024-08-05T08:28:25Z</time>
      </trkpt>
      <trkpt lat="47.14987" lon="5.84426">
        <ele>329.4</ele>
        <time>2024-08-05T08:28:26Z</time>
      </trkpt>
      <trkpt lat="47.14987" lon="5.84426">
        <ele>329.4</ele>
        <time>2024-08-05T08:28:27Z</time>
      </trkpt>
      <trkpt lat="47.14987" lon="5.84426">
        <ele>329.4</ele>
        <time>2024-08-05T08:28:28Z</time>
      </trkpt>
      <trkpt lat="47.14987" lon="5.84426">
        <ele>329.4</ele>
        <time>2024-08-05T08:28:29Z</time>
      </trkpt>
      <trkpt lat="47.14987" lon="5.84426">
        <ele>329.4</ele>
        <time>2024-08-05T08:28:30Z</time>
      </trkpt>
      <trkpt lat="47.14987" lon="5.84426">
        <ele>329.4</ele>
        <time>2024-08-05T08:28:31Z</time>
      </trkpt>
      <trkpt lat="47.14987" lon="5.84426">
        <ele>329.4</ele>
        <time>2024-08-05T08:28:32Z</time>
      </trkpt>
      <trkpt lat="47.14987" lon="5.84426">
        <ele>329.4</ele>
        <time>2024-08-05T08:28:33Z</time>
      </trkpt>
      <trkpt lat="47.14987" lon="5.84426">
        <ele>329.4</ele>
        <time>2024-08-05T08:28:34Z</time>
      </trkpt>
      <trkpt lat="47.14987" lon="5.84426">
        <ele>329.4</ele>
        <time>2024-08-05T08:28:35Z</time>
      </trkpt>
      <trkpt lat="47.14987" lon="5.84426">
        <ele>329.4</ele>
        <time>2024-08-05T08:28:36Z</time>
      </trkpt>
      <trkpt lat="47.14987" lon="5.84426">
        <ele>329.4</ele>
        <time>2024-08-05T08:28:37Z</time>
      </trkpt>
      <trkpt lat="47.14987" lon="5.84426">
        <ele>329.4</ele>
        <time>2024-08-05T08:28:38Z</time>
      </trkpt>
      <trkpt lat="47.14987" lon="5.84426">
        <ele>329.4</ele>
        <time>2024-08-05T08:28:39Z</time>
      </trkpt>
      <trkpt lat="47.14987" lon="5.84426">
        <ele>329.6</ele>
        <time>2024-08-05T08:28:40Z</time>
      </trkpt>
      <trkpt lat="47.14987" lon="5.84426">
        <ele>329.4</ele>
        <time>2024-08-05T08:28:41Z</time>
      </trkpt>
      <trkpt lat="47.14987" lon="5.84426">
        <ele>329.4</ele>
        <time>2024-08-05T08:28:42Z</time>
      </trkpt>
      <trkpt lat="47.14987" lon="5.84427">
        <ele>329.4</ele>
        <time>2024-08-05T08:28:43Z</time>
      </trkpt>
      <trkpt lat="47.14987" lon="5.84427">
        <ele>329.4</ele>
        <time>2024-08-05T08:28:44Z</time>
      </trkpt>
      <trkpt lat="47.14987" lon="5.84427">
        <ele>329.4</ele>
        <time>2024-08-05T08:28:45Z</time>
      </trkpt>
      <trkpt lat="47.14987" lon="5.84427">
        <ele>329.4</ele>
        <time>2024-08-05T08:28:46Z</time>
      </trkpt>
      <trkpt lat="47.14987" lon="5.84427">
        <ele>329.4</ele>
        <time>2024-08-05T08:28:47Z</time>
      </trkpt>
      <trkpt lat="47.14987" lon="5.84427">
        <ele>329.4</ele>
        <time>2024-08-05T08:28:48Z</time>
      </trkpt>
      <trkpt lat="47.14987" lon="5.84427">
        <ele>329.4</ele>
        <time>2024-08-05T08:28:49Z</time>
      </trkpt>
      <trkpt lat="47.14987" lon="5.84427">
        <ele>329.4</ele>
        <time>2024-08-05T08:28:50Z</time>
      </trkpt>
      <trkpt lat="47.14987" lon="5.84427">
        <ele>329.2</ele>
        <time>2024-08-05T08:28:51Z</time>
      </trkpt>
      <trkpt lat="47.14987" lon="5.84427">
        <ele>329.4</ele>
        <time>2024-08-05T08:28:52Z</time>
      </trkpt>
      <trkpt lat="47.14987" lon="5.84427">
        <ele>329.2</ele>
        <time>2024-08-05T08:28:53Z</time>
      </trkpt>
      <trkpt lat="47.14987" lon="5.84427">
        <ele>329.4</ele>
        <time>2024-08-05T08:28:54Z</time>
      </trkpt>
      <trkpt lat="47.14987" lon="5.84427">
        <ele>329.4</ele>
        <time>2024-08-05T08:28:55Z</time>
      </trkpt>
      <trkpt lat="47.14987" lon="5.84427">
        <ele>329.4</ele>
        <time>2024-08-05T08:28:56Z</time>
      </trkpt>
      <trkpt lat="47.14987" lon="5.84427">
        <ele>329.4</ele>
        <time>2024-08-05T08:28:57Z</time>
      </trkpt>
      <trkpt lat="47.14987" lon="5.84427">
        <ele>329.4</ele>
        <time>2024-08-05T08:28:58Z</time>
      </trkpt>
      <trkpt lat="47.14987" lon="5.84427">
        <ele>329.4</ele>
        <time>2024-08-05T08:28:59Z</time>
      </trkpt>
      <trkpt lat="47.14987" lon="5.84428">
        <ele>329.4</ele>
        <time>2024-08-05T08:29:00Z</time>
      </trkpt>
      <trkpt lat="47.14987" lon="5.84428">
        <ele>329.4</ele>
        <time>2024-08-05T08:29:01Z</time>
      </trkpt>
      <trkpt lat="47.14987" lon="5.84428">
        <ele>329.4</ele>
        <time>2024-08-05T08:29:02Z</time>
      </trkpt>
      <trkpt lat="47.14987" lon="5.84428">
        <ele>329.4</ele>
        <time>2024-08-05T08:29:03Z</time>
      </trkpt>
      <trkpt lat="47.14987" lon="5.84428">
        <ele>329.4</ele>
        <time>2024-08-05T08:29:04Z</time>
      </trkpt>
      <trkpt lat="47.14987" lon="5.84428">
        <ele>329.4</ele>
        <time>2024-08-05T08:29:05Z</time>
      </trkpt>
      <trkpt lat="47.14987" lon="5.84428">
        <ele>329.2</ele>
        <time>2024-08-05T08:29:06Z</time>
      </trkpt>
      <trkpt lat="47.14987" lon="5.84428">
        <ele>329.4</ele>
        <time>2024-08-05T08:29:07Z</time>
      </trkpt>
      <trkpt lat="47.14987" lon="5.84428">
        <ele>329.2</ele>
        <time>2024-08-05T08:29:08Z</time>
      </trkpt>
      <trkpt lat="47.14987" lon="5.84428">
        <ele>329.4</ele>
        <time>2024-08-05T08:29:09Z</time>
      </trkpt>
      <trkpt lat="47.14987" lon="5.84428">
        <ele>329.4</ele>
        <time>2024-08-05T08:29:10Z</time>
      </trkpt>
      <trkpt lat="47.14987" lon="5.84428">
        <ele>329.4</ele>
        <time>2024-08-05T08:29:11Z</time>
      </trkpt>
      <trkpt lat="47.14987" lon="5.84428">
        <ele>329.4</ele>
        <time>2024-08-05T08:29:12Z</time>
      </trkpt>
      <trkpt lat="47.14987" lon="5.84428">
        <ele>329.4</ele>
        <time>2024-08-05T08:29:13Z</time>
      </trkpt>
      <trkpt lat="47.14987" lon="5.84428">
        <ele>329.4</ele>
        <time>2024-08-05T08:29:14Z</time>
      </trkpt>
      <trkpt lat="47.14987" lon="5.84428">
        <ele>329.4</ele>
        <time>2024-08-05T08:29:15Z</time>
      </trkpt>
      <trkpt lat="47.14987" lon="5.84428">
        <ele>329.4</ele>
        <time>2024-08-05T08:29:16Z</time>
      </trkpt>
      <trkpt lat="47.14986" lon="5.84428">
        <ele>329.4</ele>
        <time>2024-08-05T08:29:17Z</time>
      </trkpt>
      <trkpt lat="47.14986" lon="5.84428">
        <ele>329.4</ele>
        <time>2024-08-05T08:29:18Z</time>
      </trkpt>
      <trkpt lat="47.14986" lon="5.84428">
        <ele>329.4</ele>
        <time>2024-08-05T08:29:19Z</time>
      </trkpt>
      <trkpt lat="47.14986" lon="5.84428">
        <ele>329.4</ele>
        <time>2024-08-05T08:29:20Z</time>
      </trkpt>
      <trkpt lat="47.14986" lon="5.84428">
        <ele>329.4</ele>
        <time>2024-08-05T08:29:21Z</time>
      </trkpt>
      <trkpt lat="47.14986" lon="5.84428">
        <ele>329.4</ele>
        <time>2024-08-05T08:29:22Z</time>
      </trkpt>
      <trkpt lat="47.14986" lon="5.84428">
        <ele>329.4</ele>
        <time>2024-08-05T08:29:23Z</time>
      </trkpt>
      <trkpt lat="47.14986" lon="5.84428">
        <ele>329.6</ele>
        <time>2024-08-05T08:29:24Z</time>
      </trkpt>
      <trkpt lat="47.14986" lon="5.84428">
        <ele>329.6</ele>
        <time>2024-08-05T08:29:25Z</time>
      </trkpt>
      <trkpt lat="47.14986" lon="5.84428">
        <ele>329.6</ele>
        <time>2024-08-05T08:29:26Z</time>
      </trkpt>
      <trkpt lat="47.14986" lon="5.84428">
        <ele>329.4</ele>
        <time>2024-08-05T08:29:27Z</time>
      </trkpt>
      <trkpt lat="47.14986" lon="5.84428">
        <ele>329.4</ele>
        <time>2024-08-05T08:29:28Z</time>
      </trkpt>
      <trkpt lat="47.14986" lon="5.84428">
        <ele>329.4</ele>
        <time>2024-08-05T08:29:29Z</time>
      </trkpt>
      <trkpt lat="47.14986" lon="5.84428">
        <ele>329.4</ele>
        <time>2024-08-05T08:29:30Z</time>
      </trkpt>
      <trkpt lat="47.14986" lon="5.84428">
        <ele>329.4</ele>
        <time>2024-08-05T08:29:31Z</time>
      </trkpt>
      <trkpt lat="47.14986" lon="5.84428">
        <ele>329.4</ele>
        <time>2024-08-05T08:29:32Z</time>
      </trkpt>
      <trkpt lat="47.14986" lon="5.84428">
        <ele>329.6</ele>
        <time>2024-08-05T08:29:33Z</time>
      </trkpt>
      <trkpt lat="47.14986" lon="5.84428">
        <ele>329.6</ele>
        <time>2024-08-05T08:29:34Z</time>
      </trkpt>
      <trkpt lat="47.14986" lon="5.84428">
        <ele>329.6</ele>
        <time>2024-08-05T08:29:35Z</time>
      </trkpt>
      <trkpt lat="47.14986" lon="5.84428">
        <ele>329.4</ele>
        <time>2024-08-05T08:29:36Z</time>
      </trkpt>
      <trkpt lat="47.14986" lon="5.84428">
        <ele>329.6</ele>
        <time>2024-08-05T08:29:37Z</time>
      </trkpt>
      <trkpt lat="47.14986" lon="5.84428">
        <ele>329.4</ele>
        <time>2024-08-05T08:29:38Z</time>
      </trkpt>
      <trkpt lat="47.14986" lon="5.84428">
        <ele>329.4</ele>
        <time>2024-08-05T08:29:39Z</time>
      </trkpt>
      <trkpt lat="47.14986" lon="5.84429">
        <ele>329.6</ele>
        <time>2024-08-05T08:29:40Z</time>
      </trkpt>
      <trkpt lat="47.14986" lon="5.84429">
        <ele>329.4</ele>
        <time>2024-08-05T08:29:41Z</time>
      </trkpt>
      <trkpt lat="47.14986" lon="5.84429">
        <ele>329.6</ele>
        <time>2024-08-05T08:29:42Z</time>
      </trkpt>
      <trkpt lat="47.14986" lon="5.84429">
        <ele>329.4</ele>
        <time>2024-08-05T08:29:43Z</time>
      </trkpt>
      <trkpt lat="47.14986" lon="5.84429">
        <ele>329.4</ele>
        <time>2024-08-05T08:29:44Z</time>
      </trkpt>
      <trkpt lat="47.14986" lon="5.84429">
        <ele>329.4</ele>
        <time>2024-08-05T08:29:45Z</time>
      </trkpt>
      <trkpt lat="47.14986" lon="5.84429">
        <ele>329.4</ele>
        <time>2024-08-05T08:29:46Z</time>
      </trkpt>
      <trkpt lat="47.14986" lon="5.84429">
        <ele>329.4</ele>
        <time>2024-08-05T08:29:47Z</time>
      </trkpt>
      <trkpt lat="47.14986" lon="5.84429">
        <ele>329.4</ele>
        <time>2024-08-05T08:29:48Z</time>
      </trkpt>
      <trkpt lat="47.14986" lon="5.84429">
        <ele>329.4</ele>
        <time>2024-08-05T08:29:49Z</time>
      </trkpt>
      <trkpt lat="47.14986" lon="5.84429">
        <ele>329.6</ele>
        <time>2024-08-05T08:29:50Z</time>
      </trkpt>
      <trkpt lat="47.14986" lon="5.84429">
        <ele>329.4</ele>
        <time>2024-08-05T08:29:51Z</time>
      </trkpt>
      <trkpt lat="47.14986" lon="5.84429">
        <ele>329.4</ele>
        <time>2024-08-05T08:29:52Z</time>
      </trkpt>
      <trkpt lat="47.14986" lon="5.84429">
        <ele>329.4</ele>
        <time>2024-08-05T08:29:53Z</time>
      </trkpt>
      <trkpt lat="47.14986" lon="5.84429">
        <ele>329.6</ele>
        <time>2024-08-05T08:29:54Z</time>
      </trkpt>
      <trkpt lat="47.14986" lon="5.84429">
        <ele>329.4</ele>
        <time>2024-08-05T08:29:55Z</time>
      </trkpt>
      <trkpt lat="47.14986" lon="5.84429">
        <ele>329.4</ele>
        <time>2024-08-05T08:29:56Z</time>
      </trkpt>
      <trkpt lat="47.14986" lon="5.84429">
        <ele>329.4</ele>
        <time>2024-08-05T08:29:57Z</time>
      </trkpt>
      <trkpt lat="47.14986" lon="5.84429">
        <ele>329.4</ele>
        <time>2024-08-05T08:29:58Z</time>
      </trkpt>
      <trkpt lat="47.14986" lon="5.84429">
        <ele>329.4</ele>
        <time>2024-08-05T08:29:59Z</time>
      </trkpt>
      <trkpt lat="47.14986" lon="5.84429">
        <ele>329.6</ele>
        <time>2024-08-05T08:30:00Z</time>
      </trkpt>
      <trkpt lat="47.14986" lon="5.84429">
        <ele>329.4</ele>
        <time>2024-08-05T08:30:01Z</time>
      </trkpt>
      <trkpt lat="47.14986" lon="5.84429">
        <ele>329.4</ele>
        <time>2024-08-05T08:30:02Z</time>
      </trkpt>
      <trkpt lat="47.14986" lon="5.84429">
        <ele>329.4</ele>
        <time>2024-08-05T08:30:03Z</time>
      </trkpt>
      <trkpt lat="47.14986" lon="5.84429">
        <ele>329.4</ele>
        <time>2024-08-05T08:30:04Z</time>
      </trkpt>
      <trkpt lat="47.14986" lon="5.84429">
        <ele>329.6</ele>
        <time>2024-08-05T08:30:05Z</time>
      </trkpt>
      <trkpt lat="47.14986" lon="5.84429">
        <ele>329.6</ele>
        <time>2024-08-05T08:30:06Z</time>
      </trkpt>
      <trkpt lat="47.14986" lon="5.84429">
        <ele>329.4</ele>
        <time>2024-08-05T08:30:07Z</time>
      </trkpt>
      <trkpt lat="47.14986" lon="5.84429">
        <ele>329.4</ele>
        <time>2024-08-05T08:30:08Z</time>
      </trkpt>
      <trkpt lat="47.14986" lon="5.84429">
        <ele>329.4</ele>
        <time>2024-08-05T08:30:09Z</time>
      </trkpt>
      <trkpt lat="47.14986" lon="5.84429">
        <ele>329.6</ele>
        <time>2024-08-05T08:30:10Z</time>
      </trkpt>
      <trkpt lat="47.14986" lon="5.84429">
        <ele>329.6</ele>
        <time>2024-08-05T08:30:11Z</time>
      </trkpt>
      <trkpt lat="47.14986" lon="5.84429">
        <ele>329.6</ele>
        <time>2024-08-05T08:30:12Z</time>
      </trkpt>
      <trkpt lat="47.14986" lon="5.84429">
        <ele>329.4</ele>
        <time>2024-08-05T08:30:13Z</time>
      </trkpt>
      <trkpt lat="47.14986" lon="5.84429">
        <ele>329.4</ele>
        <time>2024-08-05T08:30:14Z</time>
      </trkpt>
      <trkpt lat="47.14986" lon="5.84429">
        <ele>329.6</ele>
        <time>2024-08-05T08:30:15Z</time>
      </trkpt>
      <trkpt lat="47.14986" lon="5.84429">
        <ele>329.4</ele>
        <time>2024-08-05T08:30:16Z</time>
      </trkpt>
      <trkpt lat="47.14986" lon="5.84429">
        <ele>329.6</ele>
        <time>2024-08-05T08:30:17Z</time>
      </trkpt>
      <trkpt lat="47.14986" lon="5.84429">
        <ele>329.6</ele>
        <time>2024-08-05T08:30:18Z</time>
      </trkpt>
      <trkpt lat="47.14986" lon="5.84429">
        <ele>329.4</ele>
        <time>2024-08-05T08:30:19Z</time>
      </trkpt>
      <trkpt lat="47.14986" lon="5.84429">
        <ele>329.4</ele>
        <time>2024-08-05T08:30:20Z</time>
      </trkpt>
      <trkpt lat="47.14986" lon="5.84429">
        <ele>329.4</ele>
        <time>2024-08-05T08:30:21Z</time>
      </trkpt>
      <trkpt lat="47.14986" lon="5.84429">
        <ele>329.4</ele>
        <time>2024-08-05T08:30:22Z</time>
      </trkpt>
      <trkpt lat="47.14986" lon="5.84429">
        <ele>329.6</ele>
        <time>2024-08-05T08:30:23Z</time>
      </trkpt>
      <trkpt lat="47.14986" lon="5.84429">
        <ele>329.6</ele>
        <time>2024-08-05T08:30:24Z</time>
      </trkpt>
      <trkpt lat="47.14986" lon="5.84429">
        <ele>329.4</ele>
        <time>2024-08-05T08:30:25Z</time>
      </trkpt>
      <trkpt lat="47.14986" lon="5.84429">
        <ele>329.6</ele>
        <time>2024-08-05T08:30:26Z</time>
      </trkpt>
      <trkpt lat="47.14986" lon="5.84429">
        <ele>329.6</ele>
        <time>2024-08-05T08:30:27Z</time>
      </trkpt>
      <trkpt lat="47.14986" lon="5.84429">
        <ele>329.6</ele>
        <time>2024-08-05T08:30:28Z</time>
      </trkpt>
      <trkpt lat="47.14986" lon="5.84429">
        <ele>329.6</ele>
        <time>2024-08-05T08:30:29Z</time>
      </trkpt>
      <trkpt lat="47.14986" lon="5.84429">
        <ele>329.4</ele>
        <time>2024-08-05T08:30:30Z</time>
      </trkpt>
      <trkpt lat="47.14986" lon="5.84429">
        <ele>329.6</ele>
        <time>2024-08-05T08:30:31Z</time>
      </trkpt>
      <trkpt lat="47.14986" lon="5.84429">
        <ele>329.6</ele>
        <time>2024-08-05T08:30:32Z</time>
      </trkpt>
      <trkpt lat="47.14986" lon="5.84429">
        <ele>329.6</ele>
        <time>2024-08-05T08:30:33Z</time>
      </trkpt>
      <trkpt lat="47.14986" lon="5.84429">
        <ele>329.6</ele>
        <time>2024-08-05T08:30:34Z</time>
      </trkpt>
      <trkpt lat="47.14986" lon="5.84429">
        <ele>329.6</ele>
        <time>2024-08-05T08:30:35Z</time>
      </trkpt>
      <trkpt lat="47.14986" lon="5.84429">
        <ele>329.6</ele>
        <time>2024-08-05T08:30:36Z</time>
      </trkpt>
      <trkpt lat="47.14986" lon="5.84429">
        <ele>329.6</ele>
        <time>2024-08-05T08:30:37Z</time>
      </trkpt>
      <trkpt lat="47.14986" lon="5.84429">
        <ele>329.6</ele>
        <time>2024-08-05T08:30:38Z</time>
      </trkpt>
      <trkpt lat="47.14986" lon="5.84429">
        <ele>329.6</ele>
        <time>2024-08-05T08:30:39Z</time>
      </trkpt>
      <trkpt lat="47.14986" lon="5.84429">
        <ele>329.6</ele>
        <time>2024-08-05T08:30:40Z</time>
      </trkpt>
      <trkpt lat="47.14986" lon="5.84429">
        <ele>329.4</ele>
        <time>2024-08-05T08:30:41Z</time>
      </trkpt>
      <trkpt lat="47.14986" lon="5.84429">
        <ele>329.6</ele>
        <time>2024-08-05T08:30:42Z</time>
      </trkpt>
      <trkpt lat="47.14986" lon="5.84429">
        <ele>329.6</ele>
        <time>2024-08-05T08:30:43Z</time>
      </trkpt>
      <trkpt lat="47.14986" lon="5.84429">
        <ele>329.6</ele>
        <time>2024-08-05T08:30:44Z</time>
      </trkpt>
      <trkpt lat="47.14986" lon="5.84429">
        <ele>329.6</ele>
        <time>2024-08-05T08:30:45Z</time>
      </trkpt>
      <trkpt lat="47.14986" lon="5.84429">
        <ele>329.6</ele>
        <time>2024-08-05T08:30:46Z</time>
      </trkpt>
      <trkpt lat="47.14986" lon="5.84429">
        <ele>329.8</ele>
        <time>2024-08-05T08:30:47Z</time>
      </trkpt>
      <trkpt lat="47.14986" lon="5.84429">
        <ele>329.6</ele>
        <time>2024-08-05T08:30:48Z</time>
      </trkpt>
      <trkpt lat="47.14986" lon="5.84429">
        <ele>329.6</ele>
        <time>2024-08-05T08:30:49Z</time>
      </trkpt>
      <trkpt lat="47.14986" lon="5.84429">
        <ele>329.6</ele>
        <time>2024-08-05T08:30:50Z</time>
      </trkpt>
      <trkpt lat="47.14986" lon="5.84429">
        <ele>329.6</ele>
        <time>2024-08-05T08:30:51Z</time>
      </trkpt>
      <trkpt lat="47.14986" lon="5.84429">
        <ele>329.6</ele>
        <time>2024-08-05T08:30:52Z</time>
      </trkpt>
      <trkpt lat="47.14986" lon="5.84429">
        <ele>329.6</ele>
        <time>2024-08-05T08:30:53Z</time>
      </trkpt>
      <trkpt lat="47.14986" lon="5.84429">
        <ele>329.6</ele>
        <time>2024-08-05T08:30:54Z</time>
      </trkpt>
      <trkpt lat="47.14986" lon="5.84429">
        <ele>329.8</ele>
        <time>2024-08-05T08:30:55Z</time>
      </trkpt>
      <trkpt lat="47.14986" lon="5.84429">
        <ele>329.6</ele>
        <time>2024-08-05T08:30:56Z</time>
      </trkpt>
      <trkpt lat="47.14986" lon="5.84429">
        <ele>329.8</ele>
        <time>2024-08-05T08:30:57Z</time>
      </trkpt>
      <trkpt lat="47.14986" lon="5.84429">
        <ele>329.6</ele>
        <time>2024-08-05T08:30:58Z</time>
      </trkpt>
      <trkpt lat="47.14986" lon="5.84429">
        <ele>329.8</ele>
        <time>2024-08-05T08:30:59Z</time>
      </trkpt>
      <trkpt lat="47.14986" lon="5.84429">
        <ele>329.6</ele>
        <time>2024-08-05T08:31:00Z</time>
      </trkpt>
      <trkpt lat="47.14986" lon="5.84429">
        <ele>329.6</ele>
        <time>2024-08-05T08:31:01Z</time>
      </trkpt>
      <trkpt lat="47.14986" lon="5.84429">
        <ele>329.6</ele>
        <time>2024-08-05T08:31:02Z</time>
      </trkpt>
      <trkpt lat="47.14986" lon="5.8443">
        <ele>329.6</ele>
        <time>2024-08-05T08:31:03Z</time>
      </trkpt>
      <trkpt lat="47.14986" lon="5.8443">
        <ele>329.6</ele>
        <time>2024-08-05T08:31:04Z</time>
      </trkpt>
      <trkpt lat="47.14986" lon="5.8443">
        <ele>329.6</ele>
        <time>2024-08-05T08:31:05Z</time>
      </trkpt>
      <trkpt lat="47.14986" lon="5.8443">
        <ele>329.6</ele>
        <time>2024-08-05T08:31:06Z</time>
      </trkpt>
      <trkpt lat="47.14986" lon="5.8443">
        <ele>329.6</ele>
        <time>2024-08-05T08:31:07Z</time>
      </trkpt>
      <trkpt lat="47.14986" lon="5.8443">
        <ele>329.6</ele>
        <time>2024-08-05T08:31:08Z</time>
      </trkpt>
      <trkpt lat="47.14986" lon="5.8443">
        <ele>329.6</ele>
        <time>2024-08-05T08:31:09Z</time>
      </trkpt>
      <trkpt lat="47.14986" lon="5.8443">
        <ele>329.6</ele>
        <time>2024-08-05T08:31:10Z</time>
      </trkpt>
      <trkpt lat="47.14986" lon="5.8443">
        <ele>329.6</ele>
        <time>2024-08-05T08:31:11Z</time>
      </trkpt>
      <trkpt lat="47.14986" lon="5.8443">
        <ele>329.6</ele>
        <time>2024-08-05T08:31:12Z</time>
      </trkpt>
      <trkpt lat="47.14986" lon="5.8443">
        <ele>329.6</ele>
        <time>2024-08-05T08:31:13Z</time>
      </trkpt>
      <trkpt lat="47.14986" lon="5.8443">
        <ele>329.4</ele>
        <time>2024-08-05T08:31:14Z</time>
      </trkpt>
      <trkpt lat="47.14986" lon="5.8443">
        <ele>329.6</ele>
        <time>2024-08-05T08:31:15Z</time>
      </trkpt>
      <trkpt lat="47.14986" lon="5.8443">
        <ele>329.6</ele>
        <time>2024-08-05T08:31:16Z</time>
      </trkpt>
      <trkpt lat="47.14986" lon="5.8443">
        <ele>329.6</ele>
        <time>2024-08-05T08:31:17Z</time>
      </trkpt>
      <trkpt lat="47.14986" lon="5.8443">
        <ele>329.4</ele>
        <time>2024-08-05T08:31:18Z</time>
      </trkpt>
      <trkpt lat="47.14986" lon="5.8443">
        <ele>329.6</ele>
        <time>2024-08-05T08:31:19Z</time>
      </trkpt>
      <trkpt lat="47.14986" lon="5.8443">
        <ele>329.4</ele>
        <time>2024-08-05T08:31:20Z</time>
      </trkpt>
      <trkpt lat="47.14986" lon="5.8443">
        <ele>329.4</ele>
        <time>2024-08-05T08:31:21Z</time>
      </trkpt>
      <trkpt lat="47.14986" lon="5.8443">
        <ele>329.6</ele>
        <time>2024-08-05T08:31:22Z</time>
      </trkpt>
      <trkpt lat="47.14986" lon="5.84431">
        <ele>329.6</ele>
        <time>2024-08-05T08:31:23Z</time>
      </trkpt>
      <trkpt lat="47.14986" lon="5.84431">
        <ele>329.4</ele>
        <time>2024-08-05T08:31:24Z</time>
      </trkpt>
      <trkpt lat="47.14986" lon="5.84431">
        <ele>329.4</ele>
        <time>2024-08-05T08:31:25Z</time>
      </trkpt>
      <trkpt lat="47.14986" lon="5.84431">
        <ele>329.6</ele>
        <time>2024-08-05T08:31:26Z</time>
      </trkpt>
      <trkpt lat="47.14986" lon="5.84431">
        <ele>329.4</ele>
        <time>2024-08-05T08:31:27Z</time>
      </trkpt>
      <trkpt lat="47.14986" lon="5.84431">
        <ele>329.6</ele>
        <time>2024-08-05T08:31:28Z</time>
      </trkpt>
      <trkpt lat="47.14986" lon="5.84431">
        <ele>329.4</ele>
        <time>2024-08-05T08:31:29Z</time>
      </trkpt>
      <trkpt lat="47.14986" lon="5.84431">
        <ele>329.4</ele>
        <time>2024-08-05T08:31:30Z</time>
      </trkpt>
      <trkpt lat="47.14986" lon="5.84431">
        <ele>329.4</ele>
        <time>2024-08-05T08:31:31Z</time>
      </trkpt>
      <trkpt lat="47.14986" lon="5.84431">
        <ele>329.4</ele>
        <time>2024-08-05T08:31:32Z</time>
      </trkpt>
      <trkpt lat="47.14986" lon="5.84431">
        <ele>329.6</ele>
        <time>2024-08-05T08:31:33Z</time>
      </trkpt>
      <trkpt lat="47.14986" lon="5.84431">
        <ele>329.6</ele>
        <time>2024-08-05T08:31:34Z</time>
      </trkpt>
      <trkpt lat="47.14986" lon="5.84431">
        <ele>329.4</ele>
        <time>2024-08-05T08:31:35Z</time>
      </trkpt>
      <trkpt lat="47.14986" lon="5.84431">
        <ele>329.6</ele>
        <time>2024-08-05T08:31:36Z</time>
      </trkpt>
      <trkpt lat="47.14985" lon="5.84431">
        <ele>329.6</ele>
        <time>2024-08-05T08:31:37Z</time>
      </trkpt>
      <trkpt lat="47.14985" lon="5.84431">
        <ele>329.6</ele>
        <time>2024-08-05T08:31:38Z</time>
      </trkpt>
      <trkpt lat="47.14985" lon="5.84432">
        <ele>329.6</ele>
        <time>2024-08-05T08:31:39Z</time>
      </trkpt>
      <trkpt lat="47.14985" lon="5.84432">
        <ele>329.6</ele>
        <time>2024-08-05T08:31:40Z</time>
      </trkpt>
      <trkpt lat="47.14985" lon="5.84432">
        <ele>329.6</ele>
        <time>2024-08-05T08:31:41Z</time>
      </trkpt>
      <trkpt lat="47.14985" lon="5.84432">
        <ele>329.6</ele>
        <time>2024-08-05T08:31:42Z</time>
      </trkpt>
      <trkpt lat="47.14985" lon="5.84432">
        <ele>329.6</ele>
        <time>2024-08-05T08:31:43Z</time>
      </trkpt>
      <trkpt lat="47.14985" lon="5.84432">
        <ele>329.6</ele>
        <time>2024-08-05T08:31:44Z</time>
      </trkpt>
      <trkpt lat="47.14985" lon="5.84432">
        <ele>329.6</ele>
        <time>2024-08-05T08:31:45Z</time>
      </trkpt>
      <trkpt lat="47.14985" lon="5.84432">
        <ele>329.6</ele>
        <time>2024-08-05T08:31:46Z</time>
      </trkpt>
      <trkpt lat="47.14985" lon="5.84432">
        <ele>329.6</ele>
        <time>2024-08-05T08:31:47Z</time>
      </trkpt>
      <trkpt lat="47.14985" lon="5.84432">
        <ele>329.6</ele>
        <time>2024-08-05T08:31:48Z</time>
      </trkpt>
      <trkpt lat="47.14985" lon="5.84432">
        <ele>329.6</ele>
        <time>2024-08-05T08:31:49Z</time>
      </trkpt>
      <trkpt lat="47.14985" lon="5.84432">
        <ele>329.6</ele>
        <time>2024-08-05T08:31:50Z</time>
      </trkpt>
      <trkpt lat="47.14985" lon="5.84432">
        <ele>329.6</ele>
        <time>2024-08-05T08:31:51Z</time>
      </trkpt>
      <trkpt lat="47.14985" lon="5.84432">
        <ele>329.8</ele>
        <time>2024-08-05T08:31:52Z</time>
      </trkpt>
      <trkpt lat="47.14985" lon="5.84432">
        <ele>329.6</ele>
        <time>2024-08-05T08:31:53Z</time>
      </trkpt>
      <trkpt lat="47.14985" lon="5.84432">
        <ele>329.6</ele>
        <time>2024-08-05T08:31:54Z</time>
      </trkpt>
      <trkpt lat="47.14985" lon="5.84432">
        <ele>329.6</ele>
        <time>2024-08-05T08:31:55Z</time>
      </trkpt>
      <trkpt lat="47.14985" lon="5.84432">
        <ele>329.4</ele>
        <time>2024-08-05T08:31:56Z</time>
      </trkpt>
      <trkpt lat="47.14985" lon="5.84432">
        <ele>329.6</ele>
        <time>2024-08-05T08:31:57Z</time>
      </trkpt>
      <trkpt lat="47.14985" lon="5.84432">
        <ele>329.6</ele>
        <time>2024-08-05T08:31:58Z</time>
      </trkpt>
      <trkpt lat="47.14985" lon="5.84432">
        <ele>329.6</ele>
        <time>2024-08-05T08:31:59Z</time>
      </trkpt>
      <trkpt lat="47.14985" lon="5.84432">
        <ele>329.6</ele>
        <time>2024-08-05T08:32:00Z</time>
      </trkpt>
      <trkpt lat="47.14985" lon="5.84432">
        <ele>329.6</ele>
        <time>2024-08-05T08:32:01Z</time>
      </trkpt>
      <trkpt lat="47.14985" lon="5.84432">
        <ele>329.6</ele>
        <time>2024-08-05T08:32:02Z</time>
      </trkpt>
      <trkpt lat="47.14985" lon="5.84432">
        <ele>329.6</ele>
        <time>2024-08-05T08:32:03Z</time>
      </trkpt>
      <trkpt lat="47.14985" lon="5.84432">
        <ele>329.6</ele>
        <time>2024-08-05T08:32:04Z</time>
      </trkpt>
      <trkpt lat="47.14985" lon="5.84432">
        <ele>329.6</ele>
        <time>2024-08-05T08:32:05Z</time>
      </trkpt>
      <trkpt lat="47.14985" lon="5.84432">
        <ele>329.6</ele>
        <time>2024-08-05T08:32:06Z</time>
      </trkpt>
      <trkpt lat="47.14985" lon="5.84432">
        <ele>329.8</ele>
        <time>2024-08-05T08:32:07Z</time>
      </trkpt>
      <trkpt lat="47.14985" lon="5.84432">
        <ele>329.6</ele>
        <time>2024-08-05T08:32:08Z</time>
      </trkpt>
      <trkpt lat="47.14985" lon="5.84432">
        <ele>329.6</ele>
        <time>2024-08-05T08:32:09Z</time>
      </trkpt>
      <trkpt lat="47.14985" lon="5.84432">
        <ele>329.6</ele>
        <time>2024-08-05T08:32:10Z</time>
      </trkpt>
      <trkpt lat="47.14985" lon="5.84432">
        <ele>329.4</ele>
        <time>2024-08-05T08:32:11Z</time>
      </trkpt>
      <trkpt lat="47.14985" lon="5.84432">
        <ele>329.4</ele>
        <time>2024-08-05T08:32:12Z</time>
      </trkpt>
      <trkpt lat="47.14985" lon="5.84432">
        <ele>329.6</ele>
        <time>2024-08-05T08:32:13Z</time>
      </trkpt>
      <trkpt lat="47.14985" lon="5.84432">
        <ele>329.6</ele>
        <time>2024-08-05T08:32:14Z</time>
      </trkpt>
      <trkpt lat="47.14985" lon="5.84432">
        <ele>329.6</ele>
        <time>2024-08-05T08:32:15Z</time>
      </trkpt>
      <trkpt lat="47.14985" lon="5.84432">
        <ele>329.6</ele>
        <time>2024-08-05T08:32:16Z</time>
      </trkpt>
      <trkpt lat="47.14985" lon="5.84432">
        <ele>329.4</ele>
        <time>2024-08-05T08:32:17Z</time>
      </trkpt>
      <trkpt lat="47.14985" lon="5.84432">
        <ele>329.4</ele>
        <time>2024-08-05T08:32:18Z</time>
      </trkpt>
      <trkpt lat="47.14985" lon="5.84432">
        <ele>329.6</ele>
        <time>2024-08-05T08:32:19Z</time>
      </trkpt>
      <trkpt lat="47.14985" lon="5.84432">
        <ele>329.4</ele>
        <time>2024-08-05T08:32:20Z</time>
      </trkpt>
      <trkpt lat="47.14985" lon="5.84432">
        <ele>329.6</ele>
        <time>2024-08-05T08:32:21Z</time>
      </trkpt>
      <trkpt lat="47.14985" lon="5.84432">
        <ele>329.6</ele>
        <time>2024-08-05T08:32:22Z</time>
      </trkpt>
      <trkpt lat="47.14985" lon="5.84432">
        <ele>329.6</ele>
        <time>2024-08-05T08:32:23Z</time>
      </trkpt>
      <trkpt lat="47.14985" lon="5.84432">
        <ele>329.6</ele>
        <time>2024-08-05T08:32:24Z</time>
      </trkpt>
      <trkpt lat="47.14985" lon="5.84432">
        <ele>329.6</ele>
        <time>2024-08-05T08:32:25Z</time>
      </trkpt>
      <trkpt lat="47.14985" lon="5.84432">
        <ele>329.6</ele>
        <time>2024-08-05T08:32:26Z</time>
      </trkpt>
      <trkpt lat="47.14985" lon="5.84432">
        <ele>329.6</ele>
        <time>2024-08-05T08:32:27Z</time>
      </trkpt>
      <trkpt lat="47.14985" lon="5.84432">
        <ele>329.8</ele>
        <time>2024-08-05T08:32:28Z</time>
      </trkpt>
      <trkpt lat="47.14985" lon="5.84432">
        <ele>329.6</ele>
        <time>2024-08-05T08:32:29Z</time>
      </trkpt>
      <trkpt lat="47.14985" lon="5.84432">
        <ele>329.6</ele>
        <time>2024-08-05T08:32:30Z</time>
      </trkpt>
      <trkpt lat="47.14985" lon="5.84432">
        <ele>329.6</ele>
        <time>2024-08-05T08:32:31Z</time>
      </trkpt>
      <trkpt lat="47.14985" lon="5.84432">
        <ele>329.8</ele>
        <time>2024-08-05T08:32:32Z</time>
      </trkpt>
      <trkpt lat="47.14985" lon="5.84432">
        <ele>329.8</ele>
        <time>2024-08-05T08:32:33Z</time>
      </trkpt>
      <trkpt lat="47.14985" lon="5.84432">
        <ele>329.6</ele>
        <time>2024-08-05T08:32:34Z</time>
      </trkpt>
      <trkpt lat="47.14985" lon="5.84432">
        <ele>329.8</ele>
        <time>2024-08-05T08:32:35Z</time>
      </trkpt>
      <trkpt lat="47.14985" lon="5.84432">
        <ele>329.8</ele>
        <time>2024-08-05T08:32:36Z</time>
      </trkpt>
      <trkpt lat="47.14985" lon="5.84432">
        <ele>329.8</ele>
        <time>2024-08-05T08:32:37Z</time>
      </trkpt>
      <trkpt lat="47.14985" lon="5.84432">
        <ele>329.8</ele>
        <time>2024-08-05T08:32:38Z</time>
      </trkpt>
      <trkpt lat="47.14985" lon="5.84433">
        <ele>329.8</ele>
        <time>2024-08-05T08:32:39Z</time>
      </trkpt>
      <trkpt lat="47.14985" lon="5.84433">
        <ele>329.8</ele>
        <time>2024-08-05T08:32:40Z</time>
      </trkpt>
      <trkpt lat="47.14985" lon="5.84433">
        <ele>329.6</ele>
        <time>2024-08-05T08:32:41Z</time>
      </trkpt>
      <trkpt lat="47.14985" lon="5.84433">
        <ele>329.6</ele>
        <time>2024-08-05T08:32:42Z</time>
      </trkpt>
      <trkpt lat="47.14985" lon="5.84433">
        <ele>329.8</ele>
        <time>2024-08-05T08:32:43Z</time>
      </trkpt>
      <trkpt lat="47.14985" lon="5.84433">
        <ele>329.6</ele>
        <time>2024-08-05T08:32:44Z</time>
      </trkpt>
      <trkpt lat="47.14985" lon="5.84433">
        <ele>329.6</ele>
        <time>2024-08-05T08:32:45Z</time>
      </trkpt>
      <trkpt lat="47.14985" lon="5.84433">
        <ele>329.8</ele>
        <time>2024-08-05T08:32:46Z</time>
      </trkpt>
      <trkpt lat="47.14985" lon="5.84433">
        <ele>329.6</ele>
        <time>2024-08-05T08:32:47Z</time>
      </trkpt>
      <trkpt lat="47.14985" lon="5.84433">
        <ele>329.6</ele>
        <time>2024-08-05T08:32:48Z</time>
      </trkpt>
      <trkpt lat="47.14985" lon="5.84433">
        <ele>329.6</ele>
        <time>2024-08-05T08:32:49Z</time>
      </trkpt>
      <trkpt lat="47.14985" lon="5.84433">
        <ele>329.6</ele>
        <time>2024-08-05T08:32:50Z</time>
      </trkpt>
      <trkpt lat="47.14985" lon="5.84433">
        <ele>329.6</ele>
        <time>2024-08-05T08:32:51Z</time>
      </trkpt>
      <trkpt lat="47.14985" lon="5.84433">
        <ele>329.8</ele>
        <time>2024-08-05T08:32:52Z</time>
      </trkpt>
      <trkpt lat="47.14985" lon="5.84433">
        <ele>329.6</ele>
        <time>2024-08-05T08:32:53Z</time>
      </trkpt>
      <trkpt lat="47.14985" lon="5.84433">
        <ele>329.6</ele>
        <time>2024-08-05T08:32:54Z</time>
      </trkpt>
      <trkpt lat="47.14985" lon="5.84433">
        <ele>329.6</ele>
        <time>2024-08-05T08:32:55Z</time>
      </trkpt>
      <trkpt lat="47.14985" lon="5.84433">
        <ele>329.6</ele>
        <time>2024-08-05T08:32:56Z</time>
      </trkpt>
      <trkpt lat="47.14985" lon="5.84433">
        <ele>329.6</ele>
        <time>2024-08-05T08:32:57Z</time>
      </trkpt>
      <trkpt lat="47.14985" lon="5.84433">
        <ele>329.6</ele>
        <time>2024-08-05T08:32:58Z</time>
      </trkpt>
      <trkpt lat="47.14985" lon="5.84433">
        <ele>329.6</ele>
        <time>2024-08-05T08:32:59Z</time>
      </trkpt>
      <trkpt lat="47.14985" lon="5.84433">
        <ele>329.8</ele>
        <time>2024-08-05T08:33:00Z</time>
      </trkpt>
      <trkpt lat="47.14985" lon="5.84433">
        <ele>329.8</ele>
        <time>2024-08-05T08:33:01Z</time>
      </trkpt>
      <trkpt lat="47.14985" lon="5.84433">
        <ele>329.8</ele>
        <time>2024-08-05T08:33:02Z</time>
      </trkpt>
      <trkpt lat="47.14985" lon="5.84433">
        <ele>329.6</ele>
        <time>2024-08-05T08:33:03Z</time>
      </trkpt>
      <trkpt lat="47.14985" lon="5.84433">
        <ele>329.6</ele>
        <time>2024-08-05T08:33:04Z</time>
      </trkpt>
      <trkpt lat="47.14985" lon="5.84433">
        <ele>329.8</ele>
        <time>2024-08-05T08:33:05Z</time>
      </trkpt>
      <trkpt lat="47.14985" lon="5.84433">
        <ele>329.6</ele>
        <time>2024-08-05T08:33:06Z</time>
      </trkpt>
      <trkpt lat="47.14985" lon="5.84433">
        <ele>329.6</ele>
        <time>2024-08-05T08:33:07Z</time>
      </trkpt>
      <trkpt lat="47.14985" lon="5.84433">
        <ele>329.6</ele>
        <time>2024-08-05T08:33:08Z</time>
      </trkpt>
      <trkpt lat="47.14985" lon="5.84433">
        <ele>329.6</ele>
        <time>2024-08-05T08:33:09Z</time>
      </trkpt>
      <trkpt lat="47.14985" lon="5.84433">
        <ele>329.6</ele>
        <time>2024-08-05T08:33:10Z</time>
      </trkpt>
      <trkpt lat="47.14985" lon="5.84433">
        <ele>329.6</ele>
        <time>2024-08-05T08:33:11Z</time>
      </trkpt>
      <trkpt lat="47.14985" lon="5.84433">
        <ele>329.6</ele>
        <time>2024-08-05T08:33:12Z</time>
      </trkpt>
      <trkpt lat="47.14985" lon="5.84433">
        <ele>329.8</ele>
        <time>2024-08-05T08:33:13Z</time>
      </trkpt>
      <trkpt lat="47.14985" lon="5.84434">
        <ele>329.6</ele>
        <time>2024-08-05T08:33:14Z</time>
      </trkpt>
      <trkpt lat="47.14985" lon="5.84434">
        <ele>329.6</ele>
        <time>2024-08-05T08:33:15Z</time>
      </trkpt>
      <trkpt lat="47.14985" lon="5.84434">
        <ele>329.6</ele>
        <time>2024-08-05T08:33:16Z</time>
      </trkpt>
      <trkpt lat="47.14985" lon="5.84434">
        <ele>329.8</ele>
        <time>2024-08-05T08:33:17Z</time>
      </trkpt>
      <trkpt lat="47.14985" lon="5.84434">
        <ele>329.6</ele>
        <time>2024-08-05T08:33:18Z</time>
      </trkpt>
      <trkpt lat="47.14985" lon="5.84434">
        <ele>329.6</ele>
        <time>2024-08-05T08:33:19Z</time>
      </trkpt>
      <trkpt lat="47.14985" lon="5.84434">
        <ele>329.6</ele>
        <time>2024-08-05T08:33:20Z</time>
      </trkpt>
      <trkpt lat="47.14985" lon="5.84434">
        <ele>329.6</ele>
        <time>2024-08-05T08:33:21Z</time>
      </trkpt>
      <trkpt lat="47.14985" lon="5.84434">
        <ele>329.6</ele>
        <time>2024-08-05T08:33:22Z</time>
      </trkpt>
      <trkpt lat="47.14985" lon="5.84434">
        <ele>329.6</ele>
        <time>2024-08-05T08:33:23Z</time>
      </trkpt>
      <trkpt lat="47.14985" lon="5.84434">
        <ele>329.6</ele>
        <time>2024-08-05T08:33:24Z</time>
      </trkpt>
      <trkpt lat="47.14985" lon="5.84434">
        <ele>329.4</ele>
        <time>2024-08-05T08:33:25Z</time>
      </trkpt>
      <trkpt lat="47.14985" lon="5.84434">
        <ele>329.6</ele>
        <time>2024-08-05T08:33:26Z</time>
      </trkpt>
      <trkpt lat="47.14985" lon="5.84434">
        <ele>329.6</ele>
        <time>2024-08-05T08:33:27Z</time>
      </trkpt>
      <trkpt lat="47.14985" lon="5.84434">
        <ele>329.6</ele>
        <time>2024-08-05T08:33:28Z</time>
      </trkpt>
      <trkpt lat="47.14985" lon="5.84434">
        <ele>329.6</ele>
        <time>2024-08-05T08:33:29Z</time>
      </trkpt>
      <trkpt lat="47.14985" lon="5.84434">
        <ele>329.6</ele>
        <time>2024-08-05T08:33:30Z</time>
      </trkpt>
      <trkpt lat="47.14985" lon="5.84434">
        <ele>329.6</ele>
        <time>2024-08-05T08:33:31Z</time>
      </trkpt>
      <trkpt lat="47.14985" lon="5.84434">
        <ele>329.6</ele>
        <time>2024-08-05T08:33:32Z</time>
      </trkpt>
      <trkpt lat="47.14985" lon="5.84434">
        <ele>329.6</ele>
        <time>2024-08-05T08:33:33Z</time>
      </trkpt>
      <trkpt lat="47.14985" lon="5.84434">
        <ele>329.6</ele>
        <time>2024-08-05T08:33:34Z</time>
      </trkpt>
      <trkpt lat="47.14985" lon="5.84434">
        <ele>329.6</ele>
        <time>2024-08-05T08:33:35Z</time>
      </trkpt>
      <trkpt lat="47.14985" lon="5.84434">
        <ele>329.6</ele>
        <time>2024-08-05T08:33:36Z</time>
      </trkpt>
      <trkpt lat="47.14985" lon="5.84434">
        <ele>329.6</ele>
        <time>2024-08-05T08:33:37Z</time>
      </trkpt>
      <trkpt lat="47.14985" lon="5.84434">
        <ele>329.6</ele>
        <time>2024-08-05T08:33:38Z</time>
      </trkpt>
      <trkpt lat="47.14985" lon="5.84434">
        <ele>329.6</ele>
        <time>2024-08-05T08:33:39Z</time>
      </trkpt>
      <trkpt lat="47.14985" lon="5.84434">
        <ele>329.6</ele>
        <time>2024-08-05T08:33:40Z</time>
      </trkpt>
      <trkpt lat="47.14985" lon="5.84434">
        <ele>329.6</ele>
        <time>2024-08-05T08:33:41Z</time>
      </trkpt>
      <trkpt lat="47.14985" lon="5.84434">
        <ele>329.6</ele>
        <time>2024-08-05T08:33:42Z</time>
      </trkpt>
      <trkpt lat="47.14985" lon="5.84434">
        <ele>329.6</ele>
        <time>2024-08-05T08:33:43Z</time>
      </trkpt>
      <trkpt lat="47.14985" lon="5.84434">
        <ele>329.6</ele>
        <time>2024-08-05T08:33:44Z</time>
      </trkpt>
      <trkpt lat="47.14985" lon="5.84434">
        <ele>329.6</ele>
        <time>2024-08-05T08:33:45Z</time>
      </trkpt>
      <trkpt lat="47.14985" lon="5.84434">
        <ele>329.6</ele>
        <time>2024-08-05T08:33:46Z</time>
      </trkpt>
      <trkpt lat="47.14985" lon="5.84434">
        <ele>329.6</ele>
        <time>2024-08-05T08:33:47Z</time>
      </trkpt>
      <trkpt lat="47.14985" lon="5.84434">
        <ele>329.6</ele>
        <time>2024-08-05T08:33:48Z</time>
      </trkpt>
      <trkpt lat="47.14985" lon="5.84434">
        <ele>329.6</ele>
        <time>2024-08-05T08:33:49Z</time>
      </trkpt>
      <trkpt lat="47.14985" lon="5.84434">
        <ele>329.6</ele>
        <time>2024-08-05T08:33:50Z</time>
      </trkpt>
      <trkpt lat="47.14985" lon="5.84434">
        <ele>329.6</ele>
        <time>2024-08-05T08:33:51Z</time>
      </trkpt>
      <trkpt lat="47.14985" lon="5.84434">
        <ele>329.6</ele>
        <time>2024-08-05T08:33:52Z</time>
      </trkpt>
      <trkpt lat="47.14985" lon="5.84434">
        <ele>329.6</ele>
        <time>2024-08-05T08:33:53Z</time>
      </trkpt>
      <trkpt lat="47.14985" lon="5.84434">
        <ele>329.6</ele>
        <time>2024-08-05T08:33:54Z</time>
      </trkpt>
      <trkpt lat="47.14985" lon="5.84434">
        <ele>329.6</ele>
        <time>2024-08-05T08:33:55Z</time>
      </trkpt>
      <trkpt lat="47.14985" lon="5.84434">
        <ele>329.4</ele>
        <time>2024-08-05T08:33:56Z</time>
      </trkpt>
      <trkpt lat="47.14985" lon="5.84434">
        <ele>329.6</ele>
        <time>2024-08-05T08:33:57Z</time>
      </trkpt>
      <trkpt lat="47.14985" lon="5.84434">
        <ele>329.6</ele>
        <time>2024-08-05T08:33:58Z</time>
      </trkpt>
      <trkpt lat="47.14985" lon="5.84434">
        <ele>329.6</ele>
        <time>2024-08-05T08:33:59Z</time>
      </trkpt>
      <trkpt lat="47.14985" lon="5.84434">
        <ele>329.6</ele>
        <time>2024-08-05T08:34:00Z</time>
      </trkpt>
      <trkpt lat="47.14985" lon="5.84435">
        <ele>329.6</ele>
        <time>2024-08-05T08:34:01Z</time>
      </trkpt>
      <trkpt lat="47.14985" lon="5.84435">
        <ele>329.6</ele>
        <time>2024-08-05T08:34:02Z</time>
      </trkpt>
      <trkpt lat="47.14985" lon="5.84435">
        <ele>329.6</ele>
        <time>2024-08-05T08:34:03Z</time>
      </trkpt>
      <trkpt lat="47.14985" lon="5.84435">
        <ele>329.6</ele>
        <time>2024-08-05T08:34:04Z</time>
      </trkpt>
      <trkpt lat="47.14985" lon="5.84435">
        <ele>329.4</ele>
        <time>2024-08-05T08:34:05Z</time>
      </trkpt>
      <trkpt lat="47.14985" lon="5.84435">
        <ele>329.6</ele>
        <time>2024-08-05T08:34:06Z</time>
      </trkpt>
      <trkpt lat="47.14985" lon="5.84435">
        <ele>329.6</ele>
        <time>2024-08-05T08:34:07Z</time>
      </trkpt>
      <trkpt lat="47.14985" lon="5.84435">
        <ele>329.4</ele>
        <time>2024-08-05T08:34:08Z</time>
      </trkpt>
      <trkpt lat="47.14985" lon="5.84435">
        <ele>329.6</ele>
        <time>2024-08-05T08:34:09Z</time>
      </trkpt>
      <trkpt lat="47.14985" lon="5.84435">
        <ele>329.6</ele>
        <time>2024-08-05T08:34:10Z</time>
      </trkpt>
      <trkpt lat="47.14985" lon="5.84435">
        <ele>329.6</ele>
        <time>2024-08-05T08:34:11Z</time>
      </trkpt>
      <trkpt lat="47.14986" lon="5.84435">
        <ele>329.6</ele>
        <time>2024-08-05T08:34:12Z</time>
      </trkpt>
      <trkpt lat="47.14986" lon="5.84435">
        <ele>329.6</ele>
        <time>2024-08-05T08:34:13Z</time>
      </trkpt>
      <trkpt lat="47.14986" lon="5.84435">
        <ele>329.6</ele>
        <time>2024-08-05T08:34:14Z</time>
      </trkpt>
      <trkpt lat="47.14986" lon="5.84435">
        <ele>329.8</ele>
        <time>2024-08-05T08:34:15Z</time>
      </trkpt>
      <trkpt lat="47.14986" lon="5.84435">
        <ele>329.8</ele>
        <time>2024-08-05T08:34:16Z</time>
      </trkpt>
      <trkpt lat="47.14986" lon="5.84435">
        <ele>329.6</ele>
        <time>2024-08-05T08:34:17Z</time>
      </trkpt>
      <trkpt lat="47.14986" lon="5.84435">
        <ele>329.6</ele>
        <time>2024-08-05T08:34:18Z</time>
      </trkpt>
      <trkpt lat="47.14986" lon="5.84435">
        <ele>329.8</ele>
        <time>2024-08-05T08:34:19Z</time>
      </trkpt>
      <trkpt lat="47.14986" lon="5.84435">
        <ele>329.6</ele>
        <time>2024-08-05T08:34:20Z</time>
      </trkpt>
      <trkpt lat="47.14986" lon="5.84435">
        <ele>329.8</ele>
        <time>2024-08-05T08:34:21Z</time>
      </trkpt>
      <trkpt lat="47.14985" lon="5.84435">
        <ele>329.8</ele>
        <time>2024-08-05T08:34:22Z</time>
      </trkpt>
      <trkpt lat="47.14985" lon="5.84435">
        <ele>329.6</ele>
        <time>2024-08-05T08:34:23Z</time>
      </trkpt>
      <trkpt lat="47.14985" lon="5.84435">
        <ele>329.8</ele>
        <time>2024-08-05T08:34:24Z</time>
      </trkpt>
      <trkpt lat="47.14985" lon="5.84435">
        <ele>329.6</ele>
        <time>2024-08-05T08:34:25Z</time>
      </trkpt>
      <trkpt lat="47.14985" lon="5.84435">
        <ele>329.6</ele>
        <time>2024-08-05T08:34:26Z</time>
      </trkpt>
      <trkpt lat="47.14985" lon="5.84435">
        <ele>329.6</ele>
        <time>2024-08-05T08:34:27Z</time>
      </trkpt>
      <trkpt lat="47.14985" lon="5.84435">
        <ele>329.6</ele>
        <time>2024-08-05T08:34:28Z</time>
      </trkpt>
      <trkpt lat="47.14985" lon="5.84435">
        <ele>329.6</ele>
        <time>2024-08-05T08:34:29Z</time>
      </trkpt>
      <trkpt lat="47.14985" lon="5.84435">
        <ele>329.6</ele>
        <time>2024-08-05T08:34:30Z</time>
      </trkpt>
      <trkpt lat="47.14985" lon="5.84435">
        <ele>329.8</ele>
        <time>2024-08-05T08:34:31Z</time>
      </trkpt>
      <trkpt lat="47.14986" lon="5.84435">
        <ele>329.8</ele>
        <time>2024-08-05T08:34:32Z</time>
      </trkpt>
      <trkpt lat="47.14986" lon="5.84435">
        <ele>329.8</ele>
        <time>2024-08-05T08:34:33Z</time>
      </trkpt>
      <trkpt lat="47.14986" lon="5.84435">
        <ele>329.6</ele>
        <time>2024-08-05T08:34:34Z</time>
      </trkpt>
      <trkpt lat="47.14986" lon="5.84435">
        <ele>329.8</ele>
        <time>2024-08-05T08:34:35Z</time>
      </trkpt>
      <trkpt lat="47.14986" lon="5.84435">
        <ele>329.8</ele>
        <time>2024-08-05T08:34:36Z</time>
      </trkpt>
      <trkpt lat="47.14986" lon="5.84435">
        <ele>329.6</ele>
        <time>2024-08-05T08:34:37Z</time>
      </trkpt>
      <trkpt lat="47.14986" lon="5.84435">
        <ele>329.8</ele>
        <time>2024-08-05T08:34:38Z</time>
      </trkpt>
      <trkpt lat="47.14986" lon="5.84435">
        <ele>329.8</ele>
        <time>2024-08-05T08:34:39Z</time>
      </trkpt>
      <trkpt lat="47.14986" lon="5.84435">
        <ele>329.8</ele>
        <time>2024-08-05T08:34:40Z</time>
      </trkpt>
      <trkpt lat="47.14986" lon="5.84435">
        <ele>329.8</ele>
        <time>2024-08-05T08:34:41Z</time>
      </trkpt>
      <trkpt lat="47.14986" lon="5.84435">
        <ele>329.8</ele>
        <time>2024-08-05T08:34:42Z</time>
      </trkpt>
      <trkpt lat="47.14986" lon="5.84435">
        <ele>330</ele>
        <time>2024-08-05T08:34:43Z</time>
      </trkpt>
      <trkpt lat="47.14986" lon="5.84435">
        <ele>330.2</ele>
        <time>2024-08-05T08:34:44Z</time>
      </trkpt>
      <trkpt lat="47.14986" lon="5.84435">
        <ele>330</ele>
        <time>2024-08-05T08:34:45Z</time>
      </trkpt>
      <trkpt lat="47.14986" lon="5.84434">
        <ele>330</ele>
        <time>2024-08-05T08:34:46Z</time>
      </trkpt>
      <trkpt lat="47.14986" lon="5.84434">
        <ele>330</ele>
        <time>2024-08-05T08:34:47Z</time>
      </trkpt>
      <trkpt lat="47.14986" lon="5.84434">
        <ele>330</ele>
        <time>2024-08-05T08:34:48Z</time>
      </trkpt>
      <trkpt lat="47.14986" lon="5.84434">
        <ele>330.2</ele>
        <time>2024-08-05T08:34:49Z</time>
      </trkpt>
      <trkpt lat="47.14986" lon="5.84433">
        <ele>330.2</ele>
        <time>2024-08-05T08:34:50Z</time>
      </trkpt>
      <trkpt lat="47.14986" lon="5.84433">
        <ele>330.2</ele>
        <time>2024-08-05T08:34:51Z</time>
      </trkpt>
      <trkpt lat="47.14986" lon="5.84433">
        <ele>330.4</ele>
        <time>2024-08-05T08:34:52Z</time>
      </trkpt>
      <trkpt lat="47.14986" lon="5.84433">
        <ele>330.4</ele>
        <time>2024-08-05T08:34:53Z</time>
      </trkpt>
      <trkpt lat="47.14986" lon="5.84433">
        <ele>330.4</ele>
        <time>2024-08-05T08:34:54Z</time>
      </trkpt>
      <trkpt lat="47.14986" lon="5.84432">
        <ele>330.4</ele>
        <time>2024-08-05T08:34:55Z</time>
      </trkpt>
      <trkpt lat="47.14986" lon="5.84432">
        <ele>330.4</ele>
        <time>2024-08-05T08:34:56Z</time>
      </trkpt>
      <trkpt lat="47.14986" lon="5.84432">
        <ele>330.4</ele>
        <time>2024-08-05T08:34:57Z</time>
      </trkpt>
      <trkpt lat="47.14985" lon="5.84432">
        <ele>330.6</ele>
        <time>2024-08-05T08:34:58Z</time>
      </trkpt>
      <trkpt lat="47.14985" lon="5.84432">
        <ele>330.4</ele>
        <time>2024-08-05T08:34:59Z</time>
      </trkpt>
      <trkpt lat="47.14985" lon="5.84432">
        <ele>330.6</ele>
        <time>2024-08-05T08:35:00Z</time>
      </trkpt>
      <trkpt lat="47.14985" lon="5.84431">
        <ele>330.4</ele>
        <time>2024-08-05T08:35:01Z</time>
      </trkpt>
      <trkpt lat="47.14985" lon="5.84431">
        <ele>330.4</ele>
        <time>2024-08-05T08:35:02Z</time>
      </trkpt>
      <trkpt lat="47.14984" lon="5.8443">
        <ele>330.6</ele>
        <time>2024-08-05T08:35:03Z</time>
      </trkpt>
      <trkpt lat="47.14984" lon="5.8443">
        <ele>330.6</ele>
        <time>2024-08-05T08:35:04Z</time>
      </trkpt>
      <trkpt lat="47.14984" lon="5.84429">
        <ele>330.8</ele>
        <time>2024-08-05T08:35:05Z</time>
      </trkpt>
      <trkpt lat="47.14984" lon="5.84429">
        <ele>330.6</ele>
        <time>2024-08-05T08:35:06Z</time>
      </trkpt>
      <trkpt lat="47.14984" lon="5.84428">
        <ele>330.6</ele>
        <time>2024-08-05T08:35:07Z</time>
      </trkpt>
      <trkpt lat="47.14984" lon="5.84426">
        <ele>330.6</ele>
        <time>2024-08-05T08:35:08Z</time>
      </trkpt>
      <trkpt lat="47.14983" lon="5.84425">
        <ele>330.6</ele>
        <time>2024-08-05T08:35:09Z</time>
      </trkpt>
      <trkpt lat="47.14983" lon="5.84423">
        <ele>330.6</ele>
        <time>2024-08-05T08:35:10Z</time>
      </trkpt>
      <trkpt lat="47.14982" lon="5.84421">
        <ele>330.8</ele>
        <time>2024-08-05T08:35:11Z</time>
      </trkpt>
      <trkpt lat="47.14982" lon="5.84418">
        <ele>330.6</ele>
        <time>2024-08-05T08:35:12Z</time>
      </trkpt>
      <trkpt lat="47.14981" lon="5.84415">
        <ele>330.8</ele>
        <time>2024-08-05T08:35:13Z</time>
      </trkpt>
      <trkpt lat="47.1498" lon="5.84412">
        <ele>331</ele>
        <time>2024-08-05T08:35:14Z</time>
      </trkpt>
      <trkpt lat="47.1498" lon="5.84409">
        <ele>331</ele>
        <time>2024-08-05T08:35:15Z</time>
      </trkpt>
      <trkpt lat="47.1498" lon="5.84406">
        <ele>331</ele>
        <time>2024-08-05T08:35:16Z</time>
      </trkpt>
      <trkpt lat="47.14979" lon="5.84404">
        <ele>331</ele>
        <time>2024-08-05T08:35:17Z</time>
      </trkpt>
      <trkpt lat="47.14979" lon="5.84401">
        <ele>331.2</ele>
        <time>2024-08-05T08:35:18Z</time>
      </trkpt>
      <trkpt lat="47.14978" lon="5.84398">
        <ele>331.4</ele>
        <time>2024-08-05T08:35:19Z</time>
      </trkpt>
      <trkpt lat="47.14978" lon="5.84395">
        <ele>331.6</ele>
        <time>2024-08-05T08:35:20Z</time>
      </trkpt>
      <trkpt lat="47.14977" lon="5.84391">
        <ele>331.6</ele>
        <time>2024-08-05T08:35:21Z</time>
      </trkpt>
      <trkpt lat="47.14977" lon="5.84388">
        <ele>331.6</ele>
        <time>2024-08-05T08:35:22Z</time>
      </trkpt>
      <trkpt lat="47.14976" lon="5.84385">
        <ele>331.8</ele>
        <time>2024-08-05T08:35:23Z</time>
      </trkpt>
      <trkpt lat="47.14975" lon="5.84382">
        <ele>332</ele>
        <time>2024-08-05T08:35:24Z</time>
      </trkpt>
      <trkpt lat="47.14974" lon="5.84379">
        <ele>332</ele>
        <time>2024-08-05T08:35:25Z</time>
      </trkpt>
      <trkpt lat="47.14973" lon="5.84377">
        <ele>332</ele>
        <time>2024-08-05T08:35:26Z</time>
      </trkpt>
      <trkpt lat="47.14972" lon="5.84375">
        <ele>332.2</ele>
        <time>2024-08-05T08:35:27Z</time>
      </trkpt>
      <trkpt lat="47.14971" lon="5.84373">
        <ele>332.2</ele>
        <time>2024-08-05T08:35:28Z</time>
      </trkpt>
      <trkpt lat="47.1497" lon="5.8437">
        <ele>332.4</ele>
        <time>2024-08-05T08:35:29Z</time>
      </trkpt>
      <trkpt lat="47.14969" lon="5.84367">
        <ele>332.6</ele>
        <time>2024-08-05T08:35:30Z</time>
      </trkpt>
      <trkpt lat="47.14968" lon="5.84364">
        <ele>332.6</ele>
        <time>2024-08-05T08:35:31Z</time>
      </trkpt>
      <trkpt lat="47.14966" lon="5.84361">
        <ele>332.8</ele>
        <time>2024-08-05T08:35:32Z</time>
      </trkpt>
      <trkpt lat="47.14964" lon="5.84358">
        <ele>332.8</ele>
        <time>2024-08-05T08:35:33Z</time>
      </trkpt>
      <trkpt lat="47.14962" lon="5.84356">
        <ele>333</ele>
        <time>2024-08-05T08:35:34Z</time>
      </trkpt>
      <trkpt lat="47.1496" lon="5.84353">
        <ele>333.2</ele>
        <time>2024-08-05T08:35:35Z</time>
      </trkpt>
      <trkpt lat="47.14958" lon="5.84351">
        <ele>333.4</ele>
        <time>2024-08-05T08:35:36Z</time>
      </trkpt>
      <trkpt lat="47.14957" lon="5.84349">
        <ele>333.4</ele>
        <time>2024-08-05T08:35:37Z</time>
      </trkpt>
      <trkpt lat="47.14956" lon="5.84347">
        <ele>333.6</ele>
        <time>2024-08-05T08:35:38Z</time>
      </trkpt>
      <trkpt lat="47.14955" lon="5.84345">
        <ele>333.6</ele>
        <time>2024-08-05T08:35:39Z</time>
      </trkpt>
      <trkpt lat="47.14953" lon="5.84343">
        <ele>333.6</ele>
        <time>2024-08-05T08:35:40Z</time>
      </trkpt>
      <trkpt lat="47.14952" lon="5.84341">
        <ele>333.8</ele>
        <time>2024-08-05T08:35:41Z</time>
      </trkpt>
      <trkpt lat="47.1495" lon="5.84338">
        <ele>334</ele>
        <time>2024-08-05T08:35:42Z</time>
      </trkpt>
      <trkpt lat="47.14949" lon="5.84336">
        <ele>334.2</ele>
        <time>2024-08-05T08:35:43Z</time>
      </trkpt>
      <trkpt lat="47.14947" lon="5.84334">
        <ele>334.2</ele>
        <time>2024-08-05T08:35:44Z</time>
      </trkpt>
      <trkpt lat="47.14945" lon="5.84332">
        <ele>334.4</ele>
        <time>2024-08-05T08:35:45Z</time>
      </trkpt>
      <trkpt lat="47.14944" lon="5.8433">
        <ele>334.6</ele>
        <time>2024-08-05T08:35:46Z</time>
      </trkpt>
      <trkpt lat="47.14942" lon="5.84328">
        <ele>334.6</ele>
        <time>2024-08-05T08:35:47Z</time>
      </trkpt>
      <trkpt lat="47.14941" lon="5.84326">
        <ele>334.6</ele>
        <time>2024-08-05T08:35:48Z</time>
      </trkpt>
      <trkpt lat="47.14939" lon="5.84324">
        <ele>335</ele>
        <time>2024-08-05T08:35:49Z</time>
      </trkpt>
      <trkpt lat="47.14938" lon="5.84322">
        <ele>335</ele>
        <time>2024-08-05T08:35:50Z</time>
      </trkpt>
      <trkpt lat="47.14936" lon="5.8432">
        <ele>335.2</ele>
        <time>2024-08-05T08:35:51Z</time>
      </trkpt>
      <trkpt lat="47.14934" lon="5.84317">
        <ele>335.2</ele>
        <time>2024-08-05T08:35:52Z</time>
      </trkpt>
      <trkpt lat="47.14932" lon="5.84315">
        <ele>335.2</ele>
        <time>2024-08-05T08:35:53Z</time>
      </trkpt>
      <trkpt lat="47.1493" lon="5.84313">
        <ele>335.4</ele>
        <time>2024-08-05T08:35:54Z</time>
      </trkpt>
      <trkpt lat="47.14929" lon="5.84311">
        <ele>335.4</ele>
        <time>2024-08-05T08:35:55Z</time>
      </trkpt>
      <trkpt lat="47.14927" lon="5.84309">
        <ele>335.6</ele>
        <time>2024-08-05T08:35:56Z</time>
      </trkpt>
      <trkpt lat="47.14925" lon="5.84308">
        <ele>335.8</ele>
        <time>2024-08-05T08:35:57Z</time>
      </trkpt>
      <trkpt lat="47.14924" lon="5.84307">
        <ele>335.8</ele>
        <time>2024-08-05T08:35:58Z</time>
      </trkpt>
      <trkpt lat="47.14922" lon="5.84306">
        <ele>336</ele>
        <time>2024-08-05T08:35:59Z</time>
      </trkpt>
      <trkpt lat="47.14921" lon="5.84304">
        <ele>336</ele>
        <time>2024-08-05T08:36:00Z</time>
      </trkpt>
      <trkpt lat="47.14919" lon="5.84303">
        <ele>336</ele>
        <time>2024-08-05T08:36:01Z</time>
      </trkpt>
      <trkpt lat="47.14918" lon="5.84301">
        <ele>336.2</ele>
        <time>2024-08-05T08:36:02Z</time>
      </trkpt>
      <trkpt lat="47.14916" lon="5.843">
        <ele>336.2</ele>
        <time>2024-08-05T08:36:03Z</time>
      </trkpt>
      <trkpt lat="47.14915" lon="5.84298">
        <ele>336.4</ele>
        <time>2024-08-05T08:36:04Z</time>
      </trkpt>
      <trkpt lat="47.14913" lon="5.84296">
        <ele>336.6</ele>
        <time>2024-08-05T08:36:05Z</time>
      </trkpt>
      <trkpt lat="47.14912" lon="5.84294">
        <ele>336.8</ele>
        <time>2024-08-05T08:36:06Z</time>
      </trkpt>
      <trkpt lat="47.1491" lon="5.84291">
        <ele>336.8</ele>
        <time>2024-08-05T08:36:07Z</time>
      </trkpt>
      <trkpt lat="47.14908" lon="5.84289">
        <ele>337</ele>
        <time>2024-08-05T08:36:08Z</time>
      </trkpt>
      <trkpt lat="47.14906" lon="5.84286">
        <ele>337.2</ele>
        <time>2024-08-05T08:36:09Z</time>
      </trkpt>
      <trkpt lat="47.14904" lon="5.84284">
        <ele>337.2</ele>
        <time>2024-08-05T08:36:10Z</time>
      </trkpt>
      <trkpt lat="47.14902" lon="5.84282">
        <ele>337.4</ele>
        <time>2024-08-05T08:36:11Z</time>
      </trkpt>
      <trkpt lat="47.149" lon="5.8428">
        <ele>337.6</ele>
        <time>2024-08-05T08:36:12Z</time>
      </trkpt>
      <trkpt lat="47.14898" lon="5.84278">
        <ele>337.6</ele>
        <time>2024-08-05T08:36:13Z</time>
      </trkpt>
      <trkpt lat="47.14897" lon="5.84277">
        <ele>337.8</ele>
        <time>2024-08-05T08:36:14Z</time>
      </trkpt>
      <trkpt lat="47.14895" lon="5.84276">
        <ele>337.8</ele>
        <time>2024-08-05T08:36:15Z</time>
      </trkpt>
      <trkpt lat="47.14893" lon="5.84274">
        <ele>337.8</ele>
        <time>2024-08-05T08:36:16Z</time>
      </trkpt>
      <trkpt lat="47.14891" lon="5.84272">
        <ele>338</ele>
        <time>2024-08-05T08:36:17Z</time>
      </trkpt>
      <trkpt lat="47.14889" lon="5.84271">
        <ele>337.8</ele>
        <time>2024-08-05T08:36:18Z</time>
      </trkpt>
      <trkpt lat="47.14888" lon="5.8427">
        <ele>337.8</ele>
        <time>2024-08-05T08:36:19Z</time>
      </trkpt>
      <trkpt lat="47.14886" lon="5.84268">
        <ele>338</ele>
        <time>2024-08-05T08:36:20Z</time>
      </trkpt>
      <trkpt lat="47.14884" lon="5.84267">
        <ele>338.2</ele>
        <time>2024-08-05T08:36:21Z</time>
      </trkpt>
      <trkpt lat="47.14883" lon="5.84266">
        <ele>338.2</ele>
        <time>2024-08-05T08:36:22Z</time>
      </trkpt>
      <trkpt lat="47.14881" lon="5.84264">
        <ele>338.4</ele>
        <time>2024-08-05T08:36:23Z</time>
      </trkpt>
      <trkpt lat="47.14879" lon="5.84262">
        <ele>338.4</ele>
        <time>2024-08-05T08:36:24Z</time>
      </trkpt>
      <trkpt lat="47.14878" lon="5.8426">
        <ele>338.8</ele>
        <time>2024-08-05T08:36:25Z</time>
      </trkpt>
      <trkpt lat="47.14876" lon="5.84259">
        <ele>338.8</ele>
        <time>2024-08-05T08:36:26Z</time>
      </trkpt>
      <trkpt lat="47.14874" lon="5.84257">
        <ele>338.8</ele>
        <time>2024-08-05T08:36:27Z</time>
      </trkpt>
      <trkpt lat="47.14872" lon="5.84255">
        <ele>338.8</ele>
        <time>2024-08-05T08:36:28Z</time>
      </trkpt>
      <trkpt lat="47.1487" lon="5.84254">
        <ele>339</ele>
        <time>2024-08-05T08:36:29Z</time>
      </trkpt>
      <trkpt lat="47.14868" lon="5.84251">
        <ele>339.2</ele>
        <time>2024-08-05T08:36:30Z</time>
      </trkpt>
      <trkpt lat="47.14866" lon="5.8425">
        <ele>339.4</ele>
        <time>2024-08-05T08:36:31Z</time>
      </trkpt>
      <trkpt lat="47.14864" lon="5.84248">
        <ele>339.4</ele>
        <time>2024-08-05T08:36:32Z</time>
      </trkpt>
      <trkpt lat="47.14861" lon="5.84246">
        <ele>339.4</ele>
        <time>2024-08-05T08:36:33Z</time>
      </trkpt>
      <trkpt lat="47.14859" lon="5.84245">
        <ele>339.4</ele>
        <time>2024-08-05T08:36:34Z</time>
      </trkpt>
      <trkpt lat="47.14857" lon="5.84243">
        <ele>339.6</ele>
        <time>2024-08-05T08:36:35Z</time>
      </trkpt>
      <trkpt lat="47.14855" lon="5.84242">
        <ele>339.6</ele>
        <time>2024-08-05T08:36:36Z</time>
      </trkpt>
      <trkpt lat="47.14852" lon="5.8424">
        <ele>339.6</ele>
        <time>2024-08-05T08:36:37Z</time>
      </trkpt>
      <trkpt lat="47.1485" lon="5.84239">
        <ele>339.6</ele>
        <time>2024-08-05T08:36:38Z</time>
      </trkpt>
      <trkpt lat="47.14848" lon="5.84237">
        <ele>339.8</ele>
        <time>2024-08-05T08:36:39Z</time>
      </trkpt>
      <trkpt lat="47.14847" lon="5.84236">
        <ele>339.8</ele>
        <time>2024-08-05T08:36:40Z</time>
      </trkpt>
      <trkpt lat="47.14845" lon="5.84234">
        <ele>339.8</ele>
        <time>2024-08-05T08:36:41Z</time>
      </trkpt>
      <trkpt lat="47.14843" lon="5.84232">
        <ele>339.8</ele>
        <time>2024-08-05T08:36:42Z</time>
      </trkpt>
      <trkpt lat="47.14841" lon="5.8423">
        <ele>340</ele>
        <time>2024-08-05T08:36:43Z</time>
      </trkpt>
      <trkpt lat="47.14839" lon="5.84229">
        <ele>340</ele>
        <time>2024-08-05T08:36:44Z</time>
      </trkpt>
      <trkpt lat="47.14836" lon="5.84226">
        <ele>340</ele>
        <time>2024-08-05T08:36:45Z</time>
      </trkpt>
      <trkpt lat="47.14834" lon="5.84224">
        <ele>340</ele>
        <time>2024-08-05T08:36:46Z</time>
      </trkpt>
      <trkpt lat="47.14831" lon="5.84222">
        <ele>340</ele>
        <time>2024-08-05T08:36:47Z</time>
      </trkpt>
      <trkpt lat="47.14829" lon="5.84219">
        <ele>340.2</ele>
        <time>2024-08-05T08:36:48Z</time>
      </trkpt>
      <trkpt lat="47.14826" lon="5.84217">
        <ele>340.2</ele>
        <time>2024-08-05T08:36:49Z</time>
      </trkpt>
      <trkpt lat="47.14824" lon="5.84215">
        <ele>340.4</ele>
        <time>2024-08-05T08:36:50Z</time>
      </trkpt>
      <trkpt lat="47.14822" lon="5.84213">
        <ele>340.4</ele>
        <time>2024-08-05T08:36:51Z</time>
      </trkpt>
      <trkpt lat="47.14819" lon="5.84211">
        <ele>340.2</ele>
        <time>2024-08-05T08:36:52Z</time>
      </trkpt>
      <trkpt lat="47.14817" lon="5.84209">
        <ele>340.4</ele>
        <time>2024-08-05T08:36:53Z</time>
      </trkpt>
      <trkpt lat="47.14815" lon="5.84207">
        <ele>340.4</ele>
        <time>2024-08-05T08:36:54Z</time>
      </trkpt>
      <trkpt lat="47.14811" lon="5.84204">
        <ele>340.4</ele>
        <time>2024-08-05T08:36:55Z</time>
      </trkpt>
      <trkpt lat="47.14809" lon="5.84201">
        <ele>340.6</ele>
        <time>2024-08-05T08:36:56Z</time>
      </trkpt>
      <trkpt lat="47.14806" lon="5.84199">
        <ele>340.6</ele>
        <time>2024-08-05T08:36:57Z</time>
      </trkpt>
      <trkpt lat="47.14803" lon="5.84197">
        <ele>340.6</ele>
        <time>2024-08-05T08:36:58Z</time>
      </trkpt>
      <trkpt lat="47.148" lon="5.84194">
        <ele>340.6</ele>
        <time>2024-08-05T08:36:59Z</time>
      </trkpt>
      <trkpt lat="47.14797" lon="5.84191">
        <ele>340.8</ele>
        <time>2024-08-05T08:37:00Z</time>
      </trkpt>
      <trkpt lat="47.14794" lon="5.84188">
        <ele>340.8</ele>
        <time>2024-08-05T08:37:01Z</time>
      </trkpt>
      <trkpt lat="47.14792" lon="5.84185">
        <ele>340.8</ele>
        <time>2024-08-05T08:37:02Z</time>
      </trkpt>
      <trkpt lat="47.14789" lon="5.84184">
        <ele>340.8</ele>
        <time>2024-08-05T08:37:03Z</time>
      </trkpt>
      <trkpt lat="47.14787" lon="5.84181">
        <ele>341</ele>
        <time>2024-08-05T08:37:04Z</time>
      </trkpt>
      <trkpt lat="47.14784" lon="5.84178">
        <ele>341</ele>
        <time>2024-08-05T08:37:05Z</time>
      </trkpt>
      <trkpt lat="47.14782" lon="5.84177">
        <ele>341.2</ele>
        <time>2024-08-05T08:37:06Z</time>
      </trkpt>
      <trkpt lat="47.14779" lon="5.84175">
        <ele>341.2</ele>
        <time>2024-08-05T08:37:07Z</time>
      </trkpt>
      <trkpt lat="47.14776" lon="5.84174">
        <ele>341.2</ele>
        <time>2024-08-05T08:37:08Z</time>
      </trkpt>
      <trkpt lat="47.14774" lon="5.84173">
        <ele>341.4</ele>
        <time>2024-08-05T08:37:09Z</time>
      </trkpt>
      <trkpt lat="47.14771" lon="5.84172">
        <ele>341.4</ele>
        <time>2024-08-05T08:37:10Z</time>
      </trkpt>
      <trkpt lat="47.14769" lon="5.84171">
        <ele>341.4</ele>
        <time>2024-08-05T08:37:11Z</time>
      </trkpt>
      <trkpt lat="47.14766" lon="5.84169">
        <ele>341.6</ele>
        <time>2024-08-05T08:37:12Z</time>
      </trkpt>
      <trkpt lat="47.14764" lon="5.84167">
        <ele>341.6</ele>
        <time>2024-08-05T08:37:13Z</time>
      </trkpt>
      <trkpt lat="47.14761" lon="5.84165">
        <ele>341.6</ele>
        <time>2024-08-05T08:37:14Z</time>
      </trkpt>
      <trkpt lat="47.14759" lon="5.84163">
        <ele>341.8</ele>
        <time>2024-08-05T08:37:15Z</time>
      </trkpt>
      <trkpt lat="47.14756" lon="5.8416">
        <ele>341.8</ele>
        <time>2024-08-05T08:37:16Z</time>
      </trkpt>
      <trkpt lat="47.14754" lon="5.84158">
        <ele>341.8</ele>
        <time>2024-08-05T08:37:17Z</time>
      </trkpt>
      <trkpt lat="47.14751" lon="5.84156">
        <ele>342</ele>
        <time>2024-08-05T08:37:18Z</time>
      </trkpt>
      <trkpt lat="47.14749" lon="5.84154">
        <ele>342</ele>
        <time>2024-08-05T08:37:19Z</time>
      </trkpt>
      <trkpt lat="47.14747" lon="5.84152">
        <ele>342</ele>
        <time>2024-08-05T08:37:20Z</time>
      </trkpt>
      <trkpt lat="47.14745" lon="5.8415">
        <ele>342</ele>
        <time>2024-08-05T08:37:21Z</time>
      </trkpt>
      <trkpt lat="47.14743" lon="5.84147">
        <ele>342.2</ele>
        <time>2024-08-05T08:37:22Z</time>
      </trkpt>
      <trkpt lat="47.14741" lon="5.84145">
        <ele>342.2</ele>
        <time>2024-08-05T08:37:23Z</time>
      </trkpt>
      <trkpt lat="47.14739" lon="5.84143">
        <ele>342.2</ele>
        <time>2024-08-05T08:37:24Z</time>
      </trkpt>
      <trkpt lat="47.14737" lon="5.84141">
        <ele>342.4</ele>
        <time>2024-08-05T08:37:25Z</time>
      </trkpt>
      <trkpt lat="47.14735" lon="5.84138">
        <ele>342.6</ele>
        <time>2024-08-05T08:37:26Z</time>
      </trkpt>
      <trkpt lat="47.14733" lon="5.84135">
        <ele>342.4</ele>
        <time>2024-08-05T08:37:27Z</time>
      </trkpt>
      <trkpt lat="47.14731" lon="5.84132">
        <ele>342.6</ele>
        <time>2024-08-05T08:37:28Z</time>
      </trkpt>
      <trkpt lat="47.14728" lon="5.8413">
        <ele>342.6</ele>
        <time>2024-08-05T08:37:29Z</time>
      </trkpt>
      <trkpt lat="47.14725" lon="5.84127">
        <ele>342.6</ele>
        <time>2024-08-05T08:37:30Z</time>
      </trkpt>
      <trkpt lat="47.14723" lon="5.84126">
        <ele>342.8</ele>
        <time>2024-08-05T08:37:31Z</time>
      </trkpt>
      <trkpt lat="47.1472" lon="5.84124">
        <ele>342.8</ele>
        <time>2024-08-05T08:37:32Z</time>
      </trkpt>
      <trkpt lat="47.14716" lon="5.84122">
        <ele>342.8</ele>
        <time>2024-08-05T08:37:33Z</time>
      </trkpt>
      <trkpt lat="47.14712" lon="5.8412">
        <ele>343</ele>
        <time>2024-08-05T08:37:34Z</time>
      </trkpt>
      <trkpt lat="47.14709" lon="5.84118">
        <ele>343.2</ele>
        <time>2024-08-05T08:37:35Z</time>
      </trkpt>
      <trkpt lat="47.14706" lon="5.84116">
        <ele>343.4</ele>
        <time>2024-08-05T08:37:36Z</time>
      </trkpt>
      <trkpt lat="47.14703" lon="5.84115">
        <ele>343.6</ele>
        <time>2024-08-05T08:37:37Z</time>
      </trkpt>
      <trkpt lat="47.147" lon="5.84114">
        <ele>343.6</ele>
        <time>2024-08-05T08:37:38Z</time>
      </trkpt>
      <trkpt lat="47.14697" lon="5.84113">
        <ele>343.8</ele>
        <time>2024-08-05T08:37:39Z</time>
      </trkpt>
      <trkpt lat="47.14695" lon="5.84113">
        <ele>343.8</ele>
        <time>2024-08-05T08:37:40Z</time>
      </trkpt>
      <trkpt lat="47.14693" lon="5.84112">
        <ele>344</ele>
        <time>2024-08-05T08:37:41Z</time>
      </trkpt>
      <trkpt lat="47.14691" lon="5.84112">
        <ele>344</ele>
        <time>2024-08-05T08:37:42Z</time>
      </trkpt>
      <trkpt lat="47.14688" lon="5.84111">
        <ele>344.2</ele>
        <time>2024-08-05T08:37:43Z</time>
      </trkpt>
      <trkpt lat="47.14687" lon="5.8411">
        <ele>344.4</ele>
        <time>2024-08-05T08:37:44Z</time>
      </trkpt>
      <trkpt lat="47.14685" lon="5.84109">
        <ele>344.4</ele>
        <time>2024-08-05T08:37:45Z</time>
      </trkpt>
      <trkpt lat="47.14683" lon="5.84108">
        <ele>344.8</ele>
        <time>2024-08-05T08:37:46Z</time>
      </trkpt>
      <trkpt lat="47.14681" lon="5.84107">
        <ele>344.8</ele>
        <time>2024-08-05T08:37:47Z</time>
      </trkpt>
      <trkpt lat="47.1468" lon="5.84105">
        <ele>345</ele>
        <time>2024-08-05T08:37:48Z</time>
      </trkpt>
      <trkpt lat="47.14679" lon="5.84104">
        <ele>345</ele>
        <time>2024-08-05T08:37:49Z</time>
      </trkpt>
      <trkpt lat="47.14677" lon="5.84103">
        <ele>345</ele>
        <time>2024-08-05T08:37:50Z</time>
      </trkpt>
      <trkpt lat="47.14675" lon="5.84101">
        <ele>345.4</ele>
        <time>2024-08-05T08:37:51Z</time>
      </trkpt>
      <trkpt lat="47.14674" lon="5.841">
        <ele>345.6</ele>
        <time>2024-08-05T08:37:52Z</time>
      </trkpt>
      <trkpt lat="47.14671" lon="5.84098">
        <ele>345.8</ele>
        <time>2024-08-05T08:37:53Z</time>
      </trkpt>
      <trkpt lat="47.1467" lon="5.84097">
        <ele>345.8</ele>
        <time>2024-08-05T08:37:54Z</time>
      </trkpt>
      <trkpt lat="47.14668" lon="5.84095">
        <ele>346</ele>
        <time>2024-08-05T08:37:55Z</time>
      </trkpt>
      <trkpt lat="47.14666" lon="5.84094">
        <ele>346.2</ele>
        <time>2024-08-05T08:37:56Z</time>
      </trkpt>
      <trkpt lat="47.14664" lon="5.84093">
        <ele>346.2</ele>
        <time>2024-08-05T08:37:57Z</time>
      </trkpt>
      <trkpt lat="47.14663" lon="5.84092">
        <ele>346.2</ele>
        <time>2024-08-05T08:37:58Z</time>
      </trkpt>
      <trkpt lat="47.14661" lon="5.8409">
        <ele>346.4</ele>
        <time>2024-08-05T08:37:59Z</time>
      </trkpt>
      <trkpt lat="47.1466" lon="5.84088">
        <ele>346.6</ele>
        <time>2024-08-05T08:38:00Z</time>
      </trkpt>
      <trkpt lat="47.14658" lon="5.84086">
        <ele>346.8</ele>
        <time>2024-08-05T08:38:01Z</time>
      </trkpt>
      <trkpt lat="47.14656" lon="5.84084">
        <ele>347</ele>
        <time>2024-08-05T08:38:02Z</time>
      </trkpt>
      <trkpt lat="47.14655" lon="5.84083">
        <ele>346.8</ele>
        <time>2024-08-05T08:38:03Z</time>
      </trkpt>
      <trkpt lat="47.14653" lon="5.84081">
        <ele>346.8</ele>
        <time>2024-08-05T08:38:04Z</time>
      </trkpt>
      <trkpt lat="47.14651" lon="5.8408">
        <ele>347.2</ele>
        <time>2024-08-05T08:38:05Z</time>
      </trkpt>
      <trkpt lat="47.1465" lon="5.84078">
        <ele>347.2</ele>
        <time>2024-08-05T08:38:06Z</time>
      </trkpt>
      <trkpt lat="47.14648" lon="5.84077">
        <ele>347.4</ele>
        <time>2024-08-05T08:38:07Z</time>
      </trkpt>
      <trkpt lat="47.14646" lon="5.84075">
        <ele>347.4</ele>
        <time>2024-08-05T08:38:08Z</time>
      </trkpt>
      <trkpt lat="47.14644" lon="5.84074">
        <ele>347.8</ele>
        <time>2024-08-05T08:38:09Z</time>
      </trkpt>
      <trkpt lat="47.14642" lon="5.84072">
        <ele>347.8</ele>
        <time>2024-08-05T08:38:10Z</time>
      </trkpt>
      <trkpt lat="47.1464" lon="5.8407">
        <ele>347.8</ele>
        <time>2024-08-05T08:38:11Z</time>
      </trkpt>
      <trkpt lat="47.14638" lon="5.84068">
        <ele>348</ele>
        <time>2024-08-05T08:38:12Z</time>
      </trkpt>
      <trkpt lat="47.14636" lon="5.84065">
        <ele>348.2</ele>
        <time>2024-08-05T08:38:13Z</time>
      </trkpt>
      <trkpt lat="47.14634" lon="5.84063">
        <ele>348.2</ele>
        <time>2024-08-05T08:38:14Z</time>
      </trkpt>
      <trkpt lat="47.14632" lon="5.84061">
        <ele>348.2</ele>
        <time>2024-08-05T08:38:15Z</time>
      </trkpt>
      <trkpt lat="47.1463" lon="5.84059">
        <ele>348.4</ele>
        <time>2024-08-05T08:38:16Z</time>
      </trkpt>
      <trkpt lat="47.14628" lon="5.84057">
        <ele>348.8</ele>
        <time>2024-08-05T08:38:17Z</time>
      </trkpt>
      <trkpt lat="47.14626" lon="5.84055">
        <ele>348.8</ele>
        <time>2024-08-05T08:38:18Z</time>
      </trkpt>
      <trkpt lat="47.14624" lon="5.84053">
        <ele>349</ele>
        <time>2024-08-05T08:38:19Z</time>
      </trkpt>
      <trkpt lat="47.14623" lon="5.84052">
        <ele>349</ele>
        <time>2024-08-05T08:38:20Z</time>
      </trkpt>
      <trkpt lat="47.14622" lon="5.8405">
        <ele>349.2</ele>
        <time>2024-08-05T08:38:21Z</time>
      </trkpt>
      <trkpt lat="47.1462" lon="5.84049">
        <ele>349.2</ele>
        <time>2024-08-05T08:38:22Z</time>
      </trkpt>
      <trkpt lat="47.14618" lon="5.84047">
        <ele>349.4</ele>
        <time>2024-08-05T08:38:23Z</time>
      </trkpt>
      <trkpt lat="47.14617" lon="5.84046">
        <ele>349.6</ele>
        <time>2024-08-05T08:38:24Z</time>
      </trkpt>
      <trkpt lat="47.14615" lon="5.84044">
        <ele>349.6</ele>
        <time>2024-08-05T08:38:25Z</time>
      </trkpt>
      <trkpt lat="47.14613" lon="5.84041">
        <ele>349.6</ele>
        <time>2024-08-05T08:38:26Z</time>
      </trkpt>
      <trkpt lat="47.14611" lon="5.84039">
        <ele>349.6</ele>
        <time>2024-08-05T08:38:27Z</time>
      </trkpt>
      <trkpt lat="47.14609" lon="5.84036">
        <ele>349.8</ele>
        <time>2024-08-05T08:38:28Z</time>
      </trkpt>
      <trkpt lat="47.14607" lon="5.84034">
        <ele>350.2</ele>
        <time>2024-08-05T08:38:29Z</time>
      </trkpt>
      <trkpt lat="47.14606" lon="5.84031">
        <ele>350.2</ele>
        <time>2024-08-05T08:38:30Z</time>
      </trkpt>
      <trkpt lat="47.14604" lon="5.84028">
        <ele>350.4</ele>
        <time>2024-08-05T08:38:31Z</time>
      </trkpt>
      <trkpt lat="47.14602" lon="5.84025">
        <ele>350.6</ele>
        <time>2024-08-05T08:38:32Z</time>
      </trkpt>
      <trkpt lat="47.14601" lon="5.84022">
        <ele>350.8</ele>
        <time>2024-08-05T08:38:33Z</time>
      </trkpt>
      <trkpt lat="47.146" lon="5.84019">
        <ele>351</ele>
        <time>2024-08-05T08:38:34Z</time>
      </trkpt>
      <trkpt lat="47.14598" lon="5.84017">
        <ele>351</ele>
        <time>2024-08-05T08:38:35Z</time>
      </trkpt>
      <trkpt lat="47.14597" lon="5.84015">
        <ele>351.2</ele>
        <time>2024-08-05T08:38:36Z</time>
      </trkpt>
      <trkpt lat="47.14596" lon="5.84013">
        <ele>351.2</ele>
        <time>2024-08-05T08:38:37Z</time>
      </trkpt>
      <trkpt lat="47.14595" lon="5.84011">
        <ele>351.4</ele>
        <time>2024-08-05T08:38:38Z</time>
      </trkpt>
      <trkpt lat="47.14594" lon="5.84008">
        <ele>351.4</ele>
        <time>2024-08-05T08:38:39Z</time>
      </trkpt>
      <trkpt lat="47.14592" lon="5.84006">
        <ele>351.4</ele>
        <time>2024-08-05T08:38:40Z</time>
      </trkpt>
      <trkpt lat="47.14591" lon="5.84003">
        <ele>351.8</ele>
        <time>2024-08-05T08:38:41Z</time>
      </trkpt>
      <trkpt lat="47.1459" lon="5.84001">
        <ele>351.8</ele>
        <time>2024-08-05T08:38:42Z</time>
      </trkpt>
      <trkpt lat="47.14589" lon="5.83998">
        <ele>352.2</ele>
        <time>2024-08-05T08:38:43Z</time>
      </trkpt>
      <trkpt lat="47.14588" lon="5.83996">
        <ele>352.2</ele>
        <time>2024-08-05T08:38:44Z</time>
      </trkpt>
      <trkpt lat="47.14587" lon="5.83993">
        <ele>352.2</ele>
        <time>2024-08-05T08:38:45Z</time>
      </trkpt>
      <trkpt lat="47.14586" lon="5.8399">
        <ele>352.2</ele>
        <time>2024-08-05T08:38:46Z</time>
      </trkpt>
      <trkpt lat="47.14584" lon="5.83987">
        <ele>352.2</ele>
        <time>2024-08-05T08:38:47Z</time>
      </trkpt>
      <trkpt lat="47.14583" lon="5.83984">
        <ele>352.2</ele>
        <time>2024-08-05T08:38:48Z</time>
      </trkpt>
      <trkpt lat="47.14582" lon="5.8398">
        <ele>352.4</ele>
        <time>2024-08-05T08:38:49Z</time>
      </trkpt>
      <trkpt lat="47.14581" lon="5.83977">
        <ele>352.4</ele>
        <time>2024-08-05T08:38:50Z</time>
      </trkpt>
      <trkpt lat="47.1458" lon="5.83974">
        <ele>352.4</ele>
        <time>2024-08-05T08:38:51Z</time>
      </trkpt>
      <trkpt lat="47.14579" lon="5.8397">
        <ele>352.4</ele>
        <time>2024-08-05T08:38:52Z</time>
      </trkpt>
      <trkpt lat="47.14578" lon="5.83966">
        <ele>352.4</ele>
        <time>2024-08-05T08:38:53Z</time>
      </trkpt>
      <trkpt lat="47.14576" lon="5.83961">
        <ele>352.4</ele>
        <time>2024-08-05T08:38:54Z</time>
      </trkpt>
      <trkpt lat="47.14575" lon="5.83956">
        <ele>352.4</ele>
        <time>2024-08-05T08:38:55Z</time>
      </trkpt>
      <trkpt lat="47.14572" lon="5.83951">
        <ele>352.6</ele>
        <time>2024-08-05T08:38:56Z</time>
      </trkpt>
      <trkpt lat="47.14569" lon="5.83947">
        <ele>352.4</ele>
        <time>2024-08-05T08:38:57Z</time>
      </trkpt>
      <trkpt lat="47.14566" lon="5.83942">
        <ele>352.4</ele>
        <time>2024-08-05T08:38:58Z</time>
      </trkpt>
      <trkpt lat="47.14563" lon="5.83936">
        <ele>352.4</ele>
        <time>2024-08-05T08:38:59Z</time>
      </trkpt>
      <trkpt lat="47.1456" lon="5.83932">
        <ele>352.2</ele>
        <time>2024-08-05T08:39:00Z</time>
      </trkpt>
      <trkpt lat="47.14556" lon="5.83925">
        <ele>352.4</ele>
        <time>2024-08-05T08:39:01Z</time>
      </trkpt>
      <trkpt lat="47.14552" lon="5.83919">
        <ele>352.2</ele>
        <time>2024-08-05T08:39:02Z</time>
      </trkpt>
      <trkpt lat="47.14548" lon="5.83912">
        <ele>352</ele>
        <time>2024-08-05T08:39:03Z</time>
      </trkpt>
      <trkpt lat="47.14544" lon="5.83905">
        <ele>352</ele>
        <time>2024-08-05T08:39:04Z</time>
      </trkpt>
      <trkpt lat="47.1454" lon="5.83898">
        <ele>351.8</ele>
        <time>2024-08-05T08:39:05Z</time>
      </trkpt>
      <trkpt lat="47.14537" lon="5.83891">
        <ele>351.6</ele>
        <time>2024-08-05T08:39:06Z</time>
      </trkpt>
      <trkpt lat="47.14534" lon="5.83884">
        <ele>351.6</ele>
        <time>2024-08-05T08:39:07Z</time>
      </trkpt>
      <trkpt lat="47.14531" lon="5.83877">
        <ele>351.4</ele>
        <time>2024-08-05T08:39:08Z</time>
      </trkpt>
      <trkpt lat="47.14529" lon="5.83869">
        <ele>351.4</ele>
        <time>2024-08-05T08:39:09Z</time>
      </trkpt>
      <trkpt lat="47.14528" lon="5.83861">
        <ele>351</ele>
        <time>2024-08-05T08:39:10Z</time>
      </trkpt>
      <trkpt lat="47.14528" lon="5.83853">
        <ele>350.6</ele>
        <time>2024-08-05T08:39:11Z</time>
      </trkpt>
      <trkpt lat="47.14528" lon="5.83846">
        <ele>350.2</ele>
        <time>2024-08-05T08:39:12Z</time>
      </trkpt>
      <trkpt lat="47.14528" lon="5.8384">
        <ele>350</ele>
        <time>2024-08-05T08:39:13Z</time>
      </trkpt>
      <trkpt lat="47.14528" lon="5.83833">
        <ele>349.6</ele>
        <time>2024-08-05T08:39:14Z</time>
      </trkpt>
      <trkpt lat="47.14528" lon="5.83826">
        <ele>349.2</ele>
        <time>2024-08-05T08:39:15Z</time>
      </trkpt>
      <trkpt lat="47.14528" lon="5.83819">
        <ele>349.2</ele>
        <time>2024-08-05T08:39:16Z</time>
      </trkpt>
      <trkpt lat="47.14527" lon="5.83813">
        <ele>349.2</ele>
        <time>2024-08-05T08:39:17Z</time>
      </trkpt>
      <trkpt lat="47.14526" lon="5.83806">
        <ele>349.2</ele>
        <time>2024-08-05T08:39:18Z</time>
      </trkpt>
      <trkpt lat="47.14525" lon="5.83799">
        <ele>349.2</ele>
        <time>2024-08-05T08:39:19Z</time>
      </trkpt>
      <trkpt lat="47.14525" lon="5.83793">
        <ele>349.2</ele>
        <time>2024-08-05T08:39:20Z</time>
      </trkpt>
      <trkpt lat="47.14525" lon="5.83787">
        <ele>349</ele>
        <time>2024-08-05T08:39:21Z</time>
      </trkpt>
      <trkpt lat="47.14526" lon="5.83781">
        <ele>349</ele>
        <time>2024-08-05T08:39:22Z</time>
      </trkpt>
      <trkpt lat="47.14526" lon="5.83773">
        <ele>349</ele>
        <time>2024-08-05T08:39:23Z</time>
      </trkpt>
      <trkpt lat="47.14526" lon="5.83766">
        <ele>349</ele>
        <time>2024-08-05T08:39:24Z</time>
      </trkpt>
      <trkpt lat="47.14528" lon="5.83758">
        <ele>349</ele>
        <time>2024-08-05T08:39:25Z</time>
      </trkpt>
      <trkpt lat="47.14528" lon="5.83752">
        <ele>348.8</ele>
        <time>2024-08-05T08:39:26Z</time>
      </trkpt>
      <trkpt lat="47.1453" lon="5.83747">
        <ele>349</ele>
        <time>2024-08-05T08:39:27Z</time>
      </trkpt>
      <trkpt lat="47.14531" lon="5.83743">
        <ele>348.8</ele>
        <time>2024-08-05T08:39:28Z</time>
      </trkpt>
      <trkpt lat="47.14532" lon="5.83738">
        <ele>348.8</ele>
        <time>2024-08-05T08:39:29Z</time>
      </trkpt>
      <trkpt lat="47.14534" lon="5.83733">
        <ele>348.8</ele>
        <time>2024-08-05T08:39:30Z</time>
      </trkpt>
      <trkpt lat="47.14535" lon="5.83728">
        <ele>348.8</ele>
        <time>2024-08-05T08:39:31Z</time>
      </trkpt>
      <trkpt lat="47.14536" lon="5.83722">
        <ele>348.8</ele>
        <time>2024-08-05T08:39:32Z</time>
      </trkpt>
      <trkpt lat="47.14537" lon="5.83717">
        <ele>348.8</ele>
        <time>2024-08-05T08:39:33Z</time>
      </trkpt>
      <trkpt lat="47.14536" lon="5.83712">
        <ele>348.6</ele>
        <time>2024-08-05T08:39:34Z</time>
      </trkpt>
      <trkpt lat="47.14536" lon="5.83708">
        <ele>348.6</ele>
        <time>2024-08-05T08:39:35Z</time>
      </trkpt>
      <trkpt lat="47.14534" lon="5.83704">
        <ele>348.6</ele>
        <time>2024-08-05T08:39:36Z</time>
      </trkpt>
      <trkpt lat="47.14533" lon="5.83701">
        <ele>348.4</ele>
        <time>2024-08-05T08:39:37Z</time>
      </trkpt>
      <trkpt lat="47.14531" lon="5.83699">
        <ele>348.4</ele>
        <time>2024-08-05T08:39:38Z</time>
      </trkpt>
      <trkpt lat="47.14529" lon="5.83696">
        <ele>348.2</ele>
        <time>2024-08-05T08:39:39Z</time>
      </trkpt>
      <trkpt lat="47.14527" lon="5.83692">
        <ele>348.2</ele>
        <time>2024-08-05T08:39:40Z</time>
      </trkpt>
      <trkpt lat="47.14526" lon="5.83689">
        <ele>348</ele>
        <time>2024-08-05T08:39:41Z</time>
      </trkpt>
      <trkpt lat="47.14524" lon="5.83685">
        <ele>347.6</ele>
        <time>2024-08-05T08:39:42Z</time>
      </trkpt>
      <trkpt lat="47.14522" lon="5.83681">
        <ele>347.4</ele>
        <time>2024-08-05T08:39:43Z</time>
      </trkpt>
      <trkpt lat="47.1452" lon="5.83676">
        <ele>347.2</ele>
        <time>2024-08-05T08:39:44Z</time>
      </trkpt>
      <trkpt lat="47.14518" lon="5.83671">
        <ele>347</ele>
        <time>2024-08-05T08:39:45Z</time>
      </trkpt>
      <trkpt lat="47.14516" lon="5.83664">
        <ele>347</ele>
        <time>2024-08-05T08:39:46Z</time>
      </trkpt>
      <trkpt lat="47.14515" lon="5.83656">
        <ele>346.8</ele>
        <time>2024-08-05T08:39:47Z</time>
      </trkpt>
      <trkpt lat="47.14513" lon="5.83649">
        <ele>346.6</ele>
        <time>2024-08-05T08:39:48Z</time>
      </trkpt>
      <trkpt lat="47.1451" lon="5.83641">
        <ele>346.4</ele>
        <time>2024-08-05T08:39:49Z</time>
      </trkpt>
      <trkpt lat="47.14507" lon="5.83634">
        <ele>346.2</ele>
        <time>2024-08-05T08:39:50Z</time>
      </trkpt>
      <trkpt lat="47.14503" lon="5.83627">
        <ele>346</ele>
        <time>2024-08-05T08:39:51Z</time>
      </trkpt>
      <trkpt lat="47.145" lon="5.8362">
        <ele>346</ele>
        <time>2024-08-05T08:39:52Z</time>
      </trkpt>
      <trkpt lat="47.14495" lon="5.83614">
        <ele>346</ele>
        <time>2024-08-05T08:39:53Z</time>
      </trkpt>
      <trkpt lat="47.1449" lon="5.83608">
        <ele>345.6</ele>
        <time>2024-08-05T08:39:54Z</time>
      </trkpt>
      <trkpt lat="47.14484" lon="5.83603">
        <ele>345.6</ele>
        <time>2024-08-05T08:39:55Z</time>
      </trkpt>
      <trkpt lat="47.14476" lon="5.83598">
        <ele>344.6</ele>
        <time>2024-08-05T08:39:56Z</time>
      </trkpt>
      <trkpt lat="47.14469" lon="5.83594">
        <ele>344.4</ele>
        <time>2024-08-05T08:39:57Z</time>
      </trkpt>
      <trkpt lat="47.14462" lon="5.83591">
        <ele>343.8</ele>
        <time>2024-08-05T08:39:58Z</time>
      </trkpt>
      <trkpt lat="47.14455" lon="5.83588">
        <ele>343.4</ele>
        <time>2024-08-05T08:39:59Z</time>
      </trkpt>
      <trkpt lat="47.14448" lon="5.83583">
        <ele>342.8</ele>
        <time>2024-08-05T08:40:00Z</time>
      </trkpt>
      <trkpt lat="47.14441" lon="5.83577">
        <ele>342.4</ele>
        <time>2024-08-05T08:40:01Z</time>
      </trkpt>
      <trkpt lat="47.14434" lon="5.8357">
        <ele>341.8</ele>
        <time>2024-08-05T08:40:02Z</time>
      </trkpt>
      <trkpt lat="47.14427" lon="5.83561">
        <ele>341.2</ele>
        <time>2024-08-05T08:40:03Z</time>
      </trkpt>
      <trkpt lat="47.14421" lon="5.83552">
        <ele>341</ele>
        <time>2024-08-05T08:40:04Z</time>
      </trkpt>
      <trkpt lat="47.14415" lon="5.83542">
        <ele>340.4</ele>
        <time>2024-08-05T08:40:05Z</time>
      </trkpt>
      <trkpt lat="47.14409" lon="5.83531">
        <ele>340</ele>
        <time>2024-08-05T08:40:06Z</time>
      </trkpt>
      <trkpt lat="47.14404" lon="5.83522">
        <ele>339.6</ele>
        <time>2024-08-05T08:40:07Z</time>
      </trkpt>
      <trkpt lat="47.14398" lon="5.83513">
        <ele>339</ele>
        <time>2024-08-05T08:40:08Z</time>
      </trkpt>
      <trkpt lat="47.14394" lon="5.83504">
        <ele>338.6</ele>
        <time>2024-08-05T08:40:09Z</time>
      </trkpt>
      <trkpt lat="47.14389" lon="5.83496">
        <ele>338.2</ele>
        <time>2024-08-05T08:40:10Z</time>
      </trkpt>
      <trkpt lat="47.14384" lon="5.83488">
        <ele>337.6</ele>
        <time>2024-08-05T08:40:11Z</time>
      </trkpt>
      <trkpt lat="47.14378" lon="5.83479">
        <ele>337.2</ele>
        <time>2024-08-05T08:40:12Z</time>
      </trkpt>
      <trkpt lat="47.14373" lon="5.83471">
        <ele>337</ele>
        <time>2024-08-05T08:40:13Z</time>
      </trkpt>
      <trkpt lat="47.14368" lon="5.83463">
        <ele>337</ele>
        <time>2024-08-05T08:40:14Z</time>
      </trkpt>
      <trkpt lat="47.14364" lon="5.83458">
        <ele>336.8</ele>
        <time>2024-08-05T08:40:15Z</time>
      </trkpt>
      <trkpt lat="47.14359" lon="5.83453">
        <ele>336.8</ele>
        <time>2024-08-05T08:40:16Z</time>
      </trkpt>
      <trkpt lat="47.14356" lon="5.8345">
        <ele>336.8</ele>
        <time>2024-08-05T08:40:17Z</time>
      </trkpt>
      <trkpt lat="47.14351" lon="5.83447">
        <ele>337</ele>
        <time>2024-08-05T08:40:18Z</time>
      </trkpt>
      <trkpt lat="47.14348" lon="5.83446">
        <ele>336.8</ele>
        <time>2024-08-05T08:40:19Z</time>
      </trkpt>
      <trkpt lat="47.14344" lon="5.83445">
        <ele>336.8</ele>
        <time>2024-08-05T08:40:20Z</time>
      </trkpt>
      <trkpt lat="47.14339" lon="5.83444">
        <ele>336.8</ele>
        <time>2024-08-05T08:40:21Z</time>
      </trkpt>
      <trkpt lat="47.14334" lon="5.83444">
        <ele>336.8</ele>
        <time>2024-08-05T08:40:22Z</time>
      </trkpt>
      <trkpt lat="47.1433" lon="5.83443">
        <ele>336.6</ele>
        <time>2024-08-05T08:40:23Z</time>
      </trkpt>
      <trkpt lat="47.14324" lon="5.83441">
        <ele>336.4</ele>
        <time>2024-08-05T08:40:24Z</time>
      </trkpt>
      <trkpt lat="47.14319" lon="5.83439">
        <ele>336.4</ele>
        <time>2024-08-05T08:40:25Z</time>
      </trkpt>
      <trkpt lat="47.14314" lon="5.83436">
        <ele>336.6</ele>
        <time>2024-08-05T08:40:26Z</time>
      </trkpt>
      <trkpt lat="47.14309" lon="5.83433">
        <ele>336.4</ele>
        <time>2024-08-05T08:40:27Z</time>
      </trkpt>
      <trkpt lat="47.14303" lon="5.8343">
        <ele>336.4</ele>
        <time>2024-08-05T08:40:28Z</time>
      </trkpt>
      <trkpt lat="47.14298" lon="5.83427">
        <ele>336.4</ele>
        <time>2024-08-05T08:40:29Z</time>
      </trkpt>
      <trkpt lat="47.14292" lon="5.83425">
        <ele>336.4</ele>
        <time>2024-08-05T08:40:30Z</time>
      </trkpt>
      <trkpt lat="47.14287" lon="5.8342">
        <ele>336.2</ele>
        <time>2024-08-05T08:40:31Z</time>
      </trkpt>
      <trkpt lat="47.14282" lon="5.83417">
        <ele>336.2</ele>
        <time>2024-08-05T08:40:32Z</time>
      </trkpt>
      <trkpt lat="47.14276" lon="5.83412">
        <ele>335.8</ele>
        <time>2024-08-05T08:40:33Z</time>
      </trkpt>
      <trkpt lat="47.14271" lon="5.83407">
        <ele>335.4</ele>
        <time>2024-08-05T08:40:34Z</time>
      </trkpt>
      <trkpt lat="47.14265" lon="5.83402">
        <ele>335</ele>
        <time>2024-08-05T08:40:35Z</time>
      </trkpt>
      <trkpt lat="47.14259" lon="5.83398">
        <ele>335</ele>
        <time>2024-08-05T08:40:36Z</time>
      </trkpt>
      <trkpt lat="47.14254" lon="5.83394">
        <ele>334.6</ele>
        <time>2024-08-05T08:40:37Z</time>
      </trkpt>
      <trkpt lat="47.14246" lon="5.83389">
        <ele>334</ele>
        <time>2024-08-05T08:40:38Z</time>
      </trkpt>
      <trkpt lat="47.14236" lon="5.83384">
        <ele>333.6</ele>
        <time>2024-08-05T08:40:39Z</time>
      </trkpt>
      <trkpt lat="47.14227" lon="5.8338">
        <ele>333</ele>
        <time>2024-08-05T08:40:40Z</time>
      </trkpt>
      <trkpt lat="47.14219" lon="5.83375">
        <ele>332.8</ele>
        <time>2024-08-05T08:40:41Z</time>
      </trkpt>
      <trkpt lat="47.14212" lon="5.8337">
        <ele>332.4</ele>
        <time>2024-08-05T08:40:42Z</time>
      </trkpt>
      <trkpt lat="47.14204" lon="5.83364">
        <ele>332</ele>
        <time>2024-08-05T08:40:43Z</time>
      </trkpt>
      <trkpt lat="47.14196" lon="5.83358">
        <ele>331.8</ele>
        <time>2024-08-05T08:40:44Z</time>
      </trkpt>
      <trkpt lat="47.1419" lon="5.83352">
        <ele>331.6</ele>
        <time>2024-08-05T08:40:45Z</time>
      </trkpt>
      <trkpt lat="47.14184" lon="5.83349">
        <ele>331.4</ele>
        <time>2024-08-05T08:40:46Z</time>
      </trkpt>
      <trkpt lat="47.14179" lon="5.83346">
        <ele>330.8</ele>
        <time>2024-08-05T08:40:47Z</time>
      </trkpt>
      <trkpt lat="47.14174" lon="5.83341">
        <ele>330.6</ele>
        <time>2024-08-05T08:40:48Z</time>
      </trkpt>
      <trkpt lat="47.14169" lon="5.83336">
        <ele>330.2</ele>
        <time>2024-08-05T08:40:49Z</time>
      </trkpt>
      <trkpt lat="47.14163" lon="5.83331">
        <ele>330</ele>
        <time>2024-08-05T08:40:50Z</time>
      </trkpt>
      <trkpt lat="47.14158" lon="5.83327">
        <ele>329.4</ele>
        <time>2024-08-05T08:40:51Z</time>
      </trkpt>
      <trkpt lat="47.14152" lon="5.83323">
        <ele>329</ele>
        <time>2024-08-05T08:40:52Z</time>
      </trkpt>
      <trkpt lat="47.14146" lon="5.83319">
        <ele>328.4</ele>
        <time>2024-08-05T08:40:53Z</time>
      </trkpt>
      <trkpt lat="47.14141" lon="5.83314">
        <ele>328</ele>
        <time>2024-08-05T08:40:54Z</time>
      </trkpt>
      <trkpt lat="47.14135" lon="5.8331">
        <ele>327.2</ele>
        <time>2024-08-05T08:40:55Z</time>
      </trkpt>
      <trkpt lat="47.14129" lon="5.83305">
        <ele>327</ele>
        <time>2024-08-05T08:40:56Z</time>
      </trkpt>
      <trkpt lat="47.14123" lon="5.833">
        <ele>326.4</ele>
        <time>2024-08-05T08:40:57Z</time>
      </trkpt>
      <trkpt lat="47.14116" lon="5.83294">
        <ele>326.4</ele>
        <time>2024-08-05T08:40:58Z</time>
      </trkpt>
      <trkpt lat="47.14111" lon="5.83288">
        <ele>326.4</ele>
        <time>2024-08-05T08:40:59Z</time>
      </trkpt>
      <trkpt lat="47.14105" lon="5.83281">
        <ele>326</ele>
        <time>2024-08-05T08:41:00Z</time>
      </trkpt>
      <trkpt lat="47.14099" lon="5.83273">
        <ele>325.6</ele>
        <time>2024-08-05T08:41:01Z</time>
      </trkpt>
      <trkpt lat="47.14094" lon="5.83264">
        <ele>325</ele>
        <time>2024-08-05T08:41:02Z</time>
      </trkpt>
      <trkpt lat="47.14088" lon="5.83256">
        <ele>324.6</ele>
        <time>2024-08-05T08:41:03Z</time>
      </trkpt>
      <trkpt lat="47.14082" lon="5.83248">
        <ele>324</ele>
        <time>2024-08-05T08:41:04Z</time>
      </trkpt>
      <trkpt lat="47.14077" lon="5.8324">
        <ele>323.6</ele>
        <time>2024-08-05T08:41:05Z</time>
      </trkpt>
      <trkpt lat="47.14073" lon="5.83232">
        <ele>322.8</ele>
        <time>2024-08-05T08:41:06Z</time>
      </trkpt>
      <trkpt lat="47.14068" lon="5.83224">
        <ele>322.2</ele>
        <time>2024-08-05T08:41:07Z</time>
      </trkpt>
      <trkpt lat="47.14064" lon="5.83216">
        <ele>321.6</ele>
        <time>2024-08-05T08:41:08Z</time>
      </trkpt>
      <trkpt lat="47.14061" lon="5.83207">
        <ele>321</ele>
        <time>2024-08-05T08:41:09Z</time>
      </trkpt>
      <trkpt lat="47.14056" lon="5.83195">
        <ele>320.4</ele>
        <time>2024-08-05T08:41:10Z</time>
      </trkpt>
      <trkpt lat="47.14054" lon="5.83186">
        <ele>320</ele>
        <time>2024-08-05T08:41:11Z</time>
      </trkpt>
      <trkpt lat="47.14052" lon="5.83176">
        <ele>319.2</ele>
        <time>2024-08-05T08:41:12Z</time>
      </trkpt>
      <trkpt lat="47.1405" lon="5.83167">
        <ele>318.6</ele>
        <time>2024-08-05T08:41:13Z</time>
      </trkpt>
      <trkpt lat="47.14048" lon="5.83158">
        <ele>318</ele>
        <time>2024-08-05T08:41:14Z</time>
      </trkpt>
      <trkpt lat="47.14046" lon="5.8315">
        <ele>317.4</ele>
        <time>2024-08-05T08:41:15Z</time>
      </trkpt>
      <trkpt lat="47.14044" lon="5.83142">
        <ele>316.8</ele>
        <time>2024-08-05T08:41:16Z</time>
      </trkpt>
      <trkpt lat="47.14042" lon="5.83134">
        <ele>316.4</ele>
        <time>2024-08-05T08:41:17Z</time>
      </trkpt>
      <trkpt lat="47.1404" lon="5.83127">
        <ele>315.8</ele>
        <time>2024-08-05T08:41:18Z</time>
      </trkpt>
      <trkpt lat="47.14038" lon="5.83119">
        <ele>315.4</ele>
        <time>2024-08-05T08:41:19Z</time>
      </trkpt>
      <trkpt lat="47.14037" lon="5.83111">
        <ele>315.4</ele>
        <time>2024-08-05T08:41:20Z</time>
      </trkpt>
      <trkpt lat="47.14035" lon="5.83104">
        <ele>315.2</ele>
        <time>2024-08-05T08:41:21Z</time>
      </trkpt>
      <trkpt lat="47.14035" lon="5.83096">
        <ele>315</ele>
        <time>2024-08-05T08:41:22Z</time>
      </trkpt>
      <trkpt lat="47.14034" lon="5.83089">
        <ele>314.8</ele>
        <time>2024-08-05T08:41:23Z</time>
      </trkpt>
      <trkpt lat="47.14034" lon="5.83082">
        <ele>314.6</ele>
        <time>2024-08-05T08:41:24Z</time>
      </trkpt>
      <trkpt lat="47.14035" lon="5.83075">
        <ele>314.6</ele>
        <time>2024-08-05T08:41:25Z</time>
      </trkpt>
      <trkpt lat="47.14036" lon="5.83068">
        <ele>314.4</ele>
        <time>2024-08-05T08:41:26Z</time>
      </trkpt>
      <trkpt lat="47.14037" lon="5.83061">
        <ele>314.4</ele>
        <time>2024-08-05T08:41:27Z</time>
      </trkpt>
      <trkpt lat="47.14039" lon="5.83055">
        <ele>314.6</ele>
        <time>2024-08-05T08:41:28Z</time>
      </trkpt>
      <trkpt lat="47.1404" lon="5.83048">
        <ele>314.4</ele>
        <time>2024-08-05T08:41:29Z</time>
      </trkpt>
      <trkpt lat="47.14041" lon="5.83043">
        <ele>314.4</ele>
        <time>2024-08-05T08:41:30Z</time>
      </trkpt>
      <trkpt lat="47.14042" lon="5.83038">
        <ele>314.4</ele>
        <time>2024-08-05T08:41:31Z</time>
      </trkpt>
      <trkpt lat="47.14044" lon="5.83029">
        <ele>314.4</ele>
        <time>2024-08-05T08:41:32Z</time>
      </trkpt>
      <trkpt lat="47.14044" lon="5.83022">
        <ele>314.4</ele>
        <time>2024-08-05T08:41:33Z</time>
      </trkpt>
      <trkpt lat="47.14045" lon="5.83014">
        <ele>314.4</ele>
        <time>2024-08-05T08:41:34Z</time>
      </trkpt>
      <trkpt lat="47.14046" lon="5.83007">
        <ele>314.4</ele>
        <time>2024-08-05T08:41:35Z</time>
      </trkpt>
      <trkpt lat="47.14047" lon="5.83">
        <ele>314.4</ele>
        <time>2024-08-05T08:41:36Z</time>
      </trkpt>
      <trkpt lat="47.14048" lon="5.82994">
        <ele>314.4</ele>
        <time>2024-08-05T08:41:37Z</time>
      </trkpt>
      <trkpt lat="47.14049" lon="5.82987">
        <ele>314.2</ele>
        <time>2024-08-05T08:41:38Z</time>
      </trkpt>
      <trkpt lat="47.1405" lon="5.82981">
        <ele>314.4</ele>
        <time>2024-08-05T08:41:39Z</time>
      </trkpt>
      <trkpt lat="47.1405" lon="5.82974">
        <ele>314.4</ele>
        <time>2024-08-05T08:41:40Z</time>
      </trkpt>
      <trkpt lat="47.14051" lon="5.82967">
        <ele>314.2</ele>
        <time>2024-08-05T08:41:41Z</time>
      </trkpt>
      <trkpt lat="47.14052" lon="5.8296">
        <ele>314.2</ele>
        <time>2024-08-05T08:41:42Z</time>
      </trkpt>
      <trkpt lat="47.14053" lon="5.82953">
        <ele>314.2</ele>
        <time>2024-08-05T08:41:43Z</time>
      </trkpt>
      <trkpt lat="47.14053" lon="5.82946">
        <ele>314.2</ele>
        <time>2024-08-05T08:41:44Z</time>
      </trkpt>
      <trkpt lat="47.14053" lon="5.82939">
        <ele>314.2</ele>
        <time>2024-08-05T08:41:45Z</time>
      </trkpt>
      <trkpt lat="47.14054" lon="5.8293">
        <ele>314</ele>
        <time>2024-08-05T08:41:46Z</time>
      </trkpt>
      <trkpt lat="47.14055" lon="5.82922">
        <ele>314</ele>
        <time>2024-08-05T08:41:47Z</time>
      </trkpt>
      <trkpt lat="47.14055" lon="5.82912">
        <ele>313.8</ele>
        <time>2024-08-05T08:41:48Z</time>
      </trkpt>
      <trkpt lat="47.14055" lon="5.82905">
        <ele>313.6</ele>
        <time>2024-08-05T08:41:49Z</time>
      </trkpt>
      <trkpt lat="47.14055" lon="5.82896">
        <ele>313.6</ele>
        <time>2024-08-05T08:41:50Z</time>
      </trkpt>
      <trkpt lat="47.14055" lon="5.82886">
        <ele>313.2</ele>
        <time>2024-08-05T08:41:51Z</time>
      </trkpt>
      <trkpt lat="47.14054" lon="5.82877">
        <ele>313</ele>
        <time>2024-08-05T08:41:52Z</time>
      </trkpt>
      <trkpt lat="47.14054" lon="5.82869">
        <ele>312.8</ele>
        <time>2024-08-05T08:41:53Z</time>
      </trkpt>
      <trkpt lat="47.14052" lon="5.8286">
        <ele>312.8</ele>
        <time>2024-08-05T08:41:54Z</time>
      </trkpt>
      <trkpt lat="47.14051" lon="5.82849">
        <ele>312.6</ele>
        <time>2024-08-05T08:41:55Z</time>
      </trkpt>
      <trkpt lat="47.1405" lon="5.82839">
        <ele>312.4</ele>
        <time>2024-08-05T08:41:56Z</time>
      </trkpt>
      <trkpt lat="47.14048" lon="5.8283">
        <ele>312.2</ele>
        <time>2024-08-05T08:41:57Z</time>
      </trkpt>
      <trkpt lat="47.14045" lon="5.8282">
        <ele>311.4</ele>
        <time>2024-08-05T08:41:58Z</time>
      </trkpt>
      <trkpt lat="47.14041" lon="5.8281">
        <ele>311.2</ele>
        <time>2024-08-05T08:41:59Z</time>
      </trkpt>
      <trkpt lat="47.14036" lon="5.828">
        <ele>311</ele>
        <time>2024-08-05T08:42:00Z</time>
      </trkpt>
      <trkpt lat="47.14032" lon="5.82791">
        <ele>310.6</ele>
        <time>2024-08-05T08:42:01Z</time>
      </trkpt>
      <trkpt lat="47.14027" lon="5.82783">
        <ele>310.4</ele>
        <time>2024-08-05T08:42:02Z</time>
      </trkpt>
      <trkpt lat="47.14021" lon="5.82774">
        <ele>310</ele>
        <time>2024-08-05T08:42:03Z</time>
      </trkpt>
      <trkpt lat="47.14015" lon="5.82765">
        <ele>310</ele>
        <time>2024-08-05T08:42:04Z</time>
      </trkpt>
      <trkpt lat="47.14009" lon="5.82758">
        <ele>309.2</ele>
        <time>2024-08-05T08:42:05Z</time>
      </trkpt>
      <trkpt lat="47.14003" lon="5.82749">
        <ele>308.6</ele>
        <time>2024-08-05T08:42:06Z</time>
      </trkpt>
      <trkpt lat="47.13999" lon="5.8274">
        <ele>307.8</ele>
        <time>2024-08-05T08:42:07Z</time>
      </trkpt>
      <trkpt lat="47.13994" lon="5.8273">
        <ele>307</ele>
        <time>2024-08-05T08:42:08Z</time>
      </trkpt>
      <trkpt lat="47.13989" lon="5.8272">
        <ele>306.4</ele>
        <time>2024-08-05T08:42:09Z</time>
      </trkpt>
      <trkpt lat="47.13985" lon="5.82709">
        <ele>305.6</ele>
        <time>2024-08-05T08:42:10Z</time>
      </trkpt>
      <trkpt lat="47.13981" lon="5.82699">
        <ele>304.6</ele>
        <time>2024-08-05T08:42:11Z</time>
      </trkpt>
      <trkpt lat="47.13976" lon="5.82689">
        <ele>304</ele>
        <time>2024-08-05T08:42:12Z</time>
      </trkpt>
      <trkpt lat="47.13972" lon="5.82678">
        <ele>303</ele>
        <time>2024-08-05T08:42:13Z</time>
      </trkpt>
      <trkpt lat="47.13968" lon="5.82667">
        <ele>302</ele>
        <time>2024-08-05T08:42:14Z</time>
      </trkpt>
      <trkpt lat="47.13965" lon="5.82656">
        <ele>301.4</ele>
        <time>2024-08-05T08:42:15Z</time>
      </trkpt>
      <trkpt lat="47.13961" lon="5.82646">
        <ele>300.6</ele>
        <time>2024-08-05T08:42:16Z</time>
      </trkpt>
      <trkpt lat="47.13958" lon="5.82634">
        <ele>300</ele>
        <time>2024-08-05T08:42:17Z</time>
      </trkpt>
      <trkpt lat="47.13956" lon="5.82623">
        <ele>299.4</ele>
        <time>2024-08-05T08:42:18Z</time>
      </trkpt>
      <trkpt lat="47.13954" lon="5.82613">
        <ele>298.8</ele>
        <time>2024-08-05T08:42:19Z</time>
      </trkpt>
      <trkpt lat="47.13953" lon="5.82603">
        <ele>298.4</ele>
        <time>2024-08-05T08:42:20Z</time>
      </trkpt>
      <trkpt lat="47.13952" lon="5.82595">
        <ele>297.8</ele>
        <time>2024-08-05T08:42:21Z</time>
      </trkpt>
      <trkpt lat="47.13952" lon="5.82586">
        <ele>297.4</ele>
        <time>2024-08-05T08:42:22Z</time>
      </trkpt>
      <trkpt lat="47.13951" lon="5.82578">
        <ele>297</ele>
        <time>2024-08-05T08:42:23Z</time>
      </trkpt>
      <trkpt lat="47.1395" lon="5.82569">
        <ele>296.6</ele>
        <time>2024-08-05T08:42:24Z</time>
      </trkpt>
      <trkpt lat="47.13948" lon="5.82561">
        <ele>296.6</ele>
        <time>2024-08-05T08:42:25Z</time>
      </trkpt>
      <trkpt lat="47.13946" lon="5.82552">
        <ele>296.4</ele>
        <time>2024-08-05T08:42:26Z</time>
      </trkpt>
      <trkpt lat="47.13944" lon="5.82543">
        <ele>296</ele>
        <time>2024-08-05T08:42:27Z</time>
      </trkpt>
      <trkpt lat="47.13942" lon="5.82535">
        <ele>296</ele>
        <time>2024-08-05T08:42:28Z</time>
      </trkpt>
      <trkpt lat="47.1394" lon="5.82527">
        <ele>295.8</ele>
        <time>2024-08-05T08:42:29Z</time>
      </trkpt>
      <trkpt lat="47.13938" lon="5.82519">
        <ele>295.2</ele>
        <time>2024-08-05T08:42:30Z</time>
      </trkpt>
      <trkpt lat="47.13936" lon="5.82512">
        <ele>294.8</ele>
        <time>2024-08-05T08:42:31Z</time>
      </trkpt>
      <trkpt lat="47.13934" lon="5.82504">
        <ele>294.4</ele>
        <time>2024-08-05T08:42:32Z</time>
      </trkpt>
      <trkpt lat="47.13931" lon="5.82496">
        <ele>294.2</ele>
        <time>2024-08-05T08:42:33Z</time>
      </trkpt>
      <trkpt lat="47.1393" lon="5.8249">
        <ele>294.2</ele>
        <time>2024-08-05T08:42:34Z</time>
      </trkpt>
      <trkpt lat="47.13928" lon="5.82484">
        <ele>293.8</ele>
        <time>2024-08-05T08:42:35Z</time>
      </trkpt>
      <trkpt lat="47.13926" lon="5.82478">
        <ele>293.8</ele>
        <time>2024-08-05T08:42:36Z</time>
      </trkpt>
      <trkpt lat="47.13924" lon="5.82473">
        <ele>293.4</ele>
        <time>2024-08-05T08:42:37Z</time>
      </trkpt>
      <trkpt lat="47.13923" lon="5.82468">
        <ele>293.4</ele>
        <time>2024-08-05T08:42:38Z</time>
      </trkpt>
      <trkpt lat="47.13921" lon="5.82463">
        <ele>293.2</ele>
        <time>2024-08-05T08:42:39Z</time>
      </trkpt>
      <trkpt lat="47.13918" lon="5.82458">
        <ele>292.8</ele>
        <time>2024-08-05T08:42:40Z</time>
      </trkpt>
      <trkpt lat="47.13916" lon="5.82452">
        <ele>292.6</ele>
        <time>2024-08-05T08:42:41Z</time>
      </trkpt>
      <trkpt lat="47.13914" lon="5.82448">
        <ele>292.6</ele>
        <time>2024-08-05T08:42:42Z</time>
      </trkpt>
      <trkpt lat="47.13912" lon="5.82444">
        <ele>292.4</ele>
        <time>2024-08-05T08:42:43Z</time>
      </trkpt>
      <trkpt lat="47.13911" lon="5.8244">
        <ele>292.2</ele>
        <time>2024-08-05T08:42:44Z</time>
      </trkpt>
      <trkpt lat="47.13909" lon="5.82437">
        <ele>292</ele>
        <time>2024-08-05T08:42:45Z</time>
      </trkpt>
      <trkpt lat="47.13908" lon="5.82434">
        <ele>292</ele>
        <time>2024-08-05T08:42:46Z</time>
      </trkpt>
      <trkpt lat="47.13906" lon="5.8243">
        <ele>292</ele>
        <time>2024-08-05T08:42:47Z</time>
      </trkpt>
      <trkpt lat="47.13905" lon="5.82427">
        <ele>292</ele>
        <time>2024-08-05T08:42:48Z</time>
      </trkpt>
      <trkpt lat="47.13903" lon="5.82423">
        <ele>292.2</ele>
        <time>2024-08-05T08:42:49Z</time>
      </trkpt>
      <trkpt lat="47.13901" lon="5.8242">
        <ele>292</ele>
        <time>2024-08-05T08:42:50Z</time>
      </trkpt>
      <trkpt lat="47.13899" lon="5.82417">
        <ele>292</ele>
        <time>2024-08-05T08:42:51Z</time>
      </trkpt>
      <trkpt lat="47.13897" lon="5.82413">
        <ele>292</ele>
        <time>2024-08-05T08:42:52Z</time>
      </trkpt>
      <trkpt lat="47.13894" lon="5.82409">
        <ele>292</ele>
        <time>2024-08-05T08:42:53Z</time>
      </trkpt>
      <trkpt lat="47.13891" lon="5.82405">
        <ele>292</ele>
        <time>2024-08-05T08:42:54Z</time>
      </trkpt>
      <trkpt lat="47.13888" lon="5.82403">
        <ele>292.2</ele>
        <time>2024-08-05T08:42:55Z</time>
      </trkpt>
      <trkpt lat="47.13885" lon="5.82399">
        <ele>292</ele>
        <time>2024-08-05T08:42:56Z</time>
      </trkpt>
      <trkpt lat="47.13883" lon="5.82397">
        <ele>292.2</ele>
        <time>2024-08-05T08:42:57Z</time>
      </trkpt>
      <trkpt lat="47.1388" lon="5.82395">
        <ele>292.2</ele>
        <time>2024-08-05T08:42:58Z</time>
      </trkpt>
      <trkpt lat="47.13877" lon="5.82391">
        <ele>292.2</ele>
        <time>2024-08-05T08:42:59Z</time>
      </trkpt>
      <trkpt lat="47.13875" lon="5.82388">
        <ele>292.2</ele>
        <time>2024-08-05T08:43:00Z</time>
      </trkpt>
      <trkpt lat="47.13873" lon="5.82385">
        <ele>292.2</ele>
        <time>2024-08-05T08:43:01Z</time>
      </trkpt>
      <trkpt lat="47.1387" lon="5.8238">
        <ele>292.4</ele>
        <time>2024-08-05T08:43:02Z</time>
      </trkpt>
      <trkpt lat="47.13868" lon="5.82377">
        <ele>292.6</ele>
        <time>2024-08-05T08:43:03Z</time>
      </trkpt>
      <trkpt lat="47.13865" lon="5.82374">
        <ele>292.6</ele>
        <time>2024-08-05T08:43:04Z</time>
      </trkpt>
      <trkpt lat="47.13863" lon="5.82371">
        <ele>292.8</ele>
        <time>2024-08-05T08:43:05Z</time>
      </trkpt>
      <trkpt lat="47.13861" lon="5.82368">
        <ele>293</ele>
        <time>2024-08-05T08:43:06Z</time>
      </trkpt>
      <trkpt lat="47.13859" lon="5.82365">
        <ele>293</ele>
        <time>2024-08-05T08:43:07Z</time>
      </trkpt>
      <trkpt lat="47.13857" lon="5.82362">
        <ele>293.2</ele>
        <time>2024-08-05T08:43:08Z</time>
      </trkpt>
      <trkpt lat="47.13855" lon="5.8236">
        <ele>293.2</ele>
        <time>2024-08-05T08:43:09Z</time>
      </trkpt>
      <trkpt lat="47.13853" lon="5.82356">
        <ele>293.4</ele>
        <time>2024-08-05T08:43:10Z</time>
      </trkpt>
      <trkpt lat="47.13852" lon="5.82353">
        <ele>293.4</ele>
        <time>2024-08-05T08:43:11Z</time>
      </trkpt>
      <trkpt lat="47.13849" lon="5.82348">
        <ele>293.4</ele>
        <time>2024-08-05T08:43:12Z</time>
      </trkpt>
      <trkpt lat="47.13847" lon="5.82345">
        <ele>293.6</ele>
        <time>2024-08-05T08:43:13Z</time>
      </trkpt>
      <trkpt lat="47.13845" lon="5.8234">
        <ele>293.6</ele>
        <time>2024-08-05T08:43:14Z</time>
      </trkpt>
      <trkpt lat="47.13843" lon="5.82337">
        <ele>293.8</ele>
        <time>2024-08-05T08:43:15Z</time>
      </trkpt>
      <trkpt lat="47.13841" lon="5.82334">
        <ele>293.8</ele>
        <time>2024-08-05T08:43:16Z</time>
      </trkpt>
      <trkpt lat="47.13839" lon="5.8233">
        <ele>293.8</ele>
        <time>2024-08-05T08:43:17Z</time>
      </trkpt>
      <trkpt lat="47.13836" lon="5.82325">
        <ele>293.8</ele>
        <time>2024-08-05T08:43:18Z</time>
      </trkpt>
      <trkpt lat="47.13833" lon="5.82319">
        <ele>293.8</ele>
        <time>2024-08-05T08:43:19Z</time>
      </trkpt>
      <trkpt lat="47.13829" lon="5.82313">
        <ele>293.8</ele>
        <time>2024-08-05T08:43:20Z</time>
      </trkpt>
      <trkpt lat="47.13826" lon="5.82307">
        <ele>293.8</ele>
        <time>2024-08-05T08:43:21Z</time>
      </trkpt>
      <trkpt lat="47.13823" lon="5.82303">
        <ele>294</ele>
        <time>2024-08-05T08:43:22Z</time>
      </trkpt>
      <trkpt lat="47.1382" lon="5.82298">
        <ele>293.8</ele>
        <time>2024-08-05T08:43:23Z</time>
      </trkpt>
      <trkpt lat="47.13817" lon="5.82294">
        <ele>293.8</ele>
        <time>2024-08-05T08:43:24Z</time>
      </trkpt>
      <trkpt lat="47.13814" lon="5.82289">
        <ele>293.8</ele>
        <time>2024-08-05T08:43:25Z</time>
      </trkpt>
      <trkpt lat="47.1381" lon="5.82285">
        <ele>293.8</ele>
        <time>2024-08-05T08:43:26Z</time>
      </trkpt>
      <trkpt lat="47.13806" lon="5.82282">
        <ele>293.8</ele>
        <time>2024-08-05T08:43:27Z</time>
      </trkpt>
      <trkpt lat="47.13802" lon="5.82278">
        <ele>293.8</ele>
        <time>2024-08-05T08:43:28Z</time>
      </trkpt>
      <trkpt lat="47.13797" lon="5.82275">
        <ele>293.6</ele>
        <time>2024-08-05T08:43:29Z</time>
      </trkpt>
      <trkpt lat="47.13792" lon="5.82271">
        <ele>293.6</ele>
        <time>2024-08-05T08:43:30Z</time>
      </trkpt>
      <trkpt lat="47.13788" lon="5.82267">
        <ele>293.6</ele>
        <time>2024-08-05T08:43:31Z</time>
      </trkpt>
      <trkpt lat="47.13784" lon="5.82264">
        <ele>293.6</ele>
        <time>2024-08-05T08:43:32Z</time>
      </trkpt>
      <trkpt lat="47.13779" lon="5.82261">
        <ele>293.6</ele>
        <time>2024-08-05T08:43:33Z</time>
      </trkpt>
      <trkpt lat="47.13775" lon="5.82256">
        <ele>293.4</ele>
        <time>2024-08-05T08:43:34Z</time>
      </trkpt>
      <trkpt lat="47.13771" lon="5.82252">
        <ele>293.4</ele>
        <time>2024-08-05T08:43:35Z</time>
      </trkpt>
      <trkpt lat="47.13767" lon="5.82249">
        <ele>293.4</ele>
        <time>2024-08-05T08:43:36Z</time>
      </trkpt>
      <trkpt lat="47.13762" lon="5.82245">
        <ele>293.2</ele>
        <time>2024-08-05T08:43:37Z</time>
      </trkpt>
      <trkpt lat="47.13757" lon="5.82239">
        <ele>293.2</ele>
        <time>2024-08-05T08:43:38Z</time>
      </trkpt>
      <trkpt lat="47.13751" lon="5.82234">
        <ele>293.2</ele>
        <time>2024-08-05T08:43:39Z</time>
      </trkpt>
      <trkpt lat="47.13745" lon="5.82228">
        <ele>293.2</ele>
        <time>2024-08-05T08:43:40Z</time>
      </trkpt>
      <trkpt lat="47.13739" lon="5.82222">
        <ele>293</ele>
        <time>2024-08-05T08:43:41Z</time>
      </trkpt>
      <trkpt lat="47.13733" lon="5.82216">
        <ele>292.8</ele>
        <time>2024-08-05T08:43:42Z</time>
      </trkpt>
      <trkpt lat="47.13728" lon="5.82211">
        <ele>292.4</ele>
        <time>2024-08-05T08:43:43Z</time>
      </trkpt>
      <trkpt lat="47.13723" lon="5.82207">
        <ele>292.4</ele>
        <time>2024-08-05T08:43:44Z</time>
      </trkpt>
      <trkpt lat="47.13718" lon="5.82203">
        <ele>292.2</ele>
        <time>2024-08-05T08:43:45Z</time>
      </trkpt>
      <trkpt lat="47.13712" lon="5.82199">
        <ele>292</ele>
        <time>2024-08-05T08:43:46Z</time>
      </trkpt>
      <trkpt lat="47.13705" lon="5.82196">
        <ele>291.8</ele>
        <time>2024-08-05T08:43:47Z</time>
      </trkpt>
      <trkpt lat="47.13698" lon="5.82193">
        <ele>291.8</ele>
        <time>2024-08-05T08:43:48Z</time>
      </trkpt>
      <trkpt lat="47.13691" lon="5.82189">
        <ele>291.4</ele>
        <time>2024-08-05T08:43:49Z</time>
      </trkpt>
      <trkpt lat="47.13683" lon="5.82184">
        <ele>291.2</ele>
        <time>2024-08-05T08:43:50Z</time>
      </trkpt>
      <trkpt lat="47.13675" lon="5.8218">
        <ele>290.6</ele>
        <time>2024-08-05T08:43:51Z</time>
      </trkpt>
      <trkpt lat="47.13668" lon="5.82173">
        <ele>290.6</ele>
        <time>2024-08-05T08:43:52Z</time>
      </trkpt>
      <trkpt lat="47.1366" lon="5.82167">
        <ele>290.2</ele>
        <time>2024-08-05T08:43:53Z</time>
      </trkpt>
      <trkpt lat="47.13653" lon="5.8216">
        <ele>289.8</ele>
        <time>2024-08-05T08:43:54Z</time>
      </trkpt>
      <trkpt lat="47.13646" lon="5.82151">
        <ele>289.2</ele>
        <time>2024-08-05T08:43:55Z</time>
      </trkpt>
      <trkpt lat="47.1364" lon="5.82142">
        <ele>288.8</ele>
        <time>2024-08-05T08:43:56Z</time>
      </trkpt>
      <trkpt lat="47.13635" lon="5.82132">
        <ele>288.2</ele>
        <time>2024-08-05T08:43:57Z</time>
      </trkpt>
      <trkpt lat="47.13629" lon="5.82122">
        <ele>287.8</ele>
        <time>2024-08-05T08:43:58Z</time>
      </trkpt>
      <trkpt lat="47.13624" lon="5.82113">
        <ele>287.2</ele>
        <time>2024-08-05T08:43:59Z</time>
      </trkpt>
      <trkpt lat="47.13619" lon="5.82104">
        <ele>286.6</ele>
        <time>2024-08-05T08:44:00Z</time>
      </trkpt>
      <trkpt lat="47.13613" lon="5.82097">
        <ele>285.8</ele>
        <time>2024-08-05T08:44:01Z</time>
      </trkpt>
      <trkpt lat="47.13608" lon="5.82091">
        <ele>285.2</ele>
        <time>2024-08-05T08:44:02Z</time>
      </trkpt>
      <trkpt lat="47.13603" lon="5.82086">
        <ele>284.6</ele>
        <time>2024-08-05T08:44:03Z</time>
      </trkpt>
      <trkpt lat="47.13597" lon="5.8208">
        <ele>283.8</ele>
        <time>2024-08-05T08:44:04Z</time>
      </trkpt>
      <trkpt lat="47.13592" lon="5.82075">
        <ele>283.6</ele>
        <time>2024-08-05T08:44:05Z</time>
      </trkpt>
      <trkpt lat="47.13586" lon="5.82069">
        <ele>283.2</ele>
        <time>2024-08-05T08:44:06Z</time>
      </trkpt>
      <trkpt lat="47.13579" lon="5.82062">
        <ele>282.6</ele>
        <time>2024-08-05T08:44:07Z</time>
      </trkpt>
      <trkpt lat="47.13573" lon="5.82056">
        <ele>281.4</ele>
        <time>2024-08-05T08:44:08Z</time>
      </trkpt>
      <trkpt lat="47.13567" lon="5.82048">
        <ele>280.6</ele>
        <time>2024-08-05T08:44:09Z</time>
      </trkpt>
      <trkpt lat="47.1356" lon="5.82041">
        <ele>280</ele>
        <time>2024-08-05T08:44:10Z</time>
      </trkpt>
      <trkpt lat="47.13554" lon="5.82032">
        <ele>279.4</ele>
        <time>2024-08-05T08:44:11Z</time>
      </trkpt>
      <trkpt lat="47.13548" lon="5.82023">
        <ele>278.6</ele>
        <time>2024-08-05T08:44:12Z</time>
      </trkpt>
      <trkpt lat="47.13542" lon="5.82013">
        <ele>277.4</ele>
        <time>2024-08-05T08:44:13Z</time>
      </trkpt>
      <trkpt lat="47.1354" lon="5.82001">
        <ele>277.4</ele>
        <time>2024-08-05T08:44:14Z</time>
      </trkpt>
      <trkpt lat="47.13535" lon="5.8199">
        <ele>276.4</ele>
        <time>2024-08-05T08:44:15Z</time>
      </trkpt>
      <trkpt lat="47.13531" lon="5.8198">
        <ele>275.4</ele>
        <time>2024-08-05T08:44:16Z</time>
      </trkpt>
      <trkpt lat="47.13527" lon="5.81968">
        <ele>274.4</ele>
        <time>2024-08-05T08:44:17Z</time>
      </trkpt>
      <trkpt lat="47.13523" lon="5.81958">
        <ele>273.2</ele>
        <time>2024-08-05T08:44:18Z</time>
      </trkpt>
      <trkpt lat="47.13519" lon="5.81947">
        <ele>272</ele>
        <time>2024-08-05T08:44:19Z</time>
      </trkpt>
      <trkpt lat="47.13514" lon="5.81937">
        <ele>271</ele>
        <time>2024-08-05T08:44:20Z</time>
      </trkpt>
      <trkpt lat="47.1351" lon="5.81928">
        <ele>270.4</ele>
        <time>2024-08-05T08:44:21Z</time>
      </trkpt>
      <trkpt lat="47.13507" lon="5.8192">
        <ele>269.8</ele>
        <time>2024-08-05T08:44:22Z</time>
      </trkpt>
      <trkpt lat="47.13504" lon="5.81913">
        <ele>269.2</ele>
        <time>2024-08-05T08:44:23Z</time>
      </trkpt>
      <trkpt lat="47.13501" lon="5.81907">
        <ele>268.8</ele>
        <time>2024-08-05T08:44:24Z</time>
      </trkpt>
      <trkpt lat="47.13498" lon="5.81901">
        <ele>268.2</ele>
        <time>2024-08-05T08:44:25Z</time>
      </trkpt>
      <trkpt lat="47.13495" lon="5.81896">
        <ele>268</ele>
        <time>2024-08-05T08:44:26Z</time>
      </trkpt>
      <trkpt lat="47.13492" lon="5.8189">
        <ele>267.2</ele>
        <time>2024-08-05T08:44:27Z</time>
      </trkpt>
      <trkpt lat="47.13488" lon="5.81883">
        <ele>266.6</ele>
        <time>2024-08-05T08:44:28Z</time>
      </trkpt>
      <trkpt lat="47.13483" lon="5.81877">
        <ele>266</ele>
        <time>2024-08-05T08:44:29Z</time>
      </trkpt>
      <trkpt lat="47.1348" lon="5.81871">
        <ele>265.6</ele>
        <time>2024-08-05T08:44:30Z</time>
      </trkpt>
      <trkpt lat="47.13476" lon="5.81863">
        <ele>264.8</ele>
        <time>2024-08-05T08:44:31Z</time>
      </trkpt>
      <trkpt lat="47.13473" lon="5.81855">
        <ele>264.4</ele>
        <time>2024-08-05T08:44:32Z</time>
      </trkpt>
      <trkpt lat="47.1347" lon="5.81848">
        <ele>263.6</ele>
        <time>2024-08-05T08:44:33Z</time>
      </trkpt>
      <trkpt lat="47.13466" lon="5.8184">
        <ele>263.4</ele>
        <time>2024-08-05T08:44:34Z</time>
      </trkpt>
      <trkpt lat="47.13463" lon="5.81832">
        <ele>262.8</ele>
        <time>2024-08-05T08:44:35Z</time>
      </trkpt>
      <trkpt lat="47.13459" lon="5.81824">
        <ele>262.8</ele>
        <time>2024-08-05T08:44:36Z</time>
      </trkpt>
      <trkpt lat="47.13454" lon="5.81815">
        <ele>262.4</ele>
        <time>2024-08-05T08:44:37Z</time>
      </trkpt>
      <trkpt lat="47.13449" lon="5.81807">
        <ele>262</ele>
        <time>2024-08-05T08:44:38Z</time>
      </trkpt>
      <trkpt lat="47.13445" lon="5.818">
        <ele>261.8</ele>
        <time>2024-08-05T08:44:39Z</time>
      </trkpt>
      <trkpt lat="47.1344" lon="5.81793">
        <ele>261.4</ele>
        <time>2024-08-05T08:44:40Z</time>
      </trkpt>
      <trkpt lat="47.13435" lon="5.81786">
        <ele>261.2</ele>
        <time>2024-08-05T08:44:41Z</time>
      </trkpt>
      <trkpt lat="47.13431" lon="5.81779">
        <ele>260.8</ele>
        <time>2024-08-05T08:44:42Z</time>
      </trkpt>
      <trkpt lat="47.13426" lon="5.81773">
        <ele>260.4</ele>
        <time>2024-08-05T08:44:43Z</time>
      </trkpt>
      <trkpt lat="47.13422" lon="5.81767">
        <ele>260.2</ele>
        <time>2024-08-05T08:44:44Z</time>
      </trkpt>
      <trkpt lat="47.13417" lon="5.81762">
        <ele>260</ele>
        <time>2024-08-05T08:44:45Z</time>
      </trkpt>
      <trkpt lat="47.13412" lon="5.81757">
        <ele>260</ele>
        <time>2024-08-05T08:44:46Z</time>
      </trkpt>
      <trkpt lat="47.13407" lon="5.81753">
        <ele>259.8</ele>
        <time>2024-08-05T08:44:47Z</time>
      </trkpt>
      <trkpt lat="47.13403" lon="5.81748">
        <ele>259.8</ele>
        <time>2024-08-05T08:44:48Z</time>
      </trkpt>
      <trkpt lat="47.13398" lon="5.81744">
        <ele>259.6</ele>
        <time>2024-08-05T08:44:49Z</time>
      </trkpt>
      <trkpt lat="47.13394" lon="5.8174">
        <ele>259.6</ele>
        <time>2024-08-05T08:44:50Z</time>
      </trkpt>
      <trkpt lat="47.1339" lon="5.81736">
        <ele>259.4</ele>
        <time>2024-08-05T08:44:51Z</time>
      </trkpt>
      <trkpt lat="47.13385" lon="5.81732">
        <ele>259.6</ele>
        <time>2024-08-05T08:44:52Z</time>
      </trkpt>
      <trkpt lat="47.13381" lon="5.81728">
        <ele>259.4</ele>
        <time>2024-08-05T08:44:53Z</time>
      </trkpt>
      <trkpt lat="47.13376" lon="5.81724">
        <ele>259.6</ele>
        <time>2024-08-05T08:44:54Z</time>
      </trkpt>
      <trkpt lat="47.13371" lon="5.8172">
        <ele>259.6</ele>
        <time>2024-08-05T08:44:55Z</time>
      </trkpt>
      <trkpt lat="47.13368" lon="5.81716">
        <ele>259.4</ele>
        <time>2024-08-05T08:44:56Z</time>
      </trkpt>
      <trkpt lat="47.13364" lon="5.81713">
        <ele>259.6</ele>
        <time>2024-08-05T08:44:57Z</time>
      </trkpt>
      <trkpt lat="47.1336" lon="5.81709">
        <ele>259.6</ele>
        <time>2024-08-05T08:44:58Z</time>
      </trkpt>
      <trkpt lat="47.13357" lon="5.81705">
        <ele>259.6</ele>
        <time>2024-08-05T08:44:59Z</time>
      </trkpt>
      <trkpt lat="47.13354" lon="5.81701">
        <ele>259.8</ele>
        <time>2024-08-05T08:45:00Z</time>
      </trkpt>
      <trkpt lat="47.13351" lon="5.81696">
        <ele>260</ele>
        <time>2024-08-05T08:45:01Z</time>
      </trkpt>
      <trkpt lat="47.13349" lon="5.81692">
        <ele>260.2</ele>
        <time>2024-08-05T08:45:02Z</time>
      </trkpt>
      <trkpt lat="47.13347" lon="5.81689">
        <ele>260.4</ele>
        <time>2024-08-05T08:45:03Z</time>
      </trkpt>
      <trkpt lat="47.13345" lon="5.81686">
        <ele>260.6</ele>
        <time>2024-08-05T08:45:04Z</time>
      </trkpt>
      <trkpt lat="47.13343" lon="5.81683">
        <ele>261</ele>
        <time>2024-08-05T08:45:05Z</time>
      </trkpt>
      <trkpt lat="47.13341" lon="5.81682">
        <ele>261.4</ele>
        <time>2024-08-05T08:45:06Z</time>
      </trkpt>
      <trkpt lat="47.13339" lon="5.8168">
        <ele>261.8</ele>
        <time>2024-08-05T08:45:07Z</time>
      </trkpt>
      <trkpt lat="47.13338" lon="5.81679">
        <ele>262</ele>
        <time>2024-08-05T08:45:08Z</time>
      </trkpt>
      <trkpt lat="47.13337" lon="5.81677">
        <ele>262.4</ele>
        <time>2024-08-05T08:45:09Z</time>
      </trkpt>
      <trkpt lat="47.13335" lon="5.81676">
        <ele>263</ele>
        <time>2024-08-05T08:45:10Z</time>
      </trkpt>
      <trkpt lat="47.13333" lon="5.81674">
        <ele>263.6</ele>
        <time>2024-08-05T08:45:11Z</time>
      </trkpt>
      <trkpt lat="47.13331" lon="5.81672">
        <ele>264</ele>
        <time>2024-08-05T08:45:12Z</time>
      </trkpt>
      <trkpt lat="47.13329" lon="5.81669">
        <ele>264.6</ele>
        <time>2024-08-05T08:45:13Z</time>
      </trkpt>
      <trkpt lat="47.13328" lon="5.81666">
        <ele>264.8</ele>
        <time>2024-08-05T08:45:14Z</time>
      </trkpt>
      <trkpt lat="47.13326" lon="5.81664">
        <ele>265.2</ele>
        <time>2024-08-05T08:45:15Z</time>
      </trkpt>
      <trkpt lat="47.13325" lon="5.81661">
        <ele>265.4</ele>
        <time>2024-08-05T08:45:16Z</time>
      </trkpt>
      <trkpt lat="47.13324" lon="5.81659">
        <ele>266</ele>
        <time>2024-08-05T08:45:17Z</time>
      </trkpt>
      <trkpt lat="47.13322" lon="5.81657">
        <ele>266.4</ele>
        <time>2024-08-05T08:45:18Z</time>
      </trkpt>
      <trkpt lat="47.13321" lon="5.81655">
        <ele>266.8</ele>
        <time>2024-08-05T08:45:19Z</time>
      </trkpt>
      <trkpt lat="47.13319" lon="5.81652">
        <ele>266.8</ele>
        <time>2024-08-05T08:45:20Z</time>
      </trkpt>
      <trkpt lat="47.13317" lon="5.8165">
        <ele>267.4</ele>
        <time>2024-08-05T08:45:21Z</time>
      </trkpt>
      <trkpt lat="47.13315" lon="5.81649">
        <ele>267.8</ele>
        <time>2024-08-05T08:45:22Z</time>
      </trkpt>
      <trkpt lat="47.13313" lon="5.81648">
        <ele>268.4</ele>
        <time>2024-08-05T08:45:23Z</time>
      </trkpt>
      <trkpt lat="47.1331" lon="5.81648">
        <ele>268.6</ele>
        <time>2024-08-05T08:45:24Z</time>
      </trkpt>
      <trkpt lat="47.13308" lon="5.81647">
        <ele>269</ele>
        <time>2024-08-05T08:45:25Z</time>
      </trkpt>
      <trkpt lat="47.13307" lon="5.81646">
        <ele>269.4</ele>
        <time>2024-08-05T08:45:26Z</time>
      </trkpt>
      <trkpt lat="47.13305" lon="5.81646">
        <ele>269.8</ele>
        <time>2024-08-05T08:45:27Z</time>
      </trkpt>
      <trkpt lat="47.13303" lon="5.81645">
        <ele>269.8</ele>
        <time>2024-08-05T08:45:28Z</time>
      </trkpt>
      <trkpt lat="47.13301" lon="5.81644">
        <ele>270</ele>
        <time>2024-08-05T08:45:29Z</time>
      </trkpt>
      <trkpt lat="47.13298" lon="5.81643">
        <ele>270.4</ele>
        <time>2024-08-05T08:45:30Z</time>
      </trkpt>
      <trkpt lat="47.13295" lon="5.81644">
        <ele>270.6</ele>
        <time>2024-08-05T08:45:31Z</time>
      </trkpt>
      <trkpt lat="47.13292" lon="5.81645">
        <ele>270.8</ele>
        <time>2024-08-05T08:45:32Z</time>
      </trkpt>
      <trkpt lat="47.13288" lon="5.81647">
        <ele>271</ele>
        <time>2024-08-05T08:45:33Z</time>
      </trkpt>
      <trkpt lat="47.13285" lon="5.81649">
        <ele>271.2</ele>
        <time>2024-08-05T08:45:34Z</time>
      </trkpt>
      <trkpt lat="47.13282" lon="5.81652">
        <ele>271.6</ele>
        <time>2024-08-05T08:45:35Z</time>
      </trkpt>
      <trkpt lat="47.13279" lon="5.81654">
        <ele>271.8</ele>
        <time>2024-08-05T08:45:36Z</time>
      </trkpt>
      <trkpt lat="47.13275" lon="5.81657">
        <ele>272</ele>
        <time>2024-08-05T08:45:37Z</time>
      </trkpt>
      <trkpt lat="47.13272" lon="5.81661">
        <ele>272</ele>
        <time>2024-08-05T08:45:38Z</time>
      </trkpt>
      <trkpt lat="47.13268" lon="5.81664">
        <ele>272.2</ele>
        <time>2024-08-05T08:45:39Z</time>
      </trkpt>
      <trkpt lat="47.13265" lon="5.81667">
        <ele>272</ele>
        <time>2024-08-05T08:45:40Z</time>
      </trkpt>
      <trkpt lat="47.13261" lon="5.81671">
        <ele>272.2</ele>
        <time>2024-08-05T08:45:41Z</time>
      </trkpt>
      <trkpt lat="47.13258" lon="5.81675">
        <ele>272.2</ele>
        <time>2024-08-05T08:45:42Z</time>
      </trkpt>
      <trkpt lat="47.13254" lon="5.81678">
        <ele>272.2</ele>
        <time>2024-08-05T08:45:43Z</time>
      </trkpt>
      <trkpt lat="47.1325" lon="5.81681">
        <ele>272.2</ele>
        <time>2024-08-05T08:45:44Z</time>
      </trkpt>
      <trkpt lat="47.13246" lon="5.81684">
        <ele>272.2</ele>
        <time>2024-08-05T08:45:45Z</time>
      </trkpt>
      <trkpt lat="47.13242" lon="5.81687">
        <ele>272.2</ele>
        <time>2024-08-05T08:45:46Z</time>
      </trkpt>
      <trkpt lat="47.13238" lon="5.81689">
        <ele>272</ele>
        <time>2024-08-05T08:45:47Z</time>
      </trkpt>
      <trkpt lat="47.13234" lon="5.81691">
        <ele>272.2</ele>
        <time>2024-08-05T08:45:48Z</time>
      </trkpt>
      <trkpt lat="47.13229" lon="5.81693">
        <ele>272.2</ele>
        <time>2024-08-05T08:45:49Z</time>
      </trkpt>
      <trkpt lat="47.13225" lon="5.81694">
        <ele>272</ele>
        <time>2024-08-05T08:45:50Z</time>
      </trkpt>
      <trkpt lat="47.13221" lon="5.81695">
        <ele>272</ele>
        <time>2024-08-05T08:45:51Z</time>
      </trkpt>
      <trkpt lat="47.13216" lon="5.81697">
        <ele>272</ele>
        <time>2024-08-05T08:45:52Z</time>
      </trkpt>
      <trkpt lat="47.13212" lon="5.81698">
        <ele>272</ele>
        <time>2024-08-05T08:45:53Z</time>
      </trkpt>
      <trkpt lat="47.13207" lon="5.81699">
        <ele>271.8</ele>
        <time>2024-08-05T08:45:54Z</time>
      </trkpt>
      <trkpt lat="47.13203" lon="5.81701">
        <ele>271.8</ele>
        <time>2024-08-05T08:45:55Z</time>
      </trkpt>
      <trkpt lat="47.13199" lon="5.81703">
        <ele>272</ele>
        <time>2024-08-05T08:45:56Z</time>
      </trkpt>
      <trkpt lat="47.13194" lon="5.81704">
        <ele>271.8</ele>
        <time>2024-08-05T08:45:57Z</time>
      </trkpt>
      <trkpt lat="47.1319" lon="5.81706">
        <ele>271.8</ele>
        <time>2024-08-05T08:45:58Z</time>
      </trkpt>
      <trkpt lat="47.13186" lon="5.81708">
        <ele>271.8</ele>
        <time>2024-08-05T08:45:59Z</time>
      </trkpt>
      <trkpt lat="47.13182" lon="5.8171">
        <ele>272</ele>
        <time>2024-08-05T08:46:00Z</time>
      </trkpt>
      <trkpt lat="47.13178" lon="5.81713">
        <ele>271.8</ele>
        <time>2024-08-05T08:46:01Z</time>
      </trkpt>
      <trkpt lat="47.13174" lon="5.81716">
        <ele>271.8</ele>
        <time>2024-08-05T08:46:02Z</time>
      </trkpt>
      <trkpt lat="47.1317" lon="5.81719">
        <ele>272</ele>
        <time>2024-08-05T08:46:03Z</time>
      </trkpt>
      <trkpt lat="47.13167" lon="5.81722">
        <ele>272</ele>
        <time>2024-08-05T08:46:04Z</time>
      </trkpt>
      <trkpt lat="47.13163" lon="5.81725">
        <ele>272.2</ele>
        <time>2024-08-05T08:46:05Z</time>
      </trkpt>
      <trkpt lat="47.13159" lon="5.81728">
        <ele>272.2</ele>
        <time>2024-08-05T08:46:06Z</time>
      </trkpt>
      <trkpt lat="47.13155" lon="5.81731">
        <ele>272.2</ele>
        <time>2024-08-05T08:46:07Z</time>
      </trkpt>
      <trkpt lat="47.13151" lon="5.81735">
        <ele>272.2</ele>
        <time>2024-08-05T08:46:08Z</time>
      </trkpt>
      <trkpt lat="47.13148" lon="5.81739">
        <ele>272.4</ele>
        <time>2024-08-05T08:46:09Z</time>
      </trkpt>
      <trkpt lat="47.13145" lon="5.81743">
        <ele>272.4</ele>
        <time>2024-08-05T08:46:10Z</time>
      </trkpt>
      <trkpt lat="47.13141" lon="5.81747">
        <ele>272.8</ele>
        <time>2024-08-05T08:46:11Z</time>
      </trkpt>
      <trkpt lat="47.13138" lon="5.81752">
        <ele>272.8</ele>
        <time>2024-08-05T08:46:12Z</time>
      </trkpt>
      <trkpt lat="47.13135" lon="5.81756">
        <ele>273</ele>
        <time>2024-08-05T08:46:13Z</time>
      </trkpt>
      <trkpt lat="47.13132" lon="5.81761">
        <ele>273.2</ele>
        <time>2024-08-05T08:46:14Z</time>
      </trkpt>
      <trkpt lat="47.13129" lon="5.81766">
        <ele>273.4</ele>
        <time>2024-08-05T08:46:15Z</time>
      </trkpt>
      <trkpt lat="47.13126" lon="5.81771">
        <ele>273.6</ele>
        <time>2024-08-05T08:46:16Z</time>
      </trkpt>
      <trkpt lat="47.13123" lon="5.81776">
        <ele>273.6</ele>
        <time>2024-08-05T08:46:17Z</time>
      </trkpt>
      <trkpt lat="47.1312" lon="5.81781">
        <ele>273.8</ele>
        <time>2024-08-05T08:46:18Z</time>
      </trkpt>
      <trkpt lat="47.13117" lon="5.81785">
        <ele>274.2</ele>
        <time>2024-08-05T08:46:19Z</time>
      </trkpt>
      <trkpt lat="47.13114" lon="5.8179">
        <ele>274.2</ele>
        <time>2024-08-05T08:46:20Z</time>
      </trkpt>
      <trkpt lat="47.13112" lon="5.81794">
        <ele>274.4</ele>
        <time>2024-08-05T08:46:21Z</time>
      </trkpt>
      <trkpt lat="47.13109" lon="5.81799">
        <ele>274.6</ele>
        <time>2024-08-05T08:46:22Z</time>
      </trkpt>
      <trkpt lat="47.13107" lon="5.81803">
        <ele>275</ele>
        <time>2024-08-05T08:46:23Z</time>
      </trkpt>
      <trkpt lat="47.13104" lon="5.81808">
        <ele>275.2</ele>
        <time>2024-08-05T08:46:24Z</time>
      </trkpt>
      <trkpt lat="47.13101" lon="5.81814">
        <ele>275.6</ele>
        <time>2024-08-05T08:46:25Z</time>
      </trkpt>
      <trkpt lat="47.13098" lon="5.81819">
        <ele>275.6</ele>
        <time>2024-08-05T08:46:26Z</time>
      </trkpt>
      <trkpt lat="47.13096" lon="5.81825">
        <ele>276.2</ele>
        <time>2024-08-05T08:46:27Z</time>
      </trkpt>
      <trkpt lat="47.13093" lon="5.8183">
        <ele>276.4</ele>
        <time>2024-08-05T08:46:28Z</time>
      </trkpt>
      <trkpt lat="47.13091" lon="5.81834">
        <ele>276.6</ele>
        <time>2024-08-05T08:46:29Z</time>
      </trkpt>
      <trkpt lat="47.13088" lon="5.81838">
        <ele>276.8</ele>
        <time>2024-08-05T08:46:30Z</time>
      </trkpt>
      <trkpt lat="47.13086" lon="5.81843">
        <ele>276.8</ele>
        <time>2024-08-05T08:46:31Z</time>
      </trkpt>
      <trkpt lat="47.13084" lon="5.81847">
        <ele>277</ele>
        <time>2024-08-05T08:46:32Z</time>
      </trkpt>
      <trkpt lat="47.13082" lon="5.81851">
        <ele>277.2</ele>
        <time>2024-08-05T08:46:33Z</time>
      </trkpt>
      <trkpt lat="47.1308" lon="5.81854">
        <ele>277.4</ele>
        <time>2024-08-05T08:46:34Z</time>
      </trkpt>
      <trkpt lat="47.13078" lon="5.81859">
        <ele>277.6</ele>
        <time>2024-08-05T08:46:35Z</time>
      </trkpt>
      <trkpt lat="47.13076" lon="5.81864">
        <ele>278</ele>
        <time>2024-08-05T08:46:36Z</time>
      </trkpt>
      <trkpt lat="47.13074" lon="5.8187">
        <ele>278.2</ele>
        <time>2024-08-05T08:46:37Z</time>
      </trkpt>
      <trkpt lat="47.13072" lon="5.81876">
        <ele>278.4</ele>
        <time>2024-08-05T08:46:38Z</time>
      </trkpt>
      <trkpt lat="47.1307" lon="5.81882">
        <ele>278.4</ele>
        <time>2024-08-05T08:46:39Z</time>
      </trkpt>
      <trkpt lat="47.13068" lon="5.81889">
        <ele>278.6</ele>
        <time>2024-08-05T08:46:40Z</time>
      </trkpt>
      <trkpt lat="47.13065" lon="5.81894">
        <ele>278.6</ele>
        <time>2024-08-05T08:46:41Z</time>
      </trkpt>
      <trkpt lat="47.13062" lon="5.819">
        <ele>278.8</ele>
        <time>2024-08-05T08:46:42Z</time>
      </trkpt>
      <trkpt lat="47.1306" lon="5.81907">
        <ele>279</ele>
        <time>2024-08-05T08:46:43Z</time>
      </trkpt>
      <trkpt lat="47.13058" lon="5.81911">
        <ele>279.2</ele>
        <time>2024-08-05T08:46:44Z</time>
      </trkpt>
      <trkpt lat="47.13055" lon="5.81915">
        <ele>279.6</ele>
        <time>2024-08-05T08:46:45Z</time>
      </trkpt>
      <trkpt lat="47.13052" lon="5.8192">
        <ele>279.6</ele>
        <time>2024-08-05T08:46:46Z</time>
      </trkpt>
      <trkpt lat="47.1305" lon="5.81924">
        <ele>279.8</ele>
        <time>2024-08-05T08:46:47Z</time>
      </trkpt>
      <trkpt lat="47.13047" lon="5.81929">
        <ele>279.8</ele>
        <time>2024-08-05T08:46:48Z</time>
      </trkpt>
      <trkpt lat="47.13045" lon="5.81934">
        <ele>280.2</ele>
        <time>2024-08-05T08:46:49Z</time>
      </trkpt>
      <trkpt lat="47.13043" lon="5.81939">
        <ele>280.2</ele>
        <time>2024-08-05T08:46:50Z</time>
      </trkpt>
      <trkpt lat="47.13041" lon="5.81945">
        <ele>280.6</ele>
        <time>2024-08-05T08:46:51Z</time>
      </trkpt>
      <trkpt lat="47.13039" lon="5.8195">
        <ele>280.6</ele>
        <time>2024-08-05T08:46:52Z</time>
      </trkpt>
      <trkpt lat="47.13036" lon="5.81955">
        <ele>280.8</ele>
        <time>2024-08-05T08:46:53Z</time>
      </trkpt>
      <trkpt lat="47.13034" lon="5.8196">
        <ele>281</ele>
        <time>2024-08-05T08:46:54Z</time>
      </trkpt>
      <trkpt lat="47.13032" lon="5.81965">
        <ele>281.4</ele>
        <time>2024-08-05T08:46:55Z</time>
      </trkpt>
      <trkpt lat="47.13029" lon="5.8197">
        <ele>281.4</ele>
        <time>2024-08-05T08:46:56Z</time>
      </trkpt>
      <trkpt lat="47.13027" lon="5.81975">
        <ele>281.6</ele>
        <time>2024-08-05T08:46:57Z</time>
      </trkpt>
      <trkpt lat="47.13024" lon="5.81979">
        <ele>281.8</ele>
        <time>2024-08-05T08:46:58Z</time>
      </trkpt>
      <trkpt lat="47.13021" lon="5.81983">
        <ele>282</ele>
        <time>2024-08-05T08:46:59Z</time>
      </trkpt>
      <trkpt lat="47.13019" lon="5.81988">
        <ele>282.2</ele>
        <time>2024-08-05T08:47:00Z</time>
      </trkpt>
      <trkpt lat="47.13017" lon="5.81992">
        <ele>282.4</ele>
        <time>2024-08-05T08:47:01Z</time>
      </trkpt>
      <trkpt lat="47.13015" lon="5.81998">
        <ele>282.4</ele>
        <time>2024-08-05T08:47:02Z</time>
      </trkpt>
      <trkpt lat="47.13013" lon="5.82003">
        <ele>282.6</ele>
        <time>2024-08-05T08:47:03Z</time>
      </trkpt>
      <trkpt lat="47.1301" lon="5.82009">
        <ele>282.8</ele>
        <time>2024-08-05T08:47:04Z</time>
      </trkpt>
      <trkpt lat="47.13008" lon="5.82013">
        <ele>283</ele>
        <time>2024-08-05T08:47:05Z</time>
      </trkpt>
      <trkpt lat="47.13005" lon="5.82019">
        <ele>283.4</ele>
        <time>2024-08-05T08:47:06Z</time>
      </trkpt>
      <trkpt lat="47.13003" lon="5.82024">
        <ele>283.4</ele>
        <time>2024-08-05T08:47:07Z</time>
      </trkpt>
      <trkpt lat="47.13" lon="5.8203">
        <ele>283.6</ele>
        <time>2024-08-05T08:47:08Z</time>
      </trkpt>
      <trkpt lat="47.12997" lon="5.82036">
        <ele>283.8</ele>
        <time>2024-08-05T08:47:09Z</time>
      </trkpt>
      <trkpt lat="47.12995" lon="5.82042">
        <ele>283.8</ele>
        <time>2024-08-05T08:47:10Z</time>
      </trkpt>
      <trkpt lat="47.12992" lon="5.82048">
        <ele>283.8</ele>
        <time>2024-08-05T08:47:11Z</time>
      </trkpt>
      <trkpt lat="47.1299" lon="5.82053">
        <ele>284</ele>
        <time>2024-08-05T08:47:12Z</time>
      </trkpt>
      <trkpt lat="47.12987" lon="5.82059">
        <ele>284</ele>
        <time>2024-08-05T08:47:13Z</time>
      </trkpt>
      <trkpt lat="47.12984" lon="5.82064">
        <ele>284.2</ele>
        <time>2024-08-05T08:47:14Z</time>
      </trkpt>
      <trkpt lat="47.12982" lon="5.82069">
        <ele>284.2</ele>
        <time>2024-08-05T08:47:15Z</time>
      </trkpt>
      <trkpt lat="47.12979" lon="5.82075">
        <ele>284.2</ele>
        <time>2024-08-05T08:47:16Z</time>
      </trkpt>
      <trkpt lat="47.12977" lon="5.82081">
        <ele>284.4</ele>
        <time>2024-08-05T08:47:17Z</time>
      </trkpt>
      <trkpt lat="47.12974" lon="5.82086">
        <ele>284.6</ele>
        <time>2024-08-05T08:47:18Z</time>
      </trkpt>
      <trkpt lat="47.12971" lon="5.82091">
        <ele>284.6</ele>
        <time>2024-08-05T08:47:19Z</time>
      </trkpt>
      <trkpt lat="47.12969" lon="5.82096">
        <ele>284.6</ele>
        <time>2024-08-05T08:47:20Z</time>
      </trkpt>
      <trkpt lat="47.12966" lon="5.82101">
        <ele>284.6</ele>
        <time>2024-08-05T08:47:21Z</time>
      </trkpt>
      <trkpt lat="47.12964" lon="5.82106">
        <ele>284.8</ele>
        <time>2024-08-05T08:47:22Z</time>
      </trkpt>
      <trkpt lat="47.12962" lon="5.82111">
        <ele>285</ele>
        <time>2024-08-05T08:47:23Z</time>
      </trkpt>
      <trkpt lat="47.12959" lon="5.82116">
        <ele>285</ele>
        <time>2024-08-05T08:47:24Z</time>
      </trkpt>
      <trkpt lat="47.12957" lon="5.82121">
        <ele>285</ele>
        <time>2024-08-05T08:47:25Z</time>
      </trkpt>
      <trkpt lat="47.12955" lon="5.82127">
        <ele>285.2</ele>
        <time>2024-08-05T08:47:26Z</time>
      </trkpt>
      <trkpt lat="47.12952" lon="5.82132">
        <ele>285.2</ele>
        <time>2024-08-05T08:47:27Z</time>
      </trkpt>
      <trkpt lat="47.1295" lon="5.82137">
        <ele>285.2</ele>
        <time>2024-08-05T08:47:28Z</time>
      </trkpt>
      <trkpt lat="47.12948" lon="5.82142">
        <ele>285.4</ele>
        <time>2024-08-05T08:47:29Z</time>
      </trkpt>
      <trkpt lat="47.12946" lon="5.82147">
        <ele>285.6</ele>
        <time>2024-08-05T08:47:30Z</time>
      </trkpt>
      <trkpt lat="47.12944" lon="5.82153">
        <ele>285.8</ele>
        <time>2024-08-05T08:47:31Z</time>
      </trkpt>
      <trkpt lat="47.12942" lon="5.82158">
        <ele>285.8</ele>
        <time>2024-08-05T08:47:32Z</time>
      </trkpt>
      <trkpt lat="47.1294" lon="5.82164">
        <ele>285.8</ele>
        <time>2024-08-05T08:47:33Z</time>
      </trkpt>
      <trkpt lat="47.12938" lon="5.82169">
        <ele>286</ele>
        <time>2024-08-05T08:47:34Z</time>
      </trkpt>
      <trkpt lat="47.12936" lon="5.82174">
        <ele>286</ele>
        <time>2024-08-05T08:47:35Z</time>
      </trkpt>
      <trkpt lat="47.12933" lon="5.82179">
        <ele>286</ele>
        <time>2024-08-05T08:47:36Z</time>
      </trkpt>
      <trkpt lat="47.12931" lon="5.82185">
        <ele>286.4</ele>
        <time>2024-08-05T08:47:37Z</time>
      </trkpt>
      <trkpt lat="47.12928" lon="5.8219">
        <ele>286.4</ele>
        <time>2024-08-05T08:47:38Z</time>
      </trkpt>
      <trkpt lat="47.12926" lon="5.82194">
        <ele>286.2</ele>
        <time>2024-08-05T08:47:39Z</time>
      </trkpt>
      <trkpt lat="47.12923" lon="5.82198">
        <ele>286.6</ele>
        <time>2024-08-05T08:47:40Z</time>
      </trkpt>
      <trkpt lat="47.12921" lon="5.82203">
        <ele>286.6</ele>
        <time>2024-08-05T08:47:41Z</time>
      </trkpt>
      <trkpt lat="47.12919" lon="5.82208">
        <ele>286.8</ele>
        <time>2024-08-05T08:47:42Z</time>
      </trkpt>
      <trkpt lat="47.12917" lon="5.82214">
        <ele>287</ele>
        <time>2024-08-05T08:47:43Z</time>
      </trkpt>
      <trkpt lat="47.12914" lon="5.82219">
        <ele>286.8</ele>
        <time>2024-08-05T08:47:44Z</time>
      </trkpt>
      <trkpt lat="47.12912" lon="5.82225">
        <ele>287</ele>
        <time>2024-08-05T08:47:45Z</time>
      </trkpt>
      <trkpt lat="47.12909" lon="5.82231">
        <ele>287</ele>
        <time>2024-08-05T08:47:46Z</time>
      </trkpt>
      <trkpt lat="47.12906" lon="5.82237">
        <ele>287</ele>
        <time>2024-08-05T08:47:47Z</time>
      </trkpt>
      <trkpt lat="47.12903" lon="5.82242">
        <ele>287.2</ele>
        <time>2024-08-05T08:47:48Z</time>
      </trkpt>
      <trkpt lat="47.129" lon="5.82247">
        <ele>287.2</ele>
        <time>2024-08-05T08:47:49Z</time>
      </trkpt>
      <trkpt lat="47.12896" lon="5.82253">
        <ele>287.2</ele>
        <time>2024-08-05T08:47:50Z</time>
      </trkpt>
      <trkpt lat="47.12893" lon="5.82257">
        <ele>287.2</ele>
        <time>2024-08-05T08:47:51Z</time>
      </trkpt>
      <trkpt lat="47.12889" lon="5.82261">
        <ele>287.2</ele>
        <time>2024-08-05T08:47:52Z</time>
      </trkpt>
      <trkpt lat="47.12885" lon="5.82265">
        <ele>287.4</ele>
        <time>2024-08-05T08:47:53Z</time>
      </trkpt>
      <trkpt lat="47.12881" lon="5.82269">
        <ele>287.4</ele>
        <time>2024-08-05T08:47:54Z</time>
      </trkpt>
      <trkpt lat="47.12876" lon="5.82271">
        <ele>287.4</ele>
        <time>2024-08-05T08:47:55Z</time>
      </trkpt>
      <trkpt lat="47.12871" lon="5.82273">
        <ele>287.2</ele>
        <time>2024-08-05T08:47:56Z</time>
      </trkpt>
      <trkpt lat="47.12866" lon="5.82275">
        <ele>287.4</ele>
        <time>2024-08-05T08:47:57Z</time>
      </trkpt>
      <trkpt lat="47.12861" lon="5.82276">
        <ele>287.4</ele>
        <time>2024-08-05T08:47:58Z</time>
      </trkpt>
      <trkpt lat="47.12856" lon="5.82276">
        <ele>287.4</ele>
        <time>2024-08-05T08:47:59Z</time>
      </trkpt>
      <trkpt lat="47.12851" lon="5.82277">
        <ele>287.2</ele>
        <time>2024-08-05T08:48:00Z</time>
      </trkpt>
      <trkpt lat="47.12847" lon="5.82279">
        <ele>287.2</ele>
        <time>2024-08-05T08:48:01Z</time>
      </trkpt>
      <trkpt lat="47.12842" lon="5.8228">
        <ele>287</ele>
        <time>2024-08-05T08:48:02Z</time>
      </trkpt>
      <trkpt lat="47.12837" lon="5.82282">
        <ele>287.2</ele>
        <time>2024-08-05T08:48:03Z</time>
      </trkpt>
      <trkpt lat="47.12832" lon="5.82284">
        <ele>287</ele>
        <time>2024-08-05T08:48:04Z</time>
      </trkpt>
      <trkpt lat="47.12827" lon="5.82287">
        <ele>287</ele>
        <time>2024-08-05T08:48:05Z</time>
      </trkpt>
      <trkpt lat="47.12823" lon="5.82291">
        <ele>287</ele>
        <time>2024-08-05T08:48:06Z</time>
      </trkpt>
      <trkpt lat="47.12818" lon="5.82294">
        <ele>286.8</ele>
        <time>2024-08-05T08:48:07Z</time>
      </trkpt>
      <trkpt lat="47.12813" lon="5.82299">
        <ele>286.8</ele>
        <time>2024-08-05T08:48:08Z</time>
      </trkpt>
      <trkpt lat="47.12809" lon="5.82304">
        <ele>286.8</ele>
        <time>2024-08-05T08:48:09Z</time>
      </trkpt>
      <trkpt lat="47.12804" lon="5.82309">
        <ele>286.6</ele>
        <time>2024-08-05T08:48:10Z</time>
      </trkpt>
      <trkpt lat="47.128" lon="5.82316">
        <ele>286.8</ele>
        <time>2024-08-05T08:48:11Z</time>
      </trkpt>
      <trkpt lat="47.12796" lon="5.82323">
        <ele>286.8</ele>
        <time>2024-08-05T08:48:12Z</time>
      </trkpt>
      <trkpt lat="47.12792" lon="5.8233">
        <ele>286.8</ele>
        <time>2024-08-05T08:48:13Z</time>
      </trkpt>
      <trkpt lat="47.12788" lon="5.82337">
        <ele>286.6</ele>
        <time>2024-08-05T08:48:14Z</time>
      </trkpt>
      <trkpt lat="47.12784" lon="5.82344">
        <ele>286.4</ele>
        <time>2024-08-05T08:48:15Z</time>
      </trkpt>
      <trkpt lat="47.1278" lon="5.82351">
        <ele>286.4</ele>
        <time>2024-08-05T08:48:16Z</time>
      </trkpt>
      <trkpt lat="47.12776" lon="5.82358">
        <ele>286.2</ele>
        <time>2024-08-05T08:48:17Z</time>
      </trkpt>
      <trkpt lat="47.12772" lon="5.82365">
        <ele>286.4</ele>
        <time>2024-08-05T08:48:18Z</time>
      </trkpt>
      <trkpt lat="47.12767" lon="5.82371">
        <ele>286.2</ele>
        <time>2024-08-05T08:48:19Z</time>
      </trkpt>
      <trkpt lat="47.12764" lon="5.82378">
        <ele>286.2</ele>
        <time>2024-08-05T08:48:20Z</time>
      </trkpt>
      <trkpt lat="47.12759" lon="5.82384">
        <ele>286.2</ele>
        <time>2024-08-05T08:48:21Z</time>
      </trkpt>
      <trkpt lat="47.12756" lon="5.82391">
        <ele>286.2</ele>
        <time>2024-08-05T08:48:22Z</time>
      </trkpt>
      <trkpt lat="47.12752" lon="5.82397">
        <ele>286</ele>
        <time>2024-08-05T08:48:23Z</time>
      </trkpt>
      <trkpt lat="47.12749" lon="5.82404">
        <ele>286</ele>
        <time>2024-08-05T08:48:24Z</time>
      </trkpt>
      <trkpt lat="47.12745" lon="5.8241">
        <ele>285.8</ele>
        <time>2024-08-05T08:48:25Z</time>
      </trkpt>
      <trkpt lat="47.12741" lon="5.82415">
        <ele>285.8</ele>
        <time>2024-08-05T08:48:26Z</time>
      </trkpt>
      <trkpt lat="47.12737" lon="5.82421">
        <ele>285.4</ele>
        <time>2024-08-05T08:48:27Z</time>
      </trkpt>
      <trkpt lat="47.12733" lon="5.82426">
        <ele>285.4</ele>
        <time>2024-08-05T08:48:28Z</time>
      </trkpt>
      <trkpt lat="47.12729" lon="5.82431">
        <ele>285.2</ele>
        <time>2024-08-05T08:48:29Z</time>
      </trkpt>
      <trkpt lat="47.12724" lon="5.82437">
        <ele>285.2</ele>
        <time>2024-08-05T08:48:30Z</time>
      </trkpt>
      <trkpt lat="47.1272" lon="5.82444">
        <ele>285</ele>
        <time>2024-08-05T08:48:31Z</time>
      </trkpt>
      <trkpt lat="47.12715" lon="5.82451">
        <ele>284.8</ele>
        <time>2024-08-05T08:48:32Z</time>
      </trkpt>
      <trkpt lat="47.12709" lon="5.82457">
        <ele>284.8</ele>
        <time>2024-08-05T08:48:33Z</time>
      </trkpt>
      <trkpt lat="47.12704" lon="5.82463">
        <ele>284.8</ele>
        <time>2024-08-05T08:48:34Z</time>
      </trkpt>
      <trkpt lat="47.12698" lon="5.82469">
        <ele>284.8</ele>
        <time>2024-08-05T08:48:35Z</time>
      </trkpt>
      <trkpt lat="47.12692" lon="5.82476">
        <ele>284.8</ele>
        <time>2024-08-05T08:48:36Z</time>
      </trkpt>
      <trkpt lat="47.12687" lon="5.82483">
        <ele>284.6</ele>
        <time>2024-08-05T08:48:37Z</time>
      </trkpt>
      <trkpt lat="47.12681" lon="5.82489">
        <ele>284.6</ele>
        <time>2024-08-05T08:48:38Z</time>
      </trkpt>
      <trkpt lat="47.12676" lon="5.82496">
        <ele>284.4</ele>
        <time>2024-08-05T08:48:39Z</time>
      </trkpt>
      <trkpt lat="47.12671" lon="5.82503">
        <ele>284</ele>
        <time>2024-08-05T08:48:40Z</time>
      </trkpt>
      <trkpt lat="47.12666" lon="5.8251">
        <ele>283.8</ele>
        <time>2024-08-05T08:48:41Z</time>
      </trkpt>
      <trkpt lat="47.1266" lon="5.82516">
        <ele>283.6</ele>
        <time>2024-08-05T08:48:42Z</time>
      </trkpt>
      <trkpt lat="47.12655" lon="5.82523">
        <ele>283.4</ele>
        <time>2024-08-05T08:48:43Z</time>
      </trkpt>
      <trkpt lat="47.12651" lon="5.82529">
        <ele>283</ele>
        <time>2024-08-05T08:48:44Z</time>
      </trkpt>
      <trkpt lat="47.12646" lon="5.82536">
        <ele>282.8</ele>
        <time>2024-08-05T08:48:45Z</time>
      </trkpt>
      <trkpt lat="47.12641" lon="5.82542">
        <ele>282.4</ele>
        <time>2024-08-05T08:48:46Z</time>
      </trkpt>
      <trkpt lat="47.12637" lon="5.82549">
        <ele>282.4</ele>
        <time>2024-08-05T08:48:47Z</time>
      </trkpt>
      <trkpt lat="47.12633" lon="5.82557">
        <ele>282.2</ele>
        <time>2024-08-05T08:48:48Z</time>
      </trkpt>
      <trkpt lat="47.12629" lon="5.82565">
        <ele>282.2</ele>
        <time>2024-08-05T08:48:49Z</time>
      </trkpt>
      <trkpt lat="47.12625" lon="5.82573">
        <ele>282</ele>
        <time>2024-08-05T08:48:50Z</time>
      </trkpt>
      <trkpt lat="47.12622" lon="5.82581">
        <ele>282</ele>
        <time>2024-08-05T08:48:51Z</time>
      </trkpt>
      <trkpt lat="47.1262" lon="5.82589">
        <ele>282</ele>
        <time>2024-08-05T08:48:52Z</time>
      </trkpt>
      <trkpt lat="47.12618" lon="5.82598">
        <ele>282</ele>
        <time>2024-08-05T08:48:53Z</time>
      </trkpt>
      <trkpt lat="47.12616" lon="5.82607">
        <ele>282</ele>
        <time>2024-08-05T08:48:54Z</time>
      </trkpt>
      <trkpt lat="47.12614" lon="5.82616">
        <ele>281.8</ele>
        <time>2024-08-05T08:48:55Z</time>
      </trkpt>
      <trkpt lat="47.12612" lon="5.82625">
        <ele>281.4</ele>
        <time>2024-08-05T08:48:56Z</time>
      </trkpt>
      <trkpt lat="47.1261" lon="5.82636">
        <ele>281.4</ele>
        <time>2024-08-05T08:48:57Z</time>
      </trkpt>
      <trkpt lat="47.12609" lon="5.82648">
        <ele>281.2</ele>
        <time>2024-08-05T08:48:58Z</time>
      </trkpt>
      <trkpt lat="47.12608" lon="5.82661">
        <ele>281</ele>
        <time>2024-08-05T08:48:59Z</time>
      </trkpt>
      <trkpt lat="47.12607" lon="5.82673">
        <ele>281</ele>
        <time>2024-08-05T08:49:00Z</time>
      </trkpt>
      <trkpt lat="47.12605" lon="5.82685">
        <ele>280.8</ele>
        <time>2024-08-05T08:49:01Z</time>
      </trkpt>
      <trkpt lat="47.12603" lon="5.82696">
        <ele>280.4</ele>
        <time>2024-08-05T08:49:02Z</time>
      </trkpt>
      <trkpt lat="47.12601" lon="5.82707">
        <ele>280</ele>
        <time>2024-08-05T08:49:03Z</time>
      </trkpt>
      <trkpt lat="47.12598" lon="5.82718">
        <ele>279.6</ele>
        <time>2024-08-05T08:49:04Z</time>
      </trkpt>
      <trkpt lat="47.12596" lon="5.82727">
        <ele>279.2</ele>
        <time>2024-08-05T08:49:05Z</time>
      </trkpt>
      <trkpt lat="47.12593" lon="5.82736">
        <ele>279</ele>
        <time>2024-08-05T08:49:06Z</time>
      </trkpt>
      <trkpt lat="47.12591" lon="5.82744">
        <ele>278.6</ele>
        <time>2024-08-05T08:49:07Z</time>
      </trkpt>
      <trkpt lat="47.12589" lon="5.82751">
        <ele>278.4</ele>
        <time>2024-08-05T08:49:08Z</time>
      </trkpt>
      <trkpt lat="47.12586" lon="5.82758">
        <ele>278.2</ele>
        <time>2024-08-05T08:49:09Z</time>
      </trkpt>
      <trkpt lat="47.12583" lon="5.82764">
        <ele>278</ele>
        <time>2024-08-05T08:49:10Z</time>
      </trkpt>
      <trkpt lat="47.12581" lon="5.82769">
        <ele>278</ele>
        <time>2024-08-05T08:49:11Z</time>
      </trkpt>
      <trkpt lat="47.12579" lon="5.82773">
        <ele>277.6</ele>
        <time>2024-08-05T08:49:12Z</time>
      </trkpt>
      <trkpt lat="47.12578" lon="5.82777">
        <ele>277.6</ele>
        <time>2024-08-05T08:49:13Z</time>
      </trkpt>
      <trkpt lat="47.12578" lon="5.8278">
        <ele>277.4</ele>
        <time>2024-08-05T08:49:14Z</time>
      </trkpt>
      <trkpt lat="47.12578" lon="5.82782">
        <ele>277.2</ele>
        <time>2024-08-05T08:49:15Z</time>
      </trkpt>
      <trkpt lat="47.1258" lon="5.82784">
        <ele>277</ele>
        <time>2024-08-05T08:49:16Z</time>
      </trkpt>
      <trkpt lat="47.1258" lon="5.82785">
        <ele>277</ele>
        <time>2024-08-05T08:49:17Z</time>
      </trkpt>
      <trkpt lat="47.1258" lon="5.82787">
        <ele>277</ele>
        <time>2024-08-05T08:49:18Z</time>
      </trkpt>
      <trkpt lat="47.12579" lon="5.82789">
        <ele>277</ele>
        <time>2024-08-05T08:49:19Z</time>
      </trkpt>
      <trkpt lat="47.12577" lon="5.82791">
        <ele>277</ele>
        <time>2024-08-05T08:49:20Z</time>
      </trkpt>
      <trkpt lat="47.12576" lon="5.82794">
        <ele>277</ele>
        <time>2024-08-05T08:49:21Z</time>
      </trkpt>
      <trkpt lat="47.12574" lon="5.82796">
        <ele>277</ele>
        <time>2024-08-05T08:49:22Z</time>
      </trkpt>
      <trkpt lat="47.12572" lon="5.82797">
        <ele>277</ele>
        <time>2024-08-05T08:49:23Z</time>
      </trkpt>
      <trkpt lat="47.1257" lon="5.82799">
        <ele>277</ele>
        <time>2024-08-05T08:49:24Z</time>
      </trkpt>
      <trkpt lat="47.12568" lon="5.82802">
        <ele>277</ele>
        <time>2024-08-05T08:49:25Z</time>
      </trkpt>
      <trkpt lat="47.12566" lon="5.82804">
        <ele>277</ele>
        <time>2024-08-05T08:49:26Z</time>
      </trkpt>
      <trkpt lat="47.12565" lon="5.82807">
        <ele>277</ele>
        <time>2024-08-05T08:49:27Z</time>
      </trkpt>
      <trkpt lat="47.12563" lon="5.8281">
        <ele>276.8</ele>
        <time>2024-08-05T08:49:28Z</time>
      </trkpt>
      <trkpt lat="47.12561" lon="5.82813">
        <ele>277</ele>
        <time>2024-08-05T08:49:29Z</time>
      </trkpt>
      <trkpt lat="47.12559" lon="5.82817">
        <ele>277.2</ele>
        <time>2024-08-05T08:49:30Z</time>
      </trkpt>
      <trkpt lat="47.12557" lon="5.82821">
        <ele>277</ele>
        <time>2024-08-05T08:49:31Z</time>
      </trkpt>
      <trkpt lat="47.12555" lon="5.82825">
        <ele>277.2</ele>
        <time>2024-08-05T08:49:32Z</time>
      </trkpt>
      <trkpt lat="47.12552" lon="5.8283">
        <ele>277.2</ele>
        <time>2024-08-05T08:49:33Z</time>
      </trkpt>
      <trkpt lat="47.12551" lon="5.82835">
        <ele>277.2</ele>
        <time>2024-08-05T08:49:34Z</time>
      </trkpt>
      <trkpt lat="47.12549" lon="5.8284">
        <ele>277.4</ele>
        <time>2024-08-05T08:49:35Z</time>
      </trkpt>
      <trkpt lat="47.12547" lon="5.82844">
        <ele>277.4</ele>
        <time>2024-08-05T08:49:36Z</time>
      </trkpt>
      <trkpt lat="47.12545" lon="5.82848">
        <ele>277.6</ele>
        <time>2024-08-05T08:49:37Z</time>
      </trkpt>
      <trkpt lat="47.12544" lon="5.82852">
        <ele>277.8</ele>
        <time>2024-08-05T08:49:38Z</time>
      </trkpt>
      <trkpt lat="47.12543" lon="5.82857">
        <ele>277.8</ele>
        <time>2024-08-05T08:49:39Z</time>
      </trkpt>
      <trkpt lat="47.12542" lon="5.82861">
        <ele>277.8</ele>
        <time>2024-08-05T08:49:40Z</time>
      </trkpt>
      <trkpt lat="47.12541" lon="5.82866">
        <ele>277.8</ele>
        <time>2024-08-05T08:49:41Z</time>
      </trkpt>
      <trkpt lat="47.1254" lon="5.82871">
        <ele>277.8</ele>
        <time>2024-08-05T08:49:42Z</time>
      </trkpt>
      <trkpt lat="47.12538" lon="5.82877">
        <ele>277.8</ele>
        <time>2024-08-05T08:49:43Z</time>
      </trkpt>
      <trkpt lat="47.12537" lon="5.82884">
        <ele>277.8</ele>
        <time>2024-08-05T08:49:44Z</time>
      </trkpt>
      <trkpt lat="47.12535" lon="5.82891">
        <ele>277.8</ele>
        <time>2024-08-05T08:49:45Z</time>
      </trkpt>
      <trkpt lat="47.12531" lon="5.82896">
        <ele>278</ele>
        <time>2024-08-05T08:49:46Z</time>
      </trkpt>
      <trkpt lat="47.12527" lon="5.82902">
        <ele>277.8</ele>
        <time>2024-08-05T08:49:47Z</time>
      </trkpt>
      <trkpt lat="47.12522" lon="5.82909">
        <ele>278</ele>
        <time>2024-08-05T08:49:48Z</time>
      </trkpt>
      <trkpt lat="47.12518" lon="5.82916">
        <ele>278</ele>
        <time>2024-08-05T08:49:49Z</time>
      </trkpt>
      <trkpt lat="47.12513" lon="5.82923">
        <ele>277.8</ele>
        <time>2024-08-05T08:49:50Z</time>
      </trkpt>
      <trkpt lat="47.12508" lon="5.82929">
        <ele>277.8</ele>
        <time>2024-08-05T08:49:51Z</time>
      </trkpt>
      <trkpt lat="47.125" lon="5.82934">
        <ele>277.6</ele>
        <time>2024-08-05T08:49:52Z</time>
      </trkpt>
      <trkpt lat="47.12493" lon="5.82939">
        <ele>277.6</ele>
        <time>2024-08-05T08:49:53Z</time>
      </trkpt>
      <trkpt lat="47.12486" lon="5.82942">
        <ele>277.4</ele>
        <time>2024-08-05T08:49:54Z</time>
      </trkpt>
      <trkpt lat="47.12478" lon="5.82942">
        <ele>277.2</ele>
        <time>2024-08-05T08:49:55Z</time>
      </trkpt>
      <trkpt lat="47.12471" lon="5.82941">
        <ele>277</ele>
        <time>2024-08-05T08:49:56Z</time>
      </trkpt>
      <trkpt lat="47.12463" lon="5.8294">
        <ele>276.6</ele>
        <time>2024-08-05T08:49:57Z</time>
      </trkpt>
      <trkpt lat="47.12455" lon="5.82938">
        <ele>275.8</ele>
        <time>2024-08-05T08:49:58Z</time>
      </trkpt>
      <trkpt lat="47.12447" lon="5.82935">
        <ele>275.4</ele>
        <time>2024-08-05T08:49:59Z</time>
      </trkpt>
      <trkpt lat="47.12439" lon="5.82932">
        <ele>275.2</ele>
        <time>2024-08-05T08:50:00Z</time>
      </trkpt>
      <trkpt lat="47.12432" lon="5.82929">
        <ele>274.8</ele>
        <time>2024-08-05T08:50:01Z</time>
      </trkpt>
      <trkpt lat="47.12425" lon="5.82927">
        <ele>274.4</ele>
        <time>2024-08-05T08:50:02Z</time>
      </trkpt>
      <trkpt lat="47.12417" lon="5.82925">
        <ele>274</ele>
        <time>2024-08-05T08:50:03Z</time>
      </trkpt>
      <trkpt lat="47.1241" lon="5.82924">
        <ele>273.6</ele>
        <time>2024-08-05T08:50:04Z</time>
      </trkpt>
      <trkpt lat="47.12402" lon="5.82924">
        <ele>273.6</ele>
        <time>2024-08-05T08:50:05Z</time>
      </trkpt>
      <trkpt lat="47.12394" lon="5.82926">
        <ele>273.2</ele>
        <time>2024-08-05T08:50:06Z</time>
      </trkpt>
      <trkpt lat="47.12386" lon="5.82928">
        <ele>273</ele>
        <time>2024-08-05T08:50:07Z</time>
      </trkpt>
      <trkpt lat="47.12379" lon="5.82932">
        <ele>272.2</ele>
        <time>2024-08-05T08:50:08Z</time>
      </trkpt>
      <trkpt lat="47.12371" lon="5.82937">
        <ele>271.8</ele>
        <time>2024-08-05T08:50:09Z</time>
      </trkpt>
      <trkpt lat="47.12364" lon="5.82944">
        <ele>271.4</ele>
        <time>2024-08-05T08:50:10Z</time>
      </trkpt>
      <trkpt lat="47.12358" lon="5.82952">
        <ele>270.8</ele>
        <time>2024-08-05T08:50:11Z</time>
      </trkpt>
      <trkpt lat="47.12351" lon="5.82961">
        <ele>270.4</ele>
        <time>2024-08-05T08:50:12Z</time>
      </trkpt>
      <trkpt lat="47.12345" lon="5.8297">
        <ele>270</ele>
        <time>2024-08-05T08:50:13Z</time>
      </trkpt>
      <trkpt lat="47.12338" lon="5.82979">
        <ele>269.4</ele>
        <time>2024-08-05T08:50:14Z</time>
      </trkpt>
      <trkpt lat="47.12331" lon="5.82989">
        <ele>269.2</ele>
        <time>2024-08-05T08:50:15Z</time>
      </trkpt>
      <trkpt lat="47.12324" lon="5.82998">
        <ele>269</ele>
        <time>2024-08-05T08:50:16Z</time>
      </trkpt>
      <trkpt lat="47.12318" lon="5.83007">
        <ele>268.8</ele>
        <time>2024-08-05T08:50:17Z</time>
      </trkpt>
      <trkpt lat="47.12311" lon="5.83016">
        <ele>268.2</ele>
        <time>2024-08-05T08:50:18Z</time>
      </trkpt>
      <trkpt lat="47.12303" lon="5.83025">
        <ele>267.8</ele>
        <time>2024-08-05T08:50:19Z</time>
      </trkpt>
      <trkpt lat="47.12296" lon="5.83034">
        <ele>267.2</ele>
        <time>2024-08-05T08:50:20Z</time>
      </trkpt>
      <trkpt lat="47.12288" lon="5.83043">
        <ele>266.8</ele>
        <time>2024-08-05T08:50:21Z</time>
      </trkpt>
      <trkpt lat="47.1228" lon="5.83052">
        <ele>266.4</ele>
        <time>2024-08-05T08:50:22Z</time>
      </trkpt>
      <trkpt lat="47.12273" lon="5.83061">
        <ele>265.6</ele>
        <time>2024-08-05T08:50:23Z</time>
      </trkpt>
      <trkpt lat="47.12265" lon="5.83071">
        <ele>265.2</ele>
        <time>2024-08-05T08:50:24Z</time>
      </trkpt>
      <trkpt lat="47.12257" lon="5.8308">
        <ele>264.6</ele>
        <time>2024-08-05T08:50:25Z</time>
      </trkpt>
      <trkpt lat="47.12249" lon="5.83089">
        <ele>264.4</ele>
        <time>2024-08-05T08:50:26Z</time>
      </trkpt>
      <trkpt lat="47.1224" lon="5.83097">
        <ele>264.4</ele>
        <time>2024-08-05T08:50:27Z</time>
      </trkpt>
      <trkpt lat="47.12231" lon="5.83105">
        <ele>264</ele>
        <time>2024-08-05T08:50:28Z</time>
      </trkpt>
      <trkpt lat="47.12222" lon="5.83113">
        <ele>263.4</ele>
        <time>2024-08-05T08:50:29Z</time>
      </trkpt>
      <trkpt lat="47.12213" lon="5.83119">
        <ele>262.8</ele>
        <time>2024-08-05T08:50:30Z</time>
      </trkpt>
      <trkpt lat="47.12204" lon="5.83126">
        <ele>262.2</ele>
        <time>2024-08-05T08:50:31Z</time>
      </trkpt>
      <trkpt lat="47.12195" lon="5.83133">
        <ele>261.8</ele>
        <time>2024-08-05T08:50:32Z</time>
      </trkpt>
      <trkpt lat="47.12186" lon="5.83139">
        <ele>261.2</ele>
        <time>2024-08-05T08:50:33Z</time>
      </trkpt>
      <trkpt lat="47.12177" lon="5.83145">
        <ele>260.8</ele>
        <time>2024-08-05T08:50:34Z</time>
      </trkpt>
      <trkpt lat="47.12168" lon="5.83151">
        <ele>260.2</ele>
        <time>2024-08-05T08:50:35Z</time>
      </trkpt>
      <trkpt lat="47.12159" lon="5.83157">
        <ele>259.8</ele>
        <time>2024-08-05T08:50:36Z</time>
      </trkpt>
      <trkpt lat="47.12151" lon="5.83163">
        <ele>259.2</ele>
        <time>2024-08-05T08:50:37Z</time>
      </trkpt>
      <trkpt lat="47.12143" lon="5.83169">
        <ele>258.8</ele>
        <time>2024-08-05T08:50:38Z</time>
      </trkpt>
      <trkpt lat="47.12134" lon="5.83174">
        <ele>258.2</ele>
        <time>2024-08-05T08:50:39Z</time>
      </trkpt>
      <trkpt lat="47.12127" lon="5.83179">
        <ele>257.6</ele>
        <time>2024-08-05T08:50:40Z</time>
      </trkpt>
      <trkpt lat="47.12119" lon="5.83184">
        <ele>257.2</ele>
        <time>2024-08-05T08:50:41Z</time>
      </trkpt>
      <trkpt lat="47.12112" lon="5.8319">
        <ele>256.8</ele>
        <time>2024-08-05T08:50:42Z</time>
      </trkpt>
      <trkpt lat="47.12105" lon="5.83197">
        <ele>256.6</ele>
        <time>2024-08-05T08:50:43Z</time>
      </trkpt>
      <trkpt lat="47.121" lon="5.83204">
        <ele>256.6</ele>
        <time>2024-08-05T08:50:44Z</time>
      </trkpt>
      <trkpt lat="47.12095" lon="5.83212">
        <ele>256.6</ele>
        <time>2024-08-05T08:50:45Z</time>
      </trkpt>
      <trkpt lat="47.12091" lon="5.83221">
        <ele>256.4</ele>
        <time>2024-08-05T08:50:46Z</time>
      </trkpt>
      <trkpt lat="47.12089" lon="5.8323">
        <ele>256.4</ele>
        <time>2024-08-05T08:50:47Z</time>
      </trkpt>
      <trkpt lat="47.12086" lon="5.83238">
        <ele>256.4</ele>
        <time>2024-08-05T08:50:48Z</time>
      </trkpt>
      <trkpt lat="47.12084" lon="5.83246">
        <ele>256.4</ele>
        <time>2024-08-05T08:50:49Z</time>
      </trkpt>
      <trkpt lat="47.12082" lon="5.83254">
        <ele>256.4</ele>
        <time>2024-08-05T08:50:50Z</time>
      </trkpt>
      <trkpt lat="47.12081" lon="5.83262">
        <ele>256.6</ele>
        <time>2024-08-05T08:50:51Z</time>
      </trkpt>
      <trkpt lat="47.1208" lon="5.83269">
        <ele>256.4</ele>
        <time>2024-08-05T08:50:52Z</time>
      </trkpt>
      <trkpt lat="47.12079" lon="5.83277">
        <ele>256.4</ele>
        <time>2024-08-05T08:50:53Z</time>
      </trkpt>
      <trkpt lat="47.12079" lon="5.83284">
        <ele>256.6</ele>
        <time>2024-08-05T08:50:54Z</time>
      </trkpt>
      <trkpt lat="47.12078" lon="5.83292">
        <ele>256.8</ele>
        <time>2024-08-05T08:50:55Z</time>
      </trkpt>
      <trkpt lat="47.12077" lon="5.833">
        <ele>256.8</ele>
        <time>2024-08-05T08:50:56Z</time>
      </trkpt>
      <trkpt lat="47.12076" lon="5.83307">
        <ele>257.2</ele>
        <time>2024-08-05T08:50:57Z</time>
      </trkpt>
      <trkpt lat="47.12075" lon="5.83315">
        <ele>257.2</ele>
        <time>2024-08-05T08:50:58Z</time>
      </trkpt>
      <trkpt lat="47.12073" lon="5.83323">
        <ele>257.4</ele>
        <time>2024-08-05T08:50:59Z</time>
      </trkpt>
      <trkpt lat="47.12072" lon="5.8333">
        <ele>257.4</ele>
        <time>2024-08-05T08:51:00Z</time>
      </trkpt>
      <trkpt lat="47.1207" lon="5.83337">
        <ele>257.8</ele>
        <time>2024-08-05T08:51:01Z</time>
      </trkpt>
      <trkpt lat="47.12068" lon="5.83343">
        <ele>258</ele>
        <time>2024-08-05T08:51:02Z</time>
      </trkpt>
      <trkpt lat="47.12066" lon="5.8335">
        <ele>258.2</ele>
        <time>2024-08-05T08:51:03Z</time>
      </trkpt>
      <trkpt lat="47.12064" lon="5.83356">
        <ele>258.4</ele>
        <time>2024-08-05T08:51:04Z</time>
      </trkpt>
      <trkpt lat="47.12062" lon="5.83362">
        <ele>258.4</ele>
        <time>2024-08-05T08:51:05Z</time>
      </trkpt>
      <trkpt lat="47.1206" lon="5.83367">
        <ele>258.8</ele>
        <time>2024-08-05T08:51:06Z</time>
      </trkpt>
      <trkpt lat="47.12057" lon="5.83372">
        <ele>259</ele>
        <time>2024-08-05T08:51:07Z</time>
      </trkpt>
      <trkpt lat="47.12055" lon="5.83377">
        <ele>259.4</ele>
        <time>2024-08-05T08:51:08Z</time>
      </trkpt>
      <trkpt lat="47.12052" lon="5.83382">
        <ele>259.8</ele>
        <time>2024-08-05T08:51:09Z</time>
      </trkpt>
      <trkpt lat="47.12049" lon="5.83386">
        <ele>259.8</ele>
        <time>2024-08-05T08:51:10Z</time>
      </trkpt>
      <trkpt lat="47.12046" lon="5.83391">
        <ele>260.2</ele>
        <time>2024-08-05T08:51:11Z</time>
      </trkpt>
      <trkpt lat="47.12043" lon="5.83395">
        <ele>260.2</ele>
        <time>2024-08-05T08:51:12Z</time>
      </trkpt>
      <trkpt lat="47.12039" lon="5.83398">
        <ele>260.4</ele>
        <time>2024-08-05T08:51:13Z</time>
      </trkpt>
      <trkpt lat="47.12036" lon="5.83401">
        <ele>260.6</ele>
        <time>2024-08-05T08:51:14Z</time>
      </trkpt>
      <trkpt lat="47.12032" lon="5.83405">
        <ele>260.8</ele>
        <time>2024-08-05T08:51:15Z</time>
      </trkpt>
      <trkpt lat="47.12028" lon="5.83407">
        <ele>261</ele>
        <time>2024-08-05T08:51:16Z</time>
      </trkpt>
      <trkpt lat="47.12024" lon="5.8341">
        <ele>261.2</ele>
        <time>2024-08-05T08:51:17Z</time>
      </trkpt>
      <trkpt lat="47.1202" lon="5.83411">
        <ele>261.2</ele>
        <time>2024-08-05T08:51:18Z</time>
      </trkpt>
      <trkpt lat="47.12016" lon="5.83413">
        <ele>261.4</ele>
        <time>2024-08-05T08:51:19Z</time>
      </trkpt>
      <trkpt lat="47.12012" lon="5.83415">
        <ele>261.6</ele>
        <time>2024-08-05T08:51:20Z</time>
      </trkpt>
      <trkpt lat="47.12008" lon="5.83417">
        <ele>261.8</ele>
        <time>2024-08-05T08:51:21Z</time>
      </trkpt>
      <trkpt lat="47.12004" lon="5.83418">
        <ele>262</ele>
        <time>2024-08-05T08:51:22Z</time>
      </trkpt>
      <trkpt lat="47.12" lon="5.83419">
        <ele>262.2</ele>
        <time>2024-08-05T08:51:23Z</time>
      </trkpt>
      <trkpt lat="47.11996" lon="5.83421">
        <ele>262.4</ele>
        <time>2024-08-05T08:51:24Z</time>
      </trkpt>
      <trkpt lat="47.11991" lon="5.83423">
        <ele>262.6</ele>
        <time>2024-08-05T08:51:25Z</time>
      </trkpt>
      <trkpt lat="47.11987" lon="5.83424">
        <ele>262.8</ele>
        <time>2024-08-05T08:51:26Z</time>
      </trkpt>
      <trkpt lat="47.11983" lon="5.83426">
        <ele>263</ele>
        <time>2024-08-05T08:51:27Z</time>
      </trkpt>
      <trkpt lat="47.11979" lon="5.83427">
        <ele>263</ele>
        <time>2024-08-05T08:51:28Z</time>
      </trkpt>
      <trkpt lat="47.11975" lon="5.83429">
        <ele>263.4</ele>
        <time>2024-08-05T08:51:29Z</time>
      </trkpt>
      <trkpt lat="47.11971" lon="5.83431">
        <ele>263.6</ele>
        <time>2024-08-05T08:51:30Z</time>
      </trkpt>
      <trkpt lat="47.11967" lon="5.83432">
        <ele>263.6</ele>
        <time>2024-08-05T08:51:31Z</time>
      </trkpt>
      <trkpt lat="47.11963" lon="5.83433">
        <ele>263.8</ele>
        <time>2024-08-05T08:51:32Z</time>
      </trkpt>
      <trkpt lat="47.1196" lon="5.83435">
        <ele>264.2</ele>
        <time>2024-08-05T08:51:33Z</time>
      </trkpt>
      <trkpt lat="47.11957" lon="5.83437">
        <ele>264.2</ele>
        <time>2024-08-05T08:51:34Z</time>
      </trkpt>
      <trkpt lat="47.11953" lon="5.83438">
        <ele>264.4</ele>
        <time>2024-08-05T08:51:35Z</time>
      </trkpt>
      <trkpt lat="47.1195" lon="5.8344">
        <ele>264.6</ele>
        <time>2024-08-05T08:51:36Z</time>
      </trkpt>
      <trkpt lat="47.11946" lon="5.83441">
        <ele>264.8</ele>
        <time>2024-08-05T08:51:37Z</time>
      </trkpt>
      <trkpt lat="47.11943" lon="5.83443">
        <ele>265</ele>
        <time>2024-08-05T08:51:38Z</time>
      </trkpt>
      <trkpt lat="47.11939" lon="5.83445">
        <ele>265.4</ele>
        <time>2024-08-05T08:51:39Z</time>
      </trkpt>
      <trkpt lat="47.11935" lon="5.83446">
        <ele>265.6</ele>
        <time>2024-08-05T08:51:40Z</time>
      </trkpt>
      <trkpt lat="47.11931" lon="5.83447">
        <ele>265.6</ele>
        <time>2024-08-05T08:51:41Z</time>
      </trkpt>
      <trkpt lat="47.11928" lon="5.83449">
        <ele>265.8</ele>
        <time>2024-08-05T08:51:42Z</time>
      </trkpt>
      <trkpt lat="47.11924" lon="5.83451">
        <ele>266.2</ele>
        <time>2024-08-05T08:51:43Z</time>
      </trkpt>
      <trkpt lat="47.11921" lon="5.83452">
        <ele>266.4</ele>
        <time>2024-08-05T08:51:44Z</time>
      </trkpt>
      <trkpt lat="47.11917" lon="5.83453">
        <ele>266.6</ele>
        <time>2024-08-05T08:51:45Z</time>
      </trkpt>
      <trkpt lat="47.11913" lon="5.83453">
        <ele>266.8</ele>
        <time>2024-08-05T08:51:46Z</time>
      </trkpt>
      <trkpt lat="47.11909" lon="5.83455">
        <ele>267</ele>
        <time>2024-08-05T08:51:47Z</time>
      </trkpt>
      <trkpt lat="47.11906" lon="5.83456">
        <ele>267.2</ele>
        <time>2024-08-05T08:51:48Z</time>
      </trkpt>
      <trkpt lat="47.11902" lon="5.83457">
        <ele>267.4</ele>
        <time>2024-08-05T08:51:49Z</time>
      </trkpt>
      <trkpt lat="47.11898" lon="5.83457">
        <ele>267.6</ele>
        <time>2024-08-05T08:51:50Z</time>
      </trkpt>
      <trkpt lat="47.11894" lon="5.83457">
        <ele>267.8</ele>
        <time>2024-08-05T08:51:51Z</time>
      </trkpt>
      <trkpt lat="47.11891" lon="5.83456">
        <ele>268</ele>
        <time>2024-08-05T08:51:52Z</time>
      </trkpt>
      <trkpt lat="47.11887" lon="5.83456">
        <ele>268.2</ele>
        <time>2024-08-05T08:51:53Z</time>
      </trkpt>
      <trkpt lat="47.11884" lon="5.83455">
        <ele>268.4</ele>
        <time>2024-08-05T08:51:54Z</time>
      </trkpt>
      <trkpt lat="47.11881" lon="5.83454">
        <ele>268.4</ele>
        <time>2024-08-05T08:51:55Z</time>
      </trkpt>
      <trkpt lat="47.11878" lon="5.83452">
        <ele>268.4</ele>
        <time>2024-08-05T08:51:56Z</time>
      </trkpt>
      <trkpt lat="47.11875" lon="5.8345">
        <ele>268.6</ele>
        <time>2024-08-05T08:51:57Z</time>
      </trkpt>
      <trkpt lat="47.11872" lon="5.83448">
        <ele>268.8</ele>
        <time>2024-08-05T08:51:58Z</time>
      </trkpt>
      <trkpt lat="47.11868" lon="5.83441">
        <ele>269</ele>
        <time>2024-08-05T08:51:59Z</time>
      </trkpt>
      <trkpt lat="47.11865" lon="5.8344">
        <ele>269.2</ele>
        <time>2024-08-05T08:52:00Z</time>
      </trkpt>
      <trkpt lat="47.11861" lon="5.83436">
        <ele>269.4</ele>
        <time>2024-08-05T08:52:01Z</time>
      </trkpt>
      <trkpt lat="47.11858" lon="5.83435">
        <ele>269.6</ele>
        <time>2024-08-05T08:52:02Z</time>
      </trkpt>
      <trkpt lat="47.11855" lon="5.83434">
        <ele>269.8</ele>
        <time>2024-08-05T08:52:03Z</time>
      </trkpt>
      <trkpt lat="47.11852" lon="5.83433">
        <ele>270</ele>
        <time>2024-08-05T08:52:04Z</time>
      </trkpt>
      <trkpt lat="47.11849" lon="5.83432">
        <ele>270.4</ele>
        <time>2024-08-05T08:52:05Z</time>
      </trkpt>
      <trkpt lat="47.11845" lon="5.83432">
        <ele>270.6</ele>
        <time>2024-08-05T08:52:06Z</time>
      </trkpt>
      <trkpt lat="47.11841" lon="5.8343">
        <ele>270.8</ele>
        <time>2024-08-05T08:52:07Z</time>
      </trkpt>
      <trkpt lat="47.11838" lon="5.8343">
        <ele>270.8</ele>
        <time>2024-08-05T08:52:08Z</time>
      </trkpt>
      <trkpt lat="47.11834" lon="5.8343">
        <ele>271.2</ele>
        <time>2024-08-05T08:52:09Z</time>
      </trkpt>
      <trkpt lat="47.11831" lon="5.8343">
        <ele>271.4</ele>
        <time>2024-08-05T08:52:10Z</time>
      </trkpt>
      <trkpt lat="47.11828" lon="5.8343">
        <ele>271.4</ele>
        <time>2024-08-05T08:52:11Z</time>
      </trkpt>
      <trkpt lat="47.11824" lon="5.83429">
        <ele>271.6</ele>
        <time>2024-08-05T08:52:12Z</time>
      </trkpt>
      <trkpt lat="47.1182" lon="5.83429">
        <ele>271.8</ele>
        <time>2024-08-05T08:52:13Z</time>
      </trkpt>
      <trkpt lat="47.11817" lon="5.83428">
        <ele>272</ele>
        <time>2024-08-05T08:52:14Z</time>
      </trkpt>
      <trkpt lat="47.11814" lon="5.83428">
        <ele>272.2</ele>
        <time>2024-08-05T08:52:15Z</time>
      </trkpt>
      <trkpt lat="47.1181" lon="5.83425">
        <ele>272.4</ele>
        <time>2024-08-05T08:52:16Z</time>
      </trkpt>
      <trkpt lat="47.11806" lon="5.83424">
        <ele>272.6</ele>
        <time>2024-08-05T08:52:17Z</time>
      </trkpt>
      <trkpt lat="47.11804" lon="5.83423">
        <ele>272.6</ele>
        <time>2024-08-05T08:52:18Z</time>
      </trkpt>
      <trkpt lat="47.118" lon="5.83422">
        <ele>272.8</ele>
        <time>2024-08-05T08:52:19Z</time>
      </trkpt>
      <trkpt lat="47.11796" lon="5.83421">
        <ele>273</ele>
        <time>2024-08-05T08:52:20Z</time>
      </trkpt>
      <trkpt lat="47.11793" lon="5.83422">
        <ele>273.2</ele>
        <time>2024-08-05T08:52:21Z</time>
      </trkpt>
      <trkpt lat="47.11789" lon="5.83421">
        <ele>273.4</ele>
        <time>2024-08-05T08:52:22Z</time>
      </trkpt>
      <trkpt lat="47.11785" lon="5.83421">
        <ele>273.8</ele>
        <time>2024-08-05T08:52:23Z</time>
      </trkpt>
      <trkpt lat="47.11782" lon="5.8342">
        <ele>273.8</ele>
        <time>2024-08-05T08:52:24Z</time>
      </trkpt>
      <trkpt lat="47.11778" lon="5.83419">
        <ele>274</ele>
        <time>2024-08-05T08:52:25Z</time>
      </trkpt>
      <trkpt lat="47.11775" lon="5.83418">
        <ele>274.4</ele>
        <time>2024-08-05T08:52:26Z</time>
      </trkpt>
      <trkpt lat="47.11771" lon="5.83417">
        <ele>274.4</ele>
        <time>2024-08-05T08:52:27Z</time>
      </trkpt>
      <trkpt lat="47.11768" lon="5.83416">
        <ele>274.4</ele>
        <time>2024-08-05T08:52:28Z</time>
      </trkpt>
      <trkpt lat="47.11764" lon="5.83416">
        <ele>274.8</ele>
        <time>2024-08-05T08:52:29Z</time>
      </trkpt>
      <trkpt lat="47.11761" lon="5.83416">
        <ele>275.2</ele>
        <time>2024-08-05T08:52:30Z</time>
      </trkpt>
      <trkpt lat="47.11757" lon="5.83416">
        <ele>275.4</ele>
        <time>2024-08-05T08:52:31Z</time>
      </trkpt>
      <trkpt lat="47.11754" lon="5.83416">
        <ele>275.6</ele>
        <time>2024-08-05T08:52:32Z</time>
      </trkpt>
      <trkpt lat="47.1175" lon="5.83417">
        <ele>275.8</ele>
        <time>2024-08-05T08:52:33Z</time>
      </trkpt>
      <trkpt lat="47.11746" lon="5.83417">
        <ele>276</ele>
        <time>2024-08-05T08:52:34Z</time>
      </trkpt>
      <trkpt lat="47.11742" lon="5.83417">
        <ele>276</ele>
        <time>2024-08-05T08:52:35Z</time>
      </trkpt>
      <trkpt lat="47.11738" lon="5.83416">
        <ele>276.2</ele>
        <time>2024-08-05T08:52:36Z</time>
      </trkpt>
      <trkpt lat="47.11735" lon="5.83416">
        <ele>276.4</ele>
        <time>2024-08-05T08:52:37Z</time>
      </trkpt>
      <trkpt lat="47.1173" lon="5.83414">
        <ele>276.6</ele>
        <time>2024-08-05T08:52:38Z</time>
      </trkpt>
      <trkpt lat="47.11727" lon="5.83414">
        <ele>277</ele>
        <time>2024-08-05T08:52:39Z</time>
      </trkpt>
      <trkpt lat="47.11723" lon="5.83413">
        <ele>277</ele>
        <time>2024-08-05T08:52:40Z</time>
      </trkpt>
      <trkpt lat="47.11719" lon="5.83412">
        <ele>277</ele>
        <time>2024-08-05T08:52:41Z</time>
      </trkpt>
      <trkpt lat="47.11716" lon="5.83411">
        <ele>277.2</ele>
        <time>2024-08-05T08:52:42Z</time>
      </trkpt>
      <trkpt lat="47.11712" lon="5.83411">
        <ele>277.4</ele>
        <time>2024-08-05T08:52:43Z</time>
      </trkpt>
      <trkpt lat="47.11708" lon="5.83411">
        <ele>277.6</ele>
        <time>2024-08-05T08:52:44Z</time>
      </trkpt>
      <trkpt lat="47.11704" lon="5.83411">
        <ele>277.6</ele>
        <time>2024-08-05T08:52:45Z</time>
      </trkpt>
      <trkpt lat="47.11701" lon="5.83411">
        <ele>278</ele>
        <time>2024-08-05T08:52:46Z</time>
      </trkpt>
      <trkpt lat="47.11697" lon="5.83411">
        <ele>278</ele>
        <time>2024-08-05T08:52:47Z</time>
      </trkpt>
      <trkpt lat="47.11694" lon="5.8341">
        <ele>278.4</ele>
        <time>2024-08-05T08:52:48Z</time>
      </trkpt>
      <trkpt lat="47.1169" lon="5.83408">
        <ele>278.6</ele>
        <time>2024-08-05T08:52:49Z</time>
      </trkpt>
      <trkpt lat="47.11687" lon="5.83407">
        <ele>278.8</ele>
        <time>2024-08-05T08:52:50Z</time>
      </trkpt>
      <trkpt lat="47.11684" lon="5.83405">
        <ele>279</ele>
        <time>2024-08-05T08:52:51Z</time>
      </trkpt>
      <trkpt lat="47.1168" lon="5.83404">
        <ele>279.2</ele>
        <time>2024-08-05T08:52:52Z</time>
      </trkpt>
      <trkpt lat="47.11676" lon="5.83402">
        <ele>279.2</ele>
        <time>2024-08-05T08:52:53Z</time>
      </trkpt>
      <trkpt lat="47.11672" lon="5.83402">
        <ele>279.4</ele>
        <time>2024-08-05T08:52:54Z</time>
      </trkpt>
      <trkpt lat="47.11668" lon="5.83402">
        <ele>279.6</ele>
        <time>2024-08-05T08:52:55Z</time>
      </trkpt>
      <trkpt lat="47.11665" lon="5.83403">
        <ele>279.6</ele>
        <time>2024-08-05T08:52:56Z</time>
      </trkpt>
      <trkpt lat="47.11662" lon="5.83403">
        <ele>280</ele>
        <time>2024-08-05T08:52:57Z</time>
      </trkpt>
      <trkpt lat="47.11659" lon="5.83403">
        <ele>280.2</ele>
        <time>2024-08-05T08:52:58Z</time>
      </trkpt>
      <trkpt lat="47.11657" lon="5.83404">
        <ele>280.4</ele>
        <time>2024-08-05T08:52:59Z</time>
      </trkpt>
      <trkpt lat="47.11656" lon="5.83405">
        <ele>280.4</ele>
        <time>2024-08-05T08:53:00Z</time>
      </trkpt>
      <trkpt lat="47.11655" lon="5.83406">
        <ele>280.4</ele>
        <time>2024-08-05T08:53:01Z</time>
      </trkpt>
      <trkpt lat="47.11655" lon="5.83407">
        <ele>280.4</ele>
        <time>2024-08-05T08:53:02Z</time>
      </trkpt>
      <trkpt lat="47.11655" lon="5.83409">
        <ele>280.4</ele>
        <time>2024-08-05T08:53:03Z</time>
      </trkpt>
      <trkpt lat="47.11656" lon="5.8341">
        <ele>280.6</ele>
        <time>2024-08-05T08:53:04Z</time>
      </trkpt>
      <trkpt lat="47.11657" lon="5.83412">
        <ele>280.4</ele>
        <time>2024-08-05T08:53:05Z</time>
      </trkpt>
      <trkpt lat="47.11658" lon="5.83413">
        <ele>280.6</ele>
        <time>2024-08-05T08:53:06Z</time>
      </trkpt>
      <trkpt lat="47.11659" lon="5.83414">
        <ele>280.6</ele>
        <time>2024-08-05T08:53:07Z</time>
      </trkpt>
      <trkpt lat="47.11661" lon="5.83416">
        <ele>280.6</ele>
        <time>2024-08-05T08:53:08Z</time>
      </trkpt>
      <trkpt lat="47.11662" lon="5.83416">
        <ele>280.8</ele>
        <time>2024-08-05T08:53:09Z</time>
      </trkpt>
      <trkpt lat="47.11663" lon="5.83417">
        <ele>280.6</ele>
        <time>2024-08-05T08:53:10Z</time>
      </trkpt>
      <trkpt lat="47.11665" lon="5.83419">
        <ele>280.8</ele>
        <time>2024-08-05T08:53:11Z</time>
      </trkpt>
      <trkpt lat="47.11666" lon="5.83419">
        <ele>281</ele>
        <time>2024-08-05T08:53:12Z</time>
      </trkpt>
      <trkpt lat="47.11668" lon="5.83421">
        <ele>281.4</ele>
        <time>2024-08-05T08:53:13Z</time>
      </trkpt>
      <trkpt lat="47.11669" lon="5.83423">
        <ele>281.4</ele>
        <time>2024-08-05T08:53:14Z</time>
      </trkpt>
      <trkpt lat="47.11671" lon="5.83424">
        <ele>281.6</ele>
        <time>2024-08-05T08:53:15Z</time>
      </trkpt>
      <trkpt lat="47.11673" lon="5.83426">
        <ele>281.8</ele>
        <time>2024-08-05T08:53:16Z</time>
      </trkpt>
      <trkpt lat="47.11675" lon="5.83429">
        <ele>281.8</ele>
        <time>2024-08-05T08:53:17Z</time>
      </trkpt>
      <trkpt lat="47.11677" lon="5.83432">
        <ele>282</ele>
        <time>2024-08-05T08:53:18Z</time>
      </trkpt>
      <trkpt lat="47.11678" lon="5.83434">
        <ele>282.2</ele>
        <time>2024-08-05T08:53:19Z</time>
      </trkpt>
      <trkpt lat="47.11679" lon="5.83436">
        <ele>282.2</ele>
        <time>2024-08-05T08:53:20Z</time>
      </trkpt>
      <trkpt lat="47.11681" lon="5.83439">
        <ele>282.2</ele>
        <time>2024-08-05T08:53:21Z</time>
      </trkpt>
      <trkpt lat="47.11681" lon="5.83442">
        <ele>282.6</ele>
        <time>2024-08-05T08:53:22Z</time>
      </trkpt>
      <trkpt lat="47.11683" lon="5.83444">
        <ele>282.6</ele>
        <time>2024-08-05T08:53:23Z</time>
      </trkpt>
      <trkpt lat="47.11683" lon="5.83447">
        <ele>282.6</ele>
        <time>2024-08-05T08:53:24Z</time>
      </trkpt>
      <trkpt lat="47.11685" lon="5.83449">
        <ele>282.8</ele>
        <time>2024-08-05T08:53:25Z</time>
      </trkpt>
      <trkpt lat="47.11686" lon="5.83451">
        <ele>283</ele>
        <time>2024-08-05T08:53:26Z</time>
      </trkpt>
      <trkpt lat="47.11687" lon="5.83454">
        <ele>283</ele>
        <time>2024-08-05T08:53:27Z</time>
      </trkpt>
      <trkpt lat="47.11688" lon="5.83456">
        <ele>283.2</ele>
        <time>2024-08-05T08:53:28Z</time>
      </trkpt>
      <trkpt lat="47.1169" lon="5.83458">
        <ele>283.4</ele>
        <time>2024-08-05T08:53:29Z</time>
      </trkpt>
      <trkpt lat="47.11691" lon="5.8346">
        <ele>283.6</ele>
        <time>2024-08-05T08:53:30Z</time>
      </trkpt>
      <trkpt lat="47.11693" lon="5.83463">
        <ele>283.8</ele>
        <time>2024-08-05T08:53:31Z</time>
      </trkpt>
      <trkpt lat="47.11694" lon="5.83465">
        <ele>284</ele>
        <time>2024-08-05T08:53:32Z</time>
      </trkpt>
      <trkpt lat="47.11695" lon="5.83467">
        <ele>284.2</ele>
        <time>2024-08-05T08:53:33Z</time>
      </trkpt>
      <trkpt lat="47.11697" lon="5.8347">
        <ele>284.4</ele>
        <time>2024-08-05T08:53:34Z</time>
      </trkpt>
      <trkpt lat="47.11699" lon="5.83472">
        <ele>284.4</ele>
        <time>2024-08-05T08:53:35Z</time>
      </trkpt>
      <trkpt lat="47.11701" lon="5.83474">
        <ele>284.8</ele>
        <time>2024-08-05T08:53:36Z</time>
      </trkpt>
      <trkpt lat="47.11703" lon="5.83476">
        <ele>285</ele>
        <time>2024-08-05T08:53:37Z</time>
      </trkpt>
      <trkpt lat="47.11705" lon="5.83478">
        <ele>285</ele>
        <time>2024-08-05T08:53:38Z</time>
      </trkpt>
      <trkpt lat="47.11706" lon="5.83481">
        <ele>285</ele>
        <time>2024-08-05T08:53:39Z</time>
      </trkpt>
      <trkpt lat="47.11708" lon="5.83483">
        <ele>285</ele>
        <time>2024-08-05T08:53:40Z</time>
      </trkpt>
      <trkpt lat="47.11709" lon="5.83486">
        <ele>285</ele>
        <time>2024-08-05T08:53:41Z</time>
      </trkpt>
      <trkpt lat="47.11711" lon="5.83489">
        <ele>285</ele>
        <time>2024-08-05T08:53:42Z</time>
      </trkpt>
      <trkpt lat="47.11713" lon="5.83492">
        <ele>285</ele>
        <time>2024-08-05T08:53:43Z</time>
      </trkpt>
      <trkpt lat="47.11715" lon="5.83494">
        <ele>285</ele>
        <time>2024-08-05T08:53:44Z</time>
      </trkpt>
      <trkpt lat="47.11716" lon="5.83497">
        <ele>285.2</ele>
        <time>2024-08-05T08:53:45Z</time>
      </trkpt>
      <trkpt lat="47.11718" lon="5.83499">
        <ele>285.2</ele>
        <time>2024-08-05T08:53:46Z</time>
      </trkpt>
      <trkpt lat="47.1172" lon="5.83501">
        <ele>285.2</ele>
        <time>2024-08-05T08:53:47Z</time>
      </trkpt>
      <trkpt lat="47.11722" lon="5.83503">
        <ele>285.4</ele>
        <time>2024-08-05T08:53:48Z</time>
      </trkpt>
      <trkpt lat="47.11724" lon="5.83505">
        <ele>285.2</ele>
        <time>2024-08-05T08:53:49Z</time>
      </trkpt>
      <trkpt lat="47.11726" lon="5.83507">
        <ele>285.2</ele>
        <time>2024-08-05T08:53:50Z</time>
      </trkpt>
      <trkpt lat="47.11728" lon="5.8351">
        <ele>285.4</ele>
        <time>2024-08-05T08:53:51Z</time>
      </trkpt>
      <trkpt lat="47.1173" lon="5.83512">
        <ele>285.4</ele>
        <time>2024-08-05T08:53:52Z</time>
      </trkpt>
      <trkpt lat="47.11732" lon="5.83513">
        <ele>285.6</ele>
        <time>2024-08-05T08:53:53Z</time>
      </trkpt>
      <trkpt lat="47.11734" lon="5.83515">
        <ele>285.4</ele>
        <time>2024-08-05T08:53:54Z</time>
      </trkpt>
      <trkpt lat="47.11737" lon="5.83518">
        <ele>285.6</ele>
        <time>2024-08-05T08:53:55Z</time>
      </trkpt>
      <trkpt lat="47.11739" lon="5.8352">
        <ele>285.8</ele>
        <time>2024-08-05T08:53:56Z</time>
      </trkpt>
      <trkpt lat="47.11741" lon="5.83522">
        <ele>285.8</ele>
        <time>2024-08-05T08:53:57Z</time>
      </trkpt>
      <trkpt lat="47.11744" lon="5.83523">
        <ele>285.8</ele>
        <time>2024-08-05T08:53:58Z</time>
      </trkpt>
      <trkpt lat="47.11747" lon="5.83525">
        <ele>286</ele>
        <time>2024-08-05T08:53:59Z</time>
      </trkpt>
      <trkpt lat="47.11749" lon="5.83527">
        <ele>286</ele>
        <time>2024-08-05T08:54:00Z</time>
      </trkpt>
      <trkpt lat="47.11751" lon="5.83529">
        <ele>286</ele>
        <time>2024-08-05T08:54:01Z</time>
      </trkpt>
      <trkpt lat="47.11754" lon="5.8353">
        <ele>286</ele>
        <time>2024-08-05T08:54:02Z</time>
      </trkpt>
      <trkpt lat="47.11756" lon="5.83531">
        <ele>286</ele>
        <time>2024-08-05T08:54:03Z</time>
      </trkpt>
      <trkpt lat="47.11758" lon="5.83532">
        <ele>286.2</ele>
        <time>2024-08-05T08:54:04Z</time>
      </trkpt>
      <trkpt lat="47.1176" lon="5.83534">
        <ele>286.2</ele>
        <time>2024-08-05T08:54:05Z</time>
      </trkpt>
      <trkpt lat="47.11763" lon="5.83536">
        <ele>286.4</ele>
        <time>2024-08-05T08:54:06Z</time>
      </trkpt>
      <trkpt lat="47.11766" lon="5.83538">
        <ele>286.4</ele>
        <time>2024-08-05T08:54:07Z</time>
      </trkpt>
      <trkpt lat="47.11768" lon="5.8354">
        <ele>286.4</ele>
        <time>2024-08-05T08:54:08Z</time>
      </trkpt>
      <trkpt lat="47.1177" lon="5.83542">
        <ele>286.6</ele>
        <time>2024-08-05T08:54:09Z</time>
      </trkpt>
      <trkpt lat="47.11773" lon="5.83544">
        <ele>286.6</ele>
        <time>2024-08-05T08:54:10Z</time>
      </trkpt>
      <trkpt lat="47.11775" lon="5.83544">
        <ele>287</ele>
        <time>2024-08-05T08:54:11Z</time>
      </trkpt>
      <trkpt lat="47.11778" lon="5.83545">
        <ele>286.8</ele>
        <time>2024-08-05T08:54:12Z</time>
      </trkpt>
      <trkpt lat="47.11781" lon="5.83546">
        <ele>286.8</ele>
        <time>2024-08-05T08:54:13Z</time>
      </trkpt>
      <trkpt lat="47.11783" lon="5.83547">
        <ele>287</ele>
        <time>2024-08-05T08:54:14Z</time>
      </trkpt>
      <trkpt lat="47.11787" lon="5.83548">
        <ele>287</ele>
        <time>2024-08-05T08:54:15Z</time>
      </trkpt>
      <trkpt lat="47.11789" lon="5.8355">
        <ele>287</ele>
        <time>2024-08-05T08:54:16Z</time>
      </trkpt>
      <trkpt lat="47.11791" lon="5.83552">
        <ele>287</ele>
        <time>2024-08-05T08:54:17Z</time>
      </trkpt>
      <trkpt lat="47.11794" lon="5.83553">
        <ele>287</ele>
        <time>2024-08-05T08:54:18Z</time>
      </trkpt>
      <trkpt lat="47.11796" lon="5.83555">
        <ele>287</ele>
        <time>2024-08-05T08:54:19Z</time>
      </trkpt>
      <trkpt lat="47.11798" lon="5.83556">
        <ele>287.2</ele>
        <time>2024-08-05T08:54:20Z</time>
      </trkpt>
      <trkpt lat="47.118" lon="5.83558">
        <ele>287</ele>
        <time>2024-08-05T08:54:21Z</time>
      </trkpt>
      <trkpt lat="47.11802" lon="5.83559">
        <ele>287.2</ele>
        <time>2024-08-05T08:54:22Z</time>
      </trkpt>
      <trkpt lat="47.11805" lon="5.83561">
        <ele>287.2</ele>
        <time>2024-08-05T08:54:23Z</time>
      </trkpt>
      <trkpt lat="47.11809" lon="5.83562">
        <ele>287.2</ele>
        <time>2024-08-05T08:54:24Z</time>
      </trkpt>
      <trkpt lat="47.11813" lon="5.83563">
        <ele>287.2</ele>
        <time>2024-08-05T08:54:25Z</time>
      </trkpt>
      <trkpt lat="47.11815" lon="5.83564">
        <ele>287.4</ele>
        <time>2024-08-05T08:54:26Z</time>
      </trkpt>
      <trkpt lat="47.11819" lon="5.83565">
        <ele>287.4</ele>
        <time>2024-08-05T08:54:27Z</time>
      </trkpt>
      <trkpt lat="47.11821" lon="5.83566">
        <ele>287.6</ele>
        <time>2024-08-05T08:54:28Z</time>
      </trkpt>
      <trkpt lat="47.11825" lon="5.83567">
        <ele>287.6</ele>
        <time>2024-08-05T08:54:29Z</time>
      </trkpt>
      <trkpt lat="47.11827" lon="5.83568">
        <ele>287.6</ele>
        <time>2024-08-05T08:54:30Z</time>
      </trkpt>
      <trkpt lat="47.1183" lon="5.83568">
        <ele>287.8</ele>
        <time>2024-08-05T08:54:31Z</time>
      </trkpt>
      <trkpt lat="47.11833" lon="5.83568">
        <ele>287.8</ele>
        <time>2024-08-05T08:54:32Z</time>
      </trkpt>
      <trkpt lat="47.11836" lon="5.83569">
        <ele>287.8</ele>
        <time>2024-08-05T08:54:33Z</time>
      </trkpt>
      <trkpt lat="47.11839" lon="5.8357">
        <ele>287.8</ele>
        <time>2024-08-05T08:54:34Z</time>
      </trkpt>
      <trkpt lat="47.11842" lon="5.83571">
        <ele>288</ele>
        <time>2024-08-05T08:54:35Z</time>
      </trkpt>
      <trkpt lat="47.11844" lon="5.83571">
        <ele>288</ele>
        <time>2024-08-05T08:54:36Z</time>
      </trkpt>
      <trkpt lat="47.11847" lon="5.83571">
        <ele>288</ele>
        <time>2024-08-05T08:54:37Z</time>
      </trkpt>
      <trkpt lat="47.1185" lon="5.83572">
        <ele>288.2</ele>
        <time>2024-08-05T08:54:38Z</time>
      </trkpt>
      <trkpt lat="47.11854" lon="5.83573">
        <ele>288.2</ele>
        <time>2024-08-05T08:54:39Z</time>
      </trkpt>
      <trkpt lat="47.11857" lon="5.83574">
        <ele>288.2</ele>
        <time>2024-08-05T08:54:40Z</time>
      </trkpt>
      <trkpt lat="47.1186" lon="5.83576">
        <ele>288.2</ele>
        <time>2024-08-05T08:54:41Z</time>
      </trkpt>
      <trkpt lat="47.11863" lon="5.83578">
        <ele>288.4</ele>
        <time>2024-08-05T08:54:42Z</time>
      </trkpt>
      <trkpt lat="47.11867" lon="5.8358">
        <ele>288.4</ele>
        <time>2024-08-05T08:54:43Z</time>
      </trkpt>
      <trkpt lat="47.11869" lon="5.83582">
        <ele>288.4</ele>
        <time>2024-08-05T08:54:44Z</time>
      </trkpt>
      <trkpt lat="47.11872" lon="5.83584">
        <ele>288.2</ele>
        <time>2024-08-05T08:54:45Z</time>
      </trkpt>
      <trkpt lat="47.11875" lon="5.83585">
        <ele>288.4</ele>
        <time>2024-08-05T08:54:46Z</time>
      </trkpt>
      <trkpt lat="47.11878" lon="5.83588">
        <ele>288.4</ele>
        <time>2024-08-05T08:54:47Z</time>
      </trkpt>
      <trkpt lat="47.11881" lon="5.83591">
        <ele>288.4</ele>
        <time>2024-08-05T08:54:48Z</time>
      </trkpt>
      <trkpt lat="47.11883" lon="5.83594">
        <ele>288.4</ele>
        <time>2024-08-05T08:54:49Z</time>
      </trkpt>
      <trkpt lat="47.11885" lon="5.83596">
        <ele>288.4</ele>
        <time>2024-08-05T08:54:50Z</time>
      </trkpt>
      <trkpt lat="47.11887" lon="5.83599">
        <ele>288.4</ele>
        <time>2024-08-05T08:54:51Z</time>
      </trkpt>
      <trkpt lat="47.1189" lon="5.83601">
        <ele>288.4</ele>
        <time>2024-08-05T08:54:52Z</time>
      </trkpt>
      <trkpt lat="47.11893" lon="5.83603">
        <ele>288.4</ele>
        <time>2024-08-05T08:54:53Z</time>
      </trkpt>
      <trkpt lat="47.11895" lon="5.83606">
        <ele>288.4</ele>
        <time>2024-08-05T08:54:54Z</time>
      </trkpt>
      <trkpt lat="47.11896" lon="5.83608">
        <ele>288.2</ele>
        <time>2024-08-05T08:54:55Z</time>
      </trkpt>
      <trkpt lat="47.11897" lon="5.8361">
        <ele>288.2</ele>
        <time>2024-08-05T08:54:56Z</time>
      </trkpt>
      <trkpt lat="47.11899" lon="5.83612">
        <ele>288.2</ele>
        <time>2024-08-05T08:54:57Z</time>
      </trkpt>
      <trkpt lat="47.11901" lon="5.83614">
        <ele>288</ele>
        <time>2024-08-05T08:54:58Z</time>
      </trkpt>
      <trkpt lat="47.11903" lon="5.83616">
        <ele>288</ele>
        <time>2024-08-05T08:54:59Z</time>
      </trkpt>
      <trkpt lat="47.11905" lon="5.83618">
        <ele>288.2</ele>
        <time>2024-08-05T08:55:00Z</time>
      </trkpt>
      <trkpt lat="47.11908" lon="5.8362">
        <ele>288.2</ele>
        <time>2024-08-05T08:55:01Z</time>
      </trkpt>
      <trkpt lat="47.11911" lon="5.83623">
        <ele>288.2</ele>
        <time>2024-08-05T08:55:02Z</time>
      </trkpt>
      <trkpt lat="47.11914" lon="5.83626">
        <ele>288</ele>
        <time>2024-08-05T08:55:03Z</time>
      </trkpt>
      <trkpt lat="47.11917" lon="5.83628">
        <ele>288</ele>
        <time>2024-08-05T08:55:04Z</time>
      </trkpt>
      <trkpt lat="47.11919" lon="5.8363">
        <ele>288.2</ele>
        <time>2024-08-05T08:55:05Z</time>
      </trkpt>
      <trkpt lat="47.11921" lon="5.83632">
        <ele>288.2</ele>
        <time>2024-08-05T08:55:06Z</time>
      </trkpt>
      <trkpt lat="47.11923" lon="5.83634">
        <ele>288.2</ele>
        <time>2024-08-05T08:55:07Z</time>
      </trkpt>
      <trkpt lat="47.11926" lon="5.83637">
        <ele>288.2</ele>
        <time>2024-08-05T08:55:08Z</time>
      </trkpt>
      <trkpt lat="47.11929" lon="5.83639">
        <ele>288.2</ele>
        <time>2024-08-05T08:55:09Z</time>
      </trkpt>
      <trkpt lat="47.11933" lon="5.83641">
        <ele>288.4</ele>
        <time>2024-08-05T08:55:10Z</time>
      </trkpt>
      <trkpt lat="47.11938" lon="5.83645">
        <ele>288.4</ele>
        <time>2024-08-05T08:55:11Z</time>
      </trkpt>
      <trkpt lat="47.11941" lon="5.83648">
        <ele>288.2</ele>
        <time>2024-08-05T08:55:12Z</time>
      </trkpt>
      <trkpt lat="47.11944" lon="5.8365">
        <ele>288.4</ele>
        <time>2024-08-05T08:55:13Z</time>
      </trkpt>
      <trkpt lat="47.11946" lon="5.83652">
        <ele>288.4</ele>
        <time>2024-08-05T08:55:14Z</time>
      </trkpt>
      <trkpt lat="47.11947" lon="5.83654">
        <ele>288.4</ele>
        <time>2024-08-05T08:55:15Z</time>
      </trkpt>
      <trkpt lat="47.11948" lon="5.83655">
        <ele>288.4</ele>
        <time>2024-08-05T08:55:16Z</time>
      </trkpt>
      <trkpt lat="47.11949" lon="5.83655">
        <ele>288.6</ele>
        <time>2024-08-05T08:55:17Z</time>
      </trkpt>
      <trkpt lat="47.1195" lon="5.83654">
        <ele>288.6</ele>
        <time>2024-08-05T08:55:18Z</time>
      </trkpt>
      <trkpt lat="47.11951" lon="5.83653">
        <ele>288.6</ele>
        <time>2024-08-05T08:55:19Z</time>
      </trkpt>
      <trkpt lat="47.11952" lon="5.83652">
        <ele>288.6</ele>
        <time>2024-08-05T08:55:20Z</time>
      </trkpt>
      <trkpt lat="47.11953" lon="5.83652">
        <ele>288.8</ele>
        <time>2024-08-05T08:55:21Z</time>
      </trkpt>
      <trkpt lat="47.11955" lon="5.83652">
        <ele>288.6</ele>
        <time>2024-08-05T08:55:22Z</time>
      </trkpt>
      <trkpt lat="47.11956" lon="5.83652">
        <ele>288.6</ele>
        <time>2024-08-05T08:55:23Z</time>
      </trkpt>
      <trkpt lat="47.11958" lon="5.83652">
        <ele>288.8</ele>
        <time>2024-08-05T08:55:24Z</time>
      </trkpt>
      <trkpt lat="47.11959" lon="5.83651">
        <ele>288.8</ele>
        <time>2024-08-05T08:55:25Z</time>
      </trkpt>
      <trkpt lat="47.1196" lon="5.8365">
        <ele>288.6</ele>
        <time>2024-08-05T08:55:26Z</time>
      </trkpt>
      <trkpt lat="47.11962" lon="5.83649">
        <ele>288.8</ele>
        <time>2024-08-05T08:55:27Z</time>
      </trkpt>
      <trkpt lat="47.11963" lon="5.83648">
        <ele>288.8</ele>
        <time>2024-08-05T08:55:28Z</time>
      </trkpt>
      <trkpt lat="47.11964" lon="5.83646">
        <ele>288.8</ele>
        <time>2024-08-05T08:55:29Z</time>
      </trkpt>
      <trkpt lat="47.11965" lon="5.83644">
        <ele>288.8</ele>
        <time>2024-08-05T08:55:30Z</time>
      </trkpt>
      <trkpt lat="47.11967" lon="5.83642">
        <ele>288.8</ele>
        <time>2024-08-05T08:55:31Z</time>
      </trkpt>
      <trkpt lat="47.11969" lon="5.83638">
        <ele>288.8</ele>
        <time>2024-08-05T08:55:32Z</time>
      </trkpt>
      <trkpt lat="47.11971" lon="5.83636">
        <ele>288.8</ele>
        <time>2024-08-05T08:55:33Z</time>
      </trkpt>
      <trkpt lat="47.11973" lon="5.83633">
        <ele>288.8</ele>
        <time>2024-08-05T08:55:34Z</time>
      </trkpt>
      <trkpt lat="47.11976" lon="5.83632">
        <ele>288.6</ele>
        <time>2024-08-05T08:55:35Z</time>
      </trkpt>
      <trkpt lat="47.11979" lon="5.83631">
        <ele>288.6</ele>
        <time>2024-08-05T08:55:36Z</time>
      </trkpt>
      <trkpt lat="47.11983" lon="5.83631">
        <ele>288.4</ele>
        <time>2024-08-05T08:55:37Z</time>
      </trkpt>
      <trkpt lat="47.11986" lon="5.83631">
        <ele>288.4</ele>
        <time>2024-08-05T08:55:38Z</time>
      </trkpt>
      <trkpt lat="47.11988" lon="5.83632">
        <ele>288.2</ele>
        <time>2024-08-05T08:55:39Z</time>
      </trkpt>
      <trkpt lat="47.1199" lon="5.83633">
        <ele>287.8</ele>
        <time>2024-08-05T08:55:40Z</time>
      </trkpt>
      <trkpt lat="47.11993" lon="5.83634">
        <ele>287.6</ele>
        <time>2024-08-05T08:55:41Z</time>
      </trkpt>
      <trkpt lat="47.11996" lon="5.83636">
        <ele>286.8</ele>
        <time>2024-08-05T08:55:42Z</time>
      </trkpt>
      <trkpt lat="47.11999" lon="5.83638">
        <ele>286.6</ele>
        <time>2024-08-05T08:55:43Z</time>
      </trkpt>
      <trkpt lat="47.12003" lon="5.83639">
        <ele>286</ele>
        <time>2024-08-05T08:55:44Z</time>
      </trkpt>
      <trkpt lat="47.12005" lon="5.83641">
        <ele>285.8</ele>
        <time>2024-08-05T08:55:45Z</time>
      </trkpt>
      <trkpt lat="47.12009" lon="5.83642">
        <ele>285.6</ele>
        <time>2024-08-05T08:55:46Z</time>
      </trkpt>
      <trkpt lat="47.12012" lon="5.83644">
        <ele>285.4</ele>
        <time>2024-08-05T08:55:47Z</time>
      </trkpt>
      <trkpt lat="47.12014" lon="5.83645">
        <ele>285.2</ele>
        <time>2024-08-05T08:55:48Z</time>
      </trkpt>
      <trkpt lat="47.12017" lon="5.83647">
        <ele>285.2</ele>
        <time>2024-08-05T08:55:49Z</time>
      </trkpt>
      <trkpt lat="47.1202" lon="5.83648">
        <ele>285.2</ele>
        <time>2024-08-05T08:55:50Z</time>
      </trkpt>
      <trkpt lat="47.12023" lon="5.83649">
        <ele>285.2</ele>
        <time>2024-08-05T08:55:51Z</time>
      </trkpt>
      <trkpt lat="47.12026" lon="5.8365">
        <ele>285</ele>
        <time>2024-08-05T08:55:52Z</time>
      </trkpt>
      <trkpt lat="47.12029" lon="5.83652">
        <ele>285</ele>
        <time>2024-08-05T08:55:53Z</time>
      </trkpt>
      <trkpt lat="47.12033" lon="5.83652">
        <ele>284.8</ele>
        <time>2024-08-05T08:55:54Z</time>
      </trkpt>
      <trkpt lat="47.12036" lon="5.83653">
        <ele>284.6</ele>
        <time>2024-08-05T08:55:55Z</time>
      </trkpt>
      <trkpt lat="47.12039" lon="5.83653">
        <ele>284.4</ele>
        <time>2024-08-05T08:55:56Z</time>
      </trkpt>
      <trkpt lat="47.12042" lon="5.83653">
        <ele>284.2</ele>
        <time>2024-08-05T08:55:57Z</time>
      </trkpt>
      <trkpt lat="47.12047" lon="5.83654">
        <ele>284.2</ele>
        <time>2024-08-05T08:55:58Z</time>
      </trkpt>
      <trkpt lat="47.12051" lon="5.83655">
        <ele>283.8</ele>
        <time>2024-08-05T08:55:59Z</time>
      </trkpt>
      <trkpt lat="47.12055" lon="5.83657">
        <ele>283.4</ele>
        <time>2024-08-05T08:56:00Z</time>
      </trkpt>
      <trkpt lat="47.12058" lon="5.83658">
        <ele>283</ele>
        <time>2024-08-05T08:56:01Z</time>
      </trkpt>
      <trkpt lat="47.12062" lon="5.83659">
        <ele>282.8</ele>
        <time>2024-08-05T08:56:02Z</time>
      </trkpt>
      <trkpt lat="47.12066" lon="5.83661">
        <ele>282.4</ele>
        <time>2024-08-05T08:56:03Z</time>
      </trkpt>
      <trkpt lat="47.12071" lon="5.83663">
        <ele>282</ele>
        <time>2024-08-05T08:56:04Z</time>
      </trkpt>
      <trkpt lat="47.12078" lon="5.83665">
        <ele>281.6</ele>
        <time>2024-08-05T08:56:05Z</time>
      </trkpt>
      <trkpt lat="47.12083" lon="5.83667">
        <ele>281.4</ele>
        <time>2024-08-05T08:56:06Z</time>
      </trkpt>
      <trkpt lat="47.12088" lon="5.83669">
        <ele>280.8</ele>
        <time>2024-08-05T08:56:07Z</time>
      </trkpt>
      <trkpt lat="47.12092" lon="5.83672">
        <ele>280.6</ele>
        <time>2024-08-05T08:56:08Z</time>
      </trkpt>
      <trkpt lat="47.12096" lon="5.83674">
        <ele>280</ele>
        <time>2024-08-05T08:56:09Z</time>
      </trkpt>
      <trkpt lat="47.12099" lon="5.83676">
        <ele>280</ele>
        <time>2024-08-05T08:56:10Z</time>
      </trkpt>
      <trkpt lat="47.12105" lon="5.83678">
        <ele>279.8</ele>
        <time>2024-08-05T08:56:11Z</time>
      </trkpt>
      <trkpt lat="47.12109" lon="5.8368">
        <ele>279.6</ele>
        <time>2024-08-05T08:56:12Z</time>
      </trkpt>
      <trkpt lat="47.12112" lon="5.83682">
        <ele>279.4</ele>
        <time>2024-08-05T08:56:13Z</time>
      </trkpt>
      <trkpt lat="47.12115" lon="5.83684">
        <ele>279.2</ele>
        <time>2024-08-05T08:56:14Z</time>
      </trkpt>
      <trkpt lat="47.12122" lon="5.83685">
        <ele>279</ele>
        <time>2024-08-05T08:56:15Z</time>
      </trkpt>
      <trkpt lat="47.12128" lon="5.83686">
        <ele>278.8</ele>
        <time>2024-08-05T08:56:16Z</time>
      </trkpt>
      <trkpt lat="47.12133" lon="5.83687">
        <ele>278.8</ele>
        <time>2024-08-05T08:56:17Z</time>
      </trkpt>
      <trkpt lat="47.12136" lon="5.8369">
        <ele>278.8</ele>
        <time>2024-08-05T08:56:18Z</time>
      </trkpt>
      <trkpt lat="47.12142" lon="5.83691">
        <ele>278.6</ele>
        <time>2024-08-05T08:56:19Z</time>
      </trkpt>
      <trkpt lat="47.12148" lon="5.83692">
        <ele>278.6</ele>
        <time>2024-08-05T08:56:20Z</time>
      </trkpt>
      <trkpt lat="47.12153" lon="5.83694">
        <ele>278.8</ele>
        <time>2024-08-05T08:56:21Z</time>
      </trkpt>
      <trkpt lat="47.12156" lon="5.83696">
        <ele>278.6</ele>
        <time>2024-08-05T08:56:22Z</time>
      </trkpt>
      <trkpt lat="47.12159" lon="5.83697">
        <ele>278.4</ele>
        <time>2024-08-05T08:56:23Z</time>
      </trkpt>
      <trkpt lat="47.12164" lon="5.837">
        <ele>278.2</ele>
        <time>2024-08-05T08:56:24Z</time>
      </trkpt>
      <trkpt lat="47.12168" lon="5.83701">
        <ele>278.2</ele>
        <time>2024-08-05T08:56:25Z</time>
      </trkpt>
      <trkpt lat="47.12171" lon="5.83702">
        <ele>278.2</ele>
        <time>2024-08-05T08:56:26Z</time>
      </trkpt>
      <trkpt lat="47.12173" lon="5.83703">
        <ele>278.2</ele>
        <time>2024-08-05T08:56:27Z</time>
      </trkpt>
      <trkpt lat="47.12176" lon="5.83704">
        <ele>278</ele>
        <time>2024-08-05T08:56:28Z</time>
      </trkpt>
      <trkpt lat="47.12178" lon="5.83704">
        <ele>278</ele>
        <time>2024-08-05T08:56:29Z</time>
      </trkpt>
      <trkpt lat="47.1218" lon="5.83703">
        <ele>278</ele>
        <time>2024-08-05T08:56:30Z</time>
      </trkpt>
      <trkpt lat="47.12181" lon="5.83703">
        <ele>278</ele>
        <time>2024-08-05T08:56:31Z</time>
      </trkpt>
      <trkpt lat="47.12182" lon="5.83702">
        <ele>278</ele>
        <time>2024-08-05T08:56:32Z</time>
      </trkpt>
      <trkpt lat="47.12184" lon="5.83702">
        <ele>278</ele>
        <time>2024-08-05T08:56:33Z</time>
      </trkpt>
      <trkpt lat="47.12185" lon="5.83702">
        <ele>278</ele>
        <time>2024-08-05T08:56:34Z</time>
      </trkpt>
      <trkpt lat="47.12186" lon="5.83703">
        <ele>278</ele>
        <time>2024-08-05T08:56:35Z</time>
      </trkpt>
      <trkpt lat="47.12186" lon="5.83703">
        <ele>278</ele>
        <time>2024-08-05T08:56:36Z</time>
      </trkpt>
      <trkpt lat="47.12187" lon="5.83704">
        <ele>277.8</ele>
        <time>2024-08-05T08:56:37Z</time>
      </trkpt>
      <trkpt lat="47.12188" lon="5.83704">
        <ele>277.8</ele>
        <time>2024-08-05T08:56:38Z</time>
      </trkpt>
      <trkpt lat="47.12188" lon="5.83705">
        <ele>277.8</ele>
        <time>2024-08-05T08:56:39Z</time>
      </trkpt>
      <trkpt lat="47.12189" lon="5.83705">
        <ele>277.8</ele>
        <time>2024-08-05T08:56:40Z</time>
      </trkpt>
      <trkpt lat="47.12189" lon="5.83705">
        <ele>277.6</ele>
        <time>2024-08-05T08:56:41Z</time>
      </trkpt>
      <trkpt lat="47.1219" lon="5.83705">
        <ele>277.6</ele>
        <time>2024-08-05T08:56:42Z</time>
      </trkpt>
      <trkpt lat="47.1219" lon="5.83706">
        <ele>277.8</ele>
        <time>2024-08-05T08:56:43Z</time>
      </trkpt>
      <trkpt lat="47.12191" lon="5.83706">
        <ele>277.8</ele>
        <time>2024-08-05T08:56:44Z</time>
      </trkpt>
      <trkpt lat="47.12192" lon="5.83707">
        <ele>277.6</ele>
        <time>2024-08-05T08:56:45Z</time>
      </trkpt>
      <trkpt lat="47.12193" lon="5.83707">
        <ele>277.6</ele>
        <time>2024-08-05T08:56:46Z</time>
      </trkpt>
      <trkpt lat="47.12194" lon="5.83707">
        <ele>277.6</ele>
        <time>2024-08-05T08:56:47Z</time>
      </trkpt>
      <trkpt lat="47.12195" lon="5.83706">
        <ele>277.6</ele>
        <time>2024-08-05T08:56:48Z</time>
      </trkpt>
      <trkpt lat="47.12195" lon="5.83706">
        <ele>277.6</ele>
        <time>2024-08-05T08:56:49Z</time>
      </trkpt>
      <trkpt lat="47.12196" lon="5.83706">
        <ele>277.6</ele>
        <time>2024-08-05T08:56:50Z</time>
      </trkpt>
      <trkpt lat="47.12197" lon="5.83707">
        <ele>277.6</ele>
        <time>2024-08-05T08:56:51Z</time>
      </trkpt>
      <trkpt lat="47.12198" lon="5.83707">
        <ele>277.6</ele>
        <time>2024-08-05T08:56:52Z</time>
      </trkpt>
      <trkpt lat="47.122" lon="5.83708">
        <ele>277.6</ele>
        <time>2024-08-05T08:56:53Z</time>
      </trkpt>
      <trkpt lat="47.12201" lon="5.83708">
        <ele>277.6</ele>
        <time>2024-08-05T08:56:54Z</time>
      </trkpt>
      <trkpt lat="47.12203" lon="5.8371">
        <ele>277.6</ele>
        <time>2024-08-05T08:56:55Z</time>
      </trkpt>
      <trkpt lat="47.12205" lon="5.83711">
        <ele>277.4</ele>
        <time>2024-08-05T08:56:56Z</time>
      </trkpt>
      <trkpt lat="47.12207" lon="5.83712">
        <ele>277.4</ele>
        <time>2024-08-05T08:56:57Z</time>
      </trkpt>
      <trkpt lat="47.12209" lon="5.83713">
        <ele>277.4</ele>
        <time>2024-08-05T08:56:58Z</time>
      </trkpt>
      <trkpt lat="47.12211" lon="5.83714">
        <ele>277.2</ele>
        <time>2024-08-05T08:56:59Z</time>
      </trkpt>
      <trkpt lat="47.12214" lon="5.83715">
        <ele>277.2</ele>
        <time>2024-08-05T08:57:00Z</time>
      </trkpt>
      <trkpt lat="47.12216" lon="5.83716">
        <ele>277.2</ele>
        <time>2024-08-05T08:57:01Z</time>
      </trkpt>
      <trkpt lat="47.12218" lon="5.83716">
        <ele>277.4</ele>
        <time>2024-08-05T08:57:02Z</time>
      </trkpt>
      <trkpt lat="47.1222" lon="5.83718">
        <ele>277.4</ele>
        <time>2024-08-05T08:57:03Z</time>
      </trkpt>
      <trkpt lat="47.12223" lon="5.83719">
        <ele>277.2</ele>
        <time>2024-08-05T08:57:04Z</time>
      </trkpt>
      <trkpt lat="47.12225" lon="5.83721">
        <ele>277.4</ele>
        <time>2024-08-05T08:57:05Z</time>
      </trkpt>
      <trkpt lat="47.12227" lon="5.83723">
        <ele>277.2</ele>
        <time>2024-08-05T08:57:06Z</time>
      </trkpt>
      <trkpt lat="47.1223" lon="5.83724">
        <ele>277.2</ele>
        <time>2024-08-05T08:57:07Z</time>
      </trkpt>
      <trkpt lat="47.12233" lon="5.83725">
        <ele>277.2</ele>
        <time>2024-08-05T08:57:08Z</time>
      </trkpt>
      <trkpt lat="47.12236" lon="5.83726">
        <ele>277.2</ele>
        <time>2024-08-05T08:57:09Z</time>
      </trkpt>
      <trkpt lat="47.12238" lon="5.83727">
        <ele>277.2</ele>
        <time>2024-08-05T08:57:10Z</time>
      </trkpt>
      <trkpt lat="47.12241" lon="5.83727">
        <ele>277.2</ele>
        <time>2024-08-05T08:57:11Z</time>
      </trkpt>
      <trkpt lat="47.12243" lon="5.83728">
        <ele>277.4</ele>
        <time>2024-08-05T08:57:12Z</time>
      </trkpt>
      <trkpt lat="47.12245" lon="5.83728">
        <ele>277.2</ele>
        <time>2024-08-05T08:57:13Z</time>
      </trkpt>
      <trkpt lat="47.12248" lon="5.83728">
        <ele>277.2</ele>
        <time>2024-08-05T08:57:14Z</time>
      </trkpt>
      <trkpt lat="47.12251" lon="5.83729">
        <ele>277.2</ele>
        <time>2024-08-05T08:57:15Z</time>
      </trkpt>
      <trkpt lat="47.12254" lon="5.8373">
        <ele>277.2</ele>
        <time>2024-08-05T08:57:16Z</time>
      </trkpt>
      <trkpt lat="47.12257" lon="5.83731">
        <ele>277.2</ele>
        <time>2024-08-05T08:57:17Z</time>
      </trkpt>
      <trkpt lat="47.1226" lon="5.83733">
        <ele>277.2</ele>
        <time>2024-08-05T08:57:18Z</time>
      </trkpt>
      <trkpt lat="47.12262" lon="5.83735">
        <ele>277.4</ele>
        <time>2024-08-05T08:57:19Z</time>
      </trkpt>
      <trkpt lat="47.12266" lon="5.83736">
        <ele>277.2</ele>
        <time>2024-08-05T08:57:20Z</time>
      </trkpt>
      <trkpt lat="47.12269" lon="5.83737">
        <ele>277.2</ele>
        <time>2024-08-05T08:57:21Z</time>
      </trkpt>
      <trkpt lat="47.12272" lon="5.83738">
        <ele>277.2</ele>
        <time>2024-08-05T08:57:22Z</time>
      </trkpt>
      <trkpt lat="47.12274" lon="5.83739">
        <ele>277.2</ele>
        <time>2024-08-05T08:57:23Z</time>
      </trkpt>
      <trkpt lat="47.12277" lon="5.83741">
        <ele>277.2</ele>
        <time>2024-08-05T08:57:24Z</time>
      </trkpt>
      <trkpt lat="47.1228" lon="5.83743">
        <ele>277.2</ele>
        <time>2024-08-05T08:57:25Z</time>
      </trkpt>
      <trkpt lat="47.12284" lon="5.83746">
        <ele>277.2</ele>
        <time>2024-08-05T08:57:26Z</time>
      </trkpt>
      <trkpt lat="47.12287" lon="5.83748">
        <ele>277.2</ele>
        <time>2024-08-05T08:57:27Z</time>
      </trkpt>
      <trkpt lat="47.12289" lon="5.83751">
        <ele>277.2</ele>
        <time>2024-08-05T08:57:28Z</time>
      </trkpt>
      <trkpt lat="47.12293" lon="5.83752">
        <ele>277</ele>
        <time>2024-08-05T08:57:29Z</time>
      </trkpt>
      <trkpt lat="47.12295" lon="5.83754">
        <ele>277.2</ele>
        <time>2024-08-05T08:57:30Z</time>
      </trkpt>
      <trkpt lat="47.12298" lon="5.83756">
        <ele>277</ele>
        <time>2024-08-05T08:57:31Z</time>
      </trkpt>
      <trkpt lat="47.12301" lon="5.83757">
        <ele>277</ele>
        <time>2024-08-05T08:57:32Z</time>
      </trkpt>
      <trkpt lat="47.12303" lon="5.83759">
        <ele>277</ele>
        <time>2024-08-05T08:57:33Z</time>
      </trkpt>
      <trkpt lat="47.12306" lon="5.83759">
        <ele>277</ele>
        <time>2024-08-05T08:57:34Z</time>
      </trkpt>
      <trkpt lat="47.12307" lon="5.8376">
        <ele>276.8</ele>
        <time>2024-08-05T08:57:35Z</time>
      </trkpt>
      <trkpt lat="47.12308" lon="5.8376">
        <ele>277</ele>
        <time>2024-08-05T08:57:36Z</time>
      </trkpt>
      <trkpt lat="47.12309" lon="5.8376">
        <ele>276.8</ele>
        <time>2024-08-05T08:57:37Z</time>
      </trkpt>
      <trkpt lat="47.12311" lon="5.83761">
        <ele>276.4</ele>
        <time>2024-08-05T08:57:38Z</time>
      </trkpt>
      <trkpt lat="47.12313" lon="5.83761">
        <ele>276.4</ele>
        <time>2024-08-05T08:57:39Z</time>
      </trkpt>
      <trkpt lat="47.12315" lon="5.83761">
        <ele>276.4</ele>
        <time>2024-08-05T08:57:40Z</time>
      </trkpt>
      <trkpt lat="47.12316" lon="5.83762">
        <ele>276.2</ele>
        <time>2024-08-05T08:57:41Z</time>
      </trkpt>
      <trkpt lat="47.12318" lon="5.83762">
        <ele>276.2</ele>
        <time>2024-08-05T08:57:42Z</time>
      </trkpt>
      <trkpt lat="47.12319" lon="5.83762">
        <ele>276.2</ele>
        <time>2024-08-05T08:57:43Z</time>
      </trkpt>
      <trkpt lat="47.12321" lon="5.83764">
        <ele>276.2</ele>
        <time>2024-08-05T08:57:44Z</time>
      </trkpt>
      <trkpt lat="47.12322" lon="5.83764">
        <ele>276.4</ele>
        <time>2024-08-05T08:57:45Z</time>
      </trkpt>
      <trkpt lat="47.12323" lon="5.83764">
        <ele>276.4</ele>
        <time>2024-08-05T08:57:46Z</time>
      </trkpt>
      <trkpt lat="47.12325" lon="5.83765">
        <ele>276.2</ele>
        <time>2024-08-05T08:57:47Z</time>
      </trkpt>
      <trkpt lat="47.12326" lon="5.83766">
        <ele>276.2</ele>
        <time>2024-08-05T08:57:48Z</time>
      </trkpt>
      <trkpt lat="47.12327" lon="5.83766">
        <ele>276.2</ele>
        <time>2024-08-05T08:57:49Z</time>
      </trkpt>
      <trkpt lat="47.12329" lon="5.83767">
        <ele>276.2</ele>
        <time>2024-08-05T08:57:50Z</time>
      </trkpt>
      <trkpt lat="47.12331" lon="5.83767">
        <ele>276.2</ele>
        <time>2024-08-05T08:57:51Z</time>
      </trkpt>
      <trkpt lat="47.12334" lon="5.83768">
        <ele>276.2</ele>
        <time>2024-08-05T08:57:52Z</time>
      </trkpt>
      <trkpt lat="47.12335" lon="5.83768">
        <ele>276.2</ele>
        <time>2024-08-05T08:57:53Z</time>
      </trkpt>
      <trkpt lat="47.12338" lon="5.83769">
        <ele>276</ele>
        <time>2024-08-05T08:57:54Z</time>
      </trkpt>
      <trkpt lat="47.12341" lon="5.8377">
        <ele>276</ele>
        <time>2024-08-05T08:57:55Z</time>
      </trkpt>
      <trkpt lat="47.12343" lon="5.8377">
        <ele>276.2</ele>
        <time>2024-08-05T08:57:56Z</time>
      </trkpt>
      <trkpt lat="47.12346" lon="5.83771">
        <ele>276.2</ele>
        <time>2024-08-05T08:57:57Z</time>
      </trkpt>
      <trkpt lat="47.12349" lon="5.83772">
        <ele>276.2</ele>
        <time>2024-08-05T08:57:58Z</time>
      </trkpt>
      <trkpt lat="47.12351" lon="5.83774">
        <ele>276.2</ele>
        <time>2024-08-05T08:57:59Z</time>
      </trkpt>
      <trkpt lat="47.12354" lon="5.83775">
        <ele>276.2</ele>
        <time>2024-08-05T08:58:00Z</time>
      </trkpt>
      <trkpt lat="47.12356" lon="5.83777">
        <ele>276.2</ele>
        <time>2024-08-05T08:58:01Z</time>
      </trkpt>
      <trkpt lat="47.12358" lon="5.83778">
        <ele>276</ele>
        <time>2024-08-05T08:58:02Z</time>
      </trkpt>
      <trkpt lat="47.1236" lon="5.8378">
        <ele>276</ele>
        <time>2024-08-05T08:58:03Z</time>
      </trkpt>
      <trkpt lat="47.12362" lon="5.83781">
        <ele>275.8</ele>
        <time>2024-08-05T08:58:04Z</time>
      </trkpt>
      <trkpt lat="47.12364" lon="5.83783">
        <ele>275.8</ele>
        <time>2024-08-05T08:58:05Z</time>
      </trkpt>
      <trkpt lat="47.12366" lon="5.83785">
        <ele>275.8</ele>
        <time>2024-08-05T08:58:06Z</time>
      </trkpt>
      <trkpt lat="47.12369" lon="5.83787">
        <ele>275.4</ele>
        <time>2024-08-05T08:58:07Z</time>
      </trkpt>
      <trkpt lat="47.12371" lon="5.83788">
        <ele>275.4</ele>
        <time>2024-08-05T08:58:08Z</time>
      </trkpt>
      <trkpt lat="47.12373" lon="5.8379">
        <ele>275.2</ele>
        <time>2024-08-05T08:58:09Z</time>
      </trkpt>
      <trkpt lat="47.12375" lon="5.8379">
        <ele>275</ele>
        <time>2024-08-05T08:58:10Z</time>
      </trkpt>
      <trkpt lat="47.12377" lon="5.83791">
        <ele>274.8</ele>
        <time>2024-08-05T08:58:11Z</time>
      </trkpt>
      <trkpt lat="47.12379" lon="5.83792">
        <ele>274.8</ele>
        <time>2024-08-05T08:58:12Z</time>
      </trkpt>
      <trkpt lat="47.12381" lon="5.83793">
        <ele>274.6</ele>
        <time>2024-08-05T08:58:13Z</time>
      </trkpt>
      <trkpt lat="47.12383" lon="5.83794">
        <ele>274.6</ele>
        <time>2024-08-05T08:58:14Z</time>
      </trkpt>
      <trkpt lat="47.12386" lon="5.83796">
        <ele>274.6</ele>
        <time>2024-08-05T08:58:15Z</time>
      </trkpt>
      <trkpt lat="47.12389" lon="5.83796">
        <ele>274.4</ele>
        <time>2024-08-05T08:58:16Z</time>
      </trkpt>
      <trkpt lat="47.12392" lon="5.83797">
        <ele>274.4</ele>
        <time>2024-08-05T08:58:17Z</time>
      </trkpt>
      <trkpt lat="47.12396" lon="5.83797">
        <ele>274.4</ele>
        <time>2024-08-05T08:58:18Z</time>
      </trkpt>
      <trkpt lat="47.12399" lon="5.83798">
        <ele>274.2</ele>
        <time>2024-08-05T08:58:19Z</time>
      </trkpt>
      <trkpt lat="47.12402" lon="5.83798">
        <ele>274.4</ele>
        <time>2024-08-05T08:58:20Z</time>
      </trkpt>
      <trkpt lat="47.12406" lon="5.83797">
        <ele>274.2</ele>
        <time>2024-08-05T08:58:21Z</time>
      </trkpt>
      <trkpt lat="47.12409" lon="5.83798">
        <ele>274</ele>
        <time>2024-08-05T08:58:22Z</time>
      </trkpt>
      <trkpt lat="47.12413" lon="5.83798">
        <ele>273.8</ele>
        <time>2024-08-05T08:58:23Z</time>
      </trkpt>
      <trkpt lat="47.12417" lon="5.83797">
        <ele>273.6</ele>
        <time>2024-08-05T08:58:24Z</time>
      </trkpt>
      <trkpt lat="47.1242" lon="5.83797">
        <ele>273.4</ele>
        <time>2024-08-05T08:58:25Z</time>
      </trkpt>
      <trkpt lat="47.12423" lon="5.83796">
        <ele>273</ele>
        <time>2024-08-05T08:58:26Z</time>
      </trkpt>
      <trkpt lat="47.12427" lon="5.83796">
        <ele>273</ele>
        <time>2024-08-05T08:58:27Z</time>
      </trkpt>
      <trkpt lat="47.12429" lon="5.83795">
        <ele>272.6</ele>
        <time>2024-08-05T08:58:28Z</time>
      </trkpt>
      <trkpt lat="47.12433" lon="5.83795">
        <ele>272.4</ele>
        <time>2024-08-05T08:58:29Z</time>
      </trkpt>
      <trkpt lat="47.12435" lon="5.83794">
        <ele>272</ele>
        <time>2024-08-05T08:58:30Z</time>
      </trkpt>
      <trkpt lat="47.12439" lon="5.83793">
        <ele>272</ele>
        <time>2024-08-05T08:58:31Z</time>
      </trkpt>
      <trkpt lat="47.12442" lon="5.83792">
        <ele>271.6</ele>
        <time>2024-08-05T08:58:32Z</time>
      </trkpt>
      <trkpt lat="47.12445" lon="5.8379">
        <ele>271.2</ele>
        <time>2024-08-05T08:58:33Z</time>
      </trkpt>
      <trkpt lat="47.12448" lon="5.83788">
        <ele>270.8</ele>
        <time>2024-08-05T08:58:34Z</time>
      </trkpt>
      <trkpt lat="47.12451" lon="5.83787">
        <ele>270.8</ele>
        <time>2024-08-05T08:58:35Z</time>
      </trkpt>
      <trkpt lat="47.12454" lon="5.83784">
        <ele>270.8</ele>
        <time>2024-08-05T08:58:36Z</time>
      </trkpt>
      <trkpt lat="47.12457" lon="5.83781">
        <ele>270.6</ele>
        <time>2024-08-05T08:58:37Z</time>
      </trkpt>
      <trkpt lat="47.12459" lon="5.8378">
        <ele>270.6</ele>
        <time>2024-08-05T08:58:38Z</time>
      </trkpt>
      <trkpt lat="47.12461" lon="5.83778">
        <ele>270.4</ele>
        <time>2024-08-05T08:58:39Z</time>
      </trkpt>
      <trkpt lat="47.12463" lon="5.83777">
        <ele>270.4</ele>
        <time>2024-08-05T08:58:40Z</time>
      </trkpt>
      <trkpt lat="47.12465" lon="5.83775">
        <ele>270.2</ele>
        <time>2024-08-05T08:58:41Z</time>
      </trkpt>
      <trkpt lat="47.12467" lon="5.83773">
        <ele>270</ele>
        <time>2024-08-05T08:58:42Z</time>
      </trkpt>
      <trkpt lat="47.12468" lon="5.83771">
        <ele>270</ele>
        <time>2024-08-05T08:58:43Z</time>
      </trkpt>
      <trkpt lat="47.12469" lon="5.8377">
        <ele>269.8</ele>
        <time>2024-08-05T08:58:44Z</time>
      </trkpt>
      <trkpt lat="47.12471" lon="5.83769">
        <ele>269.6</ele>
        <time>2024-08-05T08:58:45Z</time>
      </trkpt>
      <trkpt lat="47.12473" lon="5.83768">
        <ele>269.4</ele>
        <time>2024-08-05T08:58:46Z</time>
      </trkpt>
      <trkpt lat="47.12474" lon="5.83767">
        <ele>269.4</ele>
        <time>2024-08-05T08:58:47Z</time>
      </trkpt>
      <trkpt lat="47.12477" lon="5.83766">
        <ele>269.2</ele>
        <time>2024-08-05T08:58:48Z</time>
      </trkpt>
      <trkpt lat="47.12479" lon="5.83765">
        <ele>269.2</ele>
        <time>2024-08-05T08:58:49Z</time>
      </trkpt>
      <trkpt lat="47.12482" lon="5.83762">
        <ele>269.2</ele>
        <time>2024-08-05T08:58:50Z</time>
      </trkpt>
      <trkpt lat="47.12484" lon="5.8376">
        <ele>269.2</ele>
        <time>2024-08-05T08:58:51Z</time>
      </trkpt>
      <trkpt lat="47.12486" lon="5.83757">
        <ele>269</ele>
        <time>2024-08-05T08:58:52Z</time>
      </trkpt>
      <trkpt lat="47.12488" lon="5.83755">
        <ele>269</ele>
        <time>2024-08-05T08:58:53Z</time>
      </trkpt>
      <trkpt lat="47.12491" lon="5.83751">
        <ele>269</ele>
        <time>2024-08-05T08:58:54Z</time>
      </trkpt>
      <trkpt lat="47.12493" lon="5.83749">
        <ele>268.8</ele>
        <time>2024-08-05T08:58:55Z</time>
      </trkpt>
      <trkpt lat="47.12497" lon="5.83747">
        <ele>268.8</ele>
        <time>2024-08-05T08:58:56Z</time>
      </trkpt>
      <trkpt lat="47.12499" lon="5.83743">
        <ele>268.6</ele>
        <time>2024-08-05T08:58:57Z</time>
      </trkpt>
      <trkpt lat="47.12501" lon="5.8374">
        <ele>268.4</ele>
        <time>2024-08-05T08:58:58Z</time>
      </trkpt>
      <trkpt lat="47.12503" lon="5.83738">
        <ele>268.2</ele>
        <time>2024-08-05T08:58:59Z</time>
      </trkpt>
      <trkpt lat="47.12506" lon="5.83735">
        <ele>268</ele>
        <time>2024-08-05T08:59:00Z</time>
      </trkpt>
      <trkpt lat="47.12509" lon="5.83733">
        <ele>267.4</ele>
        <time>2024-08-05T08:59:01Z</time>
      </trkpt>
      <trkpt lat="47.12511" lon="5.8373">
        <ele>267.4</ele>
        <time>2024-08-05T08:59:02Z</time>
      </trkpt>
      <trkpt lat="47.12514" lon="5.83727">
        <ele>266.8</ele>
        <time>2024-08-05T08:59:03Z</time>
      </trkpt>
      <trkpt lat="47.12516" lon="5.83725">
        <ele>266.4</ele>
        <time>2024-08-05T08:59:04Z</time>
      </trkpt>
      <trkpt lat="47.12519" lon="5.83723">
        <ele>265.8</ele>
        <time>2024-08-05T08:59:05Z</time>
      </trkpt>
      <trkpt lat="47.12521" lon="5.83722">
        <ele>265.4</ele>
        <time>2024-08-05T08:59:06Z</time>
      </trkpt>
      <trkpt lat="47.12524" lon="5.83721">
        <ele>264.6</ele>
        <time>2024-08-05T08:59:07Z</time>
      </trkpt>
      <trkpt lat="47.12527" lon="5.83721">
        <ele>264</ele>
        <time>2024-08-05T08:59:08Z</time>
      </trkpt>
      <trkpt lat="47.12529" lon="5.83721">
        <ele>263.6</ele>
        <time>2024-08-05T08:59:09Z</time>
      </trkpt>
      <trkpt lat="47.12531" lon="5.83721">
        <ele>263.2</ele>
        <time>2024-08-05T08:59:10Z</time>
      </trkpt>
      <trkpt lat="47.12534" lon="5.8372">
        <ele>263.2</ele>
        <time>2024-08-05T08:59:11Z</time>
      </trkpt>
      <trkpt lat="47.12536" lon="5.83719">
        <ele>262.6</ele>
        <time>2024-08-05T08:59:12Z</time>
      </trkpt>
      <trkpt lat="47.12539" lon="5.83718">
        <ele>262.4</ele>
        <time>2024-08-05T08:59:13Z</time>
      </trkpt>
      <trkpt lat="47.12542" lon="5.83717">
        <ele>262.2</ele>
        <time>2024-08-05T08:59:14Z</time>
      </trkpt>
      <trkpt lat="47.12545" lon="5.83717">
        <ele>262</ele>
        <time>2024-08-05T08:59:15Z</time>
      </trkpt>
      <trkpt lat="47.12548" lon="5.83716">
        <ele>261.8</ele>
        <time>2024-08-05T08:59:16Z</time>
      </trkpt>
      <trkpt lat="47.12551" lon="5.83715">
        <ele>261.6</ele>
        <time>2024-08-05T08:59:17Z</time>
      </trkpt>
      <trkpt lat="47.12555" lon="5.83715">
        <ele>261.4</ele>
        <time>2024-08-05T08:59:18Z</time>
      </trkpt>
      <trkpt lat="47.12558" lon="5.83715">
        <ele>261.2</ele>
        <time>2024-08-05T08:59:19Z</time>
      </trkpt>
      <trkpt lat="47.1256" lon="5.83714">
        <ele>261.2</ele>
        <time>2024-08-05T08:59:20Z</time>
      </trkpt>
      <trkpt lat="47.12564" lon="5.83713">
        <ele>260.8</ele>
        <time>2024-08-05T08:59:21Z</time>
      </trkpt>
      <trkpt lat="47.12567" lon="5.83714">
        <ele>260.6</ele>
        <time>2024-08-05T08:59:22Z</time>
      </trkpt>
      <trkpt lat="47.12569" lon="5.83714">
        <ele>260.2</ele>
        <time>2024-08-05T08:59:23Z</time>
      </trkpt>
      <trkpt lat="47.12572" lon="5.83714">
        <ele>259.8</ele>
        <time>2024-08-05T08:59:24Z</time>
      </trkpt>
      <trkpt lat="47.12574" lon="5.83715">
        <ele>259.4</ele>
        <time>2024-08-05T08:59:25Z</time>
      </trkpt>
      <trkpt lat="47.12577" lon="5.83715">
        <ele>259.2</ele>
        <time>2024-08-05T08:59:26Z</time>
      </trkpt>
      <trkpt lat="47.12581" lon="5.83716">
        <ele>258.8</ele>
        <time>2024-08-05T08:59:27Z</time>
      </trkpt>
      <trkpt lat="47.12583" lon="5.83716">
        <ele>258.4</ele>
        <time>2024-08-05T08:59:28Z</time>
      </trkpt>
      <trkpt lat="47.12586" lon="5.83718">
        <ele>258.4</ele>
        <time>2024-08-05T08:59:29Z</time>
      </trkpt>
      <trkpt lat="47.12588" lon="5.83719">
        <ele>258.2</ele>
        <time>2024-08-05T08:59:30Z</time>
      </trkpt>
      <trkpt lat="47.1259" lon="5.8372">
        <ele>258</ele>
        <time>2024-08-05T08:59:31Z</time>
      </trkpt>
      <trkpt lat="47.12593" lon="5.83721">
        <ele>258</ele>
        <time>2024-08-05T08:59:32Z</time>
      </trkpt>
      <trkpt lat="47.12597" lon="5.83722">
        <ele>258</ele>
        <time>2024-08-05T08:59:33Z</time>
      </trkpt>
      <trkpt lat="47.126" lon="5.83723">
        <ele>257.8</ele>
        <time>2024-08-05T08:59:34Z</time>
      </trkpt>
      <trkpt lat="47.12603" lon="5.83724">
        <ele>257.8</ele>
        <time>2024-08-05T08:59:35Z</time>
      </trkpt>
      <trkpt lat="47.12605" lon="5.83725">
        <ele>257.8</ele>
        <time>2024-08-05T08:59:36Z</time>
      </trkpt>
      <trkpt lat="47.12609" lon="5.83726">
        <ele>257.8</ele>
        <time>2024-08-05T08:59:37Z</time>
      </trkpt>
      <trkpt lat="47.12611" lon="5.83728">
        <ele>257.8</ele>
        <time>2024-08-05T08:59:38Z</time>
      </trkpt>
      <trkpt lat="47.12615" lon="5.8373">
        <ele>257.6</ele>
        <time>2024-08-05T08:59:39Z</time>
      </trkpt>
      <trkpt lat="47.12617" lon="5.83731">
        <ele>257.6</ele>
        <time>2024-08-05T08:59:40Z</time>
      </trkpt>
      <trkpt lat="47.12619" lon="5.83733">
        <ele>257.6</ele>
        <time>2024-08-05T08:59:41Z</time>
      </trkpt>
      <trkpt lat="47.12621" lon="5.83734">
        <ele>257.6</ele>
        <time>2024-08-05T08:59:42Z</time>
      </trkpt>
      <trkpt lat="47.12623" lon="5.83735">
        <ele>257.6</ele>
        <time>2024-08-05T08:59:43Z</time>
      </trkpt>
      <trkpt lat="47.12625" lon="5.83736">
        <ele>257.8</ele>
        <time>2024-08-05T08:59:44Z</time>
      </trkpt>
      <trkpt lat="47.12628" lon="5.83737">
        <ele>257.6</ele>
        <time>2024-08-05T08:59:45Z</time>
      </trkpt>
      <trkpt lat="47.12629" lon="5.83738">
        <ele>257.6</ele>
        <time>2024-08-05T08:59:46Z</time>
      </trkpt>
      <trkpt lat="47.12632" lon="5.83739">
        <ele>257.6</ele>
        <time>2024-08-05T08:59:47Z</time>
      </trkpt>
      <trkpt lat="47.12633" lon="5.83739">
        <ele>257.6</ele>
        <time>2024-08-05T08:59:48Z</time>
      </trkpt>
      <trkpt lat="47.12634" lon="5.83739">
        <ele>257.4</ele>
        <time>2024-08-05T08:59:49Z</time>
      </trkpt>
      <trkpt lat="47.12636" lon="5.83739">
        <ele>257.4</ele>
        <time>2024-08-05T08:59:50Z</time>
      </trkpt>
      <trkpt lat="47.12637" lon="5.83739">
        <ele>257.2</ele>
        <time>2024-08-05T08:59:51Z</time>
      </trkpt>
      <trkpt lat="47.12639" lon="5.8374">
        <ele>257.4</ele>
        <time>2024-08-05T08:59:52Z</time>
      </trkpt>
      <trkpt lat="47.12641" lon="5.83741">
        <ele>257.4</ele>
        <time>2024-08-05T08:59:53Z</time>
      </trkpt>
      <trkpt lat="47.12643" lon="5.83742">
        <ele>257.2</ele>
        <time>2024-08-05T08:59:54Z</time>
      </trkpt>
      <trkpt lat="47.12646" lon="5.83743">
        <ele>257.2</ele>
        <time>2024-08-05T08:59:55Z</time>
      </trkpt>
      <trkpt lat="47.12648" lon="5.83744">
        <ele>257.2</ele>
        <time>2024-08-05T08:59:56Z</time>
      </trkpt>
      <trkpt lat="47.12651" lon="5.83746">
        <ele>257.2</ele>
        <time>2024-08-05T08:59:57Z</time>
      </trkpt>
      <trkpt lat="47.12653" lon="5.83747">
        <ele>257.2</ele>
        <time>2024-08-05T08:59:58Z</time>
      </trkpt>
      <trkpt lat="47.12656" lon="5.83748">
        <ele>257</ele>
        <time>2024-08-05T08:59:59Z</time>
      </trkpt>
      <trkpt lat="47.12658" lon="5.83749">
        <ele>257.2</ele>
        <time>2024-08-05T09:00:00Z</time>
      </trkpt>
      <trkpt lat="47.12661" lon="5.83751">
        <ele>257</ele>
        <time>2024-08-05T09:00:01Z</time>
      </trkpt>
      <trkpt lat="47.12663" lon="5.83753">
        <ele>257.2</ele>
        <time>2024-08-05T09:00:02Z</time>
      </trkpt>
      <trkpt lat="47.12664" lon="5.83755">
        <ele>257.2</ele>
        <time>2024-08-05T09:00:03Z</time>
      </trkpt>
      <trkpt lat="47.12666" lon="5.83757">
        <ele>257</ele>
        <time>2024-08-05T09:00:04Z</time>
      </trkpt>
      <trkpt lat="47.12667" lon="5.83758">
        <ele>257.2</ele>
        <time>2024-08-05T09:00:05Z</time>
      </trkpt>
      <trkpt lat="47.12669" lon="5.8376">
        <ele>257.2</ele>
        <time>2024-08-05T09:00:06Z</time>
      </trkpt>
      <trkpt lat="47.1267" lon="5.83762">
        <ele>257.2</ele>
        <time>2024-08-05T09:00:07Z</time>
      </trkpt>
      <trkpt lat="47.12672" lon="5.83763">
        <ele>257</ele>
        <time>2024-08-05T09:00:08Z</time>
      </trkpt>
      <trkpt lat="47.12673" lon="5.83764">
        <ele>257.2</ele>
        <time>2024-08-05T09:00:09Z</time>
      </trkpt>
      <trkpt lat="47.12675" lon="5.83766">
        <ele>257.2</ele>
        <time>2024-08-05T09:00:10Z</time>
      </trkpt>
      <trkpt lat="47.12677" lon="5.83768">
        <ele>257.4</ele>
        <time>2024-08-05T09:00:11Z</time>
      </trkpt>
      <trkpt lat="47.12678" lon="5.83769">
        <ele>257.6</ele>
        <time>2024-08-05T09:00:12Z</time>
      </trkpt>
      <trkpt lat="47.12681" lon="5.83771">
        <ele>257.8</ele>
        <time>2024-08-05T09:00:13Z</time>
      </trkpt>
      <trkpt lat="47.12683" lon="5.83774">
        <ele>258</ele>
        <time>2024-08-05T09:00:14Z</time>
      </trkpt>
      <trkpt lat="47.12686" lon="5.83777">
        <ele>258</ele>
        <time>2024-08-05T09:00:15Z</time>
      </trkpt>
      <trkpt lat="47.12689" lon="5.8378">
        <ele>257.8</ele>
        <time>2024-08-05T09:00:16Z</time>
      </trkpt>
      <trkpt lat="47.12691" lon="5.83783">
        <ele>257.8</ele>
        <time>2024-08-05T09:00:17Z</time>
      </trkpt>
      <trkpt lat="47.12694" lon="5.83786">
        <ele>258</ele>
        <time>2024-08-05T09:00:18Z</time>
      </trkpt>
      <trkpt lat="47.12696" lon="5.83789">
        <ele>258</ele>
        <time>2024-08-05T09:00:19Z</time>
      </trkpt>
      <trkpt lat="47.12698" lon="5.83791">
        <ele>258</ele>
        <time>2024-08-05T09:00:20Z</time>
      </trkpt>
      <trkpt lat="47.12701" lon="5.83795">
        <ele>258</ele>
        <time>2024-08-05T09:00:21Z</time>
      </trkpt>
      <trkpt lat="47.12703" lon="5.83799">
        <ele>258</ele>
        <time>2024-08-05T09:00:22Z</time>
      </trkpt>
      <trkpt lat="47.12704" lon="5.838">
        <ele>258</ele>
        <time>2024-08-05T09:00:23Z</time>
      </trkpt>
      <trkpt lat="47.12704" lon="5.838">
        <ele>258</ele>
        <time>2024-08-05T09:00:24Z</time>
      </trkpt>
      <trkpt lat="47.12705" lon="5.83801">
        <ele>258</ele>
        <time>2024-08-05T09:00:25Z</time>
      </trkpt>
      <trkpt lat="47.12706" lon="5.83802">
        <ele>258</ele>
        <time>2024-08-05T09:00:26Z</time>
      </trkpt>
      <trkpt lat="47.12707" lon="5.83803">
        <ele>258</ele>
        <time>2024-08-05T09:00:27Z</time>
      </trkpt>
      <trkpt lat="47.12708" lon="5.83804">
        <ele>257.8</ele>
        <time>2024-08-05T09:00:28Z</time>
      </trkpt>
      <trkpt lat="47.12709" lon="5.83806">
        <ele>257.8</ele>
        <time>2024-08-05T09:00:29Z</time>
      </trkpt>
      <trkpt lat="47.1271" lon="5.83808">
        <ele>258</ele>
        <time>2024-08-05T09:00:30Z</time>
      </trkpt>
      <trkpt lat="47.12712" lon="5.8381">
        <ele>257.8</ele>
        <time>2024-08-05T09:00:31Z</time>
      </trkpt>
      <trkpt lat="47.12713" lon="5.83812">
        <ele>257.8</ele>
        <time>2024-08-05T09:00:32Z</time>
      </trkpt>
      <trkpt lat="47.12714" lon="5.83813">
        <ele>258</ele>
        <time>2024-08-05T09:00:33Z</time>
      </trkpt>
      <trkpt lat="47.12715" lon="5.83814">
        <ele>257.8</ele>
        <time>2024-08-05T09:00:34Z</time>
      </trkpt>
      <trkpt lat="47.12716" lon="5.83815">
        <ele>258</ele>
        <time>2024-08-05T09:00:35Z</time>
      </trkpt>
      <trkpt lat="47.12717" lon="5.83816">
        <ele>257.8</ele>
        <time>2024-08-05T09:00:36Z</time>
      </trkpt>
      <trkpt lat="47.12717" lon="5.83817">
        <ele>258</ele>
        <time>2024-08-05T09:00:37Z</time>
      </trkpt>
      <trkpt lat="47.12717" lon="5.83818">
        <ele>258</ele>
        <time>2024-08-05T09:00:38Z</time>
      </trkpt>
      <trkpt lat="47.12717" lon="5.83818">
        <ele>258</ele>
        <time>2024-08-05T09:00:39Z</time>
      </trkpt>
      <trkpt lat="47.12717" lon="5.83818">
        <ele>258</ele>
        <time>2024-08-05T09:00:40Z</time>
      </trkpt>
      <trkpt lat="47.12718" lon="5.83818">
        <ele>258</ele>
        <time>2024-08-05T09:00:41Z</time>
      </trkpt>
      <trkpt lat="47.12718" lon="5.83818">
        <ele>258</ele>
        <time>2024-08-05T09:00:42Z</time>
      </trkpt>
      <trkpt lat="47.12718" lon="5.83818">
        <ele>258</ele>
        <time>2024-08-05T09:00:43Z</time>
      </trkpt>
      <trkpt lat="47.12718" lon="5.83819">
        <ele>258</ele>
        <time>2024-08-05T09:00:44Z</time>
      </trkpt>
      <trkpt lat="47.12719" lon="5.83819">
        <ele>258</ele>
        <time>2024-08-05T09:00:45Z</time>
      </trkpt>
      <trkpt lat="47.12719" lon="5.83819">
        <ele>258.2</ele>
        <time>2024-08-05T09:00:46Z</time>
      </trkpt>
      <trkpt lat="47.12719" lon="5.8382">
        <ele>258</ele>
        <time>2024-08-05T09:00:47Z</time>
      </trkpt>
      <trkpt lat="47.1272" lon="5.8382">
        <ele>258</ele>
        <time>2024-08-05T09:00:48Z</time>
      </trkpt>
      <trkpt lat="47.1272" lon="5.8382">
        <ele>258.2</ele>
        <time>2024-08-05T09:00:49Z</time>
      </trkpt>
      <trkpt lat="47.1272" lon="5.83821">
        <ele>258.2</ele>
        <time>2024-08-05T09:00:50Z</time>
      </trkpt>
      <trkpt lat="47.1272" lon="5.83821">
        <ele>258.2</ele>
        <time>2024-08-05T09:00:51Z</time>
      </trkpt>
      <trkpt lat="47.12721" lon="5.83821">
        <ele>258.2</ele>
        <time>2024-08-05T09:00:52Z</time>
      </trkpt>
      <trkpt lat="47.12721" lon="5.83821">
        <ele>258.2</ele>
        <time>2024-08-05T09:00:53Z</time>
      </trkpt>
      <trkpt lat="47.12722" lon="5.83822">
        <ele>258.2</ele>
        <time>2024-08-05T09:00:54Z</time>
      </trkpt>
      <trkpt lat="47.12723" lon="5.83823">
        <ele>258.2</ele>
        <time>2024-08-05T09:00:55Z</time>
      </trkpt>
      <trkpt lat="47.12725" lon="5.83824">
        <ele>258.2</ele>
        <time>2024-08-05T09:00:56Z</time>
      </trkpt>
      <trkpt lat="47.12726" lon="5.83825">
        <ele>258.2</ele>
        <time>2024-08-05T09:00:57Z</time>
      </trkpt>
      <trkpt lat="47.12727" lon="5.83827">
        <ele>258.4</ele>
        <time>2024-08-05T09:00:58Z</time>
      </trkpt>
      <trkpt lat="47.12729" lon="5.83829">
        <ele>258.4</ele>
        <time>2024-08-05T09:00:59Z</time>
      </trkpt>
      <trkpt lat="47.12731" lon="5.83832">
        <ele>258.4</ele>
        <time>2024-08-05T09:01:00Z</time>
      </trkpt>
      <trkpt lat="47.12732" lon="5.83834">
        <ele>258.4</ele>
        <time>2024-08-05T09:01:01Z</time>
      </trkpt>
      <trkpt lat="47.12734" lon="5.83838">
        <ele>258.4</ele>
        <time>2024-08-05T09:01:02Z</time>
      </trkpt>
      <trkpt lat="47.12735" lon="5.83841">
        <ele>258.4</ele>
        <time>2024-08-05T09:01:03Z</time>
      </trkpt>
      <trkpt lat="47.12736" lon="5.83845">
        <ele>258.4</ele>
        <time>2024-08-05T09:01:04Z</time>
      </trkpt>
      <trkpt lat="47.12737" lon="5.83849">
        <ele>258.4</ele>
        <time>2024-08-05T09:01:05Z</time>
      </trkpt>
      <trkpt lat="47.12738" lon="5.83853">
        <ele>258.4</ele>
        <time>2024-08-05T09:01:06Z</time>
      </trkpt>
      <trkpt lat="47.12738" lon="5.83856">
        <ele>258.4</ele>
        <time>2024-08-05T09:01:07Z</time>
      </trkpt>
      <trkpt lat="47.12739" lon="5.83859">
        <ele>258.6</ele>
        <time>2024-08-05T09:01:08Z</time>
      </trkpt>
      <trkpt lat="47.12739" lon="5.83862">
        <ele>258.4</ele>
        <time>2024-08-05T09:01:09Z</time>
      </trkpt>
      <trkpt lat="47.12739" lon="5.83864">
        <ele>258.6</ele>
        <time>2024-08-05T09:01:10Z</time>
      </trkpt>
      <trkpt lat="47.12739" lon="5.83867">
        <ele>258.6</ele>
        <time>2024-08-05T09:01:11Z</time>
      </trkpt>
      <trkpt lat="47.12739" lon="5.8387">
        <ele>258.6</ele>
        <time>2024-08-05T09:01:12Z</time>
      </trkpt>
      <trkpt lat="47.12739" lon="5.83874">
        <ele>258.6</ele>
        <time>2024-08-05T09:01:13Z</time>
      </trkpt>
      <trkpt lat="47.1274" lon="5.83877">
        <ele>258.8</ele>
        <time>2024-08-05T09:01:14Z</time>
      </trkpt>
      <trkpt lat="47.1274" lon="5.8388">
        <ele>258.8</ele>
        <time>2024-08-05T09:01:15Z</time>
      </trkpt>
      <trkpt lat="47.12741" lon="5.83884">
        <ele>258.8</ele>
        <time>2024-08-05T09:01:16Z</time>
      </trkpt>
      <trkpt lat="47.12741" lon="5.83887">
        <ele>258.8</ele>
        <time>2024-08-05T09:01:17Z</time>
      </trkpt>
      <trkpt lat="47.12743" lon="5.83891">
        <ele>259</ele>
        <time>2024-08-05T09:01:18Z</time>
      </trkpt>
      <trkpt lat="47.12744" lon="5.83895">
        <ele>259</ele>
        <time>2024-08-05T09:01:19Z</time>
      </trkpt>
      <trkpt lat="47.12745" lon="5.83899">
        <ele>259.2</ele>
        <time>2024-08-05T09:01:20Z</time>
      </trkpt>
      <trkpt lat="47.12745" lon="5.83902">
        <ele>259</ele>
        <time>2024-08-05T09:01:21Z</time>
      </trkpt>
      <trkpt lat="47.12746" lon="5.83905">
        <ele>259</ele>
        <time>2024-08-05T09:01:22Z</time>
      </trkpt>
      <trkpt lat="47.12746" lon="5.83909">
        <ele>259.2</ele>
        <time>2024-08-05T09:01:23Z</time>
      </trkpt>
      <trkpt lat="47.12747" lon="5.83912">
        <ele>259.2</ele>
        <time>2024-08-05T09:01:24Z</time>
      </trkpt>
      <trkpt lat="47.12748" lon="5.83916">
        <ele>259.2</ele>
        <time>2024-08-05T09:01:25Z</time>
      </trkpt>
      <trkpt lat="47.12749" lon="5.83919">
        <ele>259.2</ele>
        <time>2024-08-05T09:01:26Z</time>
      </trkpt>
      <trkpt lat="47.1275" lon="5.83922">
        <ele>259.4</ele>
        <time>2024-08-05T09:01:27Z</time>
      </trkpt>
      <trkpt lat="47.12751" lon="5.83925">
        <ele>259.2</ele>
        <time>2024-08-05T09:01:28Z</time>
      </trkpt>
      <trkpt lat="47.12752" lon="5.83929">
        <ele>259.4</ele>
        <time>2024-08-05T09:01:29Z</time>
      </trkpt>
      <trkpt lat="47.12753" lon="5.83932">
        <ele>259.2</ele>
        <time>2024-08-05T09:01:30Z</time>
      </trkpt>
      <trkpt lat="47.12754" lon="5.83936">
        <ele>259</ele>
        <time>2024-08-05T09:01:31Z</time>
      </trkpt>
      <trkpt lat="47.12754" lon="5.8394">
        <ele>259.2</ele>
        <time>2024-08-05T09:01:32Z</time>
      </trkpt>
      <trkpt lat="47.12755" lon="5.83943">
        <ele>259</ele>
        <time>2024-08-05T09:01:33Z</time>
      </trkpt>
      <trkpt lat="47.12755" lon="5.83946">
        <ele>259</ele>
        <time>2024-08-05T09:01:34Z</time>
      </trkpt>
      <trkpt lat="47.12756" lon="5.83949">
        <ele>259</ele>
        <time>2024-08-05T09:01:35Z</time>
      </trkpt>
      <trkpt lat="47.12757" lon="5.83953">
        <ele>259</ele>
        <time>2024-08-05T09:01:36Z</time>
      </trkpt>
      <trkpt lat="47.12758" lon="5.83958">
        <ele>258.8</ele>
        <time>2024-08-05T09:01:37Z</time>
      </trkpt>
      <trkpt lat="47.1276" lon="5.83965">
        <ele>258.8</ele>
        <time>2024-08-05T09:01:38Z</time>
      </trkpt>
      <trkpt lat="47.12763" lon="5.83971">
        <ele>258.8</ele>
        <time>2024-08-05T09:01:39Z</time>
      </trkpt>
      <trkpt lat="47.12765" lon="5.83977">
        <ele>258.6</ele>
        <time>2024-08-05T09:01:40Z</time>
      </trkpt>
      <trkpt lat="47.12768" lon="5.83983">
        <ele>258.8</ele>
        <time>2024-08-05T09:01:41Z</time>
      </trkpt>
      <trkpt lat="47.12771" lon="5.83989">
        <ele>258.6</ele>
        <time>2024-08-05T09:01:42Z</time>
      </trkpt>
      <trkpt lat="47.12774" lon="5.83994">
        <ele>258.2</ele>
        <time>2024-08-05T09:01:43Z</time>
      </trkpt>
      <trkpt lat="47.12776" lon="5.84">
        <ele>258.2</ele>
        <time>2024-08-05T09:01:44Z</time>
      </trkpt>
      <trkpt lat="47.12778" lon="5.84004">
        <ele>258</ele>
        <time>2024-08-05T09:01:45Z</time>
      </trkpt>
      <trkpt lat="47.1278" lon="5.84009">
        <ele>257.8</ele>
        <time>2024-08-05T09:01:46Z</time>
      </trkpt>
      <trkpt lat="47.12782" lon="5.84013">
        <ele>257.6</ele>
        <time>2024-08-05T09:01:47Z</time>
      </trkpt>
      <trkpt lat="47.12785" lon="5.84018">
        <ele>257.4</ele>
        <time>2024-08-05T09:01:48Z</time>
      </trkpt>
      <trkpt lat="47.12787" lon="5.84023">
        <ele>257.2</ele>
        <time>2024-08-05T09:01:49Z</time>
      </trkpt>
      <trkpt lat="47.12789" lon="5.84027">
        <ele>257.2</ele>
        <time>2024-08-05T09:01:50Z</time>
      </trkpt>
      <trkpt lat="47.12791" lon="5.84031">
        <ele>257</ele>
        <time>2024-08-05T09:01:51Z</time>
      </trkpt>
      <trkpt lat="47.12793" lon="5.84034">
        <ele>257</ele>
        <time>2024-08-05T09:01:52Z</time>
      </trkpt>
      <trkpt lat="47.12796" lon="5.84039">
        <ele>257</ele>
        <time>2024-08-05T09:01:53Z</time>
      </trkpt>
      <trkpt lat="47.12798" lon="5.84046">
        <ele>256.6</ele>
        <time>2024-08-05T09:01:54Z</time>
      </trkpt>
      <trkpt lat="47.12801" lon="5.84052">
        <ele>256.4</ele>
        <time>2024-08-05T09:01:55Z</time>
      </trkpt>
      <trkpt lat="47.12804" lon="5.84056">
        <ele>256</ele>
        <time>2024-08-05T09:01:56Z</time>
      </trkpt>
      <trkpt lat="47.12806" lon="5.84062">
        <ele>255.8</ele>
        <time>2024-08-05T09:01:57Z</time>
      </trkpt>
      <trkpt lat="47.1281" lon="5.84067">
        <ele>255.8</ele>
        <time>2024-08-05T09:01:58Z</time>
      </trkpt>
      <trkpt lat="47.12815" lon="5.84073">
        <ele>255.6</ele>
        <time>2024-08-05T09:01:59Z</time>
      </trkpt>
      <trkpt lat="47.1282" lon="5.84079">
        <ele>255.4</ele>
        <time>2024-08-05T09:02:00Z</time>
      </trkpt>
      <trkpt lat="47.12823" lon="5.84085">
        <ele>255.2</ele>
        <time>2024-08-05T09:02:01Z</time>
      </trkpt>
      <trkpt lat="47.12826" lon="5.84091">
        <ele>255.2</ele>
        <time>2024-08-05T09:02:02Z</time>
      </trkpt>
      <trkpt lat="47.1283" lon="5.84097">
        <ele>255.2</ele>
        <time>2024-08-05T09:02:03Z</time>
      </trkpt>
      <trkpt lat="47.12834" lon="5.84103">
        <ele>255</ele>
        <time>2024-08-05T09:02:04Z</time>
      </trkpt>
      <trkpt lat="47.12837" lon="5.84109">
        <ele>254.8</ele>
        <time>2024-08-05T09:02:05Z</time>
      </trkpt>
      <trkpt lat="47.1284" lon="5.84114">
        <ele>254.8</ele>
        <time>2024-08-05T09:02:06Z</time>
      </trkpt>
      <trkpt lat="47.12842" lon="5.84119">
        <ele>254.4</ele>
        <time>2024-08-05T09:02:07Z</time>
      </trkpt>
      <trkpt lat="47.12845" lon="5.84123">
        <ele>254</ele>
        <time>2024-08-05T09:02:08Z</time>
      </trkpt>
      <trkpt lat="47.12846" lon="5.84126">
        <ele>253.4</ele>
        <time>2024-08-05T09:02:09Z</time>
      </trkpt>
      <trkpt lat="47.1285" lon="5.84129">
        <ele>253</ele>
        <time>2024-08-05T09:02:10Z</time>
      </trkpt>
      <trkpt lat="47.12853" lon="5.84132">
        <ele>252.6</ele>
        <time>2024-08-05T09:02:11Z</time>
      </trkpt>
      <trkpt lat="47.12856" lon="5.84136">
        <ele>252.2</ele>
        <time>2024-08-05T09:02:12Z</time>
      </trkpt>
      <trkpt lat="47.12859" lon="5.84138">
        <ele>252</ele>
        <time>2024-08-05T09:02:13Z</time>
      </trkpt>
      <trkpt lat="47.12861" lon="5.84141">
        <ele>252</ele>
        <time>2024-08-05T09:02:14Z</time>
      </trkpt>
      <trkpt lat="47.12863" lon="5.84143">
        <ele>251.4</ele>
        <time>2024-08-05T09:02:15Z</time>
      </trkpt>
      <trkpt lat="47.12866" lon="5.84147">
        <ele>251</ele>
        <time>2024-08-05T09:02:16Z</time>
      </trkpt>
      <trkpt lat="47.12868" lon="5.8415">
        <ele>251</ele>
        <time>2024-08-05T09:02:17Z</time>
      </trkpt>
      <trkpt lat="47.1287" lon="5.84154">
        <ele>250.8</ele>
        <time>2024-08-05T09:02:18Z</time>
      </trkpt>
      <trkpt lat="47.12873" lon="5.84157">
        <ele>250.8</ele>
        <time>2024-08-05T09:02:19Z</time>
      </trkpt>
      <trkpt lat="47.12877" lon="5.84162">
        <ele>250.6</ele>
        <time>2024-08-05T09:02:20Z</time>
      </trkpt>
      <trkpt lat="47.12879" lon="5.84165">
        <ele>250.4</ele>
        <time>2024-08-05T09:02:21Z</time>
      </trkpt>
      <trkpt lat="47.12883" lon="5.8417">
        <ele>250.2</ele>
        <time>2024-08-05T09:02:22Z</time>
      </trkpt>
      <trkpt lat="47.12885" lon="5.84174">
        <ele>250.2</ele>
        <time>2024-08-05T09:02:23Z</time>
      </trkpt>
      <trkpt lat="47.12888" lon="5.84178">
        <ele>250</ele>
        <time>2024-08-05T09:02:24Z</time>
      </trkpt>
      <trkpt lat="47.12891" lon="5.84182">
        <ele>249.8</ele>
        <time>2024-08-05T09:02:25Z</time>
      </trkpt>
      <trkpt lat="47.12893" lon="5.84185">
        <ele>249.6</ele>
        <time>2024-08-05T09:02:26Z</time>
      </trkpt>
      <trkpt lat="47.12897" lon="5.84189">
        <ele>249.4</ele>
        <time>2024-08-05T09:02:27Z</time>
      </trkpt>
      <trkpt lat="47.129" lon="5.84193">
        <ele>249.4</ele>
        <time>2024-08-05T09:02:28Z</time>
      </trkpt>
      <trkpt lat="47.12903" lon="5.84197">
        <ele>249.2</ele>
        <time>2024-08-05T09:02:29Z</time>
      </trkpt>
      <trkpt lat="47.12907" lon="5.84201">
        <ele>249</ele>
        <time>2024-08-05T09:02:30Z</time>
      </trkpt>
      <trkpt lat="47.12911" lon="5.84205">
        <ele>248.8</ele>
        <time>2024-08-05T09:02:31Z</time>
      </trkpt>
      <trkpt lat="47.12913" lon="5.84209">
        <ele>248.8</ele>
        <time>2024-08-05T09:02:32Z</time>
      </trkpt>
      <trkpt lat="47.12917" lon="5.84213">
        <ele>248.8</ele>
        <time>2024-08-05T09:02:33Z</time>
      </trkpt>
      <trkpt lat="47.12919" lon="5.84216">
        <ele>248.6</ele>
        <time>2024-08-05T09:02:34Z</time>
      </trkpt>
      <trkpt lat="47.12922" lon="5.84219">
        <ele>248.8</ele>
        <time>2024-08-05T09:02:35Z</time>
      </trkpt>
      <trkpt lat="47.12925" lon="5.84222">
        <ele>248.6</ele>
        <time>2024-08-05T09:02:36Z</time>
      </trkpt>
      <trkpt lat="47.12928" lon="5.84225">
        <ele>248.4</ele>
        <time>2024-08-05T09:02:37Z</time>
      </trkpt>
      <trkpt lat="47.1293" lon="5.84227">
        <ele>248.4</ele>
        <time>2024-08-05T09:02:38Z</time>
      </trkpt>
      <trkpt lat="47.12933" lon="5.84229">
        <ele>248.4</ele>
        <time>2024-08-05T09:02:39Z</time>
      </trkpt>
      <trkpt lat="47.12935" lon="5.84231">
        <ele>248.2</ele>
        <time>2024-08-05T09:02:40Z</time>
      </trkpt>
      <trkpt lat="47.12937" lon="5.84233">
        <ele>248.2</ele>
        <time>2024-08-05T09:02:41Z</time>
      </trkpt>
      <trkpt lat="47.12938" lon="5.84235">
        <ele>248.2</ele>
        <time>2024-08-05T09:02:42Z</time>
      </trkpt>
      <trkpt lat="47.1294" lon="5.84236">
        <ele>248.2</ele>
        <time>2024-08-05T09:02:43Z</time>
      </trkpt>
      <trkpt lat="47.12941" lon="5.84238">
        <ele>248.2</ele>
        <time>2024-08-05T09:02:44Z</time>
      </trkpt>
      <trkpt lat="47.12942" lon="5.84238">
        <ele>248</ele>
        <time>2024-08-05T09:02:45Z</time>
      </trkpt>
      <trkpt lat="47.12942" lon="5.84239">
        <ele>248</ele>
        <time>2024-08-05T09:02:46Z</time>
      </trkpt>
      <trkpt lat="47.12942" lon="5.8424">
        <ele>248</ele>
        <time>2024-08-05T09:02:47Z</time>
      </trkpt>
      <trkpt lat="47.12943" lon="5.84241">
        <ele>248</ele>
        <time>2024-08-05T09:02:48Z</time>
      </trkpt>
      <trkpt lat="47.12943" lon="5.84241">
        <ele>248</ele>
        <time>2024-08-05T09:02:49Z</time>
      </trkpt>
      <trkpt lat="47.12943" lon="5.84242">
        <ele>248.2</ele>
        <time>2024-08-05T09:02:50Z</time>
      </trkpt>
      <trkpt lat="47.12944" lon="5.84242">
        <ele>248.2</ele>
        <time>2024-08-05T09:02:51Z</time>
      </trkpt>
      <trkpt lat="47.12945" lon="5.84242">
        <ele>248</ele>
        <time>2024-08-05T09:02:52Z</time>
      </trkpt>
      <trkpt lat="47.12947" lon="5.84242">
        <ele>248.2</ele>
        <time>2024-08-05T09:02:53Z</time>
      </trkpt>
      <trkpt lat="47.12947" lon="5.84243">
        <ele>248</ele>
        <time>2024-08-05T09:02:54Z</time>
      </trkpt>
      <trkpt lat="47.12948" lon="5.84243">
        <ele>248</ele>
        <time>2024-08-05T09:02:55Z</time>
      </trkpt>
      <trkpt lat="47.12949" lon="5.84243">
        <ele>248</ele>
        <time>2024-08-05T09:02:56Z</time>
      </trkpt>
      <trkpt lat="47.12949" lon="5.84243">
        <ele>248</ele>
        <time>2024-08-05T09:02:57Z</time>
      </trkpt>
      <trkpt lat="47.1295" lon="5.84244">
        <ele>248</ele>
        <time>2024-08-05T09:02:58Z</time>
      </trkpt>
      <trkpt lat="47.12951" lon="5.84244">
        <ele>248</ele>
        <time>2024-08-05T09:02:59Z</time>
      </trkpt>
      <trkpt lat="47.12951" lon="5.84246">
        <ele>248</ele>
        <time>2024-08-05T09:03:00Z</time>
      </trkpt>
      <trkpt lat="47.12952" lon="5.84247">
        <ele>248</ele>
        <time>2024-08-05T09:03:01Z</time>
      </trkpt>
      <trkpt lat="47.12952" lon="5.84248">
        <ele>248</ele>
        <time>2024-08-05T09:03:02Z</time>
      </trkpt>
      <trkpt lat="47.12953" lon="5.84248">
        <ele>247.8</ele>
        <time>2024-08-05T09:03:03Z</time>
      </trkpt>
      <trkpt lat="47.12953" lon="5.84249">
        <ele>247.8</ele>
        <time>2024-08-05T09:03:04Z</time>
      </trkpt>
      <trkpt lat="47.12954" lon="5.84251">
        <ele>247.8</ele>
        <time>2024-08-05T09:03:05Z</time>
      </trkpt>
      <trkpt lat="47.12955" lon="5.84252">
        <ele>247.8</ele>
        <time>2024-08-05T09:03:06Z</time>
      </trkpt>
      <trkpt lat="47.12956" lon="5.84253">
        <ele>248</ele>
        <time>2024-08-05T09:03:07Z</time>
      </trkpt>
      <trkpt lat="47.12958" lon="5.84255">
        <ele>247.8</ele>
        <time>2024-08-05T09:03:08Z</time>
      </trkpt>
      <trkpt lat="47.12959" lon="5.84256">
        <ele>247.8</ele>
        <time>2024-08-05T09:03:09Z</time>
      </trkpt>
      <trkpt lat="47.1296" lon="5.84257">
        <ele>247.8</ele>
        <time>2024-08-05T09:03:10Z</time>
      </trkpt>
      <trkpt lat="47.12961" lon="5.84258">
        <ele>247.8</ele>
        <time>2024-08-05T09:03:11Z</time>
      </trkpt>
      <trkpt lat="47.12962" lon="5.84259">
        <ele>248</ele>
        <time>2024-08-05T09:03:12Z</time>
      </trkpt>
      <trkpt lat="47.12962" lon="5.8426">
        <ele>248</ele>
        <time>2024-08-05T09:03:13Z</time>
      </trkpt>
      <trkpt lat="47.12964" lon="5.84262">
        <ele>248</ele>
        <time>2024-08-05T09:03:14Z</time>
      </trkpt>
      <trkpt lat="47.12965" lon="5.84263">
        <ele>248</ele>
        <time>2024-08-05T09:03:15Z</time>
      </trkpt>
      <trkpt lat="47.12966" lon="5.84265">
        <ele>248.2</ele>
        <time>2024-08-05T09:03:16Z</time>
      </trkpt>
      <trkpt lat="47.12967" lon="5.84268">
        <ele>248.2</ele>
        <time>2024-08-05T09:03:17Z</time>
      </trkpt>
      <trkpt lat="47.12969" lon="5.84269">
        <ele>248.2</ele>
        <time>2024-08-05T09:03:18Z</time>
      </trkpt>
      <trkpt lat="47.1297" lon="5.84271">
        <ele>248</ele>
        <time>2024-08-05T09:03:19Z</time>
      </trkpt>
      <trkpt lat="47.12972" lon="5.84274">
        <ele>248.2</ele>
        <time>2024-08-05T09:03:20Z</time>
      </trkpt>
      <trkpt lat="47.12973" lon="5.84278">
        <ele>248</ele>
        <time>2024-08-05T09:03:21Z</time>
      </trkpt>
      <trkpt lat="47.12975" lon="5.84281">
        <ele>248.2</ele>
        <time>2024-08-05T09:03:22Z</time>
      </trkpt>
      <trkpt lat="47.12977" lon="5.84285">
        <ele>248.2</ele>
        <time>2024-08-05T09:03:23Z</time>
      </trkpt>
      <trkpt lat="47.12979" lon="5.84289">
        <ele>248.4</ele>
        <time>2024-08-05T09:03:24Z</time>
      </trkpt>
      <trkpt lat="47.12981" lon="5.84293">
        <ele>248.4</ele>
        <time>2024-08-05T09:03:25Z</time>
      </trkpt>
      <trkpt lat="47.12983" lon="5.84297">
        <ele>248.2</ele>
        <time>2024-08-05T09:03:26Z</time>
      </trkpt>
      <trkpt lat="47.12985" lon="5.843">
        <ele>248.2</ele>
        <time>2024-08-05T09:03:27Z</time>
      </trkpt>
      <trkpt lat="47.12987" lon="5.84303">
        <ele>248.2</ele>
        <time>2024-08-05T09:03:28Z</time>
      </trkpt>
      <trkpt lat="47.12989" lon="5.84307">
        <ele>248.4</ele>
        <time>2024-08-05T09:03:29Z</time>
      </trkpt>
      <trkpt lat="47.12991" lon="5.8431">
        <ele>248.2</ele>
        <time>2024-08-05T09:03:30Z</time>
      </trkpt>
      <trkpt lat="47.12992" lon="5.84313">
        <ele>248.4</ele>
        <time>2024-08-05T09:03:31Z</time>
      </trkpt>
      <trkpt lat="47.12993" lon="5.84317">
        <ele>248.4</ele>
        <time>2024-08-05T09:03:32Z</time>
      </trkpt>
      <trkpt lat="47.12994" lon="5.8432">
        <ele>248.4</ele>
        <time>2024-08-05T09:03:33Z</time>
      </trkpt>
      <trkpt lat="47.12995" lon="5.84324">
        <ele>248.4</ele>
        <time>2024-08-05T09:03:34Z</time>
      </trkpt>
      <trkpt lat="47.12996" lon="5.84328">
        <ele>248.4</ele>
        <time>2024-08-05T09:03:35Z</time>
      </trkpt>
      <trkpt lat="47.12998" lon="5.84332">
        <ele>248.2</ele>
        <time>2024-08-05T09:03:36Z</time>
      </trkpt>
      <trkpt lat="47.12999" lon="5.84337">
        <ele>248.2</ele>
        <time>2024-08-05T09:03:37Z</time>
      </trkpt>
      <trkpt lat="47.13" lon="5.84341">
        <ele>248.4</ele>
        <time>2024-08-05T09:03:38Z</time>
      </trkpt>
      <trkpt lat="47.13" lon="5.84345">
        <ele>248.2</ele>
        <time>2024-08-05T09:03:39Z</time>
      </trkpt>
      <trkpt lat="47.13001" lon="5.84348">
        <ele>248.4</ele>
        <time>2024-08-05T09:03:40Z</time>
      </trkpt>
      <trkpt lat="47.13002" lon="5.84352">
        <ele>248.2</ele>
        <time>2024-08-05T09:03:41Z</time>
      </trkpt>
      <trkpt lat="47.13002" lon="5.84355">
        <ele>248.2</ele>
        <time>2024-08-05T09:03:42Z</time>
      </trkpt>
      <trkpt lat="47.13003" lon="5.84359">
        <ele>248.4</ele>
        <time>2024-08-05T09:03:43Z</time>
      </trkpt>
      <trkpt lat="47.13003" lon="5.84363">
        <ele>248.2</ele>
        <time>2024-08-05T09:03:44Z</time>
      </trkpt>
      <trkpt lat="47.13003" lon="5.84367">
        <ele>248.2</ele>
        <time>2024-08-05T09:03:45Z</time>
      </trkpt>
      <trkpt lat="47.13003" lon="5.8437">
        <ele>248.2</ele>
        <time>2024-08-05T09:03:46Z</time>
      </trkpt>
      <trkpt lat="47.13003" lon="5.84373">
        <ele>248.2</ele>
        <time>2024-08-05T09:03:47Z</time>
      </trkpt>
      <trkpt lat="47.13003" lon="5.84376">
        <ele>248.2</ele>
        <time>2024-08-05T09:03:48Z</time>
      </trkpt>
      <trkpt lat="47.13003" lon="5.8438">
        <ele>248.4</ele>
        <time>2024-08-05T09:03:49Z</time>
      </trkpt>
      <trkpt lat="47.13003" lon="5.84383">
        <ele>248.2</ele>
        <time>2024-08-05T09:03:50Z</time>
      </trkpt>
      <trkpt lat="47.13002" lon="5.84386">
        <ele>248.2</ele>
        <time>2024-08-05T09:03:51Z</time>
      </trkpt>
      <trkpt lat="47.13001" lon="5.8439">
        <ele>248.4</ele>
        <time>2024-08-05T09:03:52Z</time>
      </trkpt>
      <trkpt lat="47.13001" lon="5.84394">
        <ele>248.2</ele>
        <time>2024-08-05T09:03:53Z</time>
      </trkpt>
      <trkpt lat="47.13" lon="5.84397">
        <ele>248.2</ele>
        <time>2024-08-05T09:03:54Z</time>
      </trkpt>
      <trkpt lat="47.12999" lon="5.844">
        <ele>248.2</ele>
        <time>2024-08-05T09:03:55Z</time>
      </trkpt>
      <trkpt lat="47.12999" lon="5.84403">
        <ele>248.2</ele>
        <time>2024-08-05T09:03:56Z</time>
      </trkpt>
      <trkpt lat="47.12999" lon="5.84406">
        <ele>248</ele>
        <time>2024-08-05T09:03:57Z</time>
      </trkpt>
      <trkpt lat="47.12998" lon="5.84409">
        <ele>248</ele>
        <time>2024-08-05T09:03:58Z</time>
      </trkpt>
      <trkpt lat="47.12997" lon="5.84411">
        <ele>248</ele>
        <time>2024-08-05T09:03:59Z</time>
      </trkpt>
      <trkpt lat="47.12996" lon="5.84414">
        <ele>248.2</ele>
        <time>2024-08-05T09:04:00Z</time>
      </trkpt>
      <trkpt lat="47.12994" lon="5.84416">
        <ele>248</ele>
        <time>2024-08-05T09:04:01Z</time>
      </trkpt>
      <trkpt lat="47.12993" lon="5.84419">
        <ele>248</ele>
        <time>2024-08-05T09:04:02Z</time>
      </trkpt>
      <trkpt lat="47.12992" lon="5.84422">
        <ele>248</ele>
        <time>2024-08-05T09:04:03Z</time>
      </trkpt>
      <trkpt lat="47.12991" lon="5.84425">
        <ele>248</ele>
        <time>2024-08-05T09:04:04Z</time>
      </trkpt>
      <trkpt lat="47.1299" lon="5.84429">
        <ele>247.8</ele>
        <time>2024-08-05T09:04:05Z</time>
      </trkpt>
      <trkpt lat="47.12988" lon="5.84432">
        <ele>247.6</ele>
        <time>2024-08-05T09:04:06Z</time>
      </trkpt>
      <trkpt lat="47.12987" lon="5.84436">
        <ele>247.4</ele>
        <time>2024-08-05T09:04:07Z</time>
      </trkpt>
      <trkpt lat="47.12986" lon="5.8444">
        <ele>247.4</ele>
        <time>2024-08-05T09:04:08Z</time>
      </trkpt>
      <trkpt lat="47.12985" lon="5.84442">
        <ele>247.4</ele>
        <time>2024-08-05T09:04:09Z</time>
      </trkpt>
      <trkpt lat="47.12984" lon="5.84445">
        <ele>247.4</ele>
        <time>2024-08-05T09:04:10Z</time>
      </trkpt>
      <trkpt lat="47.12983" lon="5.84448">
        <ele>247.4</ele>
        <time>2024-08-05T09:04:11Z</time>
      </trkpt>
      <trkpt lat="47.12982" lon="5.84451">
        <ele>247.2</ele>
        <time>2024-08-05T09:04:12Z</time>
      </trkpt>
      <trkpt lat="47.12981" lon="5.84454">
        <ele>247</ele>
        <time>2024-08-05T09:04:13Z</time>
      </trkpt>
      <trkpt lat="47.1298" lon="5.84457">
        <ele>247</ele>
        <time>2024-08-05T09:04:14Z</time>
      </trkpt>
      <trkpt lat="47.1298" lon="5.8446">
        <ele>246.8</ele>
        <time>2024-08-05T09:04:15Z</time>
      </trkpt>
      <trkpt lat="47.12979" lon="5.84463">
        <ele>246.8</ele>
        <time>2024-08-05T09:04:16Z</time>
      </trkpt>
      <trkpt lat="47.12978" lon="5.84465">
        <ele>246.6</ele>
        <time>2024-08-05T09:04:17Z</time>
      </trkpt>
      <trkpt lat="47.12977" lon="5.84469">
        <ele>246.6</ele>
        <time>2024-08-05T09:04:18Z</time>
      </trkpt>
      <trkpt lat="47.12976" lon="5.84472">
        <ele>246.6</ele>
        <time>2024-08-05T09:04:19Z</time>
      </trkpt>
      <trkpt lat="47.12976" lon="5.84476">
        <ele>246.4</ele>
        <time>2024-08-05T09:04:20Z</time>
      </trkpt>
      <trkpt lat="47.12975" lon="5.84479">
        <ele>246.4</ele>
        <time>2024-08-05T09:04:21Z</time>
      </trkpt>
      <trkpt lat="47.12975" lon="5.84482">
        <ele>246.2</ele>
        <time>2024-08-05T09:04:22Z</time>
      </trkpt>
      <trkpt lat="47.12974" lon="5.84485">
        <ele>246.2</ele>
        <time>2024-08-05T09:04:23Z</time>
      </trkpt>
      <trkpt lat="47.12973" lon="5.84488">
        <ele>246.2</ele>
        <time>2024-08-05T09:04:24Z</time>
      </trkpt>
      <trkpt lat="47.12972" lon="5.8449">
        <ele>246</ele>
        <time>2024-08-05T09:04:25Z</time>
      </trkpt>
      <trkpt lat="47.12972" lon="5.84492">
        <ele>246</ele>
        <time>2024-08-05T09:04:26Z</time>
      </trkpt>
      <trkpt lat="47.12971" lon="5.84495">
        <ele>245.8</ele>
        <time>2024-08-05T09:04:27Z</time>
      </trkpt>
      <trkpt lat="47.1297" lon="5.84496">
        <ele>245.6</ele>
        <time>2024-08-05T09:04:28Z</time>
      </trkpt>
      <trkpt lat="47.1297" lon="5.84498">
        <ele>245.6</ele>
        <time>2024-08-05T09:04:29Z</time>
      </trkpt>
      <trkpt lat="47.1297" lon="5.84501">
        <ele>245.6</ele>
        <time>2024-08-05T09:04:30Z</time>
      </trkpt>
      <trkpt lat="47.1297" lon="5.84504">
        <ele>245.4</ele>
        <time>2024-08-05T09:04:31Z</time>
      </trkpt>
      <trkpt lat="47.12969" lon="5.84507">
        <ele>245.2</ele>
        <time>2024-08-05T09:04:32Z</time>
      </trkpt>
      <trkpt lat="47.12969" lon="5.8451">
        <ele>245</ele>
        <time>2024-08-05T09:04:33Z</time>
      </trkpt>
      <trkpt lat="47.12968" lon="5.84512">
        <ele>244.8</ele>
        <time>2024-08-05T09:04:34Z</time>
      </trkpt>
      <trkpt lat="47.12968" lon="5.84514">
        <ele>244.8</ele>
        <time>2024-08-05T09:04:35Z</time>
      </trkpt>
      <trkpt lat="47.12968" lon="5.84516">
        <ele>244.6</ele>
        <time>2024-08-05T09:04:36Z</time>
      </trkpt>
      <trkpt lat="47.12967" lon="5.84519">
        <ele>244.6</ele>
        <time>2024-08-05T09:04:37Z</time>
      </trkpt>
      <trkpt lat="47.12966" lon="5.84521">
        <ele>244.6</ele>
        <time>2024-08-05T09:04:38Z</time>
      </trkpt>
      <trkpt lat="47.12967" lon="5.84523">
        <ele>244.6</ele>
        <time>2024-08-05T09:04:39Z</time>
      </trkpt>
      <trkpt lat="47.12968" lon="5.84524">
        <ele>244.6</ele>
        <time>2024-08-05T09:04:40Z</time>
      </trkpt>
      <trkpt lat="47.12967" lon="5.84525">
        <ele>244.6</ele>
        <time>2024-08-05T09:04:41Z</time>
      </trkpt>
      <trkpt lat="47.12968" lon="5.84527">
        <ele>244.6</ele>
        <time>2024-08-05T09:04:42Z</time>
      </trkpt>
      <trkpt lat="47.12968" lon="5.84528">
        <ele>244.4</ele>
        <time>2024-08-05T09:04:43Z</time>
      </trkpt>
      <trkpt lat="47.12968" lon="5.84529">
        <ele>244.6</ele>
        <time>2024-08-05T09:04:44Z</time>
      </trkpt>
      <trkpt lat="47.12967" lon="5.84531">
        <ele>244.6</ele>
        <time>2024-08-05T09:04:45Z</time>
      </trkpt>
      <trkpt lat="47.12967" lon="5.84532">
        <ele>244.6</ele>
        <time>2024-08-05T09:04:46Z</time>
      </trkpt>
      <trkpt lat="47.12967" lon="5.84532">
        <ele>244.6</ele>
        <time>2024-08-05T09:04:47Z</time>
      </trkpt>
      <trkpt lat="47.12966" lon="5.84534">
        <ele>244.6</ele>
        <time>2024-08-05T09:04:48Z</time>
      </trkpt>
      <trkpt lat="47.12966" lon="5.84536">
        <ele>244.6</ele>
        <time>2024-08-05T09:04:49Z</time>
      </trkpt>
      <trkpt lat="47.12966" lon="5.84538">
        <ele>244.8</ele>
        <time>2024-08-05T09:04:50Z</time>
      </trkpt>
      <trkpt lat="47.12965" lon="5.8454">
        <ele>244.8</ele>
        <time>2024-08-05T09:04:51Z</time>
      </trkpt>
      <trkpt lat="47.12964" lon="5.84542">
        <ele>244.8</ele>
        <time>2024-08-05T09:04:52Z</time>
      </trkpt>
      <trkpt lat="47.12964" lon="5.84547">
        <ele>245</ele>
        <time>2024-08-05T09:04:53Z</time>
      </trkpt>
      <trkpt lat="47.12962" lon="5.8455">
        <ele>245</ele>
        <time>2024-08-05T09:04:54Z</time>
      </trkpt>
      <trkpt lat="47.12962" lon="5.84553">
        <ele>245.2</ele>
        <time>2024-08-05T09:04:55Z</time>
      </trkpt>
      <trkpt lat="47.12961" lon="5.84555">
        <ele>245.2</ele>
        <time>2024-08-05T09:04:56Z</time>
      </trkpt>
      <trkpt lat="47.1296" lon="5.84556">
        <ele>245.2</ele>
        <time>2024-08-05T09:04:57Z</time>
      </trkpt>
      <trkpt lat="47.12959" lon="5.84559">
        <ele>245.4</ele>
        <time>2024-08-05T09:04:58Z</time>
      </trkpt>
      <trkpt lat="47.12958" lon="5.84561">
        <ele>245.6</ele>
        <time>2024-08-05T09:04:59Z</time>
      </trkpt>
      <trkpt lat="47.12957" lon="5.84564">
        <ele>245.6</ele>
        <time>2024-08-05T09:05:00Z</time>
      </trkpt>
      <trkpt lat="47.12956" lon="5.84565">
        <ele>245.8</ele>
        <time>2024-08-05T09:05:01Z</time>
      </trkpt>
      <trkpt lat="47.12955" lon="5.84568">
        <ele>245.8</ele>
        <time>2024-08-05T09:05:02Z</time>
      </trkpt>
      <trkpt lat="47.12954" lon="5.8457">
        <ele>246</ele>
        <time>2024-08-05T09:05:03Z</time>
      </trkpt>
      <trkpt lat="47.12952" lon="5.84572">
        <ele>246.2</ele>
        <time>2024-08-05T09:05:04Z</time>
      </trkpt>
      <trkpt lat="47.12951" lon="5.84575">
        <ele>246.4</ele>
        <time>2024-08-05T09:05:05Z</time>
      </trkpt>
      <trkpt lat="47.1295" lon="5.84577">
        <ele>246.6</ele>
        <time>2024-08-05T09:05:06Z</time>
      </trkpt>
      <trkpt lat="47.12948" lon="5.84579">
        <ele>246.6</ele>
        <time>2024-08-05T09:05:07Z</time>
      </trkpt>
      <trkpt lat="47.12947" lon="5.84581">
        <ele>246.6</ele>
        <time>2024-08-05T09:05:08Z</time>
      </trkpt>
      <trkpt lat="47.12946" lon="5.84584">
        <ele>246.8</ele>
        <time>2024-08-05T09:05:09Z</time>
      </trkpt>
      <trkpt lat="47.12945" lon="5.84586">
        <ele>246.6</ele>
        <time>2024-08-05T09:05:10Z</time>
      </trkpt>
      <trkpt lat="47.12945" lon="5.84589">
        <ele>246.6</ele>
        <time>2024-08-05T09:05:11Z</time>
      </trkpt>
      <trkpt lat="47.12944" lon="5.84591">
        <ele>246.8</ele>
        <time>2024-08-05T09:05:12Z</time>
      </trkpt>
      <trkpt lat="47.12942" lon="5.84593">
        <ele>246.6</ele>
        <time>2024-08-05T09:05:13Z</time>
      </trkpt>
      <trkpt lat="47.1294" lon="5.84596">
        <ele>246.8</ele>
        <time>2024-08-05T09:05:14Z</time>
      </trkpt>
      <trkpt lat="47.12939" lon="5.84599">
        <ele>246.6</ele>
        <time>2024-08-05T09:05:15Z</time>
      </trkpt>
      <trkpt lat="47.12938" lon="5.84602">
        <ele>246.8</ele>
        <time>2024-08-05T09:05:16Z</time>
      </trkpt>
      <trkpt lat="47.12937" lon="5.84605">
        <ele>246.8</ele>
        <time>2024-08-05T09:05:17Z</time>
      </trkpt>
      <trkpt lat="47.12936" lon="5.84609">
        <ele>246.8</ele>
        <time>2024-08-05T09:05:18Z</time>
      </trkpt>
      <trkpt lat="47.12936" lon="5.84615">
        <ele>246.4</ele>
        <time>2024-08-05T09:05:19Z</time>
      </trkpt>
      <trkpt lat="47.12936" lon="5.84618">
        <ele>246.4</ele>
        <time>2024-08-05T09:05:20Z</time>
      </trkpt>
      <trkpt lat="47.12936" lon="5.84622">
        <ele>246.2</ele>
        <time>2024-08-05T09:05:21Z</time>
      </trkpt>
      <trkpt lat="47.12935" lon="5.84626">
        <ele>246.2</ele>
        <time>2024-08-05T09:05:22Z</time>
      </trkpt>
      <trkpt lat="47.12935" lon="5.84631">
        <ele>246.2</ele>
        <time>2024-08-05T09:05:23Z</time>
      </trkpt>
      <trkpt lat="47.12934" lon="5.84636">
        <ele>246.2</ele>
        <time>2024-08-05T09:05:24Z</time>
      </trkpt>
      <trkpt lat="47.12934" lon="5.84641">
        <ele>245.8</ele>
        <time>2024-08-05T09:05:25Z</time>
      </trkpt>
      <trkpt lat="47.12934" lon="5.84647">
        <ele>245.8</ele>
        <time>2024-08-05T09:05:26Z</time>
      </trkpt>
      <trkpt lat="47.12933" lon="5.84651">
        <ele>245.6</ele>
        <time>2024-08-05T09:05:27Z</time>
      </trkpt>
      <trkpt lat="47.12933" lon="5.84654">
        <ele>245.6</ele>
        <time>2024-08-05T09:05:28Z</time>
      </trkpt>
      <trkpt lat="47.12933" lon="5.84658">
        <ele>245.2</ele>
        <time>2024-08-05T09:05:29Z</time>
      </trkpt>
      <trkpt lat="47.12932" lon="5.84663">
        <ele>245</ele>
        <time>2024-08-05T09:05:30Z</time>
      </trkpt>
      <trkpt lat="47.12932" lon="5.84667">
        <ele>244.6</ele>
        <time>2024-08-05T09:05:31Z</time>
      </trkpt>
      <trkpt lat="47.12932" lon="5.84674">
        <ele>244.4</ele>
        <time>2024-08-05T09:05:32Z</time>
      </trkpt>
      <trkpt lat="47.12933" lon="5.84679">
        <ele>244.2</ele>
        <time>2024-08-05T09:05:33Z</time>
      </trkpt>
      <trkpt lat="47.12932" lon="5.84683">
        <ele>243.8</ele>
        <time>2024-08-05T09:05:34Z</time>
      </trkpt>
      <trkpt lat="47.12931" lon="5.84688">
        <ele>243.8</ele>
        <time>2024-08-05T09:05:35Z</time>
      </trkpt>
      <trkpt lat="47.12931" lon="5.84693">
        <ele>243.4</ele>
        <time>2024-08-05T09:05:36Z</time>
      </trkpt>
      <trkpt lat="47.1293" lon="5.84696">
        <ele>243</ele>
        <time>2024-08-05T09:05:37Z</time>
      </trkpt>
      <trkpt lat="47.12929" lon="5.847">
        <ele>243</ele>
        <time>2024-08-05T09:05:38Z</time>
      </trkpt>
      <trkpt lat="47.12928" lon="5.84703">
        <ele>243</ele>
        <time>2024-08-05T09:05:39Z</time>
      </trkpt>
      <trkpt lat="47.12927" lon="5.84707">
        <ele>242.8</ele>
        <time>2024-08-05T09:05:40Z</time>
      </trkpt>
      <trkpt lat="47.12926" lon="5.8471">
        <ele>242.8</ele>
        <time>2024-08-05T09:05:41Z</time>
      </trkpt>
      <trkpt lat="47.12926" lon="5.84714">
        <ele>242.8</ele>
        <time>2024-08-05T09:05:42Z</time>
      </trkpt>
      <trkpt lat="47.12926" lon="5.84717">
        <ele>242.6</ele>
        <time>2024-08-05T09:05:43Z</time>
      </trkpt>
      <trkpt lat="47.12925" lon="5.8472">
        <ele>242.6</ele>
        <time>2024-08-05T09:05:44Z</time>
      </trkpt>
      <trkpt lat="47.12925" lon="5.84722">
        <ele>242.4</ele>
        <time>2024-08-05T09:05:45Z</time>
      </trkpt>
      <trkpt lat="47.12925" lon="5.84725">
        <ele>242.4</ele>
        <time>2024-08-05T09:05:46Z</time>
      </trkpt>
      <trkpt lat="47.12925" lon="5.84728">
        <ele>242.2</ele>
        <time>2024-08-05T09:05:47Z</time>
      </trkpt>
      <trkpt lat="47.12924" lon="5.84731">
        <ele>242</ele>
        <time>2024-08-05T09:05:48Z</time>
      </trkpt>
      <trkpt lat="47.12924" lon="5.84734">
        <ele>242</ele>
        <time>2024-08-05T09:05:49Z</time>
      </trkpt>
      <trkpt lat="47.12923" lon="5.84737">
        <ele>241.8</ele>
        <time>2024-08-05T09:05:50Z</time>
      </trkpt>
      <trkpt lat="47.12922" lon="5.84741">
        <ele>241.8</ele>
        <time>2024-08-05T09:05:51Z</time>
      </trkpt>
      <trkpt lat="47.12922" lon="5.84744">
        <ele>241.8</ele>
        <time>2024-08-05T09:05:52Z</time>
      </trkpt>
      <trkpt lat="47.12922" lon="5.84749">
        <ele>241.4</ele>
        <time>2024-08-05T09:05:53Z</time>
      </trkpt>
      <trkpt lat="47.12922" lon="5.84753">
        <ele>241.4</ele>
        <time>2024-08-05T09:05:54Z</time>
      </trkpt>
      <trkpt lat="47.12922" lon="5.84756">
        <ele>241.2</ele>
        <time>2024-08-05T09:05:55Z</time>
      </trkpt>
      <trkpt lat="47.12922" lon="5.8476">
        <ele>241.2</ele>
        <time>2024-08-05T09:05:56Z</time>
      </trkpt>
      <trkpt lat="47.12922" lon="5.84763">
        <ele>240.8</ele>
        <time>2024-08-05T09:05:57Z</time>
      </trkpt>
      <trkpt lat="47.12922" lon="5.84767">
        <ele>240.6</ele>
        <time>2024-08-05T09:05:58Z</time>
      </trkpt>
      <trkpt lat="47.12922" lon="5.8477">
        <ele>240.4</ele>
        <time>2024-08-05T09:05:59Z</time>
      </trkpt>
      <trkpt lat="47.12922" lon="5.84776">
        <ele>240.2</ele>
        <time>2024-08-05T09:06:00Z</time>
      </trkpt>
      <trkpt lat="47.12923" lon="5.8478">
        <ele>240</ele>
        <time>2024-08-05T09:06:01Z</time>
      </trkpt>
      <trkpt lat="47.12923" lon="5.84785">
        <ele>239.6</ele>
        <time>2024-08-05T09:06:02Z</time>
      </trkpt>
      <trkpt lat="47.12924" lon="5.84789">
        <ele>239.4</ele>
        <time>2024-08-05T09:06:03Z</time>
      </trkpt>
      <trkpt lat="47.12925" lon="5.84792">
        <ele>238.8</ele>
        <time>2024-08-05T09:06:04Z</time>
      </trkpt>
      <trkpt lat="47.12926" lon="5.84799">
        <ele>238.8</ele>
        <time>2024-08-05T09:06:05Z</time>
      </trkpt>
      <trkpt lat="47.12925" lon="5.84803">
        <ele>238.8</ele>
        <time>2024-08-05T09:06:06Z</time>
      </trkpt>
      <trkpt lat="47.12925" lon="5.84803">
        <ele>238.6</ele>
        <time>2024-08-05T09:06:07Z</time>
      </trkpt>
      <trkpt lat="47.12924" lon="5.84806">
        <ele>238.2</ele>
        <time>2024-08-05T09:06:08Z</time>
      </trkpt>
      <trkpt lat="47.12923" lon="5.8481">
        <ele>238</ele>
        <time>2024-08-05T09:06:09Z</time>
      </trkpt>
      <trkpt lat="47.12921" lon="5.84813">
        <ele>237.6</ele>
        <time>2024-08-05T09:06:10Z</time>
      </trkpt>
      <trkpt lat="47.12917" lon="5.84819">
        <ele>237.4</ele>
        <time>2024-08-05T09:06:11Z</time>
      </trkpt>
      <trkpt lat="47.12915" lon="5.84821">
        <ele>236.8</ele>
        <time>2024-08-05T09:06:12Z</time>
      </trkpt>
      <trkpt lat="47.12913" lon="5.84827">
        <ele>236.6</ele>
        <time>2024-08-05T09:06:13Z</time>
      </trkpt>
      <trkpt lat="47.12913" lon="5.84827">
        <ele>236.2</ele>
        <time>2024-08-05T09:06:14Z</time>
      </trkpt>
      <trkpt lat="47.12911" lon="5.84829">
        <ele>235.4</ele>
        <time>2024-08-05T09:06:15Z</time>
      </trkpt>
      <trkpt lat="47.12908" lon="5.8483">
        <ele>235.4</ele>
        <time>2024-08-05T09:06:16Z</time>
      </trkpt>
      <trkpt lat="47.12905" lon="5.8483">
        <ele>235.2</ele>
        <time>2024-08-05T09:06:17Z</time>
      </trkpt>
      <trkpt lat="47.12901" lon="5.8483">
        <ele>235</ele>
        <time>2024-08-05T09:06:18Z</time>
      </trkpt>
      <trkpt lat="47.12898" lon="5.8483">
        <ele>235</ele>
        <time>2024-08-05T09:06:19Z</time>
      </trkpt>
      <trkpt lat="47.12895" lon="5.84831">
        <ele>235</ele>
        <time>2024-08-05T09:06:20Z</time>
      </trkpt>
      <trkpt lat="47.12891" lon="5.84831">
        <ele>234.8</ele>
        <time>2024-08-05T09:06:21Z</time>
      </trkpt>
      <trkpt lat="47.12888" lon="5.8483">
        <ele>235</ele>
        <time>2024-08-05T09:06:22Z</time>
      </trkpt>
      <trkpt lat="47.12884" lon="5.8483">
        <ele>235</ele>
        <time>2024-08-05T09:06:23Z</time>
      </trkpt>
      <trkpt lat="47.1288" lon="5.8483">
        <ele>235</ele>
        <time>2024-08-05T09:06:24Z</time>
      </trkpt>
      <trkpt lat="47.12877" lon="5.8483">
        <ele>235</ele>
        <time>2024-08-05T09:06:25Z</time>
      </trkpt>
      <trkpt lat="47.12873" lon="5.84831">
        <ele>235</ele>
        <time>2024-08-05T09:06:26Z</time>
      </trkpt>
      <trkpt lat="47.12869" lon="5.84831">
        <ele>235.2</ele>
        <time>2024-08-05T09:06:27Z</time>
      </trkpt>
      <trkpt lat="47.12865" lon="5.84832">
        <ele>235.2</ele>
        <time>2024-08-05T09:06:28Z</time>
      </trkpt>
      <trkpt lat="47.12861" lon="5.84833">
        <ele>235.4</ele>
        <time>2024-08-05T09:06:29Z</time>
      </trkpt>
      <trkpt lat="47.12857" lon="5.84834">
        <ele>235.4</ele>
        <time>2024-08-05T09:06:30Z</time>
      </trkpt>
      <trkpt lat="47.12852" lon="5.84834">
        <ele>235.4</ele>
        <time>2024-08-05T09:06:31Z</time>
      </trkpt>
      <trkpt lat="47.12848" lon="5.84835">
        <ele>235.4</ele>
        <time>2024-08-05T09:06:32Z</time>
      </trkpt>
      <trkpt lat="47.12843" lon="5.84836">
        <ele>235.4</ele>
        <time>2024-08-05T09:06:33Z</time>
      </trkpt>
      <trkpt lat="47.12839" lon="5.84837">
        <ele>235.4</ele>
        <time>2024-08-05T09:06:34Z</time>
      </trkpt>
      <trkpt lat="47.12834" lon="5.84838">
        <ele>235.6</ele>
        <time>2024-08-05T09:06:35Z</time>
      </trkpt>
      <trkpt lat="47.12829" lon="5.84839">
        <ele>235.8</ele>
        <time>2024-08-05T09:06:36Z</time>
      </trkpt>
      <trkpt lat="47.12825" lon="5.84842">
        <ele>236</ele>
        <time>2024-08-05T09:06:37Z</time>
      </trkpt>
      <trkpt lat="47.1282" lon="5.84845">
        <ele>236.2</ele>
        <time>2024-08-05T09:06:38Z</time>
      </trkpt>
      <trkpt lat="47.12816" lon="5.84847">
        <ele>236.2</ele>
        <time>2024-08-05T09:06:39Z</time>
      </trkpt>
      <trkpt lat="47.12812" lon="5.84848">
        <ele>236.6</ele>
        <time>2024-08-05T09:06:40Z</time>
      </trkpt>
      <trkpt lat="47.12808" lon="5.8485">
        <ele>236.6</ele>
        <time>2024-08-05T09:06:41Z</time>
      </trkpt>
      <trkpt lat="47.12805" lon="5.84852">
        <ele>236.6</ele>
        <time>2024-08-05T09:06:42Z</time>
      </trkpt>
      <trkpt lat="47.12801" lon="5.84854">
        <ele>236.8</ele>
        <time>2024-08-05T09:06:43Z</time>
      </trkpt>
      <trkpt lat="47.12797" lon="5.84856">
        <ele>237</ele>
        <time>2024-08-05T09:06:44Z</time>
      </trkpt>
      <trkpt lat="47.12793" lon="5.84858">
        <ele>237</ele>
        <time>2024-08-05T09:06:45Z</time>
      </trkpt>
      <trkpt lat="47.12789" lon="5.8486">
        <ele>237</ele>
        <time>2024-08-05T09:06:46Z</time>
      </trkpt>
      <trkpt lat="47.12781" lon="5.84862">
        <ele>237.2</ele>
        <time>2024-08-05T09:06:47Z</time>
      </trkpt>
      <trkpt lat="47.12781" lon="5.84862">
        <ele>237.2</ele>
        <time>2024-08-05T09:06:48Z</time>
      </trkpt>
      <trkpt lat="47.12777" lon="5.84863">
        <ele>237.4</ele>
        <time>2024-08-05T09:06:49Z</time>
      </trkpt>
      <trkpt lat="47.12773" lon="5.84864">
        <ele>237.4</ele>
        <time>2024-08-05T09:06:50Z</time>
      </trkpt>
      <trkpt lat="47.12769" lon="5.84866">
        <ele>237.4</ele>
        <time>2024-08-05T09:06:51Z</time>
      </trkpt>
      <trkpt lat="47.12766" lon="5.84868">
        <ele>237.4</ele>
        <time>2024-08-05T09:06:52Z</time>
      </trkpt>
      <trkpt lat="47.12762" lon="5.84869">
        <ele>237.6</ele>
        <time>2024-08-05T09:06:53Z</time>
      </trkpt>
      <trkpt lat="47.12754" lon="5.84872">
        <ele>237.6</ele>
        <time>2024-08-05T09:06:54Z</time>
      </trkpt>
      <trkpt lat="47.12754" lon="5.84872">
        <ele>238</ele>
        <time>2024-08-05T09:06:55Z</time>
      </trkpt>
      <trkpt lat="47.1275" lon="5.84873">
        <ele>238</ele>
        <time>2024-08-05T09:06:56Z</time>
      </trkpt>
      <trkpt lat="47.12746" lon="5.84875">
        <ele>238</ele>
        <time>2024-08-05T09:06:57Z</time>
      </trkpt>
      <trkpt lat="47.12743" lon="5.84877">
        <ele>238.2</ele>
        <time>2024-08-05T09:06:58Z</time>
      </trkpt>
      <trkpt lat="47.12735" lon="5.8488">
        <ele>238.2</ele>
        <time>2024-08-05T09:06:59Z</time>
      </trkpt>
      <trkpt lat="47.12731" lon="5.84882">
        <ele>238.6</ele>
        <time>2024-08-05T09:07:00Z</time>
      </trkpt>
      <trkpt lat="47.12727" lon="5.84884">
        <ele>238.6</ele>
        <time>2024-08-05T09:07:01Z</time>
      </trkpt>
      <trkpt lat="47.12723" lon="5.84886">
        <ele>238.6</ele>
        <time>2024-08-05T09:07:02Z</time>
      </trkpt>
      <trkpt lat="47.12719" lon="5.84889">
        <ele>238.8</ele>
        <time>2024-08-05T09:07:03Z</time>
      </trkpt>
      <trkpt lat="47.12719" lon="5.84889">
        <ele>239</ele>
        <time>2024-08-05T09:07:04Z</time>
      </trkpt>
      <trkpt lat="47.12715" lon="5.84891">
        <ele>239</ele>
        <time>2024-08-05T09:07:05Z</time>
      </trkpt>
      <trkpt lat="47.12712" lon="5.84893">
        <ele>239</ele>
        <time>2024-08-05T09:07:06Z</time>
      </trkpt>
      <trkpt lat="47.12708" lon="5.84895">
        <ele>239</ele>
        <time>2024-08-05T09:07:07Z</time>
      </trkpt>
      <trkpt lat="47.12704" lon="5.84898">
        <ele>239.2</ele>
        <time>2024-08-05T09:07:08Z</time>
      </trkpt>
      <trkpt lat="47.12701" lon="5.84901">
        <ele>239.2</ele>
        <time>2024-08-05T09:07:09Z</time>
      </trkpt>
      <trkpt lat="47.12697" lon="5.84904">
        <ele>239.2</ele>
        <time>2024-08-05T09:07:10Z</time>
      </trkpt>
      <trkpt lat="47.12693" lon="5.84907">
        <ele>239.2</ele>
        <time>2024-08-05T09:07:11Z</time>
      </trkpt>
      <trkpt lat="47.1269" lon="5.8491">
        <ele>239.2</ele>
        <time>2024-08-05T09:07:12Z</time>
      </trkpt>
      <trkpt lat="47.12687" lon="5.84913">
        <ele>239.2</ele>
        <time>2024-08-05T09:07:13Z</time>
      </trkpt>
      <trkpt lat="47.12683" lon="5.84917">
        <ele>239.2</ele>
        <time>2024-08-05T09:07:14Z</time>
      </trkpt>
      <trkpt lat="47.1268" lon="5.84921">
        <ele>239.4</ele>
        <time>2024-08-05T09:07:15Z</time>
      </trkpt>
      <trkpt lat="47.12677" lon="5.84924">
        <ele>239.4</ele>
        <time>2024-08-05T09:07:16Z</time>
      </trkpt>
      <trkpt lat="47.12674" lon="5.84928">
        <ele>239.4</ele>
        <time>2024-08-05T09:07:17Z</time>
      </trkpt>
      <trkpt lat="47.1267" lon="5.84932">
        <ele>239.2</ele>
        <time>2024-08-05T09:07:18Z</time>
      </trkpt>
      <trkpt lat="47.12667" lon="5.84935">
        <ele>239.4</ele>
        <time>2024-08-05T09:07:19Z</time>
      </trkpt>
      <trkpt lat="47.12664" lon="5.84939">
        <ele>239.4</ele>
        <time>2024-08-05T09:07:20Z</time>
      </trkpt>
      <trkpt lat="47.12661" lon="5.84943">
        <ele>239.6</ele>
        <time>2024-08-05T09:07:21Z</time>
      </trkpt>
      <trkpt lat="47.12657" lon="5.84947">
        <ele>239.8</ele>
        <time>2024-08-05T09:07:22Z</time>
      </trkpt>
      <trkpt lat="47.12654" lon="5.84949">
        <ele>239.8</ele>
        <time>2024-08-05T09:07:23Z</time>
      </trkpt>
      <trkpt lat="47.1265" lon="5.84953">
        <ele>240.2</ele>
        <time>2024-08-05T09:07:24Z</time>
      </trkpt>
      <trkpt lat="47.12647" lon="5.84956">
        <ele>240.6</ele>
        <time>2024-08-05T09:07:25Z</time>
      </trkpt>
      <trkpt lat="47.12643" lon="5.84959">
        <ele>240.6</ele>
        <time>2024-08-05T09:07:26Z</time>
      </trkpt>
      <trkpt lat="47.1264" lon="5.84961">
        <ele>240.8</ele>
        <time>2024-08-05T09:07:27Z</time>
      </trkpt>
      <trkpt lat="47.12637" lon="5.84963">
        <ele>240.8</ele>
        <time>2024-08-05T09:07:28Z</time>
      </trkpt>
      <trkpt lat="47.12633" lon="5.84965">
        <ele>240.8</ele>
        <time>2024-08-05T09:07:29Z</time>
      </trkpt>
      <trkpt lat="47.1263" lon="5.84968">
        <ele>241</ele>
        <time>2024-08-05T09:07:30Z</time>
      </trkpt>
      <trkpt lat="47.12627" lon="5.84969">
        <ele>240.8</ele>
        <time>2024-08-05T09:07:31Z</time>
      </trkpt>
      <trkpt lat="47.12623" lon="5.8497">
        <ele>241</ele>
        <time>2024-08-05T09:07:32Z</time>
      </trkpt>
      <trkpt lat="47.1262" lon="5.84971">
        <ele>241.2</ele>
        <time>2024-08-05T09:07:33Z</time>
      </trkpt>
      <trkpt lat="47.12617" lon="5.84973">
        <ele>241.2</ele>
        <time>2024-08-05T09:07:34Z</time>
      </trkpt>
      <trkpt lat="47.12614" lon="5.84975">
        <ele>241</ele>
        <time>2024-08-05T09:07:35Z</time>
      </trkpt>
      <trkpt lat="47.1261" lon="5.84976">
        <ele>241.4</ele>
        <time>2024-08-05T09:07:36Z</time>
      </trkpt>
      <trkpt lat="47.12607" lon="5.84977">
        <ele>241.4</ele>
        <time>2024-08-05T09:07:37Z</time>
      </trkpt>
      <trkpt lat="47.12604" lon="5.84978">
        <ele>241.6</ele>
        <time>2024-08-05T09:07:38Z</time>
      </trkpt>
      <trkpt lat="47.126" lon="5.84978">
        <ele>241.6</ele>
        <time>2024-08-05T09:07:39Z</time>
      </trkpt>
      <trkpt lat="47.12597" lon="5.84979">
        <ele>241.8</ele>
        <time>2024-08-05T09:07:40Z</time>
      </trkpt>
      <trkpt lat="47.12593" lon="5.8498">
        <ele>241.8</ele>
        <time>2024-08-05T09:07:41Z</time>
      </trkpt>
      <trkpt lat="47.1259" lon="5.8498">
        <ele>242</ele>
        <time>2024-08-05T09:07:42Z</time>
      </trkpt>
      <trkpt lat="47.12586" lon="5.8498">
        <ele>242.2</ele>
        <time>2024-08-05T09:07:43Z</time>
      </trkpt>
      <trkpt lat="47.12583" lon="5.8498">
        <ele>242.4</ele>
        <time>2024-08-05T09:07:44Z</time>
      </trkpt>
      <trkpt lat="47.1258" lon="5.8498">
        <ele>242.4</ele>
        <time>2024-08-05T09:07:45Z</time>
      </trkpt>
      <trkpt lat="47.12578" lon="5.8498">
        <ele>242.8</ele>
        <time>2024-08-05T09:07:46Z</time>
      </trkpt>
      <trkpt lat="47.12576" lon="5.8498">
        <ele>243</ele>
        <time>2024-08-05T09:07:47Z</time>
      </trkpt>
      <trkpt lat="47.12574" lon="5.8498">
        <ele>243.2</ele>
        <time>2024-08-05T09:07:48Z</time>
      </trkpt>
      <trkpt lat="47.12573" lon="5.84982">
        <ele>243.4</ele>
        <time>2024-08-05T09:07:49Z</time>
      </trkpt>
      <trkpt lat="47.12572" lon="5.84985">
        <ele>243.6</ele>
        <time>2024-08-05T09:07:50Z</time>
      </trkpt>
      <trkpt lat="47.12572" lon="5.84987">
        <ele>243.8</ele>
        <time>2024-08-05T09:07:51Z</time>
      </trkpt>
      <trkpt lat="47.12573" lon="5.8499">
        <ele>244.2</ele>
        <time>2024-08-05T09:07:52Z</time>
      </trkpt>
      <trkpt lat="47.12574" lon="5.84993">
        <ele>244.4</ele>
        <time>2024-08-05T09:07:53Z</time>
      </trkpt>
      <trkpt lat="47.12576" lon="5.84996">
        <ele>244.6</ele>
        <time>2024-08-05T09:07:54Z</time>
      </trkpt>
      <trkpt lat="47.1258" lon="5.84999">
        <ele>244.6</ele>
        <time>2024-08-05T09:07:55Z</time>
      </trkpt>
      <trkpt lat="47.12584" lon="5.85001">
        <ele>244.6</ele>
        <time>2024-08-05T09:07:56Z</time>
      </trkpt>
      <trkpt lat="47.12588" lon="5.85003">
        <ele>244.6</ele>
        <time>2024-08-05T09:07:57Z</time>
      </trkpt>
      <trkpt lat="47.12592" lon="5.85005">
        <ele>244.6</ele>
        <time>2024-08-05T09:07:58Z</time>
      </trkpt>
      <trkpt lat="47.12596" lon="5.85009">
        <ele>244.6</ele>
        <time>2024-08-05T09:07:59Z</time>
      </trkpt>
      <trkpt lat="47.126" lon="5.85013">
        <ele>244.6</ele>
        <time>2024-08-05T09:08:00Z</time>
      </trkpt>
      <trkpt lat="47.12604" lon="5.85018">
        <ele>244.8</ele>
        <time>2024-08-05T09:08:01Z</time>
      </trkpt>
      <trkpt lat="47.12608" lon="5.85023">
        <ele>244.6</ele>
        <time>2024-08-05T09:08:02Z</time>
      </trkpt>
      <trkpt lat="47.12613" lon="5.8503">
        <ele>244.6</ele>
        <time>2024-08-05T09:08:03Z</time>
      </trkpt>
      <trkpt lat="47.12618" lon="5.85037">
        <ele>244.6</ele>
        <time>2024-08-05T09:08:04Z</time>
      </trkpt>
      <trkpt lat="47.12623" lon="5.85044">
        <ele>244.2</ele>
        <time>2024-08-05T09:08:05Z</time>
      </trkpt>
      <trkpt lat="47.12628" lon="5.85052">
        <ele>244.2</ele>
        <time>2024-08-05T09:08:06Z</time>
      </trkpt>
      <trkpt lat="47.12634" lon="5.85061">
        <ele>243.8</ele>
        <time>2024-08-05T09:08:07Z</time>
      </trkpt>
      <trkpt lat="47.12638" lon="5.8507">
        <ele>243.4</ele>
        <time>2024-08-05T09:08:08Z</time>
      </trkpt>
      <trkpt lat="47.12641" lon="5.85081">
        <ele>243.2</ele>
        <time>2024-08-05T09:08:09Z</time>
      </trkpt>
      <trkpt lat="47.12643" lon="5.8509">
        <ele>242.6</ele>
        <time>2024-08-05T09:08:10Z</time>
      </trkpt>
      <trkpt lat="47.12646" lon="5.85099">
        <ele>242.2</ele>
        <time>2024-08-05T09:08:11Z</time>
      </trkpt>
      <trkpt lat="47.12648" lon="5.85107">
        <ele>242</ele>
        <time>2024-08-05T09:08:12Z</time>
      </trkpt>
      <trkpt lat="47.12651" lon="5.85113">
        <ele>241.4</ele>
        <time>2024-08-05T09:08:13Z</time>
      </trkpt>
      <trkpt lat="47.12655" lon="5.85119">
        <ele>241.4</ele>
        <time>2024-08-05T09:08:14Z</time>
      </trkpt>
      <trkpt lat="47.12658" lon="5.85124">
        <ele>241.2</ele>
        <time>2024-08-05T09:08:15Z</time>
      </trkpt>
      <trkpt lat="47.12662" lon="5.85129">
        <ele>240.8</ele>
        <time>2024-08-05T09:08:16Z</time>
      </trkpt>
      <trkpt lat="47.12665" lon="5.85133">
        <ele>240.8</ele>
        <time>2024-08-05T09:08:17Z</time>
      </trkpt>
      <trkpt lat="47.12669" lon="5.85138">
        <ele>240.8</ele>
        <time>2024-08-05T09:08:18Z</time>
      </trkpt>
      <trkpt lat="47.12672" lon="5.85142">
        <ele>240.6</ele>
        <time>2024-08-05T09:08:19Z</time>
      </trkpt>
      <trkpt lat="47.12676" lon="5.85146">
        <ele>240.6</ele>
        <time>2024-08-05T09:08:20Z</time>
      </trkpt>
      <trkpt lat="47.1268" lon="5.8515">
        <ele>240.6</ele>
        <time>2024-08-05T09:08:21Z</time>
      </trkpt>
      <trkpt lat="47.12683" lon="5.85153">
        <ele>240.6</ele>
        <time>2024-08-05T09:08:22Z</time>
      </trkpt>
      <trkpt lat="47.12687" lon="5.85156">
        <ele>240.6</ele>
        <time>2024-08-05T09:08:23Z</time>
      </trkpt>
      <trkpt lat="47.12689" lon="5.85158">
        <ele>240.4</ele>
        <time>2024-08-05T09:08:24Z</time>
      </trkpt>
      <trkpt lat="47.12692" lon="5.8516">
        <ele>240.4</ele>
        <time>2024-08-05T09:08:25Z</time>
      </trkpt>
      <trkpt lat="47.12694" lon="5.85163">
        <ele>240.2</ele>
        <time>2024-08-05T09:08:26Z</time>
      </trkpt>
      <trkpt lat="47.12697" lon="5.85166">
        <ele>239.8</ele>
        <time>2024-08-05T09:08:27Z</time>
      </trkpt>
      <trkpt lat="47.127" lon="5.85169">
        <ele>239.8</ele>
        <time>2024-08-05T09:08:28Z</time>
      </trkpt>
      <trkpt lat="47.12703" lon="5.85172">
        <ele>239.6</ele>
        <time>2024-08-05T09:08:29Z</time>
      </trkpt>
      <trkpt lat="47.12707" lon="5.85175">
        <ele>239.6</ele>
        <time>2024-08-05T09:08:30Z</time>
      </trkpt>
      <trkpt lat="47.1271" lon="5.85178">
        <ele>239.6</ele>
        <time>2024-08-05T09:08:31Z</time>
      </trkpt>
      <trkpt lat="47.12713" lon="5.85181">
        <ele>239.4</ele>
        <time>2024-08-05T09:08:32Z</time>
      </trkpt>
      <trkpt lat="47.12715" lon="5.85184">
        <ele>239.6</ele>
        <time>2024-08-05T09:08:33Z</time>
      </trkpt>
      <trkpt lat="47.12718" lon="5.85187">
        <ele>239.4</ele>
        <time>2024-08-05T09:08:34Z</time>
      </trkpt>
      <trkpt lat="47.1272" lon="5.8519">
        <ele>239.4</ele>
        <time>2024-08-05T09:08:35Z</time>
      </trkpt>
      <trkpt lat="47.12722" lon="5.85193">
        <ele>239.6</ele>
        <time>2024-08-05T09:08:36Z</time>
      </trkpt>
      <trkpt lat="47.12725" lon="5.85196">
        <ele>239.6</ele>
        <time>2024-08-05T09:08:37Z</time>
      </trkpt>
      <trkpt lat="47.12727" lon="5.85199">
        <ele>239.6</ele>
        <time>2024-08-05T09:08:38Z</time>
      </trkpt>
      <trkpt lat="47.12729" lon="5.85202">
        <ele>239.6</ele>
        <time>2024-08-05T09:08:39Z</time>
      </trkpt>
      <trkpt lat="47.12731" lon="5.85205">
        <ele>239.4</ele>
        <time>2024-08-05T09:08:40Z</time>
      </trkpt>
      <trkpt lat="47.12733" lon="5.85207">
        <ele>239.6</ele>
        <time>2024-08-05T09:08:41Z</time>
      </trkpt>
      <trkpt lat="47.12735" lon="5.85209">
        <ele>239.4</ele>
        <time>2024-08-05T09:08:42Z</time>
      </trkpt>
      <trkpt lat="47.12738" lon="5.85211">
        <ele>239.6</ele>
        <time>2024-08-05T09:08:43Z</time>
      </trkpt>
      <trkpt lat="47.1274" lon="5.85214">
        <ele>239.6</ele>
        <time>2024-08-05T09:08:44Z</time>
      </trkpt>
      <trkpt lat="47.12742" lon="5.85217">
        <ele>239.6</ele>
        <time>2024-08-05T09:08:45Z</time>
      </trkpt>
      <trkpt lat="47.12744" lon="5.85218">
        <ele>239.6</ele>
        <time>2024-08-05T09:08:46Z</time>
      </trkpt>
      <trkpt lat="47.12746" lon="5.8522">
        <ele>239.8</ele>
        <time>2024-08-05T09:08:47Z</time>
      </trkpt>
      <trkpt lat="47.12747" lon="5.85221">
        <ele>240</ele>
        <time>2024-08-05T09:08:48Z</time>
      </trkpt>
      <trkpt lat="47.12749" lon="5.85223">
        <ele>240.2</ele>
        <time>2024-08-05T09:08:49Z</time>
      </trkpt>
      <trkpt lat="47.12751" lon="5.85225">
        <ele>240.4</ele>
        <time>2024-08-05T09:08:50Z</time>
      </trkpt>
      <trkpt lat="47.12753" lon="5.85226">
        <ele>240.6</ele>
        <time>2024-08-05T09:08:51Z</time>
      </trkpt>
      <trkpt lat="47.12755" lon="5.85227">
        <ele>240.6</ele>
        <time>2024-08-05T09:08:52Z</time>
      </trkpt>
      <trkpt lat="47.12756" lon="5.85228">
        <ele>240.6</ele>
        <time>2024-08-05T09:08:53Z</time>
      </trkpt>
      <trkpt lat="47.12758" lon="5.85229">
        <ele>240.8</ele>
        <time>2024-08-05T09:08:54Z</time>
      </trkpt>
      <trkpt lat="47.12759" lon="5.8523">
        <ele>240.8</ele>
        <time>2024-08-05T09:08:55Z</time>
      </trkpt>
      <trkpt lat="47.12761" lon="5.85232">
        <ele>241</ele>
        <time>2024-08-05T09:08:56Z</time>
      </trkpt>
      <trkpt lat="47.12763" lon="5.85233">
        <ele>241</ele>
        <time>2024-08-05T09:08:57Z</time>
      </trkpt>
      <trkpt lat="47.12765" lon="5.85234">
        <ele>241.2</ele>
        <time>2024-08-05T09:08:58Z</time>
      </trkpt>
      <trkpt lat="47.12767" lon="5.85235">
        <ele>241.4</ele>
        <time>2024-08-05T09:08:59Z</time>
      </trkpt>
      <trkpt lat="47.12771" lon="5.85237">
        <ele>241.6</ele>
        <time>2024-08-05T09:09:00Z</time>
      </trkpt>
      <trkpt lat="47.12774" lon="5.85239">
        <ele>241.6</ele>
        <time>2024-08-05T09:09:01Z</time>
      </trkpt>
      <trkpt lat="47.12777" lon="5.85241">
        <ele>241.6</ele>
        <time>2024-08-05T09:09:02Z</time>
      </trkpt>
      <trkpt lat="47.12781" lon="5.85244">
        <ele>241.8</ele>
        <time>2024-08-05T09:09:03Z</time>
      </trkpt>
      <trkpt lat="47.12784" lon="5.85246">
        <ele>241.8</ele>
        <time>2024-08-05T09:09:04Z</time>
      </trkpt>
      <trkpt lat="47.12787" lon="5.85248">
        <ele>241.8</ele>
        <time>2024-08-05T09:09:05Z</time>
      </trkpt>
      <trkpt lat="47.1279" lon="5.8525">
        <ele>241.8</ele>
        <time>2024-08-05T09:09:06Z</time>
      </trkpt>
      <trkpt lat="47.12794" lon="5.85251">
        <ele>241.8</ele>
        <time>2024-08-05T09:09:07Z</time>
      </trkpt>
      <trkpt lat="47.12798" lon="5.85253">
        <ele>241.6</ele>
        <time>2024-08-05T09:09:08Z</time>
      </trkpt>
      <trkpt lat="47.12801" lon="5.85255">
        <ele>241.8</ele>
        <time>2024-08-05T09:09:09Z</time>
      </trkpt>
      <trkpt lat="47.12805" lon="5.85258">
        <ele>241.8</ele>
        <time>2024-08-05T09:09:10Z</time>
      </trkpt>
      <trkpt lat="47.12809" lon="5.8526">
        <ele>241.8</ele>
        <time>2024-08-05T09:09:11Z</time>
      </trkpt>
      <trkpt lat="47.12812" lon="5.85263">
        <ele>241.8</ele>
        <time>2024-08-05T09:09:12Z</time>
      </trkpt>
      <trkpt lat="47.12816" lon="5.85266">
        <ele>241.8</ele>
        <time>2024-08-05T09:09:13Z</time>
      </trkpt>
      <trkpt lat="47.12819" lon="5.85269">
        <ele>241.8</ele>
        <time>2024-08-05T09:09:14Z</time>
      </trkpt>
      <trkpt lat="47.12821" lon="5.85271">
        <ele>241.8</ele>
        <time>2024-08-05T09:09:15Z</time>
      </trkpt>
      <trkpt lat="47.12824" lon="5.85274">
        <ele>242</ele>
        <time>2024-08-05T09:09:16Z</time>
      </trkpt>
      <trkpt lat="47.12826" lon="5.85277">
        <ele>242</ele>
        <time>2024-08-05T09:09:17Z</time>
      </trkpt>
      <trkpt lat="47.12828" lon="5.85281">
        <ele>242</ele>
        <time>2024-08-05T09:09:18Z</time>
      </trkpt>
      <trkpt lat="47.12832" lon="5.85285">
        <ele>242</ele>
        <time>2024-08-05T09:09:19Z</time>
      </trkpt>
      <trkpt lat="47.12835" lon="5.85291">
        <ele>242.2</ele>
        <time>2024-08-05T09:09:20Z</time>
      </trkpt>
      <trkpt lat="47.12837" lon="5.85295">
        <ele>242</ele>
        <time>2024-08-05T09:09:21Z</time>
      </trkpt>
      <trkpt lat="47.1284" lon="5.85298">
        <ele>242.2</ele>
        <time>2024-08-05T09:09:22Z</time>
      </trkpt>
      <trkpt lat="47.12842" lon="5.85299">
        <ele>242.2</ele>
        <time>2024-08-05T09:09:23Z</time>
      </trkpt>
      <trkpt lat="47.12844" lon="5.85301">
        <ele>242.2</ele>
        <time>2024-08-05T09:09:24Z</time>
      </trkpt>
      <trkpt lat="47.12846" lon="5.85303">
        <ele>242.4</ele>
        <time>2024-08-05T09:09:25Z</time>
      </trkpt>
      <trkpt lat="47.12848" lon="5.85305">
        <ele>242.6</ele>
        <time>2024-08-05T09:09:26Z</time>
      </trkpt>
      <trkpt lat="47.12851" lon="5.85307">
        <ele>242.6</ele>
        <time>2024-08-05T09:09:27Z</time>
      </trkpt>
      <trkpt lat="47.12854" lon="5.85309">
        <ele>242.8</ele>
        <time>2024-08-05T09:09:28Z</time>
      </trkpt>
      <trkpt lat="47.12856" lon="5.85311">
        <ele>243</ele>
        <time>2024-08-05T09:09:29Z</time>
      </trkpt>
      <trkpt lat="47.12859" lon="5.85313">
        <ele>243.4</ele>
        <time>2024-08-05T09:09:30Z</time>
      </trkpt>
      <trkpt lat="47.12862" lon="5.85317">
        <ele>243.2</ele>
        <time>2024-08-05T09:09:31Z</time>
      </trkpt>
      <trkpt lat="47.12865" lon="5.85322">
        <ele>243.4</ele>
        <time>2024-08-05T09:09:32Z</time>
      </trkpt>
      <trkpt lat="47.12868" lon="5.85324">
        <ele>243.4</ele>
        <time>2024-08-05T09:09:33Z</time>
      </trkpt>
      <trkpt lat="47.1287" lon="5.85327">
        <ele>243.4</ele>
        <time>2024-08-05T09:09:34Z</time>
      </trkpt>
      <trkpt lat="47.12871" lon="5.85331">
        <ele>243.6</ele>
        <time>2024-08-05T09:09:35Z</time>
      </trkpt>
      <trkpt lat="47.12873" lon="5.85333">
        <ele>243.4</ele>
        <time>2024-08-05T09:09:36Z</time>
      </trkpt>
      <trkpt lat="47.12875" lon="5.85335">
        <ele>243.6</ele>
        <time>2024-08-05T09:09:37Z</time>
      </trkpt>
      <trkpt lat="47.12876" lon="5.85337">
        <ele>243.4</ele>
        <time>2024-08-05T09:09:38Z</time>
      </trkpt>
      <trkpt lat="47.12878" lon="5.85339">
        <ele>243.6</ele>
        <time>2024-08-05T09:09:39Z</time>
      </trkpt>
      <trkpt lat="47.1288" lon="5.85341">
        <ele>243.6</ele>
        <time>2024-08-05T09:09:40Z</time>
      </trkpt>
      <trkpt lat="47.12882" lon="5.85343">
        <ele>243.6</ele>
        <time>2024-08-05T09:09:41Z</time>
      </trkpt>
      <trkpt lat="47.12884" lon="5.85346">
        <ele>243.6</ele>
        <time>2024-08-05T09:09:42Z</time>
      </trkpt>
      <trkpt lat="47.12886" lon="5.85349">
        <ele>243.6</ele>
        <time>2024-08-05T09:09:43Z</time>
      </trkpt>
      <trkpt lat="47.12887" lon="5.85351">
        <ele>243.6</ele>
        <time>2024-08-05T09:09:44Z</time>
      </trkpt>
      <trkpt lat="47.12889" lon="5.85356">
        <ele>243.6</ele>
        <time>2024-08-05T09:09:45Z</time>
      </trkpt>
      <trkpt lat="47.1289" lon="5.8536">
        <ele>243.4</ele>
        <time>2024-08-05T09:09:46Z</time>
      </trkpt>
      <trkpt lat="47.12892" lon="5.85364">
        <ele>243.4</ele>
        <time>2024-08-05T09:09:47Z</time>
      </trkpt>
      <trkpt lat="47.12893" lon="5.85368">
        <ele>243.2</ele>
        <time>2024-08-05T09:09:48Z</time>
      </trkpt>
      <trkpt lat="47.12894" lon="5.85372">
        <ele>243.2</ele>
        <time>2024-08-05T09:09:49Z</time>
      </trkpt>
      <trkpt lat="47.12895" lon="5.85377">
        <ele>243.2</ele>
        <time>2024-08-05T09:09:50Z</time>
      </trkpt>
      <trkpt lat="47.12898" lon="5.85385">
        <ele>243.2</ele>
        <time>2024-08-05T09:09:51Z</time>
      </trkpt>
      <trkpt lat="47.129" lon="5.85392">
        <ele>243</ele>
        <time>2024-08-05T09:09:52Z</time>
      </trkpt>
      <trkpt lat="47.12903" lon="5.85398">
        <ele>243</ele>
        <time>2024-08-05T09:09:53Z</time>
      </trkpt>
      <trkpt lat="47.12905" lon="5.85404">
        <ele>243.2</ele>
        <time>2024-08-05T09:09:54Z</time>
      </trkpt>
      <trkpt lat="47.12907" lon="5.85407">
        <ele>243</ele>
        <time>2024-08-05T09:09:55Z</time>
      </trkpt>
      <trkpt lat="47.1291" lon="5.8541">
        <ele>242.8</ele>
        <time>2024-08-05T09:09:56Z</time>
      </trkpt>
      <trkpt lat="47.12912" lon="5.85411">
        <ele>243</ele>
        <time>2024-08-05T09:09:57Z</time>
      </trkpt>
      <trkpt lat="47.12916" lon="5.85412">
        <ele>242.8</ele>
        <time>2024-08-05T09:09:58Z</time>
      </trkpt>
      <trkpt lat="47.12919" lon="5.85414">
        <ele>242.8</ele>
        <time>2024-08-05T09:09:59Z</time>
      </trkpt>
      <trkpt lat="47.12922" lon="5.85415">
        <ele>242.6</ele>
        <time>2024-08-05T09:10:00Z</time>
      </trkpt>
      <trkpt lat="47.12925" lon="5.85416">
        <ele>242.2</ele>
        <time>2024-08-05T09:10:01Z</time>
      </trkpt>
      <trkpt lat="47.12929" lon="5.85416">
        <ele>242</ele>
        <time>2024-08-05T09:10:02Z</time>
      </trkpt>
      <trkpt lat="47.12932" lon="5.85417">
        <ele>241.4</ele>
        <time>2024-08-05T09:10:03Z</time>
      </trkpt>
      <trkpt lat="47.12935" lon="5.85416">
        <ele>240.8</ele>
        <time>2024-08-05T09:10:04Z</time>
      </trkpt>
      <trkpt lat="47.12937" lon="5.85416">
        <ele>240.2</ele>
        <time>2024-08-05T09:10:05Z</time>
      </trkpt>
      <trkpt lat="47.1294" lon="5.85415">
        <ele>240.2</ele>
        <time>2024-08-05T09:10:06Z</time>
      </trkpt>
      <trkpt lat="47.12942" lon="5.85415">
        <ele>239.8</ele>
        <time>2024-08-05T09:10:07Z</time>
      </trkpt>
      <trkpt lat="47.12945" lon="5.85415">
        <ele>239.4</ele>
        <time>2024-08-05T09:10:08Z</time>
      </trkpt>
      <trkpt lat="47.12948" lon="5.85414">
        <ele>239.2</ele>
        <time>2024-08-05T09:10:09Z</time>
      </trkpt>
      <trkpt lat="47.1295" lon="5.85412">
        <ele>239</ele>
        <time>2024-08-05T09:10:10Z</time>
      </trkpt>
      <trkpt lat="47.12952" lon="5.85413">
        <ele>238.6</ele>
        <time>2024-08-05T09:10:11Z</time>
      </trkpt>
      <trkpt lat="47.12955" lon="5.85417">
        <ele>238.4</ele>
        <time>2024-08-05T09:10:12Z</time>
      </trkpt>
      <trkpt lat="47.12958" lon="5.85421">
        <ele>237.8</ele>
        <time>2024-08-05T09:10:13Z</time>
      </trkpt>
      <trkpt lat="47.1296" lon="5.85423">
        <ele>237.6</ele>
        <time>2024-08-05T09:10:14Z</time>
      </trkpt>
      <trkpt lat="47.12963" lon="5.85427">
        <ele>237.2</ele>
        <time>2024-08-05T09:10:15Z</time>
      </trkpt>
      <trkpt lat="47.12965" lon="5.8543">
        <ele>236.6</ele>
        <time>2024-08-05T09:10:16Z</time>
      </trkpt>
      <trkpt lat="47.12967" lon="5.85434">
        <ele>236.2</ele>
        <time>2024-08-05T09:10:17Z</time>
      </trkpt>
      <trkpt lat="47.1297" lon="5.85441">
        <ele>236</ele>
        <time>2024-08-05T09:10:18Z</time>
      </trkpt>
      <trkpt lat="47.12973" lon="5.85449">
        <ele>235.6</ele>
        <time>2024-08-05T09:10:19Z</time>
      </trkpt>
      <trkpt lat="47.12976" lon="5.85455">
        <ele>235.4</ele>
        <time>2024-08-05T09:10:20Z</time>
      </trkpt>
      <trkpt lat="47.1298" lon="5.85463">
        <ele>235.2</ele>
        <time>2024-08-05T09:10:21Z</time>
      </trkpt>
      <trkpt lat="47.12983" lon="5.85469">
        <ele>234.8</ele>
        <time>2024-08-05T09:10:22Z</time>
      </trkpt>
      <trkpt lat="47.12986" lon="5.85475">
        <ele>234.6</ele>
        <time>2024-08-05T09:10:23Z</time>
      </trkpt>
      <trkpt lat="47.12989" lon="5.85481">
        <ele>234.4</ele>
        <time>2024-08-05T09:10:24Z</time>
      </trkpt>
      <trkpt lat="47.12991" lon="5.85485">
        <ele>234</ele>
        <time>2024-08-05T09:10:25Z</time>
      </trkpt>
      <trkpt lat="47.12994" lon="5.85491">
        <ele>234</ele>
        <time>2024-08-05T09:10:26Z</time>
      </trkpt>
      <trkpt lat="47.12996" lon="5.85496">
        <ele>233.8</ele>
        <time>2024-08-05T09:10:27Z</time>
      </trkpt>
      <trkpt lat="47.12998" lon="5.85501">
        <ele>233.8</ele>
        <time>2024-08-05T09:10:28Z</time>
      </trkpt>
      <trkpt lat="47.13" lon="5.85507">
        <ele>233.8</ele>
        <time>2024-08-05T09:10:29Z</time>
      </trkpt>
      <trkpt lat="47.13003" lon="5.85513">
        <ele>233.6</ele>
        <time>2024-08-05T09:10:30Z</time>
      </trkpt>
      <trkpt lat="47.13005" lon="5.85519">
        <ele>233.4</ele>
        <time>2024-08-05T09:10:31Z</time>
      </trkpt>
      <trkpt lat="47.13007" lon="5.85524">
        <ele>233</ele>
        <time>2024-08-05T09:10:32Z</time>
      </trkpt>
      <trkpt lat="47.13009" lon="5.85529">
        <ele>232.8</ele>
        <time>2024-08-05T09:10:33Z</time>
      </trkpt>
      <trkpt lat="47.13011" lon="5.85535">
        <ele>232.8</ele>
        <time>2024-08-05T09:10:34Z</time>
      </trkpt>
      <trkpt lat="47.13013" lon="5.8554">
        <ele>232.8</ele>
        <time>2024-08-05T09:10:35Z</time>
      </trkpt>
      <trkpt lat="47.13015" lon="5.85545">
        <ele>232.4</ele>
        <time>2024-08-05T09:10:36Z</time>
      </trkpt>
      <trkpt lat="47.13018" lon="5.8555">
        <ele>232.4</ele>
        <time>2024-08-05T09:10:37Z</time>
      </trkpt>
      <trkpt lat="47.1302" lon="5.85555">
        <ele>231.8</ele>
        <time>2024-08-05T09:10:38Z</time>
      </trkpt>
      <trkpt lat="47.13023" lon="5.85561">
        <ele>231.6</ele>
        <time>2024-08-05T09:10:39Z</time>
      </trkpt>
      <trkpt lat="47.13025" lon="5.85567">
        <ele>231.2</ele>
        <time>2024-08-05T09:10:40Z</time>
      </trkpt>
      <trkpt lat="47.13028" lon="5.85572">
        <ele>231.2</ele>
        <time>2024-08-05T09:10:41Z</time>
      </trkpt>
      <trkpt lat="47.13029" lon="5.85579">
        <ele>231</ele>
        <time>2024-08-05T09:10:42Z</time>
      </trkpt>
      <trkpt lat="47.13032" lon="5.85586">
        <ele>230.8</ele>
        <time>2024-08-05T09:10:43Z</time>
      </trkpt>
      <trkpt lat="47.13035" lon="5.85593">
        <ele>230.6</ele>
        <time>2024-08-05T09:10:44Z</time>
      </trkpt>
      <trkpt lat="47.13038" lon="5.85597">
        <ele>230.6</ele>
        <time>2024-08-05T09:10:45Z</time>
      </trkpt>
      <trkpt lat="47.13041" lon="5.856">
        <ele>230.6</ele>
        <time>2024-08-05T09:10:46Z</time>
      </trkpt>
      <trkpt lat="47.13043" lon="5.85602">
        <ele>230.2</ele>
        <time>2024-08-05T09:10:47Z</time>
      </trkpt>
      <trkpt lat="47.13045" lon="5.85603">
        <ele>230.2</ele>
        <time>2024-08-05T09:10:48Z</time>
      </trkpt>
      <trkpt lat="47.13047" lon="5.85605">
        <ele>230</ele>
        <time>2024-08-05T09:10:49Z</time>
      </trkpt>
      <trkpt lat="47.13048" lon="5.85606">
        <ele>230</ele>
        <time>2024-08-05T09:10:50Z</time>
      </trkpt>
      <trkpt lat="47.1305" lon="5.85607">
        <ele>230</ele>
        <time>2024-08-05T09:10:51Z</time>
      </trkpt>
      <trkpt lat="47.13053" lon="5.85609">
        <ele>229.8</ele>
        <time>2024-08-05T09:10:52Z</time>
      </trkpt>
      <trkpt lat="47.13056" lon="5.85611">
        <ele>229.8</ele>
        <time>2024-08-05T09:10:53Z</time>
      </trkpt>
      <trkpt lat="47.13059" lon="5.85613">
        <ele>229.8</ele>
        <time>2024-08-05T09:10:54Z</time>
      </trkpt>
      <trkpt lat="47.13063" lon="5.85614">
        <ele>229.8</ele>
        <time>2024-08-05T09:10:55Z</time>
      </trkpt>
      <trkpt lat="47.13067" lon="5.85615">
        <ele>229.6</ele>
        <time>2024-08-05T09:10:56Z</time>
      </trkpt>
      <trkpt lat="47.13071" lon="5.85616">
        <ele>229.6</ele>
        <time>2024-08-05T09:10:57Z</time>
      </trkpt>
      <trkpt lat="47.13075" lon="5.85617">
        <ele>229.6</ele>
        <time>2024-08-05T09:10:58Z</time>
      </trkpt>
      <trkpt lat="47.13079" lon="5.85619">
        <ele>229.4</ele>
        <time>2024-08-05T09:10:59Z</time>
      </trkpt>
      <trkpt lat="47.13083" lon="5.85621">
        <ele>229.4</ele>
        <time>2024-08-05T09:11:00Z</time>
      </trkpt>
      <trkpt lat="47.13086" lon="5.85625">
        <ele>229.4</ele>
        <time>2024-08-05T09:11:01Z</time>
      </trkpt>
      <trkpt lat="47.13088" lon="5.85629">
        <ele>229.2</ele>
        <time>2024-08-05T09:11:02Z</time>
      </trkpt>
      <trkpt lat="47.1309" lon="5.85635">
        <ele>229.2</ele>
        <time>2024-08-05T09:11:03Z</time>
      </trkpt>
      <trkpt lat="47.13092" lon="5.85641">
        <ele>229.2</ele>
        <time>2024-08-05T09:11:04Z</time>
      </trkpt>
      <trkpt lat="47.13093" lon="5.85647">
        <ele>229.2</ele>
        <time>2024-08-05T09:11:05Z</time>
      </trkpt>
      <trkpt lat="47.13095" lon="5.85654">
        <ele>229.4</ele>
        <time>2024-08-05T09:11:06Z</time>
      </trkpt>
      <trkpt lat="47.13096" lon="5.8566">
        <ele>229.2</ele>
        <time>2024-08-05T09:11:07Z</time>
      </trkpt>
      <trkpt lat="47.13099" lon="5.85667">
        <ele>229.2</ele>
        <time>2024-08-05T09:11:08Z</time>
      </trkpt>
      <trkpt lat="47.13101" lon="5.85673">
        <ele>229.2</ele>
        <time>2024-08-05T09:11:09Z</time>
      </trkpt>
      <trkpt lat="47.13103" lon="5.8568">
        <ele>229.2</ele>
        <time>2024-08-05T09:11:10Z</time>
      </trkpt>
      <trkpt lat="47.13105" lon="5.85687">
        <ele>229.2</ele>
        <time>2024-08-05T09:11:11Z</time>
      </trkpt>
      <trkpt lat="47.13107" lon="5.85694">
        <ele>229.2</ele>
        <time>2024-08-05T09:11:12Z</time>
      </trkpt>
      <trkpt lat="47.1311" lon="5.857">
        <ele>229.2</ele>
        <time>2024-08-05T09:11:13Z</time>
      </trkpt>
      <trkpt lat="47.13113" lon="5.85707">
        <ele>229.2</ele>
        <time>2024-08-05T09:11:14Z</time>
      </trkpt>
      <trkpt lat="47.13115" lon="5.85713">
        <ele>229.2</ele>
        <time>2024-08-05T09:11:15Z</time>
      </trkpt>
      <trkpt lat="47.13118" lon="5.8572">
        <ele>229.2</ele>
        <time>2024-08-05T09:11:16Z</time>
      </trkpt>
      <trkpt lat="47.13121" lon="5.85727">
        <ele>229</ele>
        <time>2024-08-05T09:11:17Z</time>
      </trkpt>
      <trkpt lat="47.13123" lon="5.85734">
        <ele>229.2</ele>
        <time>2024-08-05T09:11:18Z</time>
      </trkpt>
      <trkpt lat="47.13126" lon="5.85741">
        <ele>229.2</ele>
        <time>2024-08-05T09:11:19Z</time>
      </trkpt>
      <trkpt lat="47.13128" lon="5.85747">
        <ele>229</ele>
        <time>2024-08-05T09:11:20Z</time>
      </trkpt>
      <trkpt lat="47.13131" lon="5.85754">
        <ele>229</ele>
        <time>2024-08-05T09:11:21Z</time>
      </trkpt>
      <trkpt lat="47.13133" lon="5.85761">
        <ele>229.2</ele>
        <time>2024-08-05T09:11:22Z</time>
      </trkpt>
      <trkpt lat="47.13136" lon="5.85768">
        <ele>229.2</ele>
        <time>2024-08-05T09:11:23Z</time>
      </trkpt>
      <trkpt lat="47.13138" lon="5.85775">
        <ele>229</ele>
        <time>2024-08-05T09:11:24Z</time>
      </trkpt>
      <trkpt lat="47.1314" lon="5.85782">
        <ele>229</ele>
        <time>2024-08-05T09:11:25Z</time>
      </trkpt>
      <trkpt lat="47.13143" lon="5.85789">
        <ele>229</ele>
        <time>2024-08-05T09:11:26Z</time>
      </trkpt>
      <trkpt lat="47.13145" lon="5.85796">
        <ele>229.2</ele>
        <time>2024-08-05T09:11:27Z</time>
      </trkpt>
      <trkpt lat="47.13147" lon="5.85803">
        <ele>229</ele>
        <time>2024-08-05T09:11:28Z</time>
      </trkpt>
      <trkpt lat="47.1315" lon="5.8581">
        <ele>229.2</ele>
        <time>2024-08-05T09:11:29Z</time>
      </trkpt>
      <trkpt lat="47.13152" lon="5.85817">
        <ele>229</ele>
        <time>2024-08-05T09:11:30Z</time>
      </trkpt>
      <trkpt lat="47.13154" lon="5.85824">
        <ele>229.2</ele>
        <time>2024-08-05T09:11:31Z</time>
      </trkpt>
      <trkpt lat="47.13157" lon="5.85831">
        <ele>229</ele>
        <time>2024-08-05T09:11:32Z</time>
      </trkpt>
      <trkpt lat="47.13159" lon="5.85837">
        <ele>229</ele>
        <time>2024-08-05T09:11:33Z</time>
      </trkpt>
      <trkpt lat="47.13161" lon="5.85844">
        <ele>229</ele>
        <time>2024-08-05T09:11:34Z</time>
      </trkpt>
      <trkpt lat="47.13163" lon="5.85851">
        <ele>229</ele>
        <time>2024-08-05T09:11:35Z</time>
      </trkpt>
      <trkpt lat="47.13165" lon="5.85858">
        <ele>229.2</ele>
        <time>2024-08-05T09:11:36Z</time>
      </trkpt>
      <trkpt lat="47.13167" lon="5.85865">
        <ele>229</ele>
        <time>2024-08-05T09:11:37Z</time>
      </trkpt>
      <trkpt lat="47.13169" lon="5.85872">
        <ele>229</ele>
        <time>2024-08-05T09:11:38Z</time>
      </trkpt>
      <trkpt lat="47.1317" lon="5.85879">
        <ele>229.2</ele>
        <time>2024-08-05T09:11:39Z</time>
      </trkpt>
      <trkpt lat="47.13171" lon="5.85886">
        <ele>229</ele>
        <time>2024-08-05T09:11:40Z</time>
      </trkpt>
      <trkpt lat="47.13171" lon="5.85894">
        <ele>229.2</ele>
        <time>2024-08-05T09:11:41Z</time>
      </trkpt>
      <trkpt lat="47.13171" lon="5.85901">
        <ele>229</ele>
        <time>2024-08-05T09:11:42Z</time>
      </trkpt>
      <trkpt lat="47.13171" lon="5.85908">
        <ele>229</ele>
        <time>2024-08-05T09:11:43Z</time>
      </trkpt>
      <trkpt lat="47.13171" lon="5.85916">
        <ele>229</ele>
        <time>2024-08-05T09:11:44Z</time>
      </trkpt>
      <trkpt lat="47.13171" lon="5.85923">
        <ele>229.2</ele>
        <time>2024-08-05T09:11:45Z</time>
      </trkpt>
      <trkpt lat="47.13171" lon="5.8593">
        <ele>229</ele>
        <time>2024-08-05T09:11:46Z</time>
      </trkpt>
      <trkpt lat="47.13171" lon="5.85938">
        <ele>229.2</ele>
        <time>2024-08-05T09:11:47Z</time>
      </trkpt>
      <trkpt lat="47.13171" lon="5.85945">
        <ele>229</ele>
        <time>2024-08-05T09:11:48Z</time>
      </trkpt>
      <trkpt lat="47.13171" lon="5.85953">
        <ele>229.2</ele>
        <time>2024-08-05T09:11:49Z</time>
      </trkpt>
      <trkpt lat="47.13171" lon="5.85961">
        <ele>229</ele>
        <time>2024-08-05T09:11:50Z</time>
      </trkpt>
      <trkpt lat="47.13171" lon="5.85968">
        <ele>229.2</ele>
        <time>2024-08-05T09:11:51Z</time>
      </trkpt>
      <trkpt lat="47.13171" lon="5.85976">
        <ele>229.2</ele>
        <time>2024-08-05T09:11:52Z</time>
      </trkpt>
      <trkpt lat="47.1317" lon="5.85983">
        <ele>229.2</ele>
        <time>2024-08-05T09:11:53Z</time>
      </trkpt>
      <trkpt lat="47.13171" lon="5.85991">
        <ele>229.2</ele>
        <time>2024-08-05T09:11:54Z</time>
      </trkpt>
      <trkpt lat="47.13171" lon="5.85999">
        <ele>229.2</ele>
        <time>2024-08-05T09:11:55Z</time>
      </trkpt>
      <trkpt lat="47.13171" lon="5.86006">
        <ele>229.2</ele>
        <time>2024-08-05T09:11:56Z</time>
      </trkpt>
      <trkpt lat="47.13171" lon="5.86014">
        <ele>229.4</ele>
        <time>2024-08-05T09:11:57Z</time>
      </trkpt>
      <trkpt lat="47.1317" lon="5.86022">
        <ele>229.4</ele>
        <time>2024-08-05T09:11:58Z</time>
      </trkpt>
      <trkpt lat="47.1317" lon="5.8603">
        <ele>229.4</ele>
        <time>2024-08-05T09:11:59Z</time>
      </trkpt>
      <trkpt lat="47.1317" lon="5.86037">
        <ele>229.6</ele>
        <time>2024-08-05T09:12:00Z</time>
      </trkpt>
      <trkpt lat="47.13171" lon="5.86045">
        <ele>229.4</ele>
        <time>2024-08-05T09:12:01Z</time>
      </trkpt>
      <trkpt lat="47.13172" lon="5.86052">
        <ele>229.8</ele>
        <time>2024-08-05T09:12:02Z</time>
      </trkpt>
      <trkpt lat="47.13173" lon="5.8606">
        <ele>229.6</ele>
        <time>2024-08-05T09:12:03Z</time>
      </trkpt>
      <trkpt lat="47.13174" lon="5.86067">
        <ele>229.8</ele>
        <time>2024-08-05T09:12:04Z</time>
      </trkpt>
      <trkpt lat="47.13176" lon="5.86074">
        <ele>229.8</ele>
        <time>2024-08-05T09:12:05Z</time>
      </trkpt>
      <trkpt lat="47.13177" lon="5.86082">
        <ele>229.8</ele>
        <time>2024-08-05T09:12:06Z</time>
      </trkpt>
      <trkpt lat="47.13178" lon="5.86089">
        <ele>229.8</ele>
        <time>2024-08-05T09:12:07Z</time>
      </trkpt>
      <trkpt lat="47.1318" lon="5.86096">
        <ele>230</ele>
        <time>2024-08-05T09:12:08Z</time>
      </trkpt>
      <trkpt lat="47.13182" lon="5.86103">
        <ele>229.8</ele>
        <time>2024-08-05T09:12:09Z</time>
      </trkpt>
      <trkpt lat="47.13183" lon="5.8611">
        <ele>230</ele>
        <time>2024-08-05T09:12:10Z</time>
      </trkpt>
      <trkpt lat="47.13185" lon="5.86118">
        <ele>230</ele>
        <time>2024-08-05T09:12:11Z</time>
      </trkpt>
      <trkpt lat="47.13187" lon="5.86125">
        <ele>230</ele>
        <time>2024-08-05T09:12:12Z</time>
      </trkpt>
      <trkpt lat="47.13188" lon="5.86132">
        <ele>230</ele>
        <time>2024-08-05T09:12:13Z</time>
      </trkpt>
      <trkpt lat="47.1319" lon="5.86139">
        <ele>230.2</ele>
        <time>2024-08-05T09:12:14Z</time>
      </trkpt>
      <trkpt lat="47.13192" lon="5.86146">
        <ele>230</ele>
        <time>2024-08-05T09:12:15Z</time>
      </trkpt>
      <trkpt lat="47.13194" lon="5.86153">
        <ele>230</ele>
        <time>2024-08-05T09:12:16Z</time>
      </trkpt>
      <trkpt lat="47.13195" lon="5.86161">
        <ele>230.2</ele>
        <time>2024-08-05T09:12:17Z</time>
      </trkpt>
      <trkpt lat="47.13197" lon="5.86168">
        <ele>230.2</ele>
        <time>2024-08-05T09:12:18Z</time>
      </trkpt>
      <trkpt lat="47.13198" lon="5.86175">
        <ele>230.2</ele>
        <time>2024-08-05T09:12:19Z</time>
      </trkpt>
      <trkpt lat="47.132" lon="5.86183">
        <ele>230.4</ele>
        <time>2024-08-05T09:12:20Z</time>
      </trkpt>
      <trkpt lat="47.132" lon="5.8619">
        <ele>230.6</ele>
        <time>2024-08-05T09:12:21Z</time>
      </trkpt>
      <trkpt lat="47.13201" lon="5.86198">
        <ele>230.4</ele>
        <time>2024-08-05T09:12:22Z</time>
      </trkpt>
      <trkpt lat="47.13201" lon="5.86206">
        <ele>230.4</ele>
        <time>2024-08-05T09:12:23Z</time>
      </trkpt>
      <trkpt lat="47.13201" lon="5.86213">
        <ele>230.6</ele>
        <time>2024-08-05T09:12:24Z</time>
      </trkpt>
      <trkpt lat="47.13201" lon="5.86221">
        <ele>230.6</ele>
        <time>2024-08-05T09:12:25Z</time>
      </trkpt>
      <trkpt lat="47.13201" lon="5.86229">
        <ele>230.6</ele>
        <time>2024-08-05T09:12:26Z</time>
      </trkpt>
      <trkpt lat="47.132" lon="5.86237">
        <ele>230.6</ele>
        <time>2024-08-05T09:12:27Z</time>
      </trkpt>
      <trkpt lat="47.132" lon="5.86244">
        <ele>230.6</ele>
        <time>2024-08-05T09:12:28Z</time>
      </trkpt>
      <trkpt lat="47.13199" lon="5.86252">
        <ele>230.8</ele>
        <time>2024-08-05T09:12:29Z</time>
      </trkpt>
      <trkpt lat="47.13198" lon="5.8626">
        <ele>230.8</ele>
        <time>2024-08-05T09:12:30Z</time>
      </trkpt>
      <trkpt lat="47.13198" lon="5.86267">
        <ele>230.8</ele>
        <time>2024-08-05T09:12:31Z</time>
      </trkpt>
      <trkpt lat="47.13198" lon="5.86275">
        <ele>230.8</ele>
        <time>2024-08-05T09:12:32Z</time>
      </trkpt>
      <trkpt lat="47.13197" lon="5.86283">
        <ele>231</ele>
        <time>2024-08-05T09:12:33Z</time>
      </trkpt>
      <trkpt lat="47.13197" lon="5.8629">
        <ele>230.8</ele>
        <time>2024-08-05T09:12:34Z</time>
      </trkpt>
      <trkpt lat="47.13197" lon="5.86298">
        <ele>231.2</ele>
        <time>2024-08-05T09:12:35Z</time>
      </trkpt>
      <trkpt lat="47.13198" lon="5.86305">
        <ele>231</ele>
        <time>2024-08-05T09:12:36Z</time>
      </trkpt>
      <trkpt lat="47.13198" lon="5.86312">
        <ele>231.2</ele>
        <time>2024-08-05T09:12:37Z</time>
      </trkpt>
      <trkpt lat="47.13198" lon="5.86319">
        <ele>231.4</ele>
        <time>2024-08-05T09:12:38Z</time>
      </trkpt>
      <trkpt lat="47.13199" lon="5.86327">
        <ele>231.4</ele>
        <time>2024-08-05T09:12:39Z</time>
      </trkpt>
      <trkpt lat="47.13199" lon="5.86334">
        <ele>231.4</ele>
        <time>2024-08-05T09:12:40Z</time>
      </trkpt>
      <trkpt lat="47.132" lon="5.86341">
        <ele>231.4</ele>
        <time>2024-08-05T09:12:41Z</time>
      </trkpt>
      <trkpt lat="47.13201" lon="5.86348">
        <ele>231.6</ele>
        <time>2024-08-05T09:12:42Z</time>
      </trkpt>
      <trkpt lat="47.13201" lon="5.86355">
        <ele>231.8</ele>
        <time>2024-08-05T09:12:43Z</time>
      </trkpt>
      <trkpt lat="47.13202" lon="5.86362">
        <ele>232</ele>
        <time>2024-08-05T09:12:44Z</time>
      </trkpt>
      <trkpt lat="47.13203" lon="5.86369">
        <ele>232.2</ele>
        <time>2024-08-05T09:12:45Z</time>
      </trkpt>
      <trkpt lat="47.13203" lon="5.86376">
        <ele>232.2</ele>
        <time>2024-08-05T09:12:46Z</time>
      </trkpt>
      <trkpt lat="47.13204" lon="5.86383">
        <ele>232.4</ele>
        <time>2024-08-05T09:12:47Z</time>
      </trkpt>
      <trkpt lat="47.13204" lon="5.8639">
        <ele>232.4</ele>
        <time>2024-08-05T09:12:48Z</time>
      </trkpt>
      <trkpt lat="47.13205" lon="5.86397">
        <ele>232.4</ele>
        <time>2024-08-05T09:12:49Z</time>
      </trkpt>
      <trkpt lat="47.13205" lon="5.86404">
        <ele>232.4</ele>
        <time>2024-08-05T09:12:50Z</time>
      </trkpt>
      <trkpt lat="47.13206" lon="5.8641">
        <ele>232.6</ele>
        <time>2024-08-05T09:12:51Z</time>
      </trkpt>
      <trkpt lat="47.13206" lon="5.86417">
        <ele>232.8</ele>
        <time>2024-08-05T09:12:52Z</time>
      </trkpt>
      <trkpt lat="47.13207" lon="5.86423">
        <ele>233.2</ele>
        <time>2024-08-05T09:12:53Z</time>
      </trkpt>
      <trkpt lat="47.13207" lon="5.8643">
        <ele>233</ele>
        <time>2024-08-05T09:12:54Z</time>
      </trkpt>
      <trkpt lat="47.13207" lon="5.86436">
        <ele>233.4</ele>
        <time>2024-08-05T09:12:55Z</time>
      </trkpt>
      <trkpt lat="47.13208" lon="5.86442">
        <ele>233.4</ele>
        <time>2024-08-05T09:12:56Z</time>
      </trkpt>
      <trkpt lat="47.13209" lon="5.86448">
        <ele>233.4</ele>
        <time>2024-08-05T09:12:57Z</time>
      </trkpt>
      <trkpt lat="47.13209" lon="5.86454">
        <ele>233.6</ele>
        <time>2024-08-05T09:12:58Z</time>
      </trkpt>
      <trkpt lat="47.1321" lon="5.8646">
        <ele>233.6</ele>
        <time>2024-08-05T09:12:59Z</time>
      </trkpt>
      <trkpt lat="47.1321" lon="5.86466">
        <ele>233.6</ele>
        <time>2024-08-05T09:13:00Z</time>
      </trkpt>
      <trkpt lat="47.13211" lon="5.86473">
        <ele>233.6</ele>
        <time>2024-08-05T09:13:01Z</time>
      </trkpt>
      <trkpt lat="47.13211" lon="5.86479">
        <ele>233.8</ele>
        <time>2024-08-05T09:13:02Z</time>
      </trkpt>
      <trkpt lat="47.13212" lon="5.86485">
        <ele>233.6</ele>
        <time>2024-08-05T09:13:03Z</time>
      </trkpt>
      <trkpt lat="47.13212" lon="5.86491">
        <ele>233.8</ele>
        <time>2024-08-05T09:13:04Z</time>
      </trkpt>
      <trkpt lat="47.13212" lon="5.86497">
        <ele>233.8</ele>
        <time>2024-08-05T09:13:05Z</time>
      </trkpt>
      <trkpt lat="47.13212" lon="5.86509">
        <ele>233.8</ele>
        <time>2024-08-05T09:13:06Z</time>
      </trkpt>
      <trkpt lat="47.13212" lon="5.86509">
        <ele>234</ele>
        <time>2024-08-05T09:13:07Z</time>
      </trkpt>
      <trkpt lat="47.13212" lon="5.86515">
        <ele>234</ele>
        <time>2024-08-05T09:13:08Z</time>
      </trkpt>
      <trkpt lat="47.13212" lon="5.86521">
        <ele>234.2</ele>
        <time>2024-08-05T09:13:09Z</time>
      </trkpt>
      <trkpt lat="47.13212" lon="5.86527">
        <ele>234.2</ele>
        <time>2024-08-05T09:13:10Z</time>
      </trkpt>
      <trkpt lat="47.13212" lon="5.86538">
        <ele>234.4</ele>
        <time>2024-08-05T09:13:11Z</time>
      </trkpt>
      <trkpt lat="47.13212" lon="5.86538">
        <ele>234.4</ele>
        <time>2024-08-05T09:13:12Z</time>
      </trkpt>
      <trkpt lat="47.13212" lon="5.86544">
        <ele>234.4</ele>
        <time>2024-08-05T09:13:13Z</time>
      </trkpt>
      <trkpt lat="47.13211" lon="5.86549">
        <ele>234.6</ele>
        <time>2024-08-05T09:13:14Z</time>
      </trkpt>
      <trkpt lat="47.1321" lon="5.86554">
        <ele>234.8</ele>
        <time>2024-08-05T09:13:15Z</time>
      </trkpt>
      <trkpt lat="47.1321" lon="5.86558">
        <ele>235</ele>
        <time>2024-08-05T09:13:16Z</time>
      </trkpt>
      <trkpt lat="47.13209" lon="5.86563">
        <ele>235.2</ele>
        <time>2024-08-05T09:13:17Z</time>
      </trkpt>
      <trkpt lat="47.13209" lon="5.86567">
        <ele>235.2</ele>
        <time>2024-08-05T09:13:18Z</time>
      </trkpt>
      <trkpt lat="47.13208" lon="5.86572">
        <ele>235.4</ele>
        <time>2024-08-05T09:13:19Z</time>
      </trkpt>
      <trkpt lat="47.13205" lon="5.86583">
        <ele>235.6</ele>
        <time>2024-08-05T09:13:20Z</time>
      </trkpt>
      <trkpt lat="47.13205" lon="5.86583">
        <ele>235.8</ele>
        <time>2024-08-05T09:13:21Z</time>
      </trkpt>
      <trkpt lat="47.13204" lon="5.86588">
        <ele>236</ele>
        <time>2024-08-05T09:13:22Z</time>
      </trkpt>
      <trkpt lat="47.13203" lon="5.86592">
        <ele>236</ele>
        <time>2024-08-05T09:13:23Z</time>
      </trkpt>
      <trkpt lat="47.13201" lon="5.86597">
        <ele>236</ele>
        <time>2024-08-05T09:13:24Z</time>
      </trkpt>
      <trkpt lat="47.132" lon="5.86602">
        <ele>236</ele>
        <time>2024-08-05T09:13:25Z</time>
      </trkpt>
      <trkpt lat="47.13199" lon="5.86607">
        <ele>236</ele>
        <time>2024-08-05T09:13:26Z</time>
      </trkpt>
      <trkpt lat="47.13197" lon="5.86612">
        <ele>236.2</ele>
        <time>2024-08-05T09:13:27Z</time>
      </trkpt>
      <trkpt lat="47.13195" lon="5.86618">
        <ele>236.2</ele>
        <time>2024-08-05T09:13:28Z</time>
      </trkpt>
      <trkpt lat="47.13194" lon="5.86624">
        <ele>236.4</ele>
        <time>2024-08-05T09:13:29Z</time>
      </trkpt>
      <trkpt lat="47.13192" lon="5.86631">
        <ele>236.2</ele>
        <time>2024-08-05T09:13:30Z</time>
      </trkpt>
      <trkpt lat="47.1319" lon="5.86637">
        <ele>236.2</ele>
        <time>2024-08-05T09:13:31Z</time>
      </trkpt>
      <trkpt lat="47.13189" lon="5.86643">
        <ele>236.4</ele>
        <time>2024-08-05T09:13:32Z</time>
      </trkpt>
      <trkpt lat="47.13188" lon="5.86649">
        <ele>236.6</ele>
        <time>2024-08-05T09:13:33Z</time>
      </trkpt>
      <trkpt lat="47.13186" lon="5.86654">
        <ele>236.6</ele>
        <time>2024-08-05T09:13:34Z</time>
      </trkpt>
      <trkpt lat="47.13185" lon="5.8666">
        <ele>236.6</ele>
        <time>2024-08-05T09:13:35Z</time>
      </trkpt>
      <trkpt lat="47.13184" lon="5.86666">
        <ele>236.6</ele>
        <time>2024-08-05T09:13:36Z</time>
      </trkpt>
      <trkpt lat="47.13183" lon="5.86671">
        <ele>237</ele>
        <time>2024-08-05T09:13:37Z</time>
      </trkpt>
      <trkpt lat="47.13183" lon="5.86677">
        <ele>237.2</ele>
        <time>2024-08-05T09:13:38Z</time>
      </trkpt>
      <trkpt lat="47.13183" lon="5.86683">
        <ele>237</ele>
        <time>2024-08-05T09:13:39Z</time>
      </trkpt>
      <trkpt lat="47.13183" lon="5.8669">
        <ele>237.4</ele>
        <time>2024-08-05T09:13:40Z</time>
      </trkpt>
      <trkpt lat="47.13183" lon="5.86697">
        <ele>237.4</ele>
        <time>2024-08-05T09:13:41Z</time>
      </trkpt>
      <trkpt lat="47.13184" lon="5.86704">
        <ele>237.6</ele>
        <time>2024-08-05T09:13:42Z</time>
      </trkpt>
      <trkpt lat="47.13185" lon="5.86711">
        <ele>237.8</ele>
        <time>2024-08-05T09:13:43Z</time>
      </trkpt>
      <trkpt lat="47.13186" lon="5.86717">
        <ele>237.8</ele>
        <time>2024-08-05T09:13:44Z</time>
      </trkpt>
      <trkpt lat="47.13188" lon="5.86724">
        <ele>237.8</ele>
        <time>2024-08-05T09:13:45Z</time>
      </trkpt>
      <trkpt lat="47.13189" lon="5.86731">
        <ele>237.8</ele>
        <time>2024-08-05T09:13:46Z</time>
      </trkpt>
      <trkpt lat="47.1319" lon="5.86737">
        <ele>238</ele>
        <time>2024-08-05T09:13:47Z</time>
      </trkpt>
      <trkpt lat="47.1319" lon="5.86743">
        <ele>238.2</ele>
        <time>2024-08-05T09:13:48Z</time>
      </trkpt>
      <trkpt lat="47.13191" lon="5.8675">
        <ele>238.2</ele>
        <time>2024-08-05T09:13:49Z</time>
      </trkpt>
      <trkpt lat="47.13192" lon="5.86756">
        <ele>238</ele>
        <time>2024-08-05T09:13:50Z</time>
      </trkpt>
      <trkpt lat="47.13193" lon="5.86762">
        <ele>238.2</ele>
        <time>2024-08-05T09:13:51Z</time>
      </trkpt>
      <trkpt lat="47.13194" lon="5.86768">
        <ele>238.2</ele>
        <time>2024-08-05T09:13:52Z</time>
      </trkpt>
      <trkpt lat="47.13195" lon="5.86774">
        <ele>238.2</ele>
        <time>2024-08-05T09:13:53Z</time>
      </trkpt>
      <trkpt lat="47.13196" lon="5.86779">
        <ele>238.2</ele>
        <time>2024-08-05T09:13:54Z</time>
      </trkpt>
      <trkpt lat="47.13197" lon="5.86784">
        <ele>238.2</ele>
        <time>2024-08-05T09:13:55Z</time>
      </trkpt>
      <trkpt lat="47.13197" lon="5.8679">
        <ele>238.4</ele>
        <time>2024-08-05T09:13:56Z</time>
      </trkpt>
      <trkpt lat="47.13198" lon="5.86796">
        <ele>238.4</ele>
        <time>2024-08-05T09:13:57Z</time>
      </trkpt>
      <trkpt lat="47.13198" lon="5.86801">
        <ele>238.4</ele>
        <time>2024-08-05T09:13:58Z</time>
      </trkpt>
      <trkpt lat="47.13199" lon="5.86806">
        <ele>238.6</ele>
        <time>2024-08-05T09:13:59Z</time>
      </trkpt>
      <trkpt lat="47.13199" lon="5.86812">
        <ele>238.6</ele>
        <time>2024-08-05T09:14:00Z</time>
      </trkpt>
      <trkpt lat="47.132" lon="5.86818">
        <ele>238.6</ele>
        <time>2024-08-05T09:14:01Z</time>
      </trkpt>
      <trkpt lat="47.13199" lon="5.86824">
        <ele>238.6</ele>
        <time>2024-08-05T09:14:02Z</time>
      </trkpt>
      <trkpt lat="47.132" lon="5.8683">
        <ele>238.6</ele>
        <time>2024-08-05T09:14:03Z</time>
      </trkpt>
      <trkpt lat="47.13199" lon="5.86836">
        <ele>238.6</ele>
        <time>2024-08-05T09:14:04Z</time>
      </trkpt>
      <trkpt lat="47.13199" lon="5.86842">
        <ele>238.8</ele>
        <time>2024-08-05T09:14:05Z</time>
      </trkpt>
      <trkpt lat="47.13198" lon="5.86848">
        <ele>238.8</ele>
        <time>2024-08-05T09:14:06Z</time>
      </trkpt>
      <trkpt lat="47.13198" lon="5.86854">
        <ele>238.6</ele>
        <time>2024-08-05T09:14:07Z</time>
      </trkpt>
      <trkpt lat="47.13197" lon="5.8686">
        <ele>238.8</ele>
        <time>2024-08-05T09:14:08Z</time>
      </trkpt>
      <trkpt lat="47.13196" lon="5.86867">
        <ele>238.8</ele>
        <time>2024-08-05T09:14:09Z</time>
      </trkpt>
      <trkpt lat="47.13195" lon="5.86873">
        <ele>238.8</ele>
        <time>2024-08-05T09:14:10Z</time>
      </trkpt>
      <trkpt lat="47.13194" lon="5.86878">
        <ele>238.8</ele>
        <time>2024-08-05T09:14:11Z</time>
      </trkpt>
      <trkpt lat="47.13193" lon="5.86883">
        <ele>239</ele>
        <time>2024-08-05T09:14:12Z</time>
      </trkpt>
      <trkpt lat="47.13191" lon="5.86888">
        <ele>239</ele>
        <time>2024-08-05T09:14:13Z</time>
      </trkpt>
      <trkpt lat="47.1319" lon="5.86892">
        <ele>239</ele>
        <time>2024-08-05T09:14:14Z</time>
      </trkpt>
      <trkpt lat="47.13188" lon="5.86896">
        <ele>239</ele>
        <time>2024-08-05T09:14:15Z</time>
      </trkpt>
      <trkpt lat="47.13187" lon="5.86899">
        <ele>239</ele>
        <time>2024-08-05T09:14:16Z</time>
      </trkpt>
      <trkpt lat="47.13185" lon="5.86902">
        <ele>239</ele>
        <time>2024-08-05T09:14:17Z</time>
      </trkpt>
      <trkpt lat="47.13184" lon="5.86904">
        <ele>239.2</ele>
        <time>2024-08-05T09:14:18Z</time>
      </trkpt>
      <trkpt lat="47.13184" lon="5.86905">
        <ele>239.2</ele>
        <time>2024-08-05T09:14:19Z</time>
      </trkpt>
      <trkpt lat="47.13181" lon="5.86907">
        <ele>239.2</ele>
        <time>2024-08-05T09:14:20Z</time>
      </trkpt>
      <trkpt lat="47.13181" lon="5.86907">
        <ele>239.2</ele>
        <time>2024-08-05T09:14:21Z</time>
      </trkpt>
      <trkpt lat="47.13177" lon="5.86909">
        <ele>239.4</ele>
        <time>2024-08-05T09:14:22Z</time>
      </trkpt>
      <trkpt lat="47.13177" lon="5.86909">
        <ele>239.4</ele>
        <time>2024-08-05T09:14:23Z</time>
      </trkpt>
      <trkpt lat="47.13174" lon="5.86908">
        <ele>239.4</ele>
        <time>2024-08-05T09:14:24Z</time>
      </trkpt>
      <trkpt lat="47.13171" lon="5.86909">
        <ele>239.6</ele>
        <time>2024-08-05T09:14:25Z</time>
      </trkpt>
      <trkpt lat="47.13169" lon="5.86912">
        <ele>239.6</ele>
        <time>2024-08-05T09:14:26Z</time>
      </trkpt>
      <trkpt lat="47.13166" lon="5.8692">
        <ele>239.8</ele>
        <time>2024-08-05T09:14:27Z</time>
      </trkpt>
      <trkpt lat="47.13166" lon="5.8692">
        <ele>239.8</ele>
        <time>2024-08-05T09:14:28Z</time>
      </trkpt>
      <trkpt lat="47.13164" lon="5.86922">
        <ele>240</ele>
        <time>2024-08-05T09:14:29Z</time>
      </trkpt>
      <trkpt lat="47.13163" lon="5.86926">
        <ele>240</ele>
        <time>2024-08-05T09:14:30Z</time>
      </trkpt>
      <trkpt lat="47.13163" lon="5.8693">
        <ele>240.2</ele>
        <time>2024-08-05T09:14:31Z</time>
      </trkpt>
      <trkpt lat="47.13163" lon="5.86935">
        <ele>240.2</ele>
        <time>2024-08-05T09:14:32Z</time>
      </trkpt>
      <trkpt lat="47.13164" lon="5.8694">
        <ele>240.2</ele>
        <time>2024-08-05T09:14:33Z</time>
      </trkpt>
      <trkpt lat="47.13165" lon="5.86945">
        <ele>240.4</ele>
        <time>2024-08-05T09:14:34Z</time>
      </trkpt>
      <trkpt lat="47.13167" lon="5.8695">
        <ele>240.4</ele>
        <time>2024-08-05T09:14:35Z</time>
      </trkpt>
      <trkpt lat="47.13169" lon="5.86955">
        <ele>240.8</ele>
        <time>2024-08-05T09:14:36Z</time>
      </trkpt>
      <trkpt lat="47.13171" lon="5.8696">
        <ele>241</ele>
        <time>2024-08-05T09:14:37Z</time>
      </trkpt>
      <trkpt lat="47.13173" lon="5.86964">
        <ele>241</ele>
        <time>2024-08-05T09:14:38Z</time>
      </trkpt>
      <trkpt lat="47.13174" lon="5.86969">
        <ele>241</ele>
        <time>2024-08-05T09:14:39Z</time>
      </trkpt>
      <trkpt lat="47.13176" lon="5.86973">
        <ele>241</ele>
        <time>2024-08-05T09:14:40Z</time>
      </trkpt>
      <trkpt lat="47.13179" lon="5.86982">
        <ele>241</ele>
        <time>2024-08-05T09:14:41Z</time>
      </trkpt>
      <trkpt lat="47.13179" lon="5.86982">
        <ele>241</ele>
        <time>2024-08-05T09:14:42Z</time>
      </trkpt>
      <trkpt lat="47.1318" lon="5.86986">
        <ele>241</ele>
        <time>2024-08-05T09:14:43Z</time>
      </trkpt>
      <trkpt lat="47.13184" lon="5.86991">
        <ele>241</ele>
        <time>2024-08-05T09:14:44Z</time>
      </trkpt>
      <trkpt lat="47.13186" lon="5.86994">
        <ele>241.2</ele>
        <time>2024-08-05T09:14:45Z</time>
      </trkpt>
      <trkpt lat="47.13186" lon="5.86994">
        <ele>241.2</ele>
        <time>2024-08-05T09:14:46Z</time>
      </trkpt>
      <trkpt lat="47.13188" lon="5.86997">
        <ele>241</ele>
        <time>2024-08-05T09:14:47Z</time>
      </trkpt>
      <trkpt lat="47.1319" lon="5.87">
        <ele>241.2</ele>
        <time>2024-08-05T09:14:48Z</time>
      </trkpt>
      <trkpt lat="47.13192" lon="5.87003">
        <ele>241</ele>
        <time>2024-08-05T09:14:49Z</time>
      </trkpt>
      <trkpt lat="47.13194" lon="5.87007">
        <ele>241</ele>
        <time>2024-08-05T09:14:50Z</time>
      </trkpt>
      <trkpt lat="47.13196" lon="5.8701">
        <ele>241.2</ele>
        <time>2024-08-05T09:14:51Z</time>
      </trkpt>
      <trkpt lat="47.13198" lon="5.87013">
        <ele>241.2</ele>
        <time>2024-08-05T09:14:52Z</time>
      </trkpt>
      <trkpt lat="47.132" lon="5.87017">
        <ele>241.2</ele>
        <time>2024-08-05T09:14:53Z</time>
      </trkpt>
      <trkpt lat="47.13203" lon="5.8702">
        <ele>241.2</ele>
        <time>2024-08-05T09:14:54Z</time>
      </trkpt>
      <trkpt lat="47.13206" lon="5.87022">
        <ele>241.4</ele>
        <time>2024-08-05T09:14:55Z</time>
      </trkpt>
      <trkpt lat="47.13209" lon="5.87025">
        <ele>241.4</ele>
        <time>2024-08-05T09:14:56Z</time>
      </trkpt>
      <trkpt lat="47.13212" lon="5.87029">
        <ele>241.2</ele>
        <time>2024-08-05T09:14:57Z</time>
      </trkpt>
      <trkpt lat="47.13215" lon="5.87032">
        <ele>241.2</ele>
        <time>2024-08-05T09:14:58Z</time>
      </trkpt>
      <trkpt lat="47.13217" lon="5.87036">
        <ele>241.2</ele>
        <time>2024-08-05T09:14:59Z</time>
      </trkpt>
      <trkpt lat="47.1322" lon="5.8704">
        <ele>241.4</ele>
        <time>2024-08-05T09:15:00Z</time>
      </trkpt>
      <trkpt lat="47.13223" lon="5.87044">
        <ele>241.4</ele>
        <time>2024-08-05T09:15:01Z</time>
      </trkpt>
      <trkpt lat="47.13225" lon="5.87049">
        <ele>241.4</ele>
        <time>2024-08-05T09:15:02Z</time>
      </trkpt>
      <trkpt lat="47.13228" lon="5.87054">
        <ele>241.6</ele>
        <time>2024-08-05T09:15:03Z</time>
      </trkpt>
      <trkpt lat="47.13231" lon="5.87058">
        <ele>241.6</ele>
        <time>2024-08-05T09:15:04Z</time>
      </trkpt>
      <trkpt lat="47.13234" lon="5.87062">
        <ele>241.6</ele>
        <time>2024-08-05T09:15:05Z</time>
      </trkpt>
      <trkpt lat="47.13237" lon="5.87067">
        <ele>241.4</ele>
        <time>2024-08-05T09:15:06Z</time>
      </trkpt>
      <trkpt lat="47.1324" lon="5.87072">
        <ele>241.4</ele>
        <time>2024-08-05T09:15:07Z</time>
      </trkpt>
      <trkpt lat="47.13242" lon="5.87076">
        <ele>241.6</ele>
        <time>2024-08-05T09:15:08Z</time>
      </trkpt>
      <trkpt lat="47.13245" lon="5.87081">
        <ele>241.4</ele>
        <time>2024-08-05T09:15:09Z</time>
      </trkpt>
      <trkpt lat="47.13248" lon="5.87085">
        <ele>241.6</ele>
        <time>2024-08-05T09:15:10Z</time>
      </trkpt>
      <trkpt lat="47.1325" lon="5.87091">
        <ele>241.6</ele>
        <time>2024-08-05T09:15:11Z</time>
      </trkpt>
      <trkpt lat="47.13252" lon="5.87096">
        <ele>241.6</ele>
        <time>2024-08-05T09:15:12Z</time>
      </trkpt>
      <trkpt lat="47.13255" lon="5.87101">
        <ele>241.6</ele>
        <time>2024-08-05T09:15:13Z</time>
      </trkpt>
      <trkpt lat="47.13258" lon="5.87105">
        <ele>241.6</ele>
        <time>2024-08-05T09:15:14Z</time>
      </trkpt>
      <trkpt lat="47.13261" lon="5.87108">
        <ele>241.6</ele>
        <time>2024-08-05T09:15:15Z</time>
      </trkpt>
      <trkpt lat="47.13264" lon="5.87111">
        <ele>241.6</ele>
        <time>2024-08-05T09:15:16Z</time>
      </trkpt>
      <trkpt lat="47.13267" lon="5.87114">
        <ele>241.6</ele>
        <time>2024-08-05T09:15:17Z</time>
      </trkpt>
      <trkpt lat="47.1327" lon="5.87117">
        <ele>241.6</ele>
        <time>2024-08-05T09:15:18Z</time>
      </trkpt>
      <trkpt lat="47.13274" lon="5.8712">
        <ele>241.6</ele>
        <time>2024-08-05T09:15:19Z</time>
      </trkpt>
      <trkpt lat="47.13277" lon="5.87123">
        <ele>241.6</ele>
        <time>2024-08-05T09:15:20Z</time>
      </trkpt>
      <trkpt lat="47.13281" lon="5.87126">
        <ele>241.6</ele>
        <time>2024-08-05T09:15:21Z</time>
      </trkpt>
      <trkpt lat="47.13284" lon="5.87129">
        <ele>241.8</ele>
        <time>2024-08-05T09:15:22Z</time>
      </trkpt>
      <trkpt lat="47.13287" lon="5.87131">
        <ele>241.8</ele>
        <time>2024-08-05T09:15:23Z</time>
      </trkpt>
      <trkpt lat="47.13291" lon="5.87134">
        <ele>241.6</ele>
        <time>2024-08-05T09:15:24Z</time>
      </trkpt>
      <trkpt lat="47.13295" lon="5.87136">
        <ele>241.8</ele>
        <time>2024-08-05T09:15:25Z</time>
      </trkpt>
      <trkpt lat="47.13298" lon="5.87139">
        <ele>241.8</ele>
        <time>2024-08-05T09:15:26Z</time>
      </trkpt>
      <trkpt lat="47.13302" lon="5.87142">
        <ele>241.8</ele>
        <time>2024-08-05T09:15:27Z</time>
      </trkpt>
      <trkpt lat="47.13305" lon="5.87144">
        <ele>241.8</ele>
        <time>2024-08-05T09:15:28Z</time>
      </trkpt>
      <trkpt lat="47.13309" lon="5.87147">
        <ele>242</ele>
        <time>2024-08-05T09:15:29Z</time>
      </trkpt>
      <trkpt lat="47.13312" lon="5.8715">
        <ele>242</ele>
        <time>2024-08-05T09:15:30Z</time>
      </trkpt>
      <trkpt lat="47.13316" lon="5.87153">
        <ele>242</ele>
        <time>2024-08-05T09:15:31Z</time>
      </trkpt>
      <trkpt lat="47.13319" lon="5.87155">
        <ele>242</ele>
        <time>2024-08-05T09:15:32Z</time>
      </trkpt>
      <trkpt lat="47.13323" lon="5.87158">
        <ele>242.2</ele>
        <time>2024-08-05T09:15:33Z</time>
      </trkpt>
      <trkpt lat="47.13326" lon="5.8716">
        <ele>242.2</ele>
        <time>2024-08-05T09:15:34Z</time>
      </trkpt>
      <trkpt lat="47.1333" lon="5.87163">
        <ele>242.2</ele>
        <time>2024-08-05T09:15:35Z</time>
      </trkpt>
      <trkpt lat="47.13333" lon="5.87165">
        <ele>242.2</ele>
        <time>2024-08-05T09:15:36Z</time>
      </trkpt>
      <trkpt lat="47.13337" lon="5.87167">
        <ele>242.2</ele>
        <time>2024-08-05T09:15:37Z</time>
      </trkpt>
      <trkpt lat="47.1334" lon="5.87169">
        <ele>242.4</ele>
        <time>2024-08-05T09:15:38Z</time>
      </trkpt>
      <trkpt lat="47.13344" lon="5.87171">
        <ele>242.2</ele>
        <time>2024-08-05T09:15:39Z</time>
      </trkpt>
      <trkpt lat="47.13348" lon="5.87173">
        <ele>242.4</ele>
        <time>2024-08-05T09:15:40Z</time>
      </trkpt>
      <trkpt lat="47.13352" lon="5.87175">
        <ele>242.4</ele>
        <time>2024-08-05T09:15:41Z</time>
      </trkpt>
      <trkpt lat="47.13356" lon="5.87178">
        <ele>242.6</ele>
        <time>2024-08-05T09:15:42Z</time>
      </trkpt>
      <trkpt lat="47.13359" lon="5.87181">
        <ele>242.6</ele>
        <time>2024-08-05T09:15:43Z</time>
      </trkpt>
      <trkpt lat="47.13363" lon="5.87183">
        <ele>242.8</ele>
        <time>2024-08-05T09:15:44Z</time>
      </trkpt>
      <trkpt lat="47.13367" lon="5.87186">
        <ele>242.8</ele>
        <time>2024-08-05T09:15:45Z</time>
      </trkpt>
      <trkpt lat="47.1337" lon="5.87188">
        <ele>242.8</ele>
        <time>2024-08-05T09:15:46Z</time>
      </trkpt>
      <trkpt lat="47.13374" lon="5.8719">
        <ele>242.8</ele>
        <time>2024-08-05T09:15:47Z</time>
      </trkpt>
      <trkpt lat="47.13378" lon="5.87193">
        <ele>243</ele>
        <time>2024-08-05T09:15:48Z</time>
      </trkpt>
      <trkpt lat="47.13381" lon="5.87195">
        <ele>243</ele>
        <time>2024-08-05T09:15:49Z</time>
      </trkpt>
      <trkpt lat="47.13385" lon="5.87197">
        <ele>243</ele>
        <time>2024-08-05T09:15:50Z</time>
      </trkpt>
      <trkpt lat="47.13388" lon="5.87199">
        <ele>243.2</ele>
        <time>2024-08-05T09:15:51Z</time>
      </trkpt>
      <trkpt lat="47.13391" lon="5.87201">
        <ele>243.4</ele>
        <time>2024-08-05T09:15:52Z</time>
      </trkpt>
      <trkpt lat="47.13394" lon="5.87203">
        <ele>243.4</ele>
        <time>2024-08-05T09:15:53Z</time>
      </trkpt>
      <trkpt lat="47.13396" lon="5.87204">
        <ele>243.4</ele>
        <time>2024-08-05T09:15:54Z</time>
      </trkpt>
      <trkpt lat="47.13398" lon="5.87206">
        <ele>243.4</ele>
        <time>2024-08-05T09:15:55Z</time>
      </trkpt>
      <trkpt lat="47.134" lon="5.87208">
        <ele>243.4</ele>
        <time>2024-08-05T09:15:56Z</time>
      </trkpt>
      <trkpt lat="47.13402" lon="5.87211">
        <ele>243.4</ele>
        <time>2024-08-05T09:15:57Z</time>
      </trkpt>
      <trkpt lat="47.13404" lon="5.87214">
        <ele>243.6</ele>
        <time>2024-08-05T09:15:58Z</time>
      </trkpt>
      <trkpt lat="47.13406" lon="5.87217">
        <ele>243.6</ele>
        <time>2024-08-05T09:15:59Z</time>
      </trkpt>
      <trkpt lat="47.13407" lon="5.87221">
        <ele>243.6</ele>
        <time>2024-08-05T09:16:00Z</time>
      </trkpt>
      <trkpt lat="47.13408" lon="5.87224">
        <ele>243.8</ele>
        <time>2024-08-05T09:16:01Z</time>
      </trkpt>
      <trkpt lat="47.13409" lon="5.87228">
        <ele>243.8</ele>
        <time>2024-08-05T09:16:02Z</time>
      </trkpt>
      <trkpt lat="47.1341" lon="5.87231">
        <ele>243.8</ele>
        <time>2024-08-05T09:16:03Z</time>
      </trkpt>
      <trkpt lat="47.13411" lon="5.87235">
        <ele>244.2</ele>
        <time>2024-08-05T09:16:04Z</time>
      </trkpt>
      <trkpt lat="47.13411" lon="5.87238">
        <ele>244.4</ele>
        <time>2024-08-05T09:16:05Z</time>
      </trkpt>
      <trkpt lat="47.13412" lon="5.87242">
        <ele>244.4</ele>
        <time>2024-08-05T09:16:06Z</time>
      </trkpt>
      <trkpt lat="47.13412" lon="5.87246">
        <ele>244.6</ele>
        <time>2024-08-05T09:16:07Z</time>
      </trkpt>
      <trkpt lat="47.13412" lon="5.8725">
        <ele>244.6</ele>
        <time>2024-08-05T09:16:08Z</time>
      </trkpt>
      <trkpt lat="47.13412" lon="5.87254">
        <ele>244.8</ele>
        <time>2024-08-05T09:16:09Z</time>
      </trkpt>
      <trkpt lat="47.13413" lon="5.87258">
        <ele>244.8</ele>
        <time>2024-08-05T09:16:10Z</time>
      </trkpt>
      <trkpt lat="47.13413" lon="5.87261">
        <ele>245.2</ele>
        <time>2024-08-05T09:16:11Z</time>
      </trkpt>
      <trkpt lat="47.13413" lon="5.87265">
        <ele>245.6</ele>
        <time>2024-08-05T09:16:12Z</time>
      </trkpt>
      <trkpt lat="47.13413" lon="5.87268">
        <ele>246.2</ele>
        <time>2024-08-05T09:16:13Z</time>
      </trkpt>
      <trkpt lat="47.13412" lon="5.87271">
        <ele>246.4</ele>
        <time>2024-08-05T09:16:14Z</time>
      </trkpt>
      <trkpt lat="47.13412" lon="5.87274">
        <ele>246.8</ele>
        <time>2024-08-05T09:16:15Z</time>
      </trkpt>
      <trkpt lat="47.13411" lon="5.87277">
        <ele>246.8</ele>
        <time>2024-08-05T09:16:16Z</time>
      </trkpt>
      <trkpt lat="47.1341" lon="5.87281">
        <ele>247.2</ele>
        <time>2024-08-05T09:16:17Z</time>
      </trkpt>
      <trkpt lat="47.13409" lon="5.87284">
        <ele>247.2</ele>
        <time>2024-08-05T09:16:18Z</time>
      </trkpt>
      <trkpt lat="47.13408" lon="5.87288">
        <ele>247.4</ele>
        <time>2024-08-05T09:16:19Z</time>
      </trkpt>
      <trkpt lat="47.13407" lon="5.87291">
        <ele>247.8</ele>
        <time>2024-08-05T09:16:20Z</time>
      </trkpt>
      <trkpt lat="47.13407" lon="5.87295">
        <ele>247.8</ele>
        <time>2024-08-05T09:16:21Z</time>
      </trkpt>
      <trkpt lat="47.13405" lon="5.87298">
        <ele>248.2</ele>
        <time>2024-08-05T09:16:22Z</time>
      </trkpt>
      <trkpt lat="47.13404" lon="5.87302">
        <ele>248.6</ele>
        <time>2024-08-05T09:16:23Z</time>
      </trkpt>
      <trkpt lat="47.13403" lon="5.87305">
        <ele>248.8</ele>
        <time>2024-08-05T09:16:24Z</time>
      </trkpt>
      <trkpt lat="47.13402" lon="5.87309">
        <ele>248.8</ele>
        <time>2024-08-05T09:16:25Z</time>
      </trkpt>
      <trkpt lat="47.13402" lon="5.87312">
        <ele>249.2</ele>
        <time>2024-08-05T09:16:26Z</time>
      </trkpt>
      <trkpt lat="47.13402" lon="5.87316">
        <ele>249.6</ele>
        <time>2024-08-05T09:16:27Z</time>
      </trkpt>
      <trkpt lat="47.13402" lon="5.87319">
        <ele>249.8</ele>
        <time>2024-08-05T09:16:28Z</time>
      </trkpt>
      <trkpt lat="47.13402" lon="5.87322">
        <ele>250</ele>
        <time>2024-08-05T09:16:29Z</time>
      </trkpt>
      <trkpt lat="47.13402" lon="5.87326">
        <ele>250.2</ele>
        <time>2024-08-05T09:16:30Z</time>
      </trkpt>
      <trkpt lat="47.13402" lon="5.8733">
        <ele>250.8</ele>
        <time>2024-08-05T09:16:31Z</time>
      </trkpt>
      <trkpt lat="47.13403" lon="5.87337">
        <ele>251</ele>
        <time>2024-08-05T09:16:32Z</time>
      </trkpt>
      <trkpt lat="47.13404" lon="5.8734">
        <ele>251.2</ele>
        <time>2024-08-05T09:16:33Z</time>
      </trkpt>
      <trkpt lat="47.13405" lon="5.87343">
        <ele>251.4</ele>
        <time>2024-08-05T09:16:34Z</time>
      </trkpt>
      <trkpt lat="47.13405" lon="5.87343">
        <ele>251.8</ele>
        <time>2024-08-05T09:16:35Z</time>
      </trkpt>
      <trkpt lat="47.13406" lon="5.87344">
        <ele>252</ele>
        <time>2024-08-05T09:16:36Z</time>
      </trkpt>
      <trkpt lat="47.1341" lon="5.87348">
        <ele>252.4</ele>
        <time>2024-08-05T09:16:37Z</time>
      </trkpt>
      <trkpt lat="47.1341" lon="5.87348">
        <ele>252.8</ele>
        <time>2024-08-05T09:16:38Z</time>
      </trkpt>
      <trkpt lat="47.1341" lon="5.8735">
        <ele>253</ele>
        <time>2024-08-05T09:16:39Z</time>
      </trkpt>
      <trkpt lat="47.13407" lon="5.87356">
        <ele>253</ele>
        <time>2024-08-05T09:16:40Z</time>
      </trkpt>
      <trkpt lat="47.13407" lon="5.87356">
        <ele>253.2</ele>
        <time>2024-08-05T09:16:41Z</time>
      </trkpt>
      <trkpt lat="47.13406" lon="5.87359">
        <ele>253.6</ele>
        <time>2024-08-05T09:16:42Z</time>
      </trkpt>
      <trkpt lat="47.13404" lon="5.87362">
        <ele>253.8</ele>
        <time>2024-08-05T09:16:43Z</time>
      </trkpt>
      <trkpt lat="47.13402" lon="5.87364">
        <ele>254.2</ele>
        <time>2024-08-05T09:16:44Z</time>
      </trkpt>
      <trkpt lat="47.13399" lon="5.87367">
        <ele>254.4</ele>
        <time>2024-08-05T09:16:45Z</time>
      </trkpt>
      <trkpt lat="47.13397" lon="5.8737">
        <ele>254.6</ele>
        <time>2024-08-05T09:16:46Z</time>
      </trkpt>
      <trkpt lat="47.13395" lon="5.87373">
        <ele>255</ele>
        <time>2024-08-05T09:16:47Z</time>
      </trkpt>
      <trkpt lat="47.13393" lon="5.87376">
        <ele>255.2</ele>
        <time>2024-08-05T09:16:48Z</time>
      </trkpt>
      <trkpt lat="47.13391" lon="5.87379">
        <ele>255.6</ele>
        <time>2024-08-05T09:16:49Z</time>
      </trkpt>
      <trkpt lat="47.13388" lon="5.87383">
        <ele>256</ele>
        <time>2024-08-05T09:16:50Z</time>
      </trkpt>
      <trkpt lat="47.13387" lon="5.87386">
        <ele>256</ele>
        <time>2024-08-05T09:16:51Z</time>
      </trkpt>
      <trkpt lat="47.13385" lon="5.8739">
        <ele>256.6</ele>
        <time>2024-08-05T09:16:52Z</time>
      </trkpt>
      <trkpt lat="47.13384" lon="5.87393">
        <ele>257</ele>
        <time>2024-08-05T09:16:53Z</time>
      </trkpt>
      <trkpt lat="47.13382" lon="5.87396">
        <ele>257.4</ele>
        <time>2024-08-05T09:16:54Z</time>
      </trkpt>
      <trkpt lat="47.13381" lon="5.87398">
        <ele>257.8</ele>
        <time>2024-08-05T09:16:55Z</time>
      </trkpt>
      <trkpt lat="47.13379" lon="5.874">
        <ele>258</ele>
        <time>2024-08-05T09:16:56Z</time>
      </trkpt>
      <trkpt lat="47.13378" lon="5.87402">
        <ele>258.4</ele>
        <time>2024-08-05T09:16:57Z</time>
      </trkpt>
      <trkpt lat="47.13376" lon="5.87405">
        <ele>258.6</ele>
        <time>2024-08-05T09:16:58Z</time>
      </trkpt>
      <trkpt lat="47.13376" lon="5.87407">
        <ele>259</ele>
        <time>2024-08-05T09:16:59Z</time>
      </trkpt>
      <trkpt lat="47.13375" lon="5.87409">
        <ele>259.4</ele>
        <time>2024-08-05T09:17:00Z</time>
      </trkpt>
      <trkpt lat="47.13376" lon="5.87411">
        <ele>259.8</ele>
        <time>2024-08-05T09:17:01Z</time>
      </trkpt>
      <trkpt lat="47.13376" lon="5.87411">
        <ele>259.8</ele>
        <time>2024-08-05T09:17:02Z</time>
      </trkpt>
      <trkpt lat="47.13376" lon="5.87412">
        <ele>260.2</ele>
        <time>2024-08-05T09:17:03Z</time>
      </trkpt>
      <trkpt lat="47.13377" lon="5.87414">
        <ele>260.4</ele>
        <time>2024-08-05T09:17:04Z</time>
      </trkpt>
      <trkpt lat="47.13379" lon="5.87415">
        <ele>260.4</ele>
        <time>2024-08-05T09:17:05Z</time>
      </trkpt>
      <trkpt lat="47.13379" lon="5.87415">
        <ele>260.8</ele>
        <time>2024-08-05T09:17:06Z</time>
      </trkpt>
      <trkpt lat="47.1338" lon="5.87415">
        <ele>261.2</ele>
        <time>2024-08-05T09:17:07Z</time>
      </trkpt>
      <trkpt lat="47.13381" lon="5.87416">
        <ele>261.4</ele>
        <time>2024-08-05T09:17:08Z</time>
      </trkpt>
      <trkpt lat="47.13382" lon="5.87418">
        <ele>261.6</ele>
        <time>2024-08-05T09:17:09Z</time>
      </trkpt>
      <trkpt lat="47.13382" lon="5.87421">
        <ele>261.8</ele>
        <time>2024-08-05T09:17:10Z</time>
      </trkpt>
      <trkpt lat="47.1338" lon="5.87427">
        <ele>262</ele>
        <time>2024-08-05T09:17:11Z</time>
      </trkpt>
      <trkpt lat="47.13378" lon="5.87431">
        <ele>262</ele>
        <time>2024-08-05T09:17:12Z</time>
      </trkpt>
      <trkpt lat="47.13377" lon="5.87434">
        <ele>262</ele>
        <time>2024-08-05T09:17:13Z</time>
      </trkpt>
      <trkpt lat="47.13377" lon="5.87434">
        <ele>262</ele>
        <time>2024-08-05T09:17:14Z</time>
      </trkpt>
      <trkpt lat="47.13376" lon="5.87437">
        <ele>262.2</ele>
        <time>2024-08-05T09:17:15Z</time>
      </trkpt>
      <trkpt lat="47.13375" lon="5.8744">
        <ele>262</ele>
        <time>2024-08-05T09:17:16Z</time>
      </trkpt>
      <trkpt lat="47.13372" lon="5.87449">
        <ele>262.2</ele>
        <time>2024-08-05T09:17:17Z</time>
      </trkpt>
      <trkpt lat="47.13372" lon="5.87449">
        <ele>262.2</ele>
        <time>2024-08-05T09:17:18Z</time>
      </trkpt>
      <trkpt lat="47.13368" lon="5.87459">
        <ele>262</ele>
        <time>2024-08-05T09:17:19Z</time>
      </trkpt>
      <trkpt lat="47.13368" lon="5.87459">
        <ele>262</ele>
        <time>2024-08-05T09:17:20Z</time>
      </trkpt>
      <trkpt lat="47.13367" lon="5.87465">
        <ele>262</ele>
        <time>2024-08-05T09:17:21Z</time>
      </trkpt>
      <trkpt lat="47.13366" lon="5.87471">
        <ele>262</ele>
        <time>2024-08-05T09:17:22Z</time>
      </trkpt>
      <trkpt lat="47.13365" lon="5.87478">
        <ele>261.8</ele>
        <time>2024-08-05T09:17:23Z</time>
      </trkpt>
      <trkpt lat="47.13365" lon="5.87484">
        <ele>261.8</ele>
        <time>2024-08-05T09:17:24Z</time>
      </trkpt>
      <trkpt lat="47.13366" lon="5.87491">
        <ele>261.8</ele>
        <time>2024-08-05T09:17:25Z</time>
      </trkpt>
      <trkpt lat="47.13366" lon="5.87497">
        <ele>261.6</ele>
        <time>2024-08-05T09:17:26Z</time>
      </trkpt>
      <trkpt lat="47.13367" lon="5.87504">
        <ele>261.4</ele>
        <time>2024-08-05T09:17:27Z</time>
      </trkpt>
      <trkpt lat="47.13368" lon="5.8751">
        <ele>261.4</ele>
        <time>2024-08-05T09:17:28Z</time>
      </trkpt>
      <trkpt lat="47.13368" lon="5.87515">
        <ele>261.4</ele>
        <time>2024-08-05T09:17:29Z</time>
      </trkpt>
      <trkpt lat="47.13368" lon="5.87521">
        <ele>261.4</ele>
        <time>2024-08-05T09:17:30Z</time>
      </trkpt>
      <trkpt lat="47.13369" lon="5.87526">
        <ele>261.2</ele>
        <time>2024-08-05T09:17:31Z</time>
      </trkpt>
      <trkpt lat="47.13368" lon="5.87531">
        <ele>261.4</ele>
        <time>2024-08-05T09:17:32Z</time>
      </trkpt>
      <trkpt lat="47.13368" lon="5.87536">
        <ele>261.4</ele>
        <time>2024-08-05T09:17:33Z</time>
      </trkpt>
      <trkpt lat="47.13367" lon="5.87541">
        <ele>261.2</ele>
        <time>2024-08-05T09:17:34Z</time>
      </trkpt>
      <trkpt lat="47.13367" lon="5.87546">
        <ele>261.2</ele>
        <time>2024-08-05T09:17:35Z</time>
      </trkpt>
      <trkpt lat="47.13366" lon="5.87551">
        <ele>261.2</ele>
        <time>2024-08-05T09:17:36Z</time>
      </trkpt>
      <trkpt lat="47.13365" lon="5.87556">
        <ele>261.4</ele>
        <time>2024-08-05T09:17:37Z</time>
      </trkpt>
      <trkpt lat="47.13365" lon="5.87561">
        <ele>261.4</ele>
        <time>2024-08-05T09:17:38Z</time>
      </trkpt>
      <trkpt lat="47.13364" lon="5.87566">
        <ele>261.4</ele>
        <time>2024-08-05T09:17:39Z</time>
      </trkpt>
      <trkpt lat="47.13363" lon="5.87571">
        <ele>261.4</ele>
        <time>2024-08-05T09:17:40Z</time>
      </trkpt>
      <trkpt lat="47.13362" lon="5.87575">
        <ele>261.4</ele>
        <time>2024-08-05T09:17:41Z</time>
      </trkpt>
      <trkpt lat="47.13361" lon="5.8758">
        <ele>261.6</ele>
        <time>2024-08-05T09:17:42Z</time>
      </trkpt>
      <trkpt lat="47.13359" lon="5.87584">
        <ele>261.8</ele>
        <time>2024-08-05T09:17:43Z</time>
      </trkpt>
      <trkpt lat="47.13358" lon="5.87589">
        <ele>262</ele>
        <time>2024-08-05T09:17:44Z</time>
      </trkpt>
      <trkpt lat="47.13357" lon="5.87593">
        <ele>262.2</ele>
        <time>2024-08-05T09:17:45Z</time>
      </trkpt>
      <trkpt lat="47.13355" lon="5.87598">
        <ele>262.2</ele>
        <time>2024-08-05T09:17:46Z</time>
      </trkpt>
      <trkpt lat="47.13353" lon="5.87602">
        <ele>262.4</ele>
        <time>2024-08-05T09:17:47Z</time>
      </trkpt>
      <trkpt lat="47.13352" lon="5.87606">
        <ele>262.4</ele>
        <time>2024-08-05T09:17:48Z</time>
      </trkpt>
      <trkpt lat="47.13351" lon="5.87611">
        <ele>262.6</ele>
        <time>2024-08-05T09:17:49Z</time>
      </trkpt>
      <trkpt lat="47.13349" lon="5.87615">
        <ele>262.8</ele>
        <time>2024-08-05T09:17:50Z</time>
      </trkpt>
      <trkpt lat="47.13348" lon="5.8762">
        <ele>263</ele>
        <time>2024-08-05T09:17:51Z</time>
      </trkpt>
      <trkpt lat="47.13346" lon="5.87624">
        <ele>263.4</ele>
        <time>2024-08-05T09:17:52Z</time>
      </trkpt>
      <trkpt lat="47.13344" lon="5.87629">
        <ele>263.4</ele>
        <time>2024-08-05T09:17:53Z</time>
      </trkpt>
      <trkpt lat="47.13343" lon="5.87633">
        <ele>263.6</ele>
        <time>2024-08-05T09:17:54Z</time>
      </trkpt>
      <trkpt lat="47.13341" lon="5.87637">
        <ele>263.8</ele>
        <time>2024-08-05T09:17:55Z</time>
      </trkpt>
      <trkpt lat="47.1334" lon="5.87641">
        <ele>263.6</ele>
        <time>2024-08-05T09:17:56Z</time>
      </trkpt>
      <trkpt lat="47.13338" lon="5.87645">
        <ele>263.8</ele>
        <time>2024-08-05T09:17:57Z</time>
      </trkpt>
      <trkpt lat="47.13337" lon="5.87649">
        <ele>264</ele>
        <time>2024-08-05T09:17:58Z</time>
      </trkpt>
      <trkpt lat="47.13335" lon="5.87653">
        <ele>264.2</ele>
        <time>2024-08-05T09:17:59Z</time>
      </trkpt>
      <trkpt lat="47.13334" lon="5.87657">
        <ele>264.2</ele>
        <time>2024-08-05T09:18:00Z</time>
      </trkpt>
      <trkpt lat="47.13333" lon="5.87662">
        <ele>264.4</ele>
        <time>2024-08-05T09:18:01Z</time>
      </trkpt>
      <trkpt lat="47.13331" lon="5.87666">
        <ele>264.6</ele>
        <time>2024-08-05T09:18:02Z</time>
      </trkpt>
      <trkpt lat="47.1333" lon="5.87669">
        <ele>264.6</ele>
        <time>2024-08-05T09:18:03Z</time>
      </trkpt>
      <trkpt lat="47.13329" lon="5.87673">
        <ele>264.8</ele>
        <time>2024-08-05T09:18:04Z</time>
      </trkpt>
      <trkpt lat="47.13328" lon="5.87677">
        <ele>265</ele>
        <time>2024-08-05T09:18:05Z</time>
      </trkpt>
      <trkpt lat="47.13326" lon="5.87681">
        <ele>265</ele>
        <time>2024-08-05T09:18:06Z</time>
      </trkpt>
      <trkpt lat="47.13325" lon="5.87684">
        <ele>265.2</ele>
        <time>2024-08-05T09:18:07Z</time>
      </trkpt>
      <trkpt lat="47.13324" lon="5.87688">
        <ele>265.2</ele>
        <time>2024-08-05T09:18:08Z</time>
      </trkpt>
      <trkpt lat="47.13322" lon="5.87692">
        <ele>265.2</ele>
        <time>2024-08-05T09:18:09Z</time>
      </trkpt>
      <trkpt lat="47.13321" lon="5.87696">
        <ele>265.4</ele>
        <time>2024-08-05T09:18:10Z</time>
      </trkpt>
      <trkpt lat="47.1332" lon="5.87699">
        <ele>265.8</ele>
        <time>2024-08-05T09:18:11Z</time>
      </trkpt>
      <trkpt lat="47.13319" lon="5.87703">
        <ele>266</ele>
        <time>2024-08-05T09:18:12Z</time>
      </trkpt>
      <trkpt lat="47.13317" lon="5.87707">
        <ele>266.2</ele>
        <time>2024-08-05T09:18:13Z</time>
      </trkpt>
      <trkpt lat="47.13316" lon="5.8771">
        <ele>266.4</ele>
        <time>2024-08-05T09:18:14Z</time>
      </trkpt>
      <trkpt lat="47.13315" lon="5.87714">
        <ele>266.6</ele>
        <time>2024-08-05T09:18:15Z</time>
      </trkpt>
      <trkpt lat="47.13314" lon="5.87718">
        <ele>266.8</ele>
        <time>2024-08-05T09:18:16Z</time>
      </trkpt>
      <trkpt lat="47.13314" lon="5.87722">
        <ele>267</ele>
        <time>2024-08-05T09:18:17Z</time>
      </trkpt>
      <trkpt lat="47.13313" lon="5.87727">
        <ele>267.2</ele>
        <time>2024-08-05T09:18:18Z</time>
      </trkpt>
      <trkpt lat="47.13312" lon="5.87731">
        <ele>267.4</ele>
        <time>2024-08-05T09:18:19Z</time>
      </trkpt>
      <trkpt lat="47.13312" lon="5.87736">
        <ele>267.8</ele>
        <time>2024-08-05T09:18:20Z</time>
      </trkpt>
      <trkpt lat="47.13311" lon="5.8774">
        <ele>268</ele>
        <time>2024-08-05T09:18:21Z</time>
      </trkpt>
      <trkpt lat="47.13311" lon="5.87745">
        <ele>268</ele>
        <time>2024-08-05T09:18:22Z</time>
      </trkpt>
      <trkpt lat="47.1331" lon="5.87751">
        <ele>268.2</ele>
        <time>2024-08-05T09:18:23Z</time>
      </trkpt>
      <trkpt lat="47.1331" lon="5.87756">
        <ele>268.6</ele>
        <time>2024-08-05T09:18:24Z</time>
      </trkpt>
      <trkpt lat="47.1331" lon="5.87761">
        <ele>268.8</ele>
        <time>2024-08-05T09:18:25Z</time>
      </trkpt>
      <trkpt lat="47.13309" lon="5.87766">
        <ele>269</ele>
        <time>2024-08-05T09:18:26Z</time>
      </trkpt>
      <trkpt lat="47.1331" lon="5.87771">
        <ele>269.2</ele>
        <time>2024-08-05T09:18:27Z</time>
      </trkpt>
      <trkpt lat="47.1331" lon="5.87776">
        <ele>269.4</ele>
        <time>2024-08-05T09:18:28Z</time>
      </trkpt>
      <trkpt lat="47.13311" lon="5.8778">
        <ele>269.6</ele>
        <time>2024-08-05T09:18:29Z</time>
      </trkpt>
      <trkpt lat="47.13312" lon="5.87785">
        <ele>269.6</ele>
        <time>2024-08-05T09:18:30Z</time>
      </trkpt>
      <trkpt lat="47.13312" lon="5.8779">
        <ele>269.6</ele>
        <time>2024-08-05T09:18:31Z</time>
      </trkpt>
      <trkpt lat="47.13313" lon="5.87795">
        <ele>269.8</ele>
        <time>2024-08-05T09:18:32Z</time>
      </trkpt>
      <trkpt lat="47.13314" lon="5.87801">
        <ele>270</ele>
        <time>2024-08-05T09:18:33Z</time>
      </trkpt>
      <trkpt lat="47.13315" lon="5.87806">
        <ele>270.2</ele>
        <time>2024-08-05T09:18:34Z</time>
      </trkpt>
      <trkpt lat="47.13316" lon="5.87811">
        <ele>270.2</ele>
        <time>2024-08-05T09:18:35Z</time>
      </trkpt>
      <trkpt lat="47.13317" lon="5.87816">
        <ele>270.2</ele>
        <time>2024-08-05T09:18:36Z</time>
      </trkpt>
      <trkpt lat="47.13317" lon="5.87822">
        <ele>270.4</ele>
        <time>2024-08-05T09:18:37Z</time>
      </trkpt>
      <trkpt lat="47.13318" lon="5.87827">
        <ele>270.6</ele>
        <time>2024-08-05T09:18:38Z</time>
      </trkpt>
      <trkpt lat="47.13318" lon="5.87832">
        <ele>270.6</ele>
        <time>2024-08-05T09:18:39Z</time>
      </trkpt>
      <trkpt lat="47.13318" lon="5.87837">
        <ele>270.6</ele>
        <time>2024-08-05T09:18:40Z</time>
      </trkpt>
      <trkpt lat="47.13318" lon="5.87842">
        <ele>270.8</ele>
        <time>2024-08-05T09:18:41Z</time>
      </trkpt>
      <trkpt lat="47.13317" lon="5.87847">
        <ele>271</ele>
        <time>2024-08-05T09:18:42Z</time>
      </trkpt>
      <trkpt lat="47.13317" lon="5.87852">
        <ele>271</ele>
        <time>2024-08-05T09:18:43Z</time>
      </trkpt>
      <trkpt lat="47.13316" lon="5.87857">
        <ele>271.2</ele>
        <time>2024-08-05T09:18:44Z</time>
      </trkpt>
      <trkpt lat="47.13315" lon="5.87862">
        <ele>271.2</ele>
        <time>2024-08-05T09:18:45Z</time>
      </trkpt>
      <trkpt lat="47.13315" lon="5.87867">
        <ele>271.2</ele>
        <time>2024-08-05T09:18:46Z</time>
      </trkpt>
      <trkpt lat="47.13314" lon="5.87872">
        <ele>271.4</ele>
        <time>2024-08-05T09:18:47Z</time>
      </trkpt>
      <trkpt lat="47.13314" lon="5.87876">
        <ele>271.4</ele>
        <time>2024-08-05T09:18:48Z</time>
      </trkpt>
      <trkpt lat="47.13312" lon="5.87885">
        <ele>271.6</ele>
        <time>2024-08-05T09:18:49Z</time>
      </trkpt>
      <trkpt lat="47.13312" lon="5.87885">
        <ele>271.8</ele>
        <time>2024-08-05T09:18:50Z</time>
      </trkpt>
      <trkpt lat="47.13311" lon="5.87889">
        <ele>271.8</ele>
        <time>2024-08-05T09:18:51Z</time>
      </trkpt>
      <trkpt lat="47.13311" lon="5.87894">
        <ele>271.8</ele>
        <time>2024-08-05T09:18:52Z</time>
      </trkpt>
      <trkpt lat="47.1331" lon="5.87898">
        <ele>272.2</ele>
        <time>2024-08-05T09:18:53Z</time>
      </trkpt>
      <trkpt lat="47.13309" lon="5.87903">
        <ele>272.4</ele>
        <time>2024-08-05T09:18:54Z</time>
      </trkpt>
      <trkpt lat="47.13308" lon="5.87907">
        <ele>272.6</ele>
        <time>2024-08-05T09:18:55Z</time>
      </trkpt>
      <trkpt lat="47.13308" lon="5.87911">
        <ele>272.8</ele>
        <time>2024-08-05T09:18:56Z</time>
      </trkpt>
      <trkpt lat="47.13307" lon="5.87916">
        <ele>273</ele>
        <time>2024-08-05T09:18:57Z</time>
      </trkpt>
      <trkpt lat="47.13306" lon="5.8792">
        <ele>273.2</ele>
        <time>2024-08-05T09:18:58Z</time>
      </trkpt>
      <trkpt lat="47.13305" lon="5.87924">
        <ele>273.2</ele>
        <time>2024-08-05T09:18:59Z</time>
      </trkpt>
      <trkpt lat="47.13304" lon="5.87928">
        <ele>273.2</ele>
        <time>2024-08-05T09:19:00Z</time>
      </trkpt>
      <trkpt lat="47.13304" lon="5.87932">
        <ele>273.4</ele>
        <time>2024-08-05T09:19:01Z</time>
      </trkpt>
      <trkpt lat="47.13303" lon="5.87936">
        <ele>273.4</ele>
        <time>2024-08-05T09:19:02Z</time>
      </trkpt>
      <trkpt lat="47.13302" lon="5.8794">
        <ele>273.6</ele>
        <time>2024-08-05T09:19:03Z</time>
      </trkpt>
      <trkpt lat="47.13301" lon="5.87944">
        <ele>273.6</ele>
        <time>2024-08-05T09:19:04Z</time>
      </trkpt>
      <trkpt lat="47.133" lon="5.87949">
        <ele>274</ele>
        <time>2024-08-05T09:19:05Z</time>
      </trkpt>
      <trkpt lat="47.13299" lon="5.87953">
        <ele>274</ele>
        <time>2024-08-05T09:19:06Z</time>
      </trkpt>
      <trkpt lat="47.13299" lon="5.87957">
        <ele>274.4</ele>
        <time>2024-08-05T09:19:07Z</time>
      </trkpt>
      <trkpt lat="47.13298" lon="5.87962">
        <ele>274.4</ele>
        <time>2024-08-05T09:19:08Z</time>
      </trkpt>
      <trkpt lat="47.13296" lon="5.87966">
        <ele>274.4</ele>
        <time>2024-08-05T09:19:09Z</time>
      </trkpt>
      <trkpt lat="47.13295" lon="5.8797">
        <ele>274.8</ele>
        <time>2024-08-05T09:19:10Z</time>
      </trkpt>
      <trkpt lat="47.13294" lon="5.87975">
        <ele>275.2</ele>
        <time>2024-08-05T09:19:11Z</time>
      </trkpt>
      <trkpt lat="47.13293" lon="5.8798">
        <ele>275.2</ele>
        <time>2024-08-05T09:19:12Z</time>
      </trkpt>
      <trkpt lat="47.13291" lon="5.87984">
        <ele>275.6</ele>
        <time>2024-08-05T09:19:13Z</time>
      </trkpt>
      <trkpt lat="47.1329" lon="5.87989">
        <ele>275.6</ele>
        <time>2024-08-05T09:19:14Z</time>
      </trkpt>
      <trkpt lat="47.13289" lon="5.87994">
        <ele>275.6</ele>
        <time>2024-08-05T09:19:15Z</time>
      </trkpt>
      <trkpt lat="47.13288" lon="5.87999">
        <ele>275.8</ele>
        <time>2024-08-05T09:19:16Z</time>
      </trkpt>
      <trkpt lat="47.13286" lon="5.88004">
        <ele>275.8</ele>
        <time>2024-08-05T09:19:17Z</time>
      </trkpt>
      <trkpt lat="47.13285" lon="5.8801">
        <ele>276</ele>
        <time>2024-08-05T09:19:18Z</time>
      </trkpt>
      <trkpt lat="47.13284" lon="5.88015">
        <ele>276</ele>
        <time>2024-08-05T09:19:19Z</time>
      </trkpt>
      <trkpt lat="47.13282" lon="5.8802">
        <ele>275.8</ele>
        <time>2024-08-05T09:19:20Z</time>
      </trkpt>
      <trkpt lat="47.13281" lon="5.88026">
        <ele>276</ele>
        <time>2024-08-05T09:19:21Z</time>
      </trkpt>
      <trkpt lat="47.1328" lon="5.88031">
        <ele>276</ele>
        <time>2024-08-05T09:19:22Z</time>
      </trkpt>
      <trkpt lat="47.13278" lon="5.88037">
        <ele>276</ele>
        <time>2024-08-05T09:19:23Z</time>
      </trkpt>
      <trkpt lat="47.13277" lon="5.88043">
        <ele>276.2</ele>
        <time>2024-08-05T09:19:24Z</time>
      </trkpt>
      <trkpt lat="47.13276" lon="5.88048">
        <ele>276</ele>
        <time>2024-08-05T09:19:25Z</time>
      </trkpt>
      <trkpt lat="47.13275" lon="5.88054">
        <ele>276</ele>
        <time>2024-08-05T09:19:26Z</time>
      </trkpt>
      <trkpt lat="47.13274" lon="5.88059">
        <ele>276</ele>
        <time>2024-08-05T09:19:27Z</time>
      </trkpt>
      <trkpt lat="47.13273" lon="5.88065">
        <ele>276.2</ele>
        <time>2024-08-05T09:19:28Z</time>
      </trkpt>
      <trkpt lat="47.13272" lon="5.8807">
        <ele>276.2</ele>
        <time>2024-08-05T09:19:29Z</time>
      </trkpt>
      <trkpt lat="47.1327" lon="5.88075">
        <ele>276</ele>
        <time>2024-08-05T09:19:30Z</time>
      </trkpt>
      <trkpt lat="47.13269" lon="5.88079">
        <ele>276.4</ele>
        <time>2024-08-05T09:19:31Z</time>
      </trkpt>
      <trkpt lat="47.13268" lon="5.88083">
        <ele>276.2</ele>
        <time>2024-08-05T09:19:32Z</time>
      </trkpt>
      <trkpt lat="47.13267" lon="5.88087">
        <ele>276.4</ele>
        <time>2024-08-05T09:19:33Z</time>
      </trkpt>
      <trkpt lat="47.13266" lon="5.88092">
        <ele>276.4</ele>
        <time>2024-08-05T09:19:34Z</time>
      </trkpt>
      <trkpt lat="47.13264" lon="5.881">
        <ele>276.6</ele>
        <time>2024-08-05T09:19:35Z</time>
      </trkpt>
      <trkpt lat="47.13264" lon="5.881">
        <ele>276.6</ele>
        <time>2024-08-05T09:19:36Z</time>
      </trkpt>
      <trkpt lat="47.13263" lon="5.88104">
        <ele>276.8</ele>
        <time>2024-08-05T09:19:37Z</time>
      </trkpt>
      <trkpt lat="47.13262" lon="5.88108">
        <ele>277</ele>
        <time>2024-08-05T09:19:38Z</time>
      </trkpt>
      <trkpt lat="47.13261" lon="5.88112">
        <ele>277</ele>
        <time>2024-08-05T09:19:39Z</time>
      </trkpt>
      <trkpt lat="47.13259" lon="5.88115">
        <ele>277</ele>
        <time>2024-08-05T09:19:40Z</time>
      </trkpt>
      <trkpt lat="47.13258" lon="5.88119">
        <ele>277.2</ele>
        <time>2024-08-05T09:19:41Z</time>
      </trkpt>
      <trkpt lat="47.13256" lon="5.88123">
        <ele>277.4</ele>
        <time>2024-08-05T09:19:42Z</time>
      </trkpt>
      <trkpt lat="47.13255" lon="5.88126">
        <ele>277.6</ele>
        <time>2024-08-05T09:19:43Z</time>
      </trkpt>
      <trkpt lat="47.13251" lon="5.88133">
        <ele>277.8</ele>
        <time>2024-08-05T09:19:44Z</time>
      </trkpt>
      <trkpt lat="47.13251" lon="5.88133">
        <ele>277.8</ele>
        <time>2024-08-05T09:19:45Z</time>
      </trkpt>
      <trkpt lat="47.13249" lon="5.88136">
        <ele>278.2</ele>
        <time>2024-08-05T09:19:46Z</time>
      </trkpt>
      <trkpt lat="47.13248" lon="5.8814">
        <ele>278.4</ele>
        <time>2024-08-05T09:19:47Z</time>
      </trkpt>
      <trkpt lat="47.13246" lon="5.88143">
        <ele>278.6</ele>
        <time>2024-08-05T09:19:48Z</time>
      </trkpt>
      <trkpt lat="47.13244" lon="5.88147">
        <ele>278.6</ele>
        <time>2024-08-05T09:19:49Z</time>
      </trkpt>
      <trkpt lat="47.13243" lon="5.8815">
        <ele>278.8</ele>
        <time>2024-08-05T09:19:50Z</time>
      </trkpt>
      <trkpt lat="47.13241" lon="5.88153">
        <ele>278.8</ele>
        <time>2024-08-05T09:19:51Z</time>
      </trkpt>
      <trkpt lat="47.1324" lon="5.88156">
        <ele>279</ele>
        <time>2024-08-05T09:19:52Z</time>
      </trkpt>
      <trkpt lat="47.13238" lon="5.88159">
        <ele>279.2</ele>
        <time>2024-08-05T09:19:53Z</time>
      </trkpt>
      <trkpt lat="47.13236" lon="5.88162">
        <ele>279.4</ele>
        <time>2024-08-05T09:19:54Z</time>
      </trkpt>
      <trkpt lat="47.13234" lon="5.88166">
        <ele>279.4</ele>
        <time>2024-08-05T09:19:55Z</time>
      </trkpt>
      <trkpt lat="47.13232" lon="5.88169">
        <ele>279.4</ele>
        <time>2024-08-05T09:19:56Z</time>
      </trkpt>
      <trkpt lat="47.13231" lon="5.88172">
        <ele>279.4</ele>
        <time>2024-08-05T09:19:57Z</time>
      </trkpt>
      <trkpt lat="47.13229" lon="5.88175">
        <ele>279.6</ele>
        <time>2024-08-05T09:19:58Z</time>
      </trkpt>
      <trkpt lat="47.13228" lon="5.88178">
        <ele>280</ele>
        <time>2024-08-05T09:19:59Z</time>
      </trkpt>
      <trkpt lat="47.13226" lon="5.88181">
        <ele>280.2</ele>
        <time>2024-08-05T09:20:00Z</time>
      </trkpt>
      <trkpt lat="47.13225" lon="5.88184">
        <ele>280.2</ele>
        <time>2024-08-05T09:20:01Z</time>
      </trkpt>
      <trkpt lat="47.13223" lon="5.88187">
        <ele>280.4</ele>
        <time>2024-08-05T09:20:02Z</time>
      </trkpt>
      <trkpt lat="47.13221" lon="5.8819">
        <ele>280.6</ele>
        <time>2024-08-05T09:20:03Z</time>
      </trkpt>
      <trkpt lat="47.1322" lon="5.88193">
        <ele>280.4</ele>
        <time>2024-08-05T09:20:04Z</time>
      </trkpt>
      <trkpt lat="47.13218" lon="5.88196">
        <ele>280.6</ele>
        <time>2024-08-05T09:20:05Z</time>
      </trkpt>
      <trkpt lat="47.13217" lon="5.882">
        <ele>280.6</ele>
        <time>2024-08-05T09:20:06Z</time>
      </trkpt>
      <trkpt lat="47.13216" lon="5.88203">
        <ele>281</ele>
        <time>2024-08-05T09:20:07Z</time>
      </trkpt>
      <trkpt lat="47.13216" lon="5.88207">
        <ele>281</ele>
        <time>2024-08-05T09:20:08Z</time>
      </trkpt>
      <trkpt lat="47.13216" lon="5.8821">
        <ele>281.2</ele>
        <time>2024-08-05T09:20:09Z</time>
      </trkpt>
      <trkpt lat="47.13215" lon="5.88213">
        <ele>281.4</ele>
        <time>2024-08-05T09:20:10Z</time>
      </trkpt>
      <trkpt lat="47.13215" lon="5.88216">
        <ele>281.4</ele>
        <time>2024-08-05T09:20:11Z</time>
      </trkpt>
      <trkpt lat="47.13215" lon="5.88218">
        <ele>281.6</ele>
        <time>2024-08-05T09:20:12Z</time>
      </trkpt>
      <trkpt lat="47.13214" lon="5.88221">
        <ele>281.6</ele>
        <time>2024-08-05T09:20:13Z</time>
      </trkpt>
      <trkpt lat="47.13214" lon="5.88223">
        <ele>281.8</ele>
        <time>2024-08-05T09:20:14Z</time>
      </trkpt>
      <trkpt lat="47.13213" lon="5.88226">
        <ele>282</ele>
        <time>2024-08-05T09:20:15Z</time>
      </trkpt>
      <trkpt lat="47.13213" lon="5.88228">
        <ele>282</ele>
        <time>2024-08-05T09:20:16Z</time>
      </trkpt>
      <trkpt lat="47.13212" lon="5.88231">
        <ele>282.2</ele>
        <time>2024-08-05T09:20:17Z</time>
      </trkpt>
      <trkpt lat="47.13212" lon="5.88233">
        <ele>282.2</ele>
        <time>2024-08-05T09:20:18Z</time>
      </trkpt>
      <trkpt lat="47.13211" lon="5.88236">
        <ele>282.2</ele>
        <time>2024-08-05T09:20:19Z</time>
      </trkpt>
      <trkpt lat="47.1321" lon="5.88238">
        <ele>282.2</ele>
        <time>2024-08-05T09:20:20Z</time>
      </trkpt>
      <trkpt lat="47.1321" lon="5.88241">
        <ele>282.4</ele>
        <time>2024-08-05T09:20:21Z</time>
      </trkpt>
      <trkpt lat="47.13209" lon="5.88243">
        <ele>282.6</ele>
        <time>2024-08-05T09:20:22Z</time>
      </trkpt>
      <trkpt lat="47.13209" lon="5.88246">
        <ele>283</ele>
        <time>2024-08-05T09:20:23Z</time>
      </trkpt>
      <trkpt lat="47.13208" lon="5.88248">
        <ele>283</ele>
        <time>2024-08-05T09:20:24Z</time>
      </trkpt>
      <trkpt lat="47.13208" lon="5.88252">
        <ele>283.4</ele>
        <time>2024-08-05T09:20:25Z</time>
      </trkpt>
      <trkpt lat="47.13207" lon="5.88255">
        <ele>283.4</ele>
        <time>2024-08-05T09:20:26Z</time>
      </trkpt>
      <trkpt lat="47.13207" lon="5.88258">
        <ele>283.8</ele>
        <time>2024-08-05T09:20:27Z</time>
      </trkpt>
      <trkpt lat="47.13206" lon="5.88261">
        <ele>283.8</ele>
        <time>2024-08-05T09:20:28Z</time>
      </trkpt>
      <trkpt lat="47.13206" lon="5.88263">
        <ele>284</ele>
        <time>2024-08-05T09:20:29Z</time>
      </trkpt>
      <trkpt lat="47.13206" lon="5.88266">
        <ele>284.2</ele>
        <time>2024-08-05T09:20:30Z</time>
      </trkpt>
      <trkpt lat="47.13205" lon="5.88269">
        <ele>284.4</ele>
        <time>2024-08-05T09:20:31Z</time>
      </trkpt>
      <trkpt lat="47.13205" lon="5.88272">
        <ele>284.6</ele>
        <time>2024-08-05T09:20:32Z</time>
      </trkpt>
      <trkpt lat="47.13204" lon="5.88275">
        <ele>285</ele>
        <time>2024-08-05T09:20:33Z</time>
      </trkpt>
      <trkpt lat="47.13204" lon="5.88278">
        <ele>285</ele>
        <time>2024-08-05T09:20:34Z</time>
      </trkpt>
      <trkpt lat="47.13203" lon="5.8828">
        <ele>285.4</ele>
        <time>2024-08-05T09:20:35Z</time>
      </trkpt>
      <trkpt lat="47.13202" lon="5.88283">
        <ele>285.4</ele>
        <time>2024-08-05T09:20:36Z</time>
      </trkpt>
      <trkpt lat="47.13202" lon="5.88285">
        <ele>285.8</ele>
        <time>2024-08-05T09:20:37Z</time>
      </trkpt>
      <trkpt lat="47.13201" lon="5.88287">
        <ele>286.2</ele>
        <time>2024-08-05T09:20:38Z</time>
      </trkpt>
      <trkpt lat="47.13201" lon="5.88289">
        <ele>286.4</ele>
        <time>2024-08-05T09:20:39Z</time>
      </trkpt>
      <trkpt lat="47.132" lon="5.88291">
        <ele>286.6</ele>
        <time>2024-08-05T09:20:40Z</time>
      </trkpt>
      <trkpt lat="47.13199" lon="5.88293">
        <ele>286.6</ele>
        <time>2024-08-05T09:20:41Z</time>
      </trkpt>
      <trkpt lat="47.13198" lon="5.88296">
        <ele>286.8</ele>
        <time>2024-08-05T09:20:42Z</time>
      </trkpt>
      <trkpt lat="47.13197" lon="5.88297">
        <ele>287</ele>
        <time>2024-08-05T09:20:43Z</time>
      </trkpt>
      <trkpt lat="47.13196" lon="5.88299">
        <ele>287.2</ele>
        <time>2024-08-05T09:20:44Z</time>
      </trkpt>
      <trkpt lat="47.13194" lon="5.883">
        <ele>287.6</ele>
        <time>2024-08-05T09:20:45Z</time>
      </trkpt>
      <trkpt lat="47.13193" lon="5.88302">
        <ele>288</ele>
        <time>2024-08-05T09:20:46Z</time>
      </trkpt>
      <trkpt lat="47.13191" lon="5.88304">
        <ele>288</ele>
        <time>2024-08-05T09:20:47Z</time>
      </trkpt>
      <trkpt lat="47.1319" lon="5.88307">
        <ele>288.6</ele>
        <time>2024-08-05T09:20:48Z</time>
      </trkpt>
      <trkpt lat="47.13189" lon="5.88308">
        <ele>288.8</ele>
        <time>2024-08-05T09:20:49Z</time>
      </trkpt>
      <trkpt lat="47.13187" lon="5.8831">
        <ele>289.2</ele>
        <time>2024-08-05T09:20:50Z</time>
      </trkpt>
      <trkpt lat="47.13186" lon="5.88311">
        <ele>289.6</ele>
        <time>2024-08-05T09:20:51Z</time>
      </trkpt>
      <trkpt lat="47.13184" lon="5.88313">
        <ele>289.8</ele>
        <time>2024-08-05T09:20:52Z</time>
      </trkpt>
      <trkpt lat="47.13183" lon="5.88314">
        <ele>290</ele>
        <time>2024-08-05T09:20:53Z</time>
      </trkpt>
      <trkpt lat="47.13181" lon="5.88316">
        <ele>290.2</ele>
        <time>2024-08-05T09:20:54Z</time>
      </trkpt>
      <trkpt lat="47.13179" lon="5.88317">
        <ele>290.6</ele>
        <time>2024-08-05T09:20:55Z</time>
      </trkpt>
      <trkpt lat="47.13177" lon="5.88318">
        <ele>290.8</ele>
        <time>2024-08-05T09:20:56Z</time>
      </trkpt>
      <trkpt lat="47.13176" lon="5.88319">
        <ele>291</ele>
        <time>2024-08-05T09:20:57Z</time>
      </trkpt>
      <trkpt lat="47.13174" lon="5.88321">
        <ele>291.2</ele>
        <time>2024-08-05T09:20:58Z</time>
      </trkpt>
      <trkpt lat="47.13173" lon="5.88322">
        <ele>291.4</ele>
        <time>2024-08-05T09:20:59Z</time>
      </trkpt>
      <trkpt lat="47.13171" lon="5.88322">
        <ele>291.6</ele>
        <time>2024-08-05T09:21:00Z</time>
      </trkpt>
      <trkpt lat="47.1317" lon="5.88323">
        <ele>291.8</ele>
        <time>2024-08-05T09:21:01Z</time>
      </trkpt>
      <trkpt lat="47.13169" lon="5.88324">
        <ele>292</ele>
        <time>2024-08-05T09:21:02Z</time>
      </trkpt>
      <trkpt lat="47.13167" lon="5.88326">
        <ele>292</ele>
        <time>2024-08-05T09:21:03Z</time>
      </trkpt>
      <trkpt lat="47.13166" lon="5.88327">
        <ele>292</ele>
        <time>2024-08-05T09:21:04Z</time>
      </trkpt>
      <trkpt lat="47.13164" lon="5.88328">
        <ele>292.2</ele>
        <time>2024-08-05T09:21:05Z</time>
      </trkpt>
      <trkpt lat="47.13163" lon="5.88329">
        <ele>292.6</ele>
        <time>2024-08-05T09:21:06Z</time>
      </trkpt>
      <trkpt lat="47.13162" lon="5.8833">
        <ele>292.6</ele>
        <time>2024-08-05T09:21:07Z</time>
      </trkpt>
      <trkpt lat="47.1316" lon="5.88331">
        <ele>292.8</ele>
        <time>2024-08-05T09:21:08Z</time>
      </trkpt>
      <trkpt lat="47.13157" lon="5.88333">
        <ele>293</ele>
        <time>2024-08-05T09:21:09Z</time>
      </trkpt>
      <trkpt lat="47.13157" lon="5.88333">
        <ele>293.4</ele>
        <time>2024-08-05T09:21:10Z</time>
      </trkpt>
      <trkpt lat="47.13155" lon="5.88333">
        <ele>293.6</ele>
        <time>2024-08-05T09:21:11Z</time>
      </trkpt>
      <trkpt lat="47.13154" lon="5.88334">
        <ele>294</ele>
        <time>2024-08-05T09:21:12Z</time>
      </trkpt>
      <trkpt lat="47.13152" lon="5.88334">
        <ele>294</ele>
        <time>2024-08-05T09:21:13Z</time>
      </trkpt>
      <trkpt lat="47.13151" lon="5.88334">
        <ele>294.2</ele>
        <time>2024-08-05T09:21:14Z</time>
      </trkpt>
      <trkpt lat="47.13149" lon="5.88335">
        <ele>294.6</ele>
        <time>2024-08-05T09:21:15Z</time>
      </trkpt>
      <trkpt lat="47.13147" lon="5.88335">
        <ele>294.8</ele>
        <time>2024-08-05T09:21:16Z</time>
      </trkpt>
      <trkpt lat="47.13146" lon="5.88336">
        <ele>295</ele>
        <time>2024-08-05T09:21:17Z</time>
      </trkpt>
      <trkpt lat="47.13144" lon="5.88336">
        <ele>295.2</ele>
        <time>2024-08-05T09:21:18Z</time>
      </trkpt>
      <trkpt lat="47.13143" lon="5.88337">
        <ele>295.6</ele>
        <time>2024-08-05T09:21:19Z</time>
      </trkpt>
      <trkpt lat="47.13141" lon="5.88337">
        <ele>295.8</ele>
        <time>2024-08-05T09:21:20Z</time>
      </trkpt>
      <trkpt lat="47.1314" lon="5.88337">
        <ele>296</ele>
        <time>2024-08-05T09:21:21Z</time>
      </trkpt>
      <trkpt lat="47.13138" lon="5.88337">
        <ele>296</ele>
        <time>2024-08-05T09:21:22Z</time>
      </trkpt>
      <trkpt lat="47.13137" lon="5.88338">
        <ele>296.2</ele>
        <time>2024-08-05T09:21:23Z</time>
      </trkpt>
      <trkpt lat="47.13135" lon="5.88339">
        <ele>296.4</ele>
        <time>2024-08-05T09:21:24Z</time>
      </trkpt>
      <trkpt lat="47.13133" lon="5.8834">
        <ele>296.4</ele>
        <time>2024-08-05T09:21:25Z</time>
      </trkpt>
      <trkpt lat="47.13131" lon="5.8834">
        <ele>296.6</ele>
        <time>2024-08-05T09:21:26Z</time>
      </trkpt>
      <trkpt lat="47.13129" lon="5.88341">
        <ele>296.8</ele>
        <time>2024-08-05T09:21:27Z</time>
      </trkpt>
      <trkpt lat="47.13127" lon="5.88341">
        <ele>297</ele>
        <time>2024-08-05T09:21:28Z</time>
      </trkpt>
      <trkpt lat="47.13125" lon="5.88341">
        <ele>297.2</ele>
        <time>2024-08-05T09:21:29Z</time>
      </trkpt>
      <trkpt lat="47.13124" lon="5.88341">
        <ele>297.4</ele>
        <time>2024-08-05T09:21:30Z</time>
      </trkpt>
      <trkpt lat="47.13122" lon="5.88341">
        <ele>297.6</ele>
        <time>2024-08-05T09:21:31Z</time>
      </trkpt>
      <trkpt lat="47.1312" lon="5.88342">
        <ele>297.8</ele>
        <time>2024-08-05T09:21:32Z</time>
      </trkpt>
      <trkpt lat="47.13119" lon="5.88341">
        <ele>297.8</ele>
        <time>2024-08-05T09:21:33Z</time>
      </trkpt>
      <trkpt lat="47.13117" lon="5.88341">
        <ele>298</ele>
        <time>2024-08-05T09:21:34Z</time>
      </trkpt>
      <trkpt lat="47.13115" lon="5.88341">
        <ele>298.4</ele>
        <time>2024-08-05T09:21:35Z</time>
      </trkpt>
      <trkpt lat="47.13113" lon="5.8834">
        <ele>298.2</ele>
        <time>2024-08-05T09:21:36Z</time>
      </trkpt>
      <trkpt lat="47.13111" lon="5.8834">
        <ele>298.4</ele>
        <time>2024-08-05T09:21:37Z</time>
      </trkpt>
      <trkpt lat="47.13109" lon="5.8834">
        <ele>298.6</ele>
        <time>2024-08-05T09:21:38Z</time>
      </trkpt>
      <trkpt lat="47.13107" lon="5.88339">
        <ele>298.8</ele>
        <time>2024-08-05T09:21:39Z</time>
      </trkpt>
      <trkpt lat="47.13105" lon="5.88339">
        <ele>299</ele>
        <time>2024-08-05T09:21:40Z</time>
      </trkpt>
      <trkpt lat="47.13103" lon="5.88339">
        <ele>299</ele>
        <time>2024-08-05T09:21:41Z</time>
      </trkpt>
      <trkpt lat="47.13101" lon="5.8834">
        <ele>299.4</ele>
        <time>2024-08-05T09:21:42Z</time>
      </trkpt>
      <trkpt lat="47.131" lon="5.8834">
        <ele>299.6</ele>
        <time>2024-08-05T09:21:43Z</time>
      </trkpt>
      <trkpt lat="47.13098" lon="5.8834">
        <ele>299.6</ele>
        <time>2024-08-05T09:21:44Z</time>
      </trkpt>
      <trkpt lat="47.13097" lon="5.8834">
        <ele>300</ele>
        <time>2024-08-05T09:21:45Z</time>
      </trkpt>
      <trkpt lat="47.13096" lon="5.8834">
        <ele>300.2</ele>
        <time>2024-08-05T09:21:46Z</time>
      </trkpt>
      <trkpt lat="47.13095" lon="5.88341">
        <ele>300.2</ele>
        <time>2024-08-05T09:21:47Z</time>
      </trkpt>
      <trkpt lat="47.13094" lon="5.8834">
        <ele>300.6</ele>
        <time>2024-08-05T09:21:48Z</time>
      </trkpt>
      <trkpt lat="47.13092" lon="5.8834">
        <ele>300.6</ele>
        <time>2024-08-05T09:21:49Z</time>
      </trkpt>
      <trkpt lat="47.13091" lon="5.8834">
        <ele>300.6</ele>
        <time>2024-08-05T09:21:50Z</time>
      </trkpt>
      <trkpt lat="47.1309" lon="5.8834">
        <ele>301.2</ele>
        <time>2024-08-05T09:21:51Z</time>
      </trkpt>
      <trkpt lat="47.13089" lon="5.88339">
        <ele>301.4</ele>
        <time>2024-08-05T09:21:52Z</time>
      </trkpt>
      <trkpt lat="47.13087" lon="5.8834">
        <ele>301.8</ele>
        <time>2024-08-05T09:21:53Z</time>
      </trkpt>
      <trkpt lat="47.13086" lon="5.88339">
        <ele>301.8</ele>
        <time>2024-08-05T09:21:54Z</time>
      </trkpt>
      <trkpt lat="47.13084" lon="5.88339">
        <ele>302.4</ele>
        <time>2024-08-05T09:21:55Z</time>
      </trkpt>
      <trkpt lat="47.13083" lon="5.8834">
        <ele>302.4</ele>
        <time>2024-08-05T09:21:56Z</time>
      </trkpt>
      <trkpt lat="47.13082" lon="5.8834">
        <ele>302.8</ele>
        <time>2024-08-05T09:21:57Z</time>
      </trkpt>
      <trkpt lat="47.13081" lon="5.8834">
        <ele>303.2</ele>
        <time>2024-08-05T09:21:58Z</time>
      </trkpt>
      <trkpt lat="47.13079" lon="5.88339">
        <ele>303.2</ele>
        <time>2024-08-05T09:21:59Z</time>
      </trkpt>
      <trkpt lat="47.13078" lon="5.8834">
        <ele>303.4</ele>
        <time>2024-08-05T09:22:00Z</time>
      </trkpt>
      <trkpt lat="47.13077" lon="5.8834">
        <ele>303.8</ele>
        <time>2024-08-05T09:22:01Z</time>
      </trkpt>
      <trkpt lat="47.13076" lon="5.8834">
        <ele>303.8</ele>
        <time>2024-08-05T09:22:02Z</time>
      </trkpt>
      <trkpt lat="47.13075" lon="5.88341">
        <ele>304.2</ele>
        <time>2024-08-05T09:22:03Z</time>
      </trkpt>
      <trkpt lat="47.13074" lon="5.88341">
        <ele>304.4</ele>
        <time>2024-08-05T09:22:04Z</time>
      </trkpt>
      <trkpt lat="47.13073" lon="5.88341">
        <ele>304.8</ele>
        <time>2024-08-05T09:22:05Z</time>
      </trkpt>
      <trkpt lat="47.13072" lon="5.88341">
        <ele>305</ele>
        <time>2024-08-05T09:22:06Z</time>
      </trkpt>
      <trkpt lat="47.13071" lon="5.88341">
        <ele>305.2</ele>
        <time>2024-08-05T09:22:07Z</time>
      </trkpt>
      <trkpt lat="47.13069" lon="5.8834">
        <ele>305.6</ele>
        <time>2024-08-05T09:22:08Z</time>
      </trkpt>
      <trkpt lat="47.13068" lon="5.8834">
        <ele>305.6</ele>
        <time>2024-08-05T09:22:09Z</time>
      </trkpt>
      <trkpt lat="47.13067" lon="5.8834">
        <ele>305.8</ele>
        <time>2024-08-05T09:22:10Z</time>
      </trkpt>
      <trkpt lat="47.13066" lon="5.88339">
        <ele>306</ele>
        <time>2024-08-05T09:22:11Z</time>
      </trkpt>
      <trkpt lat="47.13065" lon="5.88339">
        <ele>306.2</ele>
        <time>2024-08-05T09:22:12Z</time>
      </trkpt>
      <trkpt lat="47.13064" lon="5.88339">
        <ele>306.4</ele>
        <time>2024-08-05T09:22:13Z</time>
      </trkpt>
      <trkpt lat="47.13062" lon="5.88339">
        <ele>306.8</ele>
        <time>2024-08-05T09:22:14Z</time>
      </trkpt>
      <trkpt lat="47.13061" lon="5.88339">
        <ele>306.8</ele>
        <time>2024-08-05T09:22:15Z</time>
      </trkpt>
      <trkpt lat="47.1306" lon="5.88338">
        <ele>307.2</ele>
        <time>2024-08-05T09:22:16Z</time>
      </trkpt>
      <trkpt lat="47.13058" lon="5.88339">
        <ele>307.4</ele>
        <time>2024-08-05T09:22:17Z</time>
      </trkpt>
      <trkpt lat="47.13057" lon="5.88338">
        <ele>307.8</ele>
        <time>2024-08-05T09:22:18Z</time>
      </trkpt>
      <trkpt lat="47.13056" lon="5.88338">
        <ele>308</ele>
        <time>2024-08-05T09:22:19Z</time>
      </trkpt>
      <trkpt lat="47.13054" lon="5.88338">
        <ele>308.4</ele>
        <time>2024-08-05T09:22:20Z</time>
      </trkpt>
      <trkpt lat="47.13053" lon="5.88337">
        <ele>308.6</ele>
        <time>2024-08-05T09:22:21Z</time>
      </trkpt>
      <trkpt lat="47.13051" lon="5.88336">
        <ele>308.8</ele>
        <time>2024-08-05T09:22:22Z</time>
      </trkpt>
      <trkpt lat="47.13049" lon="5.88335">
        <ele>309</ele>
        <time>2024-08-05T09:22:23Z</time>
      </trkpt>
      <trkpt lat="47.13047" lon="5.88334">
        <ele>309.2</ele>
        <time>2024-08-05T09:22:24Z</time>
      </trkpt>
      <trkpt lat="47.13045" lon="5.88334">
        <ele>309.6</ele>
        <time>2024-08-05T09:22:25Z</time>
      </trkpt>
      <trkpt lat="47.13043" lon="5.88333">
        <ele>309.8</ele>
        <time>2024-08-05T09:22:26Z</time>
      </trkpt>
      <trkpt lat="47.13042" lon="5.88333">
        <ele>309.8</ele>
        <time>2024-08-05T09:22:27Z</time>
      </trkpt>
      <trkpt lat="47.1304" lon="5.88332">
        <ele>310.2</ele>
        <time>2024-08-05T09:22:28Z</time>
      </trkpt>
      <trkpt lat="47.13038" lon="5.88331">
        <ele>310.6</ele>
        <time>2024-08-05T09:22:29Z</time>
      </trkpt>
      <trkpt lat="47.13037" lon="5.88331">
        <ele>311</ele>
        <time>2024-08-05T09:22:30Z</time>
      </trkpt>
      <trkpt lat="47.13035" lon="5.88331">
        <ele>311</ele>
        <time>2024-08-05T09:22:31Z</time>
      </trkpt>
      <trkpt lat="47.13033" lon="5.88331">
        <ele>311.2</ele>
        <time>2024-08-05T09:22:32Z</time>
      </trkpt>
      <trkpt lat="47.13032" lon="5.88331">
        <ele>311.4</ele>
        <time>2024-08-05T09:22:33Z</time>
      </trkpt>
      <trkpt lat="47.1303" lon="5.8833">
        <ele>311.6</ele>
        <time>2024-08-05T09:22:34Z</time>
      </trkpt>
      <trkpt lat="47.13029" lon="5.8833">
        <ele>311.8</ele>
        <time>2024-08-05T09:22:35Z</time>
      </trkpt>
      <trkpt lat="47.13028" lon="5.8833">
        <ele>311.8</ele>
        <time>2024-08-05T09:22:36Z</time>
      </trkpt>
      <trkpt lat="47.13027" lon="5.8833">
        <ele>312.2</ele>
        <time>2024-08-05T09:22:37Z</time>
      </trkpt>
      <trkpt lat="47.13026" lon="5.88329">
        <ele>312.4</ele>
        <time>2024-08-05T09:22:38Z</time>
      </trkpt>
      <trkpt lat="47.13024" lon="5.88329">
        <ele>312.6</ele>
        <time>2024-08-05T09:22:39Z</time>
      </trkpt>
      <trkpt lat="47.13023" lon="5.88329">
        <ele>312.8</ele>
        <time>2024-08-05T09:22:40Z</time>
      </trkpt>
      <trkpt lat="47.13022" lon="5.88329">
        <ele>313</ele>
        <time>2024-08-05T09:22:41Z</time>
      </trkpt>
      <trkpt lat="47.1302" lon="5.88328">
        <ele>313.2</ele>
        <time>2024-08-05T09:22:42Z</time>
      </trkpt>
      <trkpt lat="47.13018" lon="5.88328">
        <ele>313.6</ele>
        <time>2024-08-05T09:22:43Z</time>
      </trkpt>
      <trkpt lat="47.13017" lon="5.88327">
        <ele>313.8</ele>
        <time>2024-08-05T09:22:44Z</time>
      </trkpt>
      <trkpt lat="47.13015" lon="5.88326">
        <ele>314.2</ele>
        <time>2024-08-05T09:22:45Z</time>
      </trkpt>
      <trkpt lat="47.13014" lon="5.88326">
        <ele>314.2</ele>
        <time>2024-08-05T09:22:46Z</time>
      </trkpt>
      <trkpt lat="47.13013" lon="5.88326">
        <ele>314.4</ele>
        <time>2024-08-05T09:22:47Z</time>
      </trkpt>
      <trkpt lat="47.13012" lon="5.88325">
        <ele>314.6</ele>
        <time>2024-08-05T09:22:48Z</time>
      </trkpt>
      <trkpt lat="47.1301" lon="5.88325">
        <ele>314.8</ele>
        <time>2024-08-05T09:22:49Z</time>
      </trkpt>
      <trkpt lat="47.13009" lon="5.88325">
        <ele>315</ele>
        <time>2024-08-05T09:22:50Z</time>
      </trkpt>
      <trkpt lat="47.13007" lon="5.88325">
        <ele>315.4</ele>
        <time>2024-08-05T09:22:51Z</time>
      </trkpt>
      <trkpt lat="47.13006" lon="5.88324">
        <ele>315.8</ele>
        <time>2024-08-05T09:22:52Z</time>
      </trkpt>
      <trkpt lat="47.13004" lon="5.88324">
        <ele>315.8</ele>
        <time>2024-08-05T09:22:53Z</time>
      </trkpt>
      <trkpt lat="47.13003" lon="5.88324">
        <ele>316</ele>
        <time>2024-08-05T09:22:54Z</time>
      </trkpt>
      <trkpt lat="47.13001" lon="5.88324">
        <ele>316.4</ele>
        <time>2024-08-05T09:22:55Z</time>
      </trkpt>
      <trkpt lat="47.13" lon="5.88323">
        <ele>316.2</ele>
        <time>2024-08-05T09:22:56Z</time>
      </trkpt>
      <trkpt lat="47.12998" lon="5.88323">
        <ele>316.6</ele>
        <time>2024-08-05T09:22:57Z</time>
      </trkpt>
      <trkpt lat="47.12997" lon="5.88323">
        <ele>316.8</ele>
        <time>2024-08-05T09:22:58Z</time>
      </trkpt>
      <trkpt lat="47.12995" lon="5.88323">
        <ele>317.2</ele>
        <time>2024-08-05T09:22:59Z</time>
      </trkpt>
      <trkpt lat="47.12994" lon="5.88322">
        <ele>317.4</ele>
        <time>2024-08-05T09:23:00Z</time>
      </trkpt>
      <trkpt lat="47.12993" lon="5.88322">
        <ele>317.8</ele>
        <time>2024-08-05T09:23:01Z</time>
      </trkpt>
      <trkpt lat="47.12992" lon="5.88322">
        <ele>318</ele>
        <time>2024-08-05T09:23:02Z</time>
      </trkpt>
      <trkpt lat="47.1299" lon="5.88322">
        <ele>318</ele>
        <time>2024-08-05T09:23:03Z</time>
      </trkpt>
      <trkpt lat="47.12989" lon="5.88321">
        <ele>318.4</ele>
        <time>2024-08-05T09:23:04Z</time>
      </trkpt>
      <trkpt lat="47.12987" lon="5.88321">
        <ele>318.8</ele>
        <time>2024-08-05T09:23:05Z</time>
      </trkpt>
      <trkpt lat="47.12986" lon="5.88321">
        <ele>318.8</ele>
        <time>2024-08-05T09:23:06Z</time>
      </trkpt>
      <trkpt lat="47.12985" lon="5.8832">
        <ele>319</ele>
        <time>2024-08-05T09:23:07Z</time>
      </trkpt>
      <trkpt lat="47.12983" lon="5.8832">
        <ele>319.4</ele>
        <time>2024-08-05T09:23:08Z</time>
      </trkpt>
      <trkpt lat="47.12982" lon="5.88321">
        <ele>319.6</ele>
        <time>2024-08-05T09:23:09Z</time>
      </trkpt>
      <trkpt lat="47.1298" lon="5.88321">
        <ele>319.8</ele>
        <time>2024-08-05T09:23:10Z</time>
      </trkpt>
      <trkpt lat="47.12979" lon="5.88321">
        <ele>320.2</ele>
        <time>2024-08-05T09:23:11Z</time>
      </trkpt>
      <trkpt lat="47.12977" lon="5.88321">
        <ele>320.4</ele>
        <time>2024-08-05T09:23:12Z</time>
      </trkpt>
      <trkpt lat="47.12976" lon="5.88322">
        <ele>320.6</ele>
        <time>2024-08-05T09:23:13Z</time>
      </trkpt>
      <trkpt lat="47.12974" lon="5.88322">
        <ele>320.6</ele>
        <time>2024-08-05T09:23:14Z</time>
      </trkpt>
      <trkpt lat="47.12973" lon="5.88323">
        <ele>320.6</ele>
        <time>2024-08-05T09:23:15Z</time>
      </trkpt>
      <trkpt lat="47.12971" lon="5.88323">
        <ele>320.8</ele>
        <time>2024-08-05T09:23:16Z</time>
      </trkpt>
      <trkpt lat="47.12969" lon="5.88324">
        <ele>321</ele>
        <time>2024-08-05T09:23:17Z</time>
      </trkpt>
      <trkpt lat="47.12968" lon="5.88324">
        <ele>321.4</ele>
        <time>2024-08-05T09:23:18Z</time>
      </trkpt>
      <trkpt lat="47.12966" lon="5.88324">
        <ele>321.6</ele>
        <time>2024-08-05T09:23:19Z</time>
      </trkpt>
      <trkpt lat="47.12965" lon="5.88324">
        <ele>321.6</ele>
        <time>2024-08-05T09:23:20Z</time>
      </trkpt>
      <trkpt lat="47.12963" lon="5.88324">
        <ele>322</ele>
        <time>2024-08-05T09:23:21Z</time>
      </trkpt>
      <trkpt lat="47.12961" lon="5.88325">
        <ele>322.2</ele>
        <time>2024-08-05T09:23:22Z</time>
      </trkpt>
      <trkpt lat="47.12959" lon="5.88325">
        <ele>322.4</ele>
        <time>2024-08-05T09:23:23Z</time>
      </trkpt>
      <trkpt lat="47.12957" lon="5.88326">
        <ele>322.8</ele>
        <time>2024-08-05T09:23:24Z</time>
      </trkpt>
      <trkpt lat="47.12956" lon="5.88326">
        <ele>323</ele>
        <time>2024-08-05T09:23:25Z</time>
      </trkpt>
      <trkpt lat="47.12954" lon="5.88327">
        <ele>323.2</ele>
        <time>2024-08-05T09:23:26Z</time>
      </trkpt>
      <trkpt lat="47.12952" lon="5.88327">
        <ele>323.4</ele>
        <time>2024-08-05T09:23:27Z</time>
      </trkpt>
      <trkpt lat="47.1295" lon="5.88328">
        <ele>323.8</ele>
        <time>2024-08-05T09:23:28Z</time>
      </trkpt>
      <trkpt lat="47.12949" lon="5.88329">
        <ele>323.8</ele>
        <time>2024-08-05T09:23:29Z</time>
      </trkpt>
      <trkpt lat="47.12947" lon="5.8833">
        <ele>324</ele>
        <time>2024-08-05T09:23:30Z</time>
      </trkpt>
      <trkpt lat="47.12946" lon="5.88331">
        <ele>324.2</ele>
        <time>2024-08-05T09:23:31Z</time>
      </trkpt>
      <trkpt lat="47.12945" lon="5.88332">
        <ele>324.6</ele>
        <time>2024-08-05T09:23:32Z</time>
      </trkpt>
      <trkpt lat="47.12944" lon="5.88332">
        <ele>324.6</ele>
        <time>2024-08-05T09:23:33Z</time>
      </trkpt>
      <trkpt lat="47.12942" lon="5.88333">
        <ele>324.8</ele>
        <time>2024-08-05T09:23:34Z</time>
      </trkpt>
      <trkpt lat="47.12941" lon="5.88334">
        <ele>325</ele>
        <time>2024-08-05T09:23:35Z</time>
      </trkpt>
      <trkpt lat="47.1294" lon="5.88334">
        <ele>325.4</ele>
        <time>2024-08-05T09:23:36Z</time>
      </trkpt>
      <trkpt lat="47.1294" lon="5.88335">
        <ele>325.4</ele>
        <time>2024-08-05T09:23:37Z</time>
      </trkpt>
      <trkpt lat="47.12939" lon="5.88336">
        <ele>325.6</ele>
        <time>2024-08-05T09:23:38Z</time>
      </trkpt>
      <trkpt lat="47.12938" lon="5.88336">
        <ele>325.8</ele>
        <time>2024-08-05T09:23:39Z</time>
      </trkpt>
      <trkpt lat="47.12937" lon="5.88337">
        <ele>326.2</ele>
        <time>2024-08-05T09:23:40Z</time>
      </trkpt>
      <trkpt lat="47.12936" lon="5.88338">
        <ele>326.2</ele>
        <time>2024-08-05T09:23:41Z</time>
      </trkpt>
      <trkpt lat="47.12934" lon="5.88339">
        <ele>326.4</ele>
        <time>2024-08-05T09:23:42Z</time>
      </trkpt>
      <trkpt lat="47.12933" lon="5.8834">
        <ele>326.8</ele>
        <time>2024-08-05T09:23:43Z</time>
      </trkpt>
      <trkpt lat="47.12932" lon="5.88341">
        <ele>327</ele>
        <time>2024-08-05T09:23:44Z</time>
      </trkpt>
      <trkpt lat="47.1293" lon="5.88344">
        <ele>327.2</ele>
        <time>2024-08-05T09:23:45Z</time>
      </trkpt>
      <trkpt lat="47.1293" lon="5.88344">
        <ele>327.4</ele>
        <time>2024-08-05T09:23:46Z</time>
      </trkpt>
      <trkpt lat="47.12927" lon="5.88346">
        <ele>327.6</ele>
        <time>2024-08-05T09:23:47Z</time>
      </trkpt>
      <trkpt lat="47.12925" lon="5.88346">
        <ele>327.8</ele>
        <time>2024-08-05T09:23:48Z</time>
      </trkpt>
      <trkpt lat="47.12924" lon="5.88347">
        <ele>328</ele>
        <time>2024-08-05T09:23:49Z</time>
      </trkpt>
      <trkpt lat="47.12922" lon="5.88348">
        <ele>328.2</ele>
        <time>2024-08-05T09:23:50Z</time>
      </trkpt>
      <trkpt lat="47.12922" lon="5.88348">
        <ele>328.4</ele>
        <time>2024-08-05T09:23:51Z</time>
      </trkpt>
      <trkpt lat="47.12921" lon="5.88348">
        <ele>328.4</ele>
        <time>2024-08-05T09:23:52Z</time>
      </trkpt>
      <trkpt lat="47.12919" lon="5.88349">
        <ele>328.8</ele>
        <time>2024-08-05T09:23:53Z</time>
      </trkpt>
      <trkpt lat="47.12918" lon="5.8835">
        <ele>329</ele>
        <time>2024-08-05T09:23:54Z</time>
      </trkpt>
      <trkpt lat="47.12917" lon="5.8835">
        <ele>329.2</ele>
        <time>2024-08-05T09:23:55Z</time>
      </trkpt>
      <trkpt lat="47.12915" lon="5.88351">
        <ele>329.4</ele>
        <time>2024-08-05T09:23:56Z</time>
      </trkpt>
      <trkpt lat="47.12914" lon="5.88352">
        <ele>329.6</ele>
        <time>2024-08-05T09:23:57Z</time>
      </trkpt>
      <trkpt lat="47.12913" lon="5.88352">
        <ele>329.4</ele>
        <time>2024-08-05T09:23:58Z</time>
      </trkpt>
      <trkpt lat="47.12912" lon="5.88353">
        <ele>329.4</ele>
        <time>2024-08-05T09:23:59Z</time>
      </trkpt>
      <trkpt lat="47.1291" lon="5.88353">
        <ele>329.6</ele>
        <time>2024-08-05T09:24:00Z</time>
      </trkpt>
      <trkpt lat="47.12909" lon="5.88353">
        <ele>329.8</ele>
        <time>2024-08-05T09:24:01Z</time>
      </trkpt>
      <trkpt lat="47.12907" lon="5.88354">
        <ele>330.2</ele>
        <time>2024-08-05T09:24:02Z</time>
      </trkpt>
      <trkpt lat="47.12906" lon="5.88354">
        <ele>330.2</ele>
        <time>2024-08-05T09:24:03Z</time>
      </trkpt>
      <trkpt lat="47.12905" lon="5.88354">
        <ele>330.4</ele>
        <time>2024-08-05T09:24:04Z</time>
      </trkpt>
      <trkpt lat="47.12904" lon="5.88354">
        <ele>330.6</ele>
        <time>2024-08-05T09:24:05Z</time>
      </trkpt>
      <trkpt lat="47.12902" lon="5.88353">
        <ele>330.6</ele>
        <time>2024-08-05T09:24:06Z</time>
      </trkpt>
      <trkpt lat="47.12901" lon="5.88353">
        <ele>330.8</ele>
        <time>2024-08-05T09:24:07Z</time>
      </trkpt>
      <trkpt lat="47.129" lon="5.88353">
        <ele>331</ele>
        <time>2024-08-05T09:24:08Z</time>
      </trkpt>
      <trkpt lat="47.12899" lon="5.88352">
        <ele>331</ele>
        <time>2024-08-05T09:24:09Z</time>
      </trkpt>
      <trkpt lat="47.12897" lon="5.88352">
        <ele>331.4</ele>
        <time>2024-08-05T09:24:10Z</time>
      </trkpt>
      <trkpt lat="47.12894" lon="5.88351">
        <ele>331.6</ele>
        <time>2024-08-05T09:24:11Z</time>
      </trkpt>
      <trkpt lat="47.12893" lon="5.88351">
        <ele>331.8</ele>
        <time>2024-08-05T09:24:12Z</time>
      </trkpt>
      <trkpt lat="47.12893" lon="5.88351">
        <ele>331.8</ele>
        <time>2024-08-05T09:24:13Z</time>
      </trkpt>
      <trkpt lat="47.12891" lon="5.88352">
        <ele>332</ele>
        <time>2024-08-05T09:24:14Z</time>
      </trkpt>
      <trkpt lat="47.1289" lon="5.88351">
        <ele>332.2</ele>
        <time>2024-08-05T09:24:15Z</time>
      </trkpt>
      <trkpt lat="47.12887" lon="5.88349">
        <ele>332.4</ele>
        <time>2024-08-05T09:24:16Z</time>
      </trkpt>
      <trkpt lat="47.12886" lon="5.88348">
        <ele>332.6</ele>
        <time>2024-08-05T09:24:17Z</time>
      </trkpt>
      <trkpt lat="47.12884" lon="5.88348">
        <ele>332.8</ele>
        <time>2024-08-05T09:24:18Z</time>
      </trkpt>
      <trkpt lat="47.12884" lon="5.88348">
        <ele>333</ele>
        <time>2024-08-05T09:24:19Z</time>
      </trkpt>
      <trkpt lat="47.12882" lon="5.88346">
        <ele>333</ele>
        <time>2024-08-05T09:24:20Z</time>
      </trkpt>
      <trkpt lat="47.1288" lon="5.88345">
        <ele>333.2</ele>
        <time>2024-08-05T09:24:21Z</time>
      </trkpt>
      <trkpt lat="47.12879" lon="5.88344">
        <ele>333.2</ele>
        <time>2024-08-05T09:24:22Z</time>
      </trkpt>
      <trkpt lat="47.12879" lon="5.88344">
        <ele>333.4</ele>
        <time>2024-08-05T09:24:23Z</time>
      </trkpt>
      <trkpt lat="47.12878" lon="5.88343">
        <ele>333.6</ele>
        <time>2024-08-05T09:24:24Z</time>
      </trkpt>
      <trkpt lat="47.12875" lon="5.88342">
        <ele>333.8</ele>
        <time>2024-08-05T09:24:25Z</time>
      </trkpt>
      <trkpt lat="47.12874" lon="5.88342">
        <ele>334.2</ele>
        <time>2024-08-05T09:24:26Z</time>
      </trkpt>
      <trkpt lat="47.12872" lon="5.88341">
        <ele>334.4</ele>
        <time>2024-08-05T09:24:27Z</time>
      </trkpt>
      <trkpt lat="47.12872" lon="5.88341">
        <ele>334.6</ele>
        <time>2024-08-05T09:24:28Z</time>
      </trkpt>
      <trkpt lat="47.12869" lon="5.8834">
        <ele>334.6</ele>
        <time>2024-08-05T09:24:29Z</time>
      </trkpt>
      <trkpt lat="47.12867" lon="5.88339">
        <ele>334.8</ele>
        <time>2024-08-05T09:24:30Z</time>
      </trkpt>
      <trkpt lat="47.12865" lon="5.88339">
        <ele>335</ele>
        <time>2024-08-05T09:24:31Z</time>
      </trkpt>
      <trkpt lat="47.12865" lon="5.88339">
        <ele>335</ele>
        <time>2024-08-05T09:24:32Z</time>
      </trkpt>
      <trkpt lat="47.12864" lon="5.88339">
        <ele>335.2</ele>
        <time>2024-08-05T09:24:33Z</time>
      </trkpt>
      <trkpt lat="47.12862" lon="5.88338">
        <ele>335.4</ele>
        <time>2024-08-05T09:24:34Z</time>
      </trkpt>
      <trkpt lat="47.12861" lon="5.88338">
        <ele>335.8</ele>
        <time>2024-08-05T09:24:35Z</time>
      </trkpt>
      <trkpt lat="47.12859" lon="5.88338">
        <ele>335.8</ele>
        <time>2024-08-05T09:24:36Z</time>
      </trkpt>
      <trkpt lat="47.12858" lon="5.88339">
        <ele>336</ele>
        <time>2024-08-05T09:24:37Z</time>
      </trkpt>
      <trkpt lat="47.12856" lon="5.88339">
        <ele>336.4</ele>
        <time>2024-08-05T09:24:38Z</time>
      </trkpt>
      <trkpt lat="47.12855" lon="5.8834">
        <ele>336.4</ele>
        <time>2024-08-05T09:24:39Z</time>
      </trkpt>
      <trkpt lat="47.12854" lon="5.8834">
        <ele>336.6</ele>
        <time>2024-08-05T09:24:40Z</time>
      </trkpt>
      <trkpt lat="47.12852" lon="5.88341">
        <ele>336.8</ele>
        <time>2024-08-05T09:24:41Z</time>
      </trkpt>
      <trkpt lat="47.1285" lon="5.88342">
        <ele>336.8</ele>
        <time>2024-08-05T09:24:42Z</time>
      </trkpt>
      <trkpt lat="47.12848" lon="5.88343">
        <ele>336.8</ele>
        <time>2024-08-05T09:24:43Z</time>
      </trkpt>
      <trkpt lat="47.12847" lon="5.88343">
        <ele>337</ele>
        <time>2024-08-05T09:24:44Z</time>
      </trkpt>
      <trkpt lat="47.12845" lon="5.88344">
        <ele>337.4</ele>
        <time>2024-08-05T09:24:45Z</time>
      </trkpt>
      <trkpt lat="47.12845" lon="5.88344">
        <ele>337.4</ele>
        <time>2024-08-05T09:24:46Z</time>
      </trkpt>
      <trkpt lat="47.12844" lon="5.88345">
        <ele>337.4</ele>
        <time>2024-08-05T09:24:47Z</time>
      </trkpt>
      <trkpt lat="47.12842" lon="5.88346">
        <ele>337.6</ele>
        <time>2024-08-05T09:24:48Z</time>
      </trkpt>
      <trkpt lat="47.12842" lon="5.88346">
        <ele>338</ele>
        <time>2024-08-05T09:24:49Z</time>
      </trkpt>
      <trkpt lat="47.1284" lon="5.88347">
        <ele>338.2</ele>
        <time>2024-08-05T09:24:50Z</time>
      </trkpt>
      <trkpt lat="47.12839" lon="5.88347">
        <ele>338.4</ele>
        <time>2024-08-05T09:24:51Z</time>
      </trkpt>
      <trkpt lat="47.12835" lon="5.88347">
        <ele>338.4</ele>
        <time>2024-08-05T09:24:52Z</time>
      </trkpt>
      <trkpt lat="47.12834" lon="5.88347">
        <ele>339</ele>
        <time>2024-08-05T09:24:53Z</time>
      </trkpt>
      <trkpt lat="47.12832" lon="5.88346">
        <ele>339</ele>
        <time>2024-08-05T09:24:54Z</time>
      </trkpt>
      <trkpt lat="47.12831" lon="5.88345">
        <ele>339.2</ele>
        <time>2024-08-05T09:24:55Z</time>
      </trkpt>
      <trkpt lat="47.12829" lon="5.88345">
        <ele>339.4</ele>
        <time>2024-08-05T09:24:56Z</time>
      </trkpt>
      <trkpt lat="47.12827" lon="5.88344">
        <ele>339.4</ele>
        <time>2024-08-05T09:24:57Z</time>
      </trkpt>
      <trkpt lat="47.12826" lon="5.88344">
        <ele>339.6</ele>
        <time>2024-08-05T09:24:58Z</time>
      </trkpt>
      <trkpt lat="47.12826" lon="5.88344">
        <ele>339.8</ele>
        <time>2024-08-05T09:24:59Z</time>
      </trkpt>
      <trkpt lat="47.12825" lon="5.88343">
        <ele>340</ele>
        <time>2024-08-05T09:25:00Z</time>
      </trkpt>
      <trkpt lat="47.12824" lon="5.88343">
        <ele>340.2</ele>
        <time>2024-08-05T09:25:01Z</time>
      </trkpt>
      <trkpt lat="47.12823" lon="5.88342">
        <ele>340.2</ele>
        <time>2024-08-05T09:25:02Z</time>
      </trkpt>
      <trkpt lat="47.12821" lon="5.88341">
        <ele>340.6</ele>
        <time>2024-08-05T09:25:03Z</time>
      </trkpt>
      <trkpt lat="47.1282" lon="5.8834">
        <ele>340.6</ele>
        <time>2024-08-05T09:25:04Z</time>
      </trkpt>
      <trkpt lat="47.12819" lon="5.8834">
        <ele>340.4</ele>
        <time>2024-08-05T09:25:05Z</time>
      </trkpt>
      <trkpt lat="47.12818" lon="5.88339">
        <ele>340.6</ele>
        <time>2024-08-05T09:25:06Z</time>
      </trkpt>
      <trkpt lat="47.12817" lon="5.88339">
        <ele>340.8</ele>
        <time>2024-08-05T09:25:07Z</time>
      </trkpt>
      <trkpt lat="47.12816" lon="5.88338">
        <ele>341.2</ele>
        <time>2024-08-05T09:25:08Z</time>
      </trkpt>
      <trkpt lat="47.12815" lon="5.88337">
        <ele>341.2</ele>
        <time>2024-08-05T09:25:09Z</time>
      </trkpt>
      <trkpt lat="47.12814" lon="5.88337">
        <ele>341.4</ele>
        <time>2024-08-05T09:25:10Z</time>
      </trkpt>
      <trkpt lat="47.12813" lon="5.88336">
        <ele>341.8</ele>
        <time>2024-08-05T09:25:11Z</time>
      </trkpt>
      <trkpt lat="47.12811" lon="5.88335">
        <ele>342</ele>
        <time>2024-08-05T09:25:12Z</time>
      </trkpt>
      <trkpt lat="47.1281" lon="5.88335">
        <ele>342.2</ele>
        <time>2024-08-05T09:25:13Z</time>
      </trkpt>
      <trkpt lat="47.12809" lon="5.88335">
        <ele>342.4</ele>
        <time>2024-08-05T09:25:14Z</time>
      </trkpt>
      <trkpt lat="47.12807" lon="5.88334">
        <ele>342.6</ele>
        <time>2024-08-05T09:25:15Z</time>
      </trkpt>
      <trkpt lat="47.12806" lon="5.88334">
        <ele>342.8</ele>
        <time>2024-08-05T09:25:16Z</time>
      </trkpt>
      <trkpt lat="47.12805" lon="5.88333">
        <ele>343</ele>
        <time>2024-08-05T09:25:17Z</time>
      </trkpt>
      <trkpt lat="47.12802" lon="5.88332">
        <ele>343.2</ele>
        <time>2024-08-05T09:25:18Z</time>
      </trkpt>
      <trkpt lat="47.128" lon="5.88332">
        <ele>343.4</ele>
        <time>2024-08-05T09:25:19Z</time>
      </trkpt>
      <trkpt lat="47.12799" lon="5.88332">
        <ele>343.6</ele>
        <time>2024-08-05T09:25:20Z</time>
      </trkpt>
      <trkpt lat="47.12799" lon="5.88332">
        <ele>343.8</ele>
        <time>2024-08-05T09:25:21Z</time>
      </trkpt>
      <trkpt lat="47.12797" lon="5.88331">
        <ele>344</ele>
        <time>2024-08-05T09:25:22Z</time>
      </trkpt>
      <trkpt lat="47.12796" lon="5.8833">
        <ele>344.2</ele>
        <time>2024-08-05T09:25:23Z</time>
      </trkpt>
      <trkpt lat="47.12794" lon="5.88329">
        <ele>344.4</ele>
        <time>2024-08-05T09:25:24Z</time>
      </trkpt>
      <trkpt lat="47.12793" lon="5.88328">
        <ele>344.4</ele>
        <time>2024-08-05T09:25:25Z</time>
      </trkpt>
      <trkpt lat="47.12791" lon="5.88328">
        <ele>344.4</ele>
        <time>2024-08-05T09:25:26Z</time>
      </trkpt>
      <trkpt lat="47.1279" lon="5.88327">
        <ele>344.6</ele>
        <time>2024-08-05T09:25:27Z</time>
      </trkpt>
      <trkpt lat="47.12788" lon="5.88327">
        <ele>344.6</ele>
        <time>2024-08-05T09:25:28Z</time>
      </trkpt>
      <trkpt lat="47.12786" lon="5.88327">
        <ele>344.8</ele>
        <time>2024-08-05T09:25:29Z</time>
      </trkpt>
      <trkpt lat="47.12785" lon="5.88327">
        <ele>345</ele>
        <time>2024-08-05T09:25:30Z</time>
      </trkpt>
      <trkpt lat="47.12783" lon="5.88327">
        <ele>345.2</ele>
        <time>2024-08-05T09:25:31Z</time>
      </trkpt>
      <trkpt lat="47.12781" lon="5.88326">
        <ele>345.4</ele>
        <time>2024-08-05T09:25:32Z</time>
      </trkpt>
      <trkpt lat="47.1278" lon="5.88326">
        <ele>345.6</ele>
        <time>2024-08-05T09:25:33Z</time>
      </trkpt>
      <trkpt lat="47.12778" lon="5.88326">
        <ele>345.6</ele>
        <time>2024-08-05T09:25:34Z</time>
      </trkpt>
      <trkpt lat="47.12777" lon="5.88326">
        <ele>345.8</ele>
        <time>2024-08-05T09:25:35Z</time>
      </trkpt>
      <trkpt lat="47.12775" lon="5.88325">
        <ele>345.8</ele>
        <time>2024-08-05T09:25:36Z</time>
      </trkpt>
      <trkpt lat="47.12773" lon="5.88324">
        <ele>346.2</ele>
        <time>2024-08-05T09:25:37Z</time>
      </trkpt>
      <trkpt lat="47.12771" lon="5.88324">
        <ele>346.2</ele>
        <time>2024-08-05T09:25:38Z</time>
      </trkpt>
      <trkpt lat="47.12769" lon="5.88323">
        <ele>346.4</ele>
        <time>2024-08-05T09:25:39Z</time>
      </trkpt>
      <trkpt lat="47.12768" lon="5.88323">
        <ele>346.6</ele>
        <time>2024-08-05T09:25:40Z</time>
      </trkpt>
      <trkpt lat="47.12766" lon="5.88323">
        <ele>347</ele>
        <time>2024-08-05T09:25:41Z</time>
      </trkpt>
      <trkpt lat="47.12765" lon="5.88324">
        <ele>346.8</ele>
        <time>2024-08-05T09:25:42Z</time>
      </trkpt>
      <trkpt lat="47.12764" lon="5.88324">
        <ele>347</ele>
        <time>2024-08-05T09:25:43Z</time>
      </trkpt>
      <trkpt lat="47.12762" lon="5.88324">
        <ele>347.2</ele>
        <time>2024-08-05T09:25:44Z</time>
      </trkpt>
      <trkpt lat="47.12761" lon="5.88324">
        <ele>347.6</ele>
        <time>2024-08-05T09:25:45Z</time>
      </trkpt>
      <trkpt lat="47.12759" lon="5.88324">
        <ele>348</ele>
        <time>2024-08-05T09:25:46Z</time>
      </trkpt>
      <trkpt lat="47.12758" lon="5.88324">
        <ele>348.2</ele>
        <time>2024-08-05T09:25:47Z</time>
      </trkpt>
      <trkpt lat="47.12757" lon="5.88324">
        <ele>348.2</ele>
        <time>2024-08-05T09:25:48Z</time>
      </trkpt>
      <trkpt lat="47.12756" lon="5.88324">
        <ele>348.6</ele>
        <time>2024-08-05T09:25:49Z</time>
      </trkpt>
      <trkpt lat="47.12754" lon="5.88324">
        <ele>348.8</ele>
        <time>2024-08-05T09:25:50Z</time>
      </trkpt>
      <trkpt lat="47.12753" lon="5.88324">
        <ele>349</ele>
        <time>2024-08-05T09:25:51Z</time>
      </trkpt>
      <trkpt lat="47.12752" lon="5.88325">
        <ele>349.4</ele>
        <time>2024-08-05T09:25:52Z</time>
      </trkpt>
      <trkpt lat="47.1275" lon="5.88325">
        <ele>349.6</ele>
        <time>2024-08-05T09:25:53Z</time>
      </trkpt>
      <trkpt lat="47.12747" lon="5.88325">
        <ele>350</ele>
        <time>2024-08-05T09:25:54Z</time>
      </trkpt>
      <trkpt lat="47.12747" lon="5.88325">
        <ele>350.2</ele>
        <time>2024-08-05T09:25:55Z</time>
      </trkpt>
      <trkpt lat="47.12745" lon="5.88325">
        <ele>350.4</ele>
        <time>2024-08-05T09:25:56Z</time>
      </trkpt>
      <trkpt lat="47.12743" lon="5.88326">
        <ele>350.6</ele>
        <time>2024-08-05T09:25:57Z</time>
      </trkpt>
      <trkpt lat="47.12742" lon="5.88326">
        <ele>350.8</ele>
        <time>2024-08-05T09:25:58Z</time>
      </trkpt>
      <trkpt lat="47.1274" lon="5.88327">
        <ele>351</ele>
        <time>2024-08-05T09:25:59Z</time>
      </trkpt>
      <trkpt lat="47.12739" lon="5.88328">
        <ele>351.2</ele>
        <time>2024-08-05T09:26:00Z</time>
      </trkpt>
      <trkpt lat="47.12737" lon="5.88329">
        <ele>351.4</ele>
        <time>2024-08-05T09:26:01Z</time>
      </trkpt>
      <trkpt lat="47.12735" lon="5.88329">
        <ele>351.6</ele>
        <time>2024-08-05T09:26:02Z</time>
      </trkpt>
      <trkpt lat="47.12734" lon="5.8833">
        <ele>351.6</ele>
        <time>2024-08-05T09:26:03Z</time>
      </trkpt>
      <trkpt lat="47.12733" lon="5.88331">
        <ele>351.6</ele>
        <time>2024-08-05T09:26:04Z</time>
      </trkpt>
      <trkpt lat="47.12731" lon="5.88331">
        <ele>352</ele>
        <time>2024-08-05T09:26:05Z</time>
      </trkpt>
      <trkpt lat="47.12729" lon="5.88332">
        <ele>352.2</ele>
        <time>2024-08-05T09:26:06Z</time>
      </trkpt>
      <trkpt lat="47.12727" lon="5.88333">
        <ele>352.4</ele>
        <time>2024-08-05T09:26:07Z</time>
      </trkpt>
      <trkpt lat="47.12726" lon="5.88334">
        <ele>352.6</ele>
        <time>2024-08-05T09:26:08Z</time>
      </trkpt>
      <trkpt lat="47.12724" lon="5.88334">
        <ele>352.6</ele>
        <time>2024-08-05T09:26:09Z</time>
      </trkpt>
      <trkpt lat="47.12722" lon="5.88334">
        <ele>352.6</ele>
        <time>2024-08-05T09:26:10Z</time>
      </trkpt>
      <trkpt lat="47.1272" lon="5.88334">
        <ele>352.6</ele>
        <time>2024-08-05T09:26:11Z</time>
      </trkpt>
      <trkpt lat="47.12718" lon="5.88334">
        <ele>352.8</ele>
        <time>2024-08-05T09:26:12Z</time>
      </trkpt>
      <trkpt lat="47.12716" lon="5.88334">
        <ele>352.8</ele>
        <time>2024-08-05T09:26:13Z</time>
      </trkpt>
      <trkpt lat="47.12714" lon="5.88333">
        <ele>353</ele>
        <time>2024-08-05T09:26:14Z</time>
      </trkpt>
      <trkpt lat="47.12712" lon="5.88334">
        <ele>353.4</ele>
        <time>2024-08-05T09:26:15Z</time>
      </trkpt>
      <trkpt lat="47.12709" lon="5.88334">
        <ele>353.4</ele>
        <time>2024-08-05T09:26:16Z</time>
      </trkpt>
      <trkpt lat="47.12705" lon="5.88333">
        <ele>353.6</ele>
        <time>2024-08-05T09:26:17Z</time>
      </trkpt>
      <trkpt lat="47.12703" lon="5.88333">
        <ele>353.6</ele>
        <time>2024-08-05T09:26:18Z</time>
      </trkpt>
      <trkpt lat="47.12703" lon="5.88333">
        <ele>353.8</ele>
        <time>2024-08-05T09:26:19Z</time>
      </trkpt>
      <trkpt lat="47.12702" lon="5.88333">
        <ele>353.8</ele>
        <time>2024-08-05T09:26:20Z</time>
      </trkpt>
      <trkpt lat="47.127" lon="5.88333">
        <ele>354</ele>
        <time>2024-08-05T09:26:21Z</time>
      </trkpt>
      <trkpt lat="47.12696" lon="5.88331">
        <ele>354.2</ele>
        <time>2024-08-05T09:26:22Z</time>
      </trkpt>
      <trkpt lat="47.12694" lon="5.88331">
        <ele>354.2</ele>
        <time>2024-08-05T09:26:23Z</time>
      </trkpt>
      <trkpt lat="47.12694" lon="5.88331">
        <ele>354.4</ele>
        <time>2024-08-05T09:26:24Z</time>
      </trkpt>
      <trkpt lat="47.12692" lon="5.88332">
        <ele>354.6</ele>
        <time>2024-08-05T09:26:25Z</time>
      </trkpt>
      <trkpt lat="47.1269" lon="5.88332">
        <ele>354.6</ele>
        <time>2024-08-05T09:26:26Z</time>
      </trkpt>
      <trkpt lat="47.12688" lon="5.88332">
        <ele>354.6</ele>
        <time>2024-08-05T09:26:27Z</time>
      </trkpt>
      <trkpt lat="47.12687" lon="5.88332">
        <ele>354.8</ele>
        <time>2024-08-05T09:26:28Z</time>
      </trkpt>
      <trkpt lat="47.12685" lon="5.88333">
        <ele>354.8</ele>
        <time>2024-08-05T09:26:29Z</time>
      </trkpt>
      <trkpt lat="47.12683" lon="5.88333">
        <ele>355</ele>
        <time>2024-08-05T09:26:30Z</time>
      </trkpt>
      <trkpt lat="47.12681" lon="5.88334">
        <ele>355.2</ele>
        <time>2024-08-05T09:26:31Z</time>
      </trkpt>
      <trkpt lat="47.12679" lon="5.88334">
        <ele>355.2</ele>
        <time>2024-08-05T09:26:32Z</time>
      </trkpt>
      <trkpt lat="47.12677" lon="5.88334">
        <ele>355.4</ele>
        <time>2024-08-05T09:26:33Z</time>
      </trkpt>
      <trkpt lat="47.12675" lon="5.88334">
        <ele>355.4</ele>
        <time>2024-08-05T09:26:34Z</time>
      </trkpt>
      <trkpt lat="47.12673" lon="5.88334">
        <ele>355.6</ele>
        <time>2024-08-05T09:26:35Z</time>
      </trkpt>
      <trkpt lat="47.12672" lon="5.88334">
        <ele>355.8</ele>
        <time>2024-08-05T09:26:36Z</time>
      </trkpt>
      <trkpt lat="47.1267" lon="5.88335">
        <ele>356</ele>
        <time>2024-08-05T09:26:37Z</time>
      </trkpt>
      <trkpt lat="47.12668" lon="5.88335">
        <ele>356.2</ele>
        <time>2024-08-05T09:26:38Z</time>
      </trkpt>
      <trkpt lat="47.12667" lon="5.88335">
        <ele>356.4</ele>
        <time>2024-08-05T09:26:39Z</time>
      </trkpt>
      <trkpt lat="47.12665" lon="5.88336">
        <ele>356.8</ele>
        <time>2024-08-05T09:26:40Z</time>
      </trkpt>
      <trkpt lat="47.12664" lon="5.88337">
        <ele>357</ele>
        <time>2024-08-05T09:26:41Z</time>
      </trkpt>
      <trkpt lat="47.12662" lon="5.88337">
        <ele>357.2</ele>
        <time>2024-08-05T09:26:42Z</time>
      </trkpt>
      <trkpt lat="47.12661" lon="5.88338">
        <ele>357.4</ele>
        <time>2024-08-05T09:26:43Z</time>
      </trkpt>
      <trkpt lat="47.12659" lon="5.88339">
        <ele>357.6</ele>
        <time>2024-08-05T09:26:44Z</time>
      </trkpt>
      <trkpt lat="47.12658" lon="5.8834">
        <ele>358</ele>
        <time>2024-08-05T09:26:45Z</time>
      </trkpt>
      <trkpt lat="47.12656" lon="5.8834">
        <ele>358</ele>
        <time>2024-08-05T09:26:46Z</time>
      </trkpt>
      <trkpt lat="47.12655" lon="5.88341">
        <ele>358.2</ele>
        <time>2024-08-05T09:26:47Z</time>
      </trkpt>
      <trkpt lat="47.12653" lon="5.88342">
        <ele>358.6</ele>
        <time>2024-08-05T09:26:48Z</time>
      </trkpt>
      <trkpt lat="47.12651" lon="5.88342">
        <ele>358.8</ele>
        <time>2024-08-05T09:26:49Z</time>
      </trkpt>
      <trkpt lat="47.1265" lon="5.88343">
        <ele>359.2</ele>
        <time>2024-08-05T09:26:50Z</time>
      </trkpt>
      <trkpt lat="47.12648" lon="5.88344">
        <ele>359.2</ele>
        <time>2024-08-05T09:26:51Z</time>
      </trkpt>
      <trkpt lat="47.12647" lon="5.88344">
        <ele>359.4</ele>
        <time>2024-08-05T09:26:52Z</time>
      </trkpt>
      <trkpt lat="47.12645" lon="5.88345">
        <ele>359.6</ele>
        <time>2024-08-05T09:26:53Z</time>
      </trkpt>
      <trkpt lat="47.12644" lon="5.88345">
        <ele>359.6</ele>
        <time>2024-08-05T09:26:54Z</time>
      </trkpt>
      <trkpt lat="47.12642" lon="5.88345">
        <ele>359.8</ele>
        <time>2024-08-05T09:26:55Z</time>
      </trkpt>
      <trkpt lat="47.1264" lon="5.88345">
        <ele>360</ele>
        <time>2024-08-05T09:26:56Z</time>
      </trkpt>
      <trkpt lat="47.12639" lon="5.88346">
        <ele>360.2</ele>
        <time>2024-08-05T09:26:57Z</time>
      </trkpt>
      <trkpt lat="47.12637" lon="5.88346">
        <ele>360.4</ele>
        <time>2024-08-05T09:26:58Z</time>
      </trkpt>
      <trkpt lat="47.12636" lon="5.88346">
        <ele>360.6</ele>
        <time>2024-08-05T09:26:59Z</time>
      </trkpt>
      <trkpt lat="47.12635" lon="5.88347">
        <ele>360.8</ele>
        <time>2024-08-05T09:27:00Z</time>
      </trkpt>
      <trkpt lat="47.12633" lon="5.88347">
        <ele>361.2</ele>
        <time>2024-08-05T09:27:01Z</time>
      </trkpt>
      <trkpt lat="47.12632" lon="5.88347">
        <ele>361.4</ele>
        <time>2024-08-05T09:27:02Z</time>
      </trkpt>
      <trkpt lat="47.1263" lon="5.88348">
        <ele>361.6</ele>
        <time>2024-08-05T09:27:03Z</time>
      </trkpt>
      <trkpt lat="47.12628" lon="5.88347">
        <ele>361.8</ele>
        <time>2024-08-05T09:27:04Z</time>
      </trkpt>
      <trkpt lat="47.12627" lon="5.88346">
        <ele>362</ele>
        <time>2024-08-05T09:27:05Z</time>
      </trkpt>
      <trkpt lat="47.12625" lon="5.88346">
        <ele>362.2</ele>
        <time>2024-08-05T09:27:06Z</time>
      </trkpt>
      <trkpt lat="47.12624" lon="5.88346">
        <ele>362.4</ele>
        <time>2024-08-05T09:27:07Z</time>
      </trkpt>
      <trkpt lat="47.12622" lon="5.88346">
        <ele>363</ele>
        <time>2024-08-05T09:27:08Z</time>
      </trkpt>
      <trkpt lat="47.1262" lon="5.88347">
        <ele>363.2</ele>
        <time>2024-08-05T09:27:09Z</time>
      </trkpt>
      <trkpt lat="47.12618" lon="5.88347">
        <ele>363.4</ele>
        <time>2024-08-05T09:27:10Z</time>
      </trkpt>
      <trkpt lat="47.12617" lon="5.88348">
        <ele>363.6</ele>
        <time>2024-08-05T09:27:11Z</time>
      </trkpt>
      <trkpt lat="47.12615" lon="5.88348">
        <ele>363.8</ele>
        <time>2024-08-05T09:27:12Z</time>
      </trkpt>
      <trkpt lat="47.12613" lon="5.88349">
        <ele>364.2</ele>
        <time>2024-08-05T09:27:13Z</time>
      </trkpt>
      <trkpt lat="47.12612" lon="5.88349">
        <ele>364.4</ele>
        <time>2024-08-05T09:27:14Z</time>
      </trkpt>
      <trkpt lat="47.1261" lon="5.88349">
        <ele>364.6</ele>
        <time>2024-08-05T09:27:15Z</time>
      </trkpt>
      <trkpt lat="47.12609" lon="5.88348">
        <ele>364.6</ele>
        <time>2024-08-05T09:27:16Z</time>
      </trkpt>
      <trkpt lat="47.12607" lon="5.88348">
        <ele>364.8</ele>
        <time>2024-08-05T09:27:17Z</time>
      </trkpt>
      <trkpt lat="47.12605" lon="5.88348">
        <ele>365</ele>
        <time>2024-08-05T09:27:18Z</time>
      </trkpt>
      <trkpt lat="47.12604" lon="5.88348">
        <ele>365.2</ele>
        <time>2024-08-05T09:27:19Z</time>
      </trkpt>
      <trkpt lat="47.12603" lon="5.88348">
        <ele>365.2</ele>
        <time>2024-08-05T09:27:20Z</time>
      </trkpt>
      <trkpt lat="47.12601" lon="5.88348">
        <ele>365.4</ele>
        <time>2024-08-05T09:27:21Z</time>
      </trkpt>
      <trkpt lat="47.12599" lon="5.88348">
        <ele>365.8</ele>
        <time>2024-08-05T09:27:22Z</time>
      </trkpt>
      <trkpt lat="47.12598" lon="5.88348">
        <ele>366</ele>
        <time>2024-08-05T09:27:23Z</time>
      </trkpt>
      <trkpt lat="47.12596" lon="5.88347">
        <ele>366</ele>
        <time>2024-08-05T09:27:24Z</time>
      </trkpt>
      <trkpt lat="47.12595" lon="5.88347">
        <ele>366.2</ele>
        <time>2024-08-05T09:27:25Z</time>
      </trkpt>
      <trkpt lat="47.12593" lon="5.88347">
        <ele>366.4</ele>
        <time>2024-08-05T09:27:26Z</time>
      </trkpt>
      <trkpt lat="47.12592" lon="5.88347">
        <ele>366.6</ele>
        <time>2024-08-05T09:27:27Z</time>
      </trkpt>
      <trkpt lat="47.1259" lon="5.88347">
        <ele>366.8</ele>
        <time>2024-08-05T09:27:28Z</time>
      </trkpt>
      <trkpt lat="47.12589" lon="5.88347">
        <ele>367</ele>
        <time>2024-08-05T09:27:29Z</time>
      </trkpt>
      <trkpt lat="47.12587" lon="5.88347">
        <ele>367.6</ele>
        <time>2024-08-05T09:27:30Z</time>
      </trkpt>
      <trkpt lat="47.12585" lon="5.88346">
        <ele>367.8</ele>
        <time>2024-08-05T09:27:31Z</time>
      </trkpt>
      <trkpt lat="47.12583" lon="5.88346">
        <ele>368.2</ele>
        <time>2024-08-05T09:27:32Z</time>
      </trkpt>
      <trkpt lat="47.12581" lon="5.88346">
        <ele>368.4</ele>
        <time>2024-08-05T09:27:33Z</time>
      </trkpt>
      <trkpt lat="47.1258" lon="5.88346">
        <ele>368.6</ele>
        <time>2024-08-05T09:27:34Z</time>
      </trkpt>
      <trkpt lat="47.12578" lon="5.88346">
        <ele>368.8</ele>
        <time>2024-08-05T09:27:35Z</time>
      </trkpt>
      <trkpt lat="47.12576" lon="5.88346">
        <ele>369</ele>
        <time>2024-08-05T09:27:36Z</time>
      </trkpt>
      <trkpt lat="47.12575" lon="5.88346">
        <ele>369.2</ele>
        <time>2024-08-05T09:27:37Z</time>
      </trkpt>
      <trkpt lat="47.12573" lon="5.88346">
        <ele>369.2</ele>
        <time>2024-08-05T09:27:38Z</time>
      </trkpt>
      <trkpt lat="47.12572" lon="5.88346">
        <ele>369.4</ele>
        <time>2024-08-05T09:27:39Z</time>
      </trkpt>
      <trkpt lat="47.1257" lon="5.88346">
        <ele>369.8</ele>
        <time>2024-08-05T09:27:40Z</time>
      </trkpt>
      <trkpt lat="47.12568" lon="5.88346">
        <ele>370</ele>
        <time>2024-08-05T09:27:41Z</time>
      </trkpt>
      <trkpt lat="47.12567" lon="5.88346">
        <ele>370</ele>
        <time>2024-08-05T09:27:42Z</time>
      </trkpt>
      <trkpt lat="47.12566" lon="5.88345">
        <ele>370.2</ele>
        <time>2024-08-05T09:27:43Z</time>
      </trkpt>
      <trkpt lat="47.12564" lon="5.88345">
        <ele>370.4</ele>
        <time>2024-08-05T09:27:44Z</time>
      </trkpt>
      <trkpt lat="47.12563" lon="5.88345">
        <ele>370.6</ele>
        <time>2024-08-05T09:27:45Z</time>
      </trkpt>
      <trkpt lat="47.12561" lon="5.88345">
        <ele>370.8</ele>
        <time>2024-08-05T09:27:46Z</time>
      </trkpt>
      <trkpt lat="47.12559" lon="5.88345">
        <ele>370.8</ele>
        <time>2024-08-05T09:27:47Z</time>
      </trkpt>
      <trkpt lat="47.12558" lon="5.88345">
        <ele>371.2</ele>
        <time>2024-08-05T09:27:48Z</time>
      </trkpt>
      <trkpt lat="47.12556" lon="5.88345">
        <ele>371.4</ele>
        <time>2024-08-05T09:27:49Z</time>
      </trkpt>
      <trkpt lat="47.12555" lon="5.88345">
        <ele>371.8</ele>
        <time>2024-08-05T09:27:50Z</time>
      </trkpt>
      <trkpt lat="47.12554" lon="5.88346">
        <ele>372</ele>
        <time>2024-08-05T09:27:51Z</time>
      </trkpt>
      <trkpt lat="47.12552" lon="5.88346">
        <ele>372.2</ele>
        <time>2024-08-05T09:27:52Z</time>
      </trkpt>
      <trkpt lat="47.12551" lon="5.88347">
        <ele>372.4</ele>
        <time>2024-08-05T09:27:53Z</time>
      </trkpt>
      <trkpt lat="47.1255" lon="5.88347">
        <ele>372.6</ele>
        <time>2024-08-05T09:27:54Z</time>
      </trkpt>
      <trkpt lat="47.12549" lon="5.88347">
        <ele>372.6</ele>
        <time>2024-08-05T09:27:55Z</time>
      </trkpt>
      <trkpt lat="47.12548" lon="5.88347">
        <ele>373</ele>
        <time>2024-08-05T09:27:56Z</time>
      </trkpt>
      <trkpt lat="47.12547" lon="5.88346">
        <ele>373.2</ele>
        <time>2024-08-05T09:27:57Z</time>
      </trkpt>
      <trkpt lat="47.12546" lon="5.88346">
        <ele>373.4</ele>
        <time>2024-08-05T09:27:58Z</time>
      </trkpt>
      <trkpt lat="47.12544" lon="5.88347">
        <ele>373.6</ele>
        <time>2024-08-05T09:27:59Z</time>
      </trkpt>
      <trkpt lat="47.12543" lon="5.88348">
        <ele>373.6</ele>
        <time>2024-08-05T09:28:00Z</time>
      </trkpt>
      <trkpt lat="47.12542" lon="5.88349">
        <ele>374</ele>
        <time>2024-08-05T09:28:01Z</time>
      </trkpt>
      <trkpt lat="47.12541" lon="5.8835">
        <ele>374</ele>
        <time>2024-08-05T09:28:02Z</time>
      </trkpt>
      <trkpt lat="47.1254" lon="5.88351">
        <ele>374.4</ele>
        <time>2024-08-05T09:28:03Z</time>
      </trkpt>
      <trkpt lat="47.12538" lon="5.88352">
        <ele>374.4</ele>
        <time>2024-08-05T09:28:04Z</time>
      </trkpt>
      <trkpt lat="47.12537" lon="5.88352">
        <ele>374.6</ele>
        <time>2024-08-05T09:28:05Z</time>
      </trkpt>
      <trkpt lat="47.12535" lon="5.88352">
        <ele>374.8</ele>
        <time>2024-08-05T09:28:06Z</time>
      </trkpt>
      <trkpt lat="47.12534" lon="5.88353">
        <ele>375</ele>
        <time>2024-08-05T09:28:07Z</time>
      </trkpt>
      <trkpt lat="47.12532" lon="5.88353">
        <ele>375.2</ele>
        <time>2024-08-05T09:28:08Z</time>
      </trkpt>
      <trkpt lat="47.12531" lon="5.88354">
        <ele>375.8</ele>
        <time>2024-08-05T09:28:09Z</time>
      </trkpt>
      <trkpt lat="47.1253" lon="5.88355">
        <ele>375.8</ele>
        <time>2024-08-05T09:28:10Z</time>
      </trkpt>
      <trkpt lat="47.12528" lon="5.88355">
        <ele>376.2</ele>
        <time>2024-08-05T09:28:11Z</time>
      </trkpt>
      <trkpt lat="47.12527" lon="5.88356">
        <ele>376.4</ele>
        <time>2024-08-05T09:28:12Z</time>
      </trkpt>
      <trkpt lat="47.12526" lon="5.88356">
        <ele>377</ele>
        <time>2024-08-05T09:28:13Z</time>
      </trkpt>
      <trkpt lat="47.12524" lon="5.88357">
        <ele>377.2</ele>
        <time>2024-08-05T09:28:14Z</time>
      </trkpt>
      <trkpt lat="47.12523" lon="5.88357">
        <ele>377.4</ele>
        <time>2024-08-05T09:28:15Z</time>
      </trkpt>
      <trkpt lat="47.12522" lon="5.88358">
        <ele>377.6</ele>
        <time>2024-08-05T09:28:16Z</time>
      </trkpt>
      <trkpt lat="47.1252" lon="5.88359">
        <ele>377.8</ele>
        <time>2024-08-05T09:28:17Z</time>
      </trkpt>
      <trkpt lat="47.12518" lon="5.8836">
        <ele>378</ele>
        <time>2024-08-05T09:28:18Z</time>
      </trkpt>
      <trkpt lat="47.12517" lon="5.88359">
        <ele>378.2</ele>
        <time>2024-08-05T09:28:19Z</time>
      </trkpt>
      <trkpt lat="47.12515" lon="5.88359">
        <ele>378.4</ele>
        <time>2024-08-05T09:28:20Z</time>
      </trkpt>
      <trkpt lat="47.12514" lon="5.88359">
        <ele>378.6</ele>
        <time>2024-08-05T09:28:21Z</time>
      </trkpt>
      <trkpt lat="47.12512" lon="5.88359">
        <ele>378.6</ele>
        <time>2024-08-05T09:28:22Z</time>
      </trkpt>
      <trkpt lat="47.12511" lon="5.88359">
        <ele>378.8</ele>
        <time>2024-08-05T09:28:23Z</time>
      </trkpt>
      <trkpt lat="47.12509" lon="5.88359">
        <ele>379.2</ele>
        <time>2024-08-05T09:28:24Z</time>
      </trkpt>
      <trkpt lat="47.12508" lon="5.88358">
        <ele>379.4</ele>
        <time>2024-08-05T09:28:25Z</time>
      </trkpt>
      <trkpt lat="47.12506" lon="5.88358">
        <ele>379.8</ele>
        <time>2024-08-05T09:28:26Z</time>
      </trkpt>
      <trkpt lat="47.12505" lon="5.88357">
        <ele>379.8</ele>
        <time>2024-08-05T09:28:27Z</time>
      </trkpt>
      <trkpt lat="47.12503" lon="5.88357">
        <ele>380.4</ele>
        <time>2024-08-05T09:28:28Z</time>
      </trkpt>
      <trkpt lat="47.12502" lon="5.88356">
        <ele>380.8</ele>
        <time>2024-08-05T09:28:29Z</time>
      </trkpt>
      <trkpt lat="47.125" lon="5.88355">
        <ele>381.2</ele>
        <time>2024-08-05T09:28:30Z</time>
      </trkpt>
      <trkpt lat="47.12499" lon="5.88354">
        <ele>381.4</ele>
        <time>2024-08-05T09:28:31Z</time>
      </trkpt>
      <trkpt lat="47.12497" lon="5.88354">
        <ele>381.6</ele>
        <time>2024-08-05T09:28:32Z</time>
      </trkpt>
      <trkpt lat="47.12494" lon="5.88354">
        <ele>381.8</ele>
        <time>2024-08-05T09:28:33Z</time>
      </trkpt>
      <trkpt lat="47.12494" lon="5.88354">
        <ele>382.2</ele>
        <time>2024-08-05T09:28:34Z</time>
      </trkpt>
      <trkpt lat="47.12493" lon="5.88353">
        <ele>382.2</ele>
        <time>2024-08-05T09:28:35Z</time>
      </trkpt>
      <trkpt lat="47.12491" lon="5.88353">
        <ele>382.6</ele>
        <time>2024-08-05T09:28:36Z</time>
      </trkpt>
      <trkpt lat="47.1249" lon="5.88353">
        <ele>382.8</ele>
        <time>2024-08-05T09:28:37Z</time>
      </trkpt>
      <trkpt lat="47.12488" lon="5.88353">
        <ele>383</ele>
        <time>2024-08-05T09:28:38Z</time>
      </trkpt>
      <trkpt lat="47.12486" lon="5.88352">
        <ele>383</ele>
        <time>2024-08-05T09:28:39Z</time>
      </trkpt>
      <trkpt lat="47.12485" lon="5.88353">
        <ele>383.2</ele>
        <time>2024-08-05T09:28:40Z</time>
      </trkpt>
      <trkpt lat="47.12484" lon="5.88354">
        <ele>383.4</ele>
        <time>2024-08-05T09:28:41Z</time>
      </trkpt>
      <trkpt lat="47.12484" lon="5.88355">
        <ele>383.4</ele>
        <time>2024-08-05T09:28:42Z</time>
      </trkpt>
      <trkpt lat="47.12483" lon="5.88357">
        <ele>383.8</ele>
        <time>2024-08-05T09:28:43Z</time>
      </trkpt>
      <trkpt lat="47.12483" lon="5.88358">
        <ele>383.8</ele>
        <time>2024-08-05T09:28:44Z</time>
      </trkpt>
      <trkpt lat="47.12483" lon="5.88359">
        <ele>383.8</ele>
        <time>2024-08-05T09:28:45Z</time>
      </trkpt>
      <trkpt lat="47.12483" lon="5.88361">
        <ele>384</ele>
        <time>2024-08-05T09:28:46Z</time>
      </trkpt>
      <trkpt lat="47.12482" lon="5.88362">
        <ele>384</ele>
        <time>2024-08-05T09:28:47Z</time>
      </trkpt>
      <trkpt lat="47.12481" lon="5.88363">
        <ele>384.2</ele>
        <time>2024-08-05T09:28:48Z</time>
      </trkpt>
      <trkpt lat="47.1248" lon="5.88363">
        <ele>384.6</ele>
        <time>2024-08-05T09:28:49Z</time>
      </trkpt>
      <trkpt lat="47.12479" lon="5.88363">
        <ele>384.6</ele>
        <time>2024-08-05T09:28:50Z</time>
      </trkpt>
      <trkpt lat="47.12477" lon="5.88363">
        <ele>384.8</ele>
        <time>2024-08-05T09:28:51Z</time>
      </trkpt>
      <trkpt lat="47.12476" lon="5.88362">
        <ele>385</ele>
        <time>2024-08-05T09:28:52Z</time>
      </trkpt>
      <trkpt lat="47.12474" lon="5.88361">
        <ele>385.2</ele>
        <time>2024-08-05T09:28:53Z</time>
      </trkpt>
      <trkpt lat="47.12472" lon="5.88358">
        <ele>385.4</ele>
        <time>2024-08-05T09:28:54Z</time>
      </trkpt>
      <trkpt lat="47.12471" lon="5.88356">
        <ele>385.4</ele>
        <time>2024-08-05T09:28:55Z</time>
      </trkpt>
      <trkpt lat="47.12471" lon="5.88356">
        <ele>385.6</ele>
        <time>2024-08-05T09:28:56Z</time>
      </trkpt>
      <trkpt lat="47.12469" lon="5.88355">
        <ele>385.4</ele>
        <time>2024-08-05T09:28:57Z</time>
      </trkpt>
      <trkpt lat="47.12467" lon="5.88354">
        <ele>385.6</ele>
        <time>2024-08-05T09:28:58Z</time>
      </trkpt>
      <trkpt lat="47.12465" lon="5.88353">
        <ele>385.8</ele>
        <time>2024-08-05T09:28:59Z</time>
      </trkpt>
      <trkpt lat="47.12464" lon="5.88351">
        <ele>385.8</ele>
        <time>2024-08-05T09:29:00Z</time>
      </trkpt>
      <trkpt lat="47.12462" lon="5.8835">
        <ele>386</ele>
        <time>2024-08-05T09:29:01Z</time>
      </trkpt>
      <trkpt lat="47.12461" lon="5.88348">
        <ele>386</ele>
        <time>2024-08-05T09:29:02Z</time>
      </trkpt>
      <trkpt lat="47.12459" lon="5.88347">
        <ele>386</ele>
        <time>2024-08-05T09:29:03Z</time>
      </trkpt>
      <trkpt lat="47.12458" lon="5.88346">
        <ele>386.4</ele>
        <time>2024-08-05T09:29:04Z</time>
      </trkpt>
      <trkpt lat="47.12456" lon="5.88344">
        <ele>386.4</ele>
        <time>2024-08-05T09:29:05Z</time>
      </trkpt>
      <trkpt lat="47.12454" lon="5.88343">
        <ele>386.4</ele>
        <time>2024-08-05T09:29:06Z</time>
      </trkpt>
      <trkpt lat="47.12452" lon="5.88342">
        <ele>386.6</ele>
        <time>2024-08-05T09:29:07Z</time>
      </trkpt>
      <trkpt lat="47.12451" lon="5.88341">
        <ele>386.8</ele>
        <time>2024-08-05T09:29:08Z</time>
      </trkpt>
      <trkpt lat="47.1245" lon="5.8834">
        <ele>386.8</ele>
        <time>2024-08-05T09:29:09Z</time>
      </trkpt>
      <trkpt lat="47.12448" lon="5.88338">
        <ele>387</ele>
        <time>2024-08-05T09:29:10Z</time>
      </trkpt>
      <trkpt lat="47.12448" lon="5.88333">
        <ele>387.2</ele>
        <time>2024-08-05T09:29:11Z</time>
      </trkpt>
      <trkpt lat="47.12448" lon="5.88333">
        <ele>387.2</ele>
        <time>2024-08-05T09:29:12Z</time>
      </trkpt>
      <trkpt lat="47.12448" lon="5.88328">
        <ele>387.6</ele>
        <time>2024-08-05T09:29:13Z</time>
      </trkpt>
      <trkpt lat="47.12448" lon="5.88328">
        <ele>387.6</ele>
        <time>2024-08-05T09:29:14Z</time>
      </trkpt>
      <trkpt lat="47.12447" lon="5.88326">
        <ele>387.6</ele>
        <time>2024-08-05T09:29:15Z</time>
      </trkpt>
      <trkpt lat="47.12447" lon="5.88324">
        <ele>387.8</ele>
        <time>2024-08-05T09:29:16Z</time>
      </trkpt>
      <trkpt lat="47.12446" lon="5.88324">
        <ele>387.8</ele>
        <time>2024-08-05T09:29:17Z</time>
      </trkpt>
      <trkpt lat="47.12446" lon="5.88324">
        <ele>387.8</ele>
        <time>2024-08-05T09:29:18Z</time>
      </trkpt>
      <trkpt lat="47.12445" lon="5.88324">
        <ele>387.8</ele>
        <time>2024-08-05T09:29:19Z</time>
      </trkpt>
      <trkpt lat="47.12444" lon="5.88325">
        <ele>388</ele>
        <time>2024-08-05T09:29:20Z</time>
      </trkpt>
      <trkpt lat="47.12443" lon="5.88327">
        <ele>388.2</ele>
        <time>2024-08-05T09:29:21Z</time>
      </trkpt>
      <trkpt lat="47.12442" lon="5.8833">
        <ele>388.2</ele>
        <time>2024-08-05T09:29:22Z</time>
      </trkpt>
      <trkpt lat="47.12442" lon="5.88332">
        <ele>388.2</ele>
        <time>2024-08-05T09:29:23Z</time>
      </trkpt>
      <trkpt lat="47.12442" lon="5.88334">
        <ele>388.2</ele>
        <time>2024-08-05T09:29:24Z</time>
      </trkpt>
      <trkpt lat="47.12442" lon="5.88336">
        <ele>388.4</ele>
        <time>2024-08-05T09:29:25Z</time>
      </trkpt>
      <trkpt lat="47.12443" lon="5.88338">
        <ele>388.4</ele>
        <time>2024-08-05T09:29:26Z</time>
      </trkpt>
      <trkpt lat="47.12444" lon="5.8834">
        <ele>388.2</ele>
        <time>2024-08-05T09:29:27Z</time>
      </trkpt>
      <trkpt lat="47.12445" lon="5.88342">
        <ele>388.2</ele>
        <time>2024-08-05T09:29:28Z</time>
      </trkpt>
      <trkpt lat="47.12446" lon="5.88343">
        <ele>388.4</ele>
        <time>2024-08-05T09:29:29Z</time>
      </trkpt>
      <trkpt lat="47.12446" lon="5.88345">
        <ele>388.4</ele>
        <time>2024-08-05T09:29:30Z</time>
      </trkpt>
      <trkpt lat="47.12447" lon="5.88345">
        <ele>388.4</ele>
        <time>2024-08-05T09:29:31Z</time>
      </trkpt>
      <trkpt lat="47.12447" lon="5.88346">
        <ele>388.4</ele>
        <time>2024-08-05T09:29:32Z</time>
      </trkpt>
      <trkpt lat="47.12447" lon="5.88346">
        <ele>388.4</ele>
        <time>2024-08-05T09:29:33Z</time>
      </trkpt>
      <trkpt lat="47.12447" lon="5.88347">
        <ele>388.4</ele>
        <time>2024-08-05T09:29:34Z</time>
      </trkpt>
      <trkpt lat="47.12447" lon="5.88347">
        <ele>388.4</ele>
        <time>2024-08-05T09:29:35Z</time>
      </trkpt>
      <trkpt lat="47.12448" lon="5.88347">
        <ele>388.4</ele>
        <time>2024-08-05T09:29:36Z</time>
      </trkpt>
      <trkpt lat="47.12448" lon="5.88347">
        <ele>388.4</ele>
        <time>2024-08-05T09:29:37Z</time>
      </trkpt>
      <trkpt lat="47.12449" lon="5.88347">
        <ele>388.4</ele>
        <time>2024-08-05T09:29:38Z</time>
      </trkpt>
      <trkpt lat="47.1245" lon="5.88348">
        <ele>388.4</ele>
        <time>2024-08-05T09:29:39Z</time>
      </trkpt>
      <trkpt lat="47.12452" lon="5.88349">
        <ele>388.4</ele>
        <time>2024-08-05T09:29:40Z</time>
      </trkpt>
      <trkpt lat="47.12453" lon="5.8835">
        <ele>388.4</ele>
        <time>2024-08-05T09:29:41Z</time>
      </trkpt>
      <trkpt lat="47.12455" lon="5.88352">
        <ele>388.2</ele>
        <time>2024-08-05T09:29:42Z</time>
      </trkpt>
      <trkpt lat="47.12457" lon="5.88353">
        <ele>388.2</ele>
        <time>2024-08-05T09:29:43Z</time>
      </trkpt>
      <trkpt lat="47.1246" lon="5.88355">
        <ele>388.2</ele>
        <time>2024-08-05T09:29:44Z</time>
      </trkpt>
      <trkpt lat="47.12463" lon="5.88356">
        <ele>388.2</ele>
        <time>2024-08-05T09:29:45Z</time>
      </trkpt>
      <trkpt lat="47.12466" lon="5.88358">
        <ele>388.2</ele>
        <time>2024-08-05T09:29:46Z</time>
      </trkpt>
      <trkpt lat="47.12469" lon="5.88361">
        <ele>388</ele>
        <time>2024-08-05T09:29:47Z</time>
      </trkpt>
      <trkpt lat="47.12473" lon="5.88364">
        <ele>388</ele>
        <time>2024-08-05T09:29:48Z</time>
      </trkpt>
      <trkpt lat="47.12476" lon="5.88367">
        <ele>388</ele>
        <time>2024-08-05T09:29:49Z</time>
      </trkpt>
      <trkpt lat="47.12479" lon="5.88369">
        <ele>388</ele>
        <time>2024-08-05T09:29:50Z</time>
      </trkpt>
      <trkpt lat="47.1248" lon="5.88371">
        <ele>387.8</ele>
        <time>2024-08-05T09:29:51Z</time>
      </trkpt>
      <trkpt lat="47.12482" lon="5.88373">
        <ele>387.4</ele>
        <time>2024-08-05T09:29:52Z</time>
      </trkpt>
      <trkpt lat="47.12483" lon="5.88374">
        <ele>387.2</ele>
        <time>2024-08-05T09:29:53Z</time>
      </trkpt>
      <trkpt lat="47.12484" lon="5.88375">
        <ele>387.2</ele>
        <time>2024-08-05T09:29:54Z</time>
      </trkpt>
      <trkpt lat="47.12485" lon="5.88377">
        <ele>387</ele>
        <time>2024-08-05T09:29:55Z</time>
      </trkpt>
      <trkpt lat="47.12486" lon="5.88378">
        <ele>386.8</ele>
        <time>2024-08-05T09:29:56Z</time>
      </trkpt>
      <trkpt lat="47.12488" lon="5.8838">
        <ele>386.6</ele>
        <time>2024-08-05T09:29:57Z</time>
      </trkpt>
      <trkpt lat="47.12491" lon="5.88382">
        <ele>386.2</ele>
        <time>2024-08-05T09:29:58Z</time>
      </trkpt>
      <trkpt lat="47.12493" lon="5.88384">
        <ele>386</ele>
        <time>2024-08-05T09:29:59Z</time>
      </trkpt>
      <trkpt lat="47.12496" lon="5.88387">
        <ele>385.8</ele>
        <time>2024-08-05T09:30:00Z</time>
      </trkpt>
      <trkpt lat="47.12499" lon="5.88389">
        <ele>385.8</ele>
        <time>2024-08-05T09:30:01Z</time>
      </trkpt>
      <trkpt lat="47.12502" lon="5.88392">
        <ele>385.6</ele>
        <time>2024-08-05T09:30:02Z</time>
      </trkpt>
      <trkpt lat="47.12506" lon="5.88395">
        <ele>385.6</ele>
        <time>2024-08-05T09:30:03Z</time>
      </trkpt>
      <trkpt lat="47.12514" lon="5.88402">
        <ele>385.4</ele>
        <time>2024-08-05T09:30:04Z</time>
      </trkpt>
      <trkpt lat="47.12514" lon="5.88402">
        <ele>385.4</ele>
        <time>2024-08-05T09:30:05Z</time>
      </trkpt>
      <trkpt lat="47.12519" lon="5.88405">
        <ele>385.4</ele>
        <time>2024-08-05T09:30:06Z</time>
      </trkpt>
      <trkpt lat="47.1253" lon="5.88413">
        <ele>385.2</ele>
        <time>2024-08-05T09:30:07Z</time>
      </trkpt>
      <trkpt lat="47.12536" lon="5.88417">
        <ele>385</ele>
        <time>2024-08-05T09:30:08Z</time>
      </trkpt>
      <trkpt lat="47.12536" lon="5.88417">
        <ele>384.6</ele>
        <time>2024-08-05T09:30:09Z</time>
      </trkpt>
      <trkpt lat="47.12549" lon="5.88427">
        <ele>384.4</ele>
        <time>2024-08-05T09:30:10Z</time>
      </trkpt>
      <trkpt lat="47.12556" lon="5.88432">
        <ele>384.4</ele>
        <time>2024-08-05T09:30:11Z</time>
      </trkpt>
      <trkpt lat="47.12563" lon="5.88437">
        <ele>384.4</ele>
        <time>2024-08-05T09:30:12Z</time>
      </trkpt>
      <trkpt lat="47.12571" lon="5.88443">
        <ele>384</ele>
        <time>2024-08-05T09:30:13Z</time>
      </trkpt>
      <trkpt lat="47.12578" lon="5.88449">
        <ele>383.6</ele>
        <time>2024-08-05T09:30:14Z</time>
      </trkpt>
      <trkpt lat="47.12578" lon="5.88449">
        <ele>383.4</ele>
        <time>2024-08-05T09:30:15Z</time>
      </trkpt>
      <trkpt lat="47.12586" lon="5.88455">
        <ele>382.8</ele>
        <time>2024-08-05T09:30:16Z</time>
      </trkpt>
      <trkpt lat="47.12604" lon="5.8847">
        <ele>382.4</ele>
        <time>2024-08-05T09:30:17Z</time>
      </trkpt>
      <trkpt lat="47.12604" lon="5.8847">
        <ele>381.8</ele>
        <time>2024-08-05T09:30:18Z</time>
      </trkpt>
      <trkpt lat="47.12622" lon="5.88482">
        <ele>381.6</ele>
        <time>2024-08-05T09:30:19Z</time>
      </trkpt>
      <trkpt lat="47.12631" lon="5.88489">
        <ele>381.2</ele>
        <time>2024-08-05T09:30:20Z</time>
      </trkpt>
      <trkpt lat="47.1264" lon="5.88495">
        <ele>380.6</ele>
        <time>2024-08-05T09:30:21Z</time>
      </trkpt>
      <trkpt lat="47.12649" lon="5.885">
        <ele>380.2</ele>
        <time>2024-08-05T09:30:22Z</time>
      </trkpt>
      <trkpt lat="47.12659" lon="5.88505">
        <ele>379.8</ele>
        <time>2024-08-05T09:30:23Z</time>
      </trkpt>
      <trkpt lat="47.12669" lon="5.88508">
        <ele>379.2</ele>
        <time>2024-08-05T09:30:24Z</time>
      </trkpt>
      <trkpt lat="47.12678" lon="5.88509">
        <ele>378.6</ele>
        <time>2024-08-05T09:30:25Z</time>
      </trkpt>
      <trkpt lat="47.12689" lon="5.88505">
        <ele>378</ele>
        <time>2024-08-05T09:30:26Z</time>
      </trkpt>
      <trkpt lat="47.12689" lon="5.88505">
        <ele>377.4</ele>
        <time>2024-08-05T09:30:27Z</time>
      </trkpt>
      <trkpt lat="47.12702" lon="5.88498">
        <ele>376.8</ele>
        <time>2024-08-05T09:30:28Z</time>
      </trkpt>
      <trkpt lat="47.12714" lon="5.88493">
        <ele>376.2</ele>
        <time>2024-08-05T09:30:29Z</time>
      </trkpt>
      <trkpt lat="47.12725" lon="5.88489">
        <ele>375.4</ele>
        <time>2024-08-05T09:30:30Z</time>
      </trkpt>
      <trkpt lat="47.12736" lon="5.88488">
        <ele>375.2</ele>
        <time>2024-08-05T09:30:31Z</time>
      </trkpt>
      <trkpt lat="47.12747" lon="5.8849">
        <ele>374.8</ele>
        <time>2024-08-05T09:30:32Z</time>
      </trkpt>
      <trkpt lat="47.12757" lon="5.88494">
        <ele>374.8</ele>
        <time>2024-08-05T09:30:33Z</time>
      </trkpt>
      <trkpt lat="47.12767" lon="5.885">
        <ele>374.4</ele>
        <time>2024-08-05T09:30:34Z</time>
      </trkpt>
      <trkpt lat="47.12777" lon="5.88507">
        <ele>374</ele>
        <time>2024-08-05T09:30:35Z</time>
      </trkpt>
      <trkpt lat="47.12786" lon="5.88515">
        <ele>373.2</ele>
        <time>2024-08-05T09:30:36Z</time>
      </trkpt>
      <trkpt lat="47.12794" lon="5.88524">
        <ele>372.4</ele>
        <time>2024-08-05T09:30:37Z</time>
      </trkpt>
      <trkpt lat="47.12801" lon="5.88533">
        <ele>371.4</ele>
        <time>2024-08-05T09:30:38Z</time>
      </trkpt>
      <trkpt lat="47.12808" lon="5.88541">
        <ele>370.2</ele>
        <time>2024-08-05T09:30:39Z</time>
      </trkpt>
      <trkpt lat="47.12814" lon="5.88548">
        <ele>369.4</ele>
        <time>2024-08-05T09:30:40Z</time>
      </trkpt>
      <trkpt lat="47.1282" lon="5.88555">
        <ele>368.6</ele>
        <time>2024-08-05T09:30:41Z</time>
      </trkpt>
      <trkpt lat="47.12825" lon="5.8856">
        <ele>367.6</ele>
        <time>2024-08-05T09:30:42Z</time>
      </trkpt>
      <trkpt lat="47.12831" lon="5.88564">
        <ele>367</ele>
        <time>2024-08-05T09:30:43Z</time>
      </trkpt>
      <trkpt lat="47.12835" lon="5.88568">
        <ele>366</ele>
        <time>2024-08-05T09:30:44Z</time>
      </trkpt>
      <trkpt lat="47.1284" lon="5.88571">
        <ele>365.6</ele>
        <time>2024-08-05T09:30:45Z</time>
      </trkpt>
      <trkpt lat="47.12843" lon="5.88573">
        <ele>365.2</ele>
        <time>2024-08-05T09:30:46Z</time>
      </trkpt>
      <trkpt lat="47.12846" lon="5.88574">
        <ele>364.2</ele>
        <time>2024-08-05T09:30:47Z</time>
      </trkpt>
      <trkpt lat="47.12848" lon="5.88576">
        <ele>363.8</ele>
        <time>2024-08-05T09:30:48Z</time>
      </trkpt>
      <trkpt lat="47.1285" lon="5.88577">
        <ele>363.4</ele>
        <time>2024-08-05T09:30:49Z</time>
      </trkpt>
      <trkpt lat="47.12851" lon="5.88578">
        <ele>363.2</ele>
        <time>2024-08-05T09:30:50Z</time>
      </trkpt>
      <trkpt lat="47.12853" lon="5.88581">
        <ele>363.2</ele>
        <time>2024-08-05T09:30:51Z</time>
      </trkpt>
      <trkpt lat="47.12853" lon="5.88581">
        <ele>363</ele>
        <time>2024-08-05T09:30:52Z</time>
      </trkpt>
      <trkpt lat="47.12854" lon="5.88583">
        <ele>363</ele>
        <time>2024-08-05T09:30:53Z</time>
      </trkpt>
      <trkpt lat="47.12854" lon="5.88583">
        <ele>363</ele>
        <time>2024-08-05T09:30:54Z</time>
      </trkpt>
      <trkpt lat="47.12855" lon="5.88582">
        <ele>363</ele>
        <time>2024-08-05T09:30:55Z</time>
      </trkpt>
      <trkpt lat="47.12855" lon="5.88582">
        <ele>363</ele>
        <time>2024-08-05T09:30:56Z</time>
      </trkpt>
      <trkpt lat="47.12856" lon="5.88582">
        <ele>363</ele>
        <time>2024-08-05T09:30:57Z</time>
      </trkpt>
      <trkpt lat="47.12856" lon="5.88579">
        <ele>363</ele>
        <time>2024-08-05T09:30:58Z</time>
      </trkpt>
      <trkpt lat="47.12856" lon="5.88579">
        <ele>363</ele>
        <time>2024-08-05T09:30:59Z</time>
      </trkpt>
      <trkpt lat="47.12856" lon="5.88578">
        <ele>363</ele>
        <time>2024-08-05T09:31:00Z</time>
      </trkpt>
      <trkpt lat="47.12856" lon="5.88577">
        <ele>363</ele>
        <time>2024-08-05T09:31:01Z</time>
      </trkpt>
      <trkpt lat="47.12856" lon="5.88577">
        <ele>363.2</ele>
        <time>2024-08-05T09:31:02Z</time>
      </trkpt>
      <trkpt lat="47.12856" lon="5.88579">
        <ele>363.4</ele>
        <time>2024-08-05T09:31:03Z</time>
      </trkpt>
      <trkpt lat="47.12856" lon="5.88579">
        <ele>363.4</ele>
        <time>2024-08-05T09:31:04Z</time>
      </trkpt>
      <trkpt lat="47.12857" lon="5.88577">
        <ele>363.4</ele>
        <time>2024-08-05T09:31:05Z</time>
      </trkpt>
      <trkpt lat="47.12856" lon="5.88578">
        <ele>363.4</ele>
        <time>2024-08-05T09:31:06Z</time>
      </trkpt>
      <trkpt lat="47.12856" lon="5.88577">
        <ele>363.6</ele>
        <time>2024-08-05T09:31:07Z</time>
      </trkpt>
      <trkpt lat="47.12856" lon="5.88578">
        <ele>363.6</ele>
        <time>2024-08-05T09:31:08Z</time>
      </trkpt>
      <trkpt lat="47.12856" lon="5.88579">
        <ele>363.6</ele>
        <time>2024-08-05T09:31:09Z</time>
      </trkpt>
      <trkpt lat="47.12856" lon="5.8858">
        <ele>363.6</ele>
        <time>2024-08-05T09:31:10Z</time>
      </trkpt>
      <trkpt lat="47.12857" lon="5.88581">
        <ele>363.8</ele>
        <time>2024-08-05T09:31:11Z</time>
      </trkpt>
      <trkpt lat="47.12857" lon="5.88582">
        <ele>363.8</ele>
        <time>2024-08-05T09:31:12Z</time>
      </trkpt>
      <trkpt lat="47.12857" lon="5.88582">
        <ele>364</ele>
        <time>2024-08-05T09:31:13Z</time>
      </trkpt>
      <trkpt lat="47.12857" lon="5.88583">
        <ele>364.2</ele>
        <time>2024-08-05T09:31:14Z</time>
      </trkpt>
      <trkpt lat="47.12857" lon="5.88583">
        <ele>364.2</ele>
        <time>2024-08-05T09:31:15Z</time>
      </trkpt>
      <trkpt lat="47.12857" lon="5.88582">
        <ele>364.4</ele>
        <time>2024-08-05T09:31:16Z</time>
      </trkpt>
      <trkpt lat="47.12858" lon="5.88582">
        <ele>364.4</ele>
        <time>2024-08-05T09:31:17Z</time>
      </trkpt>
      <trkpt lat="47.12859" lon="5.88583">
        <ele>364.4</ele>
        <time>2024-08-05T09:31:18Z</time>
      </trkpt>
      <trkpt lat="47.1286" lon="5.88584">
        <ele>364.6</ele>
        <time>2024-08-05T09:31:19Z</time>
      </trkpt>
      <trkpt lat="47.12862" lon="5.88585">
        <ele>364.6</ele>
        <time>2024-08-05T09:31:20Z</time>
      </trkpt>
      <trkpt lat="47.12863" lon="5.88587">
        <ele>364.8</ele>
        <time>2024-08-05T09:31:21Z</time>
      </trkpt>
      <trkpt lat="47.12863" lon="5.8859">
        <ele>364.6</ele>
        <time>2024-08-05T09:31:22Z</time>
      </trkpt>
      <trkpt lat="47.12864" lon="5.88592">
        <ele>365</ele>
        <time>2024-08-05T09:31:23Z</time>
      </trkpt>
      <trkpt lat="47.12864" lon="5.88594">
        <ele>365</ele>
        <time>2024-08-05T09:31:24Z</time>
      </trkpt>
      <trkpt lat="47.12864" lon="5.88598">
        <ele>365</ele>
        <time>2024-08-05T09:31:25Z</time>
      </trkpt>
      <trkpt lat="47.12864" lon="5.88598">
        <ele>365</ele>
        <time>2024-08-05T09:31:26Z</time>
      </trkpt>
      <trkpt lat="47.12864" lon="5.88603">
        <ele>365.2</ele>
        <time>2024-08-05T09:31:27Z</time>
      </trkpt>
      <trkpt lat="47.12865" lon="5.88605">
        <ele>365.4</ele>
        <time>2024-08-05T09:31:28Z</time>
      </trkpt>
      <trkpt lat="47.12866" lon="5.88612">
        <ele>365.2</ele>
        <time>2024-08-05T09:31:29Z</time>
      </trkpt>
      <trkpt lat="47.12866" lon="5.88612">
        <ele>365.4</ele>
        <time>2024-08-05T09:31:30Z</time>
      </trkpt>
      <trkpt lat="47.12868" lon="5.88617">
        <ele>365.4</ele>
        <time>2024-08-05T09:31:31Z</time>
      </trkpt>
      <trkpt lat="47.12868" lon="5.88617">
        <ele>365.4</ele>
        <time>2024-08-05T09:31:32Z</time>
      </trkpt>
      <trkpt lat="47.12873" lon="5.88624">
        <ele>365.4</ele>
        <time>2024-08-05T09:31:33Z</time>
      </trkpt>
      <trkpt lat="47.12873" lon="5.88624">
        <ele>365.4</ele>
        <time>2024-08-05T09:31:34Z</time>
      </trkpt>
      <trkpt lat="47.12878" lon="5.88631">
        <ele>365.4</ele>
        <time>2024-08-05T09:31:35Z</time>
      </trkpt>
      <trkpt lat="47.12878" lon="5.88631">
        <ele>365.4</ele>
        <time>2024-08-05T09:31:36Z</time>
      </trkpt>
      <trkpt lat="47.12885" lon="5.88639">
        <ele>365.4</ele>
        <time>2024-08-05T09:31:37Z</time>
      </trkpt>
      <trkpt lat="47.12888" lon="5.88642">
        <ele>365.2</ele>
        <time>2024-08-05T09:31:38Z</time>
      </trkpt>
      <trkpt lat="47.1289" lon="5.88645">
        <ele>365.2</ele>
        <time>2024-08-05T09:31:39Z</time>
      </trkpt>
      <trkpt lat="47.12893" lon="5.88647">
        <ele>365.2</ele>
        <time>2024-08-05T09:31:40Z</time>
      </trkpt>
      <trkpt lat="47.12893" lon="5.88647">
        <ele>365</ele>
        <time>2024-08-05T09:31:41Z</time>
      </trkpt>
      <trkpt lat="47.12895" lon="5.88648">
        <ele>364.8</ele>
        <time>2024-08-05T09:31:42Z</time>
      </trkpt>
      <trkpt lat="47.12898" lon="5.8865">
        <ele>364.4</ele>
        <time>2024-08-05T09:31:43Z</time>
      </trkpt>
      <trkpt lat="47.12901" lon="5.88652">
        <ele>364.4</ele>
        <time>2024-08-05T09:31:44Z</time>
      </trkpt>
      <trkpt lat="47.12904" lon="5.88653">
        <ele>364</ele>
        <time>2024-08-05T09:31:45Z</time>
      </trkpt>
      <trkpt lat="47.12907" lon="5.88656">
        <ele>363.4</ele>
        <time>2024-08-05T09:31:46Z</time>
      </trkpt>
      <trkpt lat="47.12911" lon="5.88658">
        <ele>363.2</ele>
        <time>2024-08-05T09:31:47Z</time>
      </trkpt>
      <trkpt lat="47.12914" lon="5.8866">
        <ele>362.6</ele>
        <time>2024-08-05T09:31:48Z</time>
      </trkpt>
      <trkpt lat="47.12918" lon="5.88662">
        <ele>361.8</ele>
        <time>2024-08-05T09:31:49Z</time>
      </trkpt>
      <trkpt lat="47.12922" lon="5.88665">
        <ele>361.4</ele>
        <time>2024-08-05T09:31:50Z</time>
      </trkpt>
      <trkpt lat="47.12926" lon="5.88667">
        <ele>361</ele>
        <time>2024-08-05T09:31:51Z</time>
      </trkpt>
      <trkpt lat="47.1293" lon="5.8867">
        <ele>360.6</ele>
        <time>2024-08-05T09:31:52Z</time>
      </trkpt>
      <trkpt lat="47.12935" lon="5.88672">
        <ele>360.2</ele>
        <time>2024-08-05T09:31:53Z</time>
      </trkpt>
      <trkpt lat="47.12943" lon="5.8868">
        <ele>360.2</ele>
        <time>2024-08-05T09:31:54Z</time>
      </trkpt>
      <trkpt lat="47.12943" lon="5.8868">
        <ele>359.8</ele>
        <time>2024-08-05T09:31:55Z</time>
      </trkpt>
      <trkpt lat="47.12948" lon="5.88685">
        <ele>359.4</ele>
        <time>2024-08-05T09:31:56Z</time>
      </trkpt>
      <trkpt lat="47.12953" lon="5.88688">
        <ele>359.2</ele>
        <time>2024-08-05T09:31:57Z</time>
      </trkpt>
      <trkpt lat="47.12958" lon="5.88691">
        <ele>359</ele>
        <time>2024-08-05T09:31:58Z</time>
      </trkpt>
      <trkpt lat="47.1297" lon="5.88697">
        <ele>358.8</ele>
        <time>2024-08-05T09:31:59Z</time>
      </trkpt>
      <trkpt lat="47.12976" lon="5.887">
        <ele>358.4</ele>
        <time>2024-08-05T09:32:00Z</time>
      </trkpt>
      <trkpt lat="47.12983" lon="5.88702">
        <ele>358</ele>
        <time>2024-08-05T09:32:01Z</time>
      </trkpt>
      <trkpt lat="47.12989" lon="5.88705">
        <ele>358</ele>
        <time>2024-08-05T09:32:02Z</time>
      </trkpt>
      <trkpt lat="47.12996" lon="5.88707">
        <ele>357.6</ele>
        <time>2024-08-05T09:32:03Z</time>
      </trkpt>
      <trkpt lat="47.13001" lon="5.8871">
        <ele>357.2</ele>
        <time>2024-08-05T09:32:04Z</time>
      </trkpt>
      <trkpt lat="47.13007" lon="5.88713">
        <ele>357</ele>
        <time>2024-08-05T09:32:05Z</time>
      </trkpt>
      <trkpt lat="47.13011" lon="5.88716">
        <ele>356.8</ele>
        <time>2024-08-05T09:32:06Z</time>
      </trkpt>
      <trkpt lat="47.13016" lon="5.88718">
        <ele>356.4</ele>
        <time>2024-08-05T09:32:07Z</time>
      </trkpt>
      <trkpt lat="47.13019" lon="5.8872">
        <ele>356</ele>
        <time>2024-08-05T09:32:08Z</time>
      </trkpt>
      <trkpt lat="47.13022" lon="5.88721">
        <ele>355.8</ele>
        <time>2024-08-05T09:32:09Z</time>
      </trkpt>
      <trkpt lat="47.13024" lon="5.88722">
        <ele>355.8</ele>
        <time>2024-08-05T09:32:10Z</time>
      </trkpt>
      <trkpt lat="47.13026" lon="5.88724">
        <ele>355.2</ele>
        <time>2024-08-05T09:32:11Z</time>
      </trkpt>
      <trkpt lat="47.13029" lon="5.88725">
        <ele>354.8</ele>
        <time>2024-08-05T09:32:12Z</time>
      </trkpt>
      <trkpt lat="47.13032" lon="5.88727">
        <ele>354.6</ele>
        <time>2024-08-05T09:32:13Z</time>
      </trkpt>
      <trkpt lat="47.13035" lon="5.88729">
        <ele>354.2</ele>
        <time>2024-08-05T09:32:14Z</time>
      </trkpt>
      <trkpt lat="47.13039" lon="5.88732">
        <ele>353.6</ele>
        <time>2024-08-05T09:32:15Z</time>
      </trkpt>
      <trkpt lat="47.13039" lon="5.88732">
        <ele>353.2</ele>
        <time>2024-08-05T09:32:16Z</time>
      </trkpt>
      <trkpt lat="47.13047" lon="5.88738">
        <ele>353</ele>
        <time>2024-08-05T09:32:17Z</time>
      </trkpt>
      <trkpt lat="47.13051" lon="5.88742">
        <ele>352.6</ele>
        <time>2024-08-05T09:32:18Z</time>
      </trkpt>
      <trkpt lat="47.13055" lon="5.88745">
        <ele>352.4</ele>
        <time>2024-08-05T09:32:19Z</time>
      </trkpt>
      <trkpt lat="47.13059" lon="5.88747">
        <ele>352.2</ele>
        <time>2024-08-05T09:32:20Z</time>
      </trkpt>
      <trkpt lat="47.13062" lon="5.88749">
        <ele>352</ele>
        <time>2024-08-05T09:32:21Z</time>
      </trkpt>
      <trkpt lat="47.13065" lon="5.88751">
        <ele>351.4</ele>
        <time>2024-08-05T09:32:22Z</time>
      </trkpt>
      <trkpt lat="47.13068" lon="5.88755">
        <ele>351</ele>
        <time>2024-08-05T09:32:23Z</time>
      </trkpt>
      <trkpt lat="47.13071" lon="5.8876">
        <ele>351</ele>
        <time>2024-08-05T09:32:24Z</time>
      </trkpt>
      <trkpt lat="47.13075" lon="5.88765">
        <ele>350.4</ele>
        <time>2024-08-05T09:32:25Z</time>
      </trkpt>
      <trkpt lat="47.13079" lon="5.88771">
        <ele>349.6</ele>
        <time>2024-08-05T09:32:26Z</time>
      </trkpt>
      <trkpt lat="47.13083" lon="5.88776">
        <ele>349</ele>
        <time>2024-08-05T09:32:27Z</time>
      </trkpt>
      <trkpt lat="47.13086" lon="5.88782">
        <ele>348.6</ele>
        <time>2024-08-05T09:32:28Z</time>
      </trkpt>
      <trkpt lat="47.13086" lon="5.88782">
        <ele>348.2</ele>
        <time>2024-08-05T09:32:29Z</time>
      </trkpt>
      <trkpt lat="47.1309" lon="5.88791">
        <ele>347.2</ele>
        <time>2024-08-05T09:32:30Z</time>
      </trkpt>
      <trkpt lat="47.1309" lon="5.88791">
        <ele>346.8</ele>
        <time>2024-08-05T09:32:31Z</time>
      </trkpt>
      <trkpt lat="47.13094" lon="5.88797">
        <ele>346.6</ele>
        <time>2024-08-05T09:32:32Z</time>
      </trkpt>
      <trkpt lat="47.13094" lon="5.88797">
        <ele>346.2</ele>
        <time>2024-08-05T09:32:33Z</time>
      </trkpt>
      <trkpt lat="47.13096" lon="5.888">
        <ele>345.8</ele>
        <time>2024-08-05T09:32:34Z</time>
      </trkpt>
      <trkpt lat="47.131" lon="5.88807">
        <ele>344.8</ele>
        <time>2024-08-05T09:32:35Z</time>
      </trkpt>
      <trkpt lat="47.131" lon="5.88807">
        <ele>344.6</ele>
        <time>2024-08-05T09:32:36Z</time>
      </trkpt>
      <trkpt lat="47.13102" lon="5.88811">
        <ele>344.4</ele>
        <time>2024-08-05T09:32:37Z</time>
      </trkpt>
      <trkpt lat="47.13105" lon="5.88816">
        <ele>344.2</ele>
        <time>2024-08-05T09:32:38Z</time>
      </trkpt>
      <trkpt lat="47.13108" lon="5.8882">
        <ele>344</ele>
        <time>2024-08-05T09:32:39Z</time>
      </trkpt>
      <trkpt lat="47.13113" lon="5.88827">
        <ele>344.2</ele>
        <time>2024-08-05T09:32:40Z</time>
      </trkpt>
      <trkpt lat="47.13113" lon="5.88827">
        <ele>344</ele>
        <time>2024-08-05T09:32:41Z</time>
      </trkpt>
      <trkpt lat="47.13116" lon="5.8883">
        <ele>344</ele>
        <time>2024-08-05T09:32:42Z</time>
      </trkpt>
      <trkpt lat="47.13118" lon="5.88832">
        <ele>344</ele>
        <time>2024-08-05T09:32:43Z</time>
      </trkpt>
      <trkpt lat="47.13121" lon="5.88836">
        <ele>344</ele>
        <time>2024-08-05T09:32:44Z</time>
      </trkpt>
      <trkpt lat="47.13126" lon="5.8884">
        <ele>344.2</ele>
        <time>2024-08-05T09:32:45Z</time>
      </trkpt>
      <trkpt lat="47.13126" lon="5.8884">
        <ele>344.2</ele>
        <time>2024-08-05T09:32:46Z</time>
      </trkpt>
      <trkpt lat="47.1313" lon="5.88843">
        <ele>344.2</ele>
        <time>2024-08-05T09:32:47Z</time>
      </trkpt>
      <trkpt lat="47.1313" lon="5.88843">
        <ele>344</ele>
        <time>2024-08-05T09:32:48Z</time>
      </trkpt>
      <trkpt lat="47.13132" lon="5.88843">
        <ele>344</ele>
        <time>2024-08-05T09:32:49Z</time>
      </trkpt>
      <trkpt lat="47.13134" lon="5.88845">
        <ele>344.2</ele>
        <time>2024-08-05T09:32:50Z</time>
      </trkpt>
      <trkpt lat="47.13137" lon="5.88848">
        <ele>344.4</ele>
        <time>2024-08-05T09:32:51Z</time>
      </trkpt>
      <trkpt lat="47.13139" lon="5.88848">
        <ele>344.6</ele>
        <time>2024-08-05T09:32:52Z</time>
      </trkpt>
      <trkpt lat="47.13141" lon="5.88849">
        <ele>344.8</ele>
        <time>2024-08-05T09:32:53Z</time>
      </trkpt>
      <trkpt lat="47.13143" lon="5.88851">
        <ele>345</ele>
        <time>2024-08-05T09:32:54Z</time>
      </trkpt>
      <trkpt lat="47.13147" lon="5.88854">
        <ele>345</ele>
        <time>2024-08-05T09:32:55Z</time>
      </trkpt>
      <trkpt lat="47.13149" lon="5.88856">
        <ele>345.2</ele>
        <time>2024-08-05T09:32:56Z</time>
      </trkpt>
      <trkpt lat="47.13151" lon="5.88858">
        <ele>345.6</ele>
        <time>2024-08-05T09:32:57Z</time>
      </trkpt>
      <trkpt lat="47.13154" lon="5.8886">
        <ele>345.6</ele>
        <time>2024-08-05T09:32:58Z</time>
      </trkpt>
      <trkpt lat="47.13156" lon="5.88861">
        <ele>345.8</ele>
        <time>2024-08-05T09:32:59Z</time>
      </trkpt>
      <trkpt lat="47.13159" lon="5.88863">
        <ele>346</ele>
        <time>2024-08-05T09:33:00Z</time>
      </trkpt>
      <trkpt lat="47.13163" lon="5.88864">
        <ele>346</ele>
        <time>2024-08-05T09:33:01Z</time>
      </trkpt>
      <trkpt lat="47.13167" lon="5.88867">
        <ele>346</ele>
        <time>2024-08-05T09:33:02Z</time>
      </trkpt>
      <trkpt lat="47.1317" lon="5.8887">
        <ele>346</ele>
        <time>2024-08-05T09:33:03Z</time>
      </trkpt>
      <trkpt lat="47.13174" lon="5.88872">
        <ele>346</ele>
        <time>2024-08-05T09:33:04Z</time>
      </trkpt>
      <trkpt lat="47.13177" lon="5.88875">
        <ele>346</ele>
        <time>2024-08-05T09:33:05Z</time>
      </trkpt>
      <trkpt lat="47.13177" lon="5.88875">
        <ele>346.2</ele>
        <time>2024-08-05T09:33:06Z</time>
      </trkpt>
      <trkpt lat="47.13181" lon="5.88878">
        <ele>346</ele>
        <time>2024-08-05T09:33:07Z</time>
      </trkpt>
      <trkpt lat="47.13187" lon="5.88884">
        <ele>346</ele>
        <time>2024-08-05T09:33:08Z</time>
      </trkpt>
      <trkpt lat="47.13187" lon="5.88884">
        <ele>346</ele>
        <time>2024-08-05T09:33:09Z</time>
      </trkpt>
      <trkpt lat="47.13193" lon="5.88889">
        <ele>345.8</ele>
        <time>2024-08-05T09:33:10Z</time>
      </trkpt>
      <trkpt lat="47.13195" lon="5.88892">
        <ele>345.6</ele>
        <time>2024-08-05T09:33:11Z</time>
      </trkpt>
      <trkpt lat="47.13198" lon="5.88894">
        <ele>345.4</ele>
        <time>2024-08-05T09:33:12Z</time>
      </trkpt>
      <trkpt lat="47.132" lon="5.88896">
        <ele>345</ele>
        <time>2024-08-05T09:33:13Z</time>
      </trkpt>
      <trkpt lat="47.132" lon="5.88896">
        <ele>344.4</ele>
        <time>2024-08-05T09:33:14Z</time>
      </trkpt>
      <trkpt lat="47.13202" lon="5.88897">
        <ele>344.2</ele>
        <time>2024-08-05T09:33:15Z</time>
      </trkpt>
      <trkpt lat="47.13204" lon="5.88901">
        <ele>343.6</ele>
        <time>2024-08-05T09:33:16Z</time>
      </trkpt>
      <trkpt lat="47.13206" lon="5.88903">
        <ele>342.8</ele>
        <time>2024-08-05T09:33:17Z</time>
      </trkpt>
      <trkpt lat="47.13208" lon="5.88906">
        <ele>342</ele>
        <time>2024-08-05T09:33:18Z</time>
      </trkpt>
      <trkpt lat="47.1321" lon="5.88914">
        <ele>341.4</ele>
        <time>2024-08-05T09:33:19Z</time>
      </trkpt>
      <trkpt lat="47.13211" lon="5.8892">
        <ele>341</ele>
        <time>2024-08-05T09:33:20Z</time>
      </trkpt>
      <trkpt lat="47.13213" lon="5.88925">
        <ele>340.4</ele>
        <time>2024-08-05T09:33:21Z</time>
      </trkpt>
      <trkpt lat="47.13215" lon="5.88931">
        <ele>340</ele>
        <time>2024-08-05T09:33:22Z</time>
      </trkpt>
      <trkpt lat="47.13217" lon="5.88937">
        <ele>339.6</ele>
        <time>2024-08-05T09:33:23Z</time>
      </trkpt>
      <trkpt lat="47.13219" lon="5.88945">
        <ele>339.4</ele>
        <time>2024-08-05T09:33:24Z</time>
      </trkpt>
      <trkpt lat="47.1322" lon="5.8895">
        <ele>338.8</ele>
        <time>2024-08-05T09:33:25Z</time>
      </trkpt>
      <trkpt lat="47.13223" lon="5.88961">
        <ele>338.4</ele>
        <time>2024-08-05T09:33:26Z</time>
      </trkpt>
      <trkpt lat="47.13225" lon="5.88966">
        <ele>338.2</ele>
        <time>2024-08-05T09:33:27Z</time>
      </trkpt>
      <trkpt lat="47.13227" lon="5.88971">
        <ele>337.8</ele>
        <time>2024-08-05T09:33:28Z</time>
      </trkpt>
      <trkpt lat="47.13229" lon="5.88976">
        <ele>337.8</ele>
        <time>2024-08-05T09:33:29Z</time>
      </trkpt>
      <trkpt lat="47.13231" lon="5.8898">
        <ele>337.6</ele>
        <time>2024-08-05T09:33:30Z</time>
      </trkpt>
      <trkpt lat="47.13233" lon="5.88984">
        <ele>337</ele>
        <time>2024-08-05T09:33:31Z</time>
      </trkpt>
      <trkpt lat="47.13235" lon="5.88989">
        <ele>336.6</ele>
        <time>2024-08-05T09:33:32Z</time>
      </trkpt>
      <trkpt lat="47.13238" lon="5.88993">
        <ele>336.2</ele>
        <time>2024-08-05T09:33:33Z</time>
      </trkpt>
      <trkpt lat="47.13238" lon="5.88993">
        <ele>336</ele>
        <time>2024-08-05T09:33:34Z</time>
      </trkpt>
      <trkpt lat="47.1324" lon="5.88999">
        <ele>335.8</ele>
        <time>2024-08-05T09:33:35Z</time>
      </trkpt>
      <trkpt lat="47.13242" lon="5.89006">
        <ele>335.2</ele>
        <time>2024-08-05T09:33:36Z</time>
      </trkpt>
      <trkpt lat="47.13243" lon="5.89011">
        <ele>335</ele>
        <time>2024-08-05T09:33:37Z</time>
      </trkpt>
      <trkpt lat="47.13245" lon="5.89016">
        <ele>335</ele>
        <time>2024-08-05T09:33:38Z</time>
      </trkpt>
      <trkpt lat="47.13246" lon="5.89019">
        <ele>334.8</ele>
        <time>2024-08-05T09:33:39Z</time>
      </trkpt>
      <trkpt lat="47.13247" lon="5.89023">
        <ele>334.4</ele>
        <time>2024-08-05T09:33:40Z</time>
      </trkpt>
      <trkpt lat="47.13248" lon="5.89028">
        <ele>334.2</ele>
        <time>2024-08-05T09:33:41Z</time>
      </trkpt>
      <trkpt lat="47.13251" lon="5.89037">
        <ele>334.2</ele>
        <time>2024-08-05T09:33:42Z</time>
      </trkpt>
      <trkpt lat="47.13251" lon="5.89037">
        <ele>334</ele>
        <time>2024-08-05T09:33:43Z</time>
      </trkpt>
      <trkpt lat="47.13253" lon="5.89039">
        <ele>334</ele>
        <time>2024-08-05T09:33:44Z</time>
      </trkpt>
      <trkpt lat="47.13257" lon="5.89042">
        <ele>334</ele>
        <time>2024-08-05T09:33:45Z</time>
      </trkpt>
      <trkpt lat="47.13257" lon="5.89042">
        <ele>333.8</ele>
        <time>2024-08-05T09:33:46Z</time>
      </trkpt>
      <trkpt lat="47.1326" lon="5.89046">
        <ele>334</ele>
        <time>2024-08-05T09:33:47Z</time>
      </trkpt>
      <trkpt lat="47.1326" lon="5.89046">
        <ele>334</ele>
        <time>2024-08-05T09:33:48Z</time>
      </trkpt>
      <trkpt lat="47.13261" lon="5.89048">
        <ele>334</ele>
        <time>2024-08-05T09:33:49Z</time>
      </trkpt>
      <trkpt lat="47.13265" lon="5.8905">
        <ele>334</ele>
        <time>2024-08-05T09:33:50Z</time>
      </trkpt>
      <trkpt lat="47.13265" lon="5.8905">
        <ele>334</ele>
        <time>2024-08-05T09:33:51Z</time>
      </trkpt>
      <trkpt lat="47.1327" lon="5.89054">
        <ele>334</ele>
        <time>2024-08-05T09:33:52Z</time>
      </trkpt>
      <trkpt lat="47.1327" lon="5.89054">
        <ele>334</ele>
        <time>2024-08-05T09:33:53Z</time>
      </trkpt>
      <trkpt lat="47.13273" lon="5.89055">
        <ele>334.2</ele>
        <time>2024-08-05T09:33:54Z</time>
      </trkpt>
      <trkpt lat="47.13274" lon="5.89058">
        <ele>334.4</ele>
        <time>2024-08-05T09:33:55Z</time>
      </trkpt>
      <trkpt lat="47.13276" lon="5.8906">
        <ele>334.4</ele>
        <time>2024-08-05T09:33:56Z</time>
      </trkpt>
      <trkpt lat="47.13277" lon="5.89063">
        <ele>334.8</ele>
        <time>2024-08-05T09:33:57Z</time>
      </trkpt>
      <trkpt lat="47.13279" lon="5.89065">
        <ele>334.8</ele>
        <time>2024-08-05T09:33:58Z</time>
      </trkpt>
      <trkpt lat="47.13283" lon="5.8907">
        <ele>335</ele>
        <time>2024-08-05T09:33:59Z</time>
      </trkpt>
      <trkpt lat="47.13283" lon="5.8907">
        <ele>335.2</ele>
        <time>2024-08-05T09:34:00Z</time>
      </trkpt>
      <trkpt lat="47.13285" lon="5.89072">
        <ele>335.4</ele>
        <time>2024-08-05T09:34:01Z</time>
      </trkpt>
      <trkpt lat="47.13288" lon="5.89074">
        <ele>335.6</ele>
        <time>2024-08-05T09:34:02Z</time>
      </trkpt>
      <trkpt lat="47.13289" lon="5.89076">
        <ele>335.8</ele>
        <time>2024-08-05T09:34:03Z</time>
      </trkpt>
      <trkpt lat="47.13291" lon="5.89079">
        <ele>335.8</ele>
        <time>2024-08-05T09:34:04Z</time>
      </trkpt>
      <trkpt lat="47.13295" lon="5.89084">
        <ele>336.2</ele>
        <time>2024-08-05T09:34:05Z</time>
      </trkpt>
      <trkpt lat="47.13295" lon="5.89084">
        <ele>336.2</ele>
        <time>2024-08-05T09:34:06Z</time>
      </trkpt>
      <trkpt lat="47.13298" lon="5.89085">
        <ele>336.4</ele>
        <time>2024-08-05T09:34:07Z</time>
      </trkpt>
      <trkpt lat="47.13299" lon="5.89087">
        <ele>336.4</ele>
        <time>2024-08-05T09:34:08Z</time>
      </trkpt>
      <trkpt lat="47.13301" lon="5.89089">
        <ele>336.4</ele>
        <time>2024-08-05T09:34:09Z</time>
      </trkpt>
      <trkpt lat="47.13302" lon="5.89091">
        <ele>336.4</ele>
        <time>2024-08-05T09:34:10Z</time>
      </trkpt>
      <trkpt lat="47.13305" lon="5.89096">
        <ele>336.6</ele>
        <time>2024-08-05T09:34:11Z</time>
      </trkpt>
      <trkpt lat="47.13305" lon="5.89096">
        <ele>336.6</ele>
        <time>2024-08-05T09:34:12Z</time>
      </trkpt>
      <trkpt lat="47.13307" lon="5.89099">
        <ele>336.6</ele>
        <time>2024-08-05T09:34:13Z</time>
      </trkpt>
      <trkpt lat="47.13309" lon="5.89103">
        <ele>336.8</ele>
        <time>2024-08-05T09:34:14Z</time>
      </trkpt>
      <trkpt lat="47.13311" lon="5.89106">
        <ele>336.8</ele>
        <time>2024-08-05T09:34:15Z</time>
      </trkpt>
      <trkpt lat="47.13316" lon="5.89111">
        <ele>337</ele>
        <time>2024-08-05T09:34:16Z</time>
      </trkpt>
      <trkpt lat="47.13316" lon="5.89111">
        <ele>337</ele>
        <time>2024-08-05T09:34:17Z</time>
      </trkpt>
      <trkpt lat="47.13319" lon="5.89114">
        <ele>337</ele>
        <time>2024-08-05T09:34:18Z</time>
      </trkpt>
      <trkpt lat="47.13321" lon="5.89117">
        <ele>337.2</ele>
        <time>2024-08-05T09:34:19Z</time>
      </trkpt>
      <trkpt lat="47.13324" lon="5.89119">
        <ele>337.2</ele>
        <time>2024-08-05T09:34:20Z</time>
      </trkpt>
      <trkpt lat="47.13326" lon="5.89121">
        <ele>337.2</ele>
        <time>2024-08-05T09:34:21Z</time>
      </trkpt>
      <trkpt lat="47.13331" lon="5.89125">
        <ele>337.4</ele>
        <time>2024-08-05T09:34:22Z</time>
      </trkpt>
      <trkpt lat="47.13331" lon="5.89125">
        <ele>337.4</ele>
        <time>2024-08-05T09:34:23Z</time>
      </trkpt>
      <trkpt lat="47.13333" lon="5.89127">
        <ele>337.4</ele>
        <time>2024-08-05T09:34:24Z</time>
      </trkpt>
      <trkpt lat="47.13335" lon="5.89128">
        <ele>337.4</ele>
        <time>2024-08-05T09:34:25Z</time>
      </trkpt>
      <trkpt lat="47.13337" lon="5.8913">
        <ele>337.6</ele>
        <time>2024-08-05T09:34:26Z</time>
      </trkpt>
      <trkpt lat="47.1334" lon="5.89132">
        <ele>337.6</ele>
        <time>2024-08-05T09:34:27Z</time>
      </trkpt>
      <trkpt lat="47.13342" lon="5.89134">
        <ele>337.6</ele>
        <time>2024-08-05T09:34:28Z</time>
      </trkpt>
      <trkpt lat="47.13345" lon="5.89136">
        <ele>337.6</ele>
        <time>2024-08-05T09:34:29Z</time>
      </trkpt>
      <trkpt lat="47.1335" lon="5.89139">
        <ele>337.8</ele>
        <time>2024-08-05T09:34:30Z</time>
      </trkpt>
      <trkpt lat="47.1335" lon="5.89139">
        <ele>337.6</ele>
        <time>2024-08-05T09:34:31Z</time>
      </trkpt>
      <trkpt lat="47.13353" lon="5.89141">
        <ele>337.8</ele>
        <time>2024-08-05T09:34:32Z</time>
      </trkpt>
      <trkpt lat="47.13356" lon="5.89143">
        <ele>337.6</ele>
        <time>2024-08-05T09:34:33Z</time>
      </trkpt>
      <trkpt lat="47.13359" lon="5.89144">
        <ele>337.6</ele>
        <time>2024-08-05T09:34:34Z</time>
      </trkpt>
      <trkpt lat="47.13362" lon="5.89145">
        <ele>337.6</ele>
        <time>2024-08-05T09:34:35Z</time>
      </trkpt>
      <trkpt lat="47.13367" lon="5.89148">
        <ele>337.6</ele>
        <time>2024-08-05T09:34:36Z</time>
      </trkpt>
      <trkpt lat="47.13369" lon="5.89151">
        <ele>337.8</ele>
        <time>2024-08-05T09:34:37Z</time>
      </trkpt>
      <trkpt lat="47.13369" lon="5.89151">
        <ele>337.8</ele>
        <time>2024-08-05T09:34:38Z</time>
      </trkpt>
      <trkpt lat="47.13372" lon="5.89154">
        <ele>337.8</ele>
        <time>2024-08-05T09:34:39Z</time>
      </trkpt>
      <trkpt lat="47.13378" lon="5.89157">
        <ele>337.8</ele>
        <time>2024-08-05T09:34:40Z</time>
      </trkpt>
      <trkpt lat="47.13378" lon="5.89157">
        <ele>337.6</ele>
        <time>2024-08-05T09:34:41Z</time>
      </trkpt>
      <trkpt lat="47.13381" lon="5.89159">
        <ele>337.6</ele>
        <time>2024-08-05T09:34:42Z</time>
      </trkpt>
      <trkpt lat="47.13384" lon="5.8916">
        <ele>337.6</ele>
        <time>2024-08-05T09:34:43Z</time>
      </trkpt>
      <trkpt lat="47.13388" lon="5.89162">
        <ele>337.6</ele>
        <time>2024-08-05T09:34:44Z</time>
      </trkpt>
      <trkpt lat="47.1339" lon="5.89164">
        <ele>337.6</ele>
        <time>2024-08-05T09:34:45Z</time>
      </trkpt>
      <trkpt lat="47.13392" lon="5.89167">
        <ele>337.6</ele>
        <time>2024-08-05T09:34:46Z</time>
      </trkpt>
      <trkpt lat="47.13395" lon="5.89168">
        <ele>337.6</ele>
        <time>2024-08-05T09:34:47Z</time>
      </trkpt>
      <trkpt lat="47.13397" lon="5.8917">
        <ele>337.4</ele>
        <time>2024-08-05T09:34:48Z</time>
      </trkpt>
      <trkpt lat="47.134" lon="5.89172">
        <ele>337.4</ele>
        <time>2024-08-05T09:34:49Z</time>
      </trkpt>
      <trkpt lat="47.13402" lon="5.89174">
        <ele>337.4</ele>
        <time>2024-08-05T09:34:50Z</time>
      </trkpt>
      <trkpt lat="47.13405" lon="5.89176">
        <ele>337.4</ele>
        <time>2024-08-05T09:34:51Z</time>
      </trkpt>
      <trkpt lat="47.13408" lon="5.89177">
        <ele>337.2</ele>
        <time>2024-08-05T09:34:52Z</time>
      </trkpt>
      <trkpt lat="47.13412" lon="5.8918">
        <ele>337</ele>
        <time>2024-08-05T09:34:53Z</time>
      </trkpt>
      <trkpt lat="47.13412" lon="5.8918">
        <ele>336.8</ele>
        <time>2024-08-05T09:34:54Z</time>
      </trkpt>
      <trkpt lat="47.13414" lon="5.89182">
        <ele>336.8</ele>
        <time>2024-08-05T09:34:55Z</time>
      </trkpt>
      <trkpt lat="47.13418" lon="5.89185">
        <ele>336.4</ele>
        <time>2024-08-05T09:34:56Z</time>
      </trkpt>
      <trkpt lat="47.1342" lon="5.89186">
        <ele>336.4</ele>
        <time>2024-08-05T09:34:57Z</time>
      </trkpt>
      <trkpt lat="47.13422" lon="5.89188">
        <ele>336.4</ele>
        <time>2024-08-05T09:34:58Z</time>
      </trkpt>
      <trkpt lat="47.13422" lon="5.89188">
        <ele>336.4</ele>
        <time>2024-08-05T09:34:59Z</time>
      </trkpt>
      <trkpt lat="47.13424" lon="5.8919">
        <ele>336.2</ele>
        <time>2024-08-05T09:35:00Z</time>
      </trkpt>
      <trkpt lat="47.13426" lon="5.89191">
        <ele>336.2</ele>
        <time>2024-08-05T09:35:01Z</time>
      </trkpt>
      <trkpt lat="47.13428" lon="5.89192">
        <ele>336</ele>
        <time>2024-08-05T09:35:02Z</time>
      </trkpt>
      <trkpt lat="47.13431" lon="5.89192">
        <ele>336.2</ele>
        <time>2024-08-05T09:35:03Z</time>
      </trkpt>
      <trkpt lat="47.13433" lon="5.89192">
        <ele>336.2</ele>
        <time>2024-08-05T09:35:04Z</time>
      </trkpt>
      <trkpt lat="47.13434" lon="5.89193">
        <ele>336</ele>
        <time>2024-08-05T09:35:05Z</time>
      </trkpt>
      <trkpt lat="47.13436" lon="5.89194">
        <ele>336</ele>
        <time>2024-08-05T09:35:06Z</time>
      </trkpt>
      <trkpt lat="47.13438" lon="5.89194">
        <ele>336</ele>
        <time>2024-08-05T09:35:07Z</time>
      </trkpt>
      <trkpt lat="47.13439" lon="5.89193">
        <ele>336.2</ele>
        <time>2024-08-05T09:35:08Z</time>
      </trkpt>
      <trkpt lat="47.13441" lon="5.89194">
        <ele>336.2</ele>
        <time>2024-08-05T09:35:09Z</time>
      </trkpt>
      <trkpt lat="47.13443" lon="5.89194">
        <ele>336.4</ele>
        <time>2024-08-05T09:35:10Z</time>
      </trkpt>
      <trkpt lat="47.13444" lon="5.89194">
        <ele>336.6</ele>
        <time>2024-08-05T09:35:11Z</time>
      </trkpt>
      <trkpt lat="47.13445" lon="5.89194">
        <ele>336.8</ele>
        <time>2024-08-05T09:35:12Z</time>
      </trkpt>
      <trkpt lat="47.13446" lon="5.89194">
        <ele>337.2</ele>
        <time>2024-08-05T09:35:13Z</time>
      </trkpt>
      <trkpt lat="47.13448" lon="5.89194">
        <ele>337.4</ele>
        <time>2024-08-05T09:35:14Z</time>
      </trkpt>
      <trkpt lat="47.13449" lon="5.89194">
        <ele>337.6</ele>
        <time>2024-08-05T09:35:15Z</time>
      </trkpt>
      <trkpt lat="47.1345" lon="5.89195">
        <ele>337.8</ele>
        <time>2024-08-05T09:35:16Z</time>
      </trkpt>
      <trkpt lat="47.13452" lon="5.89195">
        <ele>338.2</ele>
        <time>2024-08-05T09:35:17Z</time>
      </trkpt>
      <trkpt lat="47.13454" lon="5.89196">
        <ele>338.6</ele>
        <time>2024-08-05T09:35:18Z</time>
      </trkpt>
      <trkpt lat="47.13456" lon="5.89196">
        <ele>338.6</ele>
        <time>2024-08-05T09:35:19Z</time>
      </trkpt>
      <trkpt lat="47.13459" lon="5.89197">
        <ele>339</ele>
        <time>2024-08-05T09:35:20Z</time>
      </trkpt>
      <trkpt lat="47.1346" lon="5.89198">
        <ele>339.2</ele>
        <time>2024-08-05T09:35:21Z</time>
      </trkpt>
      <trkpt lat="47.13462" lon="5.89198">
        <ele>339.2</ele>
        <time>2024-08-05T09:35:22Z</time>
      </trkpt>
      <trkpt lat="47.13463" lon="5.89199">
        <ele>339.4</ele>
        <time>2024-08-05T09:35:23Z</time>
      </trkpt>
      <trkpt lat="47.13465" lon="5.89198">
        <ele>339.6</ele>
        <time>2024-08-05T09:35:24Z</time>
      </trkpt>
      <trkpt lat="47.13466" lon="5.89199">
        <ele>339.6</ele>
        <time>2024-08-05T09:35:25Z</time>
      </trkpt>
      <trkpt lat="47.13468" lon="5.89199">
        <ele>339.6</ele>
        <time>2024-08-05T09:35:26Z</time>
      </trkpt>
      <trkpt lat="47.13469" lon="5.892">
        <ele>339.6</ele>
        <time>2024-08-05T09:35:27Z</time>
      </trkpt>
      <trkpt lat="47.1347" lon="5.892">
        <ele>339.6</ele>
        <time>2024-08-05T09:35:28Z</time>
      </trkpt>
      <trkpt lat="47.13471" lon="5.892">
        <ele>339.6</ele>
        <time>2024-08-05T09:35:29Z</time>
      </trkpt>
      <trkpt lat="47.13473" lon="5.89199">
        <ele>339.6</ele>
        <time>2024-08-05T09:35:30Z</time>
      </trkpt>
      <trkpt lat="47.13475" lon="5.89199">
        <ele>339.6</ele>
        <time>2024-08-05T09:35:31Z</time>
      </trkpt>
      <trkpt lat="47.13477" lon="5.89199">
        <ele>339.6</ele>
        <time>2024-08-05T09:35:32Z</time>
      </trkpt>
      <trkpt lat="47.13479" lon="5.89199">
        <ele>339.6</ele>
        <time>2024-08-05T09:35:33Z</time>
      </trkpt>
      <trkpt lat="47.13482" lon="5.89199">
        <ele>339.4</ele>
        <time>2024-08-05T09:35:34Z</time>
      </trkpt>
      <trkpt lat="47.13483" lon="5.89199">
        <ele>339.4</ele>
        <time>2024-08-05T09:35:35Z</time>
      </trkpt>
      <trkpt lat="47.13485" lon="5.892">
        <ele>339.2</ele>
        <time>2024-08-05T09:35:36Z</time>
      </trkpt>
      <trkpt lat="47.13487" lon="5.89201">
        <ele>339.2</ele>
        <time>2024-08-05T09:35:37Z</time>
      </trkpt>
      <trkpt lat="47.1349" lon="5.89201">
        <ele>338.8</ele>
        <time>2024-08-05T09:35:38Z</time>
      </trkpt>
      <trkpt lat="47.13493" lon="5.89202">
        <ele>338.6</ele>
        <time>2024-08-05T09:35:39Z</time>
      </trkpt>
      <trkpt lat="47.13498" lon="5.89203">
        <ele>338.6</ele>
        <time>2024-08-05T09:35:40Z</time>
      </trkpt>
      <trkpt lat="47.13498" lon="5.89203">
        <ele>338.6</ele>
        <time>2024-08-05T09:35:41Z</time>
      </trkpt>
      <trkpt lat="47.13502" lon="5.89204">
        <ele>338.2</ele>
        <time>2024-08-05T09:35:42Z</time>
      </trkpt>
      <trkpt lat="47.13504" lon="5.89205">
        <ele>338.2</ele>
        <time>2024-08-05T09:35:43Z</time>
      </trkpt>
      <trkpt lat="47.13506" lon="5.89205">
        <ele>338.2</ele>
        <time>2024-08-05T09:35:44Z</time>
      </trkpt>
      <trkpt lat="47.13508" lon="5.89206">
        <ele>338.2</ele>
        <time>2024-08-05T09:35:45Z</time>
      </trkpt>
      <trkpt lat="47.1351" lon="5.89206">
        <ele>338.2</ele>
        <time>2024-08-05T09:35:46Z</time>
      </trkpt>
      <trkpt lat="47.13511" lon="5.89206">
        <ele>338.2</ele>
        <time>2024-08-05T09:35:47Z</time>
      </trkpt>
      <trkpt lat="47.13514" lon="5.89206">
        <ele>338.2</ele>
        <time>2024-08-05T09:35:48Z</time>
      </trkpt>
      <trkpt lat="47.13516" lon="5.89206">
        <ele>338.2</ele>
        <time>2024-08-05T09:35:49Z</time>
      </trkpt>
      <trkpt lat="47.13518" lon="5.89206">
        <ele>338.2</ele>
        <time>2024-08-05T09:35:50Z</time>
      </trkpt>
      <trkpt lat="47.13521" lon="5.89206">
        <ele>338.2</ele>
        <time>2024-08-05T09:35:51Z</time>
      </trkpt>
      <trkpt lat="47.13523" lon="5.89206">
        <ele>338.2</ele>
        <time>2024-08-05T09:35:52Z</time>
      </trkpt>
      <trkpt lat="47.13525" lon="5.89207">
        <ele>338.2</ele>
        <time>2024-08-05T09:35:53Z</time>
      </trkpt>
      <trkpt lat="47.13527" lon="5.89207">
        <ele>338.4</ele>
        <time>2024-08-05T09:35:54Z</time>
      </trkpt>
      <trkpt lat="47.13529" lon="5.89206">
        <ele>338.4</ele>
        <time>2024-08-05T09:35:55Z</time>
      </trkpt>
      <trkpt lat="47.1353" lon="5.89206">
        <ele>338.2</ele>
        <time>2024-08-05T09:35:56Z</time>
      </trkpt>
      <trkpt lat="47.13532" lon="5.89206">
        <ele>338.2</ele>
        <time>2024-08-05T09:35:57Z</time>
      </trkpt>
      <trkpt lat="47.13534" lon="5.89207">
        <ele>338.2</ele>
        <time>2024-08-05T09:35:58Z</time>
      </trkpt>
      <trkpt lat="47.13537" lon="5.89207">
        <ele>338.2</ele>
        <time>2024-08-05T09:35:59Z</time>
      </trkpt>
      <trkpt lat="47.13539" lon="5.89207">
        <ele>338.2</ele>
        <time>2024-08-05T09:36:00Z</time>
      </trkpt>
      <trkpt lat="47.13543" lon="5.89208">
        <ele>338.2</ele>
        <time>2024-08-05T09:36:01Z</time>
      </trkpt>
      <trkpt lat="47.13546" lon="5.89208">
        <ele>338.2</ele>
        <time>2024-08-05T09:36:02Z</time>
      </trkpt>
      <trkpt lat="47.13549" lon="5.89209">
        <ele>338.2</ele>
        <time>2024-08-05T09:36:03Z</time>
      </trkpt>
      <trkpt lat="47.13553" lon="5.8921">
        <ele>337.8</ele>
        <time>2024-08-05T09:36:04Z</time>
      </trkpt>
      <trkpt lat="47.13557" lon="5.8921">
        <ele>337.8</ele>
        <time>2024-08-05T09:36:05Z</time>
      </trkpt>
      <trkpt lat="47.1356" lon="5.89211">
        <ele>337.6</ele>
        <time>2024-08-05T09:36:06Z</time>
      </trkpt>
      <trkpt lat="47.13563" lon="5.89212">
        <ele>337.6</ele>
        <time>2024-08-05T09:36:07Z</time>
      </trkpt>
      <trkpt lat="47.13565" lon="5.89212">
        <ele>337.6</ele>
        <time>2024-08-05T09:36:08Z</time>
      </trkpt>
      <trkpt lat="47.13569" lon="5.89212">
        <ele>337.4</ele>
        <time>2024-08-05T09:36:09Z</time>
      </trkpt>
      <trkpt lat="47.13571" lon="5.89213">
        <ele>337.2</ele>
        <time>2024-08-05T09:36:10Z</time>
      </trkpt>
      <trkpt lat="47.13574" lon="5.89214">
        <ele>336.6</ele>
        <time>2024-08-05T09:36:11Z</time>
      </trkpt>
      <trkpt lat="47.13576" lon="5.89214">
        <ele>336.2</ele>
        <time>2024-08-05T09:36:12Z</time>
      </trkpt>
      <trkpt lat="47.1358" lon="5.89215">
        <ele>335.6</ele>
        <time>2024-08-05T09:36:13Z</time>
      </trkpt>
      <trkpt lat="47.13583" lon="5.89216">
        <ele>335.4</ele>
        <time>2024-08-05T09:36:14Z</time>
      </trkpt>
      <trkpt lat="47.13586" lon="5.89216">
        <ele>334.8</ele>
        <time>2024-08-05T09:36:15Z</time>
      </trkpt>
      <trkpt lat="47.13589" lon="5.89216">
        <ele>334.4</ele>
        <time>2024-08-05T09:36:16Z</time>
      </trkpt>
      <trkpt lat="47.13592" lon="5.89216">
        <ele>334</ele>
        <time>2024-08-05T09:36:17Z</time>
      </trkpt>
      <trkpt lat="47.13595" lon="5.89216">
        <ele>333.8</ele>
        <time>2024-08-05T09:36:18Z</time>
      </trkpt>
      <trkpt lat="47.13599" lon="5.89216">
        <ele>333.2</ele>
        <time>2024-08-05T09:36:19Z</time>
      </trkpt>
      <trkpt lat="47.13601" lon="5.89216">
        <ele>332.6</ele>
        <time>2024-08-05T09:36:20Z</time>
      </trkpt>
      <trkpt lat="47.13605" lon="5.89215">
        <ele>332</ele>
        <time>2024-08-05T09:36:21Z</time>
      </trkpt>
      <trkpt lat="47.1361" lon="5.89214">
        <ele>331.4</ele>
        <time>2024-08-05T09:36:22Z</time>
      </trkpt>
      <trkpt lat="47.1361" lon="5.89214">
        <ele>330.6</ele>
        <time>2024-08-05T09:36:23Z</time>
      </trkpt>
      <trkpt lat="47.13611" lon="5.89213">
        <ele>330.6</ele>
        <time>2024-08-05T09:36:24Z</time>
      </trkpt>
      <trkpt lat="47.13611" lon="5.89213">
        <ele>330</ele>
        <time>2024-08-05T09:36:25Z</time>
      </trkpt>
      <trkpt lat="47.13612" lon="5.89212">
        <ele>329.4</ele>
        <time>2024-08-05T09:36:26Z</time>
      </trkpt>
      <trkpt lat="47.13613" lon="5.89211">
        <ele>328.6</ele>
        <time>2024-08-05T09:36:27Z</time>
      </trkpt>
      <trkpt lat="47.13615" lon="5.89208">
        <ele>328.2</ele>
        <time>2024-08-05T09:36:28Z</time>
      </trkpt>
      <trkpt lat="47.13615" lon="5.89208">
        <ele>327.6</ele>
        <time>2024-08-05T09:36:29Z</time>
      </trkpt>
      <trkpt lat="47.13617" lon="5.89207">
        <ele>327.2</ele>
        <time>2024-08-05T09:36:30Z</time>
      </trkpt>
      <trkpt lat="47.13617" lon="5.89206">
        <ele>327</ele>
        <time>2024-08-05T09:36:31Z</time>
      </trkpt>
      <trkpt lat="47.13618" lon="5.89206">
        <ele>327</ele>
        <time>2024-08-05T09:36:32Z</time>
      </trkpt>
      <trkpt lat="47.13619" lon="5.89205">
        <ele>326.8</ele>
        <time>2024-08-05T09:36:33Z</time>
      </trkpt>
      <trkpt lat="47.13619" lon="5.89205">
        <ele>326.8</ele>
        <time>2024-08-05T09:36:34Z</time>
      </trkpt>
      <trkpt lat="47.1362" lon="5.89204">
        <ele>326.8</ele>
        <time>2024-08-05T09:36:35Z</time>
      </trkpt>
      <trkpt lat="47.1362" lon="5.89204">
        <ele>326.8</ele>
        <time>2024-08-05T09:36:36Z</time>
      </trkpt>
      <trkpt lat="47.13621" lon="5.89203">
        <ele>326.8</ele>
        <time>2024-08-05T09:36:37Z</time>
      </trkpt>
      <trkpt lat="47.13623" lon="5.89202">
        <ele>326.4</ele>
        <time>2024-08-05T09:36:38Z</time>
      </trkpt>
      <trkpt lat="47.13624" lon="5.89201">
        <ele>326.2</ele>
        <time>2024-08-05T09:36:39Z</time>
      </trkpt>
      <trkpt lat="47.13624" lon="5.89201">
        <ele>326</ele>
        <time>2024-08-05T09:36:40Z</time>
      </trkpt>
      <trkpt lat="47.13624" lon="5.89201">
        <ele>326</ele>
        <time>2024-08-05T09:36:41Z</time>
      </trkpt>
      <trkpt lat="47.13624" lon="5.89201">
        <ele>325.6</ele>
        <time>2024-08-05T09:36:42Z</time>
      </trkpt>
      <trkpt lat="47.13624" lon="5.89201">
        <ele>325.2</ele>
        <time>2024-08-05T09:36:43Z</time>
      </trkpt>
      <trkpt lat="47.13624" lon="5.89201">
        <ele>324.8</ele>
        <time>2024-08-05T09:36:44Z</time>
      </trkpt>
      <trkpt lat="47.13625" lon="5.892">
        <ele>324.6</ele>
        <time>2024-08-05T09:36:45Z</time>
      </trkpt>
      <trkpt lat="47.13625" lon="5.892">
        <ele>324.6</ele>
        <time>2024-08-05T09:36:46Z</time>
      </trkpt>
      <trkpt lat="47.13626" lon="5.89199">
        <ele>324.6</ele>
        <time>2024-08-05T09:36:47Z</time>
      </trkpt>
      <trkpt lat="47.13627" lon="5.89198">
        <ele>324.6</ele>
        <time>2024-08-05T09:36:48Z</time>
      </trkpt>
      <trkpt lat="47.13629" lon="5.89196">
        <ele>324.4</ele>
        <time>2024-08-05T09:36:49Z</time>
      </trkpt>
      <trkpt lat="47.13629" lon="5.89196">
        <ele>324.4</ele>
        <time>2024-08-05T09:36:50Z</time>
      </trkpt>
      <trkpt lat="47.13631" lon="5.89197">
        <ele>324.2</ele>
        <time>2024-08-05T09:36:51Z</time>
      </trkpt>
      <trkpt lat="47.13632" lon="5.89196">
        <ele>324.4</ele>
        <time>2024-08-05T09:36:52Z</time>
      </trkpt>
      <trkpt lat="47.13634" lon="5.89195">
        <ele>323.8</ele>
        <time>2024-08-05T09:36:53Z</time>
      </trkpt>
      <trkpt lat="47.13635" lon="5.89195">
        <ele>323.2</ele>
        <time>2024-08-05T09:36:54Z</time>
      </trkpt>
      <trkpt lat="47.13637" lon="5.89194">
        <ele>322.8</ele>
        <time>2024-08-05T09:36:55Z</time>
      </trkpt>
      <trkpt lat="47.13639" lon="5.89194">
        <ele>322.2</ele>
        <time>2024-08-05T09:36:56Z</time>
      </trkpt>
      <trkpt lat="47.1364" lon="5.89194">
        <ele>321.6</ele>
        <time>2024-08-05T09:36:57Z</time>
      </trkpt>
      <trkpt lat="47.13642" lon="5.89194">
        <ele>320.6</ele>
        <time>2024-08-05T09:36:58Z</time>
      </trkpt>
      <trkpt lat="47.13643" lon="5.89194">
        <ele>320</ele>
        <time>2024-08-05T09:36:59Z</time>
      </trkpt>
      <trkpt lat="47.13645" lon="5.89194">
        <ele>319.2</ele>
        <time>2024-08-05T09:37:00Z</time>
      </trkpt>
      <trkpt lat="47.13646" lon="5.89193">
        <ele>318.2</ele>
        <time>2024-08-05T09:37:01Z</time>
      </trkpt>
      <trkpt lat="47.13647" lon="5.89193">
        <ele>317.6</ele>
        <time>2024-08-05T09:37:02Z</time>
      </trkpt>
      <trkpt lat="47.13649" lon="5.89193">
        <ele>317.4</ele>
        <time>2024-08-05T09:37:03Z</time>
      </trkpt>
      <trkpt lat="47.1365" lon="5.89192">
        <ele>316.8</ele>
        <time>2024-08-05T09:37:04Z</time>
      </trkpt>
      <trkpt lat="47.13651" lon="5.89193">
        <ele>316.6</ele>
        <time>2024-08-05T09:37:05Z</time>
      </trkpt>
      <trkpt lat="47.13652" lon="5.89193">
        <ele>316.2</ele>
        <time>2024-08-05T09:37:06Z</time>
      </trkpt>
      <trkpt lat="47.13653" lon="5.89193">
        <ele>316</ele>
        <time>2024-08-05T09:37:07Z</time>
      </trkpt>
      <trkpt lat="47.13654" lon="5.89193">
        <ele>316</ele>
        <time>2024-08-05T09:37:08Z</time>
      </trkpt>
      <trkpt lat="47.13655" lon="5.89194">
        <ele>315.6</ele>
        <time>2024-08-05T09:37:09Z</time>
      </trkpt>
      <trkpt lat="47.13657" lon="5.89194">
        <ele>315.4</ele>
        <time>2024-08-05T09:37:10Z</time>
      </trkpt>
      <trkpt lat="47.13657" lon="5.89195">
        <ele>315.2</ele>
        <time>2024-08-05T09:37:11Z</time>
      </trkpt>
      <trkpt lat="47.13658" lon="5.89196">
        <ele>315</ele>
        <time>2024-08-05T09:37:12Z</time>
      </trkpt>
      <trkpt lat="47.13659" lon="5.89197">
        <ele>314.8</ele>
        <time>2024-08-05T09:37:13Z</time>
      </trkpt>
      <trkpt lat="47.1366" lon="5.89198">
        <ele>314.6</ele>
        <time>2024-08-05T09:37:14Z</time>
      </trkpt>
      <trkpt lat="47.1366" lon="5.892">
        <ele>314.8</ele>
        <time>2024-08-05T09:37:15Z</time>
      </trkpt>
      <trkpt lat="47.13661" lon="5.89202">
        <ele>314.6</ele>
        <time>2024-08-05T09:37:16Z</time>
      </trkpt>
      <trkpt lat="47.13662" lon="5.89205">
        <ele>314.4</ele>
        <time>2024-08-05T09:37:17Z</time>
      </trkpt>
      <trkpt lat="47.13665" lon="5.89207">
        <ele>314</ele>
        <time>2024-08-05T09:37:18Z</time>
      </trkpt>
      <trkpt lat="47.13667" lon="5.89213">
        <ele>313.6</ele>
        <time>2024-08-05T09:37:19Z</time>
      </trkpt>
      <trkpt lat="47.13669" lon="5.89214">
        <ele>313.2</ele>
        <time>2024-08-05T09:37:20Z</time>
      </trkpt>
      <trkpt lat="47.13672" lon="5.89217">
        <ele>312.6</ele>
        <time>2024-08-05T09:37:21Z</time>
      </trkpt>
      <trkpt lat="47.13674" lon="5.89218">
        <ele>312.2</ele>
        <time>2024-08-05T09:37:22Z</time>
      </trkpt>
      <trkpt lat="47.13676" lon="5.89218">
        <ele>311.4</ele>
        <time>2024-08-05T09:37:23Z</time>
      </trkpt>
      <trkpt lat="47.13677" lon="5.89218">
        <ele>311</ele>
        <time>2024-08-05T09:37:24Z</time>
      </trkpt>
      <trkpt lat="47.1368" lon="5.89217">
        <ele>310.4</ele>
        <time>2024-08-05T09:37:25Z</time>
      </trkpt>
      <trkpt lat="47.13682" lon="5.89216">
        <ele>309.8</ele>
        <time>2024-08-05T09:37:26Z</time>
      </trkpt>
      <trkpt lat="47.13685" lon="5.89215">
        <ele>309.4</ele>
        <time>2024-08-05T09:37:27Z</time>
      </trkpt>
      <trkpt lat="47.13685" lon="5.89215">
        <ele>308.6</ele>
        <time>2024-08-05T09:37:28Z</time>
      </trkpt>
      <trkpt lat="47.13687" lon="5.89214">
        <ele>308.4</ele>
        <time>2024-08-05T09:37:29Z</time>
      </trkpt>
      <trkpt lat="47.13694" lon="5.89212">
        <ele>308.4</ele>
        <time>2024-08-05T09:37:30Z</time>
      </trkpt>
      <trkpt lat="47.13697" lon="5.89213">
        <ele>307.8</ele>
        <time>2024-08-05T09:37:31Z</time>
      </trkpt>
      <trkpt lat="47.137" lon="5.89214">
        <ele>307.4</ele>
        <time>2024-08-05T09:37:32Z</time>
      </trkpt>
      <trkpt lat="47.13702" lon="5.89215">
        <ele>307</ele>
        <time>2024-08-05T09:37:33Z</time>
      </trkpt>
      <trkpt lat="47.13705" lon="5.89217">
        <ele>306.4</ele>
        <time>2024-08-05T09:37:34Z</time>
      </trkpt>
      <trkpt lat="47.13707" lon="5.89219">
        <ele>306</ele>
        <time>2024-08-05T09:37:35Z</time>
      </trkpt>
      <trkpt lat="47.13707" lon="5.89219">
        <ele>305.4</ele>
        <time>2024-08-05T09:37:36Z</time>
      </trkpt>
      <trkpt lat="47.13709" lon="5.89222">
        <ele>305</ele>
        <time>2024-08-05T09:37:37Z</time>
      </trkpt>
      <trkpt lat="47.13712" lon="5.89224">
        <ele>304.2</ele>
        <time>2024-08-05T09:37:38Z</time>
      </trkpt>
      <trkpt lat="47.13713" lon="5.89227">
        <ele>303.6</ele>
        <time>2024-08-05T09:37:39Z</time>
      </trkpt>
      <trkpt lat="47.13716" lon="5.89231">
        <ele>302.6</ele>
        <time>2024-08-05T09:37:40Z</time>
      </trkpt>
      <trkpt lat="47.13716" lon="5.89231">
        <ele>301.8</ele>
        <time>2024-08-05T09:37:41Z</time>
      </trkpt>
      <trkpt lat="47.13717" lon="5.89232">
        <ele>301</ele>
        <time>2024-08-05T09:37:42Z</time>
      </trkpt>
      <trkpt lat="47.13719" lon="5.89234">
        <ele>300.2</ele>
        <time>2024-08-05T09:37:43Z</time>
      </trkpt>
      <trkpt lat="47.13719" lon="5.89234">
        <ele>299.2</ele>
        <time>2024-08-05T09:37:44Z</time>
      </trkpt>
      <trkpt lat="47.13719" lon="5.89234">
        <ele>298.6</ele>
        <time>2024-08-05T09:37:45Z</time>
      </trkpt>
      <trkpt lat="47.1372" lon="5.89235">
        <ele>298</ele>
        <time>2024-08-05T09:37:46Z</time>
      </trkpt>
      <trkpt lat="47.1372" lon="5.89236">
        <ele>297.4</ele>
        <time>2024-08-05T09:37:47Z</time>
      </trkpt>
      <trkpt lat="47.1372" lon="5.89236">
        <ele>296.8</ele>
        <time>2024-08-05T09:37:48Z</time>
      </trkpt>
      <trkpt lat="47.1372" lon="5.89237">
        <ele>296.2</ele>
        <time>2024-08-05T09:37:49Z</time>
      </trkpt>
      <trkpt lat="47.13721" lon="5.89237">
        <ele>296</ele>
        <time>2024-08-05T09:37:50Z</time>
      </trkpt>
      <trkpt lat="47.1372" lon="5.89242">
        <ele>296</ele>
        <time>2024-08-05T09:37:51Z</time>
      </trkpt>
      <trkpt lat="47.1372" lon="5.89242">
        <ele>296</ele>
        <time>2024-08-05T09:37:52Z</time>
      </trkpt>
      <trkpt lat="47.13718" lon="5.89248">
        <ele>295.8</ele>
        <time>2024-08-05T09:37:53Z</time>
      </trkpt>
      <trkpt lat="47.13716" lon="5.89251">
        <ele>295.8</ele>
        <time>2024-08-05T09:37:54Z</time>
      </trkpt>
      <trkpt lat="47.13715" lon="5.89254">
        <ele>295.6</ele>
        <time>2024-08-05T09:37:55Z</time>
      </trkpt>
      <trkpt lat="47.13713" lon="5.89257">
        <ele>295.6</ele>
        <time>2024-08-05T09:37:56Z</time>
      </trkpt>
      <trkpt lat="47.13712" lon="5.8926">
        <ele>295.4</ele>
        <time>2024-08-05T09:37:57Z</time>
      </trkpt>
      <trkpt lat="47.1371" lon="5.89263">
        <ele>295.4</ele>
        <time>2024-08-05T09:37:58Z</time>
      </trkpt>
      <trkpt lat="47.13709" lon="5.89268">
        <ele>295.2</ele>
        <time>2024-08-05T09:37:59Z</time>
      </trkpt>
      <trkpt lat="47.13709" lon="5.89268">
        <ele>294.8</ele>
        <time>2024-08-05T09:38:00Z</time>
      </trkpt>
      <trkpt lat="47.13703" lon="5.89279">
        <ele>294.6</ele>
        <time>2024-08-05T09:38:01Z</time>
      </trkpt>
      <trkpt lat="47.13703" lon="5.89279">
        <ele>294</ele>
        <time>2024-08-05T09:38:02Z</time>
      </trkpt>
      <trkpt lat="47.137" lon="5.89286">
        <ele>293.8</ele>
        <time>2024-08-05T09:38:03Z</time>
      </trkpt>
      <trkpt lat="47.137" lon="5.89286">
        <ele>293.6</ele>
        <time>2024-08-05T09:38:04Z</time>
      </trkpt>
      <trkpt lat="47.13698" lon="5.8929">
        <ele>293.2</ele>
        <time>2024-08-05T09:38:05Z</time>
      </trkpt>
      <trkpt lat="47.13696" lon="5.8929">
        <ele>293</ele>
        <time>2024-08-05T09:38:06Z</time>
      </trkpt>
      <trkpt lat="47.13695" lon="5.89291">
        <ele>292.8</ele>
        <time>2024-08-05T09:38:07Z</time>
      </trkpt>
      <trkpt lat="47.13693" lon="5.89292">
        <ele>292.6</ele>
        <time>2024-08-05T09:38:08Z</time>
      </trkpt>
      <trkpt lat="47.13693" lon="5.89292">
        <ele>292.4</ele>
        <time>2024-08-05T09:38:09Z</time>
      </trkpt>
      <trkpt lat="47.1369" lon="5.89293">
        <ele>292.2</ele>
        <time>2024-08-05T09:38:10Z</time>
      </trkpt>
      <trkpt lat="47.1369" lon="5.89293">
        <ele>292</ele>
        <time>2024-08-05T09:38:11Z</time>
      </trkpt>
      <trkpt lat="47.13688" lon="5.89294">
        <ele>292</ele>
        <time>2024-08-05T09:38:12Z</time>
      </trkpt>
      <trkpt lat="47.13686" lon="5.89295">
        <ele>292</ele>
        <time>2024-08-05T09:38:13Z</time>
      </trkpt>
      <trkpt lat="47.13683" lon="5.89296">
        <ele>292</ele>
        <time>2024-08-05T09:38:14Z</time>
      </trkpt>
      <trkpt lat="47.13681" lon="5.89298">
        <ele>292.2</ele>
        <time>2024-08-05T09:38:15Z</time>
      </trkpt>
      <trkpt lat="47.13678" lon="5.89302">
        <ele>292</ele>
        <time>2024-08-05T09:38:16Z</time>
      </trkpt>
      <trkpt lat="47.13678" lon="5.89302">
        <ele>292</ele>
        <time>2024-08-05T09:38:17Z</time>
      </trkpt>
      <trkpt lat="47.13674" lon="5.89306">
        <ele>292</ele>
        <time>2024-08-05T09:38:18Z</time>
      </trkpt>
      <trkpt lat="47.13674" lon="5.89306">
        <ele>292.2</ele>
        <time>2024-08-05T09:38:19Z</time>
      </trkpt>
      <trkpt lat="47.13672" lon="5.89307">
        <ele>292.2</ele>
        <time>2024-08-05T09:38:20Z</time>
      </trkpt>
      <trkpt lat="47.1367" lon="5.89308">
        <ele>292.2</ele>
        <time>2024-08-05T09:38:21Z</time>
      </trkpt>
      <trkpt lat="47.13666" lon="5.89311">
        <ele>292.2</ele>
        <time>2024-08-05T09:38:22Z</time>
      </trkpt>
      <trkpt lat="47.13666" lon="5.89311">
        <ele>292.2</ele>
        <time>2024-08-05T09:38:23Z</time>
      </trkpt>
      <trkpt lat="47.13664" lon="5.89313">
        <ele>292.4</ele>
        <time>2024-08-05T09:38:24Z</time>
      </trkpt>
      <trkpt lat="47.13662" lon="5.89316">
        <ele>292.6</ele>
        <time>2024-08-05T09:38:25Z</time>
      </trkpt>
      <trkpt lat="47.13659" lon="5.89317">
        <ele>292.4</ele>
        <time>2024-08-05T09:38:26Z</time>
      </trkpt>
      <trkpt lat="47.13657" lon="5.89318">
        <ele>292.6</ele>
        <time>2024-08-05T09:38:27Z</time>
      </trkpt>
      <trkpt lat="47.13655" lon="5.89319">
        <ele>292.6</ele>
        <time>2024-08-05T09:38:28Z</time>
      </trkpt>
      <trkpt lat="47.1365" lon="5.89321">
        <ele>292.8</ele>
        <time>2024-08-05T09:38:29Z</time>
      </trkpt>
      <trkpt lat="47.13648" lon="5.89322">
        <ele>292.8</ele>
        <time>2024-08-05T09:38:30Z</time>
      </trkpt>
      <trkpt lat="47.13648" lon="5.89322">
        <ele>293</ele>
        <time>2024-08-05T09:38:31Z</time>
      </trkpt>
      <trkpt lat="47.13645" lon="5.89323">
        <ele>293</ele>
        <time>2024-08-05T09:38:32Z</time>
      </trkpt>
      <trkpt lat="47.13643" lon="5.89324">
        <ele>293</ele>
        <time>2024-08-05T09:38:33Z</time>
      </trkpt>
      <trkpt lat="47.1364" lon="5.89325">
        <ele>293.2</ele>
        <time>2024-08-05T09:38:34Z</time>
      </trkpt>
      <trkpt lat="47.13638" lon="5.89326">
        <ele>293.2</ele>
        <time>2024-08-05T09:38:35Z</time>
      </trkpt>
      <trkpt lat="47.13636" lon="5.89327">
        <ele>293.4</ele>
        <time>2024-08-05T09:38:36Z</time>
      </trkpt>
      <trkpt lat="47.13633" lon="5.89328">
        <ele>293.8</ele>
        <time>2024-08-05T09:38:37Z</time>
      </trkpt>
      <trkpt lat="47.13631" lon="5.89329">
        <ele>293.8</ele>
        <time>2024-08-05T09:38:38Z</time>
      </trkpt>
      <trkpt lat="47.13628" lon="5.8933">
        <ele>294</ele>
        <time>2024-08-05T09:38:39Z</time>
      </trkpt>
      <trkpt lat="47.13623" lon="5.89332">
        <ele>294</ele>
        <time>2024-08-05T09:38:40Z</time>
      </trkpt>
      <trkpt lat="47.1362" lon="5.89333">
        <ele>294.4</ele>
        <time>2024-08-05T09:38:41Z</time>
      </trkpt>
      <trkpt lat="47.13618" lon="5.89333">
        <ele>294.4</ele>
        <time>2024-08-05T09:38:42Z</time>
      </trkpt>
      <trkpt lat="47.13618" lon="5.89333">
        <ele>294.4</ele>
        <time>2024-08-05T09:38:43Z</time>
      </trkpt>
      <trkpt lat="47.13615" lon="5.89333">
        <ele>294.6</ele>
        <time>2024-08-05T09:38:44Z</time>
      </trkpt>
      <trkpt lat="47.13613" lon="5.89333">
        <ele>294.6</ele>
        <time>2024-08-05T09:38:45Z</time>
      </trkpt>
      <trkpt lat="47.13608" lon="5.89332">
        <ele>294.6</ele>
        <time>2024-08-05T09:38:46Z</time>
      </trkpt>
      <trkpt lat="47.13606" lon="5.89332">
        <ele>294.8</ele>
        <time>2024-08-05T09:38:47Z</time>
      </trkpt>
      <trkpt lat="47.13604" lon="5.89331">
        <ele>294.8</ele>
        <time>2024-08-05T09:38:48Z</time>
      </trkpt>
      <trkpt lat="47.13602" lon="5.89329">
        <ele>295</ele>
        <time>2024-08-05T09:38:49Z</time>
      </trkpt>
      <trkpt lat="47.136" lon="5.89328">
        <ele>295</ele>
        <time>2024-08-05T09:38:50Z</time>
      </trkpt>
      <trkpt lat="47.136" lon="5.89328">
        <ele>295</ele>
        <time>2024-08-05T09:38:51Z</time>
      </trkpt>
      <trkpt lat="47.13596" lon="5.89325">
        <ele>295</ele>
        <time>2024-08-05T09:38:52Z</time>
      </trkpt>
      <trkpt lat="47.13594" lon="5.89325">
        <ele>295.2</ele>
        <time>2024-08-05T09:38:53Z</time>
      </trkpt>
      <trkpt lat="47.13592" lon="5.89325">
        <ele>295.2</ele>
        <time>2024-08-05T09:38:54Z</time>
      </trkpt>
      <trkpt lat="47.1359" lon="5.89324">
        <ele>295.2</ele>
        <time>2024-08-05T09:38:55Z</time>
      </trkpt>
      <trkpt lat="47.13588" lon="5.89324">
        <ele>295.2</ele>
        <time>2024-08-05T09:38:56Z</time>
      </trkpt>
      <trkpt lat="47.13586" lon="5.89323">
        <ele>295.2</ele>
        <time>2024-08-05T09:38:57Z</time>
      </trkpt>
      <trkpt lat="47.13583" lon="5.89323">
        <ele>295.2</ele>
        <time>2024-08-05T09:38:58Z</time>
      </trkpt>
      <trkpt lat="47.13581" lon="5.89323">
        <ele>295.4</ele>
        <time>2024-08-05T09:38:59Z</time>
      </trkpt>
      <trkpt lat="47.13579" lon="5.89323">
        <ele>295.2</ele>
        <time>2024-08-05T09:39:00Z</time>
      </trkpt>
      <trkpt lat="47.13576" lon="5.89323">
        <ele>295.6</ele>
        <time>2024-08-05T09:39:01Z</time>
      </trkpt>
      <trkpt lat="47.13574" lon="5.89324">
        <ele>295.6</ele>
        <time>2024-08-05T09:39:02Z</time>
      </trkpt>
      <trkpt lat="47.13572" lon="5.89324">
        <ele>295.8</ele>
        <time>2024-08-05T09:39:03Z</time>
      </trkpt>
      <trkpt lat="47.1357" lon="5.89324">
        <ele>296</ele>
        <time>2024-08-05T09:39:04Z</time>
      </trkpt>
      <trkpt lat="47.13568" lon="5.89323">
        <ele>295.8</ele>
        <time>2024-08-05T09:39:05Z</time>
      </trkpt>
      <trkpt lat="47.13566" lon="5.89322">
        <ele>296</ele>
        <time>2024-08-05T09:39:06Z</time>
      </trkpt>
      <trkpt lat="47.13563" lon="5.89321">
        <ele>296.2</ele>
        <time>2024-08-05T09:39:07Z</time>
      </trkpt>
      <trkpt lat="47.13561" lon="5.8932">
        <ele>296.4</ele>
        <time>2024-08-05T09:39:08Z</time>
      </trkpt>
      <trkpt lat="47.13558" lon="5.8932">
        <ele>296.6</ele>
        <time>2024-08-05T09:39:09Z</time>
      </trkpt>
      <trkpt lat="47.13556" lon="5.8932">
        <ele>296.6</ele>
        <time>2024-08-05T09:39:10Z</time>
      </trkpt>
      <trkpt lat="47.13554" lon="5.89319">
        <ele>296.8</ele>
        <time>2024-08-05T09:39:11Z</time>
      </trkpt>
      <trkpt lat="47.13552" lon="5.89319">
        <ele>296.6</ele>
        <time>2024-08-05T09:39:12Z</time>
      </trkpt>
      <trkpt lat="47.13549" lon="5.89319">
        <ele>296.8</ele>
        <time>2024-08-05T09:39:13Z</time>
      </trkpt>
      <trkpt lat="47.13547" lon="5.89319">
        <ele>297</ele>
        <time>2024-08-05T09:39:14Z</time>
      </trkpt>
      <trkpt lat="47.13544" lon="5.89319">
        <ele>297</ele>
        <time>2024-08-05T09:39:15Z</time>
      </trkpt>
      <trkpt lat="47.13543" lon="5.89319">
        <ele>297.2</ele>
        <time>2024-08-05T09:39:16Z</time>
      </trkpt>
      <trkpt lat="47.13541" lon="5.89319">
        <ele>297.2</ele>
        <time>2024-08-05T09:39:17Z</time>
      </trkpt>
      <trkpt lat="47.13538" lon="5.89318">
        <ele>297.4</ele>
        <time>2024-08-05T09:39:18Z</time>
      </trkpt>
      <trkpt lat="47.13536" lon="5.89317">
        <ele>297.4</ele>
        <time>2024-08-05T09:39:19Z</time>
      </trkpt>
      <trkpt lat="47.13534" lon="5.89316">
        <ele>297.4</ele>
        <time>2024-08-05T09:39:20Z</time>
      </trkpt>
      <trkpt lat="47.13532" lon="5.89316">
        <ele>297.6</ele>
        <time>2024-08-05T09:39:21Z</time>
      </trkpt>
      <trkpt lat="47.1353" lon="5.89316">
        <ele>297.8</ele>
        <time>2024-08-05T09:39:22Z</time>
      </trkpt>
      <trkpt lat="47.13528" lon="5.89316">
        <ele>297.8</ele>
        <time>2024-08-05T09:39:23Z</time>
      </trkpt>
      <trkpt lat="47.13525" lon="5.89316">
        <ele>297.8</ele>
        <time>2024-08-05T09:39:24Z</time>
      </trkpt>
      <trkpt lat="47.13523" lon="5.89316">
        <ele>298</ele>
        <time>2024-08-05T09:39:25Z</time>
      </trkpt>
      <trkpt lat="47.13521" lon="5.89316">
        <ele>298.2</ele>
        <time>2024-08-05T09:39:26Z</time>
      </trkpt>
      <trkpt lat="47.13518" lon="5.89315">
        <ele>298.2</ele>
        <time>2024-08-05T09:39:27Z</time>
      </trkpt>
      <trkpt lat="47.13516" lon="5.89315">
        <ele>298.2</ele>
        <time>2024-08-05T09:39:28Z</time>
      </trkpt>
      <trkpt lat="47.13514" lon="5.89314">
        <ele>298.2</ele>
        <time>2024-08-05T09:39:29Z</time>
      </trkpt>
      <trkpt lat="47.13513" lon="5.89313">
        <ele>298.4</ele>
        <time>2024-08-05T09:39:30Z</time>
      </trkpt>
      <trkpt lat="47.13511" lon="5.89313">
        <ele>298.6</ele>
        <time>2024-08-05T09:39:31Z</time>
      </trkpt>
      <trkpt lat="47.13509" lon="5.89312">
        <ele>298.6</ele>
        <time>2024-08-05T09:39:32Z</time>
      </trkpt>
      <trkpt lat="47.13507" lon="5.89312">
        <ele>298.8</ele>
        <time>2024-08-05T09:39:33Z</time>
      </trkpt>
      <trkpt lat="47.13505" lon="5.89312">
        <ele>298.8</ele>
        <time>2024-08-05T09:39:34Z</time>
      </trkpt>
      <trkpt lat="47.13503" lon="5.89311">
        <ele>299</ele>
        <time>2024-08-05T09:39:35Z</time>
      </trkpt>
      <trkpt lat="47.13501" lon="5.89312">
        <ele>299</ele>
        <time>2024-08-05T09:39:36Z</time>
      </trkpt>
      <trkpt lat="47.13498" lon="5.89311">
        <ele>299.2</ele>
        <time>2024-08-05T09:39:37Z</time>
      </trkpt>
      <trkpt lat="47.13495" lon="5.8931">
        <ele>299.4</ele>
        <time>2024-08-05T09:39:38Z</time>
      </trkpt>
      <trkpt lat="47.13492" lon="5.89309">
        <ele>299.6</ele>
        <time>2024-08-05T09:39:39Z</time>
      </trkpt>
      <trkpt lat="47.13489" lon="5.89308">
        <ele>299.6</ele>
        <time>2024-08-05T09:39:40Z</time>
      </trkpt>
      <trkpt lat="47.13486" lon="5.89308">
        <ele>299.6</ele>
        <time>2024-08-05T09:39:41Z</time>
      </trkpt>
      <trkpt lat="47.13484" lon="5.89308">
        <ele>299.8</ele>
        <time>2024-08-05T09:39:42Z</time>
      </trkpt>
      <trkpt lat="47.13481" lon="5.89308">
        <ele>300</ele>
        <time>2024-08-05T09:39:43Z</time>
      </trkpt>
      <trkpt lat="47.13479" lon="5.89309">
        <ele>300.2</ele>
        <time>2024-08-05T09:39:44Z</time>
      </trkpt>
      <trkpt lat="47.13476" lon="5.8931">
        <ele>300.2</ele>
        <time>2024-08-05T09:39:45Z</time>
      </trkpt>
      <trkpt lat="47.13474" lon="5.89311">
        <ele>300.4</ele>
        <time>2024-08-05T09:39:46Z</time>
      </trkpt>
      <trkpt lat="47.13471" lon="5.89311">
        <ele>300.4</ele>
        <time>2024-08-05T09:39:47Z</time>
      </trkpt>
      <trkpt lat="47.13469" lon="5.89312">
        <ele>300.6</ele>
        <time>2024-08-05T09:39:48Z</time>
      </trkpt>
      <trkpt lat="47.13466" lon="5.89312">
        <ele>300.8</ele>
        <time>2024-08-05T09:39:49Z</time>
      </trkpt>
      <trkpt lat="47.13464" lon="5.89312">
        <ele>300.8</ele>
        <time>2024-08-05T09:39:50Z</time>
      </trkpt>
      <trkpt lat="47.13463" lon="5.89311">
        <ele>300.8</ele>
        <time>2024-08-05T09:39:51Z</time>
      </trkpt>
      <trkpt lat="47.13461" lon="5.89312">
        <ele>301</ele>
        <time>2024-08-05T09:39:52Z</time>
      </trkpt>
      <trkpt lat="47.13459" lon="5.89312">
        <ele>300.8</ele>
        <time>2024-08-05T09:39:53Z</time>
      </trkpt>
      <trkpt lat="47.13456" lon="5.89313">
        <ele>301</ele>
        <time>2024-08-05T09:39:54Z</time>
      </trkpt>
      <trkpt lat="47.13454" lon="5.89313">
        <ele>301</ele>
        <time>2024-08-05T09:39:55Z</time>
      </trkpt>
      <trkpt lat="47.13451" lon="5.89312">
        <ele>301</ele>
        <time>2024-08-05T09:39:56Z</time>
      </trkpt>
      <trkpt lat="47.13449" lon="5.89312">
        <ele>301.2</ele>
        <time>2024-08-05T09:39:57Z</time>
      </trkpt>
      <trkpt lat="47.13447" lon="5.89311">
        <ele>301.2</ele>
        <time>2024-08-05T09:39:58Z</time>
      </trkpt>
      <trkpt lat="47.13445" lon="5.8931">
        <ele>301.4</ele>
        <time>2024-08-05T09:39:59Z</time>
      </trkpt>
      <trkpt lat="47.13442" lon="5.8931">
        <ele>301.2</ele>
        <time>2024-08-05T09:40:00Z</time>
      </trkpt>
      <trkpt lat="47.1344" lon="5.89309">
        <ele>301.4</ele>
        <time>2024-08-05T09:40:01Z</time>
      </trkpt>
      <trkpt lat="47.13438" lon="5.89307">
        <ele>301.4</ele>
        <time>2024-08-05T09:40:02Z</time>
      </trkpt>
      <trkpt lat="47.13436" lon="5.89306">
        <ele>301.4</ele>
        <time>2024-08-05T09:40:03Z</time>
      </trkpt>
      <trkpt lat="47.13434" lon="5.89305">
        <ele>301.4</ele>
        <time>2024-08-05T09:40:04Z</time>
      </trkpt>
      <trkpt lat="47.13432" lon="5.89305">
        <ele>301.6</ele>
        <time>2024-08-05T09:40:05Z</time>
      </trkpt>
      <trkpt lat="47.1343" lon="5.89304">
        <ele>301.6</ele>
        <time>2024-08-05T09:40:06Z</time>
      </trkpt>
      <trkpt lat="47.13428" lon="5.89302">
        <ele>301.8</ele>
        <time>2024-08-05T09:40:07Z</time>
      </trkpt>
      <trkpt lat="47.13426" lon="5.89301">
        <ele>301.8</ele>
        <time>2024-08-05T09:40:08Z</time>
      </trkpt>
      <trkpt lat="47.13423" lon="5.893">
        <ele>301.8</ele>
        <time>2024-08-05T09:40:09Z</time>
      </trkpt>
      <trkpt lat="47.13422" lon="5.89299">
        <ele>301.8</ele>
        <time>2024-08-05T09:40:10Z</time>
      </trkpt>
      <trkpt lat="47.1342" lon="5.89297">
        <ele>302</ele>
        <time>2024-08-05T09:40:11Z</time>
      </trkpt>
      <trkpt lat="47.13419" lon="5.89296">
        <ele>302</ele>
        <time>2024-08-05T09:40:12Z</time>
      </trkpt>
      <trkpt lat="47.13417" lon="5.89295">
        <ele>302.4</ele>
        <time>2024-08-05T09:40:13Z</time>
      </trkpt>
      <trkpt lat="47.13416" lon="5.89295">
        <ele>302.4</ele>
        <time>2024-08-05T09:40:14Z</time>
      </trkpt>
      <trkpt lat="47.13414" lon="5.89295">
        <ele>302.4</ele>
        <time>2024-08-05T09:40:15Z</time>
      </trkpt>
      <trkpt lat="47.13413" lon="5.89294">
        <ele>302.4</ele>
        <time>2024-08-05T09:40:16Z</time>
      </trkpt>
      <trkpt lat="47.13411" lon="5.89293">
        <ele>302.6</ele>
        <time>2024-08-05T09:40:17Z</time>
      </trkpt>
      <trkpt lat="47.1341" lon="5.89292">
        <ele>302.6</ele>
        <time>2024-08-05T09:40:18Z</time>
      </trkpt>
      <trkpt lat="47.13408" lon="5.89291">
        <ele>302.8</ele>
        <time>2024-08-05T09:40:19Z</time>
      </trkpt>
      <trkpt lat="47.13407" lon="5.89291">
        <ele>302.6</ele>
        <time>2024-08-05T09:40:20Z</time>
      </trkpt>
      <trkpt lat="47.13406" lon="5.89289">
        <ele>302.8</ele>
        <time>2024-08-05T09:40:21Z</time>
      </trkpt>
      <trkpt lat="47.13404" lon="5.89288">
        <ele>303</ele>
        <time>2024-08-05T09:40:22Z</time>
      </trkpt>
      <trkpt lat="47.13402" lon="5.89287">
        <ele>303</ele>
        <time>2024-08-05T09:40:23Z</time>
      </trkpt>
      <trkpt lat="47.13401" lon="5.89287">
        <ele>303</ele>
        <time>2024-08-05T09:40:24Z</time>
      </trkpt>
      <trkpt lat="47.134" lon="5.89286">
        <ele>303</ele>
        <time>2024-08-05T09:40:25Z</time>
      </trkpt>
      <trkpt lat="47.13399" lon="5.89286">
        <ele>303.2</ele>
        <time>2024-08-05T09:40:26Z</time>
      </trkpt>
      <trkpt lat="47.13398" lon="5.89285">
        <ele>303.2</ele>
        <time>2024-08-05T09:40:27Z</time>
      </trkpt>
      <trkpt lat="47.13398" lon="5.89283">
        <ele>303.4</ele>
        <time>2024-08-05T09:40:28Z</time>
      </trkpt>
      <trkpt lat="47.13397" lon="5.89282">
        <ele>303.4</ele>
        <time>2024-08-05T09:40:29Z</time>
      </trkpt>
      <trkpt lat="47.13396" lon="5.89281">
        <ele>303.4</ele>
        <time>2024-08-05T09:40:30Z</time>
      </trkpt>
      <trkpt lat="47.13395" lon="5.8928">
        <ele>303.6</ele>
        <time>2024-08-05T09:40:31Z</time>
      </trkpt>
      <trkpt lat="47.13395" lon="5.89278">
        <ele>303.4</ele>
        <time>2024-08-05T09:40:32Z</time>
      </trkpt>
      <trkpt lat="47.13394" lon="5.89277">
        <ele>303.4</ele>
        <time>2024-08-05T09:40:33Z</time>
      </trkpt>
      <trkpt lat="47.13394" lon="5.89275">
        <ele>303.4</ele>
        <time>2024-08-05T09:40:34Z</time>
      </trkpt>
      <trkpt lat="47.13394" lon="5.89275">
        <ele>303.6</ele>
        <time>2024-08-05T09:40:35Z</time>
      </trkpt>
      <trkpt lat="47.13394" lon="5.89275">
        <ele>303.6</ele>
        <time>2024-08-05T09:40:36Z</time>
      </trkpt>
      <trkpt lat="47.13394" lon="5.89274">
        <ele>303.8</ele>
        <time>2024-08-05T09:40:37Z</time>
      </trkpt>
      <trkpt lat="47.13394" lon="5.89272">
        <ele>304</ele>
        <time>2024-08-05T09:40:38Z</time>
      </trkpt>
      <trkpt lat="47.13394" lon="5.89272">
        <ele>304</ele>
        <time>2024-08-05T09:40:39Z</time>
      </trkpt>
      <trkpt lat="47.13394" lon="5.89272">
        <ele>304</ele>
        <time>2024-08-05T09:40:40Z</time>
      </trkpt>
      <trkpt lat="47.13393" lon="5.89273">
        <ele>304.4</ele>
        <time>2024-08-05T09:40:41Z</time>
      </trkpt>
      <trkpt lat="47.13392" lon="5.89274">
        <ele>304.4</ele>
        <time>2024-08-05T09:40:42Z</time>
      </trkpt>
      <trkpt lat="47.13392" lon="5.89274">
        <ele>304.4</ele>
        <time>2024-08-05T09:40:43Z</time>
      </trkpt>
      <trkpt lat="47.13391" lon="5.89275">
        <ele>304.6</ele>
        <time>2024-08-05T09:40:44Z</time>
      </trkpt>
      <trkpt lat="47.1339" lon="5.89274">
        <ele>304.6</ele>
        <time>2024-08-05T09:40:45Z</time>
      </trkpt>
      <trkpt lat="47.1339" lon="5.89273">
        <ele>304.8</ele>
        <time>2024-08-05T09:40:46Z</time>
      </trkpt>
      <trkpt lat="47.1339" lon="5.89273">
        <ele>304.8</ele>
        <time>2024-08-05T09:40:47Z</time>
      </trkpt>
      <trkpt lat="47.1339" lon="5.89273">
        <ele>305</ele>
        <time>2024-08-05T09:40:48Z</time>
      </trkpt>
      <trkpt lat="47.13389" lon="5.89273">
        <ele>305</ele>
        <time>2024-08-05T09:40:49Z</time>
      </trkpt>
      <trkpt lat="47.13389" lon="5.89273">
        <ele>305.2</ele>
        <time>2024-08-05T09:40:50Z</time>
      </trkpt>
      <trkpt lat="47.13388" lon="5.89274">
        <ele>305.2</ele>
        <time>2024-08-05T09:40:51Z</time>
      </trkpt>
      <trkpt lat="47.13387" lon="5.89274">
        <ele>305.2</ele>
        <time>2024-08-05T09:40:52Z</time>
      </trkpt>
      <trkpt lat="47.13387" lon="5.89273">
        <ele>305.2</ele>
        <time>2024-08-05T09:40:53Z</time>
      </trkpt>
      <trkpt lat="47.13386" lon="5.89272">
        <ele>305.2</ele>
        <time>2024-08-05T09:40:54Z</time>
      </trkpt>
      <trkpt lat="47.13385" lon="5.89271">
        <ele>305.2</ele>
        <time>2024-08-05T09:40:55Z</time>
      </trkpt>
      <trkpt lat="47.13384" lon="5.8927">
        <ele>305.2</ele>
        <time>2024-08-05T09:40:56Z</time>
      </trkpt>
      <trkpt lat="47.13382" lon="5.8927">
        <ele>305.2</ele>
        <time>2024-08-05T09:40:57Z</time>
      </trkpt>
      <trkpt lat="47.1338" lon="5.8927">
        <ele>305.2</ele>
        <time>2024-08-05T09:40:58Z</time>
      </trkpt>
      <trkpt lat="47.13377" lon="5.8927">
        <ele>305.2</ele>
        <time>2024-08-05T09:40:59Z</time>
      </trkpt>
      <trkpt lat="47.13374" lon="5.8927">
        <ele>305.2</ele>
        <time>2024-08-05T09:41:00Z</time>
      </trkpt>
      <trkpt lat="47.13373" lon="5.8927">
        <ele>305.2</ele>
        <time>2024-08-05T09:41:01Z</time>
      </trkpt>
      <trkpt lat="47.13371" lon="5.8927">
        <ele>305.2</ele>
        <time>2024-08-05T09:41:02Z</time>
      </trkpt>
      <trkpt lat="47.13369" lon="5.8927">
        <ele>305.2</ele>
        <time>2024-08-05T09:41:03Z</time>
      </trkpt>
      <trkpt lat="47.13367" lon="5.89269">
        <ele>305.4</ele>
        <time>2024-08-05T09:41:04Z</time>
      </trkpt>
      <trkpt lat="47.13364" lon="5.8927">
        <ele>305.4</ele>
        <time>2024-08-05T09:41:05Z</time>
      </trkpt>
      <trkpt lat="47.13361" lon="5.89271">
        <ele>305.6</ele>
        <time>2024-08-05T09:41:06Z</time>
      </trkpt>
      <trkpt lat="47.13359" lon="5.89271">
        <ele>305.8</ele>
        <time>2024-08-05T09:41:07Z</time>
      </trkpt>
      <trkpt lat="47.13356" lon="5.8927">
        <ele>305.8</ele>
        <time>2024-08-05T09:41:08Z</time>
      </trkpt>
      <trkpt lat="47.13354" lon="5.89269">
        <ele>306</ele>
        <time>2024-08-05T09:41:09Z</time>
      </trkpt>
      <trkpt lat="47.13352" lon="5.89268">
        <ele>306.2</ele>
        <time>2024-08-05T09:41:10Z</time>
      </trkpt>
      <trkpt lat="47.13351" lon="5.89268">
        <ele>306.2</ele>
        <time>2024-08-05T09:41:11Z</time>
      </trkpt>
      <trkpt lat="47.1335" lon="5.89267">
        <ele>306.2</ele>
        <time>2024-08-05T09:41:12Z</time>
      </trkpt>
      <trkpt lat="47.13348" lon="5.89265">
        <ele>306.4</ele>
        <time>2024-08-05T09:41:13Z</time>
      </trkpt>
      <trkpt lat="47.13346" lon="5.89263">
        <ele>306.4</ele>
        <time>2024-08-05T09:41:14Z</time>
      </trkpt>
      <trkpt lat="47.13344" lon="5.89262">
        <ele>306.8</ele>
        <time>2024-08-05T09:41:15Z</time>
      </trkpt>
      <trkpt lat="47.13342" lon="5.89261">
        <ele>306.8</ele>
        <time>2024-08-05T09:41:16Z</time>
      </trkpt>
      <trkpt lat="47.1334" lon="5.8926">
        <ele>307</ele>
        <time>2024-08-05T09:41:17Z</time>
      </trkpt>
      <trkpt lat="47.13338" lon="5.89259">
        <ele>307</ele>
        <time>2024-08-05T09:41:18Z</time>
      </trkpt>
      <trkpt lat="47.13336" lon="5.89258">
        <ele>307.2</ele>
        <time>2024-08-05T09:41:19Z</time>
      </trkpt>
      <trkpt lat="47.13334" lon="5.89256">
        <ele>307.4</ele>
        <time>2024-08-05T09:41:20Z</time>
      </trkpt>
      <trkpt lat="47.13333" lon="5.89255">
        <ele>307.4</ele>
        <time>2024-08-05T09:41:21Z</time>
      </trkpt>
      <trkpt lat="47.13331" lon="5.89255">
        <ele>307.6</ele>
        <time>2024-08-05T09:41:22Z</time>
      </trkpt>
      <trkpt lat="47.1333" lon="5.89254">
        <ele>307.6</ele>
        <time>2024-08-05T09:41:23Z</time>
      </trkpt>
      <trkpt lat="47.13328" lon="5.89253">
        <ele>307.8</ele>
        <time>2024-08-05T09:41:24Z</time>
      </trkpt>
      <trkpt lat="47.13327" lon="5.89252">
        <ele>308</ele>
        <time>2024-08-05T09:41:25Z</time>
      </trkpt>
      <trkpt lat="47.13325" lon="5.8925">
        <ele>308</ele>
        <time>2024-08-05T09:41:26Z</time>
      </trkpt>
      <trkpt lat="47.13324" lon="5.89249">
        <ele>308.2</ele>
        <time>2024-08-05T09:41:27Z</time>
      </trkpt>
      <trkpt lat="47.13322" lon="5.89247">
        <ele>308.2</ele>
        <time>2024-08-05T09:41:28Z</time>
      </trkpt>
      <trkpt lat="47.13321" lon="5.89245">
        <ele>308.2</ele>
        <time>2024-08-05T09:41:29Z</time>
      </trkpt>
      <trkpt lat="47.13319" lon="5.89243">
        <ele>308.2</ele>
        <time>2024-08-05T09:41:30Z</time>
      </trkpt>
      <trkpt lat="47.13318" lon="5.89241">
        <ele>308.4</ele>
        <time>2024-08-05T09:41:31Z</time>
      </trkpt>
      <trkpt lat="47.13316" lon="5.89239">
        <ele>308.2</ele>
        <time>2024-08-05T09:41:32Z</time>
      </trkpt>
      <trkpt lat="47.13314" lon="5.89238">
        <ele>308.2</ele>
        <time>2024-08-05T09:41:33Z</time>
      </trkpt>
      <trkpt lat="47.13312" lon="5.89236">
        <ele>308.4</ele>
        <time>2024-08-05T09:41:34Z</time>
      </trkpt>
      <trkpt lat="47.1331" lon="5.89234">
        <ele>308.4</ele>
        <time>2024-08-05T09:41:35Z</time>
      </trkpt>
      <trkpt lat="47.13309" lon="5.89233">
        <ele>308.6</ele>
        <time>2024-08-05T09:41:36Z</time>
      </trkpt>
      <trkpt lat="47.13308" lon="5.89232">
        <ele>308.8</ele>
        <time>2024-08-05T09:41:37Z</time>
      </trkpt>
      <trkpt lat="47.13307" lon="5.89231">
        <ele>309</ele>
        <time>2024-08-05T09:41:38Z</time>
      </trkpt>
      <trkpt lat="47.13304" lon="5.89231">
        <ele>309.2</ele>
        <time>2024-08-05T09:41:39Z</time>
      </trkpt>
      <trkpt lat="47.13302" lon="5.8923">
        <ele>309.4</ele>
        <time>2024-08-05T09:41:40Z</time>
      </trkpt>
      <trkpt lat="47.13299" lon="5.89231">
        <ele>309.6</ele>
        <time>2024-08-05T09:41:41Z</time>
      </trkpt>
      <trkpt lat="47.13298" lon="5.89232">
        <ele>309.8</ele>
        <time>2024-08-05T09:41:42Z</time>
      </trkpt>
      <trkpt lat="47.13295" lon="5.89234">
        <ele>310</ele>
        <time>2024-08-05T09:41:43Z</time>
      </trkpt>
      <trkpt lat="47.13293" lon="5.89236">
        <ele>310.4</ele>
        <time>2024-08-05T09:41:44Z</time>
      </trkpt>
      <trkpt lat="47.13292" lon="5.89238">
        <ele>310.4</ele>
        <time>2024-08-05T09:41:45Z</time>
      </trkpt>
      <trkpt lat="47.13291" lon="5.8924">
        <ele>310.6</ele>
        <time>2024-08-05T09:41:46Z</time>
      </trkpt>
      <trkpt lat="47.1329" lon="5.89243">
        <ele>310.6</ele>
        <time>2024-08-05T09:41:47Z</time>
      </trkpt>
      <trkpt lat="47.13288" lon="5.89246">
        <ele>310.6</ele>
        <time>2024-08-05T09:41:48Z</time>
      </trkpt>
      <trkpt lat="47.13288" lon="5.89246">
        <ele>310.6</ele>
        <time>2024-08-05T09:41:49Z</time>
      </trkpt>
      <trkpt lat="47.13287" lon="5.89247">
        <ele>311</ele>
        <time>2024-08-05T09:41:50Z</time>
      </trkpt>
      <trkpt lat="47.13286" lon="5.89252">
        <ele>311</ele>
        <time>2024-08-05T09:41:51Z</time>
      </trkpt>
      <trkpt lat="47.13286" lon="5.89254">
        <ele>311</ele>
        <time>2024-08-05T09:41:52Z</time>
      </trkpt>
      <trkpt lat="47.13286" lon="5.89256">
        <ele>311.4</ele>
        <time>2024-08-05T09:41:53Z</time>
      </trkpt>
      <trkpt lat="47.13286" lon="5.89258">
        <ele>311.6</ele>
        <time>2024-08-05T09:41:54Z</time>
      </trkpt>
      <trkpt lat="47.13286" lon="5.89258">
        <ele>312</ele>
        <time>2024-08-05T09:41:55Z</time>
      </trkpt>
      <trkpt lat="47.13286" lon="5.89259">
        <ele>312.4</ele>
        <time>2024-08-05T09:41:56Z</time>
      </trkpt>
      <trkpt lat="47.13286" lon="5.89262">
        <ele>312.6</ele>
        <time>2024-08-05T09:41:57Z</time>
      </trkpt>
      <trkpt lat="47.13286" lon="5.89262">
        <ele>313</ele>
        <time>2024-08-05T09:41:58Z</time>
      </trkpt>
      <trkpt lat="47.13287" lon="5.89266">
        <ele>313.2</ele>
        <time>2024-08-05T09:41:59Z</time>
      </trkpt>
      <trkpt lat="47.13287" lon="5.89266">
        <ele>313.4</ele>
        <time>2024-08-05T09:42:00Z</time>
      </trkpt>
      <trkpt lat="47.13287" lon="5.8927">
        <ele>313.8</ele>
        <time>2024-08-05T09:42:01Z</time>
      </trkpt>
      <trkpt lat="47.13287" lon="5.8927">
        <ele>313.8</ele>
        <time>2024-08-05T09:42:02Z</time>
      </trkpt>
      <trkpt lat="47.13286" lon="5.89274">
        <ele>314.4</ele>
        <time>2024-08-05T09:42:03Z</time>
      </trkpt>
      <trkpt lat="47.13286" lon="5.89274">
        <ele>314.8</ele>
        <time>2024-08-05T09:42:04Z</time>
      </trkpt>
      <trkpt lat="47.13288" lon="5.89277">
        <ele>315.2</ele>
        <time>2024-08-05T09:42:05Z</time>
      </trkpt>
      <trkpt lat="47.13288" lon="5.89278">
        <ele>315.4</ele>
        <time>2024-08-05T09:42:06Z</time>
      </trkpt>
      <trkpt lat="47.13289" lon="5.89279">
        <ele>315.8</ele>
        <time>2024-08-05T09:42:07Z</time>
      </trkpt>
      <trkpt lat="47.1329" lon="5.8928">
        <ele>315.8</ele>
        <time>2024-08-05T09:42:08Z</time>
      </trkpt>
      <trkpt lat="47.1329" lon="5.89281">
        <ele>316.2</ele>
        <time>2024-08-05T09:42:09Z</time>
      </trkpt>
      <trkpt lat="47.1329" lon="5.89281">
        <ele>316.4</ele>
        <time>2024-08-05T09:42:10Z</time>
      </trkpt>
      <trkpt lat="47.13291" lon="5.89282">
        <ele>316.8</ele>
        <time>2024-08-05T09:42:11Z</time>
      </trkpt>
      <trkpt lat="47.13291" lon="5.89282">
        <ele>317</ele>
        <time>2024-08-05T09:42:12Z</time>
      </trkpt>
      <trkpt lat="47.13291" lon="5.89282">
        <ele>317.4</ele>
        <time>2024-08-05T09:42:13Z</time>
      </trkpt>
      <trkpt lat="47.13292" lon="5.89284">
        <ele>317.4</ele>
        <time>2024-08-05T09:42:14Z</time>
      </trkpt>
      <trkpt lat="47.13293" lon="5.89285">
        <ele>317.6</ele>
        <time>2024-08-05T09:42:15Z</time>
      </trkpt>
      <trkpt lat="47.13294" lon="5.89286">
        <ele>317.8</ele>
        <time>2024-08-05T09:42:16Z</time>
      </trkpt>
      <trkpt lat="47.13295" lon="5.89288">
        <ele>318.2</ele>
        <time>2024-08-05T09:42:17Z</time>
      </trkpt>
      <trkpt lat="47.13296" lon="5.89288">
        <ele>318.2</ele>
        <time>2024-08-05T09:42:18Z</time>
      </trkpt>
      <trkpt lat="47.13297" lon="5.89289">
        <ele>318.6</ele>
        <time>2024-08-05T09:42:19Z</time>
      </trkpt>
      <trkpt lat="47.13297" lon="5.89289">
        <ele>319</ele>
        <time>2024-08-05T09:42:20Z</time>
      </trkpt>
      <trkpt lat="47.13298" lon="5.8929">
        <ele>319</ele>
        <time>2024-08-05T09:42:21Z</time>
      </trkpt>
      <trkpt lat="47.13299" lon="5.8929">
        <ele>319.4</ele>
        <time>2024-08-05T09:42:22Z</time>
      </trkpt>
      <trkpt lat="47.133" lon="5.89291">
        <ele>319.6</ele>
        <time>2024-08-05T09:42:23Z</time>
      </trkpt>
      <trkpt lat="47.13301" lon="5.89292">
        <ele>319.8</ele>
        <time>2024-08-05T09:42:24Z</time>
      </trkpt>
      <trkpt lat="47.13301" lon="5.89292">
        <ele>320</ele>
        <time>2024-08-05T09:42:25Z</time>
      </trkpt>
      <trkpt lat="47.13302" lon="5.89292">
        <ele>320.2</ele>
        <time>2024-08-05T09:42:26Z</time>
      </trkpt>
      <trkpt lat="47.13303" lon="5.89292">
        <ele>320.6</ele>
        <time>2024-08-05T09:42:27Z</time>
      </trkpt>
      <trkpt lat="47.13304" lon="5.89293">
        <ele>320.8</ele>
        <time>2024-08-05T09:42:28Z</time>
      </trkpt>
      <trkpt lat="47.13304" lon="5.89293">
        <ele>321</ele>
        <time>2024-08-05T09:42:29Z</time>
      </trkpt>
      <trkpt lat="47.13305" lon="5.89294">
        <ele>321.4</ele>
        <time>2024-08-05T09:42:30Z</time>
      </trkpt>
      <trkpt lat="47.13306" lon="5.89295">
        <ele>321.4</ele>
        <time>2024-08-05T09:42:31Z</time>
      </trkpt>
      <trkpt lat="47.13307" lon="5.89296">
        <ele>321.6</ele>
        <time>2024-08-05T09:42:32Z</time>
      </trkpt>
      <trkpt lat="47.13307" lon="5.89296">
        <ele>322</ele>
        <time>2024-08-05T09:42:33Z</time>
      </trkpt>
      <trkpt lat="47.13308" lon="5.89297">
        <ele>322.2</ele>
        <time>2024-08-05T09:42:34Z</time>
      </trkpt>
      <trkpt lat="47.13309" lon="5.89298">
        <ele>322.6</ele>
        <time>2024-08-05T09:42:35Z</time>
      </trkpt>
      <trkpt lat="47.13309" lon="5.89298">
        <ele>322.6</ele>
        <time>2024-08-05T09:42:36Z</time>
      </trkpt>
      <trkpt lat="47.13311" lon="5.89298">
        <ele>322.8</ele>
        <time>2024-08-05T09:42:37Z</time>
      </trkpt>
      <trkpt lat="47.13314" lon="5.89299">
        <ele>323.2</ele>
        <time>2024-08-05T09:42:38Z</time>
      </trkpt>
      <trkpt lat="47.13316" lon="5.893">
        <ele>323.2</ele>
        <time>2024-08-05T09:42:39Z</time>
      </trkpt>
      <trkpt lat="47.13316" lon="5.893">
        <ele>323.6</ele>
        <time>2024-08-05T09:42:40Z</time>
      </trkpt>
      <trkpt lat="47.13318" lon="5.89301">
        <ele>323.8</ele>
        <time>2024-08-05T09:42:41Z</time>
      </trkpt>
      <trkpt lat="47.13319" lon="5.89302">
        <ele>324</ele>
        <time>2024-08-05T09:42:42Z</time>
      </trkpt>
      <trkpt lat="47.13321" lon="5.89303">
        <ele>324.2</ele>
        <time>2024-08-05T09:42:43Z</time>
      </trkpt>
      <trkpt lat="47.13322" lon="5.89304">
        <ele>324.2</ele>
        <time>2024-08-05T09:42:44Z</time>
      </trkpt>
      <trkpt lat="47.13323" lon="5.89305">
        <ele>324.6</ele>
        <time>2024-08-05T09:42:45Z</time>
      </trkpt>
      <trkpt lat="47.13323" lon="5.89305">
        <ele>324.8</ele>
        <time>2024-08-05T09:42:46Z</time>
      </trkpt>
      <trkpt lat="47.13326" lon="5.89307">
        <ele>325</ele>
        <time>2024-08-05T09:42:47Z</time>
      </trkpt>
      <trkpt lat="47.13326" lon="5.89307">
        <ele>325</ele>
        <time>2024-08-05T09:42:48Z</time>
      </trkpt>
      <trkpt lat="47.13327" lon="5.89309">
        <ele>325.4</ele>
        <time>2024-08-05T09:42:49Z</time>
      </trkpt>
      <trkpt lat="47.13328" lon="5.89313">
        <ele>325.6</ele>
        <time>2024-08-05T09:42:50Z</time>
      </trkpt>
      <trkpt lat="47.13329" lon="5.89315">
        <ele>325.6</ele>
        <time>2024-08-05T09:42:51Z</time>
      </trkpt>
      <trkpt lat="47.13329" lon="5.89315">
        <ele>325.8</ele>
        <time>2024-08-05T09:42:52Z</time>
      </trkpt>
      <trkpt lat="47.1333" lon="5.89316">
        <ele>326.2</ele>
        <time>2024-08-05T09:42:53Z</time>
      </trkpt>
      <trkpt lat="47.13331" lon="5.89319">
        <ele>326.4</ele>
        <time>2024-08-05T09:42:54Z</time>
      </trkpt>
      <trkpt lat="47.13331" lon="5.89319">
        <ele>326.6</ele>
        <time>2024-08-05T09:42:55Z</time>
      </trkpt>
      <trkpt lat="47.13332" lon="5.89323">
        <ele>326.8</ele>
        <time>2024-08-05T09:42:56Z</time>
      </trkpt>
      <trkpt lat="47.13332" lon="5.89323">
        <ele>326.8</ele>
        <time>2024-08-05T09:42:57Z</time>
      </trkpt>
      <trkpt lat="47.13333" lon="5.89327">
        <ele>327</ele>
        <time>2024-08-05T09:42:58Z</time>
      </trkpt>
      <trkpt lat="47.13333" lon="5.89327">
        <ele>327.4</ele>
        <time>2024-08-05T09:42:59Z</time>
      </trkpt>
      <trkpt lat="47.13334" lon="5.8933">
        <ele>327.6</ele>
        <time>2024-08-05T09:43:00Z</time>
      </trkpt>
      <trkpt lat="47.13335" lon="5.89332">
        <ele>327.8</ele>
        <time>2024-08-05T09:43:01Z</time>
      </trkpt>
      <trkpt lat="47.13335" lon="5.89333">
        <ele>328.2</ele>
        <time>2024-08-05T09:43:02Z</time>
      </trkpt>
      <trkpt lat="47.13336" lon="5.89334">
        <ele>328.6</ele>
        <time>2024-08-05T09:43:03Z</time>
      </trkpt>
      <trkpt lat="47.13336" lon="5.89334">
        <ele>328.8</ele>
        <time>2024-08-05T09:43:04Z</time>
      </trkpt>
      <trkpt lat="47.13337" lon="5.89336">
        <ele>329.2</ele>
        <time>2024-08-05T09:43:05Z</time>
      </trkpt>
      <trkpt lat="47.13339" lon="5.8934">
        <ele>329.2</ele>
        <time>2024-08-05T09:43:06Z</time>
      </trkpt>
      <trkpt lat="47.13339" lon="5.8934">
        <ele>329.6</ele>
        <time>2024-08-05T09:43:07Z</time>
      </trkpt>
      <trkpt lat="47.13342" lon="5.89343">
        <ele>329.8</ele>
        <time>2024-08-05T09:43:08Z</time>
      </trkpt>
      <trkpt lat="47.13343" lon="5.89344">
        <ele>330</ele>
        <time>2024-08-05T09:43:09Z</time>
      </trkpt>
      <trkpt lat="47.13343" lon="5.89344">
        <ele>330.2</ele>
        <time>2024-08-05T09:43:10Z</time>
      </trkpt>
      <trkpt lat="47.13345" lon="5.89348">
        <ele>330.4</ele>
        <time>2024-08-05T09:43:11Z</time>
      </trkpt>
      <trkpt lat="47.13346" lon="5.8935">
        <ele>330.6</ele>
        <time>2024-08-05T09:43:12Z</time>
      </trkpt>
      <trkpt lat="47.13346" lon="5.8935">
        <ele>330.8</ele>
        <time>2024-08-05T09:43:13Z</time>
      </trkpt>
      <trkpt lat="47.13348" lon="5.89353">
        <ele>331.2</ele>
        <time>2024-08-05T09:43:14Z</time>
      </trkpt>
      <trkpt lat="47.13348" lon="5.89353">
        <ele>331.4</ele>
        <time>2024-08-05T09:43:15Z</time>
      </trkpt>
      <trkpt lat="47.1335" lon="5.89357">
        <ele>331.6</ele>
        <time>2024-08-05T09:43:16Z</time>
      </trkpt>
      <trkpt lat="47.1335" lon="5.89357">
        <ele>331.6</ele>
        <time>2024-08-05T09:43:17Z</time>
      </trkpt>
      <trkpt lat="47.13352" lon="5.8936">
        <ele>331.8</ele>
        <time>2024-08-05T09:43:18Z</time>
      </trkpt>
      <trkpt lat="47.13354" lon="5.89361">
        <ele>331.8</ele>
        <time>2024-08-05T09:43:19Z</time>
      </trkpt>
      <trkpt lat="47.13354" lon="5.89361">
        <ele>332</ele>
        <time>2024-08-05T09:43:20Z</time>
      </trkpt>
      <trkpt lat="47.13356" lon="5.89364">
        <ele>332.2</ele>
        <time>2024-08-05T09:43:21Z</time>
      </trkpt>
      <trkpt lat="47.13357" lon="5.89366">
        <ele>332.2</ele>
        <time>2024-08-05T09:43:22Z</time>
      </trkpt>
      <trkpt lat="47.13359" lon="5.89367">
        <ele>332.4</ele>
        <time>2024-08-05T09:43:23Z</time>
      </trkpt>
      <trkpt lat="47.1336" lon="5.89369">
        <ele>332.4</ele>
        <time>2024-08-05T09:43:24Z</time>
      </trkpt>
      <trkpt lat="47.13361" lon="5.8937">
        <ele>332.4</ele>
        <time>2024-08-05T09:43:25Z</time>
      </trkpt>
      <trkpt lat="47.13362" lon="5.89371">
        <ele>332.6</ele>
        <time>2024-08-05T09:43:26Z</time>
      </trkpt>
      <trkpt lat="47.13363" lon="5.89373">
        <ele>332.6</ele>
        <time>2024-08-05T09:43:27Z</time>
      </trkpt>
      <trkpt lat="47.13364" lon="5.89374">
        <ele>332.6</ele>
        <time>2024-08-05T09:43:28Z</time>
      </trkpt>
      <trkpt lat="47.13365" lon="5.89376">
        <ele>332.6</ele>
        <time>2024-08-05T09:43:29Z</time>
      </trkpt>
      <trkpt lat="47.13367" lon="5.89377">
        <ele>332.8</ele>
        <time>2024-08-05T09:43:30Z</time>
      </trkpt>
      <trkpt lat="47.13368" lon="5.89378">
        <ele>332.8</ele>
        <time>2024-08-05T09:43:31Z</time>
      </trkpt>
      <trkpt lat="47.13368" lon="5.89379">
        <ele>332.8</ele>
        <time>2024-08-05T09:43:32Z</time>
      </trkpt>
      <trkpt lat="47.13369" lon="5.8938">
        <ele>332.8</ele>
        <time>2024-08-05T09:43:33Z</time>
      </trkpt>
      <trkpt lat="47.13369" lon="5.8938">
        <ele>333.2</ele>
        <time>2024-08-05T09:43:34Z</time>
      </trkpt>
      <trkpt lat="47.13371" lon="5.89383">
        <ele>333.4</ele>
        <time>2024-08-05T09:43:35Z</time>
      </trkpt>
      <trkpt lat="47.13372" lon="5.89385">
        <ele>333.6</ele>
        <time>2024-08-05T09:43:36Z</time>
      </trkpt>
      <trkpt lat="47.13373" lon="5.89386">
        <ele>333.4</ele>
        <time>2024-08-05T09:43:37Z</time>
      </trkpt>
      <trkpt lat="47.13374" lon="5.89387">
        <ele>333.8</ele>
        <time>2024-08-05T09:43:38Z</time>
      </trkpt>
      <trkpt lat="47.13376" lon="5.89388">
        <ele>333.6</ele>
        <time>2024-08-05T09:43:39Z</time>
      </trkpt>
      <trkpt lat="47.13377" lon="5.89389">
        <ele>333.8</ele>
        <time>2024-08-05T09:43:40Z</time>
      </trkpt>
      <trkpt lat="47.13378" lon="5.8939">
        <ele>333.8</ele>
        <time>2024-08-05T09:43:41Z</time>
      </trkpt>
      <trkpt lat="47.1338" lon="5.8939">
        <ele>333.8</ele>
        <time>2024-08-05T09:43:42Z</time>
      </trkpt>
      <trkpt lat="47.1338" lon="5.8939">
        <ele>334</ele>
        <time>2024-08-05T09:43:43Z</time>
      </trkpt>
      <trkpt lat="47.13382" lon="5.89393">
        <ele>334.2</ele>
        <time>2024-08-05T09:43:44Z</time>
      </trkpt>
      <trkpt lat="47.13383" lon="5.89394">
        <ele>334.2</ele>
        <time>2024-08-05T09:43:45Z</time>
      </trkpt>
      <trkpt lat="47.13384" lon="5.89395">
        <ele>334.4</ele>
        <time>2024-08-05T09:43:46Z</time>
      </trkpt>
      <trkpt lat="47.13384" lon="5.89396">
        <ele>334.8</ele>
        <time>2024-08-05T09:43:47Z</time>
      </trkpt>
      <trkpt lat="47.13385" lon="5.89397">
        <ele>334.8</ele>
        <time>2024-08-05T09:43:48Z</time>
      </trkpt>
      <trkpt lat="47.13385" lon="5.89397">
        <ele>335</ele>
        <time>2024-08-05T09:43:49Z</time>
      </trkpt>
      <trkpt lat="47.13386" lon="5.89397">
        <ele>335.2</ele>
        <time>2024-08-05T09:43:50Z</time>
      </trkpt>
      <trkpt lat="47.13387" lon="5.89397">
        <ele>335.4</ele>
        <time>2024-08-05T09:43:51Z</time>
      </trkpt>
      <trkpt lat="47.13388" lon="5.89398">
        <ele>335.8</ele>
        <time>2024-08-05T09:43:52Z</time>
      </trkpt>
      <trkpt lat="47.13388" lon="5.89398">
        <ele>336</ele>
        <time>2024-08-05T09:43:53Z</time>
      </trkpt>
      <trkpt lat="47.13389" lon="5.89399">
        <ele>336</ele>
        <time>2024-08-05T09:43:54Z</time>
      </trkpt>
      <trkpt lat="47.1339" lon="5.894">
        <ele>336.2</ele>
        <time>2024-08-05T09:43:55Z</time>
      </trkpt>
      <trkpt lat="47.1339" lon="5.894">
        <ele>336.4</ele>
        <time>2024-08-05T09:43:56Z</time>
      </trkpt>
      <trkpt lat="47.1339" lon="5.89401">
        <ele>336.4</ele>
        <time>2024-08-05T09:43:57Z</time>
      </trkpt>
      <trkpt lat="47.13392" lon="5.89403">
        <ele>336.6</ele>
        <time>2024-08-05T09:43:58Z</time>
      </trkpt>
      <trkpt lat="47.13393" lon="5.89403">
        <ele>336.8</ele>
        <time>2024-08-05T09:43:59Z</time>
      </trkpt>
      <trkpt lat="47.13395" lon="5.89404">
        <ele>337</ele>
        <time>2024-08-05T09:44:00Z</time>
      </trkpt>
      <trkpt lat="47.13395" lon="5.89404">
        <ele>337.2</ele>
        <time>2024-08-05T09:44:01Z</time>
      </trkpt>
      <trkpt lat="47.13398" lon="5.89407">
        <ele>337.6</ele>
        <time>2024-08-05T09:44:02Z</time>
      </trkpt>
      <trkpt lat="47.13401" lon="5.89411">
        <ele>337.6</ele>
        <time>2024-08-05T09:44:03Z</time>
      </trkpt>
      <trkpt lat="47.13404" lon="5.89413">
        <ele>337.8</ele>
        <time>2024-08-05T09:44:04Z</time>
      </trkpt>
      <trkpt lat="47.13406" lon="5.89415">
        <ele>337.8</ele>
        <time>2024-08-05T09:44:05Z</time>
      </trkpt>
      <trkpt lat="47.13408" lon="5.89417">
        <ele>338</ele>
        <time>2024-08-05T09:44:06Z</time>
      </trkpt>
      <trkpt lat="47.13411" lon="5.8942">
        <ele>338.4</ele>
        <time>2024-08-05T09:44:07Z</time>
      </trkpt>
      <trkpt lat="47.13413" lon="5.89423">
        <ele>338.4</ele>
        <time>2024-08-05T09:44:08Z</time>
      </trkpt>
      <trkpt lat="47.13414" lon="5.89424">
        <ele>338.6</ele>
        <time>2024-08-05T09:44:09Z</time>
      </trkpt>
      <trkpt lat="47.13415" lon="5.89426">
        <ele>338.8</ele>
        <time>2024-08-05T09:44:10Z</time>
      </trkpt>
      <trkpt lat="47.13418" lon="5.89428">
        <ele>339</ele>
        <time>2024-08-05T09:44:11Z</time>
      </trkpt>
      <trkpt lat="47.1342" lon="5.89431">
        <ele>339.4</ele>
        <time>2024-08-05T09:44:12Z</time>
      </trkpt>
      <trkpt lat="47.1342" lon="5.89431">
        <ele>339.6</ele>
        <time>2024-08-05T09:44:13Z</time>
      </trkpt>
      <trkpt lat="47.1342" lon="5.89431">
        <ele>339.8</ele>
        <time>2024-08-05T09:44:14Z</time>
      </trkpt>
      <trkpt lat="47.13422" lon="5.89434">
        <ele>340</ele>
        <time>2024-08-05T09:44:15Z</time>
      </trkpt>
      <trkpt lat="47.13423" lon="5.89435">
        <ele>340.2</ele>
        <time>2024-08-05T09:44:16Z</time>
      </trkpt>
      <trkpt lat="47.13425" lon="5.89437">
        <ele>340.4</ele>
        <time>2024-08-05T09:44:17Z</time>
      </trkpt>
      <trkpt lat="47.13426" lon="5.89438">
        <ele>340.8</ele>
        <time>2024-08-05T09:44:18Z</time>
      </trkpt>
      <trkpt lat="47.13428" lon="5.89441">
        <ele>341</ele>
        <time>2024-08-05T09:44:19Z</time>
      </trkpt>
      <trkpt lat="47.13429" lon="5.89442">
        <ele>341.2</ele>
        <time>2024-08-05T09:44:20Z</time>
      </trkpt>
      <trkpt lat="47.13429" lon="5.89442">
        <ele>341.6</ele>
        <time>2024-08-05T09:44:21Z</time>
      </trkpt>
      <trkpt lat="47.13433" lon="5.89447">
        <ele>341.8</ele>
        <time>2024-08-05T09:44:22Z</time>
      </trkpt>
      <trkpt lat="47.13436" lon="5.89449">
        <ele>342</ele>
        <time>2024-08-05T09:44:23Z</time>
      </trkpt>
      <trkpt lat="47.13436" lon="5.89449">
        <ele>342.2</ele>
        <time>2024-08-05T09:44:24Z</time>
      </trkpt>
      <trkpt lat="47.13438" lon="5.8945">
        <ele>342.2</ele>
        <time>2024-08-05T09:44:25Z</time>
      </trkpt>
      <trkpt lat="47.1344" lon="5.89452">
        <ele>342.4</ele>
        <time>2024-08-05T09:44:26Z</time>
      </trkpt>
      <trkpt lat="47.1344" lon="5.89452">
        <ele>342.6</ele>
        <time>2024-08-05T09:44:27Z</time>
      </trkpt>
      <trkpt lat="47.13442" lon="5.89453">
        <ele>343</ele>
        <time>2024-08-05T09:44:28Z</time>
      </trkpt>
      <trkpt lat="47.13442" lon="5.89453">
        <ele>343</ele>
        <time>2024-08-05T09:44:29Z</time>
      </trkpt>
      <trkpt lat="47.13445" lon="5.89455">
        <ele>343.2</ele>
        <time>2024-08-05T09:44:30Z</time>
      </trkpt>
      <trkpt lat="47.13446" lon="5.89456">
        <ele>343.4</ele>
        <time>2024-08-05T09:44:31Z</time>
      </trkpt>
      <trkpt lat="47.13446" lon="5.89455">
        <ele>343.6</ele>
        <time>2024-08-05T09:44:32Z</time>
      </trkpt>
      <trkpt lat="47.13447" lon="5.89456">
        <ele>343.8</ele>
        <time>2024-08-05T09:44:33Z</time>
      </trkpt>
      <trkpt lat="47.13448" lon="5.89457">
        <ele>344</ele>
        <time>2024-08-05T09:44:34Z</time>
      </trkpt>
      <trkpt lat="47.13449" lon="5.89458">
        <ele>344.2</ele>
        <time>2024-08-05T09:44:35Z</time>
      </trkpt>
      <trkpt lat="47.1345" lon="5.89459">
        <ele>344.4</ele>
        <time>2024-08-05T09:44:36Z</time>
      </trkpt>
      <trkpt lat="47.1345" lon="5.8946">
        <ele>344.8</ele>
        <time>2024-08-05T09:44:37Z</time>
      </trkpt>
      <trkpt lat="47.13451" lon="5.8946">
        <ele>345</ele>
        <time>2024-08-05T09:44:38Z</time>
      </trkpt>
      <trkpt lat="47.13451" lon="5.8946">
        <ele>345.4</ele>
        <time>2024-08-05T09:44:39Z</time>
      </trkpt>
      <trkpt lat="47.13452" lon="5.8946">
        <ele>345.6</ele>
        <time>2024-08-05T09:44:40Z</time>
      </trkpt>
      <trkpt lat="47.13454" lon="5.8946">
        <ele>345.8</ele>
        <time>2024-08-05T09:44:41Z</time>
      </trkpt>
      <trkpt lat="47.13455" lon="5.8946">
        <ele>346</ele>
        <time>2024-08-05T09:44:42Z</time>
      </trkpt>
      <trkpt lat="47.13456" lon="5.89461">
        <ele>346.2</ele>
        <time>2024-08-05T09:44:43Z</time>
      </trkpt>
      <trkpt lat="47.13457" lon="5.89462">
        <ele>346.4</ele>
        <time>2024-08-05T09:44:44Z</time>
      </trkpt>
      <trkpt lat="47.13458" lon="5.89462">
        <ele>346.8</ele>
        <time>2024-08-05T09:44:45Z</time>
      </trkpt>
      <trkpt lat="47.13459" lon="5.89463">
        <ele>346.8</ele>
        <time>2024-08-05T09:44:46Z</time>
      </trkpt>
      <trkpt lat="47.13459" lon="5.89463">
        <ele>346.8</ele>
        <time>2024-08-05T09:44:47Z</time>
      </trkpt>
      <trkpt lat="47.13462" lon="5.89465">
        <ele>347.2</ele>
        <time>2024-08-05T09:44:48Z</time>
      </trkpt>
      <trkpt lat="47.13463" lon="5.89466">
        <ele>347.4</ele>
        <time>2024-08-05T09:44:49Z</time>
      </trkpt>
      <trkpt lat="47.13465" lon="5.89467">
        <ele>347.4</ele>
        <time>2024-08-05T09:44:50Z</time>
      </trkpt>
      <trkpt lat="47.13468" lon="5.89469">
        <ele>347.8</ele>
        <time>2024-08-05T09:44:51Z</time>
      </trkpt>
      <trkpt lat="47.13469" lon="5.89471">
        <ele>347.8</ele>
        <time>2024-08-05T09:44:52Z</time>
      </trkpt>
      <trkpt lat="47.13469" lon="5.89471">
        <ele>348.2</ele>
        <time>2024-08-05T09:44:53Z</time>
      </trkpt>
      <trkpt lat="47.13472" lon="5.89475">
        <ele>348.2</ele>
        <time>2024-08-05T09:44:54Z</time>
      </trkpt>
      <trkpt lat="47.13473" lon="5.89477">
        <ele>348.4</ele>
        <time>2024-08-05T09:44:55Z</time>
      </trkpt>
      <trkpt lat="47.13474" lon="5.89478">
        <ele>348.8</ele>
        <time>2024-08-05T09:44:56Z</time>
      </trkpt>
      <trkpt lat="47.13475" lon="5.89479">
        <ele>349</ele>
        <time>2024-08-05T09:44:57Z</time>
      </trkpt>
      <trkpt lat="47.13476" lon="5.8948">
        <ele>349.2</ele>
        <time>2024-08-05T09:44:58Z</time>
      </trkpt>
      <trkpt lat="47.13477" lon="5.89481">
        <ele>349.4</ele>
        <time>2024-08-05T09:44:59Z</time>
      </trkpt>
      <trkpt lat="47.13478" lon="5.89482">
        <ele>349.8</ele>
        <time>2024-08-05T09:45:00Z</time>
      </trkpt>
      <trkpt lat="47.13479" lon="5.89483">
        <ele>350</ele>
        <time>2024-08-05T09:45:01Z</time>
      </trkpt>
      <trkpt lat="47.13479" lon="5.89483">
        <ele>350.4</ele>
        <time>2024-08-05T09:45:02Z</time>
      </trkpt>
      <trkpt lat="47.1348" lon="5.89483">
        <ele>350.8</ele>
        <time>2024-08-05T09:45:03Z</time>
      </trkpt>
      <trkpt lat="47.13481" lon="5.89483">
        <ele>351</ele>
        <time>2024-08-05T09:45:04Z</time>
      </trkpt>
      <trkpt lat="47.13481" lon="5.89483">
        <ele>351.4</ele>
        <time>2024-08-05T09:45:05Z</time>
      </trkpt>
      <trkpt lat="47.13482" lon="5.89484">
        <ele>351.6</ele>
        <time>2024-08-05T09:45:06Z</time>
      </trkpt>
      <trkpt lat="47.13482" lon="5.89484">
        <ele>351.8</ele>
        <time>2024-08-05T09:45:07Z</time>
      </trkpt>
      <trkpt lat="47.13482" lon="5.89484">
        <ele>351.8</ele>
        <time>2024-08-05T09:45:08Z</time>
      </trkpt>
      <trkpt lat="47.13483" lon="5.89484">
        <ele>351.8</ele>
        <time>2024-08-05T09:45:09Z</time>
      </trkpt>
      <trkpt lat="47.13483" lon="5.89485">
        <ele>352</ele>
        <time>2024-08-05T09:45:10Z</time>
      </trkpt>
      <trkpt lat="47.13485" lon="5.89486">
        <ele>352.4</ele>
        <time>2024-08-05T09:45:11Z</time>
      </trkpt>
      <trkpt lat="47.13485" lon="5.89486">
        <ele>352.6</ele>
        <time>2024-08-05T09:45:12Z</time>
      </trkpt>
      <trkpt lat="47.13486" lon="5.89487">
        <ele>353</ele>
        <time>2024-08-05T09:45:13Z</time>
      </trkpt>
      <trkpt lat="47.13486" lon="5.89487">
        <ele>353</ele>
        <time>2024-08-05T09:45:14Z</time>
      </trkpt>
      <trkpt lat="47.13489" lon="5.89489">
        <ele>353.4</ele>
        <time>2024-08-05T09:45:15Z</time>
      </trkpt>
      <trkpt lat="47.13491" lon="5.8949">
        <ele>353.4</ele>
        <time>2024-08-05T09:45:16Z</time>
      </trkpt>
      <trkpt lat="47.13492" lon="5.89491">
        <ele>353.6</ele>
        <time>2024-08-05T09:45:17Z</time>
      </trkpt>
      <trkpt lat="47.13493" lon="5.89492">
        <ele>354</ele>
        <time>2024-08-05T09:45:18Z</time>
      </trkpt>
      <trkpt lat="47.13495" lon="5.89494">
        <ele>354.2</ele>
        <time>2024-08-05T09:45:19Z</time>
      </trkpt>
      <trkpt lat="47.13495" lon="5.89494">
        <ele>354.4</ele>
        <time>2024-08-05T09:45:20Z</time>
      </trkpt>
      <trkpt lat="47.13496" lon="5.89495">
        <ele>354.6</ele>
        <time>2024-08-05T09:45:21Z</time>
      </trkpt>
      <trkpt lat="47.135" lon="5.89499">
        <ele>354.8</ele>
        <time>2024-08-05T09:45:22Z</time>
      </trkpt>
      <trkpt lat="47.13501" lon="5.895">
        <ele>355</ele>
        <time>2024-08-05T09:45:23Z</time>
      </trkpt>
      <trkpt lat="47.13501" lon="5.895">
        <ele>355</ele>
        <time>2024-08-05T09:45:24Z</time>
      </trkpt>
      <trkpt lat="47.13502" lon="5.89502">
        <ele>355.4</ele>
        <time>2024-08-05T09:45:25Z</time>
      </trkpt>
      <trkpt lat="47.13504" lon="5.89504">
        <ele>355.4</ele>
        <time>2024-08-05T09:45:26Z</time>
      </trkpt>
      <trkpt lat="47.13504" lon="5.89504">
        <ele>355.6</ele>
        <time>2024-08-05T09:45:27Z</time>
      </trkpt>
      <trkpt lat="47.13505" lon="5.89506">
        <ele>356</ele>
        <time>2024-08-05T09:45:28Z</time>
      </trkpt>
      <trkpt lat="47.13506" lon="5.89508">
        <ele>356.2</ele>
        <time>2024-08-05T09:45:29Z</time>
      </trkpt>
      <trkpt lat="47.13507" lon="5.89509">
        <ele>356.2</ele>
        <time>2024-08-05T09:45:30Z</time>
      </trkpt>
      <trkpt lat="47.13508" lon="5.89511">
        <ele>356.6</ele>
        <time>2024-08-05T09:45:31Z</time>
      </trkpt>
      <trkpt lat="47.13509" lon="5.89512">
        <ele>356.8</ele>
        <time>2024-08-05T09:45:32Z</time>
      </trkpt>
      <trkpt lat="47.1351" lon="5.89513">
        <ele>357</ele>
        <time>2024-08-05T09:45:33Z</time>
      </trkpt>
      <trkpt lat="47.13511" lon="5.89515">
        <ele>357</ele>
        <time>2024-08-05T09:45:34Z</time>
      </trkpt>
      <trkpt lat="47.13512" lon="5.89516">
        <ele>357.2</ele>
        <time>2024-08-05T09:45:35Z</time>
      </trkpt>
      <trkpt lat="47.13513" lon="5.89517">
        <ele>357.6</ele>
        <time>2024-08-05T09:45:36Z</time>
      </trkpt>
      <trkpt lat="47.13513" lon="5.89518">
        <ele>357.6</ele>
        <time>2024-08-05T09:45:37Z</time>
      </trkpt>
      <trkpt lat="47.13514" lon="5.8952">
        <ele>357.8</ele>
        <time>2024-08-05T09:45:38Z</time>
      </trkpt>
      <trkpt lat="47.13515" lon="5.89521">
        <ele>358</ele>
        <time>2024-08-05T09:45:39Z</time>
      </trkpt>
      <trkpt lat="47.13516" lon="5.89522">
        <ele>358.2</ele>
        <time>2024-08-05T09:45:40Z</time>
      </trkpt>
      <trkpt lat="47.13517" lon="5.89523">
        <ele>358.4</ele>
        <time>2024-08-05T09:45:41Z</time>
      </trkpt>
      <trkpt lat="47.13518" lon="5.89524">
        <ele>358.6</ele>
        <time>2024-08-05T09:45:42Z</time>
      </trkpt>
      <trkpt lat="47.13518" lon="5.89525">
        <ele>358.8</ele>
        <time>2024-08-05T09:45:43Z</time>
      </trkpt>
      <trkpt lat="47.13521" lon="5.89528">
        <ele>359</ele>
        <time>2024-08-05T09:45:44Z</time>
      </trkpt>
      <trkpt lat="47.13523" lon="5.89531">
        <ele>359.2</ele>
        <time>2024-08-05T09:45:45Z</time>
      </trkpt>
      <trkpt lat="47.13525" lon="5.89534">
        <ele>359.4</ele>
        <time>2024-08-05T09:45:46Z</time>
      </trkpt>
      <trkpt lat="47.13526" lon="5.89536">
        <ele>359.6</ele>
        <time>2024-08-05T09:45:47Z</time>
      </trkpt>
      <trkpt lat="47.13528" lon="5.89537">
        <ele>359.8</ele>
        <time>2024-08-05T09:45:48Z</time>
      </trkpt>
      <trkpt lat="47.13529" lon="5.89538">
        <ele>360</ele>
        <time>2024-08-05T09:45:49Z</time>
      </trkpt>
      <trkpt lat="47.1353" lon="5.89539">
        <ele>360</ele>
        <time>2024-08-05T09:45:50Z</time>
      </trkpt>
      <trkpt lat="47.13531" lon="5.89541">
        <ele>360.4</ele>
        <time>2024-08-05T09:45:51Z</time>
      </trkpt>
      <trkpt lat="47.13531" lon="5.89541">
        <ele>360.4</ele>
        <time>2024-08-05T09:45:52Z</time>
      </trkpt>
      <trkpt lat="47.13532" lon="5.89543">
        <ele>360.4</ele>
        <time>2024-08-05T09:45:53Z</time>
      </trkpt>
      <trkpt lat="47.13534" lon="5.89545">
        <ele>360.6</ele>
        <time>2024-08-05T09:45:54Z</time>
      </trkpt>
      <trkpt lat="47.13534" lon="5.89545">
        <ele>360.8</ele>
        <time>2024-08-05T09:45:55Z</time>
      </trkpt>
      <trkpt lat="47.13537" lon="5.89547">
        <ele>361</ele>
        <time>2024-08-05T09:45:56Z</time>
      </trkpt>
      <trkpt lat="47.13539" lon="5.89548">
        <ele>361.4</ele>
        <time>2024-08-05T09:45:57Z</time>
      </trkpt>
      <trkpt lat="47.1354" lon="5.89548">
        <ele>361.6</ele>
        <time>2024-08-05T09:45:58Z</time>
      </trkpt>
      <trkpt lat="47.13541" lon="5.89549">
        <ele>361.8</ele>
        <time>2024-08-05T09:45:59Z</time>
      </trkpt>
      <trkpt lat="47.13544" lon="5.8955">
        <ele>362</ele>
        <time>2024-08-05T09:46:00Z</time>
      </trkpt>
      <trkpt lat="47.13545" lon="5.89551">
        <ele>362.2</ele>
        <time>2024-08-05T09:46:01Z</time>
      </trkpt>
      <trkpt lat="47.13547" lon="5.89552">
        <ele>362.2</ele>
        <time>2024-08-05T09:46:02Z</time>
      </trkpt>
      <trkpt lat="47.13548" lon="5.89553">
        <ele>362.2</ele>
        <time>2024-08-05T09:46:03Z</time>
      </trkpt>
      <trkpt lat="47.13549" lon="5.89555">
        <ele>362.6</ele>
        <time>2024-08-05T09:46:04Z</time>
      </trkpt>
      <trkpt lat="47.13551" lon="5.89556">
        <ele>362.8</ele>
        <time>2024-08-05T09:46:05Z</time>
      </trkpt>
      <trkpt lat="47.13552" lon="5.89558">
        <ele>362.8</ele>
        <time>2024-08-05T09:46:06Z</time>
      </trkpt>
      <trkpt lat="47.13554" lon="5.8956">
        <ele>362.8</ele>
        <time>2024-08-05T09:46:07Z</time>
      </trkpt>
      <trkpt lat="47.13556" lon="5.89561">
        <ele>362.8</ele>
        <time>2024-08-05T09:46:08Z</time>
      </trkpt>
      <trkpt lat="47.13557" lon="5.89562">
        <ele>363</ele>
        <time>2024-08-05T09:46:09Z</time>
      </trkpt>
      <trkpt lat="47.13559" lon="5.89563">
        <ele>363</ele>
        <time>2024-08-05T09:46:10Z</time>
      </trkpt>
      <trkpt lat="47.13561" lon="5.89564">
        <ele>363</ele>
        <time>2024-08-05T09:46:11Z</time>
      </trkpt>
      <trkpt lat="47.13563" lon="5.89566">
        <ele>363.4</ele>
        <time>2024-08-05T09:46:12Z</time>
      </trkpt>
      <trkpt lat="47.13565" lon="5.89567">
        <ele>363.2</ele>
        <time>2024-08-05T09:46:13Z</time>
      </trkpt>
      <trkpt lat="47.13568" lon="5.89568">
        <ele>363.2</ele>
        <time>2024-08-05T09:46:14Z</time>
      </trkpt>
      <trkpt lat="47.1357" lon="5.89569">
        <ele>363.4</ele>
        <time>2024-08-05T09:46:15Z</time>
      </trkpt>
      <trkpt lat="47.13572" lon="5.8957">
        <ele>363.6</ele>
        <time>2024-08-05T09:46:16Z</time>
      </trkpt>
      <trkpt lat="47.13574" lon="5.8957">
        <ele>363.6</ele>
        <time>2024-08-05T09:46:17Z</time>
      </trkpt>
      <trkpt lat="47.13575" lon="5.8957">
        <ele>363.8</ele>
        <time>2024-08-05T09:46:18Z</time>
      </trkpt>
      <trkpt lat="47.13577" lon="5.89571">
        <ele>363.8</ele>
        <time>2024-08-05T09:46:19Z</time>
      </trkpt>
      <trkpt lat="47.13579" lon="5.89571">
        <ele>364</ele>
        <time>2024-08-05T09:46:20Z</time>
      </trkpt>
      <trkpt lat="47.1358" lon="5.89571">
        <ele>364.4</ele>
        <time>2024-08-05T09:46:21Z</time>
      </trkpt>
      <trkpt lat="47.13582" lon="5.89572">
        <ele>364.6</ele>
        <time>2024-08-05T09:46:22Z</time>
      </trkpt>
      <trkpt lat="47.13583" lon="5.89572">
        <ele>364.8</ele>
        <time>2024-08-05T09:46:23Z</time>
      </trkpt>
      <trkpt lat="47.13584" lon="5.89571">
        <ele>365.2</ele>
        <time>2024-08-05T09:46:24Z</time>
      </trkpt>
      <trkpt lat="47.13586" lon="5.89571">
        <ele>365.4</ele>
        <time>2024-08-05T09:46:25Z</time>
      </trkpt>
      <trkpt lat="47.13587" lon="5.89571">
        <ele>365.6</ele>
        <time>2024-08-05T09:46:26Z</time>
      </trkpt>
      <trkpt lat="47.13588" lon="5.8957">
        <ele>365.8</ele>
        <time>2024-08-05T09:46:27Z</time>
      </trkpt>
      <trkpt lat="47.1359" lon="5.8957">
        <ele>366</ele>
        <time>2024-08-05T09:46:28Z</time>
      </trkpt>
      <trkpt lat="47.13591" lon="5.89571">
        <ele>366.2</ele>
        <time>2024-08-05T09:46:29Z</time>
      </trkpt>
      <trkpt lat="47.13593" lon="5.89571">
        <ele>366.4</ele>
        <time>2024-08-05T09:46:30Z</time>
      </trkpt>
      <trkpt lat="47.13594" lon="5.89571">
        <ele>366.6</ele>
        <time>2024-08-05T09:46:31Z</time>
      </trkpt>
      <trkpt lat="47.13595" lon="5.89572">
        <ele>366.8</ele>
        <time>2024-08-05T09:46:32Z</time>
      </trkpt>
      <trkpt lat="47.13595" lon="5.89572">
        <ele>367.2</ele>
        <time>2024-08-05T09:46:33Z</time>
      </trkpt>
      <trkpt lat="47.13597" lon="5.89573">
        <ele>367.4</ele>
        <time>2024-08-05T09:46:34Z</time>
      </trkpt>
      <trkpt lat="47.13598" lon="5.89574">
        <ele>367.4</ele>
        <time>2024-08-05T09:46:35Z</time>
      </trkpt>
      <trkpt lat="47.136" lon="5.89575">
        <ele>367.6</ele>
        <time>2024-08-05T09:46:36Z</time>
      </trkpt>
      <trkpt lat="47.13601" lon="5.89576">
        <ele>367.8</ele>
        <time>2024-08-05T09:46:37Z</time>
      </trkpt>
      <trkpt lat="47.13602" lon="5.89576">
        <ele>368</ele>
        <time>2024-08-05T09:46:38Z</time>
      </trkpt>
      <trkpt lat="47.13603" lon="5.89577">
        <ele>368.4</ele>
        <time>2024-08-05T09:46:39Z</time>
      </trkpt>
      <trkpt lat="47.13604" lon="5.89577">
        <ele>368.6</ele>
        <time>2024-08-05T09:46:40Z</time>
      </trkpt>
      <trkpt lat="47.13606" lon="5.89578">
        <ele>368.8</ele>
        <time>2024-08-05T09:46:41Z</time>
      </trkpt>
      <trkpt lat="47.13607" lon="5.89579">
        <ele>369</ele>
        <time>2024-08-05T09:46:42Z</time>
      </trkpt>
      <trkpt lat="47.1361" lon="5.89583">
        <ele>369.4</ele>
        <time>2024-08-05T09:46:43Z</time>
      </trkpt>
      <trkpt lat="47.13613" lon="5.89585">
        <ele>369.6</ele>
        <time>2024-08-05T09:46:44Z</time>
      </trkpt>
      <trkpt lat="47.13616" lon="5.89588">
        <ele>369.6</ele>
        <time>2024-08-05T09:46:45Z</time>
      </trkpt>
      <trkpt lat="47.13619" lon="5.89591">
        <ele>369.8</ele>
        <time>2024-08-05T09:46:46Z</time>
      </trkpt>
      <trkpt lat="47.13622" lon="5.89593">
        <ele>370</ele>
        <time>2024-08-05T09:46:47Z</time>
      </trkpt>
      <trkpt lat="47.13625" lon="5.89596">
        <ele>370.2</ele>
        <time>2024-08-05T09:46:48Z</time>
      </trkpt>
      <trkpt lat="47.13627" lon="5.89598">
        <ele>370.2</ele>
        <time>2024-08-05T09:46:49Z</time>
      </trkpt>
      <trkpt lat="47.13629" lon="5.89601">
        <ele>370.4</ele>
        <time>2024-08-05T09:46:50Z</time>
      </trkpt>
      <trkpt lat="47.1363" lon="5.89603">
        <ele>370.4</ele>
        <time>2024-08-05T09:46:51Z</time>
      </trkpt>
      <trkpt lat="47.13632" lon="5.89606">
        <ele>370.8</ele>
        <time>2024-08-05T09:46:52Z</time>
      </trkpt>
      <trkpt lat="47.13633" lon="5.89608">
        <ele>371</ele>
        <time>2024-08-05T09:46:53Z</time>
      </trkpt>
      <trkpt lat="47.13634" lon="5.8961">
        <ele>371.2</ele>
        <time>2024-08-05T09:46:54Z</time>
      </trkpt>
      <trkpt lat="47.13635" lon="5.89612">
        <ele>371.2</ele>
        <time>2024-08-05T09:46:55Z</time>
      </trkpt>
      <trkpt lat="47.13636" lon="5.89613">
        <ele>371.6</ele>
        <time>2024-08-05T09:46:56Z</time>
      </trkpt>
      <trkpt lat="47.13637" lon="5.89615">
        <ele>371.6</ele>
        <time>2024-08-05T09:46:57Z</time>
      </trkpt>
      <trkpt lat="47.13638" lon="5.89616">
        <ele>371.8</ele>
        <time>2024-08-05T09:46:58Z</time>
      </trkpt>
      <trkpt lat="47.13639" lon="5.89618">
        <ele>372</ele>
        <time>2024-08-05T09:46:59Z</time>
      </trkpt>
      <trkpt lat="47.13639" lon="5.89619">
        <ele>372</ele>
        <time>2024-08-05T09:47:00Z</time>
      </trkpt>
      <trkpt lat="47.1364" lon="5.89621">
        <ele>372.4</ele>
        <time>2024-08-05T09:47:01Z</time>
      </trkpt>
      <trkpt lat="47.13641" lon="5.89622">
        <ele>372.8</ele>
        <time>2024-08-05T09:47:02Z</time>
      </trkpt>
      <trkpt lat="47.13641" lon="5.89624">
        <ele>373</ele>
        <time>2024-08-05T09:47:03Z</time>
      </trkpt>
      <trkpt lat="47.1364" lon="5.89626">
        <ele>373.2</ele>
        <time>2024-08-05T09:47:04Z</time>
      </trkpt>
      <trkpt lat="47.1364" lon="5.89628">
        <ele>373.6</ele>
        <time>2024-08-05T09:47:05Z</time>
      </trkpt>
      <trkpt lat="47.1364" lon="5.89629">
        <ele>373.8</ele>
        <time>2024-08-05T09:47:06Z</time>
      </trkpt>
      <trkpt lat="47.1364" lon="5.89631">
        <ele>374</ele>
        <time>2024-08-05T09:47:07Z</time>
      </trkpt>
      <trkpt lat="47.1364" lon="5.89634">
        <ele>374.4</ele>
        <time>2024-08-05T09:47:08Z</time>
      </trkpt>
      <trkpt lat="47.13642" lon="5.89638">
        <ele>374.6</ele>
        <time>2024-08-05T09:47:09Z</time>
      </trkpt>
      <trkpt lat="47.13644" lon="5.89641">
        <ele>374.8</ele>
        <time>2024-08-05T09:47:10Z</time>
      </trkpt>
      <trkpt lat="47.13644" lon="5.89645">
        <ele>375</ele>
        <time>2024-08-05T09:47:11Z</time>
      </trkpt>
      <trkpt lat="47.13645" lon="5.89648">
        <ele>375.2</ele>
        <time>2024-08-05T09:47:12Z</time>
      </trkpt>
      <trkpt lat="47.13646" lon="5.8965">
        <ele>375.4</ele>
        <time>2024-08-05T09:47:13Z</time>
      </trkpt>
      <trkpt lat="47.13646" lon="5.89653">
        <ele>375.6</ele>
        <time>2024-08-05T09:47:14Z</time>
      </trkpt>
      <trkpt lat="47.13647" lon="5.89656">
        <ele>375.6</ele>
        <time>2024-08-05T09:47:15Z</time>
      </trkpt>
      <trkpt lat="47.13648" lon="5.89658">
        <ele>375.8</ele>
        <time>2024-08-05T09:47:16Z</time>
      </trkpt>
      <trkpt lat="47.13648" lon="5.89661">
        <ele>376</ele>
        <time>2024-08-05T09:47:17Z</time>
      </trkpt>
      <trkpt lat="47.13649" lon="5.89664">
        <ele>375.8</ele>
        <time>2024-08-05T09:47:18Z</time>
      </trkpt>
      <trkpt lat="47.1365" lon="5.89667">
        <ele>375.8</ele>
        <time>2024-08-05T09:47:19Z</time>
      </trkpt>
      <trkpt lat="47.1365" lon="5.89669">
        <ele>376</ele>
        <time>2024-08-05T09:47:20Z</time>
      </trkpt>
      <trkpt lat="47.13651" lon="5.89672">
        <ele>376</ele>
        <time>2024-08-05T09:47:21Z</time>
      </trkpt>
      <trkpt lat="47.13651" lon="5.89674">
        <ele>376</ele>
        <time>2024-08-05T09:47:22Z</time>
      </trkpt>
      <trkpt lat="47.13652" lon="5.89677">
        <ele>376</ele>
        <time>2024-08-05T09:47:23Z</time>
      </trkpt>
      <trkpt lat="47.13652" lon="5.89679">
        <ele>376</ele>
        <time>2024-08-05T09:47:24Z</time>
      </trkpt>
      <trkpt lat="47.13652" lon="5.89683">
        <ele>376</ele>
        <time>2024-08-05T09:47:25Z</time>
      </trkpt>
      <trkpt lat="47.13653" lon="5.89687">
        <ele>375.8</ele>
        <time>2024-08-05T09:47:26Z</time>
      </trkpt>
      <trkpt lat="47.13653" lon="5.89687">
        <ele>376</ele>
        <time>2024-08-05T09:47:27Z</time>
      </trkpt>
      <trkpt lat="47.13654" lon="5.89696">
        <ele>376</ele>
        <time>2024-08-05T09:47:28Z</time>
      </trkpt>
      <trkpt lat="47.13655" lon="5.89701">
        <ele>375.8</ele>
        <time>2024-08-05T09:47:29Z</time>
      </trkpt>
      <trkpt lat="47.13655" lon="5.89705">
        <ele>375.8</ele>
        <time>2024-08-05T09:47:30Z</time>
      </trkpt>
      <trkpt lat="47.13656" lon="5.89709">
        <ele>375.8</ele>
        <time>2024-08-05T09:47:31Z</time>
      </trkpt>
      <trkpt lat="47.13656" lon="5.89709">
        <ele>375.6</ele>
        <time>2024-08-05T09:47:32Z</time>
      </trkpt>
      <trkpt lat="47.13657" lon="5.89714">
        <ele>375.6</ele>
        <time>2024-08-05T09:47:33Z</time>
      </trkpt>
      <trkpt lat="47.13659" lon="5.8972">
        <ele>375.6</ele>
        <time>2024-08-05T09:47:34Z</time>
      </trkpt>
      <trkpt lat="47.13661" lon="5.89732">
        <ele>375.4</ele>
        <time>2024-08-05T09:47:35Z</time>
      </trkpt>
      <trkpt lat="47.13661" lon="5.89738">
        <ele>375</ele>
        <time>2024-08-05T09:47:36Z</time>
      </trkpt>
      <trkpt lat="47.13663" lon="5.89743">
        <ele>375</ele>
        <time>2024-08-05T09:47:37Z</time>
      </trkpt>
      <trkpt lat="47.13663" lon="5.89743">
        <ele>374.6</ele>
        <time>2024-08-05T09:47:38Z</time>
      </trkpt>
      <trkpt lat="47.13666" lon="5.89753">
        <ele>374.2</ele>
        <time>2024-08-05T09:47:39Z</time>
      </trkpt>
      <trkpt lat="47.13666" lon="5.89757">
        <ele>373.8</ele>
        <time>2024-08-05T09:47:40Z</time>
      </trkpt>
      <trkpt lat="47.13666" lon="5.8976">
        <ele>373.8</ele>
        <time>2024-08-05T09:47:41Z</time>
      </trkpt>
      <trkpt lat="47.13666" lon="5.8976">
        <ele>373.4</ele>
        <time>2024-08-05T09:47:42Z</time>
      </trkpt>
      <trkpt lat="47.13665" lon="5.89762">
        <ele>373</ele>
        <time>2024-08-05T09:47:43Z</time>
      </trkpt>
      <trkpt lat="47.13664" lon="5.89764">
        <ele>372.6</ele>
        <time>2024-08-05T09:47:44Z</time>
      </trkpt>
      <trkpt lat="47.13663" lon="5.89766">
        <ele>372.4</ele>
        <time>2024-08-05T09:47:45Z</time>
      </trkpt>
      <trkpt lat="47.13663" lon="5.89766">
        <ele>372</ele>
        <time>2024-08-05T09:47:46Z</time>
      </trkpt>
      <trkpt lat="47.13662" lon="5.89767">
        <ele>371.4</ele>
        <time>2024-08-05T09:47:47Z</time>
      </trkpt>
      <trkpt lat="47.13661" lon="5.89769">
        <ele>371</ele>
        <time>2024-08-05T09:47:48Z</time>
      </trkpt>
      <trkpt lat="47.13661" lon="5.8977">
        <ele>370.6</ele>
        <time>2024-08-05T09:47:49Z</time>
      </trkpt>
      <trkpt lat="47.13661" lon="5.8977">
        <ele>370.4</ele>
        <time>2024-08-05T09:47:50Z</time>
      </trkpt>
      <trkpt lat="47.13661" lon="5.89771">
        <ele>370</ele>
        <time>2024-08-05T09:47:51Z</time>
      </trkpt>
      <trkpt lat="47.13661" lon="5.89771">
        <ele>369.8</ele>
        <time>2024-08-05T09:47:52Z</time>
      </trkpt>
      <trkpt lat="47.13662" lon="5.89771">
        <ele>369.6</ele>
        <time>2024-08-05T09:47:53Z</time>
      </trkpt>
      <trkpt lat="47.13662" lon="5.8977">
        <ele>369.4</ele>
        <time>2024-08-05T09:47:54Z</time>
      </trkpt>
      <trkpt lat="47.13662" lon="5.8977">
        <ele>369.4</ele>
        <time>2024-08-05T09:47:55Z</time>
      </trkpt>
      <trkpt lat="47.13662" lon="5.8977">
        <ele>369.4</ele>
        <time>2024-08-05T09:47:56Z</time>
      </trkpt>
      <trkpt lat="47.13662" lon="5.8977">
        <ele>369.4</ele>
        <time>2024-08-05T09:47:57Z</time>
      </trkpt>
      <trkpt lat="47.13662" lon="5.8977">
        <ele>369.2</ele>
        <time>2024-08-05T09:47:58Z</time>
      </trkpt>
      <trkpt lat="47.13662" lon="5.8977">
        <ele>369.4</ele>
        <time>2024-08-05T09:47:59Z</time>
      </trkpt>
      <trkpt lat="47.13662" lon="5.8977">
        <ele>369.2</ele>
        <time>2024-08-05T09:48:00Z</time>
      </trkpt>
      <trkpt lat="47.13662" lon="5.8977">
        <ele>369.2</ele>
        <time>2024-08-05T09:48:01Z</time>
      </trkpt>
      <trkpt lat="47.13662" lon="5.8977">
        <ele>369.2</ele>
        <time>2024-08-05T09:48:02Z</time>
      </trkpt>
      <trkpt lat="47.13662" lon="5.8977">
        <ele>369.2</ele>
        <time>2024-08-05T09:48:03Z</time>
      </trkpt>
      <trkpt lat="47.13662" lon="5.8977">
        <ele>369.2</ele>
        <time>2024-08-05T09:48:04Z</time>
      </trkpt>
      <trkpt lat="47.13662" lon="5.8977">
        <ele>369.2</ele>
        <time>2024-08-05T09:48:05Z</time>
      </trkpt>
      <trkpt lat="47.13661" lon="5.89771">
        <ele>369.2</ele>
        <time>2024-08-05T09:48:06Z</time>
      </trkpt>
      <trkpt lat="47.13661" lon="5.8977">
        <ele>369.2</ele>
        <time>2024-08-05T09:48:07Z</time>
      </trkpt>
      <trkpt lat="47.13661" lon="5.8977">
        <ele>369</ele>
        <time>2024-08-05T09:48:08Z</time>
      </trkpt>
      <trkpt lat="47.1366" lon="5.8977">
        <ele>369</ele>
        <time>2024-08-05T09:48:09Z</time>
      </trkpt>
      <trkpt lat="47.1366" lon="5.8977">
        <ele>369</ele>
        <time>2024-08-05T09:48:10Z</time>
      </trkpt>
      <trkpt lat="47.1366" lon="5.8977">
        <ele>369.2</ele>
        <time>2024-08-05T09:48:11Z</time>
      </trkpt>
      <trkpt lat="47.13659" lon="5.89771">
        <ele>369</ele>
        <time>2024-08-05T09:48:12Z</time>
      </trkpt>
      <trkpt lat="47.13659" lon="5.89771">
        <ele>369</ele>
        <time>2024-08-05T09:48:13Z</time>
      </trkpt>
      <trkpt lat="47.13659" lon="5.89771">
        <ele>369</ele>
        <time>2024-08-05T09:48:14Z</time>
      </trkpt>
      <trkpt lat="47.13659" lon="5.89771">
        <ele>369</ele>
        <time>2024-08-05T09:48:15Z</time>
      </trkpt>
      <trkpt lat="47.13659" lon="5.89771">
        <ele>369</ele>
        <time>2024-08-05T09:48:16Z</time>
      </trkpt>
      <trkpt lat="47.1366" lon="5.89771">
        <ele>368.8</ele>
        <time>2024-08-05T09:48:17Z</time>
      </trkpt>
      <trkpt lat="47.1366" lon="5.89771">
        <ele>368.8</ele>
        <time>2024-08-05T09:48:18Z</time>
      </trkpt>
      <trkpt lat="47.1366" lon="5.8977">
        <ele>368.8</ele>
        <time>2024-08-05T09:48:19Z</time>
      </trkpt>
      <trkpt lat="47.13661" lon="5.8977">
        <ele>368.8</ele>
        <time>2024-08-05T09:48:20Z</time>
      </trkpt>
      <trkpt lat="47.13661" lon="5.8977">
        <ele>368.8</ele>
        <time>2024-08-05T09:48:21Z</time>
      </trkpt>
      <trkpt lat="47.13661" lon="5.8977">
        <ele>368.8</ele>
        <time>2024-08-05T09:48:22Z</time>
      </trkpt>
      <trkpt lat="47.13661" lon="5.89769">
        <ele>368.8</ele>
        <time>2024-08-05T09:48:23Z</time>
      </trkpt>
      <trkpt lat="47.13662" lon="5.8977">
        <ele>368.8</ele>
        <time>2024-08-05T09:48:24Z</time>
      </trkpt>
      <trkpt lat="47.13662" lon="5.89769">
        <ele>368.8</ele>
        <time>2024-08-05T09:48:25Z</time>
      </trkpt>
      <trkpt lat="47.13662" lon="5.8977">
        <ele>368.8</ele>
        <time>2024-08-05T09:48:26Z</time>
      </trkpt>
      <trkpt lat="47.13662" lon="5.8977">
        <ele>368.6</ele>
        <time>2024-08-05T09:48:27Z</time>
      </trkpt>
      <trkpt lat="47.13662" lon="5.8977">
        <ele>368.8</ele>
        <time>2024-08-05T09:48:28Z</time>
      </trkpt>
      <trkpt lat="47.13662" lon="5.89771">
        <ele>368.6</ele>
        <time>2024-08-05T09:48:29Z</time>
      </trkpt>
      <trkpt lat="47.13662" lon="5.89772">
        <ele>368.6</ele>
        <time>2024-08-05T09:48:30Z</time>
      </trkpt>
      <trkpt lat="47.13662" lon="5.89772">
        <ele>368.6</ele>
        <time>2024-08-05T09:48:31Z</time>
      </trkpt>
      <trkpt lat="47.13662" lon="5.89772">
        <ele>368.8</ele>
        <time>2024-08-05T09:48:32Z</time>
      </trkpt>
      <trkpt lat="47.13662" lon="5.89772">
        <ele>368.6</ele>
        <time>2024-08-05T09:48:33Z</time>
      </trkpt>
      <trkpt lat="47.13662" lon="5.89772">
        <ele>368.6</ele>
        <time>2024-08-05T09:48:34Z</time>
      </trkpt>
      <trkpt lat="47.13661" lon="5.89772">
        <ele>368.6</ele>
        <time>2024-08-05T09:48:35Z</time>
      </trkpt>
      <trkpt lat="47.13661" lon="5.89772">
        <ele>368.6</ele>
        <time>2024-08-05T09:48:36Z</time>
      </trkpt>
      <trkpt lat="47.13661" lon="5.89772">
        <ele>368.6</ele>
        <time>2024-08-05T09:48:37Z</time>
      </trkpt>
      <trkpt lat="47.13661" lon="5.89772">
        <ele>368.6</ele>
        <time>2024-08-05T09:48:38Z</time>
      </trkpt>
      <trkpt lat="47.13661" lon="5.89772">
        <ele>368.6</ele>
        <time>2024-08-05T09:48:39Z</time>
      </trkpt>
      <trkpt lat="47.13661" lon="5.89774">
        <ele>368.6</ele>
        <time>2024-08-05T09:48:40Z</time>
      </trkpt>
      <trkpt lat="47.13659" lon="5.89776">
        <ele>368.6</ele>
        <time>2024-08-05T09:48:41Z</time>
      </trkpt>
      <trkpt lat="47.13659" lon="5.89776">
        <ele>368.6</ele>
        <time>2024-08-05T09:48:42Z</time>
      </trkpt>
      <trkpt lat="47.13658" lon="5.89777">
        <ele>368.6</ele>
        <time>2024-08-05T09:48:43Z</time>
      </trkpt>
      <trkpt lat="47.13658" lon="5.89778">
        <ele>368.6</ele>
        <time>2024-08-05T09:48:44Z</time>
      </trkpt>
      <trkpt lat="47.13659" lon="5.89779">
        <ele>368.8</ele>
        <time>2024-08-05T09:48:45Z</time>
      </trkpt>
      <trkpt lat="47.13659" lon="5.8978">
        <ele>368.6</ele>
        <time>2024-08-05T09:48:46Z</time>
      </trkpt>
      <trkpt lat="47.13659" lon="5.8978">
        <ele>368.6</ele>
        <time>2024-08-05T09:48:47Z</time>
      </trkpt>
      <trkpt lat="47.13659" lon="5.8978">
        <ele>368.8</ele>
        <time>2024-08-05T09:48:48Z</time>
      </trkpt>
      <trkpt lat="47.13659" lon="5.8978">
        <ele>368.8</ele>
        <time>2024-08-05T09:48:49Z</time>
      </trkpt>
      <trkpt lat="47.13659" lon="5.89781">
        <ele>368.8</ele>
        <time>2024-08-05T09:48:50Z</time>
      </trkpt>
      <trkpt lat="47.13659" lon="5.8978">
        <ele>368.6</ele>
        <time>2024-08-05T09:48:51Z</time>
      </trkpt>
      <trkpt lat="47.13659" lon="5.8978">
        <ele>368.6</ele>
        <time>2024-08-05T09:48:52Z</time>
      </trkpt>
      <trkpt lat="47.13659" lon="5.89779">
        <ele>368.6</ele>
        <time>2024-08-05T09:48:53Z</time>
      </trkpt>
      <trkpt lat="47.13658" lon="5.89779">
        <ele>368.6</ele>
        <time>2024-08-05T09:48:54Z</time>
      </trkpt>
      <trkpt lat="47.13658" lon="5.89779">
        <ele>368.6</ele>
        <time>2024-08-05T09:48:55Z</time>
      </trkpt>
      <trkpt lat="47.13657" lon="5.89778">
        <ele>368.6</ele>
        <time>2024-08-05T09:48:56Z</time>
      </trkpt>
      <trkpt lat="47.13657" lon="5.89778">
        <ele>368.6</ele>
        <time>2024-08-05T09:48:57Z</time>
      </trkpt>
      <trkpt lat="47.13657" lon="5.89778">
        <ele>368.6</ele>
        <time>2024-08-05T09:48:58Z</time>
      </trkpt>
      <trkpt lat="47.13657" lon="5.89778">
        <ele>368.6</ele>
        <time>2024-08-05T09:48:59Z</time>
      </trkpt>
      <trkpt lat="47.13657" lon="5.89778">
        <ele>368.4</ele>
        <time>2024-08-05T09:49:00Z</time>
      </trkpt>
      <trkpt lat="47.13657" lon="5.89778">
        <ele>368.4</ele>
        <time>2024-08-05T09:49:01Z</time>
      </trkpt>
      <trkpt lat="47.13657" lon="5.89778">
        <ele>368.4</ele>
        <time>2024-08-05T09:49:02Z</time>
      </trkpt>
      <trkpt lat="47.13657" lon="5.89778">
        <ele>368.4</ele>
        <time>2024-08-05T09:49:03Z</time>
      </trkpt>
      <trkpt lat="47.13657" lon="5.89778">
        <ele>368.6</ele>
        <time>2024-08-05T09:49:04Z</time>
      </trkpt>
      <trkpt lat="47.13657" lon="5.89778">
        <ele>368.4</ele>
        <time>2024-08-05T09:49:05Z</time>
      </trkpt>
      <trkpt lat="47.13658" lon="5.89778">
        <ele>368.4</ele>
        <time>2024-08-05T09:49:06Z</time>
      </trkpt>
      <trkpt lat="47.13658" lon="5.89778">
        <ele>368.6</ele>
        <time>2024-08-05T09:49:07Z</time>
      </trkpt>
      <trkpt lat="47.13658" lon="5.89778">
        <ele>368.6</ele>
        <time>2024-08-05T09:49:08Z</time>
      </trkpt>
      <trkpt lat="47.13658" lon="5.89778">
        <ele>368.4</ele>
        <time>2024-08-05T09:49:09Z</time>
      </trkpt>
      <trkpt lat="47.13658" lon="5.89778">
        <ele>368.4</ele>
        <time>2024-08-05T09:49:10Z</time>
      </trkpt>
      <trkpt lat="47.13658" lon="5.89778">
        <ele>368.6</ele>
        <time>2024-08-05T09:49:11Z</time>
      </trkpt>
      <trkpt lat="47.13658" lon="5.89778">
        <ele>368.6</ele>
        <time>2024-08-05T09:49:12Z</time>
      </trkpt>
      <trkpt lat="47.13658" lon="5.89778">
        <ele>368.6</ele>
        <time>2024-08-05T09:49:13Z</time>
      </trkpt>
      <trkpt lat="47.13658" lon="5.89778">
        <ele>368.6</ele>
        <time>2024-08-05T09:49:14Z</time>
      </trkpt>
      <trkpt lat="47.13658" lon="5.89778">
        <ele>368.6</ele>
        <time>2024-08-05T09:49:15Z</time>
      </trkpt>
      <trkpt lat="47.13658" lon="5.89778">
        <ele>368.8</ele>
        <time>2024-08-05T09:49:16Z</time>
      </trkpt>
      <trkpt lat="47.13658" lon="5.89778">
        <ele>368.8</ele>
        <time>2024-08-05T09:49:17Z</time>
      </trkpt>
      <trkpt lat="47.13658" lon="5.89778">
        <ele>368.8</ele>
        <time>2024-08-05T09:49:18Z</time>
      </trkpt>
      <trkpt lat="47.13658" lon="5.89778">
        <ele>368.8</ele>
        <time>2024-08-05T09:49:19Z</time>
      </trkpt>
      <trkpt lat="47.13658" lon="5.89778">
        <ele>369</ele>
        <time>2024-08-05T09:49:20Z</time>
      </trkpt>
      <trkpt lat="47.13658" lon="5.89778">
        <ele>369</ele>
        <time>2024-08-05T09:49:21Z</time>
      </trkpt>
      <trkpt lat="47.13658" lon="5.89778">
        <ele>369</ele>
        <time>2024-08-05T09:49:22Z</time>
      </trkpt>
      <trkpt lat="47.13658" lon="5.89778">
        <ele>369</ele>
        <time>2024-08-05T09:49:23Z</time>
      </trkpt>
      <trkpt lat="47.13658" lon="5.89778">
        <ele>369</ele>
        <time>2024-08-05T09:49:24Z</time>
      </trkpt>
      <trkpt lat="47.13658" lon="5.89778">
        <ele>369.2</ele>
        <time>2024-08-05T09:49:25Z</time>
      </trkpt>
      <trkpt lat="47.13658" lon="5.89778">
        <ele>369.2</ele>
        <time>2024-08-05T09:49:26Z</time>
      </trkpt>
      <trkpt lat="47.13658" lon="5.89778">
        <ele>369.2</ele>
        <time>2024-08-05T09:49:27Z</time>
      </trkpt>
      <trkpt lat="47.13658" lon="5.89778">
        <ele>369.2</ele>
        <time>2024-08-05T09:49:28Z</time>
      </trkpt>
      <trkpt lat="47.13658" lon="5.89778">
        <ele>369.2</ele>
        <time>2024-08-05T09:49:29Z</time>
      </trkpt>
      <trkpt lat="47.13658" lon="5.89778">
        <ele>369.2</ele>
        <time>2024-08-05T09:49:30Z</time>
      </trkpt>
      <trkpt lat="47.13658" lon="5.89778">
        <ele>369.2</ele>
        <time>2024-08-05T09:49:31Z</time>
      </trkpt>
      <trkpt lat="47.13658" lon="5.89778">
        <ele>369.2</ele>
        <time>2024-08-05T09:49:32Z</time>
      </trkpt>
      <trkpt lat="47.13658" lon="5.89778">
        <ele>369.2</ele>
        <time>2024-08-05T09:49:33Z</time>
      </trkpt>
      <trkpt lat="47.13658" lon="5.89778">
        <ele>369.2</ele>
        <time>2024-08-05T09:49:34Z</time>
      </trkpt>
      <trkpt lat="47.13658" lon="5.89778">
        <ele>369.2</ele>
        <time>2024-08-05T09:49:35Z</time>
      </trkpt>
      <trkpt lat="47.13658" lon="5.89778">
        <ele>369.2</ele>
        <time>2024-08-05T09:49:36Z</time>
      </trkpt>
      <trkpt lat="47.13658" lon="5.89778">
        <ele>369.2</ele>
        <time>2024-08-05T09:49:37Z</time>
      </trkpt>
      <trkpt lat="47.13658" lon="5.89778">
        <ele>369.2</ele>
        <time>2024-08-05T09:49:38Z</time>
      </trkpt>
      <trkpt lat="47.13658" lon="5.89778">
        <ele>369</ele>
        <time>2024-08-05T09:49:39Z</time>
      </trkpt>
      <trkpt lat="47.13658" lon="5.89778">
        <ele>369</ele>
        <time>2024-08-05T09:49:40Z</time>
      </trkpt>
      <trkpt lat="47.13658" lon="5.89778">
        <ele>369.2</ele>
        <time>2024-08-05T09:49:41Z</time>
      </trkpt>
      <trkpt lat="47.13658" lon="5.89778">
        <ele>369</ele>
        <time>2024-08-05T09:49:42Z</time>
      </trkpt>
      <trkpt lat="47.13658" lon="5.89778">
        <ele>369.2</ele>
        <time>2024-08-05T09:49:43Z</time>
      </trkpt>
      <trkpt lat="47.13658" lon="5.89778">
        <ele>369</ele>
        <time>2024-08-05T09:49:44Z</time>
      </trkpt>
      <trkpt lat="47.13658" lon="5.89778">
        <ele>369.2</ele>
        <time>2024-08-05T09:49:45Z</time>
      </trkpt>
      <trkpt lat="47.13658" lon="5.89777">
        <ele>369</ele>
        <time>2024-08-05T09:49:46Z</time>
      </trkpt>
      <trkpt lat="47.13658" lon="5.89777">
        <ele>369.2</ele>
        <time>2024-08-05T09:49:47Z</time>
      </trkpt>
      <trkpt lat="47.13658" lon="5.89777">
        <ele>369.2</ele>
        <time>2024-08-05T09:49:48Z</time>
      </trkpt>
      <trkpt lat="47.13658" lon="5.89777">
        <ele>369.2</ele>
        <time>2024-08-05T09:49:49Z</time>
      </trkpt>
      <trkpt lat="47.13658" lon="5.89777">
        <ele>369.2</ele>
        <time>2024-08-05T09:49:50Z</time>
      </trkpt>
      <trkpt lat="47.13659" lon="5.89777">
        <ele>369.2</ele>
        <time>2024-08-05T09:49:51Z</time>
      </trkpt>
      <trkpt lat="47.13659" lon="5.89776">
        <ele>369.2</ele>
        <time>2024-08-05T09:49:52Z</time>
      </trkpt>
      <trkpt lat="47.13659" lon="5.89776">
        <ele>369</ele>
        <time>2024-08-05T09:49:53Z</time>
      </trkpt>
      <trkpt lat="47.13659" lon="5.89776">
        <ele>369</ele>
        <time>2024-08-05T09:49:54Z</time>
      </trkpt>
      <trkpt lat="47.13659" lon="5.89776">
        <ele>369</ele>
        <time>2024-08-05T09:49:55Z</time>
      </trkpt>
      <trkpt lat="47.13659" lon="5.89776">
        <ele>369.2</ele>
        <time>2024-08-05T09:49:56Z</time>
      </trkpt>
      <trkpt lat="47.13659" lon="5.89776">
        <ele>369</ele>
        <time>2024-08-05T09:49:57Z</time>
      </trkpt>
      <trkpt lat="47.13659" lon="5.89776">
        <ele>369</ele>
        <time>2024-08-05T09:49:58Z</time>
      </trkpt>
      <trkpt lat="47.13659" lon="5.89776">
        <ele>369</ele>
        <time>2024-08-05T09:49:59Z</time>
      </trkpt>
      <trkpt lat="47.13659" lon="5.89776">
        <ele>369</ele>
        <time>2024-08-05T09:50:00Z</time>
      </trkpt>
      <trkpt lat="47.13659" lon="5.89776">
        <ele>369</ele>
        <time>2024-08-05T09:50:01Z</time>
      </trkpt>
      <trkpt lat="47.13659" lon="5.89776">
        <ele>368.8</ele>
        <time>2024-08-05T09:50:02Z</time>
      </trkpt>
      <trkpt lat="47.13659" lon="5.89776">
        <ele>369</ele>
        <time>2024-08-05T09:50:03Z</time>
      </trkpt>
      <trkpt lat="47.13659" lon="5.89776">
        <ele>369</ele>
        <time>2024-08-05T09:50:04Z</time>
      </trkpt>
      <trkpt lat="47.13659" lon="5.89776">
        <ele>369</ele>
        <time>2024-08-05T09:50:05Z</time>
      </trkpt>
      <trkpt lat="47.13659" lon="5.89776">
        <ele>369</ele>
        <time>2024-08-05T09:50:06Z</time>
      </trkpt>
      <trkpt lat="47.13659" lon="5.89776">
        <ele>369</ele>
        <time>2024-08-05T09:50:07Z</time>
      </trkpt>
      <trkpt lat="47.13659" lon="5.89776">
        <ele>369</ele>
        <time>2024-08-05T09:50:08Z</time>
      </trkpt>
      <trkpt lat="47.13659" lon="5.89776">
        <ele>369</ele>
        <time>2024-08-05T09:50:09Z</time>
      </trkpt>
      <trkpt lat="47.13659" lon="5.89776">
        <ele>368.8</ele>
        <time>2024-08-05T09:50:10Z</time>
      </trkpt>
      <trkpt lat="47.13659" lon="5.89776">
        <ele>369</ele>
        <time>2024-08-05T09:50:11Z</time>
      </trkpt>
      <trkpt lat="47.13659" lon="5.89776">
        <ele>369</ele>
        <time>2024-08-05T09:50:12Z</time>
      </trkpt>
      <trkpt lat="47.13659" lon="5.89776">
        <ele>368.8</ele>
        <time>2024-08-05T09:50:13Z</time>
      </trkpt>
      <trkpt lat="47.13659" lon="5.89776">
        <ele>368.8</ele>
        <time>2024-08-05T09:50:14Z</time>
      </trkpt>
      <trkpt lat="47.13659" lon="5.89776">
        <ele>369</ele>
        <time>2024-08-05T09:50:15Z</time>
      </trkpt>
      <trkpt lat="47.13659" lon="5.89776">
        <ele>368.8</ele>
        <time>2024-08-05T09:50:16Z</time>
      </trkpt>
      <trkpt lat="47.13658" lon="5.89775">
        <ele>369</ele>
        <time>2024-08-05T09:50:17Z</time>
      </trkpt>
      <trkpt lat="47.13658" lon="5.89775">
        <ele>369</ele>
        <time>2024-08-05T09:50:18Z</time>
      </trkpt>
      <trkpt lat="47.13658" lon="5.89775">
        <ele>368.8</ele>
        <time>2024-08-05T09:50:19Z</time>
      </trkpt>
      <trkpt lat="47.13659" lon="5.89775">
        <ele>369</ele>
        <time>2024-08-05T09:50:20Z</time>
      </trkpt>
      <trkpt lat="47.13659" lon="5.89775">
        <ele>369</ele>
        <time>2024-08-05T09:50:21Z</time>
      </trkpt>
      <trkpt lat="47.13659" lon="5.89775">
        <ele>368.8</ele>
        <time>2024-08-05T09:50:22Z</time>
      </trkpt>
      <trkpt lat="47.13659" lon="5.89775">
        <ele>368.8</ele>
        <time>2024-08-05T09:50:23Z</time>
      </trkpt>
      <trkpt lat="47.13659" lon="5.89775">
        <ele>368.8</ele>
        <time>2024-08-05T09:50:24Z</time>
      </trkpt>
      <trkpt lat="47.13658" lon="5.89775">
        <ele>369</ele>
        <time>2024-08-05T09:50:25Z</time>
      </trkpt>
      <trkpt lat="47.13657" lon="5.89774">
        <ele>368.8</ele>
        <time>2024-08-05T09:50:26Z</time>
      </trkpt>
      <trkpt lat="47.13656" lon="5.89774">
        <ele>368.8</ele>
        <time>2024-08-05T09:50:27Z</time>
      </trkpt>
      <trkpt lat="47.13655" lon="5.89774">
        <ele>368.8</ele>
        <time>2024-08-05T09:50:28Z</time>
      </trkpt>
      <trkpt lat="47.13654" lon="5.89775">
        <ele>368.8</ele>
        <time>2024-08-05T09:50:29Z</time>
      </trkpt>
      <trkpt lat="47.13653" lon="5.89775">
        <ele>368.8</ele>
        <time>2024-08-05T09:50:30Z</time>
      </trkpt>
      <trkpt lat="47.13653" lon="5.89775">
        <ele>368.6</ele>
        <time>2024-08-05T09:50:31Z</time>
      </trkpt>
      <trkpt lat="47.13652" lon="5.89775">
        <ele>368.8</ele>
        <time>2024-08-05T09:50:32Z</time>
      </trkpt>
      <trkpt lat="47.13651" lon="5.89775">
        <ele>368.6</ele>
        <time>2024-08-05T09:50:33Z</time>
      </trkpt>
      <trkpt lat="47.1365" lon="5.89775">
        <ele>368.8</ele>
        <time>2024-08-05T09:50:34Z</time>
      </trkpt>
      <trkpt lat="47.1365" lon="5.89775">
        <ele>368.6</ele>
        <time>2024-08-05T09:50:35Z</time>
      </trkpt>
      <trkpt lat="47.13649" lon="5.89775">
        <ele>368.6</ele>
        <time>2024-08-05T09:50:36Z</time>
      </trkpt>
      <trkpt lat="47.13648" lon="5.89775">
        <ele>368.8</ele>
        <time>2024-08-05T09:50:37Z</time>
      </trkpt>
      <trkpt lat="47.13648" lon="5.89774">
        <ele>369</ele>
        <time>2024-08-05T09:50:38Z</time>
      </trkpt>
      <trkpt lat="47.13649" lon="5.89774">
        <ele>369</ele>
        <time>2024-08-05T09:50:39Z</time>
      </trkpt>
      <trkpt lat="47.13649" lon="5.89773">
        <ele>369.2</ele>
        <time>2024-08-05T09:50:40Z</time>
      </trkpt>
      <trkpt lat="47.13649" lon="5.89773">
        <ele>369.2</ele>
        <time>2024-08-05T09:50:41Z</time>
      </trkpt>
      <trkpt lat="47.13649" lon="5.89773">
        <ele>369.2</ele>
        <time>2024-08-05T09:50:42Z</time>
      </trkpt>
      <trkpt lat="47.13649" lon="5.89773">
        <ele>369.2</ele>
        <time>2024-08-05T09:50:43Z</time>
      </trkpt>
      <trkpt lat="47.13649" lon="5.89773">
        <ele>369.2</ele>
        <time>2024-08-05T09:50:44Z</time>
      </trkpt>
      <trkpt lat="47.13649" lon="5.89773">
        <ele>369</ele>
        <time>2024-08-05T09:50:45Z</time>
      </trkpt>
      <trkpt lat="47.13649" lon="5.89773">
        <ele>369.2</ele>
        <time>2024-08-05T09:50:46Z</time>
      </trkpt>
      <trkpt lat="47.13649" lon="5.89772">
        <ele>369.2</ele>
        <time>2024-08-05T09:50:47Z</time>
      </trkpt>
      <trkpt lat="47.13649" lon="5.89772">
        <ele>369.2</ele>
        <time>2024-08-05T09:50:48Z</time>
      </trkpt>
      <trkpt lat="47.13649" lon="5.89772">
        <ele>369.2</ele>
        <time>2024-08-05T09:50:49Z</time>
      </trkpt>
      <trkpt lat="47.13649" lon="5.89772">
        <ele>369.2</ele>
        <time>2024-08-05T09:50:50Z</time>
      </trkpt>
      <trkpt lat="47.13649" lon="5.89772">
        <ele>369</ele>
        <time>2024-08-05T09:50:51Z</time>
      </trkpt>
      <trkpt lat="47.13649" lon="5.89772">
        <ele>369.2</ele>
        <time>2024-08-05T09:50:52Z</time>
      </trkpt>
      <trkpt lat="47.13649" lon="5.89772">
        <ele>369</ele>
        <time>2024-08-05T09:50:53Z</time>
      </trkpt>
      <trkpt lat="47.13649" lon="5.89772">
        <ele>369.2</ele>
        <time>2024-08-05T09:50:54Z</time>
      </trkpt>
      <trkpt lat="47.13649" lon="5.89772">
        <ele>369.2</ele>
        <time>2024-08-05T09:50:55Z</time>
      </trkpt>
      <trkpt lat="47.13649" lon="5.89773">
        <ele>369.2</ele>
        <time>2024-08-05T09:50:56Z</time>
      </trkpt>
      <trkpt lat="47.13649" lon="5.89772">
        <ele>369.2</ele>
        <time>2024-08-05T09:50:57Z</time>
      </trkpt>
      <trkpt lat="47.13649" lon="5.89772">
        <ele>369.2</ele>
        <time>2024-08-05T09:50:58Z</time>
      </trkpt>
      <trkpt lat="47.13649" lon="5.89772">
        <ele>368.8</ele>
        <time>2024-08-05T09:50:59Z</time>
      </trkpt>
      <trkpt lat="47.13649" lon="5.89771">
        <ele>369</ele>
        <time>2024-08-05T09:51:00Z</time>
      </trkpt>
      <trkpt lat="47.13648" lon="5.89771">
        <ele>368.8</ele>
        <time>2024-08-05T09:51:01Z</time>
      </trkpt>
      <trkpt lat="47.13648" lon="5.89771">
        <ele>368.8</ele>
        <time>2024-08-05T09:51:02Z</time>
      </trkpt>
      <trkpt lat="47.13648" lon="5.89771">
        <ele>369</ele>
        <time>2024-08-05T09:51:03Z</time>
      </trkpt>
      <trkpt lat="47.13648" lon="5.89771">
        <ele>368.8</ele>
        <time>2024-08-05T09:51:04Z</time>
      </trkpt>
      <trkpt lat="47.13648" lon="5.89771">
        <ele>368.8</ele>
        <time>2024-08-05T09:51:05Z</time>
      </trkpt>
      <trkpt lat="47.13648" lon="5.89771">
        <ele>368.8</ele>
        <time>2024-08-05T09:51:06Z</time>
      </trkpt>
      <trkpt lat="47.13648" lon="5.8977">
        <ele>368.8</ele>
        <time>2024-08-05T09:51:07Z</time>
      </trkpt>
      <trkpt lat="47.13648" lon="5.8977">
        <ele>369</ele>
        <time>2024-08-05T09:51:08Z</time>
      </trkpt>
      <trkpt lat="47.13648" lon="5.8977">
        <ele>368.8</ele>
        <time>2024-08-05T09:51:09Z</time>
      </trkpt>
      <trkpt lat="47.13648" lon="5.8977">
        <ele>368.8</ele>
        <time>2024-08-05T09:51:10Z</time>
      </trkpt>
      <trkpt lat="47.13648" lon="5.89769">
        <ele>368.8</ele>
        <time>2024-08-05T09:51:11Z</time>
      </trkpt>
      <trkpt lat="47.13648" lon="5.89769">
        <ele>368.8</ele>
        <time>2024-08-05T09:51:12Z</time>
      </trkpt>
      <trkpt lat="47.13648" lon="5.89769">
        <ele>368.8</ele>
        <time>2024-08-05T09:51:13Z</time>
      </trkpt>
      <trkpt lat="47.13648" lon="5.89768">
        <ele>368.8</ele>
        <time>2024-08-05T09:51:14Z</time>
      </trkpt>
      <trkpt lat="47.13648" lon="5.89769">
        <ele>368.8</ele>
        <time>2024-08-05T09:51:15Z</time>
      </trkpt>
      <trkpt lat="47.13648" lon="5.89769">
        <ele>368.8</ele>
        <time>2024-08-05T09:51:16Z</time>
      </trkpt>
      <trkpt lat="47.13648" lon="5.89768">
        <ele>368.8</ele>
        <time>2024-08-05T09:51:17Z</time>
      </trkpt>
      <trkpt lat="47.13648" lon="5.89768">
        <ele>368.8</ele>
        <time>2024-08-05T09:51:18Z</time>
      </trkpt>
      <trkpt lat="47.13648" lon="5.89768">
        <ele>368.8</ele>
        <time>2024-08-05T09:51:19Z</time>
      </trkpt>
      <trkpt lat="47.13648" lon="5.89768">
        <ele>368.8</ele>
        <time>2024-08-05T09:51:20Z</time>
      </trkpt>
      <trkpt lat="47.13648" lon="5.89769">
        <ele>368.8</ele>
        <time>2024-08-05T09:51:21Z</time>
      </trkpt>
      <trkpt lat="47.13648" lon="5.89768">
        <ele>368.8</ele>
        <time>2024-08-05T09:51:22Z</time>
      </trkpt>
      <trkpt lat="47.13648" lon="5.89768">
        <ele>368.8</ele>
        <time>2024-08-05T09:51:23Z</time>
      </trkpt>
      <trkpt lat="47.13648" lon="5.89768">
        <ele>368.8</ele>
        <time>2024-08-05T09:51:24Z</time>
      </trkpt>
      <trkpt lat="47.13648" lon="5.89768">
        <ele>368.8</ele>
        <time>2024-08-05T09:51:25Z</time>
      </trkpt>
      <trkpt lat="47.13649" lon="5.89768">
        <ele>368.8</ele>
        <time>2024-08-05T09:51:26Z</time>
      </trkpt>
      <trkpt lat="47.13649" lon="5.89768">
        <ele>368.8</ele>
        <time>2024-08-05T09:51:27Z</time>
      </trkpt>
      <trkpt lat="47.13649" lon="5.89768">
        <ele>368.8</ele>
        <time>2024-08-05T09:51:28Z</time>
      </trkpt>
      <trkpt lat="47.13649" lon="5.89768">
        <ele>368.8</ele>
        <time>2024-08-05T09:51:29Z</time>
      </trkpt>
      <trkpt lat="47.13649" lon="5.89768">
        <ele>368.6</ele>
        <time>2024-08-05T09:51:30Z</time>
      </trkpt>
      <trkpt lat="47.13649" lon="5.89769">
        <ele>368.8</ele>
        <time>2024-08-05T09:51:31Z</time>
      </trkpt>
      <trkpt lat="47.1365" lon="5.89769">
        <ele>368.8</ele>
        <time>2024-08-05T09:51:32Z</time>
      </trkpt>
      <trkpt lat="47.1365" lon="5.89769">
        <ele>368.8</ele>
        <time>2024-08-05T09:51:33Z</time>
      </trkpt>
      <trkpt lat="47.1365" lon="5.89768">
        <ele>368.8</ele>
        <time>2024-08-05T09:51:34Z</time>
      </trkpt>
      <trkpt lat="47.1365" lon="5.89768">
        <ele>368.8</ele>
        <time>2024-08-05T09:51:35Z</time>
      </trkpt>
      <trkpt lat="47.13651" lon="5.89767">
        <ele>368.8</ele>
        <time>2024-08-05T09:51:36Z</time>
      </trkpt>
      <trkpt lat="47.13651" lon="5.89766">
        <ele>368.6</ele>
        <time>2024-08-05T09:51:37Z</time>
      </trkpt>
      <trkpt lat="47.13652" lon="5.89766">
        <ele>368.8</ele>
        <time>2024-08-05T09:51:38Z</time>
      </trkpt>
      <trkpt lat="47.13652" lon="5.89766">
        <ele>368.8</ele>
        <time>2024-08-05T09:51:39Z</time>
      </trkpt>
      <trkpt lat="47.13652" lon="5.89766">
        <ele>368.8</ele>
        <time>2024-08-05T09:51:40Z</time>
      </trkpt>
      <trkpt lat="47.13652" lon="5.89767">
        <ele>368.8</ele>
        <time>2024-08-05T09:51:41Z</time>
      </trkpt>
      <trkpt lat="47.13653" lon="5.89767">
        <ele>368.8</ele>
        <time>2024-08-05T09:51:42Z</time>
      </trkpt>
      <trkpt lat="47.13653" lon="5.89768">
        <ele>368.8</ele>
        <time>2024-08-05T09:51:43Z</time>
      </trkpt>
      <trkpt lat="47.13653" lon="5.89768">
        <ele>368.8</ele>
        <time>2024-08-05T09:51:44Z</time>
      </trkpt>
      <trkpt lat="47.13653" lon="5.89768">
        <ele>368.8</ele>
        <time>2024-08-05T09:51:45Z</time>
      </trkpt>
      <trkpt lat="47.13653" lon="5.89768">
        <ele>368.8</ele>
        <time>2024-08-05T09:51:46Z</time>
      </trkpt>
      <trkpt lat="47.13653" lon="5.89768">
        <ele>368.8</ele>
        <time>2024-08-05T09:51:47Z</time>
      </trkpt>
      <trkpt lat="47.13653" lon="5.89768">
        <ele>368.8</ele>
        <time>2024-08-05T09:51:48Z</time>
      </trkpt>
      <trkpt lat="47.13653" lon="5.89768">
        <ele>368.6</ele>
        <time>2024-08-05T09:51:49Z</time>
      </trkpt>
      <trkpt lat="47.13653" lon="5.89768">
        <ele>368.6</ele>
        <time>2024-08-05T09:51:50Z</time>
      </trkpt>
      <trkpt lat="47.13653" lon="5.89769">
        <ele>368.6</ele>
        <time>2024-08-05T09:51:51Z</time>
      </trkpt>
      <trkpt lat="47.13654" lon="5.89769">
        <ele>368.8</ele>
        <time>2024-08-05T09:51:52Z</time>
      </trkpt>
      <trkpt lat="47.13654" lon="5.89769">
        <ele>368.6</ele>
        <time>2024-08-05T09:51:53Z</time>
      </trkpt>
      <trkpt lat="47.13654" lon="5.89769">
        <ele>368.6</ele>
        <time>2024-08-05T09:51:54Z</time>
      </trkpt>
      <trkpt lat="47.13654" lon="5.8977">
        <ele>368.6</ele>
        <time>2024-08-05T09:51:55Z</time>
      </trkpt>
      <trkpt lat="47.13654" lon="5.8977">
        <ele>368.6</ele>
        <time>2024-08-05T09:51:56Z</time>
      </trkpt>
      <trkpt lat="47.13654" lon="5.8977">
        <ele>368.6</ele>
        <time>2024-08-05T09:51:57Z</time>
      </trkpt>
      <trkpt lat="47.13654" lon="5.8977">
        <ele>368.6</ele>
        <time>2024-08-05T09:51:58Z</time>
      </trkpt>
      <trkpt lat="47.13654" lon="5.8977">
        <ele>368.8</ele>
        <time>2024-08-05T09:51:59Z</time>
      </trkpt>
      <trkpt lat="47.13654" lon="5.8977">
        <ele>368.6</ele>
        <time>2024-08-05T09:52:00Z</time>
      </trkpt>
      <trkpt lat="47.13654" lon="5.8977">
        <ele>368.6</ele>
        <time>2024-08-05T09:52:01Z</time>
      </trkpt>
      <trkpt lat="47.13654" lon="5.8977">
        <ele>368.6</ele>
        <time>2024-08-05T09:52:02Z</time>
      </trkpt>
      <trkpt lat="47.13654" lon="5.8977">
        <ele>368.6</ele>
        <time>2024-08-05T09:52:03Z</time>
      </trkpt>
      <trkpt lat="47.13654" lon="5.8977">
        <ele>368.6</ele>
        <time>2024-08-05T09:52:04Z</time>
      </trkpt>
      <trkpt lat="47.13654" lon="5.8977">
        <ele>368.6</ele>
        <time>2024-08-05T09:52:05Z</time>
      </trkpt>
      <trkpt lat="47.13654" lon="5.8977">
        <ele>368.6</ele>
        <time>2024-08-05T09:52:06Z</time>
      </trkpt>
      <trkpt lat="47.13654" lon="5.8977">
        <ele>368.6</ele>
        <time>2024-08-05T09:52:07Z</time>
      </trkpt>
      <trkpt lat="47.13654" lon="5.89769">
        <ele>368.6</ele>
        <time>2024-08-05T09:52:08Z</time>
      </trkpt>
      <trkpt lat="47.13654" lon="5.89769">
        <ele>368.6</ele>
        <time>2024-08-05T09:52:09Z</time>
      </trkpt>
      <trkpt lat="47.13654" lon="5.89769">
        <ele>368.6</ele>
        <time>2024-08-05T09:52:10Z</time>
      </trkpt>
      <trkpt lat="47.13654" lon="5.89769">
        <ele>368.6</ele>
        <time>2024-08-05T09:52:11Z</time>
      </trkpt>
      <trkpt lat="47.13654" lon="5.89769">
        <ele>368.6</ele>
        <time>2024-08-05T09:52:12Z</time>
      </trkpt>
      <trkpt lat="47.13654" lon="5.89769">
        <ele>368.6</ele>
        <time>2024-08-05T09:52:13Z</time>
      </trkpt>
      <trkpt lat="47.13654" lon="5.89769">
        <ele>368.8</ele>
        <time>2024-08-05T09:52:14Z</time>
      </trkpt>
      <trkpt lat="47.13654" lon="5.89769">
        <ele>368.6</ele>
        <time>2024-08-05T09:52:15Z</time>
      </trkpt>
      <trkpt lat="47.13654" lon="5.89769">
        <ele>368.6</ele>
        <time>2024-08-05T09:52:16Z</time>
      </trkpt>
      <trkpt lat="47.13654" lon="5.89769">
        <ele>368.6</ele>
        <time>2024-08-05T09:52:17Z</time>
      </trkpt>
      <trkpt lat="47.13655" lon="5.89769">
        <ele>368.6</ele>
        <time>2024-08-05T09:52:18Z</time>
      </trkpt>
      <trkpt lat="47.13655" lon="5.89769">
        <ele>368.6</ele>
        <time>2024-08-05T09:52:19Z</time>
      </trkpt>
      <trkpt lat="47.13655" lon="5.89769">
        <ele>368.6</ele>
        <time>2024-08-05T09:52:20Z</time>
      </trkpt>
      <trkpt lat="47.13655" lon="5.89769">
        <ele>368.6</ele>
        <time>2024-08-05T09:52:21Z</time>
      </trkpt>
      <trkpt lat="47.13655" lon="5.8977">
        <ele>368.6</ele>
        <time>2024-08-05T09:52:22Z</time>
      </trkpt>
      <trkpt lat="47.13655" lon="5.8977">
        <ele>368.6</ele>
        <time>2024-08-05T09:52:23Z</time>
      </trkpt>
      <trkpt lat="47.13655" lon="5.8977">
        <ele>368.6</ele>
        <time>2024-08-05T09:52:24Z</time>
      </trkpt>
      <trkpt lat="47.13655" lon="5.8977">
        <ele>368.6</ele>
        <time>2024-08-05T09:52:25Z</time>
      </trkpt>
      <trkpt lat="47.13655" lon="5.8977">
        <ele>368.6</ele>
        <time>2024-08-05T09:52:26Z</time>
      </trkpt>
      <trkpt lat="47.13655" lon="5.8977">
        <ele>368.6</ele>
        <time>2024-08-05T09:52:27Z</time>
      </trkpt>
      <trkpt lat="47.13655" lon="5.8977">
        <ele>368.6</ele>
        <time>2024-08-05T09:52:28Z</time>
      </trkpt>
      <trkpt lat="47.13655" lon="5.89769">
        <ele>368.6</ele>
        <time>2024-08-05T09:52:29Z</time>
      </trkpt>
      <trkpt lat="47.13656" lon="5.89769">
        <ele>368.6</ele>
        <time>2024-08-05T09:52:30Z</time>
      </trkpt>
      <trkpt lat="47.13656" lon="5.89769">
        <ele>368.6</ele>
        <time>2024-08-05T09:52:31Z</time>
      </trkpt>
      <trkpt lat="47.13656" lon="5.8977">
        <ele>368.6</ele>
        <time>2024-08-05T09:52:32Z</time>
      </trkpt>
      <trkpt lat="47.13656" lon="5.8977">
        <ele>368.4</ele>
        <time>2024-08-05T09:52:33Z</time>
      </trkpt>
      <trkpt lat="47.13655" lon="5.8977">
        <ele>368.6</ele>
        <time>2024-08-05T09:52:34Z</time>
      </trkpt>
      <trkpt lat="47.13655" lon="5.89771">
        <ele>368.4</ele>
        <time>2024-08-05T09:52:35Z</time>
      </trkpt>
      <trkpt lat="47.13655" lon="5.89771">
        <ele>368.6</ele>
        <time>2024-08-05T09:52:36Z</time>
      </trkpt>
      <trkpt lat="47.13655" lon="5.89772">
        <ele>368.6</ele>
        <time>2024-08-05T09:52:37Z</time>
      </trkpt>
      <trkpt lat="47.13655" lon="5.89773">
        <ele>368.4</ele>
        <time>2024-08-05T09:52:38Z</time>
      </trkpt>
      <trkpt lat="47.13654" lon="5.89774">
        <ele>368.4</ele>
        <time>2024-08-05T09:52:39Z</time>
      </trkpt>
      <trkpt lat="47.13654" lon="5.89775">
        <ele>368.4</ele>
        <time>2024-08-05T09:52:40Z</time>
      </trkpt>
      <trkpt lat="47.13654" lon="5.89776">
        <ele>368.4</ele>
        <time>2024-08-05T09:52:41Z</time>
      </trkpt>
      <trkpt lat="47.13653" lon="5.89776">
        <ele>368.4</ele>
        <time>2024-08-05T09:52:42Z</time>
      </trkpt>
      <trkpt lat="47.13653" lon="5.89776">
        <ele>368.4</ele>
        <time>2024-08-05T09:52:43Z</time>
      </trkpt>
      <trkpt lat="47.13653" lon="5.89776">
        <ele>368.4</ele>
        <time>2024-08-05T09:52:44Z</time>
      </trkpt>
      <trkpt lat="47.13653" lon="5.89775">
        <ele>368.6</ele>
        <time>2024-08-05T09:52:45Z</time>
      </trkpt>
      <trkpt lat="47.13652" lon="5.89775">
        <ele>368.4</ele>
        <time>2024-08-05T09:52:46Z</time>
      </trkpt>
      <trkpt lat="47.13652" lon="5.89775">
        <ele>368.4</ele>
        <time>2024-08-05T09:52:47Z</time>
      </trkpt>
      <trkpt lat="47.13651" lon="5.89776">
        <ele>368.4</ele>
        <time>2024-08-05T09:52:48Z</time>
      </trkpt>
      <trkpt lat="47.13651" lon="5.89776">
        <ele>368.4</ele>
        <time>2024-08-05T09:52:49Z</time>
      </trkpt>
      <trkpt lat="47.13651" lon="5.89777">
        <ele>368.6</ele>
        <time>2024-08-05T09:52:50Z</time>
      </trkpt>
      <trkpt lat="47.13651" lon="5.89778">
        <ele>368.4</ele>
        <time>2024-08-05T09:52:51Z</time>
      </trkpt>
      <trkpt lat="47.13651" lon="5.89778">
        <ele>368.6</ele>
        <time>2024-08-05T09:52:52Z</time>
      </trkpt>
      <trkpt lat="47.13651" lon="5.89778">
        <ele>368.6</ele>
        <time>2024-08-05T09:52:53Z</time>
      </trkpt>
      <trkpt lat="47.13651" lon="5.89778">
        <ele>368.6</ele>
        <time>2024-08-05T09:52:54Z</time>
      </trkpt>
      <trkpt lat="47.13651" lon="5.89778">
        <ele>368.6</ele>
        <time>2024-08-05T09:52:55Z</time>
      </trkpt>
      <trkpt lat="47.13651" lon="5.89778">
        <ele>368.6</ele>
        <time>2024-08-05T09:52:56Z</time>
      </trkpt>
      <trkpt lat="47.13651" lon="5.89778">
        <ele>368.6</ele>
        <time>2024-08-05T09:52:57Z</time>
      </trkpt>
      <trkpt lat="47.13651" lon="5.89778">
        <ele>368.6</ele>
        <time>2024-08-05T09:52:58Z</time>
      </trkpt>
      <trkpt lat="47.13651" lon="5.89778">
        <ele>368.8</ele>
        <time>2024-08-05T09:52:59Z</time>
      </trkpt>
      <trkpt lat="47.13651" lon="5.89778">
        <ele>368.8</ele>
        <time>2024-08-05T09:53:00Z</time>
      </trkpt>
      <trkpt lat="47.13651" lon="5.89778">
        <ele>368.8</ele>
        <time>2024-08-05T09:53:01Z</time>
      </trkpt>
      <trkpt lat="47.13651" lon="5.89777">
        <ele>368.6</ele>
        <time>2024-08-05T09:53:02Z</time>
      </trkpt>
      <trkpt lat="47.13651" lon="5.89777">
        <ele>368.6</ele>
        <time>2024-08-05T09:53:03Z</time>
      </trkpt>
      <trkpt lat="47.1365" lon="5.89777">
        <ele>368.8</ele>
        <time>2024-08-05T09:53:04Z</time>
      </trkpt>
      <trkpt lat="47.1365" lon="5.89777">
        <ele>368.8</ele>
        <time>2024-08-05T09:53:05Z</time>
      </trkpt>
      <trkpt lat="47.1365" lon="5.89776">
        <ele>368.8</ele>
        <time>2024-08-05T09:53:06Z</time>
      </trkpt>
      <trkpt lat="47.1365" lon="5.89776">
        <ele>368.6</ele>
        <time>2024-08-05T09:53:07Z</time>
      </trkpt>
      <trkpt lat="47.13651" lon="5.89776">
        <ele>368.6</ele>
        <time>2024-08-05T09:53:08Z</time>
      </trkpt>
      <trkpt lat="47.13651" lon="5.89776">
        <ele>368.8</ele>
        <time>2024-08-05T09:53:09Z</time>
      </trkpt>
      <trkpt lat="47.13651" lon="5.89776">
        <ele>368.8</ele>
        <time>2024-08-05T09:53:10Z</time>
      </trkpt>
      <trkpt lat="47.13652" lon="5.89776">
        <ele>368.8</ele>
        <time>2024-08-05T09:53:11Z</time>
      </trkpt>
      <trkpt lat="47.13652" lon="5.89776">
        <ele>368.6</ele>
        <time>2024-08-05T09:53:12Z</time>
      </trkpt>
      <trkpt lat="47.13653" lon="5.89776">
        <ele>368.6</ele>
        <time>2024-08-05T09:53:13Z</time>
      </trkpt>
      <trkpt lat="47.13653" lon="5.89776">
        <ele>368.8</ele>
        <time>2024-08-05T09:53:14Z</time>
      </trkpt>
      <trkpt lat="47.13653" lon="5.89776">
        <ele>368.8</ele>
        <time>2024-08-05T09:53:15Z</time>
      </trkpt>
      <trkpt lat="47.13653" lon="5.89776">
        <ele>368.8</ele>
        <time>2024-08-05T09:53:16Z</time>
      </trkpt>
      <trkpt lat="47.13653" lon="5.89776">
        <ele>368.8</ele>
        <time>2024-08-05T09:53:17Z</time>
      </trkpt>
      <trkpt lat="47.13653" lon="5.89776">
        <ele>368.6</ele>
        <time>2024-08-05T09:53:18Z</time>
      </trkpt>
      <trkpt lat="47.13653" lon="5.89776">
        <ele>368.6</ele>
        <time>2024-08-05T09:53:19Z</time>
      </trkpt>
      <trkpt lat="47.13653" lon="5.89776">
        <ele>368.6</ele>
        <time>2024-08-05T09:53:20Z</time>
      </trkpt>
      <trkpt lat="47.13653" lon="5.89776">
        <ele>368.6</ele>
        <time>2024-08-05T09:53:21Z</time>
      </trkpt>
      <trkpt lat="47.13654" lon="5.89776">
        <ele>368.6</ele>
        <time>2024-08-05T09:53:22Z</time>
      </trkpt>
      <trkpt lat="47.13654" lon="5.89776">
        <ele>368.6</ele>
        <time>2024-08-05T09:53:23Z</time>
      </trkpt>
      <trkpt lat="47.13654" lon="5.89775">
        <ele>368.6</ele>
        <time>2024-08-05T09:53:24Z</time>
      </trkpt>
      <trkpt lat="47.13654" lon="5.89775">
        <ele>368.4</ele>
        <time>2024-08-05T09:53:25Z</time>
      </trkpt>
      <trkpt lat="47.13654" lon="5.89775">
        <ele>368.6</ele>
        <time>2024-08-05T09:53:26Z</time>
      </trkpt>
      <trkpt lat="47.13654" lon="5.89775">
        <ele>368.6</ele>
        <time>2024-08-05T09:53:27Z</time>
      </trkpt>
      <trkpt lat="47.13654" lon="5.89775">
        <ele>368.6</ele>
        <time>2024-08-05T09:53:28Z</time>
      </trkpt>
      <trkpt lat="47.13655" lon="5.89775">
        <ele>368.6</ele>
        <time>2024-08-05T09:53:29Z</time>
      </trkpt>
      <trkpt lat="47.13655" lon="5.89775">
        <ele>368.6</ele>
        <time>2024-08-05T09:53:30Z</time>
      </trkpt>
      <trkpt lat="47.13655" lon="5.89775">
        <ele>368.4</ele>
        <time>2024-08-05T09:53:31Z</time>
      </trkpt>
      <trkpt lat="47.13655" lon="5.89775">
        <ele>368.6</ele>
        <time>2024-08-05T09:53:32Z</time>
      </trkpt>
      <trkpt lat="47.13655" lon="5.89775">
        <ele>368.6</ele>
        <time>2024-08-05T09:53:33Z</time>
      </trkpt>
      <trkpt lat="47.13655" lon="5.89775">
        <ele>368.6</ele>
        <time>2024-08-05T09:53:34Z</time>
      </trkpt>
      <trkpt lat="47.13655" lon="5.89775">
        <ele>368.4</ele>
        <time>2024-08-05T09:53:35Z</time>
      </trkpt>
      <trkpt lat="47.13655" lon="5.89775">
        <ele>368.6</ele>
        <time>2024-08-05T09:53:36Z</time>
      </trkpt>
      <trkpt lat="47.13655" lon="5.89775">
        <ele>368.6</ele>
        <time>2024-08-05T09:53:37Z</time>
      </trkpt>
      <trkpt lat="47.13655" lon="5.89775">
        <ele>368.4</ele>
        <time>2024-08-05T09:53:38Z</time>
      </trkpt>
      <trkpt lat="47.13655" lon="5.89775">
        <ele>368.6</ele>
        <time>2024-08-05T09:53:39Z</time>
      </trkpt>
      <trkpt lat="47.13655" lon="5.89775">
        <ele>368.4</ele>
        <time>2024-08-05T09:53:40Z</time>
      </trkpt>
      <trkpt lat="47.13655" lon="5.89775">
        <ele>368.6</ele>
        <time>2024-08-05T09:53:41Z</time>
      </trkpt>
      <trkpt lat="47.13655" lon="5.89775">
        <ele>368.6</ele>
        <time>2024-08-05T09:53:42Z</time>
      </trkpt>
      <trkpt lat="47.13655" lon="5.89775">
        <ele>368.6</ele>
        <time>2024-08-05T09:53:43Z</time>
      </trkpt>
      <trkpt lat="47.13655" lon="5.89775">
        <ele>368.4</ele>
        <time>2024-08-05T09:53:44Z</time>
      </trkpt>
      <trkpt lat="47.13655" lon="5.89775">
        <ele>368.6</ele>
        <time>2024-08-05T09:53:45Z</time>
      </trkpt>
      <trkpt lat="47.13655" lon="5.89775">
        <ele>368.6</ele>
        <time>2024-08-05T09:53:46Z</time>
      </trkpt>
      <trkpt lat="47.13655" lon="5.89775">
        <ele>368.6</ele>
        <time>2024-08-05T09:53:47Z</time>
      </trkpt>
      <trkpt lat="47.13655" lon="5.89775">
        <ele>368.6</ele>
        <time>2024-08-05T09:53:48Z</time>
      </trkpt>
      <trkpt lat="47.13655" lon="5.89775">
        <ele>368.6</ele>
        <time>2024-08-05T09:53:49Z</time>
      </trkpt>
      <trkpt lat="47.13655" lon="5.89775">
        <ele>368.6</ele>
        <time>2024-08-05T09:53:50Z</time>
      </trkpt>
      <trkpt lat="47.13655" lon="5.89775">
        <ele>368.6</ele>
        <time>2024-08-05T09:53:51Z</time>
      </trkpt>
      <trkpt lat="47.13655" lon="5.89775">
        <ele>368.6</ele>
        <time>2024-08-05T09:53:52Z</time>
      </trkpt>
      <trkpt lat="47.13655" lon="5.89775">
        <ele>368.6</ele>
        <time>2024-08-05T09:53:53Z</time>
      </trkpt>
      <trkpt lat="47.13655" lon="5.89775">
        <ele>368.6</ele>
        <time>2024-08-05T09:53:54Z</time>
      </trkpt>
      <trkpt lat="47.13655" lon="5.89775">
        <ele>368.4</ele>
        <time>2024-08-05T09:53:55Z</time>
      </trkpt>
      <trkpt lat="47.13655" lon="5.89775">
        <ele>368.6</ele>
        <time>2024-08-05T09:53:56Z</time>
      </trkpt>
      <trkpt lat="47.13655" lon="5.89775">
        <ele>368.6</ele>
        <time>2024-08-05T09:53:57Z</time>
      </trkpt>
      <trkpt lat="47.13655" lon="5.89775">
        <ele>368.6</ele>
        <time>2024-08-05T09:53:58Z</time>
      </trkpt>
      <trkpt lat="47.13655" lon="5.89775">
        <ele>368.6</ele>
        <time>2024-08-05T09:53:59Z</time>
      </trkpt>
      <trkpt lat="47.13655" lon="5.89775">
        <ele>368.4</ele>
        <time>2024-08-05T09:54:00Z</time>
      </trkpt>
      <trkpt lat="47.13655" lon="5.89775">
        <ele>368.4</ele>
        <time>2024-08-05T09:54:01Z</time>
      </trkpt>
      <trkpt lat="47.13655" lon="5.89775">
        <ele>368.4</ele>
        <time>2024-08-05T09:54:02Z</time>
      </trkpt>
      <trkpt lat="47.13655" lon="5.89774">
        <ele>368.4</ele>
        <time>2024-08-05T09:54:03Z</time>
      </trkpt>
      <trkpt lat="47.13655" lon="5.89774">
        <ele>368.4</ele>
        <time>2024-08-05T09:54:04Z</time>
      </trkpt>
      <trkpt lat="47.13655" lon="5.89773">
        <ele>368.4</ele>
        <time>2024-08-05T09:54:05Z</time>
      </trkpt>
      <trkpt lat="47.13654" lon="5.89773">
        <ele>368.4</ele>
        <time>2024-08-05T09:54:06Z</time>
      </trkpt>
      <trkpt lat="47.13654" lon="5.89773">
        <ele>368.4</ele>
        <time>2024-08-05T09:54:07Z</time>
      </trkpt>
      <trkpt lat="47.13654" lon="5.89773">
        <ele>368.6</ele>
        <time>2024-08-05T09:54:08Z</time>
      </trkpt>
      <trkpt lat="47.13654" lon="5.89773">
        <ele>368.4</ele>
        <time>2024-08-05T09:54:09Z</time>
      </trkpt>
      <trkpt lat="47.13653" lon="5.89774">
        <ele>368.4</ele>
        <time>2024-08-05T09:54:10Z</time>
      </trkpt>
      <trkpt lat="47.13651" lon="5.89775">
        <ele>368.4</ele>
        <time>2024-08-05T09:54:11Z</time>
      </trkpt>
      <trkpt lat="47.13649" lon="5.89776">
        <ele>368.6</ele>
        <time>2024-08-05T09:54:12Z</time>
      </trkpt>
      <trkpt lat="47.13648" lon="5.89777">
        <ele>368.6</ele>
        <time>2024-08-05T09:54:13Z</time>
      </trkpt>
      <trkpt lat="47.13646" lon="5.89778">
        <ele>368.6</ele>
        <time>2024-08-05T09:54:14Z</time>
      </trkpt>
      <trkpt lat="47.13645" lon="5.89779">
        <ele>368.8</ele>
        <time>2024-08-05T09:54:15Z</time>
      </trkpt>
      <trkpt lat="47.13644" lon="5.8978">
        <ele>368.8</ele>
        <time>2024-08-05T09:54:16Z</time>
      </trkpt>
      <trkpt lat="47.13643" lon="5.89782">
        <ele>369</ele>
        <time>2024-08-05T09:54:17Z</time>
      </trkpt>
      <trkpt lat="47.13642" lon="5.89783">
        <ele>369</ele>
        <time>2024-08-05T09:54:18Z</time>
      </trkpt>
      <trkpt lat="47.13641" lon="5.89786">
        <ele>369</ele>
        <time>2024-08-05T09:54:19Z</time>
      </trkpt>
      <trkpt lat="47.13641" lon="5.89788">
        <ele>369</ele>
        <time>2024-08-05T09:54:20Z</time>
      </trkpt>
      <trkpt lat="47.1364" lon="5.89792">
        <ele>369</ele>
        <time>2024-08-05T09:54:21Z</time>
      </trkpt>
      <trkpt lat="47.1364" lon="5.89795">
        <ele>369</ele>
        <time>2024-08-05T09:54:22Z</time>
      </trkpt>
      <trkpt lat="47.13638" lon="5.89799">
        <ele>369</ele>
        <time>2024-08-05T09:54:23Z</time>
      </trkpt>
      <trkpt lat="47.13637" lon="5.89803">
        <ele>369</ele>
        <time>2024-08-05T09:54:24Z</time>
      </trkpt>
      <trkpt lat="47.13636" lon="5.89807">
        <ele>369</ele>
        <time>2024-08-05T09:54:25Z</time>
      </trkpt>
      <trkpt lat="47.13635" lon="5.89811">
        <ele>369</ele>
        <time>2024-08-05T09:54:26Z</time>
      </trkpt>
      <trkpt lat="47.13635" lon="5.89815">
        <ele>369</ele>
        <time>2024-08-05T09:54:27Z</time>
      </trkpt>
      <trkpt lat="47.13634" lon="5.89819">
        <ele>369</ele>
        <time>2024-08-05T09:54:28Z</time>
      </trkpt>
      <trkpt lat="47.13634" lon="5.89824">
        <ele>369</ele>
        <time>2024-08-05T09:54:29Z</time>
      </trkpt>
      <trkpt lat="47.13633" lon="5.89829">
        <ele>369</ele>
        <time>2024-08-05T09:54:30Z</time>
      </trkpt>
      <trkpt lat="47.13632" lon="5.89834">
        <ele>369</ele>
        <time>2024-08-05T09:54:31Z</time>
      </trkpt>
      <trkpt lat="47.13631" lon="5.89838">
        <ele>369</ele>
        <time>2024-08-05T09:54:32Z</time>
      </trkpt>
      <trkpt lat="47.1363" lon="5.89843">
        <ele>369</ele>
        <time>2024-08-05T09:54:33Z</time>
      </trkpt>
      <trkpt lat="47.1363" lon="5.89847">
        <ele>369</ele>
        <time>2024-08-05T09:54:34Z</time>
      </trkpt>
      <trkpt lat="47.13629" lon="5.89852">
        <ele>369</ele>
        <time>2024-08-05T09:54:35Z</time>
      </trkpt>
      <trkpt lat="47.13629" lon="5.89856">
        <ele>369</ele>
        <time>2024-08-05T09:54:36Z</time>
      </trkpt>
      <trkpt lat="47.13628" lon="5.89861">
        <ele>369</ele>
        <time>2024-08-05T09:54:37Z</time>
      </trkpt>
      <trkpt lat="47.13628" lon="5.89866">
        <ele>369</ele>
        <time>2024-08-05T09:54:38Z</time>
      </trkpt>
      <trkpt lat="47.13626" lon="5.8987">
        <ele>369.2</ele>
        <time>2024-08-05T09:54:39Z</time>
      </trkpt>
      <trkpt lat="47.13625" lon="5.89874">
        <ele>369</ele>
        <time>2024-08-05T09:54:40Z</time>
      </trkpt>
      <trkpt lat="47.13624" lon="5.89879">
        <ele>369.2</ele>
        <time>2024-08-05T09:54:41Z</time>
      </trkpt>
      <trkpt lat="47.13623" lon="5.89882">
        <ele>369</ele>
        <time>2024-08-05T09:54:42Z</time>
      </trkpt>
      <trkpt lat="47.13622" lon="5.89887">
        <ele>369.2</ele>
        <time>2024-08-05T09:54:43Z</time>
      </trkpt>
      <trkpt lat="47.1362" lon="5.8989">
        <ele>369.2</ele>
        <time>2024-08-05T09:54:44Z</time>
      </trkpt>
      <trkpt lat="47.13619" lon="5.89893">
        <ele>369</ele>
        <time>2024-08-05T09:54:45Z</time>
      </trkpt>
      <trkpt lat="47.13618" lon="5.89896">
        <ele>369.2</ele>
        <time>2024-08-05T09:54:46Z</time>
      </trkpt>
      <trkpt lat="47.13617" lon="5.899">
        <ele>369.4</ele>
        <time>2024-08-05T09:54:47Z</time>
      </trkpt>
      <trkpt lat="47.13615" lon="5.89903">
        <ele>369.4</ele>
        <time>2024-08-05T09:54:48Z</time>
      </trkpt>
      <trkpt lat="47.13614" lon="5.89906">
        <ele>369.6</ele>
        <time>2024-08-05T09:54:49Z</time>
      </trkpt>
      <trkpt lat="47.13613" lon="5.89909">
        <ele>370</ele>
        <time>2024-08-05T09:54:50Z</time>
      </trkpt>
      <trkpt lat="47.13612" lon="5.89912">
        <ele>370</ele>
        <time>2024-08-05T09:54:51Z</time>
      </trkpt>
      <trkpt lat="47.13611" lon="5.89914">
        <ele>370.2</ele>
        <time>2024-08-05T09:54:52Z</time>
      </trkpt>
      <trkpt lat="47.13609" lon="5.89918">
        <ele>370.6</ele>
        <time>2024-08-05T09:54:53Z</time>
      </trkpt>
      <trkpt lat="47.13608" lon="5.8992">
        <ele>370.8</ele>
        <time>2024-08-05T09:54:54Z</time>
      </trkpt>
      <trkpt lat="47.13606" lon="5.89922">
        <ele>371.2</ele>
        <time>2024-08-05T09:54:55Z</time>
      </trkpt>
      <trkpt lat="47.13605" lon="5.89924">
        <ele>371.4</ele>
        <time>2024-08-05T09:54:56Z</time>
      </trkpt>
      <trkpt lat="47.13603" lon="5.89927">
        <ele>371.8</ele>
        <time>2024-08-05T09:54:57Z</time>
      </trkpt>
      <trkpt lat="47.13602" lon="5.89929">
        <ele>371.8</ele>
        <time>2024-08-05T09:54:58Z</time>
      </trkpt>
      <trkpt lat="47.136" lon="5.8993">
        <ele>372</ele>
        <time>2024-08-05T09:54:59Z</time>
      </trkpt>
      <trkpt lat="47.13599" lon="5.89932">
        <ele>372.4</ele>
        <time>2024-08-05T09:55:00Z</time>
      </trkpt>
      <trkpt lat="47.13598" lon="5.89934">
        <ele>372.8</ele>
        <time>2024-08-05T09:55:01Z</time>
      </trkpt>
      <trkpt lat="47.13596" lon="5.89936">
        <ele>373</ele>
        <time>2024-08-05T09:55:02Z</time>
      </trkpt>
      <trkpt lat="47.13595" lon="5.89939">
        <ele>373.4</ele>
        <time>2024-08-05T09:55:03Z</time>
      </trkpt>
      <trkpt lat="47.13595" lon="5.89941">
        <ele>374</ele>
        <time>2024-08-05T09:55:04Z</time>
      </trkpt>
      <trkpt lat="47.13594" lon="5.89945">
        <ele>374.4</ele>
        <time>2024-08-05T09:55:05Z</time>
      </trkpt>
      <trkpt lat="47.13594" lon="5.89947">
        <ele>374.8</ele>
        <time>2024-08-05T09:55:06Z</time>
      </trkpt>
      <trkpt lat="47.13593" lon="5.89948">
        <ele>375.2</ele>
        <time>2024-08-05T09:55:07Z</time>
      </trkpt>
      <trkpt lat="47.13593" lon="5.8995">
        <ele>375.4</ele>
        <time>2024-08-05T09:55:08Z</time>
      </trkpt>
      <trkpt lat="47.13593" lon="5.89953">
        <ele>376</ele>
        <time>2024-08-05T09:55:09Z</time>
      </trkpt>
      <trkpt lat="47.13594" lon="5.89955">
        <ele>376.4</ele>
        <time>2024-08-05T09:55:10Z</time>
      </trkpt>
      <trkpt lat="47.13595" lon="5.89959">
        <ele>376.6</ele>
        <time>2024-08-05T09:55:11Z</time>
      </trkpt>
      <trkpt lat="47.13596" lon="5.89962">
        <ele>377</ele>
        <time>2024-08-05T09:55:12Z</time>
      </trkpt>
      <trkpt lat="47.13597" lon="5.89964">
        <ele>377.2</ele>
        <time>2024-08-05T09:55:13Z</time>
      </trkpt>
      <trkpt lat="47.13599" lon="5.89967">
        <ele>377.6</ele>
        <time>2024-08-05T09:55:14Z</time>
      </trkpt>
      <trkpt lat="47.13602" lon="5.89971">
        <ele>377.8</ele>
        <time>2024-08-05T09:55:15Z</time>
      </trkpt>
      <trkpt lat="47.13605" lon="5.89974">
        <ele>378</ele>
        <time>2024-08-05T09:55:16Z</time>
      </trkpt>
      <trkpt lat="47.13608" lon="5.89978">
        <ele>378</ele>
        <time>2024-08-05T09:55:17Z</time>
      </trkpt>
      <trkpt lat="47.13612" lon="5.89983">
        <ele>378.2</ele>
        <time>2024-08-05T09:55:18Z</time>
      </trkpt>
      <trkpt lat="47.13615" lon="5.89987">
        <ele>378.2</ele>
        <time>2024-08-05T09:55:19Z</time>
      </trkpt>
      <trkpt lat="47.13619" lon="5.89991">
        <ele>378.2</ele>
        <time>2024-08-05T09:55:20Z</time>
      </trkpt>
      <trkpt lat="47.13623" lon="5.89996">
        <ele>378</ele>
        <time>2024-08-05T09:55:21Z</time>
      </trkpt>
      <trkpt lat="47.13628" lon="5.90001">
        <ele>378.2</ele>
        <time>2024-08-05T09:55:22Z</time>
      </trkpt>
      <trkpt lat="47.13632" lon="5.90006">
        <ele>378.2</ele>
        <time>2024-08-05T09:55:23Z</time>
      </trkpt>
      <trkpt lat="47.13637" lon="5.90012">
        <ele>378.2</ele>
        <time>2024-08-05T09:55:24Z</time>
      </trkpt>
      <trkpt lat="47.13642" lon="5.90018">
        <ele>378.2</ele>
        <time>2024-08-05T09:55:25Z</time>
      </trkpt>
      <trkpt lat="47.13647" lon="5.90025">
        <ele>378.2</ele>
        <time>2024-08-05T09:55:26Z</time>
      </trkpt>
      <trkpt lat="47.13652" lon="5.90032">
        <ele>377.8</ele>
        <time>2024-08-05T09:55:27Z</time>
      </trkpt>
      <trkpt lat="47.13658" lon="5.90039">
        <ele>378</ele>
        <time>2024-08-05T09:55:28Z</time>
      </trkpt>
      <trkpt lat="47.13663" lon="5.90048">
        <ele>377.6</ele>
        <time>2024-08-05T09:55:29Z</time>
      </trkpt>
      <trkpt lat="47.13669" lon="5.90056">
        <ele>377.2</ele>
        <time>2024-08-05T09:55:30Z</time>
      </trkpt>
      <trkpt lat="47.13675" lon="5.90065">
        <ele>377</ele>
        <time>2024-08-05T09:55:31Z</time>
      </trkpt>
      <trkpt lat="47.13681" lon="5.90075">
        <ele>376.4</ele>
        <time>2024-08-05T09:55:32Z</time>
      </trkpt>
      <trkpt lat="47.13687" lon="5.90083">
        <ele>376.2</ele>
        <time>2024-08-05T09:55:33Z</time>
      </trkpt>
      <trkpt lat="47.13693" lon="5.90092">
        <ele>375.8</ele>
        <time>2024-08-05T09:55:34Z</time>
      </trkpt>
      <trkpt lat="47.13699" lon="5.90101">
        <ele>375.6</ele>
        <time>2024-08-05T09:55:35Z</time>
      </trkpt>
      <trkpt lat="47.13705" lon="5.90109">
        <ele>375</ele>
        <time>2024-08-05T09:55:36Z</time>
      </trkpt>
      <trkpt lat="47.13711" lon="5.90118">
        <ele>374.8</ele>
        <time>2024-08-05T09:55:37Z</time>
      </trkpt>
      <trkpt lat="47.13718" lon="5.90126">
        <ele>374.4</ele>
        <time>2024-08-05T09:55:38Z</time>
      </trkpt>
      <trkpt lat="47.13724" lon="5.90134">
        <ele>374</ele>
        <time>2024-08-05T09:55:39Z</time>
      </trkpt>
      <trkpt lat="47.1373" lon="5.90143">
        <ele>373.8</ele>
        <time>2024-08-05T09:55:40Z</time>
      </trkpt>
      <trkpt lat="47.13736" lon="5.90151">
        <ele>373.6</ele>
        <time>2024-08-05T09:55:41Z</time>
      </trkpt>
      <trkpt lat="47.13742" lon="5.90159">
        <ele>373.6</ele>
        <time>2024-08-05T09:55:42Z</time>
      </trkpt>
      <trkpt lat="47.13748" lon="5.90167">
        <ele>373.4</ele>
        <time>2024-08-05T09:55:43Z</time>
      </trkpt>
      <trkpt lat="47.13755" lon="5.90174">
        <ele>372.8</ele>
        <time>2024-08-05T09:55:44Z</time>
      </trkpt>
      <trkpt lat="47.13761" lon="5.90182">
        <ele>372.6</ele>
        <time>2024-08-05T09:55:45Z</time>
      </trkpt>
      <trkpt lat="47.13767" lon="5.9019">
        <ele>372</ele>
        <time>2024-08-05T09:55:46Z</time>
      </trkpt>
      <trkpt lat="47.13773" lon="5.90197">
        <ele>371.6</ele>
        <time>2024-08-05T09:55:47Z</time>
      </trkpt>
      <trkpt lat="47.13778" lon="5.90205">
        <ele>371</ele>
        <time>2024-08-05T09:55:48Z</time>
      </trkpt>
      <trkpt lat="47.13783" lon="5.90213">
        <ele>370.6</ele>
        <time>2024-08-05T09:55:49Z</time>
      </trkpt>
      <trkpt lat="47.13788" lon="5.90221">
        <ele>370.4</ele>
        <time>2024-08-05T09:55:50Z</time>
      </trkpt>
      <trkpt lat="47.13793" lon="5.90229">
        <ele>370.2</ele>
        <time>2024-08-05T09:55:51Z</time>
      </trkpt>
      <trkpt lat="47.13797" lon="5.90237">
        <ele>369.6</ele>
        <time>2024-08-05T09:55:52Z</time>
      </trkpt>
      <trkpt lat="47.13801" lon="5.90244">
        <ele>369.2</ele>
        <time>2024-08-05T09:55:53Z</time>
      </trkpt>
      <trkpt lat="47.13805" lon="5.90252">
        <ele>368.8</ele>
        <time>2024-08-05T09:55:54Z</time>
      </trkpt>
      <trkpt lat="47.13809" lon="5.90259">
        <ele>368.6</ele>
        <time>2024-08-05T09:55:55Z</time>
      </trkpt>
      <trkpt lat="47.13812" lon="5.90266">
        <ele>368.2</ele>
        <time>2024-08-05T09:55:56Z</time>
      </trkpt>
      <trkpt lat="47.13816" lon="5.90273">
        <ele>368</ele>
        <time>2024-08-05T09:55:57Z</time>
      </trkpt>
      <trkpt lat="47.13819" lon="5.9028">
        <ele>367.8</ele>
        <time>2024-08-05T09:55:58Z</time>
      </trkpt>
      <trkpt lat="47.13822" lon="5.90288">
        <ele>367.4</ele>
        <time>2024-08-05T09:55:59Z</time>
      </trkpt>
      <trkpt lat="47.13825" lon="5.90295">
        <ele>367</ele>
        <time>2024-08-05T09:56:00Z</time>
      </trkpt>
      <trkpt lat="47.13829" lon="5.90302">
        <ele>367</ele>
        <time>2024-08-05T09:56:01Z</time>
      </trkpt>
      <trkpt lat="47.13832" lon="5.90309">
        <ele>366.8</ele>
        <time>2024-08-05T09:56:02Z</time>
      </trkpt>
      <trkpt lat="47.13835" lon="5.90316">
        <ele>366.8</ele>
        <time>2024-08-05T09:56:03Z</time>
      </trkpt>
      <trkpt lat="47.13838" lon="5.90323">
        <ele>366.8</ele>
        <time>2024-08-05T09:56:04Z</time>
      </trkpt>
      <trkpt lat="47.13841" lon="5.90331">
        <ele>366.6</ele>
        <time>2024-08-05T09:56:05Z</time>
      </trkpt>
      <trkpt lat="47.13844" lon="5.90339">
        <ele>366.4</ele>
        <time>2024-08-05T09:56:06Z</time>
      </trkpt>
      <trkpt lat="47.13847" lon="5.90347">
        <ele>366</ele>
        <time>2024-08-05T09:56:07Z</time>
      </trkpt>
      <trkpt lat="47.13851" lon="5.90356">
        <ele>365.8</ele>
        <time>2024-08-05T09:56:08Z</time>
      </trkpt>
      <trkpt lat="47.13854" lon="5.90365">
        <ele>365.6</ele>
        <time>2024-08-05T09:56:09Z</time>
      </trkpt>
      <trkpt lat="47.13858" lon="5.90374">
        <ele>365.2</ele>
        <time>2024-08-05T09:56:10Z</time>
      </trkpt>
      <trkpt lat="47.13862" lon="5.90383">
        <ele>365.2</ele>
        <time>2024-08-05T09:56:11Z</time>
      </trkpt>
      <trkpt lat="47.13866" lon="5.90393">
        <ele>365</ele>
        <time>2024-08-05T09:56:12Z</time>
      </trkpt>
      <trkpt lat="47.13871" lon="5.90403">
        <ele>364.8</ele>
        <time>2024-08-05T09:56:13Z</time>
      </trkpt>
      <trkpt lat="47.13875" lon="5.90412">
        <ele>364.4</ele>
        <time>2024-08-05T09:56:14Z</time>
      </trkpt>
      <trkpt lat="47.1388" lon="5.90422">
        <ele>364</ele>
        <time>2024-08-05T09:56:15Z</time>
      </trkpt>
      <trkpt lat="47.13885" lon="5.90431">
        <ele>363.6</ele>
        <time>2024-08-05T09:56:16Z</time>
      </trkpt>
      <trkpt lat="47.13891" lon="5.9044">
        <ele>363.4</ele>
        <time>2024-08-05T09:56:17Z</time>
      </trkpt>
      <trkpt lat="47.13896" lon="5.90449">
        <ele>363</ele>
        <time>2024-08-05T09:56:18Z</time>
      </trkpt>
      <trkpt lat="47.13901" lon="5.90457">
        <ele>362.6</ele>
        <time>2024-08-05T09:56:19Z</time>
      </trkpt>
      <trkpt lat="47.13906" lon="5.90465">
        <ele>362.2</ele>
        <time>2024-08-05T09:56:20Z</time>
      </trkpt>
      <trkpt lat="47.1391" lon="5.90471">
        <ele>361.2</ele>
        <time>2024-08-05T09:56:21Z</time>
      </trkpt>
      <trkpt lat="47.13915" lon="5.90478">
        <ele>360.4</ele>
        <time>2024-08-05T09:56:22Z</time>
      </trkpt>
      <trkpt lat="47.13919" lon="5.90483">
        <ele>359.8</ele>
        <time>2024-08-05T09:56:23Z</time>
      </trkpt>
      <trkpt lat="47.13924" lon="5.90489">
        <ele>359.4</ele>
        <time>2024-08-05T09:56:24Z</time>
      </trkpt>
      <trkpt lat="47.13929" lon="5.90494">
        <ele>359.4</ele>
        <time>2024-08-05T09:56:25Z</time>
      </trkpt>
      <trkpt lat="47.13933" lon="5.90499">
        <ele>359.2</ele>
        <time>2024-08-05T09:56:26Z</time>
      </trkpt>
      <trkpt lat="47.13937" lon="5.90504">
        <ele>359.2</ele>
        <time>2024-08-05T09:56:27Z</time>
      </trkpt>
      <trkpt lat="47.13941" lon="5.90508">
        <ele>359</ele>
        <time>2024-08-05T09:56:28Z</time>
      </trkpt>
      <trkpt lat="47.13946" lon="5.90512">
        <ele>359</ele>
        <time>2024-08-05T09:56:29Z</time>
      </trkpt>
      <trkpt lat="47.1395" lon="5.90515">
        <ele>359</ele>
        <time>2024-08-05T09:56:30Z</time>
      </trkpt>
      <trkpt lat="47.13954" lon="5.90518">
        <ele>359.2</ele>
        <time>2024-08-05T09:56:31Z</time>
      </trkpt>
      <trkpt lat="47.13958" lon="5.90521">
        <ele>359</ele>
        <time>2024-08-05T09:56:32Z</time>
      </trkpt>
      <trkpt lat="47.13962" lon="5.90523">
        <ele>359</ele>
        <time>2024-08-05T09:56:33Z</time>
      </trkpt>
      <trkpt lat="47.13965" lon="5.90526">
        <ele>359.2</ele>
        <time>2024-08-05T09:56:34Z</time>
      </trkpt>
      <trkpt lat="47.13968" lon="5.90528">
        <ele>359</ele>
        <time>2024-08-05T09:56:35Z</time>
      </trkpt>
      <trkpt lat="47.13971" lon="5.9053">
        <ele>359.2</ele>
        <time>2024-08-05T09:56:36Z</time>
      </trkpt>
      <trkpt lat="47.13975" lon="5.90532">
        <ele>359.6</ele>
        <time>2024-08-05T09:56:37Z</time>
      </trkpt>
      <trkpt lat="47.13978" lon="5.90534">
        <ele>359.8</ele>
        <time>2024-08-05T09:56:38Z</time>
      </trkpt>
      <trkpt lat="47.13981" lon="5.90535">
        <ele>360</ele>
        <time>2024-08-05T09:56:39Z</time>
      </trkpt>
      <trkpt lat="47.13984" lon="5.90536">
        <ele>360</ele>
        <time>2024-08-05T09:56:40Z</time>
      </trkpt>
      <trkpt lat="47.13987" lon="5.90538">
        <ele>360.4</ele>
        <time>2024-08-05T09:56:41Z</time>
      </trkpt>
      <trkpt lat="47.1399" lon="5.90539">
        <ele>360.4</ele>
        <time>2024-08-05T09:56:42Z</time>
      </trkpt>
      <trkpt lat="47.13995" lon="5.9054">
        <ele>360.6</ele>
        <time>2024-08-05T09:56:43Z</time>
      </trkpt>
      <trkpt lat="47.13998" lon="5.90541">
        <ele>361</ele>
        <time>2024-08-05T09:56:44Z</time>
      </trkpt>
      <trkpt lat="47.14002" lon="5.90542">
        <ele>361</ele>
        <time>2024-08-05T09:56:45Z</time>
      </trkpt>
      <trkpt lat="47.14006" lon="5.90543">
        <ele>361.2</ele>
        <time>2024-08-05T09:56:46Z</time>
      </trkpt>
      <trkpt lat="47.14009" lon="5.90544">
        <ele>361.2</ele>
        <time>2024-08-05T09:56:47Z</time>
      </trkpt>
      <trkpt lat="47.14013" lon="5.90544">
        <ele>361.4</ele>
        <time>2024-08-05T09:56:48Z</time>
      </trkpt>
      <trkpt lat="47.14016" lon="5.90544">
        <ele>361.6</ele>
        <time>2024-08-05T09:56:49Z</time>
      </trkpt>
      <trkpt lat="47.14021" lon="5.90543">
        <ele>361.6</ele>
        <time>2024-08-05T09:56:50Z</time>
      </trkpt>
      <trkpt lat="47.14025" lon="5.90541">
        <ele>362</ele>
        <time>2024-08-05T09:56:51Z</time>
      </trkpt>
      <trkpt lat="47.1403" lon="5.90539">
        <ele>362</ele>
        <time>2024-08-05T09:56:52Z</time>
      </trkpt>
      <trkpt lat="47.14035" lon="5.90537">
        <ele>362.2</ele>
        <time>2024-08-05T09:56:53Z</time>
      </trkpt>
      <trkpt lat="47.1404" lon="5.90536">
        <ele>362</ele>
        <time>2024-08-05T09:56:54Z</time>
      </trkpt>
      <trkpt lat="47.14045" lon="5.90535">
        <ele>362.2</ele>
        <time>2024-08-05T09:56:55Z</time>
      </trkpt>
      <trkpt lat="47.14051" lon="5.90534">
        <ele>362.2</ele>
        <time>2024-08-05T09:56:56Z</time>
      </trkpt>
      <trkpt lat="47.14056" lon="5.90534">
        <ele>362.4</ele>
        <time>2024-08-05T09:56:57Z</time>
      </trkpt>
      <trkpt lat="47.1406" lon="5.90534">
        <ele>362.2</ele>
        <time>2024-08-05T09:56:58Z</time>
      </trkpt>
      <trkpt lat="47.14063" lon="5.90535">
        <ele>362.4</ele>
        <time>2024-08-05T09:56:59Z</time>
      </trkpt>
      <trkpt lat="47.14067" lon="5.90536">
        <ele>362.4</ele>
        <time>2024-08-05T09:57:00Z</time>
      </trkpt>
      <trkpt lat="47.1407" lon="5.90537">
        <ele>362.4</ele>
        <time>2024-08-05T09:57:01Z</time>
      </trkpt>
      <trkpt lat="47.14072" lon="5.90538">
        <ele>362.6</ele>
        <time>2024-08-05T09:57:02Z</time>
      </trkpt>
      <trkpt lat="47.14075" lon="5.90539">
        <ele>362.8</ele>
        <time>2024-08-05T09:57:03Z</time>
      </trkpt>
      <trkpt lat="47.14077" lon="5.90541">
        <ele>362.6</ele>
        <time>2024-08-05T09:57:04Z</time>
      </trkpt>
      <trkpt lat="47.14079" lon="5.90542">
        <ele>362.8</ele>
        <time>2024-08-05T09:57:05Z</time>
      </trkpt>
      <trkpt lat="47.14081" lon="5.90542">
        <ele>362.6</ele>
        <time>2024-08-05T09:57:06Z</time>
      </trkpt>
      <trkpt lat="47.14083" lon="5.90543">
        <ele>362.6</ele>
        <time>2024-08-05T09:57:07Z</time>
      </trkpt>
      <trkpt lat="47.14085" lon="5.90545">
        <ele>362.8</ele>
        <time>2024-08-05T09:57:08Z</time>
      </trkpt>
      <trkpt lat="47.14087" lon="5.90546">
        <ele>362.8</ele>
        <time>2024-08-05T09:57:09Z</time>
      </trkpt>
      <trkpt lat="47.14089" lon="5.90548">
        <ele>363</ele>
        <time>2024-08-05T09:57:10Z</time>
      </trkpt>
      <trkpt lat="47.14091" lon="5.90549">
        <ele>363.2</ele>
        <time>2024-08-05T09:57:11Z</time>
      </trkpt>
      <trkpt lat="47.14093" lon="5.90551">
        <ele>363.6</ele>
        <time>2024-08-05T09:57:12Z</time>
      </trkpt>
      <trkpt lat="47.14095" lon="5.90553">
        <ele>364</ele>
        <time>2024-08-05T09:57:13Z</time>
      </trkpt>
      <trkpt lat="47.14096" lon="5.90555">
        <ele>364.2</ele>
        <time>2024-08-05T09:57:14Z</time>
      </trkpt>
      <trkpt lat="47.14098" lon="5.90557">
        <ele>364.8</ele>
        <time>2024-08-05T09:57:15Z</time>
      </trkpt>
      <trkpt lat="47.14099" lon="5.90558">
        <ele>364.8</ele>
        <time>2024-08-05T09:57:16Z</time>
      </trkpt>
      <trkpt lat="47.14101" lon="5.90561">
        <ele>365.2</ele>
        <time>2024-08-05T09:57:17Z</time>
      </trkpt>
      <trkpt lat="47.14103" lon="5.90562">
        <ele>365.4</ele>
        <time>2024-08-05T09:57:18Z</time>
      </trkpt>
      <trkpt lat="47.14105" lon="5.90564">
        <ele>365.6</ele>
        <time>2024-08-05T09:57:19Z</time>
      </trkpt>
      <trkpt lat="47.14107" lon="5.90566">
        <ele>366</ele>
        <time>2024-08-05T09:57:20Z</time>
      </trkpt>
      <trkpt lat="47.14109" lon="5.90568">
        <ele>366.4</ele>
        <time>2024-08-05T09:57:21Z</time>
      </trkpt>
      <trkpt lat="47.14111" lon="5.90571">
        <ele>366.6</ele>
        <time>2024-08-05T09:57:22Z</time>
      </trkpt>
      <trkpt lat="47.14113" lon="5.90573">
        <ele>367</ele>
        <time>2024-08-05T09:57:23Z</time>
      </trkpt>
      <trkpt lat="47.14116" lon="5.90575">
        <ele>367.2</ele>
        <time>2024-08-05T09:57:24Z</time>
      </trkpt>
      <trkpt lat="47.14119" lon="5.90578">
        <ele>367.2</ele>
        <time>2024-08-05T09:57:25Z</time>
      </trkpt>
      <trkpt lat="47.14123" lon="5.90582">
        <ele>367.4</ele>
        <time>2024-08-05T09:57:26Z</time>
      </trkpt>
      <trkpt lat="47.14127" lon="5.90586">
        <ele>367.4</ele>
        <time>2024-08-05T09:57:27Z</time>
      </trkpt>
      <trkpt lat="47.14131" lon="5.90589">
        <ele>367.4</ele>
        <time>2024-08-05T09:57:28Z</time>
      </trkpt>
      <trkpt lat="47.14137" lon="5.90591">
        <ele>367.4</ele>
        <time>2024-08-05T09:57:29Z</time>
      </trkpt>
      <trkpt lat="47.14143" lon="5.90593">
        <ele>367.4</ele>
        <time>2024-08-05T09:57:30Z</time>
      </trkpt>
      <trkpt lat="47.14148" lon="5.90595">
        <ele>367.4</ele>
        <time>2024-08-05T09:57:31Z</time>
      </trkpt>
      <trkpt lat="47.14153" lon="5.90597">
        <ele>367.4</ele>
        <time>2024-08-05T09:57:32Z</time>
      </trkpt>
      <trkpt lat="47.14158" lon="5.906">
        <ele>367.4</ele>
        <time>2024-08-05T09:57:33Z</time>
      </trkpt>
      <trkpt lat="47.14164" lon="5.90604">
        <ele>367.4</ele>
        <time>2024-08-05T09:57:34Z</time>
      </trkpt>
      <trkpt lat="47.14169" lon="5.90607">
        <ele>367.2</ele>
        <time>2024-08-05T09:57:35Z</time>
      </trkpt>
      <trkpt lat="47.14174" lon="5.90611">
        <ele>367.2</ele>
        <time>2024-08-05T09:57:36Z</time>
      </trkpt>
      <trkpt lat="47.1418" lon="5.90614">
        <ele>367</ele>
        <time>2024-08-05T09:57:37Z</time>
      </trkpt>
      <trkpt lat="47.14186" lon="5.90617">
        <ele>366.8</ele>
        <time>2024-08-05T09:57:38Z</time>
      </trkpt>
      <trkpt lat="47.14191" lon="5.9062">
        <ele>366.2</ele>
        <time>2024-08-05T09:57:39Z</time>
      </trkpt>
      <trkpt lat="47.14196" lon="5.90622">
        <ele>366.2</ele>
        <time>2024-08-05T09:57:40Z</time>
      </trkpt>
      <trkpt lat="47.14203" lon="5.90624">
        <ele>365.8</ele>
        <time>2024-08-05T09:57:41Z</time>
      </trkpt>
      <trkpt lat="47.14207" lon="5.90627">
        <ele>365.8</ele>
        <time>2024-08-05T09:57:42Z</time>
      </trkpt>
      <trkpt lat="47.14212" lon="5.9063">
        <ele>365.6</ele>
        <time>2024-08-05T09:57:43Z</time>
      </trkpt>
      <trkpt lat="47.14217" lon="5.90633">
        <ele>365.4</ele>
        <time>2024-08-05T09:57:44Z</time>
      </trkpt>
      <trkpt lat="47.14222" lon="5.90635">
        <ele>365.4</ele>
        <time>2024-08-05T09:57:45Z</time>
      </trkpt>
      <trkpt lat="47.14227" lon="5.90637">
        <ele>365.4</ele>
        <time>2024-08-05T09:57:46Z</time>
      </trkpt>
      <trkpt lat="47.14231" lon="5.9064">
        <ele>365.4</ele>
        <time>2024-08-05T09:57:47Z</time>
      </trkpt>
      <trkpt lat="47.14235" lon="5.90641">
        <ele>365.4</ele>
        <time>2024-08-05T09:57:48Z</time>
      </trkpt>
      <trkpt lat="47.14239" lon="5.90644">
        <ele>365.2</ele>
        <time>2024-08-05T09:57:49Z</time>
      </trkpt>
      <trkpt lat="47.14243" lon="5.90647">
        <ele>365.2</ele>
        <time>2024-08-05T09:57:50Z</time>
      </trkpt>
      <trkpt lat="47.14246" lon="5.9065">
        <ele>365.2</ele>
        <time>2024-08-05T09:57:51Z</time>
      </trkpt>
      <trkpt lat="47.1425" lon="5.90653">
        <ele>365.2</ele>
        <time>2024-08-05T09:57:52Z</time>
      </trkpt>
      <trkpt lat="47.14254" lon="5.90655">
        <ele>365.2</ele>
        <time>2024-08-05T09:57:53Z</time>
      </trkpt>
      <trkpt lat="47.14257" lon="5.90657">
        <ele>365.2</ele>
        <time>2024-08-05T09:57:54Z</time>
      </trkpt>
      <trkpt lat="47.1426" lon="5.9066">
        <ele>365.2</ele>
        <time>2024-08-05T09:57:55Z</time>
      </trkpt>
      <trkpt lat="47.14264" lon="5.90663">
        <ele>365</ele>
        <time>2024-08-05T09:57:56Z</time>
      </trkpt>
      <trkpt lat="47.14267" lon="5.90666">
        <ele>365</ele>
        <time>2024-08-05T09:57:57Z</time>
      </trkpt>
      <trkpt lat="47.1427" lon="5.90668">
        <ele>365.2</ele>
        <time>2024-08-05T09:57:58Z</time>
      </trkpt>
      <trkpt lat="47.14273" lon="5.90672">
        <ele>365</ele>
        <time>2024-08-05T09:57:59Z</time>
      </trkpt>
      <trkpt lat="47.14275" lon="5.90674">
        <ele>365.2</ele>
        <time>2024-08-05T09:58:00Z</time>
      </trkpt>
      <trkpt lat="47.14277" lon="5.90677">
        <ele>365.2</ele>
        <time>2024-08-05T09:58:01Z</time>
      </trkpt>
      <trkpt lat="47.14279" lon="5.90681">
        <ele>365</ele>
        <time>2024-08-05T09:58:02Z</time>
      </trkpt>
      <trkpt lat="47.14281" lon="5.90684">
        <ele>365</ele>
        <time>2024-08-05T09:58:03Z</time>
      </trkpt>
      <trkpt lat="47.14283" lon="5.90688">
        <ele>365</ele>
        <time>2024-08-05T09:58:04Z</time>
      </trkpt>
      <trkpt lat="47.14285" lon="5.90692">
        <ele>365</ele>
        <time>2024-08-05T09:58:05Z</time>
      </trkpt>
      <trkpt lat="47.14287" lon="5.90697">
        <ele>365</ele>
        <time>2024-08-05T09:58:06Z</time>
      </trkpt>
      <trkpt lat="47.14289" lon="5.90701">
        <ele>365</ele>
        <time>2024-08-05T09:58:07Z</time>
      </trkpt>
      <trkpt lat="47.1429" lon="5.90705">
        <ele>365</ele>
        <time>2024-08-05T09:58:08Z</time>
      </trkpt>
      <trkpt lat="47.14292" lon="5.9071">
        <ele>365</ele>
        <time>2024-08-05T09:58:09Z</time>
      </trkpt>
      <trkpt lat="47.14294" lon="5.90716">
        <ele>365</ele>
        <time>2024-08-05T09:58:10Z</time>
      </trkpt>
      <trkpt lat="47.14297" lon="5.90723">
        <ele>364.8</ele>
        <time>2024-08-05T09:58:11Z</time>
      </trkpt>
      <trkpt lat="47.143" lon="5.9073">
        <ele>365.2</ele>
        <time>2024-08-05T09:58:12Z</time>
      </trkpt>
      <trkpt lat="47.14303" lon="5.90737">
        <ele>365</ele>
        <time>2024-08-05T09:58:13Z</time>
      </trkpt>
      <trkpt lat="47.14306" lon="5.90743">
        <ele>365.2</ele>
        <time>2024-08-05T09:58:14Z</time>
      </trkpt>
      <trkpt lat="47.14309" lon="5.90749">
        <ele>365.2</ele>
        <time>2024-08-05T09:58:15Z</time>
      </trkpt>
      <trkpt lat="47.14311" lon="5.90754">
        <ele>365.2</ele>
        <time>2024-08-05T09:58:16Z</time>
      </trkpt>
      <trkpt lat="47.14314" lon="5.90759">
        <ele>365.2</ele>
        <time>2024-08-05T09:58:17Z</time>
      </trkpt>
      <trkpt lat="47.14316" lon="5.90765">
        <ele>365.4</ele>
        <time>2024-08-05T09:58:18Z</time>
      </trkpt>
      <trkpt lat="47.14319" lon="5.9077">
        <ele>365.4</ele>
        <time>2024-08-05T09:58:19Z</time>
      </trkpt>
      <trkpt lat="47.14321" lon="5.90775">
        <ele>365.6</ele>
        <time>2024-08-05T09:58:20Z</time>
      </trkpt>
      <trkpt lat="47.14325" lon="5.9078">
        <ele>365.6</ele>
        <time>2024-08-05T09:58:21Z</time>
      </trkpt>
      <trkpt lat="47.14328" lon="5.90785">
        <ele>365.6</ele>
        <time>2024-08-05T09:58:22Z</time>
      </trkpt>
      <trkpt lat="47.1433" lon="5.9079">
        <ele>365.6</ele>
        <time>2024-08-05T09:58:23Z</time>
      </trkpt>
      <trkpt lat="47.14333" lon="5.90795">
        <ele>365.6</ele>
        <time>2024-08-05T09:58:24Z</time>
      </trkpt>
      <trkpt lat="47.14336" lon="5.90801">
        <ele>365.6</ele>
        <time>2024-08-05T09:58:25Z</time>
      </trkpt>
      <trkpt lat="47.14338" lon="5.90807">
        <ele>365.6</ele>
        <time>2024-08-05T09:58:26Z</time>
      </trkpt>
      <trkpt lat="47.14341" lon="5.90814">
        <ele>365.6</ele>
        <time>2024-08-05T09:58:27Z</time>
      </trkpt>
      <trkpt lat="47.14343" lon="5.90819">
        <ele>365.8</ele>
        <time>2024-08-05T09:58:28Z</time>
      </trkpt>
      <trkpt lat="47.14346" lon="5.90825">
        <ele>365.8</ele>
        <time>2024-08-05T09:58:29Z</time>
      </trkpt>
      <trkpt lat="47.14348" lon="5.90832">
        <ele>365.8</ele>
        <time>2024-08-05T09:58:30Z</time>
      </trkpt>
      <trkpt lat="47.14351" lon="5.90839">
        <ele>366</ele>
        <time>2024-08-05T09:58:31Z</time>
      </trkpt>
      <trkpt lat="47.14353" lon="5.90845">
        <ele>365.8</ele>
        <time>2024-08-05T09:58:32Z</time>
      </trkpt>
      <trkpt lat="47.14356" lon="5.90852">
        <ele>365.8</ele>
        <time>2024-08-05T09:58:33Z</time>
      </trkpt>
      <trkpt lat="47.14358" lon="5.90858">
        <ele>365.8</ele>
        <time>2024-08-05T09:58:34Z</time>
      </trkpt>
      <trkpt lat="47.1436" lon="5.90864">
        <ele>366</ele>
        <time>2024-08-05T09:58:35Z</time>
      </trkpt>
      <trkpt lat="47.14363" lon="5.9087">
        <ele>366</ele>
        <time>2024-08-05T09:58:36Z</time>
      </trkpt>
      <trkpt lat="47.14365" lon="5.90876">
        <ele>366</ele>
        <time>2024-08-05T09:58:37Z</time>
      </trkpt>
      <trkpt lat="47.14368" lon="5.90882">
        <ele>366</ele>
        <time>2024-08-05T09:58:38Z</time>
      </trkpt>
      <trkpt lat="47.14371" lon="5.90887">
        <ele>366</ele>
        <time>2024-08-05T09:58:39Z</time>
      </trkpt>
      <trkpt lat="47.14374" lon="5.90893">
        <ele>366</ele>
        <time>2024-08-05T09:58:40Z</time>
      </trkpt>
      <trkpt lat="47.14377" lon="5.90898">
        <ele>366</ele>
        <time>2024-08-05T09:58:41Z</time>
      </trkpt>
      <trkpt lat="47.14381" lon="5.90904">
        <ele>366</ele>
        <time>2024-08-05T09:58:42Z</time>
      </trkpt>
      <trkpt lat="47.14384" lon="5.9091">
        <ele>366</ele>
        <time>2024-08-05T09:58:43Z</time>
      </trkpt>
      <trkpt lat="47.14388" lon="5.90916">
        <ele>366</ele>
        <time>2024-08-05T09:58:44Z</time>
      </trkpt>
      <trkpt lat="47.14392" lon="5.90921">
        <ele>366</ele>
        <time>2024-08-05T09:58:45Z</time>
      </trkpt>
      <trkpt lat="47.14395" lon="5.90927">
        <ele>366</ele>
        <time>2024-08-05T09:58:46Z</time>
      </trkpt>
      <trkpt lat="47.14398" lon="5.90933">
        <ele>366</ele>
        <time>2024-08-05T09:58:47Z</time>
      </trkpt>
      <trkpt lat="47.14402" lon="5.90938">
        <ele>366</ele>
        <time>2024-08-05T09:58:48Z</time>
      </trkpt>
      <trkpt lat="47.14405" lon="5.90943">
        <ele>366</ele>
        <time>2024-08-05T09:58:49Z</time>
      </trkpt>
      <trkpt lat="47.14408" lon="5.90948">
        <ele>366.2</ele>
        <time>2024-08-05T09:58:50Z</time>
      </trkpt>
      <trkpt lat="47.14411" lon="5.90953">
        <ele>366</ele>
        <time>2024-08-05T09:58:51Z</time>
      </trkpt>
      <trkpt lat="47.14413" lon="5.90957">
        <ele>366.2</ele>
        <time>2024-08-05T09:58:52Z</time>
      </trkpt>
      <trkpt lat="47.14415" lon="5.90961">
        <ele>366</ele>
        <time>2024-08-05T09:58:53Z</time>
      </trkpt>
      <trkpt lat="47.14417" lon="5.90964">
        <ele>366.2</ele>
        <time>2024-08-05T09:58:54Z</time>
      </trkpt>
      <trkpt lat="47.1442" lon="5.90965">
        <ele>366</ele>
        <time>2024-08-05T09:58:55Z</time>
      </trkpt>
      <trkpt lat="47.14422" lon="5.90967">
        <ele>366.2</ele>
        <time>2024-08-05T09:58:56Z</time>
      </trkpt>
      <trkpt lat="47.14424" lon="5.90967">
        <ele>366.2</ele>
        <time>2024-08-05T09:58:57Z</time>
      </trkpt>
      <trkpt lat="47.14428" lon="5.90967">
        <ele>366.2</ele>
        <time>2024-08-05T09:58:58Z</time>
      </trkpt>
      <trkpt lat="47.14431" lon="5.90966">
        <ele>366.2</ele>
        <time>2024-08-05T09:58:59Z</time>
      </trkpt>
      <trkpt lat="47.14434" lon="5.90966">
        <ele>366.2</ele>
        <time>2024-08-05T09:59:00Z</time>
      </trkpt>
      <trkpt lat="47.14438" lon="5.90966">
        <ele>366.4</ele>
        <time>2024-08-05T09:59:01Z</time>
      </trkpt>
      <trkpt lat="47.14442" lon="5.90967">
        <ele>366.6</ele>
        <time>2024-08-05T09:59:02Z</time>
      </trkpt>
      <trkpt lat="47.14446" lon="5.90968">
        <ele>366.8</ele>
        <time>2024-08-05T09:59:03Z</time>
      </trkpt>
      <trkpt lat="47.1445" lon="5.9097">
        <ele>367</ele>
        <time>2024-08-05T09:59:04Z</time>
      </trkpt>
      <trkpt lat="47.14455" lon="5.90973">
        <ele>367</ele>
        <time>2024-08-05T09:59:05Z</time>
      </trkpt>
      <trkpt lat="47.14459" lon="5.90976">
        <ele>367</ele>
        <time>2024-08-05T09:59:06Z</time>
      </trkpt>
      <trkpt lat="47.14463" lon="5.90979">
        <ele>367</ele>
        <time>2024-08-05T09:59:07Z</time>
      </trkpt>
      <trkpt lat="47.14468" lon="5.90984">
        <ele>367</ele>
        <time>2024-08-05T09:59:08Z</time>
      </trkpt>
      <trkpt lat="47.14472" lon="5.90988">
        <ele>367</ele>
        <time>2024-08-05T09:59:09Z</time>
      </trkpt>
      <trkpt lat="47.14475" lon="5.90994">
        <ele>367</ele>
        <time>2024-08-05T09:59:10Z</time>
      </trkpt>
      <trkpt lat="47.14477" lon="5.91004">
        <ele>367.2</ele>
        <time>2024-08-05T09:59:11Z</time>
      </trkpt>
      <trkpt lat="47.14481" lon="5.91009">
        <ele>366.8</ele>
        <time>2024-08-05T09:59:12Z</time>
      </trkpt>
      <trkpt lat="47.14486" lon="5.91014">
        <ele>367</ele>
        <time>2024-08-05T09:59:13Z</time>
      </trkpt>
      <trkpt lat="47.14491" lon="5.91019">
        <ele>367</ele>
        <time>2024-08-05T09:59:14Z</time>
      </trkpt>
      <trkpt lat="47.14495" lon="5.91024">
        <ele>366.8</ele>
        <time>2024-08-05T09:59:15Z</time>
      </trkpt>
      <trkpt lat="47.14499" lon="5.91029">
        <ele>366.8</ele>
        <time>2024-08-05T09:59:16Z</time>
      </trkpt>
      <trkpt lat="47.14504" lon="5.91035">
        <ele>366.8</ele>
        <time>2024-08-05T09:59:17Z</time>
      </trkpt>
      <trkpt lat="47.14509" lon="5.9104">
        <ele>366.8</ele>
        <time>2024-08-05T09:59:18Z</time>
      </trkpt>
      <trkpt lat="47.14513" lon="5.91044">
        <ele>366.8</ele>
        <time>2024-08-05T09:59:19Z</time>
      </trkpt>
      <trkpt lat="47.14517" lon="5.91049">
        <ele>366.8</ele>
        <time>2024-08-05T09:59:20Z</time>
      </trkpt>
      <trkpt lat="47.14521" lon="5.91054">
        <ele>366.6</ele>
        <time>2024-08-05T09:59:21Z</time>
      </trkpt>
      <trkpt lat="47.14525" lon="5.91059">
        <ele>366.8</ele>
        <time>2024-08-05T09:59:22Z</time>
      </trkpt>
      <trkpt lat="47.14529" lon="5.91063">
        <ele>366.6</ele>
        <time>2024-08-05T09:59:23Z</time>
      </trkpt>
      <trkpt lat="47.14533" lon="5.91068">
        <ele>366.8</ele>
        <time>2024-08-05T09:59:24Z</time>
      </trkpt>
      <trkpt lat="47.14538" lon="5.91073">
        <ele>366.6</ele>
        <time>2024-08-05T09:59:25Z</time>
      </trkpt>
      <trkpt lat="47.14542" lon="5.91078">
        <ele>366.6</ele>
        <time>2024-08-05T09:59:26Z</time>
      </trkpt>
      <trkpt lat="47.14547" lon="5.91082">
        <ele>366.6</ele>
        <time>2024-08-05T09:59:27Z</time>
      </trkpt>
      <trkpt lat="47.14551" lon="5.91087">
        <ele>366.6</ele>
        <time>2024-08-05T09:59:28Z</time>
      </trkpt>
      <trkpt lat="47.14556" lon="5.91093">
        <ele>366.6</ele>
        <time>2024-08-05T09:59:29Z</time>
      </trkpt>
      <trkpt lat="47.1456" lon="5.91099">
        <ele>366.6</ele>
        <time>2024-08-05T09:59:30Z</time>
      </trkpt>
      <trkpt lat="47.14564" lon="5.91104">
        <ele>366.6</ele>
        <time>2024-08-05T09:59:31Z</time>
      </trkpt>
      <trkpt lat="47.14569" lon="5.91109">
        <ele>366.4</ele>
        <time>2024-08-05T09:59:32Z</time>
      </trkpt>
      <trkpt lat="47.14573" lon="5.91114">
        <ele>366.2</ele>
        <time>2024-08-05T09:59:33Z</time>
      </trkpt>
      <trkpt lat="47.14578" lon="5.91119">
        <ele>366.2</ele>
        <time>2024-08-05T09:59:34Z</time>
      </trkpt>
      <trkpt lat="47.14582" lon="5.91125">
        <ele>366.2</ele>
        <time>2024-08-05T09:59:35Z</time>
      </trkpt>
      <trkpt lat="47.14586" lon="5.91129">
        <ele>366</ele>
        <time>2024-08-05T09:59:36Z</time>
      </trkpt>
      <trkpt lat="47.1459" lon="5.91134">
        <ele>365.8</ele>
        <time>2024-08-05T09:59:37Z</time>
      </trkpt>
      <trkpt lat="47.14594" lon="5.91139">
        <ele>366</ele>
        <time>2024-08-05T09:59:38Z</time>
      </trkpt>
      <trkpt lat="47.14598" lon="5.91143">
        <ele>366</ele>
        <time>2024-08-05T09:59:39Z</time>
      </trkpt>
      <trkpt lat="47.14602" lon="5.91148">
        <ele>365.8</ele>
        <time>2024-08-05T09:59:40Z</time>
      </trkpt>
      <trkpt lat="47.14605" lon="5.91152">
        <ele>365.8</ele>
        <time>2024-08-05T09:59:41Z</time>
      </trkpt>
      <trkpt lat="47.14609" lon="5.91157">
        <ele>365.8</ele>
        <time>2024-08-05T09:59:42Z</time>
      </trkpt>
      <trkpt lat="47.14613" lon="5.91163">
        <ele>366</ele>
        <time>2024-08-05T09:59:43Z</time>
      </trkpt>
      <trkpt lat="47.14616" lon="5.91168">
        <ele>365.8</ele>
        <time>2024-08-05T09:59:44Z</time>
      </trkpt>
      <trkpt lat="47.1462" lon="5.91172">
        <ele>366</ele>
        <time>2024-08-05T09:59:45Z</time>
      </trkpt>
      <trkpt lat="47.14624" lon="5.91176">
        <ele>365.8</ele>
        <time>2024-08-05T09:59:46Z</time>
      </trkpt>
      <trkpt lat="47.14627" lon="5.9118">
        <ele>366</ele>
        <time>2024-08-05T09:59:47Z</time>
      </trkpt>
      <trkpt lat="47.14631" lon="5.91184">
        <ele>366</ele>
        <time>2024-08-05T09:59:48Z</time>
      </trkpt>
      <trkpt lat="47.14635" lon="5.91188">
        <ele>366</ele>
        <time>2024-08-05T09:59:49Z</time>
      </trkpt>
      <trkpt lat="47.14639" lon="5.91192">
        <ele>366</ele>
        <time>2024-08-05T09:59:50Z</time>
      </trkpt>
      <trkpt lat="47.14642" lon="5.91196">
        <ele>366.2</ele>
        <time>2024-08-05T09:59:51Z</time>
      </trkpt>
      <trkpt lat="47.14646" lon="5.912">
        <ele>366.2</ele>
        <time>2024-08-05T09:59:52Z</time>
      </trkpt>
      <trkpt lat="47.14649" lon="5.91204">
        <ele>366.4</ele>
        <time>2024-08-05T09:59:53Z</time>
      </trkpt>
      <trkpt lat="47.14653" lon="5.91208">
        <ele>366.6</ele>
        <time>2024-08-05T09:59:54Z</time>
      </trkpt>
      <trkpt lat="47.14656" lon="5.91211">
        <ele>366.8</ele>
        <time>2024-08-05T09:59:55Z</time>
      </trkpt>
      <trkpt lat="47.14658" lon="5.91215">
        <ele>366.8</ele>
        <time>2024-08-05T09:59:56Z</time>
      </trkpt>
      <trkpt lat="47.14661" lon="5.91219">
        <ele>367.2</ele>
        <time>2024-08-05T09:59:57Z</time>
      </trkpt>
      <trkpt lat="47.14663" lon="5.91222">
        <ele>367.2</ele>
        <time>2024-08-05T09:59:58Z</time>
      </trkpt>
      <trkpt lat="47.14665" lon="5.91225">
        <ele>367.2</ele>
        <time>2024-08-05T09:59:59Z</time>
      </trkpt>
      <trkpt lat="47.14668" lon="5.91229">
        <ele>367.4</ele>
        <time>2024-08-05T10:00:00Z</time>
      </trkpt>
      <trkpt lat="47.1467" lon="5.91233">
        <ele>367.4</ele>
        <time>2024-08-05T10:00:01Z</time>
      </trkpt>
      <trkpt lat="47.14672" lon="5.91236">
        <ele>367.8</ele>
        <time>2024-08-05T10:00:02Z</time>
      </trkpt>
      <trkpt lat="47.14674" lon="5.9124">
        <ele>368</ele>
        <time>2024-08-05T10:00:03Z</time>
      </trkpt>
      <trkpt lat="47.14676" lon="5.91243">
        <ele>368</ele>
        <time>2024-08-05T10:00:04Z</time>
      </trkpt>
      <trkpt lat="47.14679" lon="5.91247">
        <ele>368.2</ele>
        <time>2024-08-05T10:00:05Z</time>
      </trkpt>
      <trkpt lat="47.14682" lon="5.91251">
        <ele>368.2</ele>
        <time>2024-08-05T10:00:06Z</time>
      </trkpt>
      <trkpt lat="47.14686" lon="5.91254">
        <ele>368.4</ele>
        <time>2024-08-05T10:00:07Z</time>
      </trkpt>
      <trkpt lat="47.14689" lon="5.91258">
        <ele>368.4</ele>
        <time>2024-08-05T10:00:08Z</time>
      </trkpt>
      <trkpt lat="47.14692" lon="5.91262">
        <ele>368.6</ele>
        <time>2024-08-05T10:00:09Z</time>
      </trkpt>
      <trkpt lat="47.14694" lon="5.91266">
        <ele>368.6</ele>
        <time>2024-08-05T10:00:10Z</time>
      </trkpt>
      <trkpt lat="47.14697" lon="5.9127">
        <ele>368.8</ele>
        <time>2024-08-05T10:00:11Z</time>
      </trkpt>
      <trkpt lat="47.147" lon="5.91274">
        <ele>368.8</ele>
        <time>2024-08-05T10:00:12Z</time>
      </trkpt>
      <trkpt lat="47.14702" lon="5.91278">
        <ele>369</ele>
        <time>2024-08-05T10:00:13Z</time>
      </trkpt>
      <trkpt lat="47.14705" lon="5.91283">
        <ele>369</ele>
        <time>2024-08-05T10:00:14Z</time>
      </trkpt>
      <trkpt lat="47.14708" lon="5.91287">
        <ele>369</ele>
        <time>2024-08-05T10:00:15Z</time>
      </trkpt>
      <trkpt lat="47.14711" lon="5.91291">
        <ele>369.2</ele>
        <time>2024-08-05T10:00:16Z</time>
      </trkpt>
      <trkpt lat="47.14713" lon="5.91295">
        <ele>369.2</ele>
        <time>2024-08-05T10:00:17Z</time>
      </trkpt>
      <trkpt lat="47.14716" lon="5.913">
        <ele>369.4</ele>
        <time>2024-08-05T10:00:18Z</time>
      </trkpt>
      <trkpt lat="47.14719" lon="5.91304">
        <ele>369.4</ele>
        <time>2024-08-05T10:00:19Z</time>
      </trkpt>
      <trkpt lat="47.14722" lon="5.91309">
        <ele>369.6</ele>
        <time>2024-08-05T10:00:20Z</time>
      </trkpt>
      <trkpt lat="47.14725" lon="5.91313">
        <ele>369.6</ele>
        <time>2024-08-05T10:00:21Z</time>
      </trkpt>
      <trkpt lat="47.14728" lon="5.91318">
        <ele>369.8</ele>
        <time>2024-08-05T10:00:22Z</time>
      </trkpt>
      <trkpt lat="47.14731" lon="5.91322">
        <ele>369.8</ele>
        <time>2024-08-05T10:00:23Z</time>
      </trkpt>
      <trkpt lat="47.14734" lon="5.91325">
        <ele>369.8</ele>
        <time>2024-08-05T10:00:24Z</time>
      </trkpt>
      <trkpt lat="47.14737" lon="5.91329">
        <ele>369.8</ele>
        <time>2024-08-05T10:00:25Z</time>
      </trkpt>
      <trkpt lat="47.14741" lon="5.91331">
        <ele>369.8</ele>
        <time>2024-08-05T10:00:26Z</time>
      </trkpt>
      <trkpt lat="47.14743" lon="5.91335">
        <ele>369.8</ele>
        <time>2024-08-05T10:00:27Z</time>
      </trkpt>
      <trkpt lat="47.14746" lon="5.91338">
        <ele>370</ele>
        <time>2024-08-05T10:00:28Z</time>
      </trkpt>
      <trkpt lat="47.14749" lon="5.9134">
        <ele>370</ele>
        <time>2024-08-05T10:00:29Z</time>
      </trkpt>
      <trkpt lat="47.14752" lon="5.91343">
        <ele>369.8</ele>
        <time>2024-08-05T10:00:30Z</time>
      </trkpt>
      <trkpt lat="47.14756" lon="5.91346">
        <ele>370</ele>
        <time>2024-08-05T10:00:31Z</time>
      </trkpt>
      <trkpt lat="47.1476" lon="5.91349">
        <ele>370</ele>
        <time>2024-08-05T10:00:32Z</time>
      </trkpt>
      <trkpt lat="47.14763" lon="5.91353">
        <ele>370</ele>
        <time>2024-08-05T10:00:33Z</time>
      </trkpt>
      <trkpt lat="47.14767" lon="5.91356">
        <ele>369.8</ele>
        <time>2024-08-05T10:00:34Z</time>
      </trkpt>
      <trkpt lat="47.14771" lon="5.91359">
        <ele>369.8</ele>
        <time>2024-08-05T10:00:35Z</time>
      </trkpt>
      <trkpt lat="47.14775" lon="5.91363">
        <ele>370</ele>
        <time>2024-08-05T10:00:36Z</time>
      </trkpt>
      <trkpt lat="47.14779" lon="5.91366">
        <ele>370</ele>
        <time>2024-08-05T10:00:37Z</time>
      </trkpt>
      <trkpt lat="47.14784" lon="5.9137">
        <ele>370</ele>
        <time>2024-08-05T10:00:38Z</time>
      </trkpt>
      <trkpt lat="47.14789" lon="5.91374">
        <ele>369.8</ele>
        <time>2024-08-05T10:00:39Z</time>
      </trkpt>
      <trkpt lat="47.14793" lon="5.91379">
        <ele>369.8</ele>
        <time>2024-08-05T10:00:40Z</time>
      </trkpt>
      <trkpt lat="47.14798" lon="5.91385">
        <ele>369.6</ele>
        <time>2024-08-05T10:00:41Z</time>
      </trkpt>
      <trkpt lat="47.14803" lon="5.9139">
        <ele>369.8</ele>
        <time>2024-08-05T10:00:42Z</time>
      </trkpt>
      <trkpt lat="47.14808" lon="5.91397">
        <ele>369</ele>
        <time>2024-08-05T10:00:43Z</time>
      </trkpt>
      <trkpt lat="47.14813" lon="5.91404">
        <ele>368.8</ele>
        <time>2024-08-05T10:00:44Z</time>
      </trkpt>
      <trkpt lat="47.1482" lon="5.91411">
        <ele>368.6</ele>
        <time>2024-08-05T10:00:45Z</time>
      </trkpt>
      <trkpt lat="47.14825" lon="5.91418">
        <ele>368.2</ele>
        <time>2024-08-05T10:00:46Z</time>
      </trkpt>
      <trkpt lat="47.1483" lon="5.91426">
        <ele>368.2</ele>
        <time>2024-08-05T10:00:47Z</time>
      </trkpt>
      <trkpt lat="47.14835" lon="5.91434">
        <ele>368</ele>
        <time>2024-08-05T10:00:48Z</time>
      </trkpt>
      <trkpt lat="47.1484" lon="5.91442">
        <ele>367.6</ele>
        <time>2024-08-05T10:00:49Z</time>
      </trkpt>
      <trkpt lat="47.14846" lon="5.91449">
        <ele>367.4</ele>
        <time>2024-08-05T10:00:50Z</time>
      </trkpt>
      <trkpt lat="47.14852" lon="5.91457">
        <ele>367.2</ele>
        <time>2024-08-05T10:00:51Z</time>
      </trkpt>
      <trkpt lat="47.14858" lon="5.91465">
        <ele>367</ele>
        <time>2024-08-05T10:00:52Z</time>
      </trkpt>
      <trkpt lat="47.14863" lon="5.91472">
        <ele>366.8</ele>
        <time>2024-08-05T10:00:53Z</time>
      </trkpt>
      <trkpt lat="47.14869" lon="5.91479">
        <ele>366.4</ele>
        <time>2024-08-05T10:00:54Z</time>
      </trkpt>
      <trkpt lat="47.14877" lon="5.91488">
        <ele>366.4</ele>
        <time>2024-08-05T10:00:55Z</time>
      </trkpt>
      <trkpt lat="47.14883" lon="5.91497">
        <ele>365.8</ele>
        <time>2024-08-05T10:00:56Z</time>
      </trkpt>
      <trkpt lat="47.1489" lon="5.91505">
        <ele>365.6</ele>
        <time>2024-08-05T10:00:57Z</time>
      </trkpt>
      <trkpt lat="47.14897" lon="5.91513">
        <ele>365.4</ele>
        <time>2024-08-05T10:00:58Z</time>
      </trkpt>
      <trkpt lat="47.14902" lon="5.91521">
        <ele>365</ele>
        <time>2024-08-05T10:00:59Z</time>
      </trkpt>
      <trkpt lat="47.1491" lon="5.91528">
        <ele>364.6</ele>
        <time>2024-08-05T10:01:00Z</time>
      </trkpt>
      <trkpt lat="47.14917" lon="5.91535">
        <ele>364.4</ele>
        <time>2024-08-05T10:01:01Z</time>
      </trkpt>
      <trkpt lat="47.14924" lon="5.91542">
        <ele>364</ele>
        <time>2024-08-05T10:01:02Z</time>
      </trkpt>
      <trkpt lat="47.14932" lon="5.91548">
        <ele>364</ele>
        <time>2024-08-05T10:01:03Z</time>
      </trkpt>
      <trkpt lat="47.14938" lon="5.91553">
        <ele>363.6</ele>
        <time>2024-08-05T10:01:04Z</time>
      </trkpt>
      <trkpt lat="47.14945" lon="5.91559">
        <ele>363.4</ele>
        <time>2024-08-05T10:01:05Z</time>
      </trkpt>
      <trkpt lat="47.14951" lon="5.91564">
        <ele>363</ele>
        <time>2024-08-05T10:01:06Z</time>
      </trkpt>
      <trkpt lat="47.14958" lon="5.91568">
        <ele>362.8</ele>
        <time>2024-08-05T10:01:07Z</time>
      </trkpt>
      <trkpt lat="47.14965" lon="5.91573">
        <ele>362.4</ele>
        <time>2024-08-05T10:01:08Z</time>
      </trkpt>
      <trkpt lat="47.14972" lon="5.91577">
        <ele>362.4</ele>
        <time>2024-08-05T10:01:09Z</time>
      </trkpt>
      <trkpt lat="47.14979" lon="5.91581">
        <ele>362.4</ele>
        <time>2024-08-05T10:01:10Z</time>
      </trkpt>
      <trkpt lat="47.14986" lon="5.91584">
        <ele>362</ele>
        <time>2024-08-05T10:01:11Z</time>
      </trkpt>
      <trkpt lat="47.14993" lon="5.91587">
        <ele>362</ele>
        <time>2024-08-05T10:01:12Z</time>
      </trkpt>
      <trkpt lat="47.15" lon="5.9159">
        <ele>361.8</ele>
        <time>2024-08-05T10:01:13Z</time>
      </trkpt>
      <trkpt lat="47.15007" lon="5.91593">
        <ele>361.2</ele>
        <time>2024-08-05T10:01:14Z</time>
      </trkpt>
      <trkpt lat="47.15014" lon="5.91596">
        <ele>361</ele>
        <time>2024-08-05T10:01:15Z</time>
      </trkpt>
      <trkpt lat="47.15021" lon="5.91598">
        <ele>361</ele>
        <time>2024-08-05T10:01:16Z</time>
      </trkpt>
      <trkpt lat="47.15029" lon="5.91599">
        <ele>360.8</ele>
        <time>2024-08-05T10:01:17Z</time>
      </trkpt>
      <trkpt lat="47.15037" lon="5.916">
        <ele>360.4</ele>
        <time>2024-08-05T10:01:18Z</time>
      </trkpt>
      <trkpt lat="47.15046" lon="5.91602">
        <ele>360</ele>
        <time>2024-08-05T10:01:19Z</time>
      </trkpt>
      <trkpt lat="47.15055" lon="5.91603">
        <ele>359.4</ele>
        <time>2024-08-05T10:01:20Z</time>
      </trkpt>
      <trkpt lat="47.15063" lon="5.91603">
        <ele>359</ele>
        <time>2024-08-05T10:01:21Z</time>
      </trkpt>
      <trkpt lat="47.15071" lon="5.91603">
        <ele>358.6</ele>
        <time>2024-08-05T10:01:22Z</time>
      </trkpt>
      <trkpt lat="47.1508" lon="5.91603">
        <ele>357.8</ele>
        <time>2024-08-05T10:01:23Z</time>
      </trkpt>
      <trkpt lat="47.15089" lon="5.91603">
        <ele>357.6</ele>
        <time>2024-08-05T10:01:24Z</time>
      </trkpt>
      <trkpt lat="47.15099" lon="5.91603">
        <ele>356.8</ele>
        <time>2024-08-05T10:01:25Z</time>
      </trkpt>
      <trkpt lat="47.1511" lon="5.91605">
        <ele>355.8</ele>
        <time>2024-08-05T10:01:26Z</time>
      </trkpt>
      <trkpt lat="47.15121" lon="5.91606">
        <ele>355.2</ele>
        <time>2024-08-05T10:01:27Z</time>
      </trkpt>
      <trkpt lat="47.15133" lon="5.91609">
        <ele>354.8</ele>
        <time>2024-08-05T10:01:28Z</time>
      </trkpt>
      <trkpt lat="47.15144" lon="5.9161">
        <ele>354.2</ele>
        <time>2024-08-05T10:01:29Z</time>
      </trkpt>
      <trkpt lat="47.15155" lon="5.9161">
        <ele>353.8</ele>
        <time>2024-08-05T10:01:30Z</time>
      </trkpt>
      <trkpt lat="47.15166" lon="5.9161">
        <ele>353.8</ele>
        <time>2024-08-05T10:01:31Z</time>
      </trkpt>
      <trkpt lat="47.15176" lon="5.91609">
        <ele>352.8</ele>
        <time>2024-08-05T10:01:32Z</time>
      </trkpt>
      <trkpt lat="47.15187" lon="5.9161">
        <ele>352.2</ele>
        <time>2024-08-05T10:01:33Z</time>
      </trkpt>
      <trkpt lat="47.15197" lon="5.9161">
        <ele>352</ele>
        <time>2024-08-05T10:01:34Z</time>
      </trkpt>
      <trkpt lat="47.15207" lon="5.9161">
        <ele>351</ele>
        <time>2024-08-05T10:01:35Z</time>
      </trkpt>
      <trkpt lat="47.15216" lon="5.91609">
        <ele>350.4</ele>
        <time>2024-08-05T10:01:36Z</time>
      </trkpt>
      <trkpt lat="47.15225" lon="5.91607">
        <ele>349.8</ele>
        <time>2024-08-05T10:01:37Z</time>
      </trkpt>
      <trkpt lat="47.15235" lon="5.91607">
        <ele>349.2</ele>
        <time>2024-08-05T10:01:38Z</time>
      </trkpt>
      <trkpt lat="47.15247" lon="5.91607">
        <ele>348.4</ele>
        <time>2024-08-05T10:01:39Z</time>
      </trkpt>
      <trkpt lat="47.15258" lon="5.91609">
        <ele>347.6</ele>
        <time>2024-08-05T10:01:40Z</time>
      </trkpt>
      <trkpt lat="47.15268" lon="5.9161">
        <ele>346.8</ele>
        <time>2024-08-05T10:01:41Z</time>
      </trkpt>
      <trkpt lat="47.15278" lon="5.91611">
        <ele>346.2</ele>
        <time>2024-08-05T10:01:42Z</time>
      </trkpt>
      <trkpt lat="47.15289" lon="5.91612">
        <ele>345.6</ele>
        <time>2024-08-05T10:01:43Z</time>
      </trkpt>
      <trkpt lat="47.15302" lon="5.91613">
        <ele>345</ele>
        <time>2024-08-05T10:01:44Z</time>
      </trkpt>
      <trkpt lat="47.15313" lon="5.91614">
        <ele>344.4</ele>
        <time>2024-08-05T10:01:45Z</time>
      </trkpt>
      <trkpt lat="47.15324" lon="5.91615">
        <ele>343.4</ele>
        <time>2024-08-05T10:01:46Z</time>
      </trkpt>
      <trkpt lat="47.15335" lon="5.91615">
        <ele>342.6</ele>
        <time>2024-08-05T10:01:47Z</time>
      </trkpt>
      <trkpt lat="47.15347" lon="5.91616">
        <ele>342.2</ele>
        <time>2024-08-05T10:01:48Z</time>
      </trkpt>
      <trkpt lat="47.15358" lon="5.91615">
        <ele>341</ele>
        <time>2024-08-05T10:01:49Z</time>
      </trkpt>
      <trkpt lat="47.15369" lon="5.91614">
        <ele>340.2</ele>
        <time>2024-08-05T10:01:50Z</time>
      </trkpt>
      <trkpt lat="47.15379" lon="5.91613">
        <ele>339.4</ele>
        <time>2024-08-05T10:01:51Z</time>
      </trkpt>
      <trkpt lat="47.1539" lon="5.91613">
        <ele>338.6</ele>
        <time>2024-08-05T10:01:52Z</time>
      </trkpt>
      <trkpt lat="47.15399" lon="5.91612">
        <ele>338.6</ele>
        <time>2024-08-05T10:01:53Z</time>
      </trkpt>
      <trkpt lat="47.15408" lon="5.91612">
        <ele>338</ele>
        <time>2024-08-05T10:01:54Z</time>
      </trkpt>
      <trkpt lat="47.15416" lon="5.91611">
        <ele>337.2</ele>
        <time>2024-08-05T10:01:55Z</time>
      </trkpt>
      <trkpt lat="47.15424" lon="5.9161">
        <ele>336.4</ele>
        <time>2024-08-05T10:01:56Z</time>
      </trkpt>
      <trkpt lat="47.15433" lon="5.91609">
        <ele>335.6</ele>
        <time>2024-08-05T10:01:57Z</time>
      </trkpt>
      <trkpt lat="47.15441" lon="5.91607">
        <ele>334.6</ele>
        <time>2024-08-05T10:01:58Z</time>
      </trkpt>
      <trkpt lat="47.15449" lon="5.91604">
        <ele>333.8</ele>
        <time>2024-08-05T10:01:59Z</time>
      </trkpt>
      <trkpt lat="47.15459" lon="5.91601">
        <ele>332.8</ele>
        <time>2024-08-05T10:02:00Z</time>
      </trkpt>
      <trkpt lat="47.15468" lon="5.91596">
        <ele>332.2</ele>
        <time>2024-08-05T10:02:01Z</time>
      </trkpt>
      <trkpt lat="47.15476" lon="5.91591">
        <ele>331.8</ele>
        <time>2024-08-05T10:02:02Z</time>
      </trkpt>
      <trkpt lat="47.15485" lon="5.91586">
        <ele>331</ele>
        <time>2024-08-05T10:02:03Z</time>
      </trkpt>
      <trkpt lat="47.15493" lon="5.91581">
        <ele>330.2</ele>
        <time>2024-08-05T10:02:04Z</time>
      </trkpt>
      <trkpt lat="47.155" lon="5.91575">
        <ele>329.4</ele>
        <time>2024-08-05T10:02:05Z</time>
      </trkpt>
      <trkpt lat="47.15507" lon="5.91569">
        <ele>329</ele>
        <time>2024-08-05T10:02:06Z</time>
      </trkpt>
      <trkpt lat="47.15513" lon="5.91564">
        <ele>328.2</ele>
        <time>2024-08-05T10:02:07Z</time>
      </trkpt>
      <trkpt lat="47.15518" lon="5.91559">
        <ele>327.4</ele>
        <time>2024-08-05T10:02:08Z</time>
      </trkpt>
      <trkpt lat="47.15523" lon="5.91554">
        <ele>326.8</ele>
        <time>2024-08-05T10:02:09Z</time>
      </trkpt>
      <trkpt lat="47.15528" lon="5.9155">
        <ele>326.2</ele>
        <time>2024-08-05T10:02:10Z</time>
      </trkpt>
      <trkpt lat="47.15532" lon="5.91546">
        <ele>325.8</ele>
        <time>2024-08-05T10:02:11Z</time>
      </trkpt>
      <trkpt lat="47.15536" lon="5.91542">
        <ele>325.2</ele>
        <time>2024-08-05T10:02:12Z</time>
      </trkpt>
      <trkpt lat="47.15538" lon="5.91537">
        <ele>324.6</ele>
        <time>2024-08-05T10:02:13Z</time>
      </trkpt>
      <trkpt lat="47.15541" lon="5.9153">
        <ele>323.6</ele>
        <time>2024-08-05T10:02:14Z</time>
      </trkpt>
      <trkpt lat="47.15543" lon="5.91521">
        <ele>323.6</ele>
        <time>2024-08-05T10:02:15Z</time>
      </trkpt>
      <trkpt lat="47.15543" lon="5.91513">
        <ele>322.8</ele>
        <time>2024-08-05T10:02:16Z</time>
      </trkpt>
      <trkpt lat="47.15543" lon="5.91503">
        <ele>322</ele>
        <time>2024-08-05T10:02:17Z</time>
      </trkpt>
      <trkpt lat="47.15543" lon="5.91493">
        <ele>321</ele>
        <time>2024-08-05T10:02:18Z</time>
      </trkpt>
      <trkpt lat="47.15542" lon="5.91485">
        <ele>320.6</ele>
        <time>2024-08-05T10:02:19Z</time>
      </trkpt>
      <trkpt lat="47.15541" lon="5.91476">
        <ele>320.2</ele>
        <time>2024-08-05T10:02:20Z</time>
      </trkpt>
      <trkpt lat="47.15541" lon="5.91468">
        <ele>319.6</ele>
        <time>2024-08-05T10:02:21Z</time>
      </trkpt>
      <trkpt lat="47.15541" lon="5.9146">
        <ele>319.2</ele>
        <time>2024-08-05T10:02:22Z</time>
      </trkpt>
      <trkpt lat="47.15541" lon="5.91451">
        <ele>318.8</ele>
        <time>2024-08-05T10:02:23Z</time>
      </trkpt>
      <trkpt lat="47.15541" lon="5.91443">
        <ele>318.2</ele>
        <time>2024-08-05T10:02:24Z</time>
      </trkpt>
      <trkpt lat="47.15542" lon="5.91435">
        <ele>318</ele>
        <time>2024-08-05T10:02:25Z</time>
      </trkpt>
      <trkpt lat="47.15542" lon="5.91426">
        <ele>317.4</ele>
        <time>2024-08-05T10:02:26Z</time>
      </trkpt>
      <trkpt lat="47.15542" lon="5.91418">
        <ele>316.8</ele>
        <time>2024-08-05T10:02:27Z</time>
      </trkpt>
      <trkpt lat="47.15542" lon="5.91411">
        <ele>316.4</ele>
        <time>2024-08-05T10:02:28Z</time>
      </trkpt>
      <trkpt lat="47.15543" lon="5.91404">
        <ele>315.8</ele>
        <time>2024-08-05T10:02:29Z</time>
      </trkpt>
      <trkpt lat="47.15544" lon="5.91398">
        <ele>315.6</ele>
        <time>2024-08-05T10:02:30Z</time>
      </trkpt>
      <trkpt lat="47.15545" lon="5.91395">
        <ele>315</ele>
        <time>2024-08-05T10:02:31Z</time>
      </trkpt>
      <trkpt lat="47.15546" lon="5.91392">
        <ele>315</ele>
        <time>2024-08-05T10:02:32Z</time>
      </trkpt>
      <trkpt lat="47.15549" lon="5.91391">
        <ele>314.6</ele>
        <time>2024-08-05T10:02:33Z</time>
      </trkpt>
      <trkpt lat="47.15551" lon="5.91391">
        <ele>314.4</ele>
        <time>2024-08-05T10:02:34Z</time>
      </trkpt>
      <trkpt lat="47.15553" lon="5.91393">
        <ele>314.4</ele>
        <time>2024-08-05T10:02:35Z</time>
      </trkpt>
      <trkpt lat="47.15555" lon="5.91395">
        <ele>314.2</ele>
        <time>2024-08-05T10:02:36Z</time>
      </trkpt>
      <trkpt lat="47.15557" lon="5.91395">
        <ele>314.2</ele>
        <time>2024-08-05T10:02:37Z</time>
      </trkpt>
      <trkpt lat="47.15559" lon="5.91396">
        <ele>314.2</ele>
        <time>2024-08-05T10:02:38Z</time>
      </trkpt>
      <trkpt lat="47.1556" lon="5.91396">
        <ele>314.2</ele>
        <time>2024-08-05T10:02:39Z</time>
      </trkpt>
      <trkpt lat="47.15562" lon="5.91397">
        <ele>314.2</ele>
        <time>2024-08-05T10:02:40Z</time>
      </trkpt>
      <trkpt lat="47.15563" lon="5.91399">
        <ele>314.2</ele>
        <time>2024-08-05T10:02:41Z</time>
      </trkpt>
      <trkpt lat="47.15564" lon="5.91401">
        <ele>314.2</ele>
        <time>2024-08-05T10:02:42Z</time>
      </trkpt>
      <trkpt lat="47.15564" lon="5.91404">
        <ele>314.2</ele>
        <time>2024-08-05T10:02:43Z</time>
      </trkpt>
      <trkpt lat="47.15565" lon="5.91404">
        <ele>314.2</ele>
        <time>2024-08-05T10:02:44Z</time>
      </trkpt>
      <trkpt lat="47.15566" lon="5.91406">
        <ele>314.2</ele>
        <time>2024-08-05T10:02:45Z</time>
      </trkpt>
      <trkpt lat="47.15567" lon="5.91407">
        <ele>314.4</ele>
        <time>2024-08-05T10:02:46Z</time>
      </trkpt>
      <trkpt lat="47.15568" lon="5.91408">
        <ele>314.6</ele>
        <time>2024-08-05T10:02:47Z</time>
      </trkpt>
      <trkpt lat="47.15569" lon="5.91409">
        <ele>314.8</ele>
        <time>2024-08-05T10:02:48Z</time>
      </trkpt>
      <trkpt lat="47.1557" lon="5.9141">
        <ele>315</ele>
        <time>2024-08-05T10:02:49Z</time>
      </trkpt>
      <trkpt lat="47.15571" lon="5.91414">
        <ele>315.2</ele>
        <time>2024-08-05T10:02:50Z</time>
      </trkpt>
      <trkpt lat="47.15572" lon="5.91416">
        <ele>315.4</ele>
        <time>2024-08-05T10:02:51Z</time>
      </trkpt>
      <trkpt lat="47.15573" lon="5.91417">
        <ele>315.6</ele>
        <time>2024-08-05T10:02:52Z</time>
      </trkpt>
      <trkpt lat="47.15574" lon="5.91421">
        <ele>316</ele>
        <time>2024-08-05T10:02:53Z</time>
      </trkpt>
      <trkpt lat="47.15574" lon="5.91424">
        <ele>316.2</ele>
        <time>2024-08-05T10:02:54Z</time>
      </trkpt>
      <trkpt lat="47.15575" lon="5.91426">
        <ele>316.4</ele>
        <time>2024-08-05T10:02:55Z</time>
      </trkpt>
      <trkpt lat="47.15575" lon="5.91429">
        <ele>316.6</ele>
        <time>2024-08-05T10:02:56Z</time>
      </trkpt>
      <trkpt lat="47.15576" lon="5.9143">
        <ele>316.8</ele>
        <time>2024-08-05T10:02:57Z</time>
      </trkpt>
      <trkpt lat="47.15577" lon="5.91431">
        <ele>317</ele>
        <time>2024-08-05T10:02:58Z</time>
      </trkpt>
      <trkpt lat="47.15577" lon="5.91431">
        <ele>317</ele>
        <time>2024-08-05T10:02:59Z</time>
      </trkpt>
      <trkpt lat="47.15578" lon="5.91432">
        <ele>317.2</ele>
        <time>2024-08-05T10:03:00Z</time>
      </trkpt>
      <trkpt lat="47.15579" lon="5.91432">
        <ele>317.4</ele>
        <time>2024-08-05T10:03:01Z</time>
      </trkpt>
      <trkpt lat="47.15579" lon="5.91432">
        <ele>317.6</ele>
        <time>2024-08-05T10:03:02Z</time>
      </trkpt>
      <trkpt lat="47.1558" lon="5.91432">
        <ele>317.8</ele>
        <time>2024-08-05T10:03:03Z</time>
      </trkpt>
      <trkpt lat="47.15581" lon="5.91433">
        <ele>318.2</ele>
        <time>2024-08-05T10:03:04Z</time>
      </trkpt>
      <trkpt lat="47.15581" lon="5.91433">
        <ele>318.4</ele>
        <time>2024-08-05T10:03:05Z</time>
      </trkpt>
      <trkpt lat="47.15582" lon="5.91434">
        <ele>318.6</ele>
        <time>2024-08-05T10:03:06Z</time>
      </trkpt>
      <trkpt lat="47.15583" lon="5.91435">
        <ele>318.8</ele>
        <time>2024-08-05T10:03:07Z</time>
      </trkpt>
      <trkpt lat="47.15585" lon="5.91436">
        <ele>319</ele>
        <time>2024-08-05T10:03:08Z</time>
      </trkpt>
      <trkpt lat="47.15586" lon="5.91438">
        <ele>319.2</ele>
        <time>2024-08-05T10:03:09Z</time>
      </trkpt>
      <trkpt lat="47.15587" lon="5.91439">
        <ele>319.6</ele>
        <time>2024-08-05T10:03:10Z</time>
      </trkpt>
      <trkpt lat="47.15589" lon="5.9144">
        <ele>319.8</ele>
        <time>2024-08-05T10:03:11Z</time>
      </trkpt>
      <trkpt lat="47.1559" lon="5.91443">
        <ele>320</ele>
        <time>2024-08-05T10:03:12Z</time>
      </trkpt>
      <trkpt lat="47.15591" lon="5.91445">
        <ele>320.2</ele>
        <time>2024-08-05T10:03:13Z</time>
      </trkpt>
      <trkpt lat="47.15593" lon="5.91448">
        <ele>320.4</ele>
        <time>2024-08-05T10:03:14Z</time>
      </trkpt>
      <trkpt lat="47.15595" lon="5.91449">
        <ele>320.6</ele>
        <time>2024-08-05T10:03:15Z</time>
      </trkpt>
      <trkpt lat="47.15596" lon="5.9145">
        <ele>321</ele>
        <time>2024-08-05T10:03:16Z</time>
      </trkpt>
      <trkpt lat="47.15597" lon="5.91451">
        <ele>321</ele>
        <time>2024-08-05T10:03:17Z</time>
      </trkpt>
      <trkpt lat="47.15598" lon="5.91451">
        <ele>321.4</ele>
        <time>2024-08-05T10:03:18Z</time>
      </trkpt>
      <trkpt lat="47.15599" lon="5.91453">
        <ele>321.4</ele>
        <time>2024-08-05T10:03:19Z</time>
      </trkpt>
      <trkpt lat="47.15601" lon="5.91455">
        <ele>321.4</ele>
        <time>2024-08-05T10:03:20Z</time>
      </trkpt>
      <trkpt lat="47.15602" lon="5.91456">
        <ele>321.6</ele>
        <time>2024-08-05T10:03:21Z</time>
      </trkpt>
      <trkpt lat="47.15604" lon="5.91458">
        <ele>321.8</ele>
        <time>2024-08-05T10:03:22Z</time>
      </trkpt>
      <trkpt lat="47.15605" lon="5.91458">
        <ele>322.2</ele>
        <time>2024-08-05T10:03:23Z</time>
      </trkpt>
      <trkpt lat="47.15607" lon="5.9146">
        <ele>322.2</ele>
        <time>2024-08-05T10:03:24Z</time>
      </trkpt>
      <trkpt lat="47.15608" lon="5.9146">
        <ele>322.6</ele>
        <time>2024-08-05T10:03:25Z</time>
      </trkpt>
      <trkpt lat="47.1561" lon="5.91459">
        <ele>322.8</ele>
        <time>2024-08-05T10:03:26Z</time>
      </trkpt>
      <trkpt lat="47.15612" lon="5.9146">
        <ele>323</ele>
        <time>2024-08-05T10:03:27Z</time>
      </trkpt>
      <trkpt lat="47.15614" lon="5.9146">
        <ele>323.2</ele>
        <time>2024-08-05T10:03:28Z</time>
      </trkpt>
      <trkpt lat="47.15615" lon="5.9146">
        <ele>323.2</ele>
        <time>2024-08-05T10:03:29Z</time>
      </trkpt>
      <trkpt lat="47.15618" lon="5.91459">
        <ele>323.4</ele>
        <time>2024-08-05T10:03:30Z</time>
      </trkpt>
      <trkpt lat="47.15619" lon="5.91459">
        <ele>323.6</ele>
        <time>2024-08-05T10:03:31Z</time>
      </trkpt>
      <trkpt lat="47.1562" lon="5.91459">
        <ele>323.8</ele>
        <time>2024-08-05T10:03:32Z</time>
      </trkpt>
      <trkpt lat="47.15621" lon="5.9146">
        <ele>323.8</ele>
        <time>2024-08-05T10:03:33Z</time>
      </trkpt>
      <trkpt lat="47.15623" lon="5.91461">
        <ele>324.2</ele>
        <time>2024-08-05T10:03:34Z</time>
      </trkpt>
      <trkpt lat="47.15624" lon="5.91461">
        <ele>324.4</ele>
        <time>2024-08-05T10:03:35Z</time>
      </trkpt>
      <trkpt lat="47.15625" lon="5.91463">
        <ele>324.6</ele>
        <time>2024-08-05T10:03:36Z</time>
      </trkpt>
      <trkpt lat="47.15626" lon="5.91465">
        <ele>324.8</ele>
        <time>2024-08-05T10:03:37Z</time>
      </trkpt>
      <trkpt lat="47.15628" lon="5.91467">
        <ele>324.8</ele>
        <time>2024-08-05T10:03:38Z</time>
      </trkpt>
      <trkpt lat="47.1563" lon="5.91468">
        <ele>325</ele>
        <time>2024-08-05T10:03:39Z</time>
      </trkpt>
      <trkpt lat="47.15631" lon="5.91468">
        <ele>325.2</ele>
        <time>2024-08-05T10:03:40Z</time>
      </trkpt>
      <trkpt lat="47.15633" lon="5.9147">
        <ele>325.2</ele>
        <time>2024-08-05T10:03:41Z</time>
      </trkpt>
      <trkpt lat="47.15635" lon="5.91472">
        <ele>325.2</ele>
        <time>2024-08-05T10:03:42Z</time>
      </trkpt>
      <trkpt lat="47.15637" lon="5.91472">
        <ele>325.4</ele>
        <time>2024-08-05T10:03:43Z</time>
      </trkpt>
      <trkpt lat="47.15639" lon="5.91472">
        <ele>325.6</ele>
        <time>2024-08-05T10:03:44Z</time>
      </trkpt>
      <trkpt lat="47.1564" lon="5.91472">
        <ele>325.8</ele>
        <time>2024-08-05T10:03:45Z</time>
      </trkpt>
      <trkpt lat="47.1564" lon="5.91474">
        <ele>326</ele>
        <time>2024-08-05T10:03:46Z</time>
      </trkpt>
      <trkpt lat="47.15641" lon="5.91474">
        <ele>326.2</ele>
        <time>2024-08-05T10:03:47Z</time>
      </trkpt>
      <trkpt lat="47.15642" lon="5.91475">
        <ele>326.4</ele>
        <time>2024-08-05T10:03:48Z</time>
      </trkpt>
      <trkpt lat="47.15643" lon="5.91476">
        <ele>326.8</ele>
        <time>2024-08-05T10:03:49Z</time>
      </trkpt>
      <trkpt lat="47.15644" lon="5.91477">
        <ele>326.8</ele>
        <time>2024-08-05T10:03:50Z</time>
      </trkpt>
      <trkpt lat="47.15646" lon="5.91478">
        <ele>327</ele>
        <time>2024-08-05T10:03:51Z</time>
      </trkpt>
      <trkpt lat="47.15647" lon="5.91478">
        <ele>327.4</ele>
        <time>2024-08-05T10:03:52Z</time>
      </trkpt>
      <trkpt lat="47.15648" lon="5.91478">
        <ele>327.4</ele>
        <time>2024-08-05T10:03:53Z</time>
      </trkpt>
      <trkpt lat="47.15649" lon="5.91478">
        <ele>327.6</ele>
        <time>2024-08-05T10:03:54Z</time>
      </trkpt>
      <trkpt lat="47.15651" lon="5.91477">
        <ele>327.8</ele>
        <time>2024-08-05T10:03:55Z</time>
      </trkpt>
      <trkpt lat="47.15655" lon="5.91477">
        <ele>328</ele>
        <time>2024-08-05T10:03:56Z</time>
      </trkpt>
      <trkpt lat="47.15658" lon="5.91476">
        <ele>328.4</ele>
        <time>2024-08-05T10:03:57Z</time>
      </trkpt>
      <trkpt lat="47.1566" lon="5.91475">
        <ele>328.6</ele>
        <time>2024-08-05T10:03:58Z</time>
      </trkpt>
      <trkpt lat="47.15662" lon="5.91476">
        <ele>328.6</ele>
        <time>2024-08-05T10:03:59Z</time>
      </trkpt>
      <trkpt lat="47.15663" lon="5.91476">
        <ele>329</ele>
        <time>2024-08-05T10:04:00Z</time>
      </trkpt>
      <trkpt lat="47.15665" lon="5.91477">
        <ele>329</ele>
        <time>2024-08-05T10:04:01Z</time>
      </trkpt>
      <trkpt lat="47.15667" lon="5.91478">
        <ele>329.2</ele>
        <time>2024-08-05T10:04:02Z</time>
      </trkpt>
      <trkpt lat="47.15669" lon="5.91478">
        <ele>329.6</ele>
        <time>2024-08-05T10:04:03Z</time>
      </trkpt>
      <trkpt lat="47.1567" lon="5.91479">
        <ele>329.6</ele>
        <time>2024-08-05T10:04:04Z</time>
      </trkpt>
      <trkpt lat="47.15672" lon="5.91481">
        <ele>329.8</ele>
        <time>2024-08-05T10:04:05Z</time>
      </trkpt>
      <trkpt lat="47.15673" lon="5.91482">
        <ele>330</ele>
        <time>2024-08-05T10:04:06Z</time>
      </trkpt>
      <trkpt lat="47.15675" lon="5.91484">
        <ele>330.2</ele>
        <time>2024-08-05T10:04:07Z</time>
      </trkpt>
      <trkpt lat="47.15678" lon="5.91485">
        <ele>330.6</ele>
        <time>2024-08-05T10:04:08Z</time>
      </trkpt>
      <trkpt lat="47.15679" lon="5.91487">
        <ele>330.6</ele>
        <time>2024-08-05T10:04:09Z</time>
      </trkpt>
      <trkpt lat="47.15681" lon="5.91488">
        <ele>330.8</ele>
        <time>2024-08-05T10:04:10Z</time>
      </trkpt>
      <trkpt lat="47.15682" lon="5.9149">
        <ele>331.2</ele>
        <time>2024-08-05T10:04:11Z</time>
      </trkpt>
      <trkpt lat="47.15683" lon="5.91491">
        <ele>331.4</ele>
        <time>2024-08-05T10:04:12Z</time>
      </trkpt>
      <trkpt lat="47.15685" lon="5.91492">
        <ele>331.6</ele>
        <time>2024-08-05T10:04:13Z</time>
      </trkpt>
      <trkpt lat="47.15687" lon="5.91494">
        <ele>332</ele>
        <time>2024-08-05T10:04:14Z</time>
      </trkpt>
      <trkpt lat="47.15688" lon="5.91495">
        <ele>332.2</ele>
        <time>2024-08-05T10:04:15Z</time>
      </trkpt>
      <trkpt lat="47.1569" lon="5.91497">
        <ele>332.2</ele>
        <time>2024-08-05T10:04:16Z</time>
      </trkpt>
      <trkpt lat="47.15692" lon="5.91497">
        <ele>332.4</ele>
        <time>2024-08-05T10:04:17Z</time>
      </trkpt>
      <trkpt lat="47.15694" lon="5.91498">
        <ele>332.6</ele>
        <time>2024-08-05T10:04:18Z</time>
      </trkpt>
      <trkpt lat="47.15696" lon="5.91499">
        <ele>333</ele>
        <time>2024-08-05T10:04:19Z</time>
      </trkpt>
      <trkpt lat="47.15698" lon="5.915">
        <ele>333.2</ele>
        <time>2024-08-05T10:04:20Z</time>
      </trkpt>
      <trkpt lat="47.157" lon="5.91501">
        <ele>333.4</ele>
        <time>2024-08-05T10:04:21Z</time>
      </trkpt>
      <trkpt lat="47.15702" lon="5.91503">
        <ele>333.4</ele>
        <time>2024-08-05T10:04:22Z</time>
      </trkpt>
      <trkpt lat="47.15703" lon="5.91504">
        <ele>333.8</ele>
        <time>2024-08-05T10:04:23Z</time>
      </trkpt>
      <trkpt lat="47.15705" lon="5.91505">
        <ele>334</ele>
        <time>2024-08-05T10:04:24Z</time>
      </trkpt>
      <trkpt lat="47.15707" lon="5.91506">
        <ele>334.2</ele>
        <time>2024-08-05T10:04:25Z</time>
      </trkpt>
      <trkpt lat="47.15709" lon="5.91506">
        <ele>334.2</ele>
        <time>2024-08-05T10:04:26Z</time>
      </trkpt>
      <trkpt lat="47.15711" lon="5.91507">
        <ele>334.4</ele>
        <time>2024-08-05T10:04:27Z</time>
      </trkpt>
      <trkpt lat="47.15713" lon="5.91507">
        <ele>334.6</ele>
        <time>2024-08-05T10:04:28Z</time>
      </trkpt>
      <trkpt lat="47.15714" lon="5.91508">
        <ele>334.6</ele>
        <time>2024-08-05T10:04:29Z</time>
      </trkpt>
      <trkpt lat="47.15715" lon="5.91507">
        <ele>335</ele>
        <time>2024-08-05T10:04:30Z</time>
      </trkpt>
      <trkpt lat="47.15717" lon="5.91507">
        <ele>335.2</ele>
        <time>2024-08-05T10:04:31Z</time>
      </trkpt>
      <trkpt lat="47.15719" lon="5.91507">
        <ele>335.2</ele>
        <time>2024-08-05T10:04:32Z</time>
      </trkpt>
      <trkpt lat="47.1572" lon="5.91507">
        <ele>335.6</ele>
        <time>2024-08-05T10:04:33Z</time>
      </trkpt>
      <trkpt lat="47.15722" lon="5.91507">
        <ele>335.6</ele>
        <time>2024-08-05T10:04:34Z</time>
      </trkpt>
      <trkpt lat="47.15723" lon="5.91507">
        <ele>336</ele>
        <time>2024-08-05T10:04:35Z</time>
      </trkpt>
      <trkpt lat="47.15725" lon="5.91507">
        <ele>336.2</ele>
        <time>2024-08-05T10:04:36Z</time>
      </trkpt>
      <trkpt lat="47.15726" lon="5.91507">
        <ele>336.4</ele>
        <time>2024-08-05T10:04:37Z</time>
      </trkpt>
      <trkpt lat="47.15728" lon="5.91507">
        <ele>336.6</ele>
        <time>2024-08-05T10:04:38Z</time>
      </trkpt>
      <trkpt lat="47.15729" lon="5.91508">
        <ele>336.8</ele>
        <time>2024-08-05T10:04:39Z</time>
      </trkpt>
      <trkpt lat="47.15731" lon="5.91509">
        <ele>336.8</ele>
        <time>2024-08-05T10:04:40Z</time>
      </trkpt>
      <trkpt lat="47.15732" lon="5.91511">
        <ele>336.8</ele>
        <time>2024-08-05T10:04:41Z</time>
      </trkpt>
      <trkpt lat="47.15733" lon="5.91512">
        <ele>337.2</ele>
        <time>2024-08-05T10:04:42Z</time>
      </trkpt>
      <trkpt lat="47.15733" lon="5.91514">
        <ele>337.4</ele>
        <time>2024-08-05T10:04:43Z</time>
      </trkpt>
      <trkpt lat="47.15734" lon="5.91516">
        <ele>337.6</ele>
        <time>2024-08-05T10:04:44Z</time>
      </trkpt>
      <trkpt lat="47.15735" lon="5.91517">
        <ele>337.6</ele>
        <time>2024-08-05T10:04:45Z</time>
      </trkpt>
      <trkpt lat="47.15736" lon="5.91518">
        <ele>337.8</ele>
        <time>2024-08-05T10:04:46Z</time>
      </trkpt>
      <trkpt lat="47.15736" lon="5.9152">
        <ele>338</ele>
        <time>2024-08-05T10:04:47Z</time>
      </trkpt>
      <trkpt lat="47.15737" lon="5.91521">
        <ele>338</ele>
        <time>2024-08-05T10:04:48Z</time>
      </trkpt>
      <trkpt lat="47.15738" lon="5.91522">
        <ele>338.2</ele>
        <time>2024-08-05T10:04:49Z</time>
      </trkpt>
      <trkpt lat="47.15739" lon="5.91524">
        <ele>338.4</ele>
        <time>2024-08-05T10:04:50Z</time>
      </trkpt>
      <trkpt lat="47.1574" lon="5.91526">
        <ele>338.6</ele>
        <time>2024-08-05T10:04:51Z</time>
      </trkpt>
      <trkpt lat="47.15741" lon="5.91528">
        <ele>338.8</ele>
        <time>2024-08-05T10:04:52Z</time>
      </trkpt>
      <trkpt lat="47.15743" lon="5.91529">
        <ele>339</ele>
        <time>2024-08-05T10:04:53Z</time>
      </trkpt>
      <trkpt lat="47.15743" lon="5.91531">
        <ele>339.2</ele>
        <time>2024-08-05T10:04:54Z</time>
      </trkpt>
      <trkpt lat="47.15744" lon="5.91532">
        <ele>339.2</ele>
        <time>2024-08-05T10:04:55Z</time>
      </trkpt>
      <trkpt lat="47.15745" lon="5.91533">
        <ele>339.4</ele>
        <time>2024-08-05T10:04:56Z</time>
      </trkpt>
      <trkpt lat="47.15747" lon="5.91533">
        <ele>339.6</ele>
        <time>2024-08-05T10:04:57Z</time>
      </trkpt>
      <trkpt lat="47.15749" lon="5.91534">
        <ele>339.8</ele>
        <time>2024-08-05T10:04:58Z</time>
      </trkpt>
      <trkpt lat="47.1575" lon="5.91534">
        <ele>339.8</ele>
        <time>2024-08-05T10:04:59Z</time>
      </trkpt>
      <trkpt lat="47.15751" lon="5.91536">
        <ele>340</ele>
        <time>2024-08-05T10:05:00Z</time>
      </trkpt>
      <trkpt lat="47.15752" lon="5.91537">
        <ele>340.2</ele>
        <time>2024-08-05T10:05:01Z</time>
      </trkpt>
      <trkpt lat="47.15754" lon="5.91537">
        <ele>340.2</ele>
        <time>2024-08-05T10:05:02Z</time>
      </trkpt>
      <trkpt lat="47.15755" lon="5.91537">
        <ele>340.4</ele>
        <time>2024-08-05T10:05:03Z</time>
      </trkpt>
      <trkpt lat="47.15757" lon="5.91539">
        <ele>340.6</ele>
        <time>2024-08-05T10:05:04Z</time>
      </trkpt>
      <trkpt lat="47.15758" lon="5.91539">
        <ele>340.6</ele>
        <time>2024-08-05T10:05:05Z</time>
      </trkpt>
      <trkpt lat="47.15759" lon="5.91542">
        <ele>340.8</ele>
        <time>2024-08-05T10:05:06Z</time>
      </trkpt>
      <trkpt lat="47.1576" lon="5.91544">
        <ele>341</ele>
        <time>2024-08-05T10:05:07Z</time>
      </trkpt>
      <trkpt lat="47.15762" lon="5.91545">
        <ele>341.2</ele>
        <time>2024-08-05T10:05:08Z</time>
      </trkpt>
      <trkpt lat="47.15764" lon="5.91545">
        <ele>341.2</ele>
        <time>2024-08-05T10:05:09Z</time>
      </trkpt>
      <trkpt lat="47.15767" lon="5.91544">
        <ele>341.2</ele>
        <time>2024-08-05T10:05:10Z</time>
      </trkpt>
      <trkpt lat="47.15769" lon="5.91546">
        <ele>341.4</ele>
        <time>2024-08-05T10:05:11Z</time>
      </trkpt>
      <trkpt lat="47.15771" lon="5.91547">
        <ele>341.6</ele>
        <time>2024-08-05T10:05:12Z</time>
      </trkpt>
      <trkpt lat="47.15773" lon="5.91547">
        <ele>341.8</ele>
        <time>2024-08-05T10:05:13Z</time>
      </trkpt>
      <trkpt lat="47.15776" lon="5.91548">
        <ele>342</ele>
        <time>2024-08-05T10:05:14Z</time>
      </trkpt>
      <trkpt lat="47.15777" lon="5.91549">
        <ele>341.8</ele>
        <time>2024-08-05T10:05:15Z</time>
      </trkpt>
      <trkpt lat="47.15778" lon="5.9155">
        <ele>342</ele>
        <time>2024-08-05T10:05:16Z</time>
      </trkpt>
      <trkpt lat="47.1578" lon="5.91551">
        <ele>342.2</ele>
        <time>2024-08-05T10:05:17Z</time>
      </trkpt>
      <trkpt lat="47.15781" lon="5.91551">
        <ele>342.4</ele>
        <time>2024-08-05T10:05:18Z</time>
      </trkpt>
      <trkpt lat="47.15783" lon="5.91552">
        <ele>342.4</ele>
        <time>2024-08-05T10:05:19Z</time>
      </trkpt>
      <trkpt lat="47.15784" lon="5.91553">
        <ele>342.4</ele>
        <time>2024-08-05T10:05:20Z</time>
      </trkpt>
      <trkpt lat="47.15786" lon="5.91554">
        <ele>342.6</ele>
        <time>2024-08-05T10:05:21Z</time>
      </trkpt>
      <trkpt lat="47.15787" lon="5.91556">
        <ele>342.8</ele>
        <time>2024-08-05T10:05:22Z</time>
      </trkpt>
      <trkpt lat="47.15789" lon="5.91556">
        <ele>343</ele>
        <time>2024-08-05T10:05:23Z</time>
      </trkpt>
      <trkpt lat="47.1579" lon="5.91557">
        <ele>343.2</ele>
        <time>2024-08-05T10:05:24Z</time>
      </trkpt>
      <trkpt lat="47.15792" lon="5.91558">
        <ele>343.4</ele>
        <time>2024-08-05T10:05:25Z</time>
      </trkpt>
      <trkpt lat="47.15793" lon="5.91559">
        <ele>343.4</ele>
        <time>2024-08-05T10:05:26Z</time>
      </trkpt>
      <trkpt lat="47.15795" lon="5.9156">
        <ele>343.6</ele>
        <time>2024-08-05T10:05:27Z</time>
      </trkpt>
      <trkpt lat="47.15797" lon="5.9156">
        <ele>343.8</ele>
        <time>2024-08-05T10:05:28Z</time>
      </trkpt>
      <trkpt lat="47.15798" lon="5.91561">
        <ele>343.8</ele>
        <time>2024-08-05T10:05:29Z</time>
      </trkpt>
      <trkpt lat="47.158" lon="5.91562">
        <ele>344</ele>
        <time>2024-08-05T10:05:30Z</time>
      </trkpt>
      <trkpt lat="47.15801" lon="5.91563">
        <ele>344</ele>
        <time>2024-08-05T10:05:31Z</time>
      </trkpt>
      <trkpt lat="47.15802" lon="5.91563">
        <ele>344</ele>
        <time>2024-08-05T10:05:32Z</time>
      </trkpt>
      <trkpt lat="47.15804" lon="5.91564">
        <ele>344</ele>
        <time>2024-08-05T10:05:33Z</time>
      </trkpt>
      <trkpt lat="47.15805" lon="5.91565">
        <ele>344</ele>
        <time>2024-08-05T10:05:34Z</time>
      </trkpt>
      <trkpt lat="47.15806" lon="5.91565">
        <ele>344.2</ele>
        <time>2024-08-05T10:05:35Z</time>
      </trkpt>
      <trkpt lat="47.15807" lon="5.91565">
        <ele>344.4</ele>
        <time>2024-08-05T10:05:36Z</time>
      </trkpt>
      <trkpt lat="47.15809" lon="5.91564">
        <ele>344.6</ele>
        <time>2024-08-05T10:05:37Z</time>
      </trkpt>
      <trkpt lat="47.1581" lon="5.91565">
        <ele>344.8</ele>
        <time>2024-08-05T10:05:38Z</time>
      </trkpt>
      <trkpt lat="47.15812" lon="5.91565">
        <ele>344.8</ele>
        <time>2024-08-05T10:05:39Z</time>
      </trkpt>
      <trkpt lat="47.15813" lon="5.91566">
        <ele>345</ele>
        <time>2024-08-05T10:05:40Z</time>
      </trkpt>
      <trkpt lat="47.15815" lon="5.91566">
        <ele>345.2</ele>
        <time>2024-08-05T10:05:41Z</time>
      </trkpt>
      <trkpt lat="47.15816" lon="5.91567">
        <ele>345.2</ele>
        <time>2024-08-05T10:05:42Z</time>
      </trkpt>
      <trkpt lat="47.15817" lon="5.91567">
        <ele>345.4</ele>
        <time>2024-08-05T10:05:43Z</time>
      </trkpt>
      <trkpt lat="47.15819" lon="5.91567">
        <ele>345.2</ele>
        <time>2024-08-05T10:05:44Z</time>
      </trkpt>
      <trkpt lat="47.1582" lon="5.91566">
        <ele>345.4</ele>
        <time>2024-08-05T10:05:45Z</time>
      </trkpt>
      <trkpt lat="47.15822" lon="5.91566">
        <ele>345.6</ele>
        <time>2024-08-05T10:05:46Z</time>
      </trkpt>
      <trkpt lat="47.15825" lon="5.91565">
        <ele>345.6</ele>
        <time>2024-08-05T10:05:47Z</time>
      </trkpt>
      <trkpt lat="47.15827" lon="5.91564">
        <ele>345.4</ele>
        <time>2024-08-05T10:05:48Z</time>
      </trkpt>
      <trkpt lat="47.1583" lon="5.91562">
        <ele>345.6</ele>
        <time>2024-08-05T10:05:49Z</time>
      </trkpt>
      <trkpt lat="47.15832" lon="5.91561">
        <ele>345.4</ele>
        <time>2024-08-05T10:05:50Z</time>
      </trkpt>
      <trkpt lat="47.15835" lon="5.91561">
        <ele>345.6</ele>
        <time>2024-08-05T10:05:51Z</time>
      </trkpt>
      <trkpt lat="47.15838" lon="5.91561">
        <ele>345.4</ele>
        <time>2024-08-05T10:05:52Z</time>
      </trkpt>
      <trkpt lat="47.15841" lon="5.91561">
        <ele>345.4</ele>
        <time>2024-08-05T10:05:53Z</time>
      </trkpt>
      <trkpt lat="47.15843" lon="5.9156">
        <ele>345.4</ele>
        <time>2024-08-05T10:05:54Z</time>
      </trkpt>
      <trkpt lat="47.15846" lon="5.9156">
        <ele>345.4</ele>
        <time>2024-08-05T10:05:55Z</time>
      </trkpt>
      <trkpt lat="47.15849" lon="5.9156">
        <ele>345.6</ele>
        <time>2024-08-05T10:05:56Z</time>
      </trkpt>
      <trkpt lat="47.15851" lon="5.91561">
        <ele>345</ele>
        <time>2024-08-05T10:05:57Z</time>
      </trkpt>
      <trkpt lat="47.15854" lon="5.91561">
        <ele>344.6</ele>
        <time>2024-08-05T10:05:58Z</time>
      </trkpt>
      <trkpt lat="47.15857" lon="5.91561">
        <ele>344.2</ele>
        <time>2024-08-05T10:05:59Z</time>
      </trkpt>
      <trkpt lat="47.15859" lon="5.9156">
        <ele>343.8</ele>
        <time>2024-08-05T10:06:00Z</time>
      </trkpt>
      <trkpt lat="47.15861" lon="5.91559">
        <ele>343.2</ele>
        <time>2024-08-05T10:06:01Z</time>
      </trkpt>
      <trkpt lat="47.15864" lon="5.91557">
        <ele>342.8</ele>
        <time>2024-08-05T10:06:02Z</time>
      </trkpt>
      <trkpt lat="47.15866" lon="5.91556">
        <ele>342</ele>
        <time>2024-08-05T10:06:03Z</time>
      </trkpt>
      <trkpt lat="47.15868" lon="5.91554">
        <ele>341.6</ele>
        <time>2024-08-05T10:06:04Z</time>
      </trkpt>
      <trkpt lat="47.15871" lon="5.91551">
        <ele>341.2</ele>
        <time>2024-08-05T10:06:05Z</time>
      </trkpt>
      <trkpt lat="47.15873" lon="5.91548">
        <ele>341</ele>
        <time>2024-08-05T10:06:06Z</time>
      </trkpt>
      <trkpt lat="47.15874" lon="5.91546">
        <ele>341</ele>
        <time>2024-08-05T10:06:07Z</time>
      </trkpt>
      <trkpt lat="47.15876" lon="5.91544">
        <ele>340.8</ele>
        <time>2024-08-05T10:06:08Z</time>
      </trkpt>
      <trkpt lat="47.15878" lon="5.91541">
        <ele>340.8</ele>
        <time>2024-08-05T10:06:09Z</time>
      </trkpt>
      <trkpt lat="47.15881" lon="5.91539">
        <ele>340.8</ele>
        <time>2024-08-05T10:06:10Z</time>
      </trkpt>
      <trkpt lat="47.15882" lon="5.91536">
        <ele>340.8</ele>
        <time>2024-08-05T10:06:11Z</time>
      </trkpt>
      <trkpt lat="47.15883" lon="5.91534">
        <ele>340.8</ele>
        <time>2024-08-05T10:06:12Z</time>
      </trkpt>
      <trkpt lat="47.15885" lon="5.91531">
        <ele>340.6</ele>
        <time>2024-08-05T10:06:13Z</time>
      </trkpt>
      <trkpt lat="47.15887" lon="5.91529">
        <ele>340.8</ele>
        <time>2024-08-05T10:06:14Z</time>
      </trkpt>
      <trkpt lat="47.15889" lon="5.91527">
        <ele>340.8</ele>
        <time>2024-08-05T10:06:15Z</time>
      </trkpt>
      <trkpt lat="47.15891" lon="5.91525">
        <ele>340.8</ele>
        <time>2024-08-05T10:06:16Z</time>
      </trkpt>
      <trkpt lat="47.15893" lon="5.91522">
        <ele>340.8</ele>
        <time>2024-08-05T10:06:17Z</time>
      </trkpt>
      <trkpt lat="47.15894" lon="5.9152">
        <ele>340.8</ele>
        <time>2024-08-05T10:06:18Z</time>
      </trkpt>
      <trkpt lat="47.15896" lon="5.91519">
        <ele>341</ele>
        <time>2024-08-05T10:06:19Z</time>
      </trkpt>
      <trkpt lat="47.15897" lon="5.91517">
        <ele>341.2</ele>
        <time>2024-08-05T10:06:20Z</time>
      </trkpt>
      <trkpt lat="47.15898" lon="5.91516">
        <ele>341.4</ele>
        <time>2024-08-05T10:06:21Z</time>
      </trkpt>
      <trkpt lat="47.15899" lon="5.91514">
        <ele>342</ele>
        <time>2024-08-05T10:06:22Z</time>
      </trkpt>
      <trkpt lat="47.159" lon="5.91512">
        <ele>342.2</ele>
        <time>2024-08-05T10:06:23Z</time>
      </trkpt>
      <trkpt lat="47.15902" lon="5.91511">
        <ele>342.6</ele>
        <time>2024-08-05T10:06:24Z</time>
      </trkpt>
      <trkpt lat="47.15903" lon="5.91509">
        <ele>342.8</ele>
        <time>2024-08-05T10:06:25Z</time>
      </trkpt>
      <trkpt lat="47.15905" lon="5.91508">
        <ele>343</ele>
        <time>2024-08-05T10:06:26Z</time>
      </trkpt>
      <trkpt lat="47.15906" lon="5.91506">
        <ele>343.2</ele>
        <time>2024-08-05T10:06:27Z</time>
      </trkpt>
      <trkpt lat="47.15907" lon="5.91505">
        <ele>343.6</ele>
        <time>2024-08-05T10:06:28Z</time>
      </trkpt>
      <trkpt lat="47.15908" lon="5.91504">
        <ele>343.8</ele>
        <time>2024-08-05T10:06:29Z</time>
      </trkpt>
      <trkpt lat="47.15909" lon="5.91502">
        <ele>344</ele>
        <time>2024-08-05T10:06:30Z</time>
      </trkpt>
      <trkpt lat="47.1591" lon="5.915">
        <ele>344.4</ele>
        <time>2024-08-05T10:06:31Z</time>
      </trkpt>
      <trkpt lat="47.15912" lon="5.91498">
        <ele>344.8</ele>
        <time>2024-08-05T10:06:32Z</time>
      </trkpt>
      <trkpt lat="47.15913" lon="5.91497">
        <ele>345</ele>
        <time>2024-08-05T10:06:33Z</time>
      </trkpt>
      <trkpt lat="47.15914" lon="5.91495">
        <ele>345.6</ele>
        <time>2024-08-05T10:06:34Z</time>
      </trkpt>
      <trkpt lat="47.15915" lon="5.91493">
        <ele>346</ele>
        <time>2024-08-05T10:06:35Z</time>
      </trkpt>
      <trkpt lat="47.15916" lon="5.91492">
        <ele>346.2</ele>
        <time>2024-08-05T10:06:36Z</time>
      </trkpt>
      <trkpt lat="47.15917" lon="5.91491">
        <ele>346.2</ele>
        <time>2024-08-05T10:06:37Z</time>
      </trkpt>
      <trkpt lat="47.15918" lon="5.91489">
        <ele>346.4</ele>
        <time>2024-08-05T10:06:38Z</time>
      </trkpt>
      <trkpt lat="47.15919" lon="5.91488">
        <ele>346.8</ele>
        <time>2024-08-05T10:06:39Z</time>
      </trkpt>
      <trkpt lat="47.1592" lon="5.91486">
        <ele>347.2</ele>
        <time>2024-08-05T10:06:40Z</time>
      </trkpt>
      <trkpt lat="47.15921" lon="5.91485">
        <ele>347.6</ele>
        <time>2024-08-05T10:06:41Z</time>
      </trkpt>
      <trkpt lat="47.15921" lon="5.91484">
        <ele>347.8</ele>
        <time>2024-08-05T10:06:42Z</time>
      </trkpt>
      <trkpt lat="47.15923" lon="5.91482">
        <ele>348.2</ele>
        <time>2024-08-05T10:06:43Z</time>
      </trkpt>
      <trkpt lat="47.15923" lon="5.91482">
        <ele>348.4</ele>
        <time>2024-08-05T10:06:44Z</time>
      </trkpt>
      <trkpt lat="47.15924" lon="5.9148">
        <ele>349</ele>
        <time>2024-08-05T10:06:45Z</time>
      </trkpt>
      <trkpt lat="47.15925" lon="5.91479">
        <ele>349.4</ele>
        <time>2024-08-05T10:06:46Z</time>
      </trkpt>
      <trkpt lat="47.15925" lon="5.91477">
        <ele>349.8</ele>
        <time>2024-08-05T10:06:47Z</time>
      </trkpt>
      <trkpt lat="47.15926" lon="5.91476">
        <ele>350</ele>
        <time>2024-08-05T10:06:48Z</time>
      </trkpt>
      <trkpt lat="47.15927" lon="5.91474">
        <ele>350.4</ele>
        <time>2024-08-05T10:06:49Z</time>
      </trkpt>
      <trkpt lat="47.15928" lon="5.91473">
        <ele>350.6</ele>
        <time>2024-08-05T10:06:50Z</time>
      </trkpt>
      <trkpt lat="47.15929" lon="5.91471">
        <ele>350.8</ele>
        <time>2024-08-05T10:06:51Z</time>
      </trkpt>
      <trkpt lat="47.15929" lon="5.9147">
        <ele>351.2</ele>
        <time>2024-08-05T10:06:52Z</time>
      </trkpt>
      <trkpt lat="47.1593" lon="5.91469">
        <ele>351.6</ele>
        <time>2024-08-05T10:06:53Z</time>
      </trkpt>
      <trkpt lat="47.15931" lon="5.91467">
        <ele>351.6</ele>
        <time>2024-08-05T10:06:54Z</time>
      </trkpt>
      <trkpt lat="47.15932" lon="5.91465">
        <ele>352</ele>
        <time>2024-08-05T10:06:55Z</time>
      </trkpt>
      <trkpt lat="47.15933" lon="5.91464">
        <ele>352.2</ele>
        <time>2024-08-05T10:06:56Z</time>
      </trkpt>
      <trkpt lat="47.15934" lon="5.91462">
        <ele>352.4</ele>
        <time>2024-08-05T10:06:57Z</time>
      </trkpt>
      <trkpt lat="47.15935" lon="5.91461">
        <ele>352.6</ele>
        <time>2024-08-05T10:06:58Z</time>
      </trkpt>
      <trkpt lat="47.15935" lon="5.9146">
        <ele>352.6</ele>
        <time>2024-08-05T10:06:59Z</time>
      </trkpt>
      <trkpt lat="47.15936" lon="5.91458">
        <ele>353</ele>
        <time>2024-08-05T10:07:00Z</time>
      </trkpt>
      <trkpt lat="47.15937" lon="5.91457">
        <ele>353.2</ele>
        <time>2024-08-05T10:07:01Z</time>
      </trkpt>
      <trkpt lat="47.15938" lon="5.91455">
        <ele>353.2</ele>
        <time>2024-08-05T10:07:02Z</time>
      </trkpt>
      <trkpt lat="47.15939" lon="5.91453">
        <ele>353.6</ele>
        <time>2024-08-05T10:07:03Z</time>
      </trkpt>
      <trkpt lat="47.1594" lon="5.91452">
        <ele>353.8</ele>
        <time>2024-08-05T10:07:04Z</time>
      </trkpt>
      <trkpt lat="47.15941" lon="5.91451">
        <ele>354</ele>
        <time>2024-08-05T10:07:05Z</time>
      </trkpt>
      <trkpt lat="47.15942" lon="5.91449">
        <ele>354</ele>
        <time>2024-08-05T10:07:06Z</time>
      </trkpt>
      <trkpt lat="47.15943" lon="5.91448">
        <ele>354.4</ele>
        <time>2024-08-05T10:07:07Z</time>
      </trkpt>
      <trkpt lat="47.15944" lon="5.91447">
        <ele>354.4</ele>
        <time>2024-08-05T10:07:08Z</time>
      </trkpt>
      <trkpt lat="47.15945" lon="5.91446">
        <ele>354.6</ele>
        <time>2024-08-05T10:07:09Z</time>
      </trkpt>
      <trkpt lat="47.15946" lon="5.91444">
        <ele>354.8</ele>
        <time>2024-08-05T10:07:10Z</time>
      </trkpt>
      <trkpt lat="47.15947" lon="5.91443">
        <ele>355</ele>
        <time>2024-08-05T10:07:11Z</time>
      </trkpt>
      <trkpt lat="47.15949" lon="5.91441">
        <ele>355.2</ele>
        <time>2024-08-05T10:07:12Z</time>
      </trkpt>
      <trkpt lat="47.1595" lon="5.91439">
        <ele>355.4</ele>
        <time>2024-08-05T10:07:13Z</time>
      </trkpt>
      <trkpt lat="47.15951" lon="5.91438">
        <ele>355.4</ele>
        <time>2024-08-05T10:07:14Z</time>
      </trkpt>
      <trkpt lat="47.15952" lon="5.91436">
        <ele>355.6</ele>
        <time>2024-08-05T10:07:15Z</time>
      </trkpt>
      <trkpt lat="47.15953" lon="5.91434">
        <ele>355.8</ele>
        <time>2024-08-05T10:07:16Z</time>
      </trkpt>
      <trkpt lat="47.15954" lon="5.91433">
        <ele>355.8</ele>
        <time>2024-08-05T10:07:17Z</time>
      </trkpt>
      <trkpt lat="47.15955" lon="5.91431">
        <ele>355.8</ele>
        <time>2024-08-05T10:07:18Z</time>
      </trkpt>
      <trkpt lat="47.15956" lon="5.9143">
        <ele>355.8</ele>
        <time>2024-08-05T10:07:19Z</time>
      </trkpt>
      <trkpt lat="47.15958" lon="5.91428">
        <ele>356</ele>
        <time>2024-08-05T10:07:20Z</time>
      </trkpt>
      <trkpt lat="47.15959" lon="5.91427">
        <ele>356</ele>
        <time>2024-08-05T10:07:21Z</time>
      </trkpt>
      <trkpt lat="47.1596" lon="5.91425">
        <ele>356.2</ele>
        <time>2024-08-05T10:07:22Z</time>
      </trkpt>
      <trkpt lat="47.1596" lon="5.91423">
        <ele>356.2</ele>
        <time>2024-08-05T10:07:23Z</time>
      </trkpt>
      <trkpt lat="47.15961" lon="5.91421">
        <ele>356.2</ele>
        <time>2024-08-05T10:07:24Z</time>
      </trkpt>
      <trkpt lat="47.15962" lon="5.91419">
        <ele>356.2</ele>
        <time>2024-08-05T10:07:25Z</time>
      </trkpt>
      <trkpt lat="47.15964" lon="5.91418">
        <ele>356.4</ele>
        <time>2024-08-05T10:07:26Z</time>
      </trkpt>
      <trkpt lat="47.15965" lon="5.91416">
        <ele>356.4</ele>
        <time>2024-08-05T10:07:27Z</time>
      </trkpt>
      <trkpt lat="47.15966" lon="5.91414">
        <ele>356.4</ele>
        <time>2024-08-05T10:07:28Z</time>
      </trkpt>
      <trkpt lat="47.15967" lon="5.91412">
        <ele>356.6</ele>
        <time>2024-08-05T10:07:29Z</time>
      </trkpt>
      <trkpt lat="47.15968" lon="5.9141">
        <ele>356.6</ele>
        <time>2024-08-05T10:07:30Z</time>
      </trkpt>
      <trkpt lat="47.15969" lon="5.91408">
        <ele>356.8</ele>
        <time>2024-08-05T10:07:31Z</time>
      </trkpt>
      <trkpt lat="47.1597" lon="5.91406">
        <ele>356.8</ele>
        <time>2024-08-05T10:07:32Z</time>
      </trkpt>
      <trkpt lat="47.15971" lon="5.91404">
        <ele>356.8</ele>
        <time>2024-08-05T10:07:33Z</time>
      </trkpt>
      <trkpt lat="47.15972" lon="5.91402">
        <ele>356.8</ele>
        <time>2024-08-05T10:07:34Z</time>
      </trkpt>
      <trkpt lat="47.15973" lon="5.914">
        <ele>356.8</ele>
        <time>2024-08-05T10:07:35Z</time>
      </trkpt>
      <trkpt lat="47.15974" lon="5.91398">
        <ele>356.8</ele>
        <time>2024-08-05T10:07:36Z</time>
      </trkpt>
      <trkpt lat="47.15976" lon="5.91396">
        <ele>356.8</ele>
        <time>2024-08-05T10:07:37Z</time>
      </trkpt>
      <trkpt lat="47.15977" lon="5.91394">
        <ele>357</ele>
        <time>2024-08-05T10:07:38Z</time>
      </trkpt>
      <trkpt lat="47.15979" lon="5.91391">
        <ele>357</ele>
        <time>2024-08-05T10:07:39Z</time>
      </trkpt>
      <trkpt lat="47.15981" lon="5.91388">
        <ele>357</ele>
        <time>2024-08-05T10:07:40Z</time>
      </trkpt>
      <trkpt lat="47.15983" lon="5.91385">
        <ele>357</ele>
        <time>2024-08-05T10:07:41Z</time>
      </trkpt>
      <trkpt lat="47.15985" lon="5.91382">
        <ele>357</ele>
        <time>2024-08-05T10:07:42Z</time>
      </trkpt>
      <trkpt lat="47.15987" lon="5.91379">
        <ele>357</ele>
        <time>2024-08-05T10:07:43Z</time>
      </trkpt>
      <trkpt lat="47.15989" lon="5.91375">
        <ele>356.8</ele>
        <time>2024-08-05T10:07:44Z</time>
      </trkpt>
      <trkpt lat="47.15992" lon="5.91372">
        <ele>356.8</ele>
        <time>2024-08-05T10:07:45Z</time>
      </trkpt>
      <trkpt lat="47.15994" lon="5.91368">
        <ele>356.8</ele>
        <time>2024-08-05T10:07:46Z</time>
      </trkpt>
      <trkpt lat="47.15997" lon="5.91365">
        <ele>356.8</ele>
        <time>2024-08-05T10:07:47Z</time>
      </trkpt>
      <trkpt lat="47.15999" lon="5.91362">
        <ele>356.8</ele>
        <time>2024-08-05T10:07:48Z</time>
      </trkpt>
      <trkpt lat="47.16003" lon="5.91359">
        <ele>356.8</ele>
        <time>2024-08-05T10:07:49Z</time>
      </trkpt>
      <trkpt lat="47.16005" lon="5.91356">
        <ele>356.6</ele>
        <time>2024-08-05T10:07:50Z</time>
      </trkpt>
      <trkpt lat="47.16008" lon="5.91353">
        <ele>356.8</ele>
        <time>2024-08-05T10:07:51Z</time>
      </trkpt>
      <trkpt lat="47.1601" lon="5.91351">
        <ele>356.4</ele>
        <time>2024-08-05T10:07:52Z</time>
      </trkpt>
      <trkpt lat="47.16011" lon="5.91348">
        <ele>356.4</ele>
        <time>2024-08-05T10:07:53Z</time>
      </trkpt>
      <trkpt lat="47.16013" lon="5.91346">
        <ele>356</ele>
        <time>2024-08-05T10:07:54Z</time>
      </trkpt>
      <trkpt lat="47.16014" lon="5.91346">
        <ele>356</ele>
        <time>2024-08-05T10:07:55Z</time>
      </trkpt>
      <trkpt lat="47.16016" lon="5.91345">
        <ele>355.8</ele>
        <time>2024-08-05T10:07:56Z</time>
      </trkpt>
      <trkpt lat="47.16018" lon="5.91345">
        <ele>355.8</ele>
        <time>2024-08-05T10:07:57Z</time>
      </trkpt>
      <trkpt lat="47.1602" lon="5.91345">
        <ele>355.6</ele>
        <time>2024-08-05T10:07:58Z</time>
      </trkpt>
      <trkpt lat="47.16021" lon="5.91345">
        <ele>355.4</ele>
        <time>2024-08-05T10:07:59Z</time>
      </trkpt>
      <trkpt lat="47.16023" lon="5.91344">
        <ele>355.4</ele>
        <time>2024-08-05T10:08:00Z</time>
      </trkpt>
      <trkpt lat="47.16024" lon="5.91344">
        <ele>355.4</ele>
        <time>2024-08-05T10:08:01Z</time>
      </trkpt>
      <trkpt lat="47.16026" lon="5.91343">
        <ele>355.4</ele>
        <time>2024-08-05T10:08:02Z</time>
      </trkpt>
      <trkpt lat="47.16027" lon="5.91343">
        <ele>355.4</ele>
        <time>2024-08-05T10:08:03Z</time>
      </trkpt>
      <trkpt lat="47.16029" lon="5.91342">
        <ele>355.2</ele>
        <time>2024-08-05T10:08:04Z</time>
      </trkpt>
      <trkpt lat="47.16031" lon="5.91341">
        <ele>355.2</ele>
        <time>2024-08-05T10:08:05Z</time>
      </trkpt>
      <trkpt lat="47.16033" lon="5.91341">
        <ele>355.2</ele>
        <time>2024-08-05T10:08:06Z</time>
      </trkpt>
      <trkpt lat="47.16035" lon="5.9134">
        <ele>355.4</ele>
        <time>2024-08-05T10:08:07Z</time>
      </trkpt>
      <trkpt lat="47.16037" lon="5.91339">
        <ele>355.2</ele>
        <time>2024-08-05T10:08:08Z</time>
      </trkpt>
      <trkpt lat="47.1604" lon="5.91339">
        <ele>355.2</ele>
        <time>2024-08-05T10:08:09Z</time>
      </trkpt>
      <trkpt lat="47.16043" lon="5.91338">
        <ele>355.2</ele>
        <time>2024-08-05T10:08:10Z</time>
      </trkpt>
      <trkpt lat="47.16045" lon="5.91337">
        <ele>355.2</ele>
        <time>2024-08-05T10:08:11Z</time>
      </trkpt>
      <trkpt lat="47.16048" lon="5.91336">
        <ele>355.2</ele>
        <time>2024-08-05T10:08:12Z</time>
      </trkpt>
      <trkpt lat="47.1605" lon="5.91336">
        <ele>355.4</ele>
        <time>2024-08-05T10:08:13Z</time>
      </trkpt>
      <trkpt lat="47.16052" lon="5.91336">
        <ele>355.4</ele>
        <time>2024-08-05T10:08:14Z</time>
      </trkpt>
      <trkpt lat="47.16053" lon="5.91335">
        <ele>355.6</ele>
        <time>2024-08-05T10:08:15Z</time>
      </trkpt>
      <trkpt lat="47.16055" lon="5.91334">
        <ele>355.4</ele>
        <time>2024-08-05T10:08:16Z</time>
      </trkpt>
      <trkpt lat="47.16058" lon="5.91331">
        <ele>355.4</ele>
        <time>2024-08-05T10:08:17Z</time>
      </trkpt>
      <trkpt lat="47.1606" lon="5.91328">
        <ele>355.6</ele>
        <time>2024-08-05T10:08:18Z</time>
      </trkpt>
      <trkpt lat="47.16063" lon="5.91325">
        <ele>355.6</ele>
        <time>2024-08-05T10:08:19Z</time>
      </trkpt>
      <trkpt lat="47.16064" lon="5.91324">
        <ele>355.8</ele>
        <time>2024-08-05T10:08:20Z</time>
      </trkpt>
      <trkpt lat="47.16067" lon="5.91322">
        <ele>355.8</ele>
        <time>2024-08-05T10:08:21Z</time>
      </trkpt>
      <trkpt lat="47.16069" lon="5.91321">
        <ele>356</ele>
        <time>2024-08-05T10:08:22Z</time>
      </trkpt>
      <trkpt lat="47.16072" lon="5.91319">
        <ele>356.2</ele>
        <time>2024-08-05T10:08:23Z</time>
      </trkpt>
      <trkpt lat="47.16074" lon="5.91318">
        <ele>356</ele>
        <time>2024-08-05T10:08:24Z</time>
      </trkpt>
      <trkpt lat="47.16075" lon="5.91317">
        <ele>356.2</ele>
        <time>2024-08-05T10:08:25Z</time>
      </trkpt>
      <trkpt lat="47.16077" lon="5.91316">
        <ele>356.4</ele>
        <time>2024-08-05T10:08:26Z</time>
      </trkpt>
      <trkpt lat="47.16079" lon="5.91314">
        <ele>356.4</ele>
        <time>2024-08-05T10:08:27Z</time>
      </trkpt>
      <trkpt lat="47.16081" lon="5.91313">
        <ele>356.6</ele>
        <time>2024-08-05T10:08:28Z</time>
      </trkpt>
      <trkpt lat="47.16083" lon="5.91311">
        <ele>356.4</ele>
        <time>2024-08-05T10:08:29Z</time>
      </trkpt>
      <trkpt lat="47.16085" lon="5.9131">
        <ele>356.6</ele>
        <time>2024-08-05T10:08:30Z</time>
      </trkpt>
      <trkpt lat="47.16087" lon="5.91309">
        <ele>356.6</ele>
        <time>2024-08-05T10:08:31Z</time>
      </trkpt>
      <trkpt lat="47.16089" lon="5.91307">
        <ele>356.6</ele>
        <time>2024-08-05T10:08:32Z</time>
      </trkpt>
      <trkpt lat="47.16093" lon="5.91305">
        <ele>356.8</ele>
        <time>2024-08-05T10:08:33Z</time>
      </trkpt>
      <trkpt lat="47.16097" lon="5.91301">
        <ele>357</ele>
        <time>2024-08-05T10:08:34Z</time>
      </trkpt>
      <trkpt lat="47.16099" lon="5.91299">
        <ele>357</ele>
        <time>2024-08-05T10:08:35Z</time>
      </trkpt>
      <trkpt lat="47.16103" lon="5.91296">
        <ele>357</ele>
        <time>2024-08-05T10:08:36Z</time>
      </trkpt>
      <trkpt lat="47.16105" lon="5.91294">
        <ele>357</ele>
        <time>2024-08-05T10:08:37Z</time>
      </trkpt>
      <trkpt lat="47.16108" lon="5.91291">
        <ele>357.2</ele>
        <time>2024-08-05T10:08:38Z</time>
      </trkpt>
      <trkpt lat="47.16111" lon="5.91287">
        <ele>357.4</ele>
        <time>2024-08-05T10:08:39Z</time>
      </trkpt>
      <trkpt lat="47.16113" lon="5.91285">
        <ele>357.4</ele>
        <time>2024-08-05T10:08:40Z</time>
      </trkpt>
      <trkpt lat="47.16115" lon="5.91282">
        <ele>357.4</ele>
        <time>2024-08-05T10:08:41Z</time>
      </trkpt>
      <trkpt lat="47.16118" lon="5.91279">
        <ele>357.4</ele>
        <time>2024-08-05T10:08:42Z</time>
      </trkpt>
      <trkpt lat="47.1612" lon="5.91277">
        <ele>357.6</ele>
        <time>2024-08-05T10:08:43Z</time>
      </trkpt>
      <trkpt lat="47.16122" lon="5.91274">
        <ele>357.8</ele>
        <time>2024-08-05T10:08:44Z</time>
      </trkpt>
      <trkpt lat="47.16123" lon="5.91272">
        <ele>357.6</ele>
        <time>2024-08-05T10:08:45Z</time>
      </trkpt>
      <trkpt lat="47.16125" lon="5.91271">
        <ele>357.8</ele>
        <time>2024-08-05T10:08:46Z</time>
      </trkpt>
      <trkpt lat="47.16127" lon="5.91268">
        <ele>357.8</ele>
        <time>2024-08-05T10:08:47Z</time>
      </trkpt>
      <trkpt lat="47.16129" lon="5.91266">
        <ele>357.8</ele>
        <time>2024-08-05T10:08:48Z</time>
      </trkpt>
      <trkpt lat="47.16131" lon="5.91263">
        <ele>358</ele>
        <time>2024-08-05T10:08:49Z</time>
      </trkpt>
      <trkpt lat="47.16133" lon="5.9126">
        <ele>358</ele>
        <time>2024-08-05T10:08:50Z</time>
      </trkpt>
      <trkpt lat="47.16134" lon="5.91257">
        <ele>358</ele>
        <time>2024-08-05T10:08:51Z</time>
      </trkpt>
      <trkpt lat="47.16136" lon="5.91255">
        <ele>358</ele>
        <time>2024-08-05T10:08:52Z</time>
      </trkpt>
      <trkpt lat="47.16138" lon="5.91253">
        <ele>358.2</ele>
        <time>2024-08-05T10:08:53Z</time>
      </trkpt>
      <trkpt lat="47.1614" lon="5.91251">
        <ele>358.4</ele>
        <time>2024-08-05T10:08:54Z</time>
      </trkpt>
      <trkpt lat="47.16142" lon="5.91248">
        <ele>358.4</ele>
        <time>2024-08-05T10:08:55Z</time>
      </trkpt>
      <trkpt lat="47.16144" lon="5.91245">
        <ele>358.6</ele>
        <time>2024-08-05T10:08:56Z</time>
      </trkpt>
      <trkpt lat="47.16146" lon="5.91242">
        <ele>358.4</ele>
        <time>2024-08-05T10:08:57Z</time>
      </trkpt>
      <trkpt lat="47.16148" lon="5.9124">
        <ele>358.6</ele>
        <time>2024-08-05T10:08:58Z</time>
      </trkpt>
      <trkpt lat="47.1615" lon="5.91237">
        <ele>358.6</ele>
        <time>2024-08-05T10:08:59Z</time>
      </trkpt>
      <trkpt lat="47.16151" lon="5.91234">
        <ele>358.6</ele>
        <time>2024-08-05T10:09:00Z</time>
      </trkpt>
      <trkpt lat="47.16153" lon="5.91231">
        <ele>358.6</ele>
        <time>2024-08-05T10:09:01Z</time>
      </trkpt>
      <trkpt lat="47.16155" lon="5.9123">
        <ele>358.8</ele>
        <time>2024-08-05T10:09:02Z</time>
      </trkpt>
      <trkpt lat="47.16156" lon="5.91228">
        <ele>358.6</ele>
        <time>2024-08-05T10:09:03Z</time>
      </trkpt>
      <trkpt lat="47.16158" lon="5.91227">
        <ele>358.8</ele>
        <time>2024-08-05T10:09:04Z</time>
      </trkpt>
      <trkpt lat="47.1616" lon="5.91226">
        <ele>359</ele>
        <time>2024-08-05T10:09:05Z</time>
      </trkpt>
      <trkpt lat="47.16162" lon="5.91226">
        <ele>359</ele>
        <time>2024-08-05T10:09:06Z</time>
      </trkpt>
      <trkpt lat="47.16164" lon="5.91225">
        <ele>359.2</ele>
        <time>2024-08-05T10:09:07Z</time>
      </trkpt>
      <trkpt lat="47.16166" lon="5.91224">
        <ele>359.4</ele>
        <time>2024-08-05T10:09:08Z</time>
      </trkpt>
      <trkpt lat="47.16169" lon="5.91222">
        <ele>359.4</ele>
        <time>2024-08-05T10:09:09Z</time>
      </trkpt>
      <trkpt lat="47.16171" lon="5.91219">
        <ele>359.4</ele>
        <time>2024-08-05T10:09:10Z</time>
      </trkpt>
      <trkpt lat="47.16173" lon="5.91217">
        <ele>359.8</ele>
        <time>2024-08-05T10:09:11Z</time>
      </trkpt>
      <trkpt lat="47.16175" lon="5.91215">
        <ele>359.8</ele>
        <time>2024-08-05T10:09:12Z</time>
      </trkpt>
      <trkpt lat="47.16177" lon="5.91213">
        <ele>360</ele>
        <time>2024-08-05T10:09:13Z</time>
      </trkpt>
      <trkpt lat="47.1618" lon="5.91211">
        <ele>360.2</ele>
        <time>2024-08-05T10:09:14Z</time>
      </trkpt>
      <trkpt lat="47.16182" lon="5.91208">
        <ele>360.2</ele>
        <time>2024-08-05T10:09:15Z</time>
      </trkpt>
      <trkpt lat="47.16184" lon="5.91206">
        <ele>360.2</ele>
        <time>2024-08-05T10:09:16Z</time>
      </trkpt>
      <trkpt lat="47.16186" lon="5.91204">
        <ele>360.2</ele>
        <time>2024-08-05T10:09:17Z</time>
      </trkpt>
      <trkpt lat="47.16188" lon="5.91201">
        <ele>360.2</ele>
        <time>2024-08-05T10:09:18Z</time>
      </trkpt>
      <trkpt lat="47.1619" lon="5.91199">
        <ele>360.4</ele>
        <time>2024-08-05T10:09:19Z</time>
      </trkpt>
      <trkpt lat="47.16192" lon="5.91196">
        <ele>360.6</ele>
        <time>2024-08-05T10:09:20Z</time>
      </trkpt>
      <trkpt lat="47.16194" lon="5.91194">
        <ele>360.4</ele>
        <time>2024-08-05T10:09:21Z</time>
      </trkpt>
      <trkpt lat="47.16196" lon="5.91193">
        <ele>360.6</ele>
        <time>2024-08-05T10:09:22Z</time>
      </trkpt>
      <trkpt lat="47.16198" lon="5.91191">
        <ele>360.8</ele>
        <time>2024-08-05T10:09:23Z</time>
      </trkpt>
      <trkpt lat="47.162" lon="5.91189">
        <ele>360.8</ele>
        <time>2024-08-05T10:09:24Z</time>
      </trkpt>
      <trkpt lat="47.16202" lon="5.91188">
        <ele>361</ele>
        <time>2024-08-05T10:09:25Z</time>
      </trkpt>
      <trkpt lat="47.16205" lon="5.91185">
        <ele>361</ele>
        <time>2024-08-05T10:09:26Z</time>
      </trkpt>
      <trkpt lat="47.16207" lon="5.91183">
        <ele>361</ele>
        <time>2024-08-05T10:09:27Z</time>
      </trkpt>
      <trkpt lat="47.1621" lon="5.91181">
        <ele>361</ele>
        <time>2024-08-05T10:09:28Z</time>
      </trkpt>
      <trkpt lat="47.16212" lon="5.9118">
        <ele>361</ele>
        <time>2024-08-05T10:09:29Z</time>
      </trkpt>
      <trkpt lat="47.16214" lon="5.91179">
        <ele>361.2</ele>
        <time>2024-08-05T10:09:30Z</time>
      </trkpt>
      <trkpt lat="47.16216" lon="5.91177">
        <ele>361.2</ele>
        <time>2024-08-05T10:09:31Z</time>
      </trkpt>
      <trkpt lat="47.16218" lon="5.91176">
        <ele>361.2</ele>
        <time>2024-08-05T10:09:32Z</time>
      </trkpt>
      <trkpt lat="47.1622" lon="5.91175">
        <ele>361</ele>
        <time>2024-08-05T10:09:33Z</time>
      </trkpt>
      <trkpt lat="47.16221" lon="5.91175">
        <ele>361.2</ele>
        <time>2024-08-05T10:09:34Z</time>
      </trkpt>
      <trkpt lat="47.16222" lon="5.91174">
        <ele>361.2</ele>
        <time>2024-08-05T10:09:35Z</time>
      </trkpt>
      <trkpt lat="47.16224" lon="5.91172">
        <ele>361.4</ele>
        <time>2024-08-05T10:09:36Z</time>
      </trkpt>
      <trkpt lat="47.16225" lon="5.91171">
        <ele>361.2</ele>
        <time>2024-08-05T10:09:37Z</time>
      </trkpt>
      <trkpt lat="47.16227" lon="5.91169">
        <ele>361.2</ele>
        <time>2024-08-05T10:09:38Z</time>
      </trkpt>
      <trkpt lat="47.16228" lon="5.91167">
        <ele>361.2</ele>
        <time>2024-08-05T10:09:39Z</time>
      </trkpt>
      <trkpt lat="47.1623" lon="5.91166">
        <ele>361.2</ele>
        <time>2024-08-05T10:09:40Z</time>
      </trkpt>
      <trkpt lat="47.16232" lon="5.91165">
        <ele>361.4</ele>
        <time>2024-08-05T10:09:41Z</time>
      </trkpt>
      <trkpt lat="47.16233" lon="5.91163">
        <ele>361.4</ele>
        <time>2024-08-05T10:09:42Z</time>
      </trkpt>
      <trkpt lat="47.16235" lon="5.91162">
        <ele>361.6</ele>
        <time>2024-08-05T10:09:43Z</time>
      </trkpt>
      <trkpt lat="47.16237" lon="5.9116">
        <ele>361.6</ele>
        <time>2024-08-05T10:09:44Z</time>
      </trkpt>
      <trkpt lat="47.16238" lon="5.91159">
        <ele>361.6</ele>
        <time>2024-08-05T10:09:45Z</time>
      </trkpt>
      <trkpt lat="47.1624" lon="5.91158">
        <ele>361.8</ele>
        <time>2024-08-05T10:09:46Z</time>
      </trkpt>
      <trkpt lat="47.16241" lon="5.91157">
        <ele>361.8</ele>
        <time>2024-08-05T10:09:47Z</time>
      </trkpt>
      <trkpt lat="47.16243" lon="5.91156">
        <ele>362</ele>
        <time>2024-08-05T10:09:48Z</time>
      </trkpt>
      <trkpt lat="47.16245" lon="5.91155">
        <ele>361.8</ele>
        <time>2024-08-05T10:09:49Z</time>
      </trkpt>
      <trkpt lat="47.16247" lon="5.91155">
        <ele>361.8</ele>
        <time>2024-08-05T10:09:50Z</time>
      </trkpt>
      <trkpt lat="47.1625" lon="5.91153">
        <ele>362</ele>
        <time>2024-08-05T10:09:51Z</time>
      </trkpt>
      <trkpt lat="47.16252" lon="5.91151">
        <ele>361.8</ele>
        <time>2024-08-05T10:09:52Z</time>
      </trkpt>
      <trkpt lat="47.16254" lon="5.91149">
        <ele>362</ele>
        <time>2024-08-05T10:09:53Z</time>
      </trkpt>
      <trkpt lat="47.16256" lon="5.91148">
        <ele>362</ele>
        <time>2024-08-05T10:09:54Z</time>
      </trkpt>
      <trkpt lat="47.16259" lon="5.91146">
        <ele>362</ele>
        <time>2024-08-05T10:09:55Z</time>
      </trkpt>
      <trkpt lat="47.1626" lon="5.91144">
        <ele>362.2</ele>
        <time>2024-08-05T10:09:56Z</time>
      </trkpt>
      <trkpt lat="47.16263" lon="5.91142">
        <ele>362.4</ele>
        <time>2024-08-05T10:09:57Z</time>
      </trkpt>
      <trkpt lat="47.16266" lon="5.9114">
        <ele>362.2</ele>
        <time>2024-08-05T10:09:58Z</time>
      </trkpt>
      <trkpt lat="47.16268" lon="5.91139">
        <ele>362.4</ele>
        <time>2024-08-05T10:09:59Z</time>
      </trkpt>
      <trkpt lat="47.1627" lon="5.91137">
        <ele>362.4</ele>
        <time>2024-08-05T10:10:00Z</time>
      </trkpt>
      <trkpt lat="47.16273" lon="5.91136">
        <ele>362.4</ele>
        <time>2024-08-05T10:10:01Z</time>
      </trkpt>
      <trkpt lat="47.16276" lon="5.91134">
        <ele>362.4</ele>
        <time>2024-08-05T10:10:02Z</time>
      </trkpt>
      <trkpt lat="47.16279" lon="5.91132">
        <ele>362.4</ele>
        <time>2024-08-05T10:10:03Z</time>
      </trkpt>
      <trkpt lat="47.16282" lon="5.91131">
        <ele>362.6</ele>
        <time>2024-08-05T10:10:04Z</time>
      </trkpt>
      <trkpt lat="47.16284" lon="5.91129">
        <ele>362.4</ele>
        <time>2024-08-05T10:10:05Z</time>
      </trkpt>
      <trkpt lat="47.16286" lon="5.91128">
        <ele>362.6</ele>
        <time>2024-08-05T10:10:06Z</time>
      </trkpt>
      <trkpt lat="47.16289" lon="5.91127">
        <ele>362.6</ele>
        <time>2024-08-05T10:10:07Z</time>
      </trkpt>
      <trkpt lat="47.16292" lon="5.91125">
        <ele>362.6</ele>
        <time>2024-08-05T10:10:08Z</time>
      </trkpt>
      <trkpt lat="47.16294" lon="5.91124">
        <ele>362.6</ele>
        <time>2024-08-05T10:10:09Z</time>
      </trkpt>
      <trkpt lat="47.16297" lon="5.91123">
        <ele>362.8</ele>
        <time>2024-08-05T10:10:10Z</time>
      </trkpt>
      <trkpt lat="47.16299" lon="5.91122">
        <ele>362.8</ele>
        <time>2024-08-05T10:10:11Z</time>
      </trkpt>
      <trkpt lat="47.16301" lon="5.9112">
        <ele>362.8</ele>
        <time>2024-08-05T10:10:12Z</time>
      </trkpt>
      <trkpt lat="47.16304" lon="5.91118">
        <ele>363</ele>
        <time>2024-08-05T10:10:13Z</time>
      </trkpt>
      <trkpt lat="47.16306" lon="5.91116">
        <ele>363</ele>
        <time>2024-08-05T10:10:14Z</time>
      </trkpt>
      <trkpt lat="47.16309" lon="5.91114">
        <ele>363</ele>
        <time>2024-08-05T10:10:15Z</time>
      </trkpt>
      <trkpt lat="47.16312" lon="5.91112">
        <ele>363.2</ele>
        <time>2024-08-05T10:10:16Z</time>
      </trkpt>
      <trkpt lat="47.16314" lon="5.9111">
        <ele>363.2</ele>
        <time>2024-08-05T10:10:17Z</time>
      </trkpt>
      <trkpt lat="47.16317" lon="5.91108">
        <ele>363.2</ele>
        <time>2024-08-05T10:10:18Z</time>
      </trkpt>
      <trkpt lat="47.1632" lon="5.91106">
        <ele>363.2</ele>
        <time>2024-08-05T10:10:19Z</time>
      </trkpt>
      <trkpt lat="47.16323" lon="5.91104">
        <ele>363.4</ele>
        <time>2024-08-05T10:10:20Z</time>
      </trkpt>
      <trkpt lat="47.16325" lon="5.91103">
        <ele>363.2</ele>
        <time>2024-08-05T10:10:21Z</time>
      </trkpt>
      <trkpt lat="47.16329" lon="5.91102">
        <ele>363.2</ele>
        <time>2024-08-05T10:10:22Z</time>
      </trkpt>
      <trkpt lat="47.16331" lon="5.91101">
        <ele>363.4</ele>
        <time>2024-08-05T10:10:23Z</time>
      </trkpt>
      <trkpt lat="47.16334" lon="5.91099">
        <ele>363.4</ele>
        <time>2024-08-05T10:10:24Z</time>
      </trkpt>
      <trkpt lat="47.16337" lon="5.91098">
        <ele>363.4</ele>
        <time>2024-08-05T10:10:25Z</time>
      </trkpt>
      <trkpt lat="47.16339" lon="5.91097">
        <ele>363.4</ele>
        <time>2024-08-05T10:10:26Z</time>
      </trkpt>
      <trkpt lat="47.1634" lon="5.91096">
        <ele>363.4</ele>
        <time>2024-08-05T10:10:27Z</time>
      </trkpt>
      <trkpt lat="47.16342" lon="5.91095">
        <ele>363.4</ele>
        <time>2024-08-05T10:10:28Z</time>
      </trkpt>
      <trkpt lat="47.16343" lon="5.91095">
        <ele>363.4</ele>
        <time>2024-08-05T10:10:29Z</time>
      </trkpt>
      <trkpt lat="47.16343" lon="5.91095">
        <ele>363.4</ele>
        <time>2024-08-05T10:10:30Z</time>
      </trkpt>
      <trkpt lat="47.16344" lon="5.91094">
        <ele>363.2</ele>
        <time>2024-08-05T10:10:31Z</time>
      </trkpt>
      <trkpt lat="47.16344" lon="5.91094">
        <ele>363.2</ele>
        <time>2024-08-05T10:10:32Z</time>
      </trkpt>
      <trkpt lat="47.16345" lon="5.91093">
        <ele>363.2</ele>
        <time>2024-08-05T10:10:33Z</time>
      </trkpt>
      <trkpt lat="47.16345" lon="5.91093">
        <ele>363.4</ele>
        <time>2024-08-05T10:10:34Z</time>
      </trkpt>
      <trkpt lat="47.16346" lon="5.91093">
        <ele>363.2</ele>
        <time>2024-08-05T10:10:35Z</time>
      </trkpt>
      <trkpt lat="47.16346" lon="5.91093">
        <ele>363.2</ele>
        <time>2024-08-05T10:10:36Z</time>
      </trkpt>
      <trkpt lat="47.16346" lon="5.91093">
        <ele>363.2</ele>
        <time>2024-08-05T10:10:37Z</time>
      </trkpt>
      <trkpt lat="47.16346" lon="5.91093">
        <ele>363</ele>
        <time>2024-08-05T10:10:38Z</time>
      </trkpt>
      <trkpt lat="47.16346" lon="5.91093">
        <ele>363</ele>
        <time>2024-08-05T10:10:39Z</time>
      </trkpt>
      <trkpt lat="47.16346" lon="5.91092">
        <ele>362.8</ele>
        <time>2024-08-05T10:10:40Z</time>
      </trkpt>
      <trkpt lat="47.16346" lon="5.91092">
        <ele>362.8</ele>
        <time>2024-08-05T10:10:41Z</time>
      </trkpt>
      <trkpt lat="47.16346" lon="5.91092">
        <ele>362.8</ele>
        <time>2024-08-05T10:10:42Z</time>
      </trkpt>
      <trkpt lat="47.16346" lon="5.91092">
        <ele>362.4</ele>
        <time>2024-08-05T10:10:43Z</time>
      </trkpt>
      <trkpt lat="47.16347" lon="5.91092">
        <ele>362.4</ele>
        <time>2024-08-05T10:10:44Z</time>
      </trkpt>
      <trkpt lat="47.16347" lon="5.91092">
        <ele>362.2</ele>
        <time>2024-08-05T10:10:45Z</time>
      </trkpt>
      <trkpt lat="47.16347" lon="5.91092">
        <ele>362.2</ele>
        <time>2024-08-05T10:10:46Z</time>
      </trkpt>
      <trkpt lat="47.16347" lon="5.91092">
        <ele>362.2</ele>
        <time>2024-08-05T10:10:47Z</time>
      </trkpt>
      <trkpt lat="47.16347" lon="5.91092">
        <ele>362.2</ele>
        <time>2024-08-05T10:10:48Z</time>
      </trkpt>
      <trkpt lat="47.16347" lon="5.91092">
        <ele>362.2</ele>
        <time>2024-08-05T10:10:49Z</time>
      </trkpt>
      <trkpt lat="47.16347" lon="5.91092">
        <ele>362.2</ele>
        <time>2024-08-05T10:10:50Z</time>
      </trkpt>
      <trkpt lat="47.16347" lon="5.91092">
        <ele>362.2</ele>
        <time>2024-08-05T10:10:51Z</time>
      </trkpt>
      <trkpt lat="47.16347" lon="5.91092">
        <ele>362.2</ele>
        <time>2024-08-05T10:10:52Z</time>
      </trkpt>
      <trkpt lat="47.16347" lon="5.91092">
        <ele>362.2</ele>
        <time>2024-08-05T10:10:53Z</time>
      </trkpt>
      <trkpt lat="47.16347" lon="5.91092">
        <ele>362.2</ele>
        <time>2024-08-05T10:10:54Z</time>
      </trkpt>
      <trkpt lat="47.16347" lon="5.91092">
        <ele>362</ele>
        <time>2024-08-05T10:10:55Z</time>
      </trkpt>
      <trkpt lat="47.16347" lon="5.91092">
        <ele>362.2</ele>
        <time>2024-08-05T10:10:56Z</time>
      </trkpt>
      <trkpt lat="47.16347" lon="5.91092">
        <ele>362.2</ele>
        <time>2024-08-05T10:10:57Z</time>
      </trkpt>
      <trkpt lat="47.16347" lon="5.91092">
        <ele>362.2</ele>
        <time>2024-08-05T10:10:58Z</time>
      </trkpt>
      <trkpt lat="47.16347" lon="5.91092">
        <ele>362.2</ele>
        <time>2024-08-05T10:10:59Z</time>
      </trkpt>
      <trkpt lat="47.16347" lon="5.91092">
        <ele>362.2</ele>
        <time>2024-08-05T10:11:00Z</time>
      </trkpt>
      <trkpt lat="47.16347" lon="5.91092">
        <ele>362.2</ele>
        <time>2024-08-05T10:11:01Z</time>
      </trkpt>
      <trkpt lat="47.16348" lon="5.91092">
        <ele>362.4</ele>
        <time>2024-08-05T10:11:02Z</time>
      </trkpt>
      <trkpt lat="47.16348" lon="5.91092">
        <ele>362.2</ele>
        <time>2024-08-05T10:11:03Z</time>
      </trkpt>
      <trkpt lat="47.16348" lon="5.91092">
        <ele>362.2</ele>
        <time>2024-08-05T10:11:04Z</time>
      </trkpt>
      <trkpt lat="47.16348" lon="5.91092">
        <ele>362.4</ele>
        <time>2024-08-05T10:11:05Z</time>
      </trkpt>
      <trkpt lat="47.16348" lon="5.91092">
        <ele>362.2</ele>
        <time>2024-08-05T10:11:06Z</time>
      </trkpt>
      <trkpt lat="47.16348" lon="5.91092">
        <ele>362.4</ele>
        <time>2024-08-05T10:11:07Z</time>
      </trkpt>
      <trkpt lat="47.16348" lon="5.91091">
        <ele>362.4</ele>
        <time>2024-08-05T10:11:08Z</time>
      </trkpt>
      <trkpt lat="47.16348" lon="5.91091">
        <ele>362</ele>
        <time>2024-08-05T10:11:09Z</time>
      </trkpt>
      <trkpt lat="47.16349" lon="5.9109">
        <ele>362.2</ele>
        <time>2024-08-05T10:11:10Z</time>
      </trkpt>
      <trkpt lat="47.16349" lon="5.9109">
        <ele>362.2</ele>
        <time>2024-08-05T10:11:11Z</time>
      </trkpt>
      <trkpt lat="47.1635" lon="5.91089">
        <ele>362.2</ele>
        <time>2024-08-05T10:11:12Z</time>
      </trkpt>
      <trkpt lat="47.1635" lon="5.91089">
        <ele>362.4</ele>
        <time>2024-08-05T10:11:13Z</time>
      </trkpt>
      <trkpt lat="47.1635" lon="5.91089">
        <ele>362.4</ele>
        <time>2024-08-05T10:11:14Z</time>
      </trkpt>
      <trkpt lat="47.16351" lon="5.91089">
        <ele>362.4</ele>
        <time>2024-08-05T10:11:15Z</time>
      </trkpt>
      <trkpt lat="47.16352" lon="5.91088">
        <ele>362.4</ele>
        <time>2024-08-05T10:11:16Z</time>
      </trkpt>
      <trkpt lat="47.16352" lon="5.91088">
        <ele>362.4</ele>
        <time>2024-08-05T10:11:17Z</time>
      </trkpt>
      <trkpt lat="47.16352" lon="5.91088">
        <ele>362.6</ele>
        <time>2024-08-05T10:11:18Z</time>
      </trkpt>
      <trkpt lat="47.16353" lon="5.91088">
        <ele>362.6</ele>
        <time>2024-08-05T10:11:19Z</time>
      </trkpt>
      <trkpt lat="47.16353" lon="5.91088">
        <ele>362.6</ele>
        <time>2024-08-05T10:11:20Z</time>
      </trkpt>
      <trkpt lat="47.16353" lon="5.91088">
        <ele>362.6</ele>
        <time>2024-08-05T10:11:21Z</time>
      </trkpt>
      <trkpt lat="47.16354" lon="5.91087">
        <ele>362.6</ele>
        <time>2024-08-05T10:11:22Z</time>
      </trkpt>
      <trkpt lat="47.16354" lon="5.91087">
        <ele>362.6</ele>
        <time>2024-08-05T10:11:23Z</time>
      </trkpt>
      <trkpt lat="47.16355" lon="5.91087">
        <ele>362.8</ele>
        <time>2024-08-05T10:11:24Z</time>
      </trkpt>
      <trkpt lat="47.16355" lon="5.91087">
        <ele>362.8</ele>
        <time>2024-08-05T10:11:25Z</time>
      </trkpt>
      <trkpt lat="47.16355" lon="5.91087">
        <ele>362.8</ele>
        <time>2024-08-05T10:11:26Z</time>
      </trkpt>
      <trkpt lat="47.16355" lon="5.91087">
        <ele>362.6</ele>
        <time>2024-08-05T10:11:27Z</time>
      </trkpt>
      <trkpt lat="47.16355" lon="5.91086">
        <ele>362.6</ele>
        <time>2024-08-05T10:11:28Z</time>
      </trkpt>
      <trkpt lat="47.16356" lon="5.91086">
        <ele>362.6</ele>
        <time>2024-08-05T10:11:29Z</time>
      </trkpt>
      <trkpt lat="47.16356" lon="5.91086">
        <ele>362.6</ele>
        <time>2024-08-05T10:11:30Z</time>
      </trkpt>
      <trkpt lat="47.16356" lon="5.91085">
        <ele>362.6</ele>
        <time>2024-08-05T10:11:31Z</time>
      </trkpt>
      <trkpt lat="47.16356" lon="5.91085">
        <ele>362.6</ele>
        <time>2024-08-05T10:11:32Z</time>
      </trkpt>
      <trkpt lat="47.16356" lon="5.91084">
        <ele>362.6</ele>
        <time>2024-08-05T10:11:33Z</time>
      </trkpt>
      <trkpt lat="47.16356" lon="5.91084">
        <ele>362.6</ele>
        <time>2024-08-05T10:11:34Z</time>
      </trkpt>
      <trkpt lat="47.16356" lon="5.91083">
        <ele>362.6</ele>
        <time>2024-08-05T10:11:35Z</time>
      </trkpt>
      <trkpt lat="47.16356" lon="5.91083">
        <ele>362.6</ele>
        <time>2024-08-05T10:11:36Z</time>
      </trkpt>
      <trkpt lat="47.16356" lon="5.91083">
        <ele>362.6</ele>
        <time>2024-08-05T10:11:37Z</time>
      </trkpt>
      <trkpt lat="47.16356" lon="5.91082">
        <ele>362.8</ele>
        <time>2024-08-05T10:11:38Z</time>
      </trkpt>
      <trkpt lat="47.16356" lon="5.91082">
        <ele>362.6</ele>
        <time>2024-08-05T10:11:39Z</time>
      </trkpt>
      <trkpt lat="47.16357" lon="5.91081">
        <ele>362.6</ele>
        <time>2024-08-05T10:11:40Z</time>
      </trkpt>
      <trkpt lat="47.16357" lon="5.91081">
        <ele>362.6</ele>
        <time>2024-08-05T10:11:41Z</time>
      </trkpt>
      <trkpt lat="47.16357" lon="5.91081">
        <ele>362.6</ele>
        <time>2024-08-05T10:11:42Z</time>
      </trkpt>
      <trkpt lat="47.16357" lon="5.91081">
        <ele>362.6</ele>
        <time>2024-08-05T10:11:43Z</time>
      </trkpt>
      <trkpt lat="47.16357" lon="5.91081">
        <ele>362.6</ele>
        <time>2024-08-05T10:11:44Z</time>
      </trkpt>
      <trkpt lat="47.16357" lon="5.91081">
        <ele>362.6</ele>
        <time>2024-08-05T10:11:45Z</time>
      </trkpt>
      <trkpt lat="47.16357" lon="5.91081">
        <ele>362.8</ele>
        <time>2024-08-05T10:11:46Z</time>
      </trkpt>
      <trkpt lat="47.16357" lon="5.9108">
        <ele>362.6</ele>
        <time>2024-08-05T10:11:47Z</time>
      </trkpt>
      <trkpt lat="47.16357" lon="5.9108">
        <ele>362.6</ele>
        <time>2024-08-05T10:11:48Z</time>
      </trkpt>
      <trkpt lat="47.16358" lon="5.91079">
        <ele>362.6</ele>
        <time>2024-08-05T10:11:49Z</time>
      </trkpt>
      <trkpt lat="47.16358" lon="5.91079">
        <ele>362.6</ele>
        <time>2024-08-05T10:11:50Z</time>
      </trkpt>
      <trkpt lat="47.16358" lon="5.91078">
        <ele>362.6</ele>
        <time>2024-08-05T10:11:51Z</time>
      </trkpt>
      <trkpt lat="47.16358" lon="5.91077">
        <ele>362.6</ele>
        <time>2024-08-05T10:11:52Z</time>
      </trkpt>
      <trkpt lat="47.16359" lon="5.91076">
        <ele>362.6</ele>
        <time>2024-08-05T10:11:53Z</time>
      </trkpt>
      <trkpt lat="47.16359" lon="5.91076">
        <ele>362.6</ele>
        <time>2024-08-05T10:11:54Z</time>
      </trkpt>
      <trkpt lat="47.16359" lon="5.91075">
        <ele>362.6</ele>
        <time>2024-08-05T10:11:55Z</time>
      </trkpt>
      <trkpt lat="47.1636" lon="5.91075">
        <ele>362.6</ele>
        <time>2024-08-05T10:11:56Z</time>
      </trkpt>
      <trkpt lat="47.1636" lon="5.91075">
        <ele>362.6</ele>
        <time>2024-08-05T10:11:57Z</time>
      </trkpt>
      <trkpt lat="47.1636" lon="5.91074">
        <ele>362.6</ele>
        <time>2024-08-05T10:11:58Z</time>
      </trkpt>
      <trkpt lat="47.1636" lon="5.91074">
        <ele>362.8</ele>
        <time>2024-08-05T10:11:59Z</time>
      </trkpt>
      <trkpt lat="47.1636" lon="5.91074">
        <ele>362.6</ele>
        <time>2024-08-05T10:12:00Z</time>
      </trkpt>
      <trkpt lat="47.1636" lon="5.91073">
        <ele>362.6</ele>
        <time>2024-08-05T10:12:01Z</time>
      </trkpt>
      <trkpt lat="47.1636" lon="5.91073">
        <ele>362.8</ele>
        <time>2024-08-05T10:12:02Z</time>
      </trkpt>
      <trkpt lat="47.1636" lon="5.91073">
        <ele>362.6</ele>
        <time>2024-08-05T10:12:03Z</time>
      </trkpt>
      <trkpt lat="47.1636" lon="5.91072">
        <ele>362.6</ele>
        <time>2024-08-05T10:12:04Z</time>
      </trkpt>
      <trkpt lat="47.1636" lon="5.91073">
        <ele>362.6</ele>
        <time>2024-08-05T10:12:05Z</time>
      </trkpt>
      <trkpt lat="47.1636" lon="5.91073">
        <ele>362.8</ele>
        <time>2024-08-05T10:12:06Z</time>
      </trkpt>
      <trkpt lat="47.1636" lon="5.91073">
        <ele>362.8</ele>
        <time>2024-08-05T10:12:07Z</time>
      </trkpt>
      <trkpt lat="47.1636" lon="5.91072">
        <ele>362.6</ele>
        <time>2024-08-05T10:12:08Z</time>
      </trkpt>
      <trkpt lat="47.16361" lon="5.91072">
        <ele>362.8</ele>
        <time>2024-08-05T10:12:09Z</time>
      </trkpt>
      <trkpt lat="47.16362" lon="5.91072">
        <ele>362.8</ele>
        <time>2024-08-05T10:12:10Z</time>
      </trkpt>
      <trkpt lat="47.16362" lon="5.91071">
        <ele>362.8</ele>
        <time>2024-08-05T10:12:11Z</time>
      </trkpt>
      <trkpt lat="47.16364" lon="5.9107">
        <ele>362.8</ele>
        <time>2024-08-05T10:12:12Z</time>
      </trkpt>
      <trkpt lat="47.16365" lon="5.91071">
        <ele>362.8</ele>
        <time>2024-08-05T10:12:13Z</time>
      </trkpt>
      <trkpt lat="47.16366" lon="5.9107">
        <ele>362.8</ele>
        <time>2024-08-05T10:12:14Z</time>
      </trkpt>
      <trkpt lat="47.16367" lon="5.91069">
        <ele>362.6</ele>
        <time>2024-08-05T10:12:15Z</time>
      </trkpt>
      <trkpt lat="47.16368" lon="5.91067">
        <ele>362.8</ele>
        <time>2024-08-05T10:12:16Z</time>
      </trkpt>
      <trkpt lat="47.16369" lon="5.91067">
        <ele>362.8</ele>
        <time>2024-08-05T10:12:17Z</time>
      </trkpt>
      <trkpt lat="47.16369" lon="5.91066">
        <ele>362.6</ele>
        <time>2024-08-05T10:12:18Z</time>
      </trkpt>
      <trkpt lat="47.1637" lon="5.91065">
        <ele>362.6</ele>
        <time>2024-08-05T10:12:19Z</time>
      </trkpt>
      <trkpt lat="47.1637" lon="5.91066">
        <ele>362.6</ele>
        <time>2024-08-05T10:12:20Z</time>
      </trkpt>
      <trkpt lat="47.1637" lon="5.91065">
        <ele>362.6</ele>
        <time>2024-08-05T10:12:21Z</time>
      </trkpt>
      <trkpt lat="47.16369" lon="5.91066">
        <ele>362.4</ele>
        <time>2024-08-05T10:12:22Z</time>
      </trkpt>
      <trkpt lat="47.16369" lon="5.91065">
        <ele>362.2</ele>
        <time>2024-08-05T10:12:23Z</time>
      </trkpt>
      <trkpt lat="47.1637" lon="5.91066">
        <ele>362</ele>
        <time>2024-08-05T10:12:24Z</time>
      </trkpt>
      <trkpt lat="47.1637" lon="5.91066">
        <ele>362</ele>
        <time>2024-08-05T10:12:25Z</time>
      </trkpt>
      <trkpt lat="47.16371" lon="5.91068">
        <ele>362</ele>
        <time>2024-08-05T10:12:26Z</time>
      </trkpt>
      <trkpt lat="47.16371" lon="5.91068">
        <ele>361.8</ele>
        <time>2024-08-05T10:12:27Z</time>
      </trkpt>
      <trkpt lat="47.16371" lon="5.91068">
        <ele>361.6</ele>
        <time>2024-08-05T10:12:28Z</time>
      </trkpt>
      <trkpt lat="47.16371" lon="5.91069">
        <ele>361.8</ele>
        <time>2024-08-05T10:12:29Z</time>
      </trkpt>
      <trkpt lat="47.16371" lon="5.91069">
        <ele>361.6</ele>
        <time>2024-08-05T10:12:30Z</time>
      </trkpt>
      <trkpt lat="47.16372" lon="5.9107">
        <ele>361.6</ele>
        <time>2024-08-05T10:12:31Z</time>
      </trkpt>
      <trkpt lat="47.16372" lon="5.91069">
        <ele>361.8</ele>
        <time>2024-08-05T10:12:32Z</time>
      </trkpt>
      <trkpt lat="47.16372" lon="5.91069">
        <ele>361.6</ele>
        <time>2024-08-05T10:12:33Z</time>
      </trkpt>
      <trkpt lat="47.16373" lon="5.91068">
        <ele>361.6</ele>
        <time>2024-08-05T10:12:34Z</time>
      </trkpt>
      <trkpt lat="47.16374" lon="5.91067">
        <ele>361.6</ele>
        <time>2024-08-05T10:12:35Z</time>
      </trkpt>
      <trkpt lat="47.16377" lon="5.91063">
        <ele>361.6</ele>
        <time>2024-08-05T10:12:36Z</time>
      </trkpt>
      <trkpt lat="47.16379" lon="5.91061">
        <ele>361.6</ele>
        <time>2024-08-05T10:12:37Z</time>
      </trkpt>
      <trkpt lat="47.16382" lon="5.91058">
        <ele>361.6</ele>
        <time>2024-08-05T10:12:38Z</time>
      </trkpt>
      <trkpt lat="47.16386" lon="5.91055">
        <ele>361.6</ele>
        <time>2024-08-05T10:12:39Z</time>
      </trkpt>
      <trkpt lat="47.1639" lon="5.91053">
        <ele>361.6</ele>
        <time>2024-08-05T10:12:40Z</time>
      </trkpt>
      <trkpt lat="47.16394" lon="5.91051">
        <ele>361.6</ele>
        <time>2024-08-05T10:12:41Z</time>
      </trkpt>
      <trkpt lat="47.16397" lon="5.91049">
        <ele>361.6</ele>
        <time>2024-08-05T10:12:42Z</time>
      </trkpt>
      <trkpt lat="47.16401" lon="5.91046">
        <ele>361.6</ele>
        <time>2024-08-05T10:12:43Z</time>
      </trkpt>
      <trkpt lat="47.16404" lon="5.91044">
        <ele>361.4</ele>
        <time>2024-08-05T10:12:44Z</time>
      </trkpt>
      <trkpt lat="47.16408" lon="5.91041">
        <ele>361.2</ele>
        <time>2024-08-05T10:12:45Z</time>
      </trkpt>
      <trkpt lat="47.1641" lon="5.91038">
        <ele>361</ele>
        <time>2024-08-05T10:12:46Z</time>
      </trkpt>
      <trkpt lat="47.16413" lon="5.91035">
        <ele>361</ele>
        <time>2024-08-05T10:12:47Z</time>
      </trkpt>
      <trkpt lat="47.16417" lon="5.91031">
        <ele>361</ele>
        <time>2024-08-05T10:12:48Z</time>
      </trkpt>
      <trkpt lat="47.1642" lon="5.91027">
        <ele>360.2</ele>
        <time>2024-08-05T10:12:49Z</time>
      </trkpt>
      <trkpt lat="47.16423" lon="5.91024">
        <ele>360</ele>
        <time>2024-08-05T10:12:50Z</time>
      </trkpt>
      <trkpt lat="47.16427" lon="5.91021">
        <ele>359.8</ele>
        <time>2024-08-05T10:12:51Z</time>
      </trkpt>
      <trkpt lat="47.1643" lon="5.91019">
        <ele>359.8</ele>
        <time>2024-08-05T10:12:52Z</time>
      </trkpt>
      <trkpt lat="47.16433" lon="5.91018">
        <ele>359.4</ele>
        <time>2024-08-05T10:12:53Z</time>
      </trkpt>
      <trkpt lat="47.16436" lon="5.91016">
        <ele>359.2</ele>
        <time>2024-08-05T10:12:54Z</time>
      </trkpt>
      <trkpt lat="47.1644" lon="5.91014">
        <ele>359</ele>
        <time>2024-08-05T10:12:55Z</time>
      </trkpt>
      <trkpt lat="47.16444" lon="5.91012">
        <ele>358.4</ele>
        <time>2024-08-05T10:12:56Z</time>
      </trkpt>
      <trkpt lat="47.16447" lon="5.91011">
        <ele>357.8</ele>
        <time>2024-08-05T10:12:57Z</time>
      </trkpt>
      <trkpt lat="47.16451" lon="5.91008">
        <ele>357.4</ele>
        <time>2024-08-05T10:12:58Z</time>
      </trkpt>
      <trkpt lat="47.16456" lon="5.91006">
        <ele>356.8</ele>
        <time>2024-08-05T10:12:59Z</time>
      </trkpt>
      <trkpt lat="47.1646" lon="5.91003">
        <ele>356.6</ele>
        <time>2024-08-05T10:13:00Z</time>
      </trkpt>
      <trkpt lat="47.16464" lon="5.91">
        <ele>356</ele>
        <time>2024-08-05T10:13:01Z</time>
      </trkpt>
      <trkpt lat="47.16469" lon="5.90997">
        <ele>355.8</ele>
        <time>2024-08-05T10:13:02Z</time>
      </trkpt>
      <trkpt lat="47.16474" lon="5.90993">
        <ele>355.6</ele>
        <time>2024-08-05T10:13:03Z</time>
      </trkpt>
      <trkpt lat="47.16478" lon="5.90989">
        <ele>355.2</ele>
        <time>2024-08-05T10:13:04Z</time>
      </trkpt>
      <trkpt lat="47.16483" lon="5.90985">
        <ele>354.8</ele>
        <time>2024-08-05T10:13:05Z</time>
      </trkpt>
      <trkpt lat="47.16487" lon="5.9098">
        <ele>354.6</ele>
        <time>2024-08-05T10:13:06Z</time>
      </trkpt>
      <trkpt lat="47.16492" lon="5.90975">
        <ele>354.4</ele>
        <time>2024-08-05T10:13:07Z</time>
      </trkpt>
      <trkpt lat="47.16496" lon="5.90971">
        <ele>354</ele>
        <time>2024-08-05T10:13:08Z</time>
      </trkpt>
      <trkpt lat="47.165" lon="5.90966">
        <ele>353.6</ele>
        <time>2024-08-05T10:13:09Z</time>
      </trkpt>
      <trkpt lat="47.16504" lon="5.90962">
        <ele>353.6</ele>
        <time>2024-08-05T10:13:10Z</time>
      </trkpt>
      <trkpt lat="47.16508" lon="5.90958">
        <ele>353</ele>
        <time>2024-08-05T10:13:11Z</time>
      </trkpt>
      <trkpt lat="47.16512" lon="5.90956">
        <ele>352.4</ele>
        <time>2024-08-05T10:13:12Z</time>
      </trkpt>
      <trkpt lat="47.16514" lon="5.90955">
        <ele>352</ele>
        <time>2024-08-05T10:13:13Z</time>
      </trkpt>
      <trkpt lat="47.16516" lon="5.90954">
        <ele>351.4</ele>
        <time>2024-08-05T10:13:14Z</time>
      </trkpt>
      <trkpt lat="47.16518" lon="5.90954">
        <ele>350.6</ele>
        <time>2024-08-05T10:13:15Z</time>
      </trkpt>
      <trkpt lat="47.16519" lon="5.90955">
        <ele>349.6</ele>
        <time>2024-08-05T10:13:16Z</time>
      </trkpt>
      <trkpt lat="47.16521" lon="5.90956">
        <ele>349</ele>
        <time>2024-08-05T10:13:17Z</time>
      </trkpt>
      <trkpt lat="47.16522" lon="5.90957">
        <ele>348.6</ele>
        <time>2024-08-05T10:13:18Z</time>
      </trkpt>
      <trkpt lat="47.16523" lon="5.90958">
        <ele>347.6</ele>
        <time>2024-08-05T10:13:19Z</time>
      </trkpt>
      <trkpt lat="47.16524" lon="5.90959">
        <ele>347.4</ele>
        <time>2024-08-05T10:13:20Z</time>
      </trkpt>
      <trkpt lat="47.16526" lon="5.9096">
        <ele>347.4</ele>
        <time>2024-08-05T10:13:21Z</time>
      </trkpt>
      <trkpt lat="47.16527" lon="5.90961">
        <ele>347.2</ele>
        <time>2024-08-05T10:13:22Z</time>
      </trkpt>
      <trkpt lat="47.16528" lon="5.90963">
        <ele>347</ele>
        <time>2024-08-05T10:13:23Z</time>
      </trkpt>
      <trkpt lat="47.16529" lon="5.90964">
        <ele>347</ele>
        <time>2024-08-05T10:13:24Z</time>
      </trkpt>
      <trkpt lat="47.16531" lon="5.90965">
        <ele>347.2</ele>
        <time>2024-08-05T10:13:25Z</time>
      </trkpt>
      <trkpt lat="47.16532" lon="5.90966">
        <ele>347.2</ele>
        <time>2024-08-05T10:13:26Z</time>
      </trkpt>
      <trkpt lat="47.16533" lon="5.90968">
        <ele>347.2</ele>
        <time>2024-08-05T10:13:27Z</time>
      </trkpt>
      <trkpt lat="47.16535" lon="5.9097">
        <ele>347</ele>
        <time>2024-08-05T10:13:28Z</time>
      </trkpt>
      <trkpt lat="47.16536" lon="5.90972">
        <ele>347.2</ele>
        <time>2024-08-05T10:13:29Z</time>
      </trkpt>
      <trkpt lat="47.16537" lon="5.90973">
        <ele>347.4</ele>
        <time>2024-08-05T10:13:30Z</time>
      </trkpt>
      <trkpt lat="47.16538" lon="5.90975">
        <ele>347.4</ele>
        <time>2024-08-05T10:13:31Z</time>
      </trkpt>
      <trkpt lat="47.16539" lon="5.90977">
        <ele>347.4</ele>
        <time>2024-08-05T10:13:32Z</time>
      </trkpt>
      <trkpt lat="47.1654" lon="5.90978">
        <ele>347.6</ele>
        <time>2024-08-05T10:13:33Z</time>
      </trkpt>
      <trkpt lat="47.16542" lon="5.9098">
        <ele>347.8</ele>
        <time>2024-08-05T10:13:34Z</time>
      </trkpt>
      <trkpt lat="47.16543" lon="5.90982">
        <ele>348</ele>
        <time>2024-08-05T10:13:35Z</time>
      </trkpt>
      <trkpt lat="47.16544" lon="5.90985">
        <ele>348.2</ele>
        <time>2024-08-05T10:13:36Z</time>
      </trkpt>
      <trkpt lat="47.16544" lon="5.90986">
        <ele>348.4</ele>
        <time>2024-08-05T10:13:37Z</time>
      </trkpt>
      <trkpt lat="47.16545" lon="5.90988">
        <ele>348.4</ele>
        <time>2024-08-05T10:13:38Z</time>
      </trkpt>
      <trkpt lat="47.16546" lon="5.90989">
        <ele>348.6</ele>
        <time>2024-08-05T10:13:39Z</time>
      </trkpt>
      <trkpt lat="47.16547" lon="5.90991">
        <ele>348.6</ele>
        <time>2024-08-05T10:13:40Z</time>
      </trkpt>
      <trkpt lat="47.16549" lon="5.90992">
        <ele>349</ele>
        <time>2024-08-05T10:13:41Z</time>
      </trkpt>
      <trkpt lat="47.1655" lon="5.90994">
        <ele>349.2</ele>
        <time>2024-08-05T10:13:42Z</time>
      </trkpt>
      <trkpt lat="47.16551" lon="5.90995">
        <ele>349.2</ele>
        <time>2024-08-05T10:13:43Z</time>
      </trkpt>
      <trkpt lat="47.16552" lon="5.90996">
        <ele>349.4</ele>
        <time>2024-08-05T10:13:44Z</time>
      </trkpt>
      <trkpt lat="47.16553" lon="5.90998">
        <ele>349.6</ele>
        <time>2024-08-05T10:13:45Z</time>
      </trkpt>
      <trkpt lat="47.16554" lon="5.90999">
        <ele>349.8</ele>
        <time>2024-08-05T10:13:46Z</time>
      </trkpt>
      <trkpt lat="47.16555" lon="5.91">
        <ele>350.2</ele>
        <time>2024-08-05T10:13:47Z</time>
      </trkpt>
      <trkpt lat="47.16556" lon="5.91002">
        <ele>350.4</ele>
        <time>2024-08-05T10:13:48Z</time>
      </trkpt>
      <trkpt lat="47.16558" lon="5.91003">
        <ele>350.4</ele>
        <time>2024-08-05T10:13:49Z</time>
      </trkpt>
      <trkpt lat="47.16559" lon="5.91005">
        <ele>350.6</ele>
        <time>2024-08-05T10:13:50Z</time>
      </trkpt>
      <trkpt lat="47.1656" lon="5.91006">
        <ele>350.8</ele>
        <time>2024-08-05T10:13:51Z</time>
      </trkpt>
      <trkpt lat="47.16561" lon="5.91007">
        <ele>351</ele>
        <time>2024-08-05T10:13:52Z</time>
      </trkpt>
      <trkpt lat="47.16562" lon="5.91009">
        <ele>351</ele>
        <time>2024-08-05T10:13:53Z</time>
      </trkpt>
      <trkpt lat="47.16563" lon="5.9101">
        <ele>351</ele>
        <time>2024-08-05T10:13:54Z</time>
      </trkpt>
      <trkpt lat="47.16564" lon="5.91011">
        <ele>351.2</ele>
        <time>2024-08-05T10:13:55Z</time>
      </trkpt>
      <trkpt lat="47.16566" lon="5.91012">
        <ele>351.4</ele>
        <time>2024-08-05T10:13:56Z</time>
      </trkpt>
      <trkpt lat="47.16567" lon="5.91013">
        <ele>351.6</ele>
        <time>2024-08-05T10:13:57Z</time>
      </trkpt>
      <trkpt lat="47.16568" lon="5.91014">
        <ele>351.8</ele>
        <time>2024-08-05T10:13:58Z</time>
      </trkpt>
      <trkpt lat="47.16569" lon="5.91015">
        <ele>352.2</ele>
        <time>2024-08-05T10:13:59Z</time>
      </trkpt>
      <trkpt lat="47.16571" lon="5.91016">
        <ele>352.4</ele>
        <time>2024-08-05T10:14:00Z</time>
      </trkpt>
      <trkpt lat="47.16572" lon="5.91017">
        <ele>352.6</ele>
        <time>2024-08-05T10:14:01Z</time>
      </trkpt>
      <trkpt lat="47.16573" lon="5.91019">
        <ele>352.8</ele>
        <time>2024-08-05T10:14:02Z</time>
      </trkpt>
      <trkpt lat="47.16575" lon="5.9102">
        <ele>353</ele>
        <time>2024-08-05T10:14:03Z</time>
      </trkpt>
      <trkpt lat="47.16576" lon="5.91022">
        <ele>353.2</ele>
        <time>2024-08-05T10:14:04Z</time>
      </trkpt>
      <trkpt lat="47.16577" lon="5.91024">
        <ele>353.2</ele>
        <time>2024-08-05T10:14:05Z</time>
      </trkpt>
      <trkpt lat="47.16579" lon="5.91026">
        <ele>353.6</ele>
        <time>2024-08-05T10:14:06Z</time>
      </trkpt>
      <trkpt lat="47.1658" lon="5.91027">
        <ele>353.8</ele>
        <time>2024-08-05T10:14:07Z</time>
      </trkpt>
      <trkpt lat="47.16581" lon="5.91029">
        <ele>354</ele>
        <time>2024-08-05T10:14:08Z</time>
      </trkpt>
      <trkpt lat="47.16581" lon="5.9103">
        <ele>354.2</ele>
        <time>2024-08-05T10:14:09Z</time>
      </trkpt>
      <trkpt lat="47.16582" lon="5.91031">
        <ele>354.6</ele>
        <time>2024-08-05T10:14:10Z</time>
      </trkpt>
      <trkpt lat="47.16583" lon="5.91032">
        <ele>354.6</ele>
        <time>2024-08-05T10:14:11Z</time>
      </trkpt>
      <trkpt lat="47.16585" lon="5.91032">
        <ele>355</ele>
        <time>2024-08-05T10:14:12Z</time>
      </trkpt>
      <trkpt lat="47.16586" lon="5.91033">
        <ele>355</ele>
        <time>2024-08-05T10:14:13Z</time>
      </trkpt>
      <trkpt lat="47.16587" lon="5.91034">
        <ele>355.2</ele>
        <time>2024-08-05T10:14:14Z</time>
      </trkpt>
      <trkpt lat="47.16588" lon="5.91034">
        <ele>355.2</ele>
        <time>2024-08-05T10:14:15Z</time>
      </trkpt>
      <trkpt lat="47.16589" lon="5.91036">
        <ele>355.4</ele>
        <time>2024-08-05T10:14:16Z</time>
      </trkpt>
      <trkpt lat="47.1659" lon="5.91037">
        <ele>355.6</ele>
        <time>2024-08-05T10:14:17Z</time>
      </trkpt>
      <trkpt lat="47.16592" lon="5.91038">
        <ele>355.6</ele>
        <time>2024-08-05T10:14:18Z</time>
      </trkpt>
      <trkpt lat="47.16593" lon="5.91039">
        <ele>355.8</ele>
        <time>2024-08-05T10:14:19Z</time>
      </trkpt>
      <trkpt lat="47.16594" lon="5.9104">
        <ele>356</ele>
        <time>2024-08-05T10:14:20Z</time>
      </trkpt>
      <trkpt lat="47.16595" lon="5.91042">
        <ele>356</ele>
        <time>2024-08-05T10:14:21Z</time>
      </trkpt>
      <trkpt lat="47.16596" lon="5.91043">
        <ele>356.4</ele>
        <time>2024-08-05T10:14:22Z</time>
      </trkpt>
      <trkpt lat="47.16597" lon="5.91044">
        <ele>356.6</ele>
        <time>2024-08-05T10:14:23Z</time>
      </trkpt>
      <trkpt lat="47.16599" lon="5.91045">
        <ele>356.6</ele>
        <time>2024-08-05T10:14:24Z</time>
      </trkpt>
      <trkpt lat="47.166" lon="5.91047">
        <ele>356.8</ele>
        <time>2024-08-05T10:14:25Z</time>
      </trkpt>
      <trkpt lat="47.16601" lon="5.91048">
        <ele>357</ele>
        <time>2024-08-05T10:14:26Z</time>
      </trkpt>
      <trkpt lat="47.16601" lon="5.91049">
        <ele>357</ele>
        <time>2024-08-05T10:14:27Z</time>
      </trkpt>
      <trkpt lat="47.16602" lon="5.91051">
        <ele>357.2</ele>
        <time>2024-08-05T10:14:28Z</time>
      </trkpt>
      <trkpt lat="47.16603" lon="5.91052">
        <ele>357.4</ele>
        <time>2024-08-05T10:14:29Z</time>
      </trkpt>
      <trkpt lat="47.16604" lon="5.91053">
        <ele>357.4</ele>
        <time>2024-08-05T10:14:30Z</time>
      </trkpt>
      <trkpt lat="47.16605" lon="5.91054">
        <ele>357.6</ele>
        <time>2024-08-05T10:14:31Z</time>
      </trkpt>
      <trkpt lat="47.16605" lon="5.91055">
        <ele>357.8</ele>
        <time>2024-08-05T10:14:32Z</time>
      </trkpt>
      <trkpt lat="47.16606" lon="5.91056">
        <ele>357.8</ele>
        <time>2024-08-05T10:14:33Z</time>
      </trkpt>
      <trkpt lat="47.16607" lon="5.91057">
        <ele>358</ele>
        <time>2024-08-05T10:14:34Z</time>
      </trkpt>
      <trkpt lat="47.16608" lon="5.91058">
        <ele>358.4</ele>
        <time>2024-08-05T10:14:35Z</time>
      </trkpt>
      <trkpt lat="47.16609" lon="5.91059">
        <ele>358.4</ele>
        <time>2024-08-05T10:14:36Z</time>
      </trkpt>
      <trkpt lat="47.1661" lon="5.9106">
        <ele>358.4</ele>
        <time>2024-08-05T10:14:37Z</time>
      </trkpt>
      <trkpt lat="47.16611" lon="5.91061">
        <ele>358.6</ele>
        <time>2024-08-05T10:14:38Z</time>
      </trkpt>
      <trkpt lat="47.16612" lon="5.91062">
        <ele>358.8</ele>
        <time>2024-08-05T10:14:39Z</time>
      </trkpt>
      <trkpt lat="47.16613" lon="5.91063">
        <ele>358.8</ele>
        <time>2024-08-05T10:14:40Z</time>
      </trkpt>
      <trkpt lat="47.16614" lon="5.91065">
        <ele>359.2</ele>
        <time>2024-08-05T10:14:41Z</time>
      </trkpt>
      <trkpt lat="47.16615" lon="5.91067">
        <ele>359.4</ele>
        <time>2024-08-05T10:14:42Z</time>
      </trkpt>
      <trkpt lat="47.16617" lon="5.91069">
        <ele>359.4</ele>
        <time>2024-08-05T10:14:43Z</time>
      </trkpt>
      <trkpt lat="47.16617" lon="5.9107">
        <ele>359.8</ele>
        <time>2024-08-05T10:14:44Z</time>
      </trkpt>
      <trkpt lat="47.16618" lon="5.91072">
        <ele>360</ele>
        <time>2024-08-05T10:14:45Z</time>
      </trkpt>
      <trkpt lat="47.16619" lon="5.91073">
        <ele>360.2</ele>
        <time>2024-08-05T10:14:46Z</time>
      </trkpt>
      <trkpt lat="47.1662" lon="5.91075">
        <ele>360.4</ele>
        <time>2024-08-05T10:14:47Z</time>
      </trkpt>
      <trkpt lat="47.1662" lon="5.91075">
        <ele>360.6</ele>
        <time>2024-08-05T10:14:48Z</time>
      </trkpt>
      <trkpt lat="47.16621" lon="5.91077">
        <ele>360.6</ele>
        <time>2024-08-05T10:14:49Z</time>
      </trkpt>
      <trkpt lat="47.16621" lon="5.91077">
        <ele>360.8</ele>
        <time>2024-08-05T10:14:50Z</time>
      </trkpt>
      <trkpt lat="47.16622" lon="5.91077">
        <ele>361.2</ele>
        <time>2024-08-05T10:14:51Z</time>
      </trkpt>
      <trkpt lat="47.16623" lon="5.91078">
        <ele>361.2</ele>
        <time>2024-08-05T10:14:52Z</time>
      </trkpt>
      <trkpt lat="47.16624" lon="5.91079">
        <ele>361.8</ele>
        <time>2024-08-05T10:14:53Z</time>
      </trkpt>
      <trkpt lat="47.16624" lon="5.9108">
        <ele>361.8</ele>
        <time>2024-08-05T10:14:54Z</time>
      </trkpt>
      <trkpt lat="47.16625" lon="5.91081">
        <ele>361.8</ele>
        <time>2024-08-05T10:14:55Z</time>
      </trkpt>
      <trkpt lat="47.16626" lon="5.91082">
        <ele>362.2</ele>
        <time>2024-08-05T10:14:56Z</time>
      </trkpt>
      <trkpt lat="47.16626" lon="5.91083">
        <ele>362.6</ele>
        <time>2024-08-05T10:14:57Z</time>
      </trkpt>
      <trkpt lat="47.16627" lon="5.91085">
        <ele>363</ele>
        <time>2024-08-05T10:14:58Z</time>
      </trkpt>
      <trkpt lat="47.16629" lon="5.91088">
        <ele>363</ele>
        <time>2024-08-05T10:14:59Z</time>
      </trkpt>
      <trkpt lat="47.1663" lon="5.9109">
        <ele>363.2</ele>
        <time>2024-08-05T10:15:00Z</time>
      </trkpt>
      <trkpt lat="47.16631" lon="5.91092">
        <ele>363.4</ele>
        <time>2024-08-05T10:15:01Z</time>
      </trkpt>
      <trkpt lat="47.16631" lon="5.91094">
        <ele>363.6</ele>
        <time>2024-08-05T10:15:02Z</time>
      </trkpt>
      <trkpt lat="47.16632" lon="5.91095">
        <ele>363.8</ele>
        <time>2024-08-05T10:15:03Z</time>
      </trkpt>
      <trkpt lat="47.16632" lon="5.91097">
        <ele>364.2</ele>
        <time>2024-08-05T10:15:04Z</time>
      </trkpt>
      <trkpt lat="47.16633" lon="5.91099">
        <ele>364.4</ele>
        <time>2024-08-05T10:15:05Z</time>
      </trkpt>
      <trkpt lat="47.16634" lon="5.91102">
        <ele>364.6</ele>
        <time>2024-08-05T10:15:06Z</time>
      </trkpt>
      <trkpt lat="47.16634" lon="5.91104">
        <ele>364.6</ele>
        <time>2024-08-05T10:15:07Z</time>
      </trkpt>
      <trkpt lat="47.16634" lon="5.91106">
        <ele>364.8</ele>
        <time>2024-08-05T10:15:08Z</time>
      </trkpt>
      <trkpt lat="47.16635" lon="5.91109">
        <ele>365</ele>
        <time>2024-08-05T10:15:09Z</time>
      </trkpt>
      <trkpt lat="47.16635" lon="5.91111">
        <ele>365.2</ele>
        <time>2024-08-05T10:15:10Z</time>
      </trkpt>
      <trkpt lat="47.16636" lon="5.91113">
        <ele>365.4</ele>
        <time>2024-08-05T10:15:11Z</time>
      </trkpt>
      <trkpt lat="47.16636" lon="5.91115">
        <ele>365.6</ele>
        <time>2024-08-05T10:15:12Z</time>
      </trkpt>
      <trkpt lat="47.16637" lon="5.91117">
        <ele>365.8</ele>
        <time>2024-08-05T10:15:13Z</time>
      </trkpt>
      <trkpt lat="47.16637" lon="5.91119">
        <ele>366.2</ele>
        <time>2024-08-05T10:15:14Z</time>
      </trkpt>
      <trkpt lat="47.16638" lon="5.91121">
        <ele>366.4</ele>
        <time>2024-08-05T10:15:15Z</time>
      </trkpt>
      <trkpt lat="47.16639" lon="5.91123">
        <ele>366.6</ele>
        <time>2024-08-05T10:15:16Z</time>
      </trkpt>
      <trkpt lat="47.16639" lon="5.91126">
        <ele>366.8</ele>
        <time>2024-08-05T10:15:17Z</time>
      </trkpt>
      <trkpt lat="47.1664" lon="5.91129">
        <ele>367</ele>
        <time>2024-08-05T10:15:18Z</time>
      </trkpt>
      <trkpt lat="47.1664" lon="5.9113">
        <ele>367.2</ele>
        <time>2024-08-05T10:15:19Z</time>
      </trkpt>
      <trkpt lat="47.16641" lon="5.91132">
        <ele>367.6</ele>
        <time>2024-08-05T10:15:20Z</time>
      </trkpt>
      <trkpt lat="47.16642" lon="5.91133">
        <ele>367.6</ele>
        <time>2024-08-05T10:15:21Z</time>
      </trkpt>
      <trkpt lat="47.16642" lon="5.91135">
        <ele>367.6</ele>
        <time>2024-08-05T10:15:22Z</time>
      </trkpt>
      <trkpt lat="47.16643" lon="5.91137">
        <ele>368</ele>
        <time>2024-08-05T10:15:23Z</time>
      </trkpt>
      <trkpt lat="47.16644" lon="5.91138">
        <ele>368.2</ele>
        <time>2024-08-05T10:15:24Z</time>
      </trkpt>
      <trkpt lat="47.16645" lon="5.91139">
        <ele>368.4</ele>
        <time>2024-08-05T10:15:25Z</time>
      </trkpt>
      <trkpt lat="47.16646" lon="5.91142">
        <ele>368.6</ele>
        <time>2024-08-05T10:15:26Z</time>
      </trkpt>
      <trkpt lat="47.16647" lon="5.91144">
        <ele>368.8</ele>
        <time>2024-08-05T10:15:27Z</time>
      </trkpt>
      <trkpt lat="47.16648" lon="5.91146">
        <ele>369</ele>
        <time>2024-08-05T10:15:28Z</time>
      </trkpt>
      <trkpt lat="47.16649" lon="5.91148">
        <ele>369.4</ele>
        <time>2024-08-05T10:15:29Z</time>
      </trkpt>
      <trkpt lat="47.1665" lon="5.9115">
        <ele>369.6</ele>
        <time>2024-08-05T10:15:30Z</time>
      </trkpt>
      <trkpt lat="47.16651" lon="5.91152">
        <ele>369.6</ele>
        <time>2024-08-05T10:15:31Z</time>
      </trkpt>
      <trkpt lat="47.16652" lon="5.91154">
        <ele>369.8</ele>
        <time>2024-08-05T10:15:32Z</time>
      </trkpt>
      <trkpt lat="47.16653" lon="5.91156">
        <ele>370</ele>
        <time>2024-08-05T10:15:33Z</time>
      </trkpt>
      <trkpt lat="47.16654" lon="5.91158">
        <ele>370.2</ele>
        <time>2024-08-05T10:15:34Z</time>
      </trkpt>
      <trkpt lat="47.16655" lon="5.9116">
        <ele>370.6</ele>
        <time>2024-08-05T10:15:35Z</time>
      </trkpt>
      <trkpt lat="47.16656" lon="5.91162">
        <ele>370.8</ele>
        <time>2024-08-05T10:15:36Z</time>
      </trkpt>
      <trkpt lat="47.16657" lon="5.91164">
        <ele>370.8</ele>
        <time>2024-08-05T10:15:37Z</time>
      </trkpt>
      <trkpt lat="47.16658" lon="5.91166">
        <ele>371.2</ele>
        <time>2024-08-05T10:15:38Z</time>
      </trkpt>
      <trkpt lat="47.16659" lon="5.91168">
        <ele>371.4</ele>
        <time>2024-08-05T10:15:39Z</time>
      </trkpt>
      <trkpt lat="47.16659" lon="5.91169">
        <ele>371.6</ele>
        <time>2024-08-05T10:15:40Z</time>
      </trkpt>
      <trkpt lat="47.1666" lon="5.91171">
        <ele>371.8</ele>
        <time>2024-08-05T10:15:41Z</time>
      </trkpt>
      <trkpt lat="47.16661" lon="5.91172">
        <ele>372.2</ele>
        <time>2024-08-05T10:15:42Z</time>
      </trkpt>
      <trkpt lat="47.16662" lon="5.91173">
        <ele>372.2</ele>
        <time>2024-08-05T10:15:43Z</time>
      </trkpt>
      <trkpt lat="47.16662" lon="5.91175">
        <ele>372.4</ele>
        <time>2024-08-05T10:15:44Z</time>
      </trkpt>
      <trkpt lat="47.16663" lon="5.91176">
        <ele>372.4</ele>
        <time>2024-08-05T10:15:45Z</time>
      </trkpt>
      <trkpt lat="47.16664" lon="5.91177">
        <ele>372.8</ele>
        <time>2024-08-05T10:15:46Z</time>
      </trkpt>
      <trkpt lat="47.16665" lon="5.91178">
        <ele>373</ele>
        <time>2024-08-05T10:15:47Z</time>
      </trkpt>
      <trkpt lat="47.16665" lon="5.91179">
        <ele>373</ele>
        <time>2024-08-05T10:15:48Z</time>
      </trkpt>
      <trkpt lat="47.16666" lon="5.91181">
        <ele>373.4</ele>
        <time>2024-08-05T10:15:49Z</time>
      </trkpt>
      <trkpt lat="47.16667" lon="5.91182">
        <ele>373.6</ele>
        <time>2024-08-05T10:15:50Z</time>
      </trkpt>
      <trkpt lat="47.16668" lon="5.91183">
        <ele>373.8</ele>
        <time>2024-08-05T10:15:51Z</time>
      </trkpt>
      <trkpt lat="47.16669" lon="5.91184">
        <ele>374</ele>
        <time>2024-08-05T10:15:52Z</time>
      </trkpt>
      <trkpt lat="47.1667" lon="5.91185">
        <ele>374.4</ele>
        <time>2024-08-05T10:15:53Z</time>
      </trkpt>
      <trkpt lat="47.16671" lon="5.91187">
        <ele>374.4</ele>
        <time>2024-08-05T10:15:54Z</time>
      </trkpt>
      <trkpt lat="47.16672" lon="5.91189">
        <ele>374.8</ele>
        <time>2024-08-05T10:15:55Z</time>
      </trkpt>
      <trkpt lat="47.16673" lon="5.91191">
        <ele>374.8</ele>
        <time>2024-08-05T10:15:56Z</time>
      </trkpt>
      <trkpt lat="47.16674" lon="5.91193">
        <ele>375.2</ele>
        <time>2024-08-05T10:15:57Z</time>
      </trkpt>
      <trkpt lat="47.16674" lon="5.91194">
        <ele>375.2</ele>
        <time>2024-08-05T10:15:58Z</time>
      </trkpt>
      <trkpt lat="47.16676" lon="5.91195">
        <ele>375.6</ele>
        <time>2024-08-05T10:15:59Z</time>
      </trkpt>
      <trkpt lat="47.16677" lon="5.91197">
        <ele>375.8</ele>
        <time>2024-08-05T10:16:00Z</time>
      </trkpt>
      <trkpt lat="47.16678" lon="5.91199">
        <ele>376</ele>
        <time>2024-08-05T10:16:01Z</time>
      </trkpt>
      <trkpt lat="47.16679" lon="5.912">
        <ele>376.2</ele>
        <time>2024-08-05T10:16:02Z</time>
      </trkpt>
      <trkpt lat="47.16681" lon="5.91202">
        <ele>376.4</ele>
        <time>2024-08-05T10:16:03Z</time>
      </trkpt>
      <trkpt lat="47.16682" lon="5.91204">
        <ele>376.4</ele>
        <time>2024-08-05T10:16:04Z</time>
      </trkpt>
      <trkpt lat="47.16683" lon="5.91205">
        <ele>376.4</ele>
        <time>2024-08-05T10:16:05Z</time>
      </trkpt>
      <trkpt lat="47.16685" lon="5.91207">
        <ele>376.6</ele>
        <time>2024-08-05T10:16:06Z</time>
      </trkpt>
      <trkpt lat="47.16686" lon="5.91208">
        <ele>376.8</ele>
        <time>2024-08-05T10:16:07Z</time>
      </trkpt>
      <trkpt lat="47.16687" lon="5.9121">
        <ele>376.8</ele>
        <time>2024-08-05T10:16:08Z</time>
      </trkpt>
      <trkpt lat="47.16688" lon="5.91211">
        <ele>377</ele>
        <time>2024-08-05T10:16:09Z</time>
      </trkpt>
      <trkpt lat="47.16689" lon="5.91212">
        <ele>377.4</ele>
        <time>2024-08-05T10:16:10Z</time>
      </trkpt>
      <trkpt lat="47.16689" lon="5.91213">
        <ele>377.4</ele>
        <time>2024-08-05T10:16:11Z</time>
      </trkpt>
      <trkpt lat="47.16689" lon="5.91215">
        <ele>377.6</ele>
        <time>2024-08-05T10:16:12Z</time>
      </trkpt>
      <trkpt lat="47.1669" lon="5.91217">
        <ele>377.8</ele>
        <time>2024-08-05T10:16:13Z</time>
      </trkpt>
      <trkpt lat="47.1669" lon="5.91218">
        <ele>378.2</ele>
        <time>2024-08-05T10:16:14Z</time>
      </trkpt>
      <trkpt lat="47.1669" lon="5.9122">
        <ele>378.2</ele>
        <time>2024-08-05T10:16:15Z</time>
      </trkpt>
      <trkpt lat="47.1669" lon="5.91221">
        <ele>378.4</ele>
        <time>2024-08-05T10:16:16Z</time>
      </trkpt>
      <trkpt lat="47.16691" lon="5.91221">
        <ele>378.8</ele>
        <time>2024-08-05T10:16:17Z</time>
      </trkpt>
      <trkpt lat="47.16692" lon="5.91221">
        <ele>379.2</ele>
        <time>2024-08-05T10:16:18Z</time>
      </trkpt>
      <trkpt lat="47.16694" lon="5.91221">
        <ele>379.4</ele>
        <time>2024-08-05T10:16:19Z</time>
      </trkpt>
      <trkpt lat="47.16695" lon="5.91222">
        <ele>379.8</ele>
        <time>2024-08-05T10:16:20Z</time>
      </trkpt>
      <trkpt lat="47.16696" lon="5.91223">
        <ele>380</ele>
        <time>2024-08-05T10:16:21Z</time>
      </trkpt>
      <trkpt lat="47.16698" lon="5.91223">
        <ele>380.2</ele>
        <time>2024-08-05T10:16:22Z</time>
      </trkpt>
      <trkpt lat="47.16699" lon="5.91224">
        <ele>380.4</ele>
        <time>2024-08-05T10:16:23Z</time>
      </trkpt>
      <trkpt lat="47.167" lon="5.91225">
        <ele>380.6</ele>
        <time>2024-08-05T10:16:24Z</time>
      </trkpt>
      <trkpt lat="47.16702" lon="5.91225">
        <ele>380.8</ele>
        <time>2024-08-05T10:16:25Z</time>
      </trkpt>
      <trkpt lat="47.16704" lon="5.91225">
        <ele>380.8</ele>
        <time>2024-08-05T10:16:26Z</time>
      </trkpt>
      <trkpt lat="47.16706" lon="5.91226">
        <ele>381</ele>
        <time>2024-08-05T10:16:27Z</time>
      </trkpt>
      <trkpt lat="47.16709" lon="5.91226">
        <ele>381</ele>
        <time>2024-08-05T10:16:28Z</time>
      </trkpt>
      <trkpt lat="47.16711" lon="5.91226">
        <ele>381</ele>
        <time>2024-08-05T10:16:29Z</time>
      </trkpt>
      <trkpt lat="47.16713" lon="5.91227">
        <ele>381.2</ele>
        <time>2024-08-05T10:16:30Z</time>
      </trkpt>
      <trkpt lat="47.16715" lon="5.91228">
        <ele>381.2</ele>
        <time>2024-08-05T10:16:31Z</time>
      </trkpt>
      <trkpt lat="47.16716" lon="5.91229">
        <ele>381.2</ele>
        <time>2024-08-05T10:16:32Z</time>
      </trkpt>
      <trkpt lat="47.16718" lon="5.91229">
        <ele>381.2</ele>
        <time>2024-08-05T10:16:33Z</time>
      </trkpt>
      <trkpt lat="47.16718" lon="5.91228">
        <ele>381.2</ele>
        <time>2024-08-05T10:16:34Z</time>
      </trkpt>
      <trkpt lat="47.16718" lon="5.91229">
        <ele>381.2</ele>
        <time>2024-08-05T10:16:35Z</time>
      </trkpt>
      <trkpt lat="47.16718" lon="5.9123">
        <ele>381.2</ele>
        <time>2024-08-05T10:16:36Z</time>
      </trkpt>
      <trkpt lat="47.16718" lon="5.91231">
        <ele>381.2</ele>
        <time>2024-08-05T10:16:37Z</time>
      </trkpt>
      <trkpt lat="47.16718" lon="5.91232">
        <ele>381.2</ele>
        <time>2024-08-05T10:16:38Z</time>
      </trkpt>
      <trkpt lat="47.16718" lon="5.91233">
        <ele>380.8</ele>
        <time>2024-08-05T10:16:39Z</time>
      </trkpt>
      <trkpt lat="47.16718" lon="5.91234">
        <ele>380.8</ele>
        <time>2024-08-05T10:16:40Z</time>
      </trkpt>
      <trkpt lat="47.16719" lon="5.91234">
        <ele>380.8</ele>
        <time>2024-08-05T10:16:41Z</time>
      </trkpt>
      <trkpt lat="47.16719" lon="5.91234">
        <ele>380.8</ele>
        <time>2024-08-05T10:16:42Z</time>
      </trkpt>
      <trkpt lat="47.16719" lon="5.91234">
        <ele>380.6</ele>
        <time>2024-08-05T10:16:43Z</time>
      </trkpt>
      <trkpt lat="47.16719" lon="5.91234">
        <ele>380.6</ele>
        <time>2024-08-05T10:16:44Z</time>
      </trkpt>
      <trkpt lat="47.16719" lon="5.91234">
        <ele>380.8</ele>
        <time>2024-08-05T10:16:45Z</time>
      </trkpt>
      <trkpt lat="47.16719" lon="5.91234">
        <ele>380.8</ele>
        <time>2024-08-05T10:16:46Z</time>
      </trkpt>
      <trkpt lat="47.16719" lon="5.91234">
        <ele>380.6</ele>
        <time>2024-08-05T10:16:47Z</time>
      </trkpt>
      <trkpt lat="47.16719" lon="5.91234">
        <ele>380.6</ele>
        <time>2024-08-05T10:16:48Z</time>
      </trkpt>
      <trkpt lat="47.16719" lon="5.91234">
        <ele>380.8</ele>
        <time>2024-08-05T10:16:49Z</time>
      </trkpt>
      <trkpt lat="47.16719" lon="5.91234">
        <ele>380.8</ele>
        <time>2024-08-05T10:16:50Z</time>
      </trkpt>
      <trkpt lat="47.16719" lon="5.91234">
        <ele>380.6</ele>
        <time>2024-08-05T10:16:51Z</time>
      </trkpt>
      <trkpt lat="47.16719" lon="5.91234">
        <ele>380.8</ele>
        <time>2024-08-05T10:16:52Z</time>
      </trkpt>
      <trkpt lat="47.16719" lon="5.91234">
        <ele>380.8</ele>
        <time>2024-08-05T10:16:53Z</time>
      </trkpt>
      <trkpt lat="47.16719" lon="5.91234">
        <ele>380.8</ele>
        <time>2024-08-05T10:16:54Z</time>
      </trkpt>
      <trkpt lat="47.16719" lon="5.91234">
        <ele>380.8</ele>
        <time>2024-08-05T10:16:55Z</time>
      </trkpt>
      <trkpt lat="47.16719" lon="5.91234">
        <ele>380.8</ele>
        <time>2024-08-05T10:16:56Z</time>
      </trkpt>
      <trkpt lat="47.16719" lon="5.91234">
        <ele>380.8</ele>
        <time>2024-08-05T10:16:57Z</time>
      </trkpt>
      <trkpt lat="47.16719" lon="5.91234">
        <ele>380.8</ele>
        <time>2024-08-05T10:16:58Z</time>
      </trkpt>
      <trkpt lat="47.16719" lon="5.91234">
        <ele>380.8</ele>
        <time>2024-08-05T10:16:59Z</time>
      </trkpt>
      <trkpt lat="47.16719" lon="5.91234">
        <ele>380.8</ele>
        <time>2024-08-05T10:17:00Z</time>
      </trkpt>
      <trkpt lat="47.16719" lon="5.91234">
        <ele>380.8</ele>
        <time>2024-08-05T10:17:01Z</time>
      </trkpt>
      <trkpt lat="47.16719" lon="5.91234">
        <ele>380.6</ele>
        <time>2024-08-05T10:17:02Z</time>
      </trkpt>
      <trkpt lat="47.16719" lon="5.91234">
        <ele>380.6</ele>
        <time>2024-08-05T10:17:03Z</time>
      </trkpt>
      <trkpt lat="47.16719" lon="5.91234">
        <ele>380.8</ele>
        <time>2024-08-05T10:17:04Z</time>
      </trkpt>
      <trkpt lat="47.16719" lon="5.91234">
        <ele>380.4</ele>
        <time>2024-08-05T10:17:05Z</time>
      </trkpt>
      <trkpt lat="47.16719" lon="5.91234">
        <ele>380.6</ele>
        <time>2024-08-05T10:17:06Z</time>
      </trkpt>
      <trkpt lat="47.16719" lon="5.91234">
        <ele>380.6</ele>
        <time>2024-08-05T10:17:07Z</time>
      </trkpt>
      <trkpt lat="47.16719" lon="5.91234">
        <ele>380.6</ele>
        <time>2024-08-05T10:17:08Z</time>
      </trkpt>
      <trkpt lat="47.16719" lon="5.91234">
        <ele>380.6</ele>
        <time>2024-08-05T10:17:09Z</time>
      </trkpt>
      <trkpt lat="47.16719" lon="5.91234">
        <ele>380.6</ele>
        <time>2024-08-05T10:17:10Z</time>
      </trkpt>
      <trkpt lat="47.16719" lon="5.91234">
        <ele>380.4</ele>
        <time>2024-08-05T10:17:11Z</time>
      </trkpt>
      <trkpt lat="47.16719" lon="5.91234">
        <ele>380.6</ele>
        <time>2024-08-05T10:17:12Z</time>
      </trkpt>
      <trkpt lat="47.16719" lon="5.91234">
        <ele>380.6</ele>
        <time>2024-08-05T10:17:13Z</time>
      </trkpt>
      <trkpt lat="47.16719" lon="5.91234">
        <ele>380.6</ele>
        <time>2024-08-05T10:17:14Z</time>
      </trkpt>
      <trkpt lat="47.1672" lon="5.91234">
        <ele>380.6</ele>
        <time>2024-08-05T10:17:15Z</time>
      </trkpt>
      <trkpt lat="47.1672" lon="5.91234">
        <ele>380.4</ele>
        <time>2024-08-05T10:17:16Z</time>
      </trkpt>
      <trkpt lat="47.1672" lon="5.91234">
        <ele>380.6</ele>
        <time>2024-08-05T10:17:17Z</time>
      </trkpt>
      <trkpt lat="47.1672" lon="5.91234">
        <ele>380.6</ele>
        <time>2024-08-05T10:17:18Z</time>
      </trkpt>
      <trkpt lat="47.1672" lon="5.91234">
        <ele>380.4</ele>
        <time>2024-08-05T10:17:19Z</time>
      </trkpt>
      <trkpt lat="47.1672" lon="5.91234">
        <ele>380.6</ele>
        <time>2024-08-05T10:17:20Z</time>
      </trkpt>
      <trkpt lat="47.1672" lon="5.91234">
        <ele>380.4</ele>
        <time>2024-08-05T10:17:21Z</time>
      </trkpt>
      <trkpt lat="47.1672" lon="5.91233">
        <ele>380.6</ele>
        <time>2024-08-05T10:17:22Z</time>
      </trkpt>
      <trkpt lat="47.1672" lon="5.91233">
        <ele>380.6</ele>
        <time>2024-08-05T10:17:23Z</time>
      </trkpt>
      <trkpt lat="47.1672" lon="5.91233">
        <ele>380.6</ele>
        <time>2024-08-05T10:17:24Z</time>
      </trkpt>
      <trkpt lat="47.1672" lon="5.91233">
        <ele>380.6</ele>
        <time>2024-08-05T10:17:25Z</time>
      </trkpt>
      <trkpt lat="47.1672" lon="5.91233">
        <ele>380.6</ele>
        <time>2024-08-05T10:17:26Z</time>
      </trkpt>
      <trkpt lat="47.1672" lon="5.91233">
        <ele>380.6</ele>
        <time>2024-08-05T10:17:27Z</time>
      </trkpt>
      <trkpt lat="47.1672" lon="5.91233">
        <ele>380.6</ele>
        <time>2024-08-05T10:17:28Z</time>
      </trkpt>
      <trkpt lat="47.1672" lon="5.91233">
        <ele>380.6</ele>
        <time>2024-08-05T10:17:29Z</time>
      </trkpt>
      <trkpt lat="47.1672" lon="5.91233">
        <ele>380.8</ele>
        <time>2024-08-05T10:17:30Z</time>
      </trkpt>
      <trkpt lat="47.1672" lon="5.91233">
        <ele>380.6</ele>
        <time>2024-08-05T10:17:31Z</time>
      </trkpt>
      <trkpt lat="47.1672" lon="5.91233">
        <ele>380.6</ele>
        <time>2024-08-05T10:17:32Z</time>
      </trkpt>
      <trkpt lat="47.1672" lon="5.91233">
        <ele>380.6</ele>
        <time>2024-08-05T10:17:33Z</time>
      </trkpt>
      <trkpt lat="47.1672" lon="5.91233">
        <ele>380.8</ele>
        <time>2024-08-05T10:17:34Z</time>
      </trkpt>
      <trkpt lat="47.1672" lon="5.91233">
        <ele>380.8</ele>
        <time>2024-08-05T10:17:35Z</time>
      </trkpt>
      <trkpt lat="47.1672" lon="5.91233">
        <ele>380.8</ele>
        <time>2024-08-05T10:17:36Z</time>
      </trkpt>
      <trkpt lat="47.16719" lon="5.91233">
        <ele>381</ele>
        <time>2024-08-05T10:17:37Z</time>
      </trkpt>
      <trkpt lat="47.16719" lon="5.91233">
        <ele>380.8</ele>
        <time>2024-08-05T10:17:38Z</time>
      </trkpt>
      <trkpt lat="47.16719" lon="5.91233">
        <ele>380.8</ele>
        <time>2024-08-05T10:17:39Z</time>
      </trkpt>
      <trkpt lat="47.16719" lon="5.91233">
        <ele>381</ele>
        <time>2024-08-05T10:17:40Z</time>
      </trkpt>
      <trkpt lat="47.16718" lon="5.91233">
        <ele>381</ele>
        <time>2024-08-05T10:17:41Z</time>
      </trkpt>
      <trkpt lat="47.16718" lon="5.91232">
        <ele>381</ele>
        <time>2024-08-05T10:17:42Z</time>
      </trkpt>
      <trkpt lat="47.16717" lon="5.91232">
        <ele>381</ele>
        <time>2024-08-05T10:17:43Z</time>
      </trkpt>
      <trkpt lat="47.16717" lon="5.91231">
        <ele>381</ele>
        <time>2024-08-05T10:17:44Z</time>
      </trkpt>
      <trkpt lat="47.16716" lon="5.91231">
        <ele>381</ele>
        <time>2024-08-05T10:17:45Z</time>
      </trkpt>
      <trkpt lat="47.16715" lon="5.91231">
        <ele>380.8</ele>
        <time>2024-08-05T10:17:46Z</time>
      </trkpt>
      <trkpt lat="47.16714" lon="5.91231">
        <ele>380.8</ele>
        <time>2024-08-05T10:17:47Z</time>
      </trkpt>
      <trkpt lat="47.16712" lon="5.91231">
        <ele>381</ele>
        <time>2024-08-05T10:17:48Z</time>
      </trkpt>
      <trkpt lat="47.1671" lon="5.91231">
        <ele>381</ele>
        <time>2024-08-05T10:17:49Z</time>
      </trkpt>
      <trkpt lat="47.16709" lon="5.91232">
        <ele>381</ele>
        <time>2024-08-05T10:17:50Z</time>
      </trkpt>
      <trkpt lat="47.16707" lon="5.91234">
        <ele>381</ele>
        <time>2024-08-05T10:17:51Z</time>
      </trkpt>
      <trkpt lat="47.16705" lon="5.91235">
        <ele>381</ele>
        <time>2024-08-05T10:17:52Z</time>
      </trkpt>
      <trkpt lat="47.16703" lon="5.91236">
        <ele>381</ele>
        <time>2024-08-05T10:17:53Z</time>
      </trkpt>
      <trkpt lat="47.16702" lon="5.91237">
        <ele>381</ele>
        <time>2024-08-05T10:17:54Z</time>
      </trkpt>
      <trkpt lat="47.167" lon="5.91238">
        <ele>381</ele>
        <time>2024-08-05T10:17:55Z</time>
      </trkpt>
      <trkpt lat="47.16698" lon="5.91239">
        <ele>381.2</ele>
        <time>2024-08-05T10:17:56Z</time>
      </trkpt>
      <trkpt lat="47.16697" lon="5.9124">
        <ele>381.4</ele>
        <time>2024-08-05T10:17:57Z</time>
      </trkpt>
      <trkpt lat="47.16696" lon="5.91241">
        <ele>381.4</ele>
        <time>2024-08-05T10:17:58Z</time>
      </trkpt>
      <trkpt lat="47.16695" lon="5.91243">
        <ele>381.6</ele>
        <time>2024-08-05T10:17:59Z</time>
      </trkpt>
      <trkpt lat="47.16694" lon="5.91244">
        <ele>381.4</ele>
        <time>2024-08-05T10:18:00Z</time>
      </trkpt>
      <trkpt lat="47.16694" lon="5.91246">
        <ele>381.6</ele>
        <time>2024-08-05T10:18:01Z</time>
      </trkpt>
      <trkpt lat="47.16694" lon="5.91248">
        <ele>381.8</ele>
        <time>2024-08-05T10:18:02Z</time>
      </trkpt>
      <trkpt lat="47.16694" lon="5.9125">
        <ele>381.6</ele>
        <time>2024-08-05T10:18:03Z</time>
      </trkpt>
      <trkpt lat="47.16693" lon="5.91252">
        <ele>381.8</ele>
        <time>2024-08-05T10:18:04Z</time>
      </trkpt>
      <trkpt lat="47.16693" lon="5.91254">
        <ele>381.8</ele>
        <time>2024-08-05T10:18:05Z</time>
      </trkpt>
      <trkpt lat="47.16693" lon="5.91256">
        <ele>382</ele>
        <time>2024-08-05T10:18:06Z</time>
      </trkpt>
      <trkpt lat="47.16692" lon="5.91258">
        <ele>382</ele>
        <time>2024-08-05T10:18:07Z</time>
      </trkpt>
      <trkpt lat="47.16692" lon="5.9126">
        <ele>382.2</ele>
        <time>2024-08-05T10:18:08Z</time>
      </trkpt>
      <trkpt lat="47.16691" lon="5.91262">
        <ele>382.2</ele>
        <time>2024-08-05T10:18:09Z</time>
      </trkpt>
      <trkpt lat="47.16691" lon="5.91264">
        <ele>382.4</ele>
        <time>2024-08-05T10:18:10Z</time>
      </trkpt>
      <trkpt lat="47.16691" lon="5.91266">
        <ele>382.6</ele>
        <time>2024-08-05T10:18:11Z</time>
      </trkpt>
      <trkpt lat="47.1669" lon="5.91268">
        <ele>382.8</ele>
        <time>2024-08-05T10:18:12Z</time>
      </trkpt>
      <trkpt lat="47.1669" lon="5.9127">
        <ele>383</ele>
        <time>2024-08-05T10:18:13Z</time>
      </trkpt>
      <trkpt lat="47.16689" lon="5.91272">
        <ele>383.2</ele>
        <time>2024-08-05T10:18:14Z</time>
      </trkpt>
      <trkpt lat="47.16689" lon="5.91275">
        <ele>383.2</ele>
        <time>2024-08-05T10:18:15Z</time>
      </trkpt>
      <trkpt lat="47.16688" lon="5.91277">
        <ele>383.2</ele>
        <time>2024-08-05T10:18:16Z</time>
      </trkpt>
      <trkpt lat="47.16688" lon="5.91279">
        <ele>383.4</ele>
        <time>2024-08-05T10:18:17Z</time>
      </trkpt>
      <trkpt lat="47.16687" lon="5.91281">
        <ele>383.6</ele>
        <time>2024-08-05T10:18:18Z</time>
      </trkpt>
      <trkpt lat="47.16686" lon="5.91283">
        <ele>383.4</ele>
        <time>2024-08-05T10:18:19Z</time>
      </trkpt>
      <trkpt lat="47.16685" lon="5.91285">
        <ele>383.6</ele>
        <time>2024-08-05T10:18:20Z</time>
      </trkpt>
      <trkpt lat="47.16683" lon="5.91286">
        <ele>383.6</ele>
        <time>2024-08-05T10:18:21Z</time>
      </trkpt>
      <trkpt lat="47.16682" lon="5.91288">
        <ele>383.6</ele>
        <time>2024-08-05T10:18:22Z</time>
      </trkpt>
      <trkpt lat="47.16681" lon="5.91289">
        <ele>384</ele>
        <time>2024-08-05T10:18:23Z</time>
      </trkpt>
      <trkpt lat="47.1668" lon="5.91291">
        <ele>384</ele>
        <time>2024-08-05T10:18:24Z</time>
      </trkpt>
      <trkpt lat="47.16677" lon="5.91293">
        <ele>384.2</ele>
        <time>2024-08-05T10:18:25Z</time>
      </trkpt>
      <trkpt lat="47.16676" lon="5.91295">
        <ele>384.2</ele>
        <time>2024-08-05T10:18:26Z</time>
      </trkpt>
      <trkpt lat="47.16675" lon="5.91297">
        <ele>384.2</ele>
        <time>2024-08-05T10:18:27Z</time>
      </trkpt>
      <trkpt lat="47.16672" lon="5.91299">
        <ele>384.2</ele>
        <time>2024-08-05T10:18:28Z</time>
      </trkpt>
      <trkpt lat="47.16669" lon="5.91301">
        <ele>384.4</ele>
        <time>2024-08-05T10:18:29Z</time>
      </trkpt>
      <trkpt lat="47.16667" lon="5.91303">
        <ele>384.4</ele>
        <time>2024-08-05T10:18:30Z</time>
      </trkpt>
      <trkpt lat="47.16665" lon="5.91304">
        <ele>384.4</ele>
        <time>2024-08-05T10:18:31Z</time>
      </trkpt>
      <trkpt lat="47.16661" lon="5.91306">
        <ele>384.6</ele>
        <time>2024-08-05T10:18:32Z</time>
      </trkpt>
      <trkpt lat="47.16658" lon="5.91308">
        <ele>384.6</ele>
        <time>2024-08-05T10:18:33Z</time>
      </trkpt>
      <trkpt lat="47.16655" lon="5.91309">
        <ele>384.8</ele>
        <time>2024-08-05T10:18:34Z</time>
      </trkpt>
      <trkpt lat="47.16654" lon="5.91311">
        <ele>385</ele>
        <time>2024-08-05T10:18:35Z</time>
      </trkpt>
      <trkpt lat="47.16652" lon="5.91312">
        <ele>385.2</ele>
        <time>2024-08-05T10:18:36Z</time>
      </trkpt>
      <trkpt lat="47.1665" lon="5.91314">
        <ele>385.4</ele>
        <time>2024-08-05T10:18:37Z</time>
      </trkpt>
      <trkpt lat="47.16647" lon="5.91316">
        <ele>385.4</ele>
        <time>2024-08-05T10:18:38Z</time>
      </trkpt>
      <trkpt lat="47.16644" lon="5.91318">
        <ele>385.2</ele>
        <time>2024-08-05T10:18:39Z</time>
      </trkpt>
      <trkpt lat="47.16642" lon="5.91319">
        <ele>385.2</ele>
        <time>2024-08-05T10:18:40Z</time>
      </trkpt>
      <trkpt lat="47.16641" lon="5.9132">
        <ele>385.4</ele>
        <time>2024-08-05T10:18:41Z</time>
      </trkpt>
      <trkpt lat="47.1664" lon="5.91322">
        <ele>385.4</ele>
        <time>2024-08-05T10:18:42Z</time>
      </trkpt>
      <trkpt lat="47.16639" lon="5.91324">
        <ele>385.6</ele>
        <time>2024-08-05T10:18:43Z</time>
      </trkpt>
      <trkpt lat="47.1664" lon="5.91328">
        <ele>385.6</ele>
        <time>2024-08-05T10:18:44Z</time>
      </trkpt>
      <trkpt lat="47.16639" lon="5.91331">
        <ele>385.6</ele>
        <time>2024-08-05T10:18:45Z</time>
      </trkpt>
      <trkpt lat="47.16639" lon="5.91334">
        <ele>385.6</ele>
        <time>2024-08-05T10:18:46Z</time>
      </trkpt>
      <trkpt lat="47.16637" lon="5.91337">
        <ele>385.6</ele>
        <time>2024-08-05T10:18:47Z</time>
      </trkpt>
      <trkpt lat="47.16637" lon="5.9134">
        <ele>385.6</ele>
        <time>2024-08-05T10:18:48Z</time>
      </trkpt>
      <trkpt lat="47.16636" lon="5.91343">
        <ele>385.8</ele>
        <time>2024-08-05T10:18:49Z</time>
      </trkpt>
      <trkpt lat="47.16635" lon="5.91346">
        <ele>386</ele>
        <time>2024-08-05T10:18:50Z</time>
      </trkpt>
      <trkpt lat="47.16635" lon="5.91349">
        <ele>386.2</ele>
        <time>2024-08-05T10:18:51Z</time>
      </trkpt>
      <trkpt lat="47.16635" lon="5.91351">
        <ele>386.2</ele>
        <time>2024-08-05T10:18:52Z</time>
      </trkpt>
      <trkpt lat="47.16635" lon="5.91354">
        <ele>386.6</ele>
        <time>2024-08-05T10:18:53Z</time>
      </trkpt>
      <trkpt lat="47.16634" lon="5.91357">
        <ele>386.8</ele>
        <time>2024-08-05T10:18:54Z</time>
      </trkpt>
      <trkpt lat="47.16632" lon="5.9136">
        <ele>387</ele>
        <time>2024-08-05T10:18:55Z</time>
      </trkpt>
      <trkpt lat="47.1663" lon="5.91362">
        <ele>387.2</ele>
        <time>2024-08-05T10:18:56Z</time>
      </trkpt>
      <trkpt lat="47.16628" lon="5.91365">
        <ele>387.6</ele>
        <time>2024-08-05T10:18:57Z</time>
      </trkpt>
      <trkpt lat="47.16627" lon="5.91367">
        <ele>387.8</ele>
        <time>2024-08-05T10:18:58Z</time>
      </trkpt>
      <trkpt lat="47.16626" lon="5.91367">
        <ele>387.8</ele>
        <time>2024-08-05T10:18:59Z</time>
      </trkpt>
      <trkpt lat="47.16624" lon="5.91368">
        <ele>387.8</ele>
        <time>2024-08-05T10:19:00Z</time>
      </trkpt>
      <trkpt lat="47.16622" lon="5.9137">
        <ele>387.8</ele>
        <time>2024-08-05T10:19:01Z</time>
      </trkpt>
      <trkpt lat="47.16621" lon="5.91371">
        <ele>388</ele>
        <time>2024-08-05T10:19:02Z</time>
      </trkpt>
      <trkpt lat="47.16619" lon="5.91374">
        <ele>388.2</ele>
        <time>2024-08-05T10:19:03Z</time>
      </trkpt>
      <trkpt lat="47.16617" lon="5.91376">
        <ele>388.4</ele>
        <time>2024-08-05T10:19:04Z</time>
      </trkpt>
      <trkpt lat="47.16616" lon="5.91378">
        <ele>388.4</ele>
        <time>2024-08-05T10:19:05Z</time>
      </trkpt>
      <trkpt lat="47.16614" lon="5.9138">
        <ele>388.6</ele>
        <time>2024-08-05T10:19:06Z</time>
      </trkpt>
      <trkpt lat="47.16612" lon="5.91381">
        <ele>388.8</ele>
        <time>2024-08-05T10:19:07Z</time>
      </trkpt>
      <trkpt lat="47.1661" lon="5.91382">
        <ele>388.8</ele>
        <time>2024-08-05T10:19:08Z</time>
      </trkpt>
      <trkpt lat="47.16607" lon="5.91384">
        <ele>389</ele>
        <time>2024-08-05T10:19:09Z</time>
      </trkpt>
      <trkpt lat="47.16605" lon="5.91385">
        <ele>389.2</ele>
        <time>2024-08-05T10:19:10Z</time>
      </trkpt>
      <trkpt lat="47.16603" lon="5.91387">
        <ele>389.2</ele>
        <time>2024-08-05T10:19:11Z</time>
      </trkpt>
      <trkpt lat="47.166" lon="5.91388">
        <ele>389.4</ele>
        <time>2024-08-05T10:19:12Z</time>
      </trkpt>
      <trkpt lat="47.16598" lon="5.91389">
        <ele>389.8</ele>
        <time>2024-08-05T10:19:13Z</time>
      </trkpt>
      <trkpt lat="47.16596" lon="5.9139">
        <ele>390</ele>
        <time>2024-08-05T10:19:14Z</time>
      </trkpt>
      <trkpt lat="47.16594" lon="5.91392">
        <ele>390.4</ele>
        <time>2024-08-05T10:19:15Z</time>
      </trkpt>
      <trkpt lat="47.16592" lon="5.91393">
        <ele>390.4</ele>
        <time>2024-08-05T10:19:16Z</time>
      </trkpt>
      <trkpt lat="47.1659" lon="5.91394">
        <ele>390.6</ele>
        <time>2024-08-05T10:19:17Z</time>
      </trkpt>
      <trkpt lat="47.16588" lon="5.91396">
        <ele>390.8</ele>
        <time>2024-08-05T10:19:18Z</time>
      </trkpt>
      <trkpt lat="47.16586" lon="5.91397">
        <ele>391</ele>
        <time>2024-08-05T10:19:19Z</time>
      </trkpt>
      <trkpt lat="47.16584" lon="5.91399">
        <ele>391</ele>
        <time>2024-08-05T10:19:20Z</time>
      </trkpt>
      <trkpt lat="47.16582" lon="5.91402">
        <ele>391.2</ele>
        <time>2024-08-05T10:19:21Z</time>
      </trkpt>
      <trkpt lat="47.1658" lon="5.91404">
        <ele>391.2</ele>
        <time>2024-08-05T10:19:22Z</time>
      </trkpt>
      <trkpt lat="47.16578" lon="5.91406">
        <ele>391.4</ele>
        <time>2024-08-05T10:19:23Z</time>
      </trkpt>
      <trkpt lat="47.16577" lon="5.91409">
        <ele>391.4</ele>
        <time>2024-08-05T10:19:24Z</time>
      </trkpt>
      <trkpt lat="47.16575" lon="5.91411">
        <ele>391.6</ele>
        <time>2024-08-05T10:19:25Z</time>
      </trkpt>
      <trkpt lat="47.16574" lon="5.91413">
        <ele>391.8</ele>
        <time>2024-08-05T10:19:26Z</time>
      </trkpt>
      <trkpt lat="47.16572" lon="5.91414">
        <ele>391.8</ele>
        <time>2024-08-05T10:19:27Z</time>
      </trkpt>
      <trkpt lat="47.1657" lon="5.91416">
        <ele>392</ele>
        <time>2024-08-05T10:19:28Z</time>
      </trkpt>
      <trkpt lat="47.16568" lon="5.91418">
        <ele>392</ele>
        <time>2024-08-05T10:19:29Z</time>
      </trkpt>
      <trkpt lat="47.16566" lon="5.9142">
        <ele>392.2</ele>
        <time>2024-08-05T10:19:30Z</time>
      </trkpt>
      <trkpt lat="47.16564" lon="5.91422">
        <ele>392.4</ele>
        <time>2024-08-05T10:19:31Z</time>
      </trkpt>
      <trkpt lat="47.16563" lon="5.91424">
        <ele>392.4</ele>
        <time>2024-08-05T10:19:32Z</time>
      </trkpt>
      <trkpt lat="47.1656" lon="5.91426">
        <ele>392.6</ele>
        <time>2024-08-05T10:19:33Z</time>
      </trkpt>
      <trkpt lat="47.16558" lon="5.91428">
        <ele>392.6</ele>
        <time>2024-08-05T10:19:34Z</time>
      </trkpt>
      <trkpt lat="47.16556" lon="5.9143">
        <ele>392.6</ele>
        <time>2024-08-05T10:19:35Z</time>
      </trkpt>
      <trkpt lat="47.16555" lon="5.91432">
        <ele>392.8</ele>
        <time>2024-08-05T10:19:36Z</time>
      </trkpt>
      <trkpt lat="47.16553" lon="5.91434">
        <ele>392.6</ele>
        <time>2024-08-05T10:19:37Z</time>
      </trkpt>
      <trkpt lat="47.16552" lon="5.91436">
        <ele>392.8</ele>
        <time>2024-08-05T10:19:38Z</time>
      </trkpt>
      <trkpt lat="47.1655" lon="5.9144">
        <ele>392.6</ele>
        <time>2024-08-05T10:19:39Z</time>
      </trkpt>
      <trkpt lat="47.16548" lon="5.91443">
        <ele>392.8</ele>
        <time>2024-08-05T10:19:40Z</time>
      </trkpt>
      <trkpt lat="47.16546" lon="5.91448">
        <ele>392.6</ele>
        <time>2024-08-05T10:19:41Z</time>
      </trkpt>
      <trkpt lat="47.16542" lon="5.91452">
        <ele>392.6</ele>
        <time>2024-08-05T10:19:42Z</time>
      </trkpt>
      <trkpt lat="47.1654" lon="5.91457">
        <ele>392.8</ele>
        <time>2024-08-05T10:19:43Z</time>
      </trkpt>
      <trkpt lat="47.16537" lon="5.91463">
        <ele>392.8</ele>
        <time>2024-08-05T10:19:44Z</time>
      </trkpt>
      <trkpt lat="47.16533" lon="5.91468">
        <ele>392.6</ele>
        <time>2024-08-05T10:19:45Z</time>
      </trkpt>
      <trkpt lat="47.16529" lon="5.91473">
        <ele>392.6</ele>
        <time>2024-08-05T10:19:46Z</time>
      </trkpt>
      <trkpt lat="47.16528" lon="5.91479">
        <ele>392.6</ele>
        <time>2024-08-05T10:19:47Z</time>
      </trkpt>
      <trkpt lat="47.16527" lon="5.91484">
        <ele>392.4</ele>
        <time>2024-08-05T10:19:48Z</time>
      </trkpt>
      <trkpt lat="47.16525" lon="5.91488">
        <ele>392.4</ele>
        <time>2024-08-05T10:19:49Z</time>
      </trkpt>
      <trkpt lat="47.16525" lon="5.91493">
        <ele>392.2</ele>
        <time>2024-08-05T10:19:50Z</time>
      </trkpt>
      <trkpt lat="47.16525" lon="5.91496">
        <ele>391.8</ele>
        <time>2024-08-05T10:19:51Z</time>
      </trkpt>
      <trkpt lat="47.16524" lon="5.915">
        <ele>391.8</ele>
        <time>2024-08-05T10:19:52Z</time>
      </trkpt>
      <trkpt lat="47.16523" lon="5.91502">
        <ele>391.6</ele>
        <time>2024-08-05T10:19:53Z</time>
      </trkpt>
      <trkpt lat="47.16523" lon="5.91504">
        <ele>391.8</ele>
        <time>2024-08-05T10:19:54Z</time>
      </trkpt>
      <trkpt lat="47.16523" lon="5.91505">
        <ele>391.6</ele>
        <time>2024-08-05T10:19:55Z</time>
      </trkpt>
      <trkpt lat="47.16522" lon="5.91505">
        <ele>391.6</ele>
        <time>2024-08-05T10:19:56Z</time>
      </trkpt>
      <trkpt lat="47.16522" lon="5.91506">
        <ele>391.6</ele>
        <time>2024-08-05T10:19:57Z</time>
      </trkpt>
      <trkpt lat="47.16521" lon="5.91506">
        <ele>391.6</ele>
        <time>2024-08-05T10:19:58Z</time>
      </trkpt>
      <trkpt lat="47.1652" lon="5.91507">
        <ele>391.6</ele>
        <time>2024-08-05T10:19:59Z</time>
      </trkpt>
      <trkpt lat="47.1652" lon="5.91508">
        <ele>391.6</ele>
        <time>2024-08-05T10:20:00Z</time>
      </trkpt>
      <trkpt lat="47.1652" lon="5.91508">
        <ele>391.8</ele>
        <time>2024-08-05T10:20:01Z</time>
      </trkpt>
      <trkpt lat="47.1652" lon="5.9151">
        <ele>392</ele>
        <time>2024-08-05T10:20:02Z</time>
      </trkpt>
      <trkpt lat="47.1652" lon="5.91511">
        <ele>392</ele>
        <time>2024-08-05T10:20:03Z</time>
      </trkpt>
      <trkpt lat="47.16521" lon="5.91513">
        <ele>392.2</ele>
        <time>2024-08-05T10:20:04Z</time>
      </trkpt>
      <trkpt lat="47.16521" lon="5.91515">
        <ele>392.4</ele>
        <time>2024-08-05T10:20:05Z</time>
      </trkpt>
      <trkpt lat="47.16523" lon="5.91517">
        <ele>392.4</ele>
        <time>2024-08-05T10:20:06Z</time>
      </trkpt>
      <trkpt lat="47.16523" lon="5.9152">
        <ele>392.6</ele>
        <time>2024-08-05T10:20:07Z</time>
      </trkpt>
      <trkpt lat="47.1652" lon="5.91524">
        <ele>392.6</ele>
        <time>2024-08-05T10:20:08Z</time>
      </trkpt>
      <trkpt lat="47.16521" lon="5.91526">
        <ele>392.6</ele>
        <time>2024-08-05T10:20:09Z</time>
      </trkpt>
      <trkpt lat="47.16521" lon="5.91528">
        <ele>392.8</ele>
        <time>2024-08-05T10:20:10Z</time>
      </trkpt>
      <trkpt lat="47.16521" lon="5.91531">
        <ele>392.6</ele>
        <time>2024-08-05T10:20:11Z</time>
      </trkpt>
      <trkpt lat="47.16521" lon="5.91535">
        <ele>392.6</ele>
        <time>2024-08-05T10:20:12Z</time>
      </trkpt>
      <trkpt lat="47.1652" lon="5.91539">
        <ele>392.8</ele>
        <time>2024-08-05T10:20:13Z</time>
      </trkpt>
      <trkpt lat="47.16517" lon="5.91546">
        <ele>392.8</ele>
        <time>2024-08-05T10:20:14Z</time>
      </trkpt>
      <trkpt lat="47.16515" lon="5.91552">
        <ele>392.6</ele>
        <time>2024-08-05T10:20:15Z</time>
      </trkpt>
      <trkpt lat="47.16514" lon="5.91558">
        <ele>392.6</ele>
        <time>2024-08-05T10:20:16Z</time>
      </trkpt>
      <trkpt lat="47.16511" lon="5.91564">
        <ele>392.8</ele>
        <time>2024-08-05T10:20:17Z</time>
      </trkpt>
      <trkpt lat="47.16509" lon="5.91571">
        <ele>392.8</ele>
        <time>2024-08-05T10:20:18Z</time>
      </trkpt>
      <trkpt lat="47.16507" lon="5.91578">
        <ele>392.6</ele>
        <time>2024-08-05T10:20:19Z</time>
      </trkpt>
      <trkpt lat="47.16505" lon="5.91585">
        <ele>392.6</ele>
        <time>2024-08-05T10:20:20Z</time>
      </trkpt>
      <trkpt lat="47.16503" lon="5.91592">
        <ele>392.6</ele>
        <time>2024-08-05T10:20:21Z</time>
      </trkpt>
      <trkpt lat="47.165" lon="5.91598">
        <ele>392.4</ele>
        <time>2024-08-05T10:20:22Z</time>
      </trkpt>
      <trkpt lat="47.16497" lon="5.91605">
        <ele>392</ele>
        <time>2024-08-05T10:20:23Z</time>
      </trkpt>
      <trkpt lat="47.16495" lon="5.91611">
        <ele>391.4</ele>
        <time>2024-08-05T10:20:24Z</time>
      </trkpt>
      <trkpt lat="47.16493" lon="5.91616">
        <ele>391</ele>
        <time>2024-08-05T10:20:25Z</time>
      </trkpt>
      <trkpt lat="47.16491" lon="5.91623">
        <ele>390.6</ele>
        <time>2024-08-05T10:20:26Z</time>
      </trkpt>
      <trkpt lat="47.16488" lon="5.91629">
        <ele>390.2</ele>
        <time>2024-08-05T10:20:27Z</time>
      </trkpt>
      <trkpt lat="47.16486" lon="5.91636">
        <ele>390.2</ele>
        <time>2024-08-05T10:20:28Z</time>
      </trkpt>
      <trkpt lat="47.16484" lon="5.91643">
        <ele>389.4</ele>
        <time>2024-08-05T10:20:29Z</time>
      </trkpt>
      <trkpt lat="47.16481" lon="5.91649">
        <ele>388.6</ele>
        <time>2024-08-05T10:20:30Z</time>
      </trkpt>
      <trkpt lat="47.16481" lon="5.91656">
        <ele>388</ele>
        <time>2024-08-05T10:20:31Z</time>
      </trkpt>
      <trkpt lat="47.1648" lon="5.91663">
        <ele>387.6</ele>
        <time>2024-08-05T10:20:32Z</time>
      </trkpt>
      <trkpt lat="47.16479" lon="5.91669">
        <ele>387.2</ele>
        <time>2024-08-05T10:20:33Z</time>
      </trkpt>
      <trkpt lat="47.16478" lon="5.91675">
        <ele>386.8</ele>
        <time>2024-08-05T10:20:34Z</time>
      </trkpt>
      <trkpt lat="47.16477" lon="5.91681">
        <ele>386.6</ele>
        <time>2024-08-05T10:20:35Z</time>
      </trkpt>
      <trkpt lat="47.16475" lon="5.91687">
        <ele>385.8</ele>
        <time>2024-08-05T10:20:36Z</time>
      </trkpt>
      <trkpt lat="47.16474" lon="5.91692">
        <ele>385</ele>
        <time>2024-08-05T10:20:37Z</time>
      </trkpt>
      <trkpt lat="47.16473" lon="5.91699">
        <ele>384.4</ele>
        <time>2024-08-05T10:20:38Z</time>
      </trkpt>
      <trkpt lat="47.16472" lon="5.91705">
        <ele>384</ele>
        <time>2024-08-05T10:20:39Z</time>
      </trkpt>
      <trkpt lat="47.16471" lon="5.91712">
        <ele>383.2</ele>
        <time>2024-08-05T10:20:40Z</time>
      </trkpt>
      <trkpt lat="47.16469" lon="5.91718">
        <ele>382.4</ele>
        <time>2024-08-05T10:20:41Z</time>
      </trkpt>
      <trkpt lat="47.16467" lon="5.91724">
        <ele>382</ele>
        <time>2024-08-05T10:20:42Z</time>
      </trkpt>
      <trkpt lat="47.16466" lon="5.91729">
        <ele>381.2</ele>
        <time>2024-08-05T10:20:43Z</time>
      </trkpt>
      <trkpt lat="47.16464" lon="5.91732">
        <ele>380.6</ele>
        <time>2024-08-05T10:20:44Z</time>
      </trkpt>
      <trkpt lat="47.16464" lon="5.91736">
        <ele>380.4</ele>
        <time>2024-08-05T10:20:45Z</time>
      </trkpt>
      <trkpt lat="47.16464" lon="5.91739">
        <ele>380.2</ele>
        <time>2024-08-05T10:20:46Z</time>
      </trkpt>
      <trkpt lat="47.16465" lon="5.91742">
        <ele>379.6</ele>
        <time>2024-08-05T10:20:47Z</time>
      </trkpt>
      <trkpt lat="47.16465" lon="5.91743">
        <ele>379</ele>
        <time>2024-08-05T10:20:48Z</time>
      </trkpt>
      <trkpt lat="47.16464" lon="5.91744">
        <ele>378.6</ele>
        <time>2024-08-05T10:20:49Z</time>
      </trkpt>
      <trkpt lat="47.16464" lon="5.91744">
        <ele>378.6</ele>
        <time>2024-08-05T10:20:50Z</time>
      </trkpt>
      <trkpt lat="47.16464" lon="5.91745">
        <ele>378.2</ele>
        <time>2024-08-05T10:20:51Z</time>
      </trkpt>
      <trkpt lat="47.16466" lon="5.91748">
        <ele>377.6</ele>
        <time>2024-08-05T10:20:52Z</time>
      </trkpt>
      <trkpt lat="47.16467" lon="5.91749">
        <ele>377.2</ele>
        <time>2024-08-05T10:20:53Z</time>
      </trkpt>
      <trkpt lat="47.16467" lon="5.91751">
        <ele>376.4</ele>
        <time>2024-08-05T10:20:54Z</time>
      </trkpt>
      <trkpt lat="47.16465" lon="5.91753">
        <ele>376.2</ele>
        <time>2024-08-05T10:20:55Z</time>
      </trkpt>
      <trkpt lat="47.16465" lon="5.91755">
        <ele>375.8</ele>
        <time>2024-08-05T10:20:56Z</time>
      </trkpt>
      <trkpt lat="47.16466" lon="5.91759">
        <ele>375.6</ele>
        <time>2024-08-05T10:20:57Z</time>
      </trkpt>
      <trkpt lat="47.16467" lon="5.91762">
        <ele>375.4</ele>
        <time>2024-08-05T10:20:58Z</time>
      </trkpt>
      <trkpt lat="47.16468" lon="5.91766">
        <ele>375.6</ele>
        <time>2024-08-05T10:20:59Z</time>
      </trkpt>
      <trkpt lat="47.16469" lon="5.91772">
        <ele>375.4</ele>
        <time>2024-08-05T10:21:00Z</time>
      </trkpt>
      <trkpt lat="47.16466" lon="5.91779">
        <ele>375.6</ele>
        <time>2024-08-05T10:21:01Z</time>
      </trkpt>
      <trkpt lat="47.16464" lon="5.91786">
        <ele>375.4</ele>
        <time>2024-08-05T10:21:02Z</time>
      </trkpt>
      <trkpt lat="47.16462" lon="5.91793">
        <ele>375.2</ele>
        <time>2024-08-05T10:21:03Z</time>
      </trkpt>
      <trkpt lat="47.16459" lon="5.91802">
        <ele>375</ele>
        <time>2024-08-05T10:21:04Z</time>
      </trkpt>
      <trkpt lat="47.16456" lon="5.9181">
        <ele>374.8</ele>
        <time>2024-08-05T10:21:05Z</time>
      </trkpt>
      <trkpt lat="47.16455" lon="5.91818">
        <ele>374.6</ele>
        <time>2024-08-05T10:21:06Z</time>
      </trkpt>
      <trkpt lat="47.16454" lon="5.91827">
        <ele>374.4</ele>
        <time>2024-08-05T10:21:07Z</time>
      </trkpt>
      <trkpt lat="47.16453" lon="5.91837">
        <ele>374</ele>
        <time>2024-08-05T10:21:08Z</time>
      </trkpt>
      <trkpt lat="47.16452" lon="5.91846">
        <ele>373.6</ele>
        <time>2024-08-05T10:21:09Z</time>
      </trkpt>
      <trkpt lat="47.16453" lon="5.91855">
        <ele>373.2</ele>
        <time>2024-08-05T10:21:10Z</time>
      </trkpt>
      <trkpt lat="47.16451" lon="5.91865">
        <ele>372.4</ele>
        <time>2024-08-05T10:21:11Z</time>
      </trkpt>
      <trkpt lat="47.1645" lon="5.91874">
        <ele>372.4</ele>
        <time>2024-08-05T10:21:12Z</time>
      </trkpt>
      <trkpt lat="47.16449" lon="5.91884">
        <ele>371.6</ele>
        <time>2024-08-05T10:21:13Z</time>
      </trkpt>
      <trkpt lat="47.16449" lon="5.91894">
        <ele>371</ele>
        <time>2024-08-05T10:21:14Z</time>
      </trkpt>
      <trkpt lat="47.16453" lon="5.91905">
        <ele>370.4</ele>
        <time>2024-08-05T10:21:15Z</time>
      </trkpt>
      <trkpt lat="47.16456" lon="5.91916">
        <ele>370</ele>
        <time>2024-08-05T10:21:16Z</time>
      </trkpt>
      <trkpt lat="47.16458" lon="5.91926">
        <ele>369.6</ele>
        <time>2024-08-05T10:21:17Z</time>
      </trkpt>
      <trkpt lat="47.16461" lon="5.91935">
        <ele>368.6</ele>
        <time>2024-08-05T10:21:18Z</time>
      </trkpt>
      <trkpt lat="47.16463" lon="5.91944">
        <ele>368</ele>
        <time>2024-08-05T10:21:19Z</time>
      </trkpt>
      <trkpt lat="47.16466" lon="5.91951">
        <ele>367.6</ele>
        <time>2024-08-05T10:21:20Z</time>
      </trkpt>
      <trkpt lat="47.16468" lon="5.91956">
        <ele>366.8</ele>
        <time>2024-08-05T10:21:21Z</time>
      </trkpt>
      <trkpt lat="47.1647" lon="5.91959">
        <ele>366</ele>
        <time>2024-08-05T10:21:22Z</time>
      </trkpt>
      <trkpt lat="47.16472" lon="5.91962">
        <ele>365</ele>
        <time>2024-08-05T10:21:23Z</time>
      </trkpt>
      <trkpt lat="47.16474" lon="5.91963">
        <ele>364.2</ele>
        <time>2024-08-05T10:21:24Z</time>
      </trkpt>
      <trkpt lat="47.16476" lon="5.91962">
        <ele>363.4</ele>
        <time>2024-08-05T10:21:25Z</time>
      </trkpt>
      <trkpt lat="47.16476" lon="5.9196">
        <ele>362.8</ele>
        <time>2024-08-05T10:21:26Z</time>
      </trkpt>
      <trkpt lat="47.16477" lon="5.91958">
        <ele>362</ele>
        <time>2024-08-05T10:21:27Z</time>
      </trkpt>
      <trkpt lat="47.16477" lon="5.91956">
        <ele>361.2</ele>
        <time>2024-08-05T10:21:28Z</time>
      </trkpt>
      <trkpt lat="47.16476" lon="5.91953">
        <ele>360.8</ele>
        <time>2024-08-05T10:21:29Z</time>
      </trkpt>
      <trkpt lat="47.16475" lon="5.9195">
        <ele>360.2</ele>
        <time>2024-08-05T10:21:30Z</time>
      </trkpt>
      <trkpt lat="47.16474" lon="5.91946">
        <ele>360</ele>
        <time>2024-08-05T10:21:31Z</time>
      </trkpt>
      <trkpt lat="47.16472" lon="5.91941">
        <ele>359.6</ele>
        <time>2024-08-05T10:21:32Z</time>
      </trkpt>
      <trkpt lat="47.16472" lon="5.91935">
        <ele>359.6</ele>
        <time>2024-08-05T10:21:33Z</time>
      </trkpt>
      <trkpt lat="47.1647" lon="5.91929">
        <ele>359.2</ele>
        <time>2024-08-05T10:21:34Z</time>
      </trkpt>
      <trkpt lat="47.1647" lon="5.91921">
        <ele>358.8</ele>
        <time>2024-08-05T10:21:35Z</time>
      </trkpt>
      <trkpt lat="47.1647" lon="5.91913">
        <ele>358.8</ele>
        <time>2024-08-05T10:21:36Z</time>
      </trkpt>
      <trkpt lat="47.16471" lon="5.91904">
        <ele>358.6</ele>
        <time>2024-08-05T10:21:37Z</time>
      </trkpt>
      <trkpt lat="47.16473" lon="5.91895">
        <ele>358.4</ele>
        <time>2024-08-05T10:21:38Z</time>
      </trkpt>
      <trkpt lat="47.16475" lon="5.91884">
        <ele>358</ele>
        <time>2024-08-05T10:21:39Z</time>
      </trkpt>
      <trkpt lat="47.16476" lon="5.91872">
        <ele>357.8</ele>
        <time>2024-08-05T10:21:40Z</time>
      </trkpt>
      <trkpt lat="47.16478" lon="5.91861">
        <ele>357.4</ele>
        <time>2024-08-05T10:21:41Z</time>
      </trkpt>
      <trkpt lat="47.16481" lon="5.91851">
        <ele>357.2</ele>
        <time>2024-08-05T10:21:42Z</time>
      </trkpt>
      <trkpt lat="47.16484" lon="5.91843">
        <ele>356.6</ele>
        <time>2024-08-05T10:21:43Z</time>
      </trkpt>
      <trkpt lat="47.16487" lon="5.91836">
        <ele>356.2</ele>
        <time>2024-08-05T10:21:44Z</time>
      </trkpt>
      <trkpt lat="47.16491" lon="5.91829">
        <ele>356</ele>
        <time>2024-08-05T10:21:45Z</time>
      </trkpt>
      <trkpt lat="47.16494" lon="5.91823">
        <ele>355.2</ele>
        <time>2024-08-05T10:21:46Z</time>
      </trkpt>
      <trkpt lat="47.16499" lon="5.91817">
        <ele>354.6</ele>
        <time>2024-08-05T10:21:47Z</time>
      </trkpt>
      <trkpt lat="47.16504" lon="5.91811">
        <ele>354.4</ele>
        <time>2024-08-05T10:21:48Z</time>
      </trkpt>
      <trkpt lat="47.16509" lon="5.91805">
        <ele>353.4</ele>
        <time>2024-08-05T10:21:49Z</time>
      </trkpt>
      <trkpt lat="47.16513" lon="5.91798">
        <ele>352.4</ele>
        <time>2024-08-05T10:21:50Z</time>
      </trkpt>
      <trkpt lat="47.16518" lon="5.91792">
        <ele>351.6</ele>
        <time>2024-08-05T10:21:51Z</time>
      </trkpt>
      <trkpt lat="47.16522" lon="5.91786">
        <ele>350.6</ele>
        <time>2024-08-05T10:21:52Z</time>
      </trkpt>
      <trkpt lat="47.16526" lon="5.91781">
        <ele>349.6</ele>
        <time>2024-08-05T10:21:53Z</time>
      </trkpt>
      <trkpt lat="47.1653" lon="5.91776">
        <ele>348.6</ele>
        <time>2024-08-05T10:21:54Z</time>
      </trkpt>
      <trkpt lat="47.16533" lon="5.91771">
        <ele>348.6</ele>
        <time>2024-08-05T10:21:55Z</time>
      </trkpt>
      <trkpt lat="47.16535" lon="5.91766">
        <ele>348.2</ele>
        <time>2024-08-05T10:21:56Z</time>
      </trkpt>
      <trkpt lat="47.16537" lon="5.91762">
        <ele>347.8</ele>
        <time>2024-08-05T10:21:57Z</time>
      </trkpt>
      <trkpt lat="47.16539" lon="5.91759">
        <ele>347</ele>
        <time>2024-08-05T10:21:58Z</time>
      </trkpt>
      <trkpt lat="47.16541" lon="5.91755">
        <ele>346.6</ele>
        <time>2024-08-05T10:21:59Z</time>
      </trkpt>
      <trkpt lat="47.16543" lon="5.91751">
        <ele>346</ele>
        <time>2024-08-05T10:22:00Z</time>
      </trkpt>
      <trkpt lat="47.16544" lon="5.91745">
        <ele>345.2</ele>
        <time>2024-08-05T10:22:01Z</time>
      </trkpt>
      <trkpt lat="47.16546" lon="5.91739">
        <ele>344.6</ele>
        <time>2024-08-05T10:22:02Z</time>
      </trkpt>
      <trkpt lat="47.16548" lon="5.91733">
        <ele>344.2</ele>
        <time>2024-08-05T10:22:03Z</time>
      </trkpt>
      <trkpt lat="47.16549" lon="5.91726">
        <ele>343.6</ele>
        <time>2024-08-05T10:22:04Z</time>
      </trkpt>
      <trkpt lat="47.1655" lon="5.91721">
        <ele>343.2</ele>
        <time>2024-08-05T10:22:05Z</time>
      </trkpt>
      <trkpt lat="47.16553" lon="5.91716">
        <ele>342.8</ele>
        <time>2024-08-05T10:22:06Z</time>
      </trkpt>
      <trkpt lat="47.16556" lon="5.91713">
        <ele>342.6</ele>
        <time>2024-08-05T10:22:07Z</time>
      </trkpt>
      <trkpt lat="47.16558" lon="5.91712">
        <ele>342.2</ele>
        <time>2024-08-05T10:22:08Z</time>
      </trkpt>
      <trkpt lat="47.16559" lon="5.91713">
        <ele>341.8</ele>
        <time>2024-08-05T10:22:09Z</time>
      </trkpt>
      <trkpt lat="47.1656" lon="5.91715">
        <ele>341.4</ele>
        <time>2024-08-05T10:22:10Z</time>
      </trkpt>
      <trkpt lat="47.1656" lon="5.91717">
        <ele>340.8</ele>
        <time>2024-08-05T10:22:11Z</time>
      </trkpt>
      <trkpt lat="47.1656" lon="5.91722">
        <ele>340.2</ele>
        <time>2024-08-05T10:22:12Z</time>
      </trkpt>
      <trkpt lat="47.1656" lon="5.91727">
        <ele>340</ele>
        <time>2024-08-05T10:22:13Z</time>
      </trkpt>
      <trkpt lat="47.16559" lon="5.91732">
        <ele>339.4</ele>
        <time>2024-08-05T10:22:14Z</time>
      </trkpt>
      <trkpt lat="47.16558" lon="5.91738">
        <ele>338.6</ele>
        <time>2024-08-05T10:22:15Z</time>
      </trkpt>
      <trkpt lat="47.16558" lon="5.91743">
        <ele>338.2</ele>
        <time>2024-08-05T10:22:16Z</time>
      </trkpt>
      <trkpt lat="47.16558" lon="5.91748">
        <ele>338.2</ele>
        <time>2024-08-05T10:22:17Z</time>
      </trkpt>
      <trkpt lat="47.16557" lon="5.91754">
        <ele>338</ele>
        <time>2024-08-05T10:22:18Z</time>
      </trkpt>
      <trkpt lat="47.16556" lon="5.91759">
        <ele>337.6</ele>
        <time>2024-08-05T10:22:19Z</time>
      </trkpt>
      <trkpt lat="47.16555" lon="5.91765">
        <ele>337.4</ele>
        <time>2024-08-05T10:22:20Z</time>
      </trkpt>
      <trkpt lat="47.16553" lon="5.91771">
        <ele>337</ele>
        <time>2024-08-05T10:22:21Z</time>
      </trkpt>
      <trkpt lat="47.1655" lon="5.91778">
        <ele>336.8</ele>
        <time>2024-08-05T10:22:22Z</time>
      </trkpt>
      <trkpt lat="47.16548" lon="5.91785">
        <ele>336.4</ele>
        <time>2024-08-05T10:22:23Z</time>
      </trkpt>
      <trkpt lat="47.16546" lon="5.91793">
        <ele>336.2</ele>
        <time>2024-08-05T10:22:24Z</time>
      </trkpt>
      <trkpt lat="47.16545" lon="5.918">
        <ele>335.8</ele>
        <time>2024-08-05T10:22:25Z</time>
      </trkpt>
      <trkpt lat="47.16543" lon="5.91807">
        <ele>335.6</ele>
        <time>2024-08-05T10:22:26Z</time>
      </trkpt>
      <trkpt lat="47.16542" lon="5.91814">
        <ele>334.8</ele>
        <time>2024-08-05T10:22:27Z</time>
      </trkpt>
      <trkpt lat="47.1654" lon="5.91821">
        <ele>334.6</ele>
        <time>2024-08-05T10:22:28Z</time>
      </trkpt>
      <trkpt lat="47.16537" lon="5.91829">
        <ele>333.6</ele>
        <time>2024-08-05T10:22:29Z</time>
      </trkpt>
      <trkpt lat="47.16535" lon="5.91836">
        <ele>333</ele>
        <time>2024-08-05T10:22:30Z</time>
      </trkpt>
      <trkpt lat="47.16533" lon="5.91844">
        <ele>332.6</ele>
        <time>2024-08-05T10:22:31Z</time>
      </trkpt>
      <trkpt lat="47.16533" lon="5.9185">
        <ele>331.8</ele>
        <time>2024-08-05T10:22:32Z</time>
      </trkpt>
      <trkpt lat="47.16533" lon="5.91855">
        <ele>331.2</ele>
        <time>2024-08-05T10:22:33Z</time>
      </trkpt>
      <trkpt lat="47.16534" lon="5.91859">
        <ele>330.4</ele>
        <time>2024-08-05T10:22:34Z</time>
      </trkpt>
      <trkpt lat="47.16536" lon="5.91863">
        <ele>329.8</ele>
        <time>2024-08-05T10:22:35Z</time>
      </trkpt>
      <trkpt lat="47.16535" lon="5.91868">
        <ele>328.8</ele>
        <time>2024-08-05T10:22:36Z</time>
      </trkpt>
      <trkpt lat="47.16533" lon="5.91874">
        <ele>327.8</ele>
        <time>2024-08-05T10:22:37Z</time>
      </trkpt>
      <trkpt lat="47.16532" lon="5.91881">
        <ele>327.4</ele>
        <time>2024-08-05T10:22:38Z</time>
      </trkpt>
      <trkpt lat="47.16529" lon="5.91889">
        <ele>327.4</ele>
        <time>2024-08-05T10:22:39Z</time>
      </trkpt>
      <trkpt lat="47.16525" lon="5.91898">
        <ele>326.6</ele>
        <time>2024-08-05T10:22:40Z</time>
      </trkpt>
      <trkpt lat="47.16525" lon="5.91907">
        <ele>326</ele>
        <time>2024-08-05T10:22:41Z</time>
      </trkpt>
      <trkpt lat="47.16522" lon="5.91915">
        <ele>325.4</ele>
        <time>2024-08-05T10:22:42Z</time>
      </trkpt>
      <trkpt lat="47.16519" lon="5.91925">
        <ele>325</ele>
        <time>2024-08-05T10:22:43Z</time>
      </trkpt>
      <trkpt lat="47.16518" lon="5.91934">
        <ele>324.6</ele>
        <time>2024-08-05T10:22:44Z</time>
      </trkpt>
      <trkpt lat="47.16516" lon="5.91943">
        <ele>324.2</ele>
        <time>2024-08-05T10:22:45Z</time>
      </trkpt>
      <trkpt lat="47.16516" lon="5.91952">
        <ele>324</ele>
        <time>2024-08-05T10:22:46Z</time>
      </trkpt>
      <trkpt lat="47.16517" lon="5.91962">
        <ele>323.6</ele>
        <time>2024-08-05T10:22:47Z</time>
      </trkpt>
      <trkpt lat="47.16518" lon="5.91972">
        <ele>323.4</ele>
        <time>2024-08-05T10:22:48Z</time>
      </trkpt>
      <trkpt lat="47.16518" lon="5.91981">
        <ele>322.8</ele>
        <time>2024-08-05T10:22:49Z</time>
      </trkpt>
      <trkpt lat="47.1652" lon="5.9199">
        <ele>322</ele>
        <time>2024-08-05T10:22:50Z</time>
      </trkpt>
      <trkpt lat="47.1652" lon="5.91998">
        <ele>321.4</ele>
        <time>2024-08-05T10:22:51Z</time>
      </trkpt>
      <trkpt lat="47.1652" lon="5.92007">
        <ele>320.6</ele>
        <time>2024-08-05T10:22:52Z</time>
      </trkpt>
      <trkpt lat="47.1652" lon="5.92014">
        <ele>320</ele>
        <time>2024-08-05T10:22:53Z</time>
      </trkpt>
      <trkpt lat="47.16521" lon="5.92021">
        <ele>319.4</ele>
        <time>2024-08-05T10:22:54Z</time>
      </trkpt>
      <trkpt lat="47.16523" lon="5.92027">
        <ele>318.6</ele>
        <time>2024-08-05T10:22:55Z</time>
      </trkpt>
      <trkpt lat="47.16525" lon="5.9203">
        <ele>318.2</ele>
        <time>2024-08-05T10:22:56Z</time>
      </trkpt>
      <trkpt lat="47.16527" lon="5.92031">
        <ele>317.8</ele>
        <time>2024-08-05T10:22:57Z</time>
      </trkpt>
      <trkpt lat="47.1653" lon="5.9203">
        <ele>317</ele>
        <time>2024-08-05T10:22:58Z</time>
      </trkpt>
      <trkpt lat="47.16533" lon="5.92028">
        <ele>316.4</ele>
        <time>2024-08-05T10:22:59Z</time>
      </trkpt>
      <trkpt lat="47.16535" lon="5.92024">
        <ele>315.8</ele>
        <time>2024-08-05T10:23:00Z</time>
      </trkpt>
      <trkpt lat="47.16537" lon="5.92019">
        <ele>315.8</ele>
        <time>2024-08-05T10:23:01Z</time>
      </trkpt>
      <trkpt lat="47.16538" lon="5.92014">
        <ele>315.2</ele>
        <time>2024-08-05T10:23:02Z</time>
      </trkpt>
      <trkpt lat="47.1654" lon="5.92008">
        <ele>315</ele>
        <time>2024-08-05T10:23:03Z</time>
      </trkpt>
      <trkpt lat="47.16541" lon="5.92001">
        <ele>314.6</ele>
        <time>2024-08-05T10:23:04Z</time>
      </trkpt>
      <trkpt lat="47.16541" lon="5.91994">
        <ele>314</ele>
        <time>2024-08-05T10:23:05Z</time>
      </trkpt>
      <trkpt lat="47.16544" lon="5.91987">
        <ele>313.8</ele>
        <time>2024-08-05T10:23:06Z</time>
      </trkpt>
      <trkpt lat="47.16545" lon="5.91979">
        <ele>313.4</ele>
        <time>2024-08-05T10:23:07Z</time>
      </trkpt>
      <trkpt lat="47.16547" lon="5.91971">
        <ele>313.4</ele>
        <time>2024-08-05T10:23:08Z</time>
      </trkpt>
      <trkpt lat="47.16549" lon="5.91964">
        <ele>313</ele>
        <time>2024-08-05T10:23:09Z</time>
      </trkpt>
      <trkpt lat="47.16551" lon="5.91957">
        <ele>312.8</ele>
        <time>2024-08-05T10:23:10Z</time>
      </trkpt>
      <trkpt lat="47.16554" lon="5.9195">
        <ele>312.4</ele>
        <time>2024-08-05T10:23:11Z</time>
      </trkpt>
      <trkpt lat="47.16556" lon="5.91943">
        <ele>312</ele>
        <time>2024-08-05T10:23:12Z</time>
      </trkpt>
      <trkpt lat="47.16559" lon="5.91936">
        <ele>311.6</ele>
        <time>2024-08-05T10:23:13Z</time>
      </trkpt>
      <trkpt lat="47.16562" lon="5.91928">
        <ele>310.8</ele>
        <time>2024-08-05T10:23:14Z</time>
      </trkpt>
      <trkpt lat="47.16565" lon="5.91921">
        <ele>310.2</ele>
        <time>2024-08-05T10:23:15Z</time>
      </trkpt>
      <trkpt lat="47.16567" lon="5.91914">
        <ele>309.8</ele>
        <time>2024-08-05T10:23:16Z</time>
      </trkpt>
      <trkpt lat="47.16571" lon="5.91907">
        <ele>309.4</ele>
        <time>2024-08-05T10:23:17Z</time>
      </trkpt>
      <trkpt lat="47.16574" lon="5.91899">
        <ele>308.4</ele>
        <time>2024-08-05T10:23:18Z</time>
      </trkpt>
      <trkpt lat="47.16577" lon="5.91893">
        <ele>307.6</ele>
        <time>2024-08-05T10:23:19Z</time>
      </trkpt>
      <trkpt lat="47.16582" lon="5.91886">
        <ele>306.8</ele>
        <time>2024-08-05T10:23:20Z</time>
      </trkpt>
      <trkpt lat="47.16585" lon="5.91879">
        <ele>306.2</ele>
        <time>2024-08-05T10:23:21Z</time>
      </trkpt>
      <trkpt lat="47.1659" lon="5.91873">
        <ele>306.2</ele>
        <time>2024-08-05T10:23:22Z</time>
      </trkpt>
      <trkpt lat="47.16595" lon="5.91868">
        <ele>305.4</ele>
        <time>2024-08-05T10:23:23Z</time>
      </trkpt>
      <trkpt lat="47.166" lon="5.91863">
        <ele>305</ele>
        <time>2024-08-05T10:23:24Z</time>
      </trkpt>
      <trkpt lat="47.16605" lon="5.91859">
        <ele>304.4</ele>
        <time>2024-08-05T10:23:25Z</time>
      </trkpt>
      <trkpt lat="47.16609" lon="5.91856">
        <ele>303.6</ele>
        <time>2024-08-05T10:23:26Z</time>
      </trkpt>
      <trkpt lat="47.16613" lon="5.91853">
        <ele>303</ele>
        <time>2024-08-05T10:23:27Z</time>
      </trkpt>
      <trkpt lat="47.16618" lon="5.91852">
        <ele>302.6</ele>
        <time>2024-08-05T10:23:28Z</time>
      </trkpt>
      <trkpt lat="47.16622" lon="5.91851">
        <ele>301.8</ele>
        <time>2024-08-05T10:23:29Z</time>
      </trkpt>
      <trkpt lat="47.16626" lon="5.91851">
        <ele>301</ele>
        <time>2024-08-05T10:23:30Z</time>
      </trkpt>
      <trkpt lat="47.16629" lon="5.91851">
        <ele>300</ele>
        <time>2024-08-05T10:23:31Z</time>
      </trkpt>
      <trkpt lat="47.16633" lon="5.91853">
        <ele>299</ele>
        <time>2024-08-05T10:23:32Z</time>
      </trkpt>
      <trkpt lat="47.16637" lon="5.91856">
        <ele>298.4</ele>
        <time>2024-08-05T10:23:33Z</time>
      </trkpt>
      <trkpt lat="47.16641" lon="5.91859">
        <ele>297.8</ele>
        <time>2024-08-05T10:23:34Z</time>
      </trkpt>
      <trkpt lat="47.16646" lon="5.91863">
        <ele>297.2</ele>
        <time>2024-08-05T10:23:35Z</time>
      </trkpt>
      <trkpt lat="47.16651" lon="5.91867">
        <ele>296.8</ele>
        <time>2024-08-05T10:23:36Z</time>
      </trkpt>
      <trkpt lat="47.16657" lon="5.91872">
        <ele>296</ele>
        <time>2024-08-05T10:23:37Z</time>
      </trkpt>
      <trkpt lat="47.16664" lon="5.91876">
        <ele>295.2</ele>
        <time>2024-08-05T10:23:38Z</time>
      </trkpt>
      <trkpt lat="47.16669" lon="5.91879">
        <ele>294.8</ele>
        <time>2024-08-05T10:23:39Z</time>
      </trkpt>
      <trkpt lat="47.16673" lon="5.91881">
        <ele>294.6</ele>
        <time>2024-08-05T10:23:40Z</time>
      </trkpt>
      <trkpt lat="47.16679" lon="5.91883">
        <ele>294.4</ele>
        <time>2024-08-05T10:23:41Z</time>
      </trkpt>
      <trkpt lat="47.16686" lon="5.91883">
        <ele>293.2</ele>
        <time>2024-08-05T10:23:42Z</time>
      </trkpt>
      <trkpt lat="47.16691" lon="5.91882">
        <ele>292.8</ele>
        <time>2024-08-05T10:23:43Z</time>
      </trkpt>
      <trkpt lat="47.16697" lon="5.9188">
        <ele>292.8</ele>
        <time>2024-08-05T10:23:44Z</time>
      </trkpt>
      <trkpt lat="47.16704" lon="5.91876">
        <ele>292.4</ele>
        <time>2024-08-05T10:23:45Z</time>
      </trkpt>
      <trkpt lat="47.16712" lon="5.91871">
        <ele>292.2</ele>
        <time>2024-08-05T10:23:46Z</time>
      </trkpt>
      <trkpt lat="47.16717" lon="5.91864">
        <ele>291.8</ele>
        <time>2024-08-05T10:23:47Z</time>
      </trkpt>
      <trkpt lat="47.16719" lon="5.91857">
        <ele>291.8</ele>
        <time>2024-08-05T10:23:48Z</time>
      </trkpt>
      <trkpt lat="47.16723" lon="5.9185">
        <ele>291.6</ele>
        <time>2024-08-05T10:23:49Z</time>
      </trkpt>
      <trkpt lat="47.16726" lon="5.91842">
        <ele>291.6</ele>
        <time>2024-08-05T10:23:50Z</time>
      </trkpt>
      <trkpt lat="47.16728" lon="5.91833">
        <ele>291</ele>
        <time>2024-08-05T10:23:51Z</time>
      </trkpt>
      <trkpt lat="47.16727" lon="5.91823">
        <ele>291.2</ele>
        <time>2024-08-05T10:23:52Z</time>
      </trkpt>
      <trkpt lat="47.16727" lon="5.91813">
        <ele>290.8</ele>
        <time>2024-08-05T10:23:53Z</time>
      </trkpt>
      <trkpt lat="47.16727" lon="5.91802">
        <ele>290.4</ele>
        <time>2024-08-05T10:23:54Z</time>
      </trkpt>
      <trkpt lat="47.16726" lon="5.91792">
        <ele>290.2</ele>
        <time>2024-08-05T10:23:55Z</time>
      </trkpt>
      <trkpt lat="47.16726" lon="5.91781">
        <ele>289.8</ele>
        <time>2024-08-05T10:23:56Z</time>
      </trkpt>
      <trkpt lat="47.16724" lon="5.91771">
        <ele>289.4</ele>
        <time>2024-08-05T10:23:57Z</time>
      </trkpt>
      <trkpt lat="47.16722" lon="5.91761">
        <ele>288.6</ele>
        <time>2024-08-05T10:23:58Z</time>
      </trkpt>
      <trkpt lat="47.1672" lon="5.91751">
        <ele>288.2</ele>
        <time>2024-08-05T10:23:59Z</time>
      </trkpt>
      <trkpt lat="47.16718" lon="5.91742">
        <ele>287.6</ele>
        <time>2024-08-05T10:24:00Z</time>
      </trkpt>
      <trkpt lat="47.16717" lon="5.91732">
        <ele>287.2</ele>
        <time>2024-08-05T10:24:01Z</time>
      </trkpt>
      <trkpt lat="47.16716" lon="5.91721">
        <ele>286.6</ele>
        <time>2024-08-05T10:24:02Z</time>
      </trkpt>
      <trkpt lat="47.16715" lon="5.91712">
        <ele>285.8</ele>
        <time>2024-08-05T10:24:03Z</time>
      </trkpt>
      <trkpt lat="47.16714" lon="5.91702">
        <ele>285.2</ele>
        <time>2024-08-05T10:24:04Z</time>
      </trkpt>
      <trkpt lat="47.16714" lon="5.91692">
        <ele>284.6</ele>
        <time>2024-08-05T10:24:05Z</time>
      </trkpt>
      <trkpt lat="47.16713" lon="5.91682">
        <ele>284.6</ele>
        <time>2024-08-05T10:24:06Z</time>
      </trkpt>
      <trkpt lat="47.16712" lon="5.91673">
        <ele>284</ele>
        <time>2024-08-05T10:24:07Z</time>
      </trkpt>
      <trkpt lat="47.16712" lon="5.91664">
        <ele>282.8</ele>
        <time>2024-08-05T10:24:08Z</time>
      </trkpt>
      <trkpt lat="47.16711" lon="5.91655">
        <ele>281.8</ele>
        <time>2024-08-05T10:24:09Z</time>
      </trkpt>
      <trkpt lat="47.16709" lon="5.91647">
        <ele>281.2</ele>
        <time>2024-08-05T10:24:10Z</time>
      </trkpt>
      <trkpt lat="47.16709" lon="5.91638">
        <ele>280.2</ele>
        <time>2024-08-05T10:24:11Z</time>
      </trkpt>
      <trkpt lat="47.1671" lon="5.9163">
        <ele>279.4</ele>
        <time>2024-08-05T10:24:12Z</time>
      </trkpt>
      <trkpt lat="47.16712" lon="5.91621">
        <ele>278.8</ele>
        <time>2024-08-05T10:24:13Z</time>
      </trkpt>
      <trkpt lat="47.16718" lon="5.91611">
        <ele>278</ele>
        <time>2024-08-05T10:24:14Z</time>
      </trkpt>
      <trkpt lat="47.16721" lon="5.91602">
        <ele>277.2</ele>
        <time>2024-08-05T10:24:15Z</time>
      </trkpt>
      <trkpt lat="47.16725" lon="5.91593">
        <ele>276.6</ele>
        <time>2024-08-05T10:24:16Z</time>
      </trkpt>
      <trkpt lat="47.16729" lon="5.91584">
        <ele>275.8</ele>
        <time>2024-08-05T10:24:17Z</time>
      </trkpt>
      <trkpt lat="47.16733" lon="5.91576">
        <ele>275.2</ele>
        <time>2024-08-05T10:24:18Z</time>
      </trkpt>
      <trkpt lat="47.16737" lon="5.91568">
        <ele>274.6</ele>
        <time>2024-08-05T10:24:19Z</time>
      </trkpt>
      <trkpt lat="47.16742" lon="5.9156">
        <ele>273.8</ele>
        <time>2024-08-05T10:24:20Z</time>
      </trkpt>
      <trkpt lat="47.16747" lon="5.91552">
        <ele>273.4</ele>
        <time>2024-08-05T10:24:21Z</time>
      </trkpt>
      <trkpt lat="47.16751" lon="5.91544">
        <ele>272.6</ele>
        <time>2024-08-05T10:24:22Z</time>
      </trkpt>
      <trkpt lat="47.16757" lon="5.91536">
        <ele>272</ele>
        <time>2024-08-05T10:24:23Z</time>
      </trkpt>
      <trkpt lat="47.16761" lon="5.91528">
        <ele>271.6</ele>
        <time>2024-08-05T10:24:24Z</time>
      </trkpt>
      <trkpt lat="47.16763" lon="5.91521">
        <ele>270.8</ele>
        <time>2024-08-05T10:24:25Z</time>
      </trkpt>
      <trkpt lat="47.16768" lon="5.91514">
        <ele>270</ele>
        <time>2024-08-05T10:24:26Z</time>
      </trkpt>
      <trkpt lat="47.16774" lon="5.91507">
        <ele>270</ele>
        <time>2024-08-05T10:24:27Z</time>
      </trkpt>
      <trkpt lat="47.16781" lon="5.915">
        <ele>269</ele>
        <time>2024-08-05T10:24:28Z</time>
      </trkpt>
      <trkpt lat="47.16788" lon="5.91494">
        <ele>267.8</ele>
        <time>2024-08-05T10:24:29Z</time>
      </trkpt>
      <trkpt lat="47.16792" lon="5.91489">
        <ele>267</ele>
        <time>2024-08-05T10:24:30Z</time>
      </trkpt>
      <trkpt lat="47.16798" lon="5.91483">
        <ele>266.2</ele>
        <time>2024-08-05T10:24:31Z</time>
      </trkpt>
      <trkpt lat="47.16804" lon="5.91479">
        <ele>265.8</ele>
        <time>2024-08-05T10:24:32Z</time>
      </trkpt>
      <trkpt lat="47.16808" lon="5.91474">
        <ele>265.2</ele>
        <time>2024-08-05T10:24:33Z</time>
      </trkpt>
      <trkpt lat="47.16812" lon="5.9147">
        <ele>264.4</ele>
        <time>2024-08-05T10:24:34Z</time>
      </trkpt>
      <trkpt lat="47.16817" lon="5.91465">
        <ele>263.8</ele>
        <time>2024-08-05T10:24:35Z</time>
      </trkpt>
      <trkpt lat="47.16822" lon="5.91461">
        <ele>263.2</ele>
        <time>2024-08-05T10:24:36Z</time>
      </trkpt>
      <trkpt lat="47.16827" lon="5.91456">
        <ele>262.4</ele>
        <time>2024-08-05T10:24:37Z</time>
      </trkpt>
      <trkpt lat="47.16832" lon="5.91451">
        <ele>261.6</ele>
        <time>2024-08-05T10:24:38Z</time>
      </trkpt>
      <trkpt lat="47.16833" lon="5.91447">
        <ele>260.8</ele>
        <time>2024-08-05T10:24:39Z</time>
      </trkpt>
      <trkpt lat="47.16837" lon="5.91441">
        <ele>260</ele>
        <time>2024-08-05T10:24:40Z</time>
      </trkpt>
      <trkpt lat="47.16839" lon="5.91435">
        <ele>259.6</ele>
        <time>2024-08-05T10:24:41Z</time>
      </trkpt>
      <trkpt lat="47.16842" lon="5.91427">
        <ele>258.6</ele>
        <time>2024-08-05T10:24:42Z</time>
      </trkpt>
      <trkpt lat="47.16844" lon="5.91419">
        <ele>258.2</ele>
        <time>2024-08-05T10:24:43Z</time>
      </trkpt>
      <trkpt lat="47.16848" lon="5.9141">
        <ele>257.4</ele>
        <time>2024-08-05T10:24:44Z</time>
      </trkpt>
      <trkpt lat="47.16851" lon="5.91401">
        <ele>256.6</ele>
        <time>2024-08-05T10:24:45Z</time>
      </trkpt>
      <trkpt lat="47.16853" lon="5.91392">
        <ele>255.8</ele>
        <time>2024-08-05T10:24:46Z</time>
      </trkpt>
      <trkpt lat="47.16857" lon="5.91383">
        <ele>255.6</ele>
        <time>2024-08-05T10:24:47Z</time>
      </trkpt>
      <trkpt lat="47.16862" lon="5.91376">
        <ele>254.8</ele>
        <time>2024-08-05T10:24:48Z</time>
      </trkpt>
      <trkpt lat="47.16867" lon="5.91369">
        <ele>254.8</ele>
        <time>2024-08-05T10:24:49Z</time>
      </trkpt>
      <trkpt lat="47.16873" lon="5.91363">
        <ele>254</ele>
        <time>2024-08-05T10:24:50Z</time>
      </trkpt>
      <trkpt lat="47.16877" lon="5.91357">
        <ele>253.6</ele>
        <time>2024-08-05T10:24:51Z</time>
      </trkpt>
      <trkpt lat="47.16883" lon="5.91351">
        <ele>252.6</ele>
        <time>2024-08-05T10:24:52Z</time>
      </trkpt>
      <trkpt lat="47.16888" lon="5.91347">
        <ele>252.2</ele>
        <time>2024-08-05T10:24:53Z</time>
      </trkpt>
      <trkpt lat="47.16893" lon="5.91343">
        <ele>251.2</ele>
        <time>2024-08-05T10:24:54Z</time>
      </trkpt>
      <trkpt lat="47.16899" lon="5.9134">
        <ele>250.8</ele>
        <time>2024-08-05T10:24:55Z</time>
      </trkpt>
      <trkpt lat="47.16904" lon="5.91338">
        <ele>250</ele>
        <time>2024-08-05T10:24:56Z</time>
      </trkpt>
      <trkpt lat="47.1691" lon="5.91337">
        <ele>249.4</ele>
        <time>2024-08-05T10:24:57Z</time>
      </trkpt>
      <trkpt lat="47.16915" lon="5.91336">
        <ele>248.8</ele>
        <time>2024-08-05T10:24:58Z</time>
      </trkpt>
      <trkpt lat="47.16922" lon="5.91335">
        <ele>248.4</ele>
        <time>2024-08-05T10:24:59Z</time>
      </trkpt>
      <trkpt lat="47.16928" lon="5.91335">
        <ele>247.6</ele>
        <time>2024-08-05T10:25:00Z</time>
      </trkpt>
      <trkpt lat="47.16935" lon="5.91337">
        <ele>246.6</ele>
        <time>2024-08-05T10:25:01Z</time>
      </trkpt>
      <trkpt lat="47.16941" lon="5.91338">
        <ele>245.8</ele>
        <time>2024-08-05T10:25:02Z</time>
      </trkpt>
      <trkpt lat="47.16945" lon="5.91339">
        <ele>245</ele>
        <time>2024-08-05T10:25:03Z</time>
      </trkpt>
      <trkpt lat="47.16949" lon="5.91341">
        <ele>244</ele>
        <time>2024-08-05T10:25:04Z</time>
      </trkpt>
      <trkpt lat="47.16953" lon="5.91342">
        <ele>243.4</ele>
        <time>2024-08-05T10:25:05Z</time>
      </trkpt>
      <trkpt lat="47.16955" lon="5.91344">
        <ele>242.4</ele>
        <time>2024-08-05T10:25:06Z</time>
      </trkpt>
      <trkpt lat="47.16957" lon="5.91346">
        <ele>241.6</ele>
        <time>2024-08-05T10:25:07Z</time>
      </trkpt>
      <trkpt lat="47.16958" lon="5.91349">
        <ele>240.8</ele>
        <time>2024-08-05T10:25:08Z</time>
      </trkpt>
      <trkpt lat="47.16958" lon="5.91352">
        <ele>240.4</ele>
        <time>2024-08-05T10:25:09Z</time>
      </trkpt>
      <trkpt lat="47.16959" lon="5.91355">
        <ele>240.2</ele>
        <time>2024-08-05T10:25:10Z</time>
      </trkpt>
      <trkpt lat="47.16957" lon="5.91358">
        <ele>240.2</ele>
        <time>2024-08-05T10:25:11Z</time>
      </trkpt>
      <trkpt lat="47.16957" lon="5.9136">
        <ele>240</ele>
        <time>2024-08-05T10:25:12Z</time>
      </trkpt>
      <trkpt lat="47.16956" lon="5.91364">
        <ele>239.8</ele>
        <time>2024-08-05T10:25:13Z</time>
      </trkpt>
      <trkpt lat="47.16956" lon="5.91366">
        <ele>239.8</ele>
        <time>2024-08-05T10:25:14Z</time>
      </trkpt>
      <trkpt lat="47.16956" lon="5.91369">
        <ele>239.8</ele>
        <time>2024-08-05T10:25:15Z</time>
      </trkpt>
      <trkpt lat="47.16956" lon="5.91372">
        <ele>239.8</ele>
        <time>2024-08-05T10:25:16Z</time>
      </trkpt>
      <trkpt lat="47.16956" lon="5.91376">
        <ele>239.8</ele>
        <time>2024-08-05T10:25:17Z</time>
      </trkpt>
      <trkpt lat="47.16955" lon="5.9138">
        <ele>239.6</ele>
        <time>2024-08-05T10:25:18Z</time>
      </trkpt>
      <trkpt lat="47.16955" lon="5.91385">
        <ele>239.6</ele>
        <time>2024-08-05T10:25:19Z</time>
      </trkpt>
      <trkpt lat="47.16955" lon="5.91389">
        <ele>239.6</ele>
        <time>2024-08-05T10:25:20Z</time>
      </trkpt>
      <trkpt lat="47.16954" lon="5.91393">
        <ele>239.6</ele>
        <time>2024-08-05T10:25:21Z</time>
      </trkpt>
      <trkpt lat="47.16954" lon="5.91398">
        <ele>239.6</ele>
        <time>2024-08-05T10:25:22Z</time>
      </trkpt>
      <trkpt lat="47.16953" lon="5.91402">
        <ele>239.6</ele>
        <time>2024-08-05T10:25:23Z</time>
      </trkpt>
      <trkpt lat="47.16953" lon="5.91407">
        <ele>239.4</ele>
        <time>2024-08-05T10:25:24Z</time>
      </trkpt>
      <trkpt lat="47.16954" lon="5.91412">
        <ele>239.6</ele>
        <time>2024-08-05T10:25:25Z</time>
      </trkpt>
      <trkpt lat="47.16955" lon="5.91417">
        <ele>239.6</ele>
        <time>2024-08-05T10:25:26Z</time>
      </trkpt>
      <trkpt lat="47.16955" lon="5.91421">
        <ele>239.6</ele>
        <time>2024-08-05T10:25:27Z</time>
      </trkpt>
      <trkpt lat="47.16957" lon="5.91426">
        <ele>239.6</ele>
        <time>2024-08-05T10:25:28Z</time>
      </trkpt>
      <trkpt lat="47.16957" lon="5.91431">
        <ele>239.6</ele>
        <time>2024-08-05T10:25:29Z</time>
      </trkpt>
      <trkpt lat="47.16959" lon="5.91435">
        <ele>239.6</ele>
        <time>2024-08-05T10:25:30Z</time>
      </trkpt>
      <trkpt lat="47.1696" lon="5.9144">
        <ele>239.6</ele>
        <time>2024-08-05T10:25:31Z</time>
      </trkpt>
      <trkpt lat="47.16962" lon="5.91445">
        <ele>239.6</ele>
        <time>2024-08-05T10:25:32Z</time>
      </trkpt>
      <trkpt lat="47.16964" lon="5.9145">
        <ele>239.6</ele>
        <time>2024-08-05T10:25:33Z</time>
      </trkpt>
      <trkpt lat="47.16966" lon="5.91454">
        <ele>239.6</ele>
        <time>2024-08-05T10:25:34Z</time>
      </trkpt>
      <trkpt lat="47.16968" lon="5.91459">
        <ele>239.6</ele>
        <time>2024-08-05T10:25:35Z</time>
      </trkpt>
      <trkpt lat="47.1697" lon="5.91464">
        <ele>239.6</ele>
        <time>2024-08-05T10:25:36Z</time>
      </trkpt>
      <trkpt lat="47.16972" lon="5.91468">
        <ele>239.8</ele>
        <time>2024-08-05T10:25:37Z</time>
      </trkpt>
      <trkpt lat="47.16974" lon="5.91472">
        <ele>239.8</ele>
        <time>2024-08-05T10:25:38Z</time>
      </trkpt>
      <trkpt lat="47.16976" lon="5.91477">
        <ele>239.6</ele>
        <time>2024-08-05T10:25:39Z</time>
      </trkpt>
      <trkpt lat="47.16978" lon="5.91481">
        <ele>239.8</ele>
        <time>2024-08-05T10:25:40Z</time>
      </trkpt>
      <trkpt lat="47.1698" lon="5.91485">
        <ele>239.6</ele>
        <time>2024-08-05T10:25:41Z</time>
      </trkpt>
      <trkpt lat="47.16982" lon="5.91489">
        <ele>239.8</ele>
        <time>2024-08-05T10:25:42Z</time>
      </trkpt>
      <trkpt lat="47.16983" lon="5.91494">
        <ele>239.8</ele>
        <time>2024-08-05T10:25:43Z</time>
      </trkpt>
      <trkpt lat="47.16985" lon="5.91499">
        <ele>239.8</ele>
        <time>2024-08-05T10:25:44Z</time>
      </trkpt>
      <trkpt lat="47.16986" lon="5.91504">
        <ele>240</ele>
        <time>2024-08-05T10:25:45Z</time>
      </trkpt>
      <trkpt lat="47.16988" lon="5.9151">
        <ele>240.2</ele>
        <time>2024-08-05T10:25:46Z</time>
      </trkpt>
      <trkpt lat="47.16991" lon="5.91516">
        <ele>240.2</ele>
        <time>2024-08-05T10:25:47Z</time>
      </trkpt>
      <trkpt lat="47.16993" lon="5.91522">
        <ele>240.2</ele>
        <time>2024-08-05T10:25:48Z</time>
      </trkpt>
      <trkpt lat="47.16996" lon="5.91529">
        <ele>240.2</ele>
        <time>2024-08-05T10:25:49Z</time>
      </trkpt>
      <trkpt lat="47.16998" lon="5.91536">
        <ele>240.2</ele>
        <time>2024-08-05T10:25:50Z</time>
      </trkpt>
      <trkpt lat="47.17001" lon="5.91543">
        <ele>240</ele>
        <time>2024-08-05T10:25:51Z</time>
      </trkpt>
      <trkpt lat="47.17003" lon="5.9155">
        <ele>240.2</ele>
        <time>2024-08-05T10:25:52Z</time>
      </trkpt>
      <trkpt lat="47.17005" lon="5.91559">
        <ele>240.2</ele>
        <time>2024-08-05T10:25:53Z</time>
      </trkpt>
      <trkpt lat="47.17008" lon="5.91567">
        <ele>240.2</ele>
        <time>2024-08-05T10:25:54Z</time>
      </trkpt>
      <trkpt lat="47.1701" lon="5.91575">
        <ele>240.2</ele>
        <time>2024-08-05T10:25:55Z</time>
      </trkpt>
      <trkpt lat="47.17012" lon="5.91583">
        <ele>240</ele>
        <time>2024-08-05T10:25:56Z</time>
      </trkpt>
      <trkpt lat="47.17013" lon="5.91591">
        <ele>240</ele>
        <time>2024-08-05T10:25:57Z</time>
      </trkpt>
      <trkpt lat="47.17015" lon="5.916">
        <ele>239.8</ele>
        <time>2024-08-05T10:25:58Z</time>
      </trkpt>
      <trkpt lat="47.17017" lon="5.91608">
        <ele>239.8</ele>
        <time>2024-08-05T10:25:59Z</time>
      </trkpt>
      <trkpt lat="47.17018" lon="5.91616">
        <ele>239.6</ele>
        <time>2024-08-05T10:26:00Z</time>
      </trkpt>
      <trkpt lat="47.1702" lon="5.91624">
        <ele>239.6</ele>
        <time>2024-08-05T10:26:01Z</time>
      </trkpt>
      <trkpt lat="47.17023" lon="5.91633">
        <ele>239.4</ele>
        <time>2024-08-05T10:26:02Z</time>
      </trkpt>
      <trkpt lat="47.17025" lon="5.91641">
        <ele>239.2</ele>
        <time>2024-08-05T10:26:03Z</time>
      </trkpt>
      <trkpt lat="47.17028" lon="5.9165">
        <ele>239.2</ele>
        <time>2024-08-05T10:26:04Z</time>
      </trkpt>
      <trkpt lat="47.17031" lon="5.91659">
        <ele>239</ele>
        <time>2024-08-05T10:26:05Z</time>
      </trkpt>
      <trkpt lat="47.17034" lon="5.91668">
        <ele>239</ele>
        <time>2024-08-05T10:26:06Z</time>
      </trkpt>
      <trkpt lat="47.17036" lon="5.91677">
        <ele>239.2</ele>
        <time>2024-08-05T10:26:07Z</time>
      </trkpt>
      <trkpt lat="47.1704" lon="5.91685">
        <ele>239</ele>
        <time>2024-08-05T10:26:08Z</time>
      </trkpt>
      <trkpt lat="47.17042" lon="5.91694">
        <ele>239.2</ele>
        <time>2024-08-05T10:26:09Z</time>
      </trkpt>
      <trkpt lat="47.17046" lon="5.91703">
        <ele>239.2</ele>
        <time>2024-08-05T10:26:10Z</time>
      </trkpt>
      <trkpt lat="47.17049" lon="5.91711">
        <ele>239</ele>
        <time>2024-08-05T10:26:11Z</time>
      </trkpt>
      <trkpt lat="47.17052" lon="5.91719">
        <ele>239</ele>
        <time>2024-08-05T10:26:12Z</time>
      </trkpt>
      <trkpt lat="47.17054" lon="5.91727">
        <ele>239</ele>
        <time>2024-08-05T10:26:13Z</time>
      </trkpt>
      <trkpt lat="47.17056" lon="5.91735">
        <ele>239</ele>
        <time>2024-08-05T10:26:14Z</time>
      </trkpt>
      <trkpt lat="47.17058" lon="5.91742">
        <ele>239</ele>
        <time>2024-08-05T10:26:15Z</time>
      </trkpt>
      <trkpt lat="47.1706" lon="5.9175">
        <ele>239</ele>
        <time>2024-08-05T10:26:16Z</time>
      </trkpt>
      <trkpt lat="47.17061" lon="5.91757">
        <ele>239</ele>
        <time>2024-08-05T10:26:17Z</time>
      </trkpt>
      <trkpt lat="47.17063" lon="5.91764">
        <ele>239</ele>
        <time>2024-08-05T10:26:18Z</time>
      </trkpt>
      <trkpt lat="47.17064" lon="5.91772">
        <ele>239</ele>
        <time>2024-08-05T10:26:19Z</time>
      </trkpt>
      <trkpt lat="47.17065" lon="5.91779">
        <ele>239</ele>
        <time>2024-08-05T10:26:20Z</time>
      </trkpt>
      <trkpt lat="47.17066" lon="5.91787">
        <ele>239</ele>
        <time>2024-08-05T10:26:21Z</time>
      </trkpt>
      <trkpt lat="47.17066" lon="5.91795">
        <ele>239.2</ele>
        <time>2024-08-05T10:26:22Z</time>
      </trkpt>
      <trkpt lat="47.17067" lon="5.91803">
        <ele>239</ele>
        <time>2024-08-05T10:26:23Z</time>
      </trkpt>
      <trkpt lat="47.17067" lon="5.91811">
        <ele>239.2</ele>
        <time>2024-08-05T10:26:24Z</time>
      </trkpt>
      <trkpt lat="47.17067" lon="5.91819">
        <ele>239.2</ele>
        <time>2024-08-05T10:26:25Z</time>
      </trkpt>
      <trkpt lat="47.17067" lon="5.91828">
        <ele>239.2</ele>
        <time>2024-08-05T10:26:26Z</time>
      </trkpt>
      <trkpt lat="47.17067" lon="5.91836">
        <ele>239.2</ele>
        <time>2024-08-05T10:26:27Z</time>
      </trkpt>
      <trkpt lat="47.17066" lon="5.91845">
        <ele>239.2</ele>
        <time>2024-08-05T10:26:28Z</time>
      </trkpt>
      <trkpt lat="47.17066" lon="5.91854">
        <ele>239.2</ele>
        <time>2024-08-05T10:26:29Z</time>
      </trkpt>
      <trkpt lat="47.17066" lon="5.91862">
        <ele>239</ele>
        <time>2024-08-05T10:26:30Z</time>
      </trkpt>
      <trkpt lat="47.17066" lon="5.91871">
        <ele>239</ele>
        <time>2024-08-05T10:26:31Z</time>
      </trkpt>
      <trkpt lat="47.17066" lon="5.91879">
        <ele>239</ele>
        <time>2024-08-05T10:26:32Z</time>
      </trkpt>
      <trkpt lat="47.17066" lon="5.91888">
        <ele>239</ele>
        <time>2024-08-05T10:26:33Z</time>
      </trkpt>
      <trkpt lat="47.17066" lon="5.91896">
        <ele>239</ele>
        <time>2024-08-05T10:26:34Z</time>
      </trkpt>
      <trkpt lat="47.17065" lon="5.91905">
        <ele>239</ele>
        <time>2024-08-05T10:26:35Z</time>
      </trkpt>
      <trkpt lat="47.17065" lon="5.91914">
        <ele>238.8</ele>
        <time>2024-08-05T10:26:36Z</time>
      </trkpt>
      <trkpt lat="47.17065" lon="5.91923">
        <ele>238.8</ele>
        <time>2024-08-05T10:26:37Z</time>
      </trkpt>
      <trkpt lat="47.17065" lon="5.91932">
        <ele>238.8</ele>
        <time>2024-08-05T10:26:38Z</time>
      </trkpt>
      <trkpt lat="47.17064" lon="5.91941">
        <ele>238.8</ele>
        <time>2024-08-05T10:26:39Z</time>
      </trkpt>
      <trkpt lat="47.17064" lon="5.9195">
        <ele>238.8</ele>
        <time>2024-08-05T10:26:40Z</time>
      </trkpt>
      <trkpt lat="47.17064" lon="5.91958">
        <ele>238.8</ele>
        <time>2024-08-05T10:26:41Z</time>
      </trkpt>
      <trkpt lat="47.17063" lon="5.91967">
        <ele>238.8</ele>
        <time>2024-08-05T10:26:42Z</time>
      </trkpt>
      <trkpt lat="47.17063" lon="5.91975">
        <ele>238.8</ele>
        <time>2024-08-05T10:26:43Z</time>
      </trkpt>
      <trkpt lat="47.17063" lon="5.91983">
        <ele>238.6</ele>
        <time>2024-08-05T10:26:44Z</time>
      </trkpt>
      <trkpt lat="47.17063" lon="5.91992">
        <ele>238.6</ele>
        <time>2024-08-05T10:26:45Z</time>
      </trkpt>
      <trkpt lat="47.17062" lon="5.91999">
        <ele>238.6</ele>
        <time>2024-08-05T10:26:46Z</time>
      </trkpt>
      <trkpt lat="47.17061" lon="5.92006">
        <ele>238.8</ele>
        <time>2024-08-05T10:26:47Z</time>
      </trkpt>
      <trkpt lat="47.17058" lon="5.92011">
        <ele>238.6</ele>
        <time>2024-08-05T10:26:48Z</time>
      </trkpt>
      <trkpt lat="47.17056" lon="5.92016">
        <ele>238.6</ele>
        <time>2024-08-05T10:26:49Z</time>
      </trkpt>
      <trkpt lat="47.17053" lon="5.92021">
        <ele>238.6</ele>
        <time>2024-08-05T10:26:50Z</time>
      </trkpt>
      <trkpt lat="47.1705" lon="5.92024">
        <ele>238.6</ele>
        <time>2024-08-05T10:26:51Z</time>
      </trkpt>
      <trkpt lat="47.17046" lon="5.92027">
        <ele>238.6</ele>
        <time>2024-08-05T10:26:52Z</time>
      </trkpt>
      <trkpt lat="47.17042" lon="5.92029">
        <ele>238.6</ele>
        <time>2024-08-05T10:26:53Z</time>
      </trkpt>
      <trkpt lat="47.17038" lon="5.92031">
        <ele>238.6</ele>
        <time>2024-08-05T10:26:54Z</time>
      </trkpt>
      <trkpt lat="47.17034" lon="5.92032">
        <ele>238.6</ele>
        <time>2024-08-05T10:26:55Z</time>
      </trkpt>
      <trkpt lat="47.17029" lon="5.92032">
        <ele>238.6</ele>
        <time>2024-08-05T10:26:56Z</time>
      </trkpt>
      <trkpt lat="47.17025" lon="5.92033">
        <ele>238.6</ele>
        <time>2024-08-05T10:26:57Z</time>
      </trkpt>
      <trkpt lat="47.1702" lon="5.92034">
        <ele>238.4</ele>
        <time>2024-08-05T10:26:58Z</time>
      </trkpt>
      <trkpt lat="47.17015" lon="5.92035">
        <ele>238.6</ele>
        <time>2024-08-05T10:26:59Z</time>
      </trkpt>
      <trkpt lat="47.17011" lon="5.92036">
        <ele>238.6</ele>
        <time>2024-08-05T10:27:00Z</time>
      </trkpt>
      <trkpt lat="47.17006" lon="5.92037">
        <ele>238.6</ele>
        <time>2024-08-05T10:27:01Z</time>
      </trkpt>
      <trkpt lat="47.17001" lon="5.92037">
        <ele>238.8</ele>
        <time>2024-08-05T10:27:02Z</time>
      </trkpt>
      <trkpt lat="47.16996" lon="5.92038">
        <ele>238.8</ele>
        <time>2024-08-05T10:27:03Z</time>
      </trkpt>
      <trkpt lat="47.16992" lon="5.9204">
        <ele>238.6</ele>
        <time>2024-08-05T10:27:04Z</time>
      </trkpt>
      <trkpt lat="47.16986" lon="5.9204">
        <ele>238.6</ele>
        <time>2024-08-05T10:27:05Z</time>
      </trkpt>
      <trkpt lat="47.16981" lon="5.92041">
        <ele>238.8</ele>
        <time>2024-08-05T10:27:06Z</time>
      </trkpt>
      <trkpt lat="47.16976" lon="5.92041">
        <ele>238.8</ele>
        <time>2024-08-05T10:27:07Z</time>
      </trkpt>
      <trkpt lat="47.16971" lon="5.92042">
        <ele>238.8</ele>
        <time>2024-08-05T10:27:08Z</time>
      </trkpt>
      <trkpt lat="47.16966" lon="5.92043">
        <ele>239</ele>
        <time>2024-08-05T10:27:09Z</time>
      </trkpt>
      <trkpt lat="47.16961" lon="5.92044">
        <ele>239</ele>
        <time>2024-08-05T10:27:10Z</time>
      </trkpt>
      <trkpt lat="47.16956" lon="5.92046">
        <ele>239</ele>
        <time>2024-08-05T10:27:11Z</time>
      </trkpt>
      <trkpt lat="47.16952" lon="5.92047">
        <ele>238.8</ele>
        <time>2024-08-05T10:27:12Z</time>
      </trkpt>
      <trkpt lat="47.16947" lon="5.92048">
        <ele>239</ele>
        <time>2024-08-05T10:27:13Z</time>
      </trkpt>
      <trkpt lat="47.16942" lon="5.9205">
        <ele>239</ele>
        <time>2024-08-05T10:27:14Z</time>
      </trkpt>
      <trkpt lat="47.16938" lon="5.92051">
        <ele>239</ele>
        <time>2024-08-05T10:27:15Z</time>
      </trkpt>
      <trkpt lat="47.16933" lon="5.92053">
        <ele>239</ele>
        <time>2024-08-05T10:27:16Z</time>
      </trkpt>
      <trkpt lat="47.16929" lon="5.92054">
        <ele>238.8</ele>
        <time>2024-08-05T10:27:17Z</time>
      </trkpt>
      <trkpt lat="47.16924" lon="5.92056">
        <ele>239</ele>
        <time>2024-08-05T10:27:18Z</time>
      </trkpt>
      <trkpt lat="47.1692" lon="5.92059">
        <ele>239</ele>
        <time>2024-08-05T10:27:19Z</time>
      </trkpt>
      <trkpt lat="47.16916" lon="5.92062">
        <ele>239</ele>
        <time>2024-08-05T10:27:20Z</time>
      </trkpt>
      <trkpt lat="47.16912" lon="5.92066">
        <ele>239</ele>
        <time>2024-08-05T10:27:21Z</time>
      </trkpt>
      <trkpt lat="47.16909" lon="5.9207">
        <ele>239</ele>
        <time>2024-08-05T10:27:22Z</time>
      </trkpt>
      <trkpt lat="47.16905" lon="5.92075">
        <ele>239</ele>
        <time>2024-08-05T10:27:23Z</time>
      </trkpt>
      <trkpt lat="47.16902" lon="5.92079">
        <ele>238.8</ele>
        <time>2024-08-05T10:27:24Z</time>
      </trkpt>
      <trkpt lat="47.16898" lon="5.92084">
        <ele>239</ele>
        <time>2024-08-05T10:27:25Z</time>
      </trkpt>
      <trkpt lat="47.16895" lon="5.92088">
        <ele>239</ele>
        <time>2024-08-05T10:27:26Z</time>
      </trkpt>
      <trkpt lat="47.16891" lon="5.92092">
        <ele>239</ele>
        <time>2024-08-05T10:27:27Z</time>
      </trkpt>
      <trkpt lat="47.16888" lon="5.92097">
        <ele>239.2</ele>
        <time>2024-08-05T10:27:28Z</time>
      </trkpt>
      <trkpt lat="47.16885" lon="5.92103">
        <ele>239.2</ele>
        <time>2024-08-05T10:27:29Z</time>
      </trkpt>
      <trkpt lat="47.16882" lon="5.92108">
        <ele>239.2</ele>
        <time>2024-08-05T10:27:30Z</time>
      </trkpt>
      <trkpt lat="47.16879" lon="5.92114">
        <ele>239</ele>
        <time>2024-08-05T10:27:31Z</time>
      </trkpt>
      <trkpt lat="47.16876" lon="5.9212">
        <ele>239</ele>
        <time>2024-08-05T10:27:32Z</time>
      </trkpt>
      <trkpt lat="47.16874" lon="5.92126">
        <ele>239.2</ele>
        <time>2024-08-05T10:27:33Z</time>
      </trkpt>
      <trkpt lat="47.16871" lon="5.92131">
        <ele>239.4</ele>
        <time>2024-08-05T10:27:34Z</time>
      </trkpt>
      <trkpt lat="47.16868" lon="5.92137">
        <ele>239.4</ele>
        <time>2024-08-05T10:27:35Z</time>
      </trkpt>
      <trkpt lat="47.16866" lon="5.92143">
        <ele>239.4</ele>
        <time>2024-08-05T10:27:36Z</time>
      </trkpt>
      <trkpt lat="47.16864" lon="5.92149">
        <ele>239.6</ele>
        <time>2024-08-05T10:27:37Z</time>
      </trkpt>
      <trkpt lat="47.16862" lon="5.92155">
        <ele>239.6</ele>
        <time>2024-08-05T10:27:38Z</time>
      </trkpt>
      <trkpt lat="47.16861" lon="5.92162">
        <ele>239.8</ele>
        <time>2024-08-05T10:27:39Z</time>
      </trkpt>
      <trkpt lat="47.16859" lon="5.92168">
        <ele>239.8</ele>
        <time>2024-08-05T10:27:40Z</time>
      </trkpt>
      <trkpt lat="47.16858" lon="5.92175">
        <ele>239.8</ele>
        <time>2024-08-05T10:27:41Z</time>
      </trkpt>
      <trkpt lat="47.16856" lon="5.92182">
        <ele>239.8</ele>
        <time>2024-08-05T10:27:42Z</time>
      </trkpt>
      <trkpt lat="47.16854" lon="5.92188">
        <ele>239.8</ele>
        <time>2024-08-05T10:27:43Z</time>
      </trkpt>
      <trkpt lat="47.16853" lon="5.92194">
        <ele>239.8</ele>
        <time>2024-08-05T10:27:44Z</time>
      </trkpt>
      <trkpt lat="47.16851" lon="5.92201">
        <ele>239.8</ele>
        <time>2024-08-05T10:27:45Z</time>
      </trkpt>
      <trkpt lat="47.16849" lon="5.92207">
        <ele>239.8</ele>
        <time>2024-08-05T10:27:46Z</time>
      </trkpt>
      <trkpt lat="47.16848" lon="5.92214">
        <ele>240</ele>
        <time>2024-08-05T10:27:47Z</time>
      </trkpt>
      <trkpt lat="47.16846" lon="5.9222">
        <ele>239.8</ele>
        <time>2024-08-05T10:27:48Z</time>
      </trkpt>
      <trkpt lat="47.16844" lon="5.92226">
        <ele>240.2</ele>
        <time>2024-08-05T10:27:49Z</time>
      </trkpt>
      <trkpt lat="47.16842" lon="5.92232">
        <ele>240</ele>
        <time>2024-08-05T10:27:50Z</time>
      </trkpt>
      <trkpt lat="47.1684" lon="5.92239">
        <ele>240.2</ele>
        <time>2024-08-05T10:27:51Z</time>
      </trkpt>
      <trkpt lat="47.16839" lon="5.92245">
        <ele>240.4</ele>
        <time>2024-08-05T10:27:52Z</time>
      </trkpt>
      <trkpt lat="47.16837" lon="5.92251">
        <ele>240.4</ele>
        <time>2024-08-05T10:27:53Z</time>
      </trkpt>
      <trkpt lat="47.16835" lon="5.92257">
        <ele>240.6</ele>
        <time>2024-08-05T10:27:54Z</time>
      </trkpt>
      <trkpt lat="47.16833" lon="5.92263">
        <ele>240.6</ele>
        <time>2024-08-05T10:27:55Z</time>
      </trkpt>
      <trkpt lat="47.16832" lon="5.92269">
        <ele>240.6</ele>
        <time>2024-08-05T10:27:56Z</time>
      </trkpt>
      <trkpt lat="47.1683" lon="5.92275">
        <ele>240.6</ele>
        <time>2024-08-05T10:27:57Z</time>
      </trkpt>
      <trkpt lat="47.16828" lon="5.92281">
        <ele>240.8</ele>
        <time>2024-08-05T10:27:58Z</time>
      </trkpt>
      <trkpt lat="47.16826" lon="5.92286">
        <ele>241</ele>
        <time>2024-08-05T10:27:59Z</time>
      </trkpt>
      <trkpt lat="47.16824" lon="5.92292">
        <ele>240.8</ele>
        <time>2024-08-05T10:28:00Z</time>
      </trkpt>
      <trkpt lat="47.16822" lon="5.92297">
        <ele>241</ele>
        <time>2024-08-05T10:28:01Z</time>
      </trkpt>
      <trkpt lat="47.1682" lon="5.92303">
        <ele>241.4</ele>
        <time>2024-08-05T10:28:02Z</time>
      </trkpt>
      <trkpt lat="47.16818" lon="5.92308">
        <ele>241.4</ele>
        <time>2024-08-05T10:28:03Z</time>
      </trkpt>
      <trkpt lat="47.16816" lon="5.92314">
        <ele>241.4</ele>
        <time>2024-08-05T10:28:04Z</time>
      </trkpt>
      <trkpt lat="47.16814" lon="5.92319">
        <ele>241.4</ele>
        <time>2024-08-05T10:28:05Z</time>
      </trkpt>
      <trkpt lat="47.16812" lon="5.92325">
        <ele>241.6</ele>
        <time>2024-08-05T10:28:06Z</time>
      </trkpt>
      <trkpt lat="47.1681" lon="5.9233">
        <ele>241.8</ele>
        <time>2024-08-05T10:28:07Z</time>
      </trkpt>
      <trkpt lat="47.16808" lon="5.92336">
        <ele>241.8</ele>
        <time>2024-08-05T10:28:08Z</time>
      </trkpt>
      <trkpt lat="47.16806" lon="5.92341">
        <ele>241.8</ele>
        <time>2024-08-05T10:28:09Z</time>
      </trkpt>
      <trkpt lat="47.16804" lon="5.92346">
        <ele>242</ele>
        <time>2024-08-05T10:28:10Z</time>
      </trkpt>
      <trkpt lat="47.16803" lon="5.92351">
        <ele>242</ele>
        <time>2024-08-05T10:28:11Z</time>
      </trkpt>
      <trkpt lat="47.16801" lon="5.92356">
        <ele>242.2</ele>
        <time>2024-08-05T10:28:12Z</time>
      </trkpt>
      <trkpt lat="47.168" lon="5.92361">
        <ele>242.4</ele>
        <time>2024-08-05T10:28:13Z</time>
      </trkpt>
      <trkpt lat="47.16798" lon="5.92366">
        <ele>242.4</ele>
        <time>2024-08-05T10:28:14Z</time>
      </trkpt>
      <trkpt lat="47.16796" lon="5.92371">
        <ele>242.6</ele>
        <time>2024-08-05T10:28:15Z</time>
      </trkpt>
      <trkpt lat="47.16795" lon="5.92376">
        <ele>242.6</ele>
        <time>2024-08-05T10:28:16Z</time>
      </trkpt>
      <trkpt lat="47.16793" lon="5.92381">
        <ele>242.8</ele>
        <time>2024-08-05T10:28:17Z</time>
      </trkpt>
      <trkpt lat="47.16791" lon="5.92386">
        <ele>242.8</ele>
        <time>2024-08-05T10:28:18Z</time>
      </trkpt>
      <trkpt lat="47.1679" lon="5.92391">
        <ele>242.8</ele>
        <time>2024-08-05T10:28:19Z</time>
      </trkpt>
      <trkpt lat="47.16788" lon="5.92395">
        <ele>243</ele>
        <time>2024-08-05T10:28:20Z</time>
      </trkpt>
      <trkpt lat="47.16786" lon="5.924">
        <ele>243.2</ele>
        <time>2024-08-05T10:28:21Z</time>
      </trkpt>
      <trkpt lat="47.16784" lon="5.92405">
        <ele>243.2</ele>
        <time>2024-08-05T10:28:22Z</time>
      </trkpt>
      <trkpt lat="47.16782" lon="5.9241">
        <ele>243.2</ele>
        <time>2024-08-05T10:28:23Z</time>
      </trkpt>
      <trkpt lat="47.1678" lon="5.92415">
        <ele>243.6</ele>
        <time>2024-08-05T10:28:24Z</time>
      </trkpt>
      <trkpt lat="47.16777" lon="5.9242">
        <ele>243.4</ele>
        <time>2024-08-05T10:28:25Z</time>
      </trkpt>
      <trkpt lat="47.16775" lon="5.92425">
        <ele>243.6</ele>
        <time>2024-08-05T10:28:26Z</time>
      </trkpt>
      <trkpt lat="47.16773" lon="5.9243">
        <ele>243.6</ele>
        <time>2024-08-05T10:28:27Z</time>
      </trkpt>
      <trkpt lat="47.1677" lon="5.92435">
        <ele>243.6</ele>
        <time>2024-08-05T10:28:28Z</time>
      </trkpt>
      <trkpt lat="47.16768" lon="5.9244">
        <ele>243.6</ele>
        <time>2024-08-05T10:28:29Z</time>
      </trkpt>
      <trkpt lat="47.16766" lon="5.92445">
        <ele>243.8</ele>
        <time>2024-08-05T10:28:30Z</time>
      </trkpt>
      <trkpt lat="47.16764" lon="5.92449">
        <ele>243.8</ele>
        <time>2024-08-05T10:28:31Z</time>
      </trkpt>
      <trkpt lat="47.16763" lon="5.92454">
        <ele>243.8</ele>
        <time>2024-08-05T10:28:32Z</time>
      </trkpt>
      <trkpt lat="47.16761" lon="5.92459">
        <ele>244</ele>
        <time>2024-08-05T10:28:33Z</time>
      </trkpt>
      <trkpt lat="47.1676" lon="5.92463">
        <ele>244</ele>
        <time>2024-08-05T10:28:34Z</time>
      </trkpt>
      <trkpt lat="47.16758" lon="5.92467">
        <ele>244</ele>
        <time>2024-08-05T10:28:35Z</time>
      </trkpt>
      <trkpt lat="47.16757" lon="5.9247">
        <ele>244.2</ele>
        <time>2024-08-05T10:28:36Z</time>
      </trkpt>
      <trkpt lat="47.16755" lon="5.92473">
        <ele>244.2</ele>
        <time>2024-08-05T10:28:37Z</time>
      </trkpt>
      <trkpt lat="47.16753" lon="5.92476">
        <ele>244.4</ele>
        <time>2024-08-05T10:28:38Z</time>
      </trkpt>
      <trkpt lat="47.16751" lon="5.92479">
        <ele>244.8</ele>
        <time>2024-08-05T10:28:39Z</time>
      </trkpt>
      <trkpt lat="47.16748" lon="5.92482">
        <ele>244.8</ele>
        <time>2024-08-05T10:28:40Z</time>
      </trkpt>
      <trkpt lat="47.16746" lon="5.92485">
        <ele>245.2</ele>
        <time>2024-08-05T10:28:41Z</time>
      </trkpt>
      <trkpt lat="47.16744" lon="5.92487">
        <ele>245.2</ele>
        <time>2024-08-05T10:28:42Z</time>
      </trkpt>
      <trkpt lat="47.16741" lon="5.92489">
        <ele>245.6</ele>
        <time>2024-08-05T10:28:43Z</time>
      </trkpt>
      <trkpt lat="47.16738" lon="5.92491">
        <ele>245.8</ele>
        <time>2024-08-05T10:28:44Z</time>
      </trkpt>
      <trkpt lat="47.16735" lon="5.92492">
        <ele>245.8</ele>
        <time>2024-08-05T10:28:45Z</time>
      </trkpt>
      <trkpt lat="47.16733" lon="5.92494">
        <ele>245.8</ele>
        <time>2024-08-05T10:28:46Z</time>
      </trkpt>
      <trkpt lat="47.16731" lon="5.92496">
        <ele>246</ele>
        <time>2024-08-05T10:28:47Z</time>
      </trkpt>
      <trkpt lat="47.16729" lon="5.92497">
        <ele>246</ele>
        <time>2024-08-05T10:28:48Z</time>
      </trkpt>
      <trkpt lat="47.16727" lon="5.92499">
        <ele>246</ele>
        <time>2024-08-05T10:28:49Z</time>
      </trkpt>
      <trkpt lat="47.16725" lon="5.92501">
        <ele>246.2</ele>
        <time>2024-08-05T10:28:50Z</time>
      </trkpt>
      <trkpt lat="47.16723" lon="5.92504">
        <ele>246.2</ele>
        <time>2024-08-05T10:28:51Z</time>
      </trkpt>
      <trkpt lat="47.16721" lon="5.92506">
        <ele>246.4</ele>
        <time>2024-08-05T10:28:52Z</time>
      </trkpt>
      <trkpt lat="47.16717" lon="5.92508">
        <ele>246.4</ele>
        <time>2024-08-05T10:28:53Z</time>
      </trkpt>
      <trkpt lat="47.16715" lon="5.92509">
        <ele>246.6</ele>
        <time>2024-08-05T10:28:54Z</time>
      </trkpt>
      <trkpt lat="47.16712" lon="5.92512">
        <ele>246.8</ele>
        <time>2024-08-05T10:28:55Z</time>
      </trkpt>
      <trkpt lat="47.16709" lon="5.92514">
        <ele>247</ele>
        <time>2024-08-05T10:28:56Z</time>
      </trkpt>
      <trkpt lat="47.16706" lon="5.92518">
        <ele>247.2</ele>
        <time>2024-08-05T10:28:57Z</time>
      </trkpt>
      <trkpt lat="47.16703" lon="5.92521">
        <ele>247.4</ele>
        <time>2024-08-05T10:28:58Z</time>
      </trkpt>
      <trkpt lat="47.167" lon="5.92524">
        <ele>247.4</ele>
        <time>2024-08-05T10:28:59Z</time>
      </trkpt>
      <trkpt lat="47.16697" lon="5.92527">
        <ele>247.4</ele>
        <time>2024-08-05T10:29:00Z</time>
      </trkpt>
      <trkpt lat="47.16694" lon="5.92532">
        <ele>247.4</ele>
        <time>2024-08-05T10:29:01Z</time>
      </trkpt>
      <trkpt lat="47.16692" lon="5.92535">
        <ele>247.4</ele>
        <time>2024-08-05T10:29:02Z</time>
      </trkpt>
      <trkpt lat="47.1669" lon="5.92539">
        <ele>247.6</ele>
        <time>2024-08-05T10:29:03Z</time>
      </trkpt>
      <trkpt lat="47.16689" lon="5.92543">
        <ele>247.6</ele>
        <time>2024-08-05T10:29:04Z</time>
      </trkpt>
      <trkpt lat="47.16687" lon="5.92549">
        <ele>247.6</ele>
        <time>2024-08-05T10:29:05Z</time>
      </trkpt>
      <trkpt lat="47.16686" lon="5.92553">
        <ele>247.6</ele>
        <time>2024-08-05T10:29:06Z</time>
      </trkpt>
      <trkpt lat="47.16683" lon="5.9256">
        <ele>247.8</ele>
        <time>2024-08-05T10:29:07Z</time>
      </trkpt>
      <trkpt lat="47.16681" lon="5.92565">
        <ele>247.8</ele>
        <time>2024-08-05T10:29:08Z</time>
      </trkpt>
      <trkpt lat="47.1668" lon="5.9257">
        <ele>247.8</ele>
        <time>2024-08-05T10:29:09Z</time>
      </trkpt>
      <trkpt lat="47.16679" lon="5.92575">
        <ele>248</ele>
        <time>2024-08-05T10:29:10Z</time>
      </trkpt>
      <trkpt lat="47.16679" lon="5.92579">
        <ele>248</ele>
        <time>2024-08-05T10:29:11Z</time>
      </trkpt>
      <trkpt lat="47.16678" lon="5.92585">
        <ele>247.8</ele>
        <time>2024-08-05T10:29:12Z</time>
      </trkpt>
      <trkpt lat="47.16677" lon="5.9259">
        <ele>248</ele>
        <time>2024-08-05T10:29:13Z</time>
      </trkpt>
      <trkpt lat="47.16676" lon="5.92595">
        <ele>248</ele>
        <time>2024-08-05T10:29:14Z</time>
      </trkpt>
      <trkpt lat="47.16674" lon="5.92601">
        <ele>248</ele>
        <time>2024-08-05T10:29:15Z</time>
      </trkpt>
      <trkpt lat="47.16673" lon="5.92606">
        <ele>248</ele>
        <time>2024-08-05T10:29:16Z</time>
      </trkpt>
      <trkpt lat="47.1667" lon="5.92611">
        <ele>248.2</ele>
        <time>2024-08-05T10:29:17Z</time>
      </trkpt>
      <trkpt lat="47.16668" lon="5.92614">
        <ele>248.4</ele>
        <time>2024-08-05T10:29:18Z</time>
      </trkpt>
      <trkpt lat="47.16663" lon="5.92617">
        <ele>248.6</ele>
        <time>2024-08-05T10:29:19Z</time>
      </trkpt>
      <trkpt lat="47.16659" lon="5.92619">
        <ele>248.6</ele>
        <time>2024-08-05T10:29:20Z</time>
      </trkpt>
      <trkpt lat="47.16652" lon="5.9262">
        <ele>248.6</ele>
        <time>2024-08-05T10:29:21Z</time>
      </trkpt>
      <trkpt lat="47.16649" lon="5.92622">
        <ele>248.6</ele>
        <time>2024-08-05T10:29:22Z</time>
      </trkpt>
      <trkpt lat="47.16647" lon="5.92625">
        <ele>248.6</ele>
        <time>2024-08-05T10:29:23Z</time>
      </trkpt>
      <trkpt lat="47.16644" lon="5.92626">
        <ele>248.6</ele>
        <time>2024-08-05T10:29:24Z</time>
      </trkpt>
      <trkpt lat="47.16642" lon="5.92628">
        <ele>248.6</ele>
        <time>2024-08-05T10:29:25Z</time>
      </trkpt>
      <trkpt lat="47.16639" lon="5.92629">
        <ele>249</ele>
        <time>2024-08-05T10:29:26Z</time>
      </trkpt>
      <trkpt lat="47.16637" lon="5.9263">
        <ele>249.2</ele>
        <time>2024-08-05T10:29:27Z</time>
      </trkpt>
      <trkpt lat="47.16634" lon="5.92631">
        <ele>249.2</ele>
        <time>2024-08-05T10:29:28Z</time>
      </trkpt>
      <trkpt lat="47.16631" lon="5.92633">
        <ele>249.4</ele>
        <time>2024-08-05T10:29:29Z</time>
      </trkpt>
      <trkpt lat="47.16628" lon="5.92634">
        <ele>249.6</ele>
        <time>2024-08-05T10:29:30Z</time>
      </trkpt>
      <trkpt lat="47.16625" lon="5.92635">
        <ele>249.8</ele>
        <time>2024-08-05T10:29:31Z</time>
      </trkpt>
      <trkpt lat="47.16623" lon="5.92637">
        <ele>250</ele>
        <time>2024-08-05T10:29:32Z</time>
      </trkpt>
      <trkpt lat="47.16621" lon="5.92639">
        <ele>250</ele>
        <time>2024-08-05T10:29:33Z</time>
      </trkpt>
      <trkpt lat="47.1662" lon="5.92642">
        <ele>250</ele>
        <time>2024-08-05T10:29:34Z</time>
      </trkpt>
      <trkpt lat="47.16618" lon="5.92647">
        <ele>250</ele>
        <time>2024-08-05T10:29:35Z</time>
      </trkpt>
      <trkpt lat="47.16616" lon="5.9265">
        <ele>250</ele>
        <time>2024-08-05T10:29:36Z</time>
      </trkpt>
      <trkpt lat="47.16614" lon="5.92653">
        <ele>250</ele>
        <time>2024-08-05T10:29:37Z</time>
      </trkpt>
      <trkpt lat="47.16612" lon="5.92656">
        <ele>250.2</ele>
        <time>2024-08-05T10:29:38Z</time>
      </trkpt>
      <trkpt lat="47.1661" lon="5.92659">
        <ele>250.2</ele>
        <time>2024-08-05T10:29:39Z</time>
      </trkpt>
      <trkpt lat="47.16608" lon="5.92662">
        <ele>250.2</ele>
        <time>2024-08-05T10:29:40Z</time>
      </trkpt>
      <trkpt lat="47.16605" lon="5.92666">
        <ele>250.2</ele>
        <time>2024-08-05T10:29:41Z</time>
      </trkpt>
      <trkpt lat="47.16603" lon="5.92669">
        <ele>250.2</ele>
        <time>2024-08-05T10:29:42Z</time>
      </trkpt>
      <trkpt lat="47.16601" lon="5.92673">
        <ele>250.4</ele>
        <time>2024-08-05T10:29:43Z</time>
      </trkpt>
      <trkpt lat="47.16599" lon="5.92677">
        <ele>250.2</ele>
        <time>2024-08-05T10:29:44Z</time>
      </trkpt>
      <trkpt lat="47.16597" lon="5.92681">
        <ele>250.4</ele>
        <time>2024-08-05T10:29:45Z</time>
      </trkpt>
      <trkpt lat="47.16595" lon="5.92684">
        <ele>250.2</ele>
        <time>2024-08-05T10:29:46Z</time>
      </trkpt>
      <trkpt lat="47.16593" lon="5.92688">
        <ele>250.4</ele>
        <time>2024-08-05T10:29:47Z</time>
      </trkpt>
      <trkpt lat="47.16591" lon="5.92692">
        <ele>250.6</ele>
        <time>2024-08-05T10:29:48Z</time>
      </trkpt>
      <trkpt lat="47.1659" lon="5.92695">
        <ele>250.6</ele>
        <time>2024-08-05T10:29:49Z</time>
      </trkpt>
      <trkpt lat="47.16589" lon="5.92699">
        <ele>250.8</ele>
        <time>2024-08-05T10:29:50Z</time>
      </trkpt>
      <trkpt lat="47.16588" lon="5.92702">
        <ele>250.8</ele>
        <time>2024-08-05T10:29:51Z</time>
      </trkpt>
      <trkpt lat="47.16587" lon="5.92706">
        <ele>250.8</ele>
        <time>2024-08-05T10:29:52Z</time>
      </trkpt>
      <trkpt lat="47.16587" lon="5.9271">
        <ele>251.2</ele>
        <time>2024-08-05T10:29:53Z</time>
      </trkpt>
      <trkpt lat="47.16586" lon="5.92713">
        <ele>251.4</ele>
        <time>2024-08-05T10:29:54Z</time>
      </trkpt>
      <trkpt lat="47.16586" lon="5.92717">
        <ele>251.4</ele>
        <time>2024-08-05T10:29:55Z</time>
      </trkpt>
      <trkpt lat="47.16585" lon="5.9272">
        <ele>251.4</ele>
        <time>2024-08-05T10:29:56Z</time>
      </trkpt>
      <trkpt lat="47.16585" lon="5.92723">
        <ele>251.6</ele>
        <time>2024-08-05T10:29:57Z</time>
      </trkpt>
      <trkpt lat="47.16585" lon="5.92726">
        <ele>251.4</ele>
        <time>2024-08-05T10:29:58Z</time>
      </trkpt>
      <trkpt lat="47.16584" lon="5.92729">
        <ele>251.6</ele>
        <time>2024-08-05T10:29:59Z</time>
      </trkpt>
      <trkpt lat="47.16584" lon="5.92732">
        <ele>251.8</ele>
        <time>2024-08-05T10:30:00Z</time>
      </trkpt>
      <trkpt lat="47.16583" lon="5.92735">
        <ele>252.2</ele>
        <time>2024-08-05T10:30:01Z</time>
      </trkpt>
      <trkpt lat="47.16583" lon="5.92737">
        <ele>252.2</ele>
        <time>2024-08-05T10:30:02Z</time>
      </trkpt>
      <trkpt lat="47.16583" lon="5.92739">
        <ele>252.6</ele>
        <time>2024-08-05T10:30:03Z</time>
      </trkpt>
      <trkpt lat="47.16583" lon="5.92742">
        <ele>252.8</ele>
        <time>2024-08-05T10:30:04Z</time>
      </trkpt>
      <trkpt lat="47.16583" lon="5.92744">
        <ele>253</ele>
        <time>2024-08-05T10:30:05Z</time>
      </trkpt>
      <trkpt lat="47.16583" lon="5.92746">
        <ele>253.2</ele>
        <time>2024-08-05T10:30:06Z</time>
      </trkpt>
      <trkpt lat="47.16583" lon="5.92748">
        <ele>253.6</ele>
        <time>2024-08-05T10:30:07Z</time>
      </trkpt>
      <trkpt lat="47.16583" lon="5.9275">
        <ele>253.8</ele>
        <time>2024-08-05T10:30:08Z</time>
      </trkpt>
      <trkpt lat="47.16584" lon="5.92752">
        <ele>254</ele>
        <time>2024-08-05T10:30:09Z</time>
      </trkpt>
      <trkpt lat="47.16584" lon="5.92754">
        <ele>254.2</ele>
        <time>2024-08-05T10:30:10Z</time>
      </trkpt>
      <trkpt lat="47.16584" lon="5.92756">
        <ele>254.4</ele>
        <time>2024-08-05T10:30:11Z</time>
      </trkpt>
      <trkpt lat="47.16584" lon="5.92758">
        <ele>254.6</ele>
        <time>2024-08-05T10:30:12Z</time>
      </trkpt>
      <trkpt lat="47.16584" lon="5.92759">
        <ele>254.8</ele>
        <time>2024-08-05T10:30:13Z</time>
      </trkpt>
      <trkpt lat="47.16584" lon="5.92761">
        <ele>255.2</ele>
        <time>2024-08-05T10:30:14Z</time>
      </trkpt>
      <trkpt lat="47.16585" lon="5.92763">
        <ele>255.4</ele>
        <time>2024-08-05T10:30:15Z</time>
      </trkpt>
      <trkpt lat="47.16585" lon="5.92765">
        <ele>255.4</ele>
        <time>2024-08-05T10:30:16Z</time>
      </trkpt>
      <trkpt lat="47.16585" lon="5.92768">
        <ele>255.6</ele>
        <time>2024-08-05T10:30:17Z</time>
      </trkpt>
      <trkpt lat="47.16585" lon="5.9277">
        <ele>255.8</ele>
        <time>2024-08-05T10:30:18Z</time>
      </trkpt>
      <trkpt lat="47.16585" lon="5.92772">
        <ele>256.2</ele>
        <time>2024-08-05T10:30:19Z</time>
      </trkpt>
      <trkpt lat="47.16585" lon="5.92773">
        <ele>256.4</ele>
        <time>2024-08-05T10:30:20Z</time>
      </trkpt>
      <trkpt lat="47.16585" lon="5.92775">
        <ele>256.6</ele>
        <time>2024-08-05T10:30:21Z</time>
      </trkpt>
      <trkpt lat="47.16584" lon="5.92777">
        <ele>256.8</ele>
        <time>2024-08-05T10:30:22Z</time>
      </trkpt>
      <trkpt lat="47.16584" lon="5.92778">
        <ele>257</ele>
        <time>2024-08-05T10:30:23Z</time>
      </trkpt>
      <trkpt lat="47.16583" lon="5.9278">
        <ele>257</ele>
        <time>2024-08-05T10:30:24Z</time>
      </trkpt>
      <trkpt lat="47.16582" lon="5.92782">
        <ele>257.2</ele>
        <time>2024-08-05T10:30:25Z</time>
      </trkpt>
      <trkpt lat="47.16582" lon="5.92784">
        <ele>257.2</ele>
        <time>2024-08-05T10:30:26Z</time>
      </trkpt>
      <trkpt lat="47.16581" lon="5.92786">
        <ele>257.6</ele>
        <time>2024-08-05T10:30:27Z</time>
      </trkpt>
      <trkpt lat="47.1658" lon="5.92788">
        <ele>257.6</ele>
        <time>2024-08-05T10:30:28Z</time>
      </trkpt>
      <trkpt lat="47.1658" lon="5.92791">
        <ele>257.8</ele>
        <time>2024-08-05T10:30:29Z</time>
      </trkpt>
      <trkpt lat="47.16579" lon="5.92793">
        <ele>258</ele>
        <time>2024-08-05T10:30:30Z</time>
      </trkpt>
      <trkpt lat="47.16579" lon="5.92795">
        <ele>258.2</ele>
        <time>2024-08-05T10:30:31Z</time>
      </trkpt>
      <trkpt lat="47.16578" lon="5.92797">
        <ele>258.2</ele>
        <time>2024-08-05T10:30:32Z</time>
      </trkpt>
      <trkpt lat="47.16577" lon="5.92799">
        <ele>258.6</ele>
        <time>2024-08-05T10:30:33Z</time>
      </trkpt>
      <trkpt lat="47.16577" lon="5.928">
        <ele>258.6</ele>
        <time>2024-08-05T10:30:34Z</time>
      </trkpt>
      <trkpt lat="47.16577" lon="5.92802">
        <ele>258.8</ele>
        <time>2024-08-05T10:30:35Z</time>
      </trkpt>
      <trkpt lat="47.16576" lon="5.92804">
        <ele>259.2</ele>
        <time>2024-08-05T10:30:36Z</time>
      </trkpt>
      <trkpt lat="47.16576" lon="5.92806">
        <ele>259.2</ele>
        <time>2024-08-05T10:30:37Z</time>
      </trkpt>
      <trkpt lat="47.16575" lon="5.92809">
        <ele>259.2</ele>
        <time>2024-08-05T10:30:38Z</time>
      </trkpt>
      <trkpt lat="47.16575" lon="5.92811">
        <ele>259.4</ele>
        <time>2024-08-05T10:30:39Z</time>
      </trkpt>
      <trkpt lat="47.16575" lon="5.92813">
        <ele>259.6</ele>
        <time>2024-08-05T10:30:40Z</time>
      </trkpt>
      <trkpt lat="47.16574" lon="5.92815">
        <ele>259.8</ele>
        <time>2024-08-05T10:30:41Z</time>
      </trkpt>
      <trkpt lat="47.16574" lon="5.92818">
        <ele>259.8</ele>
        <time>2024-08-05T10:30:42Z</time>
      </trkpt>
      <trkpt lat="47.16574" lon="5.92819">
        <ele>260.2</ele>
        <time>2024-08-05T10:30:43Z</time>
      </trkpt>
      <trkpt lat="47.16573" lon="5.92821">
        <ele>260.2</ele>
        <time>2024-08-05T10:30:44Z</time>
      </trkpt>
      <trkpt lat="47.16572" lon="5.92823">
        <ele>260.6</ele>
        <time>2024-08-05T10:30:45Z</time>
      </trkpt>
      <trkpt lat="47.16572" lon="5.92825">
        <ele>260.6</ele>
        <time>2024-08-05T10:30:46Z</time>
      </trkpt>
      <trkpt lat="47.16572" lon="5.92827">
        <ele>260.8</ele>
        <time>2024-08-05T10:30:47Z</time>
      </trkpt>
      <trkpt lat="47.16571" lon="5.92829">
        <ele>261.2</ele>
        <time>2024-08-05T10:30:48Z</time>
      </trkpt>
      <trkpt lat="47.16571" lon="5.92831">
        <ele>261.6</ele>
        <time>2024-08-05T10:30:49Z</time>
      </trkpt>
      <trkpt lat="47.1657" lon="5.92833">
        <ele>261.8</ele>
        <time>2024-08-05T10:30:50Z</time>
      </trkpt>
      <trkpt lat="47.1657" lon="5.92835">
        <ele>262.2</ele>
        <time>2024-08-05T10:30:51Z</time>
      </trkpt>
      <trkpt lat="47.16569" lon="5.92837">
        <ele>262.2</ele>
        <time>2024-08-05T10:30:52Z</time>
      </trkpt>
      <trkpt lat="47.16567" lon="5.92837">
        <ele>262.4</ele>
        <time>2024-08-05T10:30:53Z</time>
      </trkpt>
      <trkpt lat="47.16566" lon="5.92839">
        <ele>262.6</ele>
        <time>2024-08-05T10:30:54Z</time>
      </trkpt>
      <trkpt lat="47.16565" lon="5.9284">
        <ele>262.8</ele>
        <time>2024-08-05T10:30:55Z</time>
      </trkpt>
      <trkpt lat="47.16563" lon="5.92841">
        <ele>263</ele>
        <time>2024-08-05T10:30:56Z</time>
      </trkpt>
      <trkpt lat="47.16562" lon="5.92843">
        <ele>263.2</ele>
        <time>2024-08-05T10:30:57Z</time>
      </trkpt>
      <trkpt lat="47.16561" lon="5.92844">
        <ele>263.4</ele>
        <time>2024-08-05T10:30:58Z</time>
      </trkpt>
      <trkpt lat="47.1656" lon="5.92846">
        <ele>263.4</ele>
        <time>2024-08-05T10:30:59Z</time>
      </trkpt>
      <trkpt lat="47.1656" lon="5.92847">
        <ele>263.4</ele>
        <time>2024-08-05T10:31:00Z</time>
      </trkpt>
      <trkpt lat="47.16559" lon="5.92847">
        <ele>263.8</ele>
        <time>2024-08-05T10:31:01Z</time>
      </trkpt>
      <trkpt lat="47.16558" lon="5.92848">
        <ele>264.2</ele>
        <time>2024-08-05T10:31:02Z</time>
      </trkpt>
      <trkpt lat="47.16558" lon="5.92849">
        <ele>264.4</ele>
        <time>2024-08-05T10:31:03Z</time>
      </trkpt>
      <trkpt lat="47.16559" lon="5.92849">
        <ele>264.6</ele>
        <time>2024-08-05T10:31:04Z</time>
      </trkpt>
      <trkpt lat="47.1656" lon="5.9285">
        <ele>264.8</ele>
        <time>2024-08-05T10:31:05Z</time>
      </trkpt>
      <trkpt lat="47.1656" lon="5.9285">
        <ele>265</ele>
        <time>2024-08-05T10:31:06Z</time>
      </trkpt>
      <trkpt lat="47.1656" lon="5.92851">
        <ele>265.2</ele>
        <time>2024-08-05T10:31:07Z</time>
      </trkpt>
      <trkpt lat="47.1656" lon="5.92851">
        <ele>265.4</ele>
        <time>2024-08-05T10:31:08Z</time>
      </trkpt>
      <trkpt lat="47.16561" lon="5.92852">
        <ele>265.6</ele>
        <time>2024-08-05T10:31:09Z</time>
      </trkpt>
      <trkpt lat="47.16561" lon="5.92854">
        <ele>265.8</ele>
        <time>2024-08-05T10:31:10Z</time>
      </trkpt>
      <trkpt lat="47.16561" lon="5.92855">
        <ele>265.8</ele>
        <time>2024-08-05T10:31:11Z</time>
      </trkpt>
      <trkpt lat="47.16561" lon="5.92857">
        <ele>266</ele>
        <time>2024-08-05T10:31:12Z</time>
      </trkpt>
      <trkpt lat="47.16561" lon="5.92858">
        <ele>266.2</ele>
        <time>2024-08-05T10:31:13Z</time>
      </trkpt>
      <trkpt lat="47.16562" lon="5.92858">
        <ele>266</ele>
        <time>2024-08-05T10:31:14Z</time>
      </trkpt>
      <trkpt lat="47.16562" lon="5.92859">
        <ele>266.2</ele>
        <time>2024-08-05T10:31:15Z</time>
      </trkpt>
      <trkpt lat="47.16562" lon="5.9286">
        <ele>266.2</ele>
        <time>2024-08-05T10:31:16Z</time>
      </trkpt>
      <trkpt lat="47.16562" lon="5.92861">
        <ele>266.4</ele>
        <time>2024-08-05T10:31:17Z</time>
      </trkpt>
      <trkpt lat="47.16562" lon="5.92861">
        <ele>266.4</ele>
        <time>2024-08-05T10:31:18Z</time>
      </trkpt>
      <trkpt lat="47.16562" lon="5.92862">
        <ele>266.6</ele>
        <time>2024-08-05T10:31:19Z</time>
      </trkpt>
      <trkpt lat="47.16563" lon="5.92863">
        <ele>266.8</ele>
        <time>2024-08-05T10:31:20Z</time>
      </trkpt>
      <trkpt lat="47.16562" lon="5.92863">
        <ele>267</ele>
        <time>2024-08-05T10:31:21Z</time>
      </trkpt>
      <trkpt lat="47.16562" lon="5.92864">
        <ele>267</ele>
        <time>2024-08-05T10:31:22Z</time>
      </trkpt>
      <trkpt lat="47.16562" lon="5.92864">
        <ele>267</ele>
        <time>2024-08-05T10:31:23Z</time>
      </trkpt>
      <trkpt lat="47.16561" lon="5.92865">
        <ele>267.2</ele>
        <time>2024-08-05T10:31:24Z</time>
      </trkpt>
      <trkpt lat="47.16561" lon="5.92866">
        <ele>267.2</ele>
        <time>2024-08-05T10:31:25Z</time>
      </trkpt>
      <trkpt lat="47.16561" lon="5.92866">
        <ele>267.4</ele>
        <time>2024-08-05T10:31:26Z</time>
      </trkpt>
      <trkpt lat="47.16561" lon="5.92867">
        <ele>267.6</ele>
        <time>2024-08-05T10:31:27Z</time>
      </trkpt>
      <trkpt lat="47.16561" lon="5.92868">
        <ele>267.8</ele>
        <time>2024-08-05T10:31:28Z</time>
      </trkpt>
      <trkpt lat="47.16561" lon="5.92869">
        <ele>268</ele>
        <time>2024-08-05T10:31:29Z</time>
      </trkpt>
      <trkpt lat="47.16561" lon="5.9287">
        <ele>268.2</ele>
        <time>2024-08-05T10:31:30Z</time>
      </trkpt>
      <trkpt lat="47.16561" lon="5.92871">
        <ele>268.2</ele>
        <time>2024-08-05T10:31:31Z</time>
      </trkpt>
      <trkpt lat="47.16561" lon="5.92871">
        <ele>268.6</ele>
        <time>2024-08-05T10:31:32Z</time>
      </trkpt>
      <trkpt lat="47.16561" lon="5.92872">
        <ele>268.6</ele>
        <time>2024-08-05T10:31:33Z</time>
      </trkpt>
      <trkpt lat="47.1656" lon="5.92873">
        <ele>268.8</ele>
        <time>2024-08-05T10:31:34Z</time>
      </trkpt>
      <trkpt lat="47.1656" lon="5.92874">
        <ele>268.8</ele>
        <time>2024-08-05T10:31:35Z</time>
      </trkpt>
      <trkpt lat="47.1656" lon="5.92876">
        <ele>269.2</ele>
        <time>2024-08-05T10:31:36Z</time>
      </trkpt>
      <trkpt lat="47.1656" lon="5.92877">
        <ele>269.2</ele>
        <time>2024-08-05T10:31:37Z</time>
      </trkpt>
      <trkpt lat="47.16559" lon="5.92878">
        <ele>269.4</ele>
        <time>2024-08-05T10:31:38Z</time>
      </trkpt>
      <trkpt lat="47.16559" lon="5.92879">
        <ele>269.4</ele>
        <time>2024-08-05T10:31:39Z</time>
      </trkpt>
      <trkpt lat="47.16558" lon="5.9288">
        <ele>269.6</ele>
        <time>2024-08-05T10:31:40Z</time>
      </trkpt>
      <trkpt lat="47.16558" lon="5.9288">
        <ele>269.8</ele>
        <time>2024-08-05T10:31:41Z</time>
      </trkpt>
      <trkpt lat="47.16558" lon="5.92881">
        <ele>270</ele>
        <time>2024-08-05T10:31:42Z</time>
      </trkpt>
      <trkpt lat="47.16558" lon="5.92882">
        <ele>270</ele>
        <time>2024-08-05T10:31:43Z</time>
      </trkpt>
      <trkpt lat="47.16558" lon="5.92882">
        <ele>270.2</ele>
        <time>2024-08-05T10:31:44Z</time>
      </trkpt>
      <trkpt lat="47.16558" lon="5.92884">
        <ele>270.2</ele>
        <time>2024-08-05T10:31:45Z</time>
      </trkpt>
      <trkpt lat="47.16557" lon="5.92885">
        <ele>270.6</ele>
        <time>2024-08-05T10:31:46Z</time>
      </trkpt>
      <trkpt lat="47.16557" lon="5.92886">
        <ele>270.6</ele>
        <time>2024-08-05T10:31:47Z</time>
      </trkpt>
      <trkpt lat="47.16557" lon="5.92887">
        <ele>270.8</ele>
        <time>2024-08-05T10:31:48Z</time>
      </trkpt>
      <trkpt lat="47.16557" lon="5.92888">
        <ele>271</ele>
        <time>2024-08-05T10:31:49Z</time>
      </trkpt>
      <trkpt lat="47.16557" lon="5.92889">
        <ele>271</ele>
        <time>2024-08-05T10:31:50Z</time>
      </trkpt>
      <trkpt lat="47.16557" lon="5.9289">
        <ele>271.2</ele>
        <time>2024-08-05T10:31:51Z</time>
      </trkpt>
      <trkpt lat="47.16557" lon="5.92891">
        <ele>271.4</ele>
        <time>2024-08-05T10:31:52Z</time>
      </trkpt>
      <trkpt lat="47.16558" lon="5.92893">
        <ele>271.6</ele>
        <time>2024-08-05T10:31:53Z</time>
      </trkpt>
      <trkpt lat="47.16558" lon="5.92894">
        <ele>271.6</ele>
        <time>2024-08-05T10:31:54Z</time>
      </trkpt>
      <trkpt lat="47.16558" lon="5.92895">
        <ele>272</ele>
        <time>2024-08-05T10:31:55Z</time>
      </trkpt>
      <trkpt lat="47.16558" lon="5.92896">
        <ele>272.2</ele>
        <time>2024-08-05T10:31:56Z</time>
      </trkpt>
      <trkpt lat="47.16558" lon="5.92896">
        <ele>272.4</ele>
        <time>2024-08-05T10:31:57Z</time>
      </trkpt>
      <trkpt lat="47.16558" lon="5.92897">
        <ele>272.4</ele>
        <time>2024-08-05T10:31:58Z</time>
      </trkpt>
      <trkpt lat="47.16559" lon="5.92898">
        <ele>272.8</ele>
        <time>2024-08-05T10:31:59Z</time>
      </trkpt>
      <trkpt lat="47.16558" lon="5.92897">
        <ele>273</ele>
        <time>2024-08-05T10:32:00Z</time>
      </trkpt>
      <trkpt lat="47.16558" lon="5.92898">
        <ele>273</ele>
        <time>2024-08-05T10:32:01Z</time>
      </trkpt>
      <trkpt lat="47.16558" lon="5.92898">
        <ele>273</ele>
        <time>2024-08-05T10:32:02Z</time>
      </trkpt>
      <trkpt lat="47.16558" lon="5.92899">
        <ele>273.2</ele>
        <time>2024-08-05T10:32:03Z</time>
      </trkpt>
      <trkpt lat="47.16558" lon="5.92901">
        <ele>273.2</ele>
        <time>2024-08-05T10:32:04Z</time>
      </trkpt>
      <trkpt lat="47.16558" lon="5.92903">
        <ele>273.2</ele>
        <time>2024-08-05T10:32:05Z</time>
      </trkpt>
      <trkpt lat="47.16558" lon="5.92905">
        <ele>273.4</ele>
        <time>2024-08-05T10:32:06Z</time>
      </trkpt>
      <trkpt lat="47.16558" lon="5.92906">
        <ele>273.8</ele>
        <time>2024-08-05T10:32:07Z</time>
      </trkpt>
      <trkpt lat="47.16558" lon="5.92907">
        <ele>273.8</ele>
        <time>2024-08-05T10:32:08Z</time>
      </trkpt>
      <trkpt lat="47.16557" lon="5.92908">
        <ele>274</ele>
        <time>2024-08-05T10:32:09Z</time>
      </trkpt>
      <trkpt lat="47.16557" lon="5.92909">
        <ele>274.2</ele>
        <time>2024-08-05T10:32:10Z</time>
      </trkpt>
      <trkpt lat="47.16557" lon="5.9291">
        <ele>274</ele>
        <time>2024-08-05T10:32:11Z</time>
      </trkpt>
      <trkpt lat="47.16557" lon="5.9291">
        <ele>274.2</ele>
        <time>2024-08-05T10:32:12Z</time>
      </trkpt>
      <trkpt lat="47.16557" lon="5.92911">
        <ele>274.2</ele>
        <time>2024-08-05T10:32:13Z</time>
      </trkpt>
      <trkpt lat="47.16557" lon="5.92912">
        <ele>274.2</ele>
        <time>2024-08-05T10:32:14Z</time>
      </trkpt>
      <trkpt lat="47.16557" lon="5.92913">
        <ele>274.6</ele>
        <time>2024-08-05T10:32:15Z</time>
      </trkpt>
      <trkpt lat="47.16556" lon="5.92914">
        <ele>274.8</ele>
        <time>2024-08-05T10:32:16Z</time>
      </trkpt>
      <trkpt lat="47.16556" lon="5.92915">
        <ele>275.2</ele>
        <time>2024-08-05T10:32:17Z</time>
      </trkpt>
      <trkpt lat="47.16555" lon="5.92915">
        <ele>275.4</ele>
        <time>2024-08-05T10:32:18Z</time>
      </trkpt>
      <trkpt lat="47.16555" lon="5.92915">
        <ele>275.6</ele>
        <time>2024-08-05T10:32:19Z</time>
      </trkpt>
      <trkpt lat="47.16555" lon="5.92915">
        <ele>275.6</ele>
        <time>2024-08-05T10:32:20Z</time>
      </trkpt>
      <trkpt lat="47.16555" lon="5.92915">
        <ele>276</ele>
        <time>2024-08-05T10:32:21Z</time>
      </trkpt>
      <trkpt lat="47.16555" lon="5.92916">
        <ele>276.4</ele>
        <time>2024-08-05T10:32:22Z</time>
      </trkpt>
      <trkpt lat="47.16556" lon="5.92916">
        <ele>276.8</ele>
        <time>2024-08-05T10:32:23Z</time>
      </trkpt>
      <trkpt lat="47.16556" lon="5.92917">
        <ele>276.6</ele>
        <time>2024-08-05T10:32:24Z</time>
      </trkpt>
      <trkpt lat="47.16556" lon="5.92917">
        <ele>276.6</ele>
        <time>2024-08-05T10:32:25Z</time>
      </trkpt>
      <trkpt lat="47.16557" lon="5.92918">
        <ele>276.8</ele>
        <time>2024-08-05T10:32:26Z</time>
      </trkpt>
      <trkpt lat="47.16557" lon="5.92919">
        <ele>276.8</ele>
        <time>2024-08-05T10:32:27Z</time>
      </trkpt>
      <trkpt lat="47.16558" lon="5.9292">
        <ele>277</ele>
        <time>2024-08-05T10:32:28Z</time>
      </trkpt>
      <trkpt lat="47.16559" lon="5.92922">
        <ele>276.8</ele>
        <time>2024-08-05T10:32:29Z</time>
      </trkpt>
      <trkpt lat="47.16561" lon="5.92925">
        <ele>277</ele>
        <time>2024-08-05T10:32:30Z</time>
      </trkpt>
      <trkpt lat="47.16562" lon="5.92927">
        <ele>276.8</ele>
        <time>2024-08-05T10:32:31Z</time>
      </trkpt>
      <trkpt lat="47.16563" lon="5.9293">
        <ele>276.8</ele>
        <time>2024-08-05T10:32:32Z</time>
      </trkpt>
      <trkpt lat="47.16563" lon="5.92932">
        <ele>276.8</ele>
        <time>2024-08-05T10:32:33Z</time>
      </trkpt>
      <trkpt lat="47.16564" lon="5.92934">
        <ele>277</ele>
        <time>2024-08-05T10:32:34Z</time>
      </trkpt>
      <trkpt lat="47.16565" lon="5.92937">
        <ele>277</ele>
        <time>2024-08-05T10:32:35Z</time>
      </trkpt>
      <trkpt lat="47.16566" lon="5.92939">
        <ele>277</ele>
        <time>2024-08-05T10:32:36Z</time>
      </trkpt>
      <trkpt lat="47.16567" lon="5.92942">
        <ele>277.2</ele>
        <time>2024-08-05T10:32:37Z</time>
      </trkpt>
      <trkpt lat="47.16567" lon="5.92945">
        <ele>277.4</ele>
        <time>2024-08-05T10:32:38Z</time>
      </trkpt>
      <trkpt lat="47.16568" lon="5.92947">
        <ele>277.6</ele>
        <time>2024-08-05T10:32:39Z</time>
      </trkpt>
      <trkpt lat="47.16569" lon="5.92949">
        <ele>277.6</ele>
        <time>2024-08-05T10:32:40Z</time>
      </trkpt>
      <trkpt lat="47.16569" lon="5.92952">
        <ele>277.6</ele>
        <time>2024-08-05T10:32:41Z</time>
      </trkpt>
      <trkpt lat="47.1657" lon="5.92954">
        <ele>277.6</ele>
        <time>2024-08-05T10:32:42Z</time>
      </trkpt>
      <trkpt lat="47.1657" lon="5.92956">
        <ele>277.6</ele>
        <time>2024-08-05T10:32:43Z</time>
      </trkpt>
      <trkpt lat="47.1657" lon="5.92958">
        <ele>277.6</ele>
        <time>2024-08-05T10:32:44Z</time>
      </trkpt>
      <trkpt lat="47.16571" lon="5.9296">
        <ele>277.6</ele>
        <time>2024-08-05T10:32:45Z</time>
      </trkpt>
      <trkpt lat="47.16571" lon="5.92962">
        <ele>277.6</ele>
        <time>2024-08-05T10:32:46Z</time>
      </trkpt>
      <trkpt lat="47.16572" lon="5.92964">
        <ele>277.6</ele>
        <time>2024-08-05T10:32:47Z</time>
      </trkpt>
      <trkpt lat="47.16573" lon="5.92966">
        <ele>277.6</ele>
        <time>2024-08-05T10:32:48Z</time>
      </trkpt>
      <trkpt lat="47.16574" lon="5.92968">
        <ele>277.6</ele>
        <time>2024-08-05T10:32:49Z</time>
      </trkpt>
      <trkpt lat="47.16576" lon="5.9297">
        <ele>277.8</ele>
        <time>2024-08-05T10:32:50Z</time>
      </trkpt>
      <trkpt lat="47.16576" lon="5.92973">
        <ele>278</ele>
        <time>2024-08-05T10:32:51Z</time>
      </trkpt>
      <trkpt lat="47.16578" lon="5.92975">
        <ele>278.2</ele>
        <time>2024-08-05T10:32:52Z</time>
      </trkpt>
      <trkpt lat="47.16579" lon="5.92978">
        <ele>278.4</ele>
        <time>2024-08-05T10:32:53Z</time>
      </trkpt>
      <trkpt lat="47.1658" lon="5.92981">
        <ele>278.6</ele>
        <time>2024-08-05T10:32:54Z</time>
      </trkpt>
      <trkpt lat="47.16581" lon="5.92983">
        <ele>278.4</ele>
        <time>2024-08-05T10:32:55Z</time>
      </trkpt>
      <trkpt lat="47.16583" lon="5.92986">
        <ele>278.6</ele>
        <time>2024-08-05T10:32:56Z</time>
      </trkpt>
      <trkpt lat="47.16584" lon="5.92988">
        <ele>278.6</ele>
        <time>2024-08-05T10:32:57Z</time>
      </trkpt>
      <trkpt lat="47.16585" lon="5.9299">
        <ele>278.6</ele>
        <time>2024-08-05T10:32:58Z</time>
      </trkpt>
      <trkpt lat="47.16586" lon="5.92992">
        <ele>278.6</ele>
        <time>2024-08-05T10:32:59Z</time>
      </trkpt>
      <trkpt lat="47.16587" lon="5.92994">
        <ele>278.8</ele>
        <time>2024-08-05T10:33:00Z</time>
      </trkpt>
      <trkpt lat="47.16588" lon="5.92996">
        <ele>278.8</ele>
        <time>2024-08-05T10:33:01Z</time>
      </trkpt>
      <trkpt lat="47.16588" lon="5.92998">
        <ele>278.6</ele>
        <time>2024-08-05T10:33:02Z</time>
      </trkpt>
      <trkpt lat="47.16589" lon="5.93">
        <ele>278.8</ele>
        <time>2024-08-05T10:33:03Z</time>
      </trkpt>
      <trkpt lat="47.16589" lon="5.93002">
        <ele>278.8</ele>
        <time>2024-08-05T10:33:04Z</time>
      </trkpt>
      <trkpt lat="47.1659" lon="5.93004">
        <ele>278.8</ele>
        <time>2024-08-05T10:33:05Z</time>
      </trkpt>
      <trkpt lat="47.16591" lon="5.93006">
        <ele>278.8</ele>
        <time>2024-08-05T10:33:06Z</time>
      </trkpt>
      <trkpt lat="47.16592" lon="5.93008">
        <ele>278.8</ele>
        <time>2024-08-05T10:33:07Z</time>
      </trkpt>
      <trkpt lat="47.16593" lon="5.9301">
        <ele>279</ele>
        <time>2024-08-05T10:33:08Z</time>
      </trkpt>
      <trkpt lat="47.16594" lon="5.93012">
        <ele>279.2</ele>
        <time>2024-08-05T10:33:09Z</time>
      </trkpt>
      <trkpt lat="47.16596" lon="5.93014">
        <ele>279</ele>
        <time>2024-08-05T10:33:10Z</time>
      </trkpt>
      <trkpt lat="47.16598" lon="5.93016">
        <ele>279</ele>
        <time>2024-08-05T10:33:11Z</time>
      </trkpt>
      <trkpt lat="47.166" lon="5.93019">
        <ele>279.2</ele>
        <time>2024-08-05T10:33:12Z</time>
      </trkpt>
      <trkpt lat="47.16602" lon="5.93021">
        <ele>279.2</ele>
        <time>2024-08-05T10:33:13Z</time>
      </trkpt>
      <trkpt lat="47.16603" lon="5.93024">
        <ele>279.2</ele>
        <time>2024-08-05T10:33:14Z</time>
      </trkpt>
      <trkpt lat="47.16604" lon="5.93027">
        <ele>279.2</ele>
        <time>2024-08-05T10:33:15Z</time>
      </trkpt>
      <trkpt lat="47.16605" lon="5.93029">
        <ele>279.4</ele>
        <time>2024-08-05T10:33:16Z</time>
      </trkpt>
      <trkpt lat="47.16606" lon="5.93031">
        <ele>279.2</ele>
        <time>2024-08-05T10:33:17Z</time>
      </trkpt>
      <trkpt lat="47.16607" lon="5.93034">
        <ele>279.2</ele>
        <time>2024-08-05T10:33:18Z</time>
      </trkpt>
      <trkpt lat="47.16608" lon="5.93036">
        <ele>279.4</ele>
        <time>2024-08-05T10:33:19Z</time>
      </trkpt>
      <trkpt lat="47.16609" lon="5.9304">
        <ele>279.6</ele>
        <time>2024-08-05T10:33:20Z</time>
      </trkpt>
      <trkpt lat="47.1661" lon="5.93043">
        <ele>279.6</ele>
        <time>2024-08-05T10:33:21Z</time>
      </trkpt>
      <trkpt lat="47.16612" lon="5.93046">
        <ele>279.6</ele>
        <time>2024-08-05T10:33:22Z</time>
      </trkpt>
      <trkpt lat="47.16613" lon="5.93049">
        <ele>279.6</ele>
        <time>2024-08-05T10:33:23Z</time>
      </trkpt>
      <trkpt lat="47.16614" lon="5.93051">
        <ele>279.6</ele>
        <time>2024-08-05T10:33:24Z</time>
      </trkpt>
      <trkpt lat="47.16615" lon="5.93054">
        <ele>279.8</ele>
        <time>2024-08-05T10:33:25Z</time>
      </trkpt>
      <trkpt lat="47.16617" lon="5.93056">
        <ele>279.6</ele>
        <time>2024-08-05T10:33:26Z</time>
      </trkpt>
      <trkpt lat="47.16619" lon="5.93059">
        <ele>279.8</ele>
        <time>2024-08-05T10:33:27Z</time>
      </trkpt>
      <trkpt lat="47.1662" lon="5.93062">
        <ele>280</ele>
        <time>2024-08-05T10:33:28Z</time>
      </trkpt>
      <trkpt lat="47.16622" lon="5.93065">
        <ele>280</ele>
        <time>2024-08-05T10:33:29Z</time>
      </trkpt>
      <trkpt lat="47.16623" lon="5.93068">
        <ele>280</ele>
        <time>2024-08-05T10:33:30Z</time>
      </trkpt>
      <trkpt lat="47.16624" lon="5.93071">
        <ele>280</ele>
        <time>2024-08-05T10:33:31Z</time>
      </trkpt>
      <trkpt lat="47.16626" lon="5.93074">
        <ele>280</ele>
        <time>2024-08-05T10:33:32Z</time>
      </trkpt>
      <trkpt lat="47.16627" lon="5.93077">
        <ele>280</ele>
        <time>2024-08-05T10:33:33Z</time>
      </trkpt>
      <trkpt lat="47.16628" lon="5.93081">
        <ele>279.8</ele>
        <time>2024-08-05T10:33:34Z</time>
      </trkpt>
      <trkpt lat="47.16629" lon="5.93084">
        <ele>280</ele>
        <time>2024-08-05T10:33:35Z</time>
      </trkpt>
      <trkpt lat="47.1663" lon="5.93088">
        <ele>280</ele>
        <time>2024-08-05T10:33:36Z</time>
      </trkpt>
      <trkpt lat="47.16631" lon="5.93091">
        <ele>279.8</ele>
        <time>2024-08-05T10:33:37Z</time>
      </trkpt>
      <trkpt lat="47.16632" lon="5.93094">
        <ele>279.8</ele>
        <time>2024-08-05T10:33:38Z</time>
      </trkpt>
      <trkpt lat="47.16633" lon="5.93097">
        <ele>280</ele>
        <time>2024-08-05T10:33:39Z</time>
      </trkpt>
      <trkpt lat="47.16634" lon="5.931">
        <ele>279.8</ele>
        <time>2024-08-05T10:33:40Z</time>
      </trkpt>
      <trkpt lat="47.16634" lon="5.93103">
        <ele>279.8</ele>
        <time>2024-08-05T10:33:41Z</time>
      </trkpt>
      <trkpt lat="47.16635" lon="5.93105">
        <ele>279.8</ele>
        <time>2024-08-05T10:33:42Z</time>
      </trkpt>
      <trkpt lat="47.16636" lon="5.93108">
        <ele>279.8</ele>
        <time>2024-08-05T10:33:43Z</time>
      </trkpt>
      <trkpt lat="47.16636" lon="5.9311">
        <ele>279.8</ele>
        <time>2024-08-05T10:33:44Z</time>
      </trkpt>
      <trkpt lat="47.16637" lon="5.93113">
        <ele>279.8</ele>
        <time>2024-08-05T10:33:45Z</time>
      </trkpt>
      <trkpt lat="47.16638" lon="5.93117">
        <ele>279.6</ele>
        <time>2024-08-05T10:33:46Z</time>
      </trkpt>
      <trkpt lat="47.16639" lon="5.9312">
        <ele>279.6</ele>
        <time>2024-08-05T10:33:47Z</time>
      </trkpt>
      <trkpt lat="47.1664" lon="5.93126">
        <ele>279.6</ele>
        <time>2024-08-05T10:33:48Z</time>
      </trkpt>
      <trkpt lat="47.16642" lon="5.93133">
        <ele>279.4</ele>
        <time>2024-08-05T10:33:49Z</time>
      </trkpt>
      <trkpt lat="47.16644" lon="5.9314">
        <ele>279.6</ele>
        <time>2024-08-05T10:33:50Z</time>
      </trkpt>
      <trkpt lat="47.16647" lon="5.93146">
        <ele>279.4</ele>
        <time>2024-08-05T10:33:51Z</time>
      </trkpt>
      <trkpt lat="47.1665" lon="5.93152">
        <ele>279.4</ele>
        <time>2024-08-05T10:33:52Z</time>
      </trkpt>
      <trkpt lat="47.16653" lon="5.93158">
        <ele>279.2</ele>
        <time>2024-08-05T10:33:53Z</time>
      </trkpt>
      <trkpt lat="47.16656" lon="5.93163">
        <ele>279</ele>
        <time>2024-08-05T10:33:54Z</time>
      </trkpt>
      <trkpt lat="47.16658" lon="5.93168">
        <ele>279</ele>
        <time>2024-08-05T10:33:55Z</time>
      </trkpt>
      <trkpt lat="47.16661" lon="5.93172">
        <ele>278.8</ele>
        <time>2024-08-05T10:33:56Z</time>
      </trkpt>
      <trkpt lat="47.16664" lon="5.93177">
        <ele>278.6</ele>
        <time>2024-08-05T10:33:57Z</time>
      </trkpt>
      <trkpt lat="47.16667" lon="5.93181">
        <ele>278.2</ele>
        <time>2024-08-05T10:33:58Z</time>
      </trkpt>
      <trkpt lat="47.16668" lon="5.93184">
        <ele>278</ele>
        <time>2024-08-05T10:33:59Z</time>
      </trkpt>
      <trkpt lat="47.1667" lon="5.93187">
        <ele>277.8</ele>
        <time>2024-08-05T10:34:00Z</time>
      </trkpt>
      <trkpt lat="47.16671" lon="5.93189">
        <ele>278</ele>
        <time>2024-08-05T10:34:01Z</time>
      </trkpt>
      <trkpt lat="47.16671" lon="5.93191">
        <ele>278</ele>
        <time>2024-08-05T10:34:02Z</time>
      </trkpt>
      <trkpt lat="47.16672" lon="5.93193">
        <ele>277.8</ele>
        <time>2024-08-05T10:34:03Z</time>
      </trkpt>
      <trkpt lat="47.16673" lon="5.93195">
        <ele>277.8</ele>
        <time>2024-08-05T10:34:04Z</time>
      </trkpt>
      <trkpt lat="47.16675" lon="5.93197">
        <ele>277.8</ele>
        <time>2024-08-05T10:34:05Z</time>
      </trkpt>
      <trkpt lat="47.16676" lon="5.93199">
        <ele>277.8</ele>
        <time>2024-08-05T10:34:06Z</time>
      </trkpt>
      <trkpt lat="47.16677" lon="5.93201">
        <ele>277.8</ele>
        <time>2024-08-05T10:34:07Z</time>
      </trkpt>
      <trkpt lat="47.16679" lon="5.93204">
        <ele>278</ele>
        <time>2024-08-05T10:34:08Z</time>
      </trkpt>
      <trkpt lat="47.16681" lon="5.93206">
        <ele>278.2</ele>
        <time>2024-08-05T10:34:09Z</time>
      </trkpt>
      <trkpt lat="47.16683" lon="5.93208">
        <ele>278.6</ele>
        <time>2024-08-05T10:34:10Z</time>
      </trkpt>
      <trkpt lat="47.16686" lon="5.9321">
        <ele>278.8</ele>
        <time>2024-08-05T10:34:11Z</time>
      </trkpt>
      <trkpt lat="47.16688" lon="5.93212">
        <ele>279</ele>
        <time>2024-08-05T10:34:12Z</time>
      </trkpt>
      <trkpt lat="47.1669" lon="5.93213">
        <ele>279</ele>
        <time>2024-08-05T10:34:13Z</time>
      </trkpt>
      <trkpt lat="47.16692" lon="5.93215">
        <ele>279</ele>
        <time>2024-08-05T10:34:14Z</time>
      </trkpt>
      <trkpt lat="47.16694" lon="5.93217">
        <ele>279.2</ele>
        <time>2024-08-05T10:34:15Z</time>
      </trkpt>
      <trkpt lat="47.16696" lon="5.9322">
        <ele>279.2</ele>
        <time>2024-08-05T10:34:16Z</time>
      </trkpt>
      <trkpt lat="47.16698" lon="5.93222">
        <ele>279.4</ele>
        <time>2024-08-05T10:34:17Z</time>
      </trkpt>
      <trkpt lat="47.16699" lon="5.93224">
        <ele>279.4</ele>
        <time>2024-08-05T10:34:18Z</time>
      </trkpt>
      <trkpt lat="47.167" lon="5.93227">
        <ele>279.4</ele>
        <time>2024-08-05T10:34:19Z</time>
      </trkpt>
      <trkpt lat="47.16702" lon="5.9323">
        <ele>279.6</ele>
        <time>2024-08-05T10:34:20Z</time>
      </trkpt>
      <trkpt lat="47.16703" lon="5.93232">
        <ele>279.4</ele>
        <time>2024-08-05T10:34:21Z</time>
      </trkpt>
      <trkpt lat="47.16704" lon="5.93234">
        <ele>279.4</ele>
        <time>2024-08-05T10:34:22Z</time>
      </trkpt>
      <trkpt lat="47.16705" lon="5.93236">
        <ele>279.4</ele>
        <time>2024-08-05T10:34:23Z</time>
      </trkpt>
      <trkpt lat="47.16706" lon="5.93238">
        <ele>279.6</ele>
        <time>2024-08-05T10:34:24Z</time>
      </trkpt>
      <trkpt lat="47.16708" lon="5.9324">
        <ele>279.6</ele>
        <time>2024-08-05T10:34:25Z</time>
      </trkpt>
      <trkpt lat="47.16709" lon="5.93242">
        <ele>279.8</ele>
        <time>2024-08-05T10:34:26Z</time>
      </trkpt>
      <trkpt lat="47.1671" lon="5.93244">
        <ele>279.6</ele>
        <time>2024-08-05T10:34:27Z</time>
      </trkpt>
      <trkpt lat="47.16712" lon="5.93246">
        <ele>279.8</ele>
        <time>2024-08-05T10:34:28Z</time>
      </trkpt>
      <trkpt lat="47.16713" lon="5.93247">
        <ele>279.8</ele>
        <time>2024-08-05T10:34:29Z</time>
      </trkpt>
      <trkpt lat="47.16714" lon="5.93249">
        <ele>280</ele>
        <time>2024-08-05T10:34:30Z</time>
      </trkpt>
      <trkpt lat="47.16715" lon="5.93251">
        <ele>279.8</ele>
        <time>2024-08-05T10:34:31Z</time>
      </trkpt>
      <trkpt lat="47.16716" lon="5.93253">
        <ele>280</ele>
        <time>2024-08-05T10:34:32Z</time>
      </trkpt>
      <trkpt lat="47.16716" lon="5.93256">
        <ele>280.2</ele>
        <time>2024-08-05T10:34:33Z</time>
      </trkpt>
      <trkpt lat="47.16717" lon="5.93257">
        <ele>280.2</ele>
        <time>2024-08-05T10:34:34Z</time>
      </trkpt>
      <trkpt lat="47.16718" lon="5.93259">
        <ele>280.4</ele>
        <time>2024-08-05T10:34:35Z</time>
      </trkpt>
      <trkpt lat="47.16718" lon="5.93261">
        <ele>280.4</ele>
        <time>2024-08-05T10:34:36Z</time>
      </trkpt>
      <trkpt lat="47.16719" lon="5.93263">
        <ele>280.6</ele>
        <time>2024-08-05T10:34:37Z</time>
      </trkpt>
      <trkpt lat="47.1672" lon="5.93264">
        <ele>280.6</ele>
        <time>2024-08-05T10:34:38Z</time>
      </trkpt>
      <trkpt lat="47.16721" lon="5.93266">
        <ele>280.8</ele>
        <time>2024-08-05T10:34:39Z</time>
      </trkpt>
      <trkpt lat="47.16723" lon="5.93268">
        <ele>280.8</ele>
        <time>2024-08-05T10:34:40Z</time>
      </trkpt>
      <trkpt lat="47.16724" lon="5.9327">
        <ele>281.2</ele>
        <time>2024-08-05T10:34:41Z</time>
      </trkpt>
      <trkpt lat="47.16725" lon="5.93272">
        <ele>281.4</ele>
        <time>2024-08-05T10:34:42Z</time>
      </trkpt>
      <trkpt lat="47.16726" lon="5.93274">
        <ele>281.4</ele>
        <time>2024-08-05T10:34:43Z</time>
      </trkpt>
      <trkpt lat="47.16727" lon="5.93276">
        <ele>281.8</ele>
        <time>2024-08-05T10:34:44Z</time>
      </trkpt>
      <trkpt lat="47.16728" lon="5.93278">
        <ele>282</ele>
        <time>2024-08-05T10:34:45Z</time>
      </trkpt>
      <trkpt lat="47.16729" lon="5.9328">
        <ele>282</ele>
        <time>2024-08-05T10:34:46Z</time>
      </trkpt>
      <trkpt lat="47.1673" lon="5.93282">
        <ele>282.2</ele>
        <time>2024-08-05T10:34:47Z</time>
      </trkpt>
      <trkpt lat="47.16731" lon="5.93284">
        <ele>282.4</ele>
        <time>2024-08-05T10:34:48Z</time>
      </trkpt>
      <trkpt lat="47.16731" lon="5.93285">
        <ele>282.6</ele>
        <time>2024-08-05T10:34:49Z</time>
      </trkpt>
      <trkpt lat="47.16732" lon="5.93287">
        <ele>282.8</ele>
        <time>2024-08-05T10:34:50Z</time>
      </trkpt>
      <trkpt lat="47.16733" lon="5.93289">
        <ele>282.8</ele>
        <time>2024-08-05T10:34:51Z</time>
      </trkpt>
      <trkpt lat="47.16734" lon="5.93291">
        <ele>283.2</ele>
        <time>2024-08-05T10:34:52Z</time>
      </trkpt>
      <trkpt lat="47.16734" lon="5.93292">
        <ele>283.2</ele>
        <time>2024-08-05T10:34:53Z</time>
      </trkpt>
      <trkpt lat="47.16735" lon="5.93294">
        <ele>283.6</ele>
        <time>2024-08-05T10:34:54Z</time>
      </trkpt>
      <trkpt lat="47.16735" lon="5.93295">
        <ele>283.6</ele>
        <time>2024-08-05T10:34:55Z</time>
      </trkpt>
      <trkpt lat="47.16736" lon="5.93296">
        <ele>284</ele>
        <time>2024-08-05T10:34:56Z</time>
      </trkpt>
      <trkpt lat="47.16736" lon="5.93298">
        <ele>284.4</ele>
        <time>2024-08-05T10:34:57Z</time>
      </trkpt>
      <trkpt lat="47.16737" lon="5.93299">
        <ele>284.4</ele>
        <time>2024-08-05T10:34:58Z</time>
      </trkpt>
      <trkpt lat="47.16739" lon="5.933">
        <ele>284.6</ele>
        <time>2024-08-05T10:34:59Z</time>
      </trkpt>
      <trkpt lat="47.16741" lon="5.93302">
        <ele>284.6</ele>
        <time>2024-08-05T10:35:00Z</time>
      </trkpt>
      <trkpt lat="47.16742" lon="5.93304">
        <ele>285</ele>
        <time>2024-08-05T10:35:01Z</time>
      </trkpt>
      <trkpt lat="47.16743" lon="5.93305">
        <ele>285</ele>
        <time>2024-08-05T10:35:02Z</time>
      </trkpt>
      <trkpt lat="47.16745" lon="5.93307">
        <ele>285.4</ele>
        <time>2024-08-05T10:35:03Z</time>
      </trkpt>
      <trkpt lat="47.16746" lon="5.93309">
        <ele>285.6</ele>
        <time>2024-08-05T10:35:04Z</time>
      </trkpt>
      <trkpt lat="47.16747" lon="5.93311">
        <ele>285.8</ele>
        <time>2024-08-05T10:35:05Z</time>
      </trkpt>
      <trkpt lat="47.16747" lon="5.93312">
        <ele>286</ele>
        <time>2024-08-05T10:35:06Z</time>
      </trkpt>
      <trkpt lat="47.16748" lon="5.93314">
        <ele>286.2</ele>
        <time>2024-08-05T10:35:07Z</time>
      </trkpt>
      <trkpt lat="47.1675" lon="5.93316">
        <ele>286.2</ele>
        <time>2024-08-05T10:35:08Z</time>
      </trkpt>
      <trkpt lat="47.1675" lon="5.93317">
        <ele>286.4</ele>
        <time>2024-08-05T10:35:09Z</time>
      </trkpt>
      <trkpt lat="47.16751" lon="5.93318">
        <ele>286.4</ele>
        <time>2024-08-05T10:35:10Z</time>
      </trkpt>
      <trkpt lat="47.16753" lon="5.9332">
        <ele>286.2</ele>
        <time>2024-08-05T10:35:11Z</time>
      </trkpt>
      <trkpt lat="47.16754" lon="5.93321">
        <ele>286.4</ele>
        <time>2024-08-05T10:35:12Z</time>
      </trkpt>
      <trkpt lat="47.16755" lon="5.93323">
        <ele>286.2</ele>
        <time>2024-08-05T10:35:13Z</time>
      </trkpt>
      <trkpt lat="47.16756" lon="5.93325">
        <ele>286.2</ele>
        <time>2024-08-05T10:35:14Z</time>
      </trkpt>
      <trkpt lat="47.16757" lon="5.93326">
        <ele>286.2</ele>
        <time>2024-08-05T10:35:15Z</time>
      </trkpt>
      <trkpt lat="47.16758" lon="5.93328">
        <ele>286.4</ele>
        <time>2024-08-05T10:35:16Z</time>
      </trkpt>
      <trkpt lat="47.16759" lon="5.93329">
        <ele>286.4</ele>
        <time>2024-08-05T10:35:17Z</time>
      </trkpt>
      <trkpt lat="47.16759" lon="5.93331">
        <ele>286.6</ele>
        <time>2024-08-05T10:35:18Z</time>
      </trkpt>
      <trkpt lat="47.1676" lon="5.93332">
        <ele>286.4</ele>
        <time>2024-08-05T10:35:19Z</time>
      </trkpt>
      <trkpt lat="47.1676" lon="5.93333">
        <ele>286.4</ele>
        <time>2024-08-05T10:35:20Z</time>
      </trkpt>
      <trkpt lat="47.16761" lon="5.93334">
        <ele>286.6</ele>
        <time>2024-08-05T10:35:21Z</time>
      </trkpt>
      <trkpt lat="47.16761" lon="5.93334">
        <ele>286.6</ele>
        <time>2024-08-05T10:35:22Z</time>
      </trkpt>
      <trkpt lat="47.16762" lon="5.93335">
        <ele>286.8</ele>
        <time>2024-08-05T10:35:23Z</time>
      </trkpt>
      <trkpt lat="47.16762" lon="5.93335">
        <ele>287</ele>
        <time>2024-08-05T10:35:24Z</time>
      </trkpt>
      <trkpt lat="47.16763" lon="5.93336">
        <ele>287.2</ele>
        <time>2024-08-05T10:35:25Z</time>
      </trkpt>
      <trkpt lat="47.16763" lon="5.93338">
        <ele>287.4</ele>
        <time>2024-08-05T10:35:26Z</time>
      </trkpt>
      <trkpt lat="47.16764" lon="5.93339">
        <ele>287.8</ele>
        <time>2024-08-05T10:35:27Z</time>
      </trkpt>
      <trkpt lat="47.16765" lon="5.9334">
        <ele>288</ele>
        <time>2024-08-05T10:35:28Z</time>
      </trkpt>
      <trkpt lat="47.16765" lon="5.93342">
        <ele>288.2</ele>
        <time>2024-08-05T10:35:29Z</time>
      </trkpt>
      <trkpt lat="47.16766" lon="5.93345">
        <ele>288.6</ele>
        <time>2024-08-05T10:35:30Z</time>
      </trkpt>
      <trkpt lat="47.16767" lon="5.93347">
        <ele>288.6</ele>
        <time>2024-08-05T10:35:31Z</time>
      </trkpt>
      <trkpt lat="47.16768" lon="5.93348">
        <ele>288.8</ele>
        <time>2024-08-05T10:35:32Z</time>
      </trkpt>
      <trkpt lat="47.16769" lon="5.9335">
        <ele>289</ele>
        <time>2024-08-05T10:35:33Z</time>
      </trkpt>
      <trkpt lat="47.1677" lon="5.93351">
        <ele>289.4</ele>
        <time>2024-08-05T10:35:34Z</time>
      </trkpt>
      <trkpt lat="47.16771" lon="5.93352">
        <ele>289.8</ele>
        <time>2024-08-05T10:35:35Z</time>
      </trkpt>
      <trkpt lat="47.16772" lon="5.93354">
        <ele>289.8</ele>
        <time>2024-08-05T10:35:36Z</time>
      </trkpt>
      <trkpt lat="47.16773" lon="5.93356">
        <ele>290.2</ele>
        <time>2024-08-05T10:35:37Z</time>
      </trkpt>
      <trkpt lat="47.16774" lon="5.93358">
        <ele>290.4</ele>
        <time>2024-08-05T10:35:38Z</time>
      </trkpt>
      <trkpt lat="47.16774" lon="5.9336">
        <ele>290.6</ele>
        <time>2024-08-05T10:35:39Z</time>
      </trkpt>
      <trkpt lat="47.16774" lon="5.93361">
        <ele>290.8</ele>
        <time>2024-08-05T10:35:40Z</time>
      </trkpt>
      <trkpt lat="47.16775" lon="5.93362">
        <ele>291</ele>
        <time>2024-08-05T10:35:41Z</time>
      </trkpt>
      <trkpt lat="47.16774" lon="5.93365">
        <ele>291.4</ele>
        <time>2024-08-05T10:35:42Z</time>
      </trkpt>
      <trkpt lat="47.16775" lon="5.93366">
        <ele>291.6</ele>
        <time>2024-08-05T10:35:43Z</time>
      </trkpt>
      <trkpt lat="47.16775" lon="5.93368">
        <ele>291.6</ele>
        <time>2024-08-05T10:35:44Z</time>
      </trkpt>
      <trkpt lat="47.16775" lon="5.9337">
        <ele>291.6</ele>
        <time>2024-08-05T10:35:45Z</time>
      </trkpt>
      <trkpt lat="47.16775" lon="5.93372">
        <ele>292</ele>
        <time>2024-08-05T10:35:46Z</time>
      </trkpt>
      <trkpt lat="47.16774" lon="5.93374">
        <ele>292.2</ele>
        <time>2024-08-05T10:35:47Z</time>
      </trkpt>
      <trkpt lat="47.16773" lon="5.93375">
        <ele>292.6</ele>
        <time>2024-08-05T10:35:48Z</time>
      </trkpt>
      <trkpt lat="47.16773" lon="5.93376">
        <ele>293</ele>
        <time>2024-08-05T10:35:49Z</time>
      </trkpt>
      <trkpt lat="47.16773" lon="5.93377">
        <ele>293.2</ele>
        <time>2024-08-05T10:35:50Z</time>
      </trkpt>
      <trkpt lat="47.16773" lon="5.93379">
        <ele>293.6</ele>
        <time>2024-08-05T10:35:51Z</time>
      </trkpt>
      <trkpt lat="47.16772" lon="5.9338">
        <ele>293.8</ele>
        <time>2024-08-05T10:35:52Z</time>
      </trkpt>
      <trkpt lat="47.16772" lon="5.93382">
        <ele>294</ele>
        <time>2024-08-05T10:35:53Z</time>
      </trkpt>
      <trkpt lat="47.16773" lon="5.93384">
        <ele>294.4</ele>
        <time>2024-08-05T10:35:54Z</time>
      </trkpt>
      <trkpt lat="47.16774" lon="5.93386">
        <ele>294.8</ele>
        <time>2024-08-05T10:35:55Z</time>
      </trkpt>
      <trkpt lat="47.16776" lon="5.93388">
        <ele>295</ele>
        <time>2024-08-05T10:35:56Z</time>
      </trkpt>
      <trkpt lat="47.16778" lon="5.9339">
        <ele>295</ele>
        <time>2024-08-05T10:35:57Z</time>
      </trkpt>
      <trkpt lat="47.1678" lon="5.93392">
        <ele>295.2</ele>
        <time>2024-08-05T10:35:58Z</time>
      </trkpt>
      <trkpt lat="47.16781" lon="5.93394">
        <ele>295</ele>
        <time>2024-08-05T10:35:59Z</time>
      </trkpt>
      <trkpt lat="47.16782" lon="5.93395">
        <ele>295.2</ele>
        <time>2024-08-05T10:36:00Z</time>
      </trkpt>
      <trkpt lat="47.16782" lon="5.93396">
        <ele>295.2</ele>
        <time>2024-08-05T10:36:01Z</time>
      </trkpt>
      <trkpt lat="47.16783" lon="5.93398">
        <ele>295.4</ele>
        <time>2024-08-05T10:36:02Z</time>
      </trkpt>
      <trkpt lat="47.16784" lon="5.93399">
        <ele>295.6</ele>
        <time>2024-08-05T10:36:03Z</time>
      </trkpt>
      <trkpt lat="47.16784" lon="5.93401">
        <ele>295.6</ele>
        <time>2024-08-05T10:36:04Z</time>
      </trkpt>
      <trkpt lat="47.16785" lon="5.93402">
        <ele>295.6</ele>
        <time>2024-08-05T10:36:05Z</time>
      </trkpt>
      <trkpt lat="47.16785" lon="5.93403">
        <ele>295.8</ele>
        <time>2024-08-05T10:36:06Z</time>
      </trkpt>
      <trkpt lat="47.16785" lon="5.93404">
        <ele>295.8</ele>
        <time>2024-08-05T10:36:07Z</time>
      </trkpt>
      <trkpt lat="47.16785" lon="5.93405">
        <ele>296</ele>
        <time>2024-08-05T10:36:08Z</time>
      </trkpt>
      <trkpt lat="47.16787" lon="5.93407">
        <ele>296.2</ele>
        <time>2024-08-05T10:36:09Z</time>
      </trkpt>
      <trkpt lat="47.16787" lon="5.93408">
        <ele>296.4</ele>
        <time>2024-08-05T10:36:10Z</time>
      </trkpt>
      <trkpt lat="47.16788" lon="5.93409">
        <ele>296.6</ele>
        <time>2024-08-05T10:36:11Z</time>
      </trkpt>
      <trkpt lat="47.16788" lon="5.9341">
        <ele>296.6</ele>
        <time>2024-08-05T10:36:12Z</time>
      </trkpt>
      <trkpt lat="47.16788" lon="5.9341">
        <ele>296.8</ele>
        <time>2024-08-05T10:36:13Z</time>
      </trkpt>
      <trkpt lat="47.16788" lon="5.93411">
        <ele>296.8</ele>
        <time>2024-08-05T10:36:14Z</time>
      </trkpt>
      <trkpt lat="47.16788" lon="5.93412">
        <ele>297</ele>
        <time>2024-08-05T10:36:15Z</time>
      </trkpt>
      <trkpt lat="47.16788" lon="5.93413">
        <ele>297.2</ele>
        <time>2024-08-05T10:36:16Z</time>
      </trkpt>
      <trkpt lat="47.16788" lon="5.93414">
        <ele>297.4</ele>
        <time>2024-08-05T10:36:17Z</time>
      </trkpt>
      <trkpt lat="47.16788" lon="5.93415">
        <ele>297.6</ele>
        <time>2024-08-05T10:36:18Z</time>
      </trkpt>
      <trkpt lat="47.16788" lon="5.93417">
        <ele>297.8</ele>
        <time>2024-08-05T10:36:19Z</time>
      </trkpt>
      <trkpt lat="47.16787" lon="5.93417">
        <ele>297.8</ele>
        <time>2024-08-05T10:36:20Z</time>
      </trkpt>
      <trkpt lat="47.16786" lon="5.93417">
        <ele>298</ele>
        <time>2024-08-05T10:36:21Z</time>
      </trkpt>
      <trkpt lat="47.16786" lon="5.93418">
        <ele>298.2</ele>
        <time>2024-08-05T10:36:22Z</time>
      </trkpt>
      <trkpt lat="47.16786" lon="5.93419">
        <ele>298.2</ele>
        <time>2024-08-05T10:36:23Z</time>
      </trkpt>
      <trkpt lat="47.16786" lon="5.9342">
        <ele>298.6</ele>
        <time>2024-08-05T10:36:24Z</time>
      </trkpt>
      <trkpt lat="47.16787" lon="5.93421">
        <ele>298.6</ele>
        <time>2024-08-05T10:36:25Z</time>
      </trkpt>
      <trkpt lat="47.16787" lon="5.93421">
        <ele>298.6</ele>
        <time>2024-08-05T10:36:26Z</time>
      </trkpt>
      <trkpt lat="47.16787" lon="5.93421">
        <ele>298.6</ele>
        <time>2024-08-05T10:36:27Z</time>
      </trkpt>
      <trkpt lat="47.16787" lon="5.93421">
        <ele>298.8</ele>
        <time>2024-08-05T10:36:28Z</time>
      </trkpt>
      <trkpt lat="47.16787" lon="5.9342">
        <ele>298.8</ele>
        <time>2024-08-05T10:36:29Z</time>
      </trkpt>
      <trkpt lat="47.16787" lon="5.93421">
        <ele>299.2</ele>
        <time>2024-08-05T10:36:30Z</time>
      </trkpt>
      <trkpt lat="47.16787" lon="5.93421">
        <ele>299.4</ele>
        <time>2024-08-05T10:36:31Z</time>
      </trkpt>
      <trkpt lat="47.16787" lon="5.93421">
        <ele>299.4</ele>
        <time>2024-08-05T10:36:32Z</time>
      </trkpt>
      <trkpt lat="47.16788" lon="5.93422">
        <ele>299.6</ele>
        <time>2024-08-05T10:36:33Z</time>
      </trkpt>
      <trkpt lat="47.16789" lon="5.93423">
        <ele>299.6</ele>
        <time>2024-08-05T10:36:34Z</time>
      </trkpt>
      <trkpt lat="47.16789" lon="5.93423">
        <ele>299.6</ele>
        <time>2024-08-05T10:36:35Z</time>
      </trkpt>
      <trkpt lat="47.1679" lon="5.93424">
        <ele>299.6</ele>
        <time>2024-08-05T10:36:36Z</time>
      </trkpt>
      <trkpt lat="47.1679" lon="5.93424">
        <ele>299.8</ele>
        <time>2024-08-05T10:36:37Z</time>
      </trkpt>
      <trkpt lat="47.1679" lon="5.93425">
        <ele>299.6</ele>
        <time>2024-08-05T10:36:38Z</time>
      </trkpt>
      <trkpt lat="47.1679" lon="5.93427">
        <ele>299.6</ele>
        <time>2024-08-05T10:36:39Z</time>
      </trkpt>
      <trkpt lat="47.1679" lon="5.93428">
        <ele>299.6</ele>
        <time>2024-08-05T10:36:40Z</time>
      </trkpt>
      <trkpt lat="47.16791" lon="5.9343">
        <ele>299.8</ele>
        <time>2024-08-05T10:36:41Z</time>
      </trkpt>
      <trkpt lat="47.16791" lon="5.93432">
        <ele>299.8</ele>
        <time>2024-08-05T10:36:42Z</time>
      </trkpt>
      <trkpt lat="47.16792" lon="5.93433">
        <ele>299.8</ele>
        <time>2024-08-05T10:36:43Z</time>
      </trkpt>
      <trkpt lat="47.16792" lon="5.93435">
        <ele>299.8</ele>
        <time>2024-08-05T10:36:44Z</time>
      </trkpt>
      <trkpt lat="47.16793" lon="5.93437">
        <ele>300</ele>
        <time>2024-08-05T10:36:45Z</time>
      </trkpt>
      <trkpt lat="47.16793" lon="5.93438">
        <ele>300.2</ele>
        <time>2024-08-05T10:36:46Z</time>
      </trkpt>
      <trkpt lat="47.16794" lon="5.93439">
        <ele>300.4</ele>
        <time>2024-08-05T10:36:47Z</time>
      </trkpt>
      <trkpt lat="47.16794" lon="5.93441">
        <ele>300.6</ele>
        <time>2024-08-05T10:36:48Z</time>
      </trkpt>
      <trkpt lat="47.16794" lon="5.93442">
        <ele>300.6</ele>
        <time>2024-08-05T10:36:49Z</time>
      </trkpt>
      <trkpt lat="47.16795" lon="5.93444">
        <ele>300.8</ele>
        <time>2024-08-05T10:36:50Z</time>
      </trkpt>
      <trkpt lat="47.16794" lon="5.93445">
        <ele>301</ele>
        <time>2024-08-05T10:36:51Z</time>
      </trkpt>
      <trkpt lat="47.16793" lon="5.93446">
        <ele>301</ele>
        <time>2024-08-05T10:36:52Z</time>
      </trkpt>
      <trkpt lat="47.16792" lon="5.93447">
        <ele>301.4</ele>
        <time>2024-08-05T10:36:53Z</time>
      </trkpt>
      <trkpt lat="47.16792" lon="5.9345">
        <ele>301.6</ele>
        <time>2024-08-05T10:36:54Z</time>
      </trkpt>
      <trkpt lat="47.16792" lon="5.93452">
        <ele>301.8</ele>
        <time>2024-08-05T10:36:55Z</time>
      </trkpt>
      <trkpt lat="47.16793" lon="5.93454">
        <ele>302</ele>
        <time>2024-08-05T10:36:56Z</time>
      </trkpt>
      <trkpt lat="47.16793" lon="5.93456">
        <ele>302</ele>
        <time>2024-08-05T10:36:57Z</time>
      </trkpt>
      <trkpt lat="47.16793" lon="5.93459">
        <ele>302.2</ele>
        <time>2024-08-05T10:36:58Z</time>
      </trkpt>
      <trkpt lat="47.16794" lon="5.93461">
        <ele>302.4</ele>
        <time>2024-08-05T10:36:59Z</time>
      </trkpt>
      <trkpt lat="47.16795" lon="5.93464">
        <ele>302.4</ele>
        <time>2024-08-05T10:37:00Z</time>
      </trkpt>
      <trkpt lat="47.16796" lon="5.93466">
        <ele>302.6</ele>
        <time>2024-08-05T10:37:01Z</time>
      </trkpt>
      <trkpt lat="47.16797" lon="5.93468">
        <ele>302.6</ele>
        <time>2024-08-05T10:37:02Z</time>
      </trkpt>
      <trkpt lat="47.16798" lon="5.9347">
        <ele>302.8</ele>
        <time>2024-08-05T10:37:03Z</time>
      </trkpt>
      <trkpt lat="47.16798" lon="5.93472">
        <ele>303</ele>
        <time>2024-08-05T10:37:04Z</time>
      </trkpt>
      <trkpt lat="47.16798" lon="5.93474">
        <ele>303.4</ele>
        <time>2024-08-05T10:37:05Z</time>
      </trkpt>
      <trkpt lat="47.16799" lon="5.93476">
        <ele>303.4</ele>
        <time>2024-08-05T10:37:06Z</time>
      </trkpt>
      <trkpt lat="47.168" lon="5.93479">
        <ele>303.4</ele>
        <time>2024-08-05T10:37:07Z</time>
      </trkpt>
      <trkpt lat="47.168" lon="5.9348">
        <ele>303.8</ele>
        <time>2024-08-05T10:37:08Z</time>
      </trkpt>
      <trkpt lat="47.168" lon="5.93483">
        <ele>303.8</ele>
        <time>2024-08-05T10:37:09Z</time>
      </trkpt>
      <trkpt lat="47.16801" lon="5.93485">
        <ele>304.2</ele>
        <time>2024-08-05T10:37:10Z</time>
      </trkpt>
      <trkpt lat="47.16802" lon="5.93488">
        <ele>304.2</ele>
        <time>2024-08-05T10:37:11Z</time>
      </trkpt>
      <trkpt lat="47.16802" lon="5.9349">
        <ele>304.4</ele>
        <time>2024-08-05T10:37:12Z</time>
      </trkpt>
      <trkpt lat="47.16803" lon="5.93492">
        <ele>304.6</ele>
        <time>2024-08-05T10:37:13Z</time>
      </trkpt>
      <trkpt lat="47.16803" lon="5.93495">
        <ele>304.8</ele>
        <time>2024-08-05T10:37:14Z</time>
      </trkpt>
      <trkpt lat="47.16803" lon="5.93497">
        <ele>304.8</ele>
        <time>2024-08-05T10:37:15Z</time>
      </trkpt>
      <trkpt lat="47.16803" lon="5.93499">
        <ele>305</ele>
        <time>2024-08-05T10:37:16Z</time>
      </trkpt>
      <trkpt lat="47.16804" lon="5.93501">
        <ele>305.2</ele>
        <time>2024-08-05T10:37:17Z</time>
      </trkpt>
      <trkpt lat="47.16804" lon="5.93503">
        <ele>305.2</ele>
        <time>2024-08-05T10:37:18Z</time>
      </trkpt>
      <trkpt lat="47.16804" lon="5.93506">
        <ele>305.6</ele>
        <time>2024-08-05T10:37:19Z</time>
      </trkpt>
      <trkpt lat="47.16805" lon="5.93508">
        <ele>305.6</ele>
        <time>2024-08-05T10:37:20Z</time>
      </trkpt>
      <trkpt lat="47.16805" lon="5.9351">
        <ele>305.8</ele>
        <time>2024-08-05T10:37:21Z</time>
      </trkpt>
      <trkpt lat="47.16806" lon="5.93513">
        <ele>306</ele>
        <time>2024-08-05T10:37:22Z</time>
      </trkpt>
      <trkpt lat="47.16806" lon="5.93515">
        <ele>306</ele>
        <time>2024-08-05T10:37:23Z</time>
      </trkpt>
      <trkpt lat="47.16806" lon="5.93517">
        <ele>306.2</ele>
        <time>2024-08-05T10:37:24Z</time>
      </trkpt>
      <trkpt lat="47.16807" lon="5.9352">
        <ele>306.4</ele>
        <time>2024-08-05T10:37:25Z</time>
      </trkpt>
      <trkpt lat="47.16807" lon="5.93522">
        <ele>306.4</ele>
        <time>2024-08-05T10:37:26Z</time>
      </trkpt>
      <trkpt lat="47.16807" lon="5.93524">
        <ele>306.8</ele>
        <time>2024-08-05T10:37:27Z</time>
      </trkpt>
      <trkpt lat="47.16807" lon="5.93527">
        <ele>307</ele>
        <time>2024-08-05T10:37:28Z</time>
      </trkpt>
      <trkpt lat="47.16807" lon="5.93529">
        <ele>307.2</ele>
        <time>2024-08-05T10:37:29Z</time>
      </trkpt>
      <trkpt lat="47.16807" lon="5.93531">
        <ele>307.4</ele>
        <time>2024-08-05T10:37:30Z</time>
      </trkpt>
      <trkpt lat="47.16807" lon="5.93532">
        <ele>307.6</ele>
        <time>2024-08-05T10:37:31Z</time>
      </trkpt>
      <trkpt lat="47.16807" lon="5.93533">
        <ele>307.8</ele>
        <time>2024-08-05T10:37:32Z</time>
      </trkpt>
      <trkpt lat="47.16808" lon="5.93536">
        <ele>307.8</ele>
        <time>2024-08-05T10:37:33Z</time>
      </trkpt>
      <trkpt lat="47.16808" lon="5.93537">
        <ele>308</ele>
        <time>2024-08-05T10:37:34Z</time>
      </trkpt>
      <trkpt lat="47.16808" lon="5.93538">
        <ele>308.2</ele>
        <time>2024-08-05T10:37:35Z</time>
      </trkpt>
      <trkpt lat="47.16809" lon="5.93541">
        <ele>308.6</ele>
        <time>2024-08-05T10:37:36Z</time>
      </trkpt>
      <trkpt lat="47.16809" lon="5.93543">
        <ele>308.8</ele>
        <time>2024-08-05T10:37:37Z</time>
      </trkpt>
      <trkpt lat="47.16809" lon="5.93545">
        <ele>309</ele>
        <time>2024-08-05T10:37:38Z</time>
      </trkpt>
      <trkpt lat="47.16808" lon="5.93545">
        <ele>309.2</ele>
        <time>2024-08-05T10:37:39Z</time>
      </trkpt>
      <trkpt lat="47.16808" lon="5.93546">
        <ele>309.2</ele>
        <time>2024-08-05T10:37:40Z</time>
      </trkpt>
      <trkpt lat="47.16809" lon="5.93548">
        <ele>309.4</ele>
        <time>2024-08-05T10:37:41Z</time>
      </trkpt>
      <trkpt lat="47.1681" lon="5.9355">
        <ele>309.6</ele>
        <time>2024-08-05T10:37:42Z</time>
      </trkpt>
      <trkpt lat="47.16811" lon="5.93552">
        <ele>309.8</ele>
        <time>2024-08-05T10:37:43Z</time>
      </trkpt>
      <trkpt lat="47.16811" lon="5.93554">
        <ele>310</ele>
        <time>2024-08-05T10:37:44Z</time>
      </trkpt>
      <trkpt lat="47.16812" lon="5.93557">
        <ele>310.4</ele>
        <time>2024-08-05T10:37:45Z</time>
      </trkpt>
      <trkpt lat="47.16813" lon="5.93559">
        <ele>310.4</ele>
        <time>2024-08-05T10:37:46Z</time>
      </trkpt>
      <trkpt lat="47.16814" lon="5.93561">
        <ele>310.6</ele>
        <time>2024-08-05T10:37:47Z</time>
      </trkpt>
      <trkpt lat="47.16814" lon="5.93563">
        <ele>310.8</ele>
        <time>2024-08-05T10:37:48Z</time>
      </trkpt>
      <trkpt lat="47.16815" lon="5.93566">
        <ele>311</ele>
        <time>2024-08-05T10:37:49Z</time>
      </trkpt>
      <trkpt lat="47.16815" lon="5.93568">
        <ele>311.2</ele>
        <time>2024-08-05T10:37:50Z</time>
      </trkpt>
      <trkpt lat="47.16815" lon="5.9357">
        <ele>311.2</ele>
        <time>2024-08-05T10:37:51Z</time>
      </trkpt>
      <trkpt lat="47.16816" lon="5.93572">
        <ele>311.4</ele>
        <time>2024-08-05T10:37:52Z</time>
      </trkpt>
      <trkpt lat="47.16816" lon="5.93574">
        <ele>311.4</ele>
        <time>2024-08-05T10:37:53Z</time>
      </trkpt>
      <trkpt lat="47.16817" lon="5.93575">
        <ele>311.8</ele>
        <time>2024-08-05T10:37:54Z</time>
      </trkpt>
      <trkpt lat="47.16817" lon="5.93578">
        <ele>311.8</ele>
        <time>2024-08-05T10:37:55Z</time>
      </trkpt>
      <trkpt lat="47.16818" lon="5.9358">
        <ele>311.8</ele>
        <time>2024-08-05T10:37:56Z</time>
      </trkpt>
      <trkpt lat="47.16818" lon="5.93581">
        <ele>312</ele>
        <time>2024-08-05T10:37:57Z</time>
      </trkpt>
      <trkpt lat="47.16819" lon="5.93583">
        <ele>312.2</ele>
        <time>2024-08-05T10:37:58Z</time>
      </trkpt>
      <trkpt lat="47.16819" lon="5.93586">
        <ele>312.4</ele>
        <time>2024-08-05T10:37:59Z</time>
      </trkpt>
      <trkpt lat="47.16819" lon="5.93588">
        <ele>312.6</ele>
        <time>2024-08-05T10:38:00Z</time>
      </trkpt>
      <trkpt lat="47.1682" lon="5.9359">
        <ele>312.8</ele>
        <time>2024-08-05T10:38:01Z</time>
      </trkpt>
      <trkpt lat="47.16821" lon="5.93592">
        <ele>312.8</ele>
        <time>2024-08-05T10:38:02Z</time>
      </trkpt>
      <trkpt lat="47.16821" lon="5.93595">
        <ele>313</ele>
        <time>2024-08-05T10:38:03Z</time>
      </trkpt>
      <trkpt lat="47.16821" lon="5.93597">
        <ele>313.2</ele>
        <time>2024-08-05T10:38:04Z</time>
      </trkpt>
      <trkpt lat="47.16821" lon="5.93598">
        <ele>313.2</ele>
        <time>2024-08-05T10:38:05Z</time>
      </trkpt>
      <trkpt lat="47.16822" lon="5.936">
        <ele>313.4</ele>
        <time>2024-08-05T10:38:06Z</time>
      </trkpt>
      <trkpt lat="47.16823" lon="5.93602">
        <ele>313.8</ele>
        <time>2024-08-05T10:38:07Z</time>
      </trkpt>
      <trkpt lat="47.16823" lon="5.93604">
        <ele>313.8</ele>
        <time>2024-08-05T10:38:08Z</time>
      </trkpt>
      <trkpt lat="47.16824" lon="5.93606">
        <ele>314</ele>
        <time>2024-08-05T10:38:09Z</time>
      </trkpt>
      <trkpt lat="47.16825" lon="5.93609">
        <ele>314</ele>
        <time>2024-08-05T10:38:10Z</time>
      </trkpt>
      <trkpt lat="47.16825" lon="5.93611">
        <ele>314.2</ele>
        <time>2024-08-05T10:38:11Z</time>
      </trkpt>
      <trkpt lat="47.16826" lon="5.93614">
        <ele>314.4</ele>
        <time>2024-08-05T10:38:12Z</time>
      </trkpt>
      <trkpt lat="47.16827" lon="5.93616">
        <ele>314.4</ele>
        <time>2024-08-05T10:38:13Z</time>
      </trkpt>
      <trkpt lat="47.16827" lon="5.93618">
        <ele>314.6</ele>
        <time>2024-08-05T10:38:14Z</time>
      </trkpt>
      <trkpt lat="47.16827" lon="5.93621">
        <ele>314.6</ele>
        <time>2024-08-05T10:38:15Z</time>
      </trkpt>
      <trkpt lat="47.16828" lon="5.93623">
        <ele>314.8</ele>
        <time>2024-08-05T10:38:16Z</time>
      </trkpt>
      <trkpt lat="47.16828" lon="5.93625">
        <ele>314.8</ele>
        <time>2024-08-05T10:38:17Z</time>
      </trkpt>
      <trkpt lat="47.16828" lon="5.93628">
        <ele>314.8</ele>
        <time>2024-08-05T10:38:18Z</time>
      </trkpt>
      <trkpt lat="47.16828" lon="5.93631">
        <ele>315.2</ele>
        <time>2024-08-05T10:38:19Z</time>
      </trkpt>
      <trkpt lat="47.16828" lon="5.93633">
        <ele>315.2</ele>
        <time>2024-08-05T10:38:20Z</time>
      </trkpt>
      <trkpt lat="47.16828" lon="5.93637">
        <ele>315.4</ele>
        <time>2024-08-05T10:38:21Z</time>
      </trkpt>
      <trkpt lat="47.16828" lon="5.93639">
        <ele>315.6</ele>
        <time>2024-08-05T10:38:22Z</time>
      </trkpt>
      <trkpt lat="47.16827" lon="5.93644">
        <ele>315.6</ele>
        <time>2024-08-05T10:38:23Z</time>
      </trkpt>
      <trkpt lat="47.16827" lon="5.93647">
        <ele>315.8</ele>
        <time>2024-08-05T10:38:24Z</time>
      </trkpt>
      <trkpt lat="47.16827" lon="5.9365">
        <ele>315.8</ele>
        <time>2024-08-05T10:38:25Z</time>
      </trkpt>
      <trkpt lat="47.16827" lon="5.93653">
        <ele>316.2</ele>
        <time>2024-08-05T10:38:26Z</time>
      </trkpt>
      <trkpt lat="47.16826" lon="5.93655">
        <ele>316.2</ele>
        <time>2024-08-05T10:38:27Z</time>
      </trkpt>
      <trkpt lat="47.16826" lon="5.93658">
        <ele>316.4</ele>
        <time>2024-08-05T10:38:28Z</time>
      </trkpt>
      <trkpt lat="47.16826" lon="5.9366">
        <ele>316.4</ele>
        <time>2024-08-05T10:38:29Z</time>
      </trkpt>
      <trkpt lat="47.16825" lon="5.93662">
        <ele>316.8</ele>
        <time>2024-08-05T10:38:30Z</time>
      </trkpt>
      <trkpt lat="47.16825" lon="5.93664">
        <ele>316.8</ele>
        <time>2024-08-05T10:38:31Z</time>
      </trkpt>
      <trkpt lat="47.16825" lon="5.93666">
        <ele>316.8</ele>
        <time>2024-08-05T10:38:32Z</time>
      </trkpt>
      <trkpt lat="47.16826" lon="5.93669">
        <ele>317</ele>
        <time>2024-08-05T10:38:33Z</time>
      </trkpt>
      <trkpt lat="47.16826" lon="5.93672">
        <ele>317.2</ele>
        <time>2024-08-05T10:38:34Z</time>
      </trkpt>
      <trkpt lat="47.16826" lon="5.93675">
        <ele>317.4</ele>
        <time>2024-08-05T10:38:35Z</time>
      </trkpt>
      <trkpt lat="47.16826" lon="5.93678">
        <ele>317.4</ele>
        <time>2024-08-05T10:38:36Z</time>
      </trkpt>
      <trkpt lat="47.16827" lon="5.93681">
        <ele>317.8</ele>
        <time>2024-08-05T10:38:37Z</time>
      </trkpt>
      <trkpt lat="47.16827" lon="5.93684">
        <ele>317.8</ele>
        <time>2024-08-05T10:38:38Z</time>
      </trkpt>
      <trkpt lat="47.16828" lon="5.93686">
        <ele>317.8</ele>
        <time>2024-08-05T10:38:39Z</time>
      </trkpt>
      <trkpt lat="47.16828" lon="5.93689">
        <ele>318</ele>
        <time>2024-08-05T10:38:40Z</time>
      </trkpt>
      <trkpt lat="47.16828" lon="5.93691">
        <ele>318.4</ele>
        <time>2024-08-05T10:38:41Z</time>
      </trkpt>
      <trkpt lat="47.16828" lon="5.93695">
        <ele>318.4</ele>
        <time>2024-08-05T10:38:42Z</time>
      </trkpt>
      <trkpt lat="47.16828" lon="5.93697">
        <ele>318.6</ele>
        <time>2024-08-05T10:38:43Z</time>
      </trkpt>
      <trkpt lat="47.16828" lon="5.937">
        <ele>318.8</ele>
        <time>2024-08-05T10:38:44Z</time>
      </trkpt>
      <trkpt lat="47.16829" lon="5.93702">
        <ele>319</ele>
        <time>2024-08-05T10:38:45Z</time>
      </trkpt>
      <trkpt lat="47.16828" lon="5.93705">
        <ele>319.4</ele>
        <time>2024-08-05T10:38:46Z</time>
      </trkpt>
      <trkpt lat="47.16829" lon="5.93707">
        <ele>319.4</ele>
        <time>2024-08-05T10:38:47Z</time>
      </trkpt>
      <trkpt lat="47.16829" lon="5.9371">
        <ele>319.6</ele>
        <time>2024-08-05T10:38:48Z</time>
      </trkpt>
      <trkpt lat="47.16829" lon="5.93713">
        <ele>319.8</ele>
        <time>2024-08-05T10:38:49Z</time>
      </trkpt>
      <trkpt lat="47.16829" lon="5.93715">
        <ele>319.8</ele>
        <time>2024-08-05T10:38:50Z</time>
      </trkpt>
      <trkpt lat="47.16829" lon="5.93718">
        <ele>319.8</ele>
        <time>2024-08-05T10:38:51Z</time>
      </trkpt>
      <trkpt lat="47.16829" lon="5.93722">
        <ele>320</ele>
        <time>2024-08-05T10:38:52Z</time>
      </trkpt>
      <trkpt lat="47.16829" lon="5.93727">
        <ele>320</ele>
        <time>2024-08-05T10:38:53Z</time>
      </trkpt>
      <trkpt lat="47.16828" lon="5.9373">
        <ele>320.2</ele>
        <time>2024-08-05T10:38:54Z</time>
      </trkpt>
      <trkpt lat="47.16827" lon="5.93733">
        <ele>320.2</ele>
        <time>2024-08-05T10:38:55Z</time>
      </trkpt>
      <trkpt lat="47.16826" lon="5.93737">
        <ele>320.2</ele>
        <time>2024-08-05T10:38:56Z</time>
      </trkpt>
      <trkpt lat="47.16826" lon="5.9374">
        <ele>320.4</ele>
        <time>2024-08-05T10:38:57Z</time>
      </trkpt>
      <trkpt lat="47.16825" lon="5.93743">
        <ele>320.6</ele>
        <time>2024-08-05T10:38:58Z</time>
      </trkpt>
      <trkpt lat="47.16825" lon="5.93745">
        <ele>320.6</ele>
        <time>2024-08-05T10:38:59Z</time>
      </trkpt>
      <trkpt lat="47.16824" lon="5.93748">
        <ele>320.6</ele>
        <time>2024-08-05T10:39:00Z</time>
      </trkpt>
      <trkpt lat="47.16823" lon="5.9375">
        <ele>320.6</ele>
        <time>2024-08-05T10:39:01Z</time>
      </trkpt>
      <trkpt lat="47.16823" lon="5.93753">
        <ele>320.8</ele>
        <time>2024-08-05T10:39:02Z</time>
      </trkpt>
      <trkpt lat="47.16822" lon="5.93755">
        <ele>320.8</ele>
        <time>2024-08-05T10:39:03Z</time>
      </trkpt>
      <trkpt lat="47.16821" lon="5.9376">
        <ele>320.8</ele>
        <time>2024-08-05T10:39:04Z</time>
      </trkpt>
      <trkpt lat="47.1682" lon="5.93763">
        <ele>320.8</ele>
        <time>2024-08-05T10:39:05Z</time>
      </trkpt>
      <trkpt lat="47.16819" lon="5.93767">
        <ele>321</ele>
        <time>2024-08-05T10:39:06Z</time>
      </trkpt>
      <trkpt lat="47.16818" lon="5.9377">
        <ele>321</ele>
        <time>2024-08-05T10:39:07Z</time>
      </trkpt>
      <trkpt lat="47.16818" lon="5.93773">
        <ele>321.2</ele>
        <time>2024-08-05T10:39:08Z</time>
      </trkpt>
      <trkpt lat="47.16817" lon="5.93777">
        <ele>321.2</ele>
        <time>2024-08-05T10:39:09Z</time>
      </trkpt>
      <trkpt lat="47.16817" lon="5.93781">
        <ele>321.2</ele>
        <time>2024-08-05T10:39:10Z</time>
      </trkpt>
      <trkpt lat="47.16816" lon="5.93785">
        <ele>321.4</ele>
        <time>2024-08-05T10:39:11Z</time>
      </trkpt>
      <trkpt lat="47.16815" lon="5.93788">
        <ele>321.4</ele>
        <time>2024-08-05T10:39:12Z</time>
      </trkpt>
      <trkpt lat="47.16815" lon="5.93792">
        <ele>321.6</ele>
        <time>2024-08-05T10:39:13Z</time>
      </trkpt>
      <trkpt lat="47.16815" lon="5.93795">
        <ele>321.6</ele>
        <time>2024-08-05T10:39:14Z</time>
      </trkpt>
      <trkpt lat="47.16814" lon="5.93799">
        <ele>321.8</ele>
        <time>2024-08-05T10:39:15Z</time>
      </trkpt>
      <trkpt lat="47.16813" lon="5.93802">
        <ele>322</ele>
        <time>2024-08-05T10:39:16Z</time>
      </trkpt>
      <trkpt lat="47.16812" lon="5.93806">
        <ele>322</ele>
        <time>2024-08-05T10:39:17Z</time>
      </trkpt>
      <trkpt lat="47.1681" lon="5.9381">
        <ele>322</ele>
        <time>2024-08-05T10:39:18Z</time>
      </trkpt>
      <trkpt lat="47.16808" lon="5.93812">
        <ele>322</ele>
        <time>2024-08-05T10:39:19Z</time>
      </trkpt>
      <trkpt lat="47.16805" lon="5.93815">
        <ele>322.2</ele>
        <time>2024-08-05T10:39:20Z</time>
      </trkpt>
      <trkpt lat="47.16803" lon="5.93818">
        <ele>322.4</ele>
        <time>2024-08-05T10:39:21Z</time>
      </trkpt>
      <trkpt lat="47.16801" lon="5.9382">
        <ele>322.2</ele>
        <time>2024-08-05T10:39:22Z</time>
      </trkpt>
      <trkpt lat="47.16798" lon="5.93822">
        <ele>322.2</ele>
        <time>2024-08-05T10:39:23Z</time>
      </trkpt>
      <trkpt lat="47.16795" lon="5.93823">
        <ele>322.2</ele>
        <time>2024-08-05T10:39:24Z</time>
      </trkpt>
      <trkpt lat="47.16792" lon="5.93826">
        <ele>322.2</ele>
        <time>2024-08-05T10:39:25Z</time>
      </trkpt>
      <trkpt lat="47.16788" lon="5.93827">
        <ele>322.2</ele>
        <time>2024-08-05T10:39:26Z</time>
      </trkpt>
      <trkpt lat="47.16783" lon="5.93831">
        <ele>322.2</ele>
        <time>2024-08-05T10:39:27Z</time>
      </trkpt>
      <trkpt lat="47.16779" lon="5.93835">
        <ele>322.2</ele>
        <time>2024-08-05T10:39:28Z</time>
      </trkpt>
      <trkpt lat="47.16774" lon="5.93838">
        <ele>322.2</ele>
        <time>2024-08-05T10:39:29Z</time>
      </trkpt>
      <trkpt lat="47.16769" lon="5.93841">
        <ele>322.2</ele>
        <time>2024-08-05T10:39:30Z</time>
      </trkpt>
      <trkpt lat="47.16765" lon="5.93843">
        <ele>322.2</ele>
        <time>2024-08-05T10:39:31Z</time>
      </trkpt>
      <trkpt lat="47.16761" lon="5.93844">
        <ele>322</ele>
        <time>2024-08-05T10:39:32Z</time>
      </trkpt>
      <trkpt lat="47.16758" lon="5.93842">
        <ele>322.2</ele>
        <time>2024-08-05T10:39:33Z</time>
      </trkpt>
      <trkpt lat="47.16755" lon="5.93841">
        <ele>322</ele>
        <time>2024-08-05T10:39:34Z</time>
      </trkpt>
      <trkpt lat="47.16753" lon="5.93839">
        <ele>321.8</ele>
        <time>2024-08-05T10:39:35Z</time>
      </trkpt>
      <trkpt lat="47.1675" lon="5.93837">
        <ele>321.6</ele>
        <time>2024-08-05T10:39:36Z</time>
      </trkpt>
      <trkpt lat="47.16749" lon="5.93836">
        <ele>321.4</ele>
        <time>2024-08-05T10:39:37Z</time>
      </trkpt>
      <trkpt lat="47.16747" lon="5.93836">
        <ele>321.2</ele>
        <time>2024-08-05T10:39:38Z</time>
      </trkpt>
      <trkpt lat="47.16746" lon="5.93835">
        <ele>321.2</ele>
        <time>2024-08-05T10:39:39Z</time>
      </trkpt>
      <trkpt lat="47.16745" lon="5.93834">
        <ele>321</ele>
        <time>2024-08-05T10:39:40Z</time>
      </trkpt>
      <trkpt lat="47.16745" lon="5.93833">
        <ele>321</ele>
        <time>2024-08-05T10:39:41Z</time>
      </trkpt>
      <trkpt lat="47.16744" lon="5.93832">
        <ele>321</ele>
        <time>2024-08-05T10:39:42Z</time>
      </trkpt>
      <trkpt lat="47.16743" lon="5.93831">
        <ele>321</ele>
        <time>2024-08-05T10:39:43Z</time>
      </trkpt>
      <trkpt lat="47.16743" lon="5.93829">
        <ele>321</ele>
        <time>2024-08-05T10:39:44Z</time>
      </trkpt>
      <trkpt lat="47.16741" lon="5.93827">
        <ele>321</ele>
        <time>2024-08-05T10:39:45Z</time>
      </trkpt>
      <trkpt lat="47.16739" lon="5.93825">
        <ele>321</ele>
        <time>2024-08-05T10:39:46Z</time>
      </trkpt>
      <trkpt lat="47.16738" lon="5.93823">
        <ele>321</ele>
        <time>2024-08-05T10:39:47Z</time>
      </trkpt>
      <trkpt lat="47.16736" lon="5.93821">
        <ele>321</ele>
        <time>2024-08-05T10:39:48Z</time>
      </trkpt>
      <trkpt lat="47.16735" lon="5.93819">
        <ele>321</ele>
        <time>2024-08-05T10:39:49Z</time>
      </trkpt>
      <trkpt lat="47.16733" lon="5.93817">
        <ele>321</ele>
        <time>2024-08-05T10:39:50Z</time>
      </trkpt>
      <trkpt lat="47.16733" lon="5.93815">
        <ele>321</ele>
        <time>2024-08-05T10:39:51Z</time>
      </trkpt>
      <trkpt lat="47.16731" lon="5.93813">
        <ele>321</ele>
        <time>2024-08-05T10:39:52Z</time>
      </trkpt>
      <trkpt lat="47.16731" lon="5.93812">
        <ele>321.2</ele>
        <time>2024-08-05T10:39:53Z</time>
      </trkpt>
      <trkpt lat="47.1673" lon="5.9381">
        <ele>321.2</ele>
        <time>2024-08-05T10:39:54Z</time>
      </trkpt>
      <trkpt lat="47.1673" lon="5.93809">
        <ele>321.4</ele>
        <time>2024-08-05T10:39:55Z</time>
      </trkpt>
      <trkpt lat="47.16729" lon="5.93807">
        <ele>321.4</ele>
        <time>2024-08-05T10:39:56Z</time>
      </trkpt>
      <trkpt lat="47.16729" lon="5.93805">
        <ele>321.4</ele>
        <time>2024-08-05T10:39:57Z</time>
      </trkpt>
      <trkpt lat="47.16728" lon="5.93803">
        <ele>322</ele>
        <time>2024-08-05T10:39:58Z</time>
      </trkpt>
      <trkpt lat="47.16727" lon="5.938">
        <ele>322.4</ele>
        <time>2024-08-05T10:39:59Z</time>
      </trkpt>
      <trkpt lat="47.16726" lon="5.93798">
        <ele>322.4</ele>
        <time>2024-08-05T10:40:00Z</time>
      </trkpt>
      <trkpt lat="47.16726" lon="5.93796">
        <ele>322.8</ele>
        <time>2024-08-05T10:40:01Z</time>
      </trkpt>
      <trkpt lat="47.16725" lon="5.93795">
        <ele>323</ele>
        <time>2024-08-05T10:40:02Z</time>
      </trkpt>
      <trkpt lat="47.16724" lon="5.93793">
        <ele>323.2</ele>
        <time>2024-08-05T10:40:03Z</time>
      </trkpt>
      <trkpt lat="47.16723" lon="5.93792">
        <ele>323.4</ele>
        <time>2024-08-05T10:40:04Z</time>
      </trkpt>
      <trkpt lat="47.16722" lon="5.9379">
        <ele>323.4</ele>
        <time>2024-08-05T10:40:05Z</time>
      </trkpt>
      <trkpt lat="47.1672" lon="5.93788">
        <ele>323.4</ele>
        <time>2024-08-05T10:40:06Z</time>
      </trkpt>
      <trkpt lat="47.16718" lon="5.93786">
        <ele>323.4</ele>
        <time>2024-08-05T10:40:07Z</time>
      </trkpt>
      <trkpt lat="47.16717" lon="5.93784">
        <ele>323.8</ele>
        <time>2024-08-05T10:40:08Z</time>
      </trkpt>
      <trkpt lat="47.16716" lon="5.93782">
        <ele>323.8</ele>
        <time>2024-08-05T10:40:09Z</time>
      </trkpt>
      <trkpt lat="47.16715" lon="5.9378">
        <ele>324</ele>
        <time>2024-08-05T10:40:10Z</time>
      </trkpt>
      <trkpt lat="47.16714" lon="5.93777">
        <ele>324.2</ele>
        <time>2024-08-05T10:40:11Z</time>
      </trkpt>
      <trkpt lat="47.16713" lon="5.93775">
        <ele>324.4</ele>
        <time>2024-08-05T10:40:12Z</time>
      </trkpt>
      <trkpt lat="47.16712" lon="5.93773">
        <ele>324.4</ele>
        <time>2024-08-05T10:40:13Z</time>
      </trkpt>
      <trkpt lat="47.1671" lon="5.93771">
        <ele>324.6</ele>
        <time>2024-08-05T10:40:14Z</time>
      </trkpt>
      <trkpt lat="47.16709" lon="5.93769">
        <ele>324.8</ele>
        <time>2024-08-05T10:40:15Z</time>
      </trkpt>
      <trkpt lat="47.16708" lon="5.93767">
        <ele>324.8</ele>
        <time>2024-08-05T10:40:16Z</time>
      </trkpt>
      <trkpt lat="47.16707" lon="5.93766">
        <ele>325.2</ele>
        <time>2024-08-05T10:40:17Z</time>
      </trkpt>
      <trkpt lat="47.16706" lon="5.93765">
        <ele>325.2</ele>
        <time>2024-08-05T10:40:18Z</time>
      </trkpt>
      <trkpt lat="47.16705" lon="5.93764">
        <ele>325.4</ele>
        <time>2024-08-05T10:40:19Z</time>
      </trkpt>
      <trkpt lat="47.16704" lon="5.93763">
        <ele>325.8</ele>
        <time>2024-08-05T10:40:20Z</time>
      </trkpt>
      <trkpt lat="47.16703" lon="5.93761">
        <ele>326</ele>
        <time>2024-08-05T10:40:21Z</time>
      </trkpt>
      <trkpt lat="47.16701" lon="5.93759">
        <ele>326</ele>
        <time>2024-08-05T10:40:22Z</time>
      </trkpt>
      <trkpt lat="47.167" lon="5.93757">
        <ele>326</ele>
        <time>2024-08-05T10:40:23Z</time>
      </trkpt>
      <trkpt lat="47.16697" lon="5.93755">
        <ele>326.2</ele>
        <time>2024-08-05T10:40:24Z</time>
      </trkpt>
      <trkpt lat="47.16694" lon="5.93753">
        <ele>326.2</ele>
        <time>2024-08-05T10:40:25Z</time>
      </trkpt>
      <trkpt lat="47.16692" lon="5.93751">
        <ele>326.4</ele>
        <time>2024-08-05T10:40:26Z</time>
      </trkpt>
      <trkpt lat="47.1669" lon="5.93749">
        <ele>326.4</ele>
        <time>2024-08-05T10:40:27Z</time>
      </trkpt>
      <trkpt lat="47.16689" lon="5.93747">
        <ele>326.6</ele>
        <time>2024-08-05T10:40:28Z</time>
      </trkpt>
      <trkpt lat="47.16687" lon="5.93745">
        <ele>326.6</ele>
        <time>2024-08-05T10:40:29Z</time>
      </trkpt>
      <trkpt lat="47.16686" lon="5.93744">
        <ele>326.4</ele>
        <time>2024-08-05T10:40:30Z</time>
      </trkpt>
      <trkpt lat="47.16684" lon="5.93743">
        <ele>326.6</ele>
        <time>2024-08-05T10:40:31Z</time>
      </trkpt>
      <trkpt lat="47.16683" lon="5.93741">
        <ele>326.8</ele>
        <time>2024-08-05T10:40:32Z</time>
      </trkpt>
      <trkpt lat="47.16682" lon="5.93739">
        <ele>326.8</ele>
        <time>2024-08-05T10:40:33Z</time>
      </trkpt>
      <trkpt lat="47.16681" lon="5.93737">
        <ele>326.8</ele>
        <time>2024-08-05T10:40:34Z</time>
      </trkpt>
      <trkpt lat="47.16679" lon="5.93735">
        <ele>327</ele>
        <time>2024-08-05T10:40:35Z</time>
      </trkpt>
      <trkpt lat="47.16678" lon="5.93733">
        <ele>327</ele>
        <time>2024-08-05T10:40:36Z</time>
      </trkpt>
      <trkpt lat="47.16676" lon="5.93731">
        <ele>327.2</ele>
        <time>2024-08-05T10:40:37Z</time>
      </trkpt>
      <trkpt lat="47.16675" lon="5.93728">
        <ele>327</ele>
        <time>2024-08-05T10:40:38Z</time>
      </trkpt>
      <trkpt lat="47.16673" lon="5.93726">
        <ele>327.2</ele>
        <time>2024-08-05T10:40:39Z</time>
      </trkpt>
      <trkpt lat="47.16672" lon="5.93723">
        <ele>327.2</ele>
        <time>2024-08-05T10:40:40Z</time>
      </trkpt>
      <trkpt lat="47.1667" lon="5.9372">
        <ele>327.2</ele>
        <time>2024-08-05T10:40:41Z</time>
      </trkpt>
      <trkpt lat="47.16669" lon="5.93718">
        <ele>327</ele>
        <time>2024-08-05T10:40:42Z</time>
      </trkpt>
      <trkpt lat="47.16667" lon="5.93715">
        <ele>327</ele>
        <time>2024-08-05T10:40:43Z</time>
      </trkpt>
      <trkpt lat="47.16665" lon="5.93712">
        <ele>327</ele>
        <time>2024-08-05T10:40:44Z</time>
      </trkpt>
      <trkpt lat="47.16661" lon="5.93708">
        <ele>327</ele>
        <time>2024-08-05T10:40:45Z</time>
      </trkpt>
      <trkpt lat="47.16659" lon="5.93705">
        <ele>327.2</ele>
        <time>2024-08-05T10:40:46Z</time>
      </trkpt>
      <trkpt lat="47.16654" lon="5.93699">
        <ele>327.2</ele>
        <time>2024-08-05T10:40:47Z</time>
      </trkpt>
      <trkpt lat="47.16653" lon="5.93695">
        <ele>327.2</ele>
        <time>2024-08-05T10:40:48Z</time>
      </trkpt>
      <trkpt lat="47.16651" lon="5.93691">
        <ele>327.2</ele>
        <time>2024-08-05T10:40:49Z</time>
      </trkpt>
      <trkpt lat="47.1665" lon="5.93688">
        <ele>327.2</ele>
        <time>2024-08-05T10:40:50Z</time>
      </trkpt>
      <trkpt lat="47.16649" lon="5.93686">
        <ele>327.2</ele>
        <time>2024-08-05T10:40:51Z</time>
      </trkpt>
      <trkpt lat="47.16649" lon="5.93683">
        <ele>327.2</ele>
        <time>2024-08-05T10:40:52Z</time>
      </trkpt>
      <trkpt lat="47.16648" lon="5.9368">
        <ele>327.2</ele>
        <time>2024-08-05T10:40:53Z</time>
      </trkpt>
      <trkpt lat="47.16647" lon="5.93677">
        <ele>327.4</ele>
        <time>2024-08-05T10:40:54Z</time>
      </trkpt>
      <trkpt lat="47.16647" lon="5.93674">
        <ele>327.4</ele>
        <time>2024-08-05T10:40:55Z</time>
      </trkpt>
      <trkpt lat="47.16646" lon="5.93671">
        <ele>327.4</ele>
        <time>2024-08-05T10:40:56Z</time>
      </trkpt>
      <trkpt lat="47.16645" lon="5.93669">
        <ele>327.4</ele>
        <time>2024-08-05T10:40:57Z</time>
      </trkpt>
      <trkpt lat="47.16644" lon="5.93667">
        <ele>327.4</ele>
        <time>2024-08-05T10:40:58Z</time>
      </trkpt>
      <trkpt lat="47.16644" lon="5.93664">
        <ele>327.8</ele>
        <time>2024-08-05T10:40:59Z</time>
      </trkpt>
      <trkpt lat="47.16644" lon="5.93662">
        <ele>327.8</ele>
        <time>2024-08-05T10:41:00Z</time>
      </trkpt>
      <trkpt lat="47.16643" lon="5.9366">
        <ele>328</ele>
        <time>2024-08-05T10:41:01Z</time>
      </trkpt>
      <trkpt lat="47.16642" lon="5.93657">
        <ele>328.4</ele>
        <time>2024-08-05T10:41:02Z</time>
      </trkpt>
      <trkpt lat="47.16642" lon="5.93655">
        <ele>328.6</ele>
        <time>2024-08-05T10:41:03Z</time>
      </trkpt>
      <trkpt lat="47.16641" lon="5.93653">
        <ele>328.8</ele>
        <time>2024-08-05T10:41:04Z</time>
      </trkpt>
      <trkpt lat="47.1664" lon="5.9365">
        <ele>329</ele>
        <time>2024-08-05T10:41:05Z</time>
      </trkpt>
      <trkpt lat="47.16639" lon="5.93648">
        <ele>329.2</ele>
        <time>2024-08-05T10:41:06Z</time>
      </trkpt>
      <trkpt lat="47.16638" lon="5.93646">
        <ele>329.4</ele>
        <time>2024-08-05T10:41:07Z</time>
      </trkpt>
      <trkpt lat="47.16638" lon="5.93644">
        <ele>329.8</ele>
        <time>2024-08-05T10:41:08Z</time>
      </trkpt>
      <trkpt lat="47.16637" lon="5.93642">
        <ele>330</ele>
        <time>2024-08-05T10:41:09Z</time>
      </trkpt>
      <trkpt lat="47.16636" lon="5.93639">
        <ele>330.2</ele>
        <time>2024-08-05T10:41:10Z</time>
      </trkpt>
      <trkpt lat="47.16635" lon="5.93636">
        <ele>330.2</ele>
        <time>2024-08-05T10:41:11Z</time>
      </trkpt>
      <trkpt lat="47.16633" lon="5.93632">
        <ele>330.2</ele>
        <time>2024-08-05T10:41:12Z</time>
      </trkpt>
      <trkpt lat="47.16626" lon="5.93621">
        <ele>330.2</ele>
        <time>2024-08-05T10:41:13Z</time>
      </trkpt>
      <trkpt lat="47.16625" lon="5.93618">
        <ele>330.4</ele>
        <time>2024-08-05T10:41:14Z</time>
      </trkpt>
      <trkpt lat="47.16624" lon="5.93615">
        <ele>330.6</ele>
        <time>2024-08-05T10:41:15Z</time>
      </trkpt>
      <trkpt lat="47.16623" lon="5.93612">
        <ele>330.8</ele>
        <time>2024-08-05T10:41:16Z</time>
      </trkpt>
      <trkpt lat="47.16622" lon="5.93608">
        <ele>331</ele>
        <time>2024-08-05T10:41:17Z</time>
      </trkpt>
      <trkpt lat="47.16621" lon="5.93605">
        <ele>331.2</ele>
        <time>2024-08-05T10:41:18Z</time>
      </trkpt>
      <trkpt lat="47.1662" lon="5.93602">
        <ele>331.2</ele>
        <time>2024-08-05T10:41:19Z</time>
      </trkpt>
      <trkpt lat="47.16619" lon="5.93599">
        <ele>331.2</ele>
        <time>2024-08-05T10:41:20Z</time>
      </trkpt>
      <trkpt lat="47.16619" lon="5.93596">
        <ele>331.4</ele>
        <time>2024-08-05T10:41:21Z</time>
      </trkpt>
      <trkpt lat="47.16618" lon="5.93593">
        <ele>331.6</ele>
        <time>2024-08-05T10:41:22Z</time>
      </trkpt>
      <trkpt lat="47.16618" lon="5.9359">
        <ele>331.8</ele>
        <time>2024-08-05T10:41:23Z</time>
      </trkpt>
      <trkpt lat="47.16617" lon="5.93588">
        <ele>331.8</ele>
        <time>2024-08-05T10:41:24Z</time>
      </trkpt>
      <trkpt lat="47.16617" lon="5.93585">
        <ele>332</ele>
        <time>2024-08-05T10:41:25Z</time>
      </trkpt>
      <trkpt lat="47.16614" lon="5.9358">
        <ele>332</ele>
        <time>2024-08-05T10:41:26Z</time>
      </trkpt>
      <trkpt lat="47.16613" lon="5.93578">
        <ele>332.2</ele>
        <time>2024-08-05T10:41:27Z</time>
      </trkpt>
      <trkpt lat="47.16613" lon="5.93576">
        <ele>332.4</ele>
        <time>2024-08-05T10:41:28Z</time>
      </trkpt>
      <trkpt lat="47.16611" lon="5.93572">
        <ele>332.6</ele>
        <time>2024-08-05T10:41:29Z</time>
      </trkpt>
      <trkpt lat="47.16608" lon="5.93568">
        <ele>332.6</ele>
        <time>2024-08-05T10:41:30Z</time>
      </trkpt>
      <trkpt lat="47.16605" lon="5.93562">
        <ele>332.8</ele>
        <time>2024-08-05T10:41:31Z</time>
      </trkpt>
      <trkpt lat="47.16603" lon="5.93558">
        <ele>333</ele>
        <time>2024-08-05T10:41:32Z</time>
      </trkpt>
      <trkpt lat="47.16601" lon="5.93553">
        <ele>333.2</ele>
        <time>2024-08-05T10:41:33Z</time>
      </trkpt>
      <trkpt lat="47.16599" lon="5.93548">
        <ele>333.4</ele>
        <time>2024-08-05T10:41:34Z</time>
      </trkpt>
      <trkpt lat="47.16597" lon="5.93543">
        <ele>333.4</ele>
        <time>2024-08-05T10:41:35Z</time>
      </trkpt>
      <trkpt lat="47.16596" lon="5.9354">
        <ele>333.6</ele>
        <time>2024-08-05T10:41:36Z</time>
      </trkpt>
      <trkpt lat="47.16594" lon="5.93536">
        <ele>333.8</ele>
        <time>2024-08-05T10:41:37Z</time>
      </trkpt>
      <trkpt lat="47.16593" lon="5.93533">
        <ele>333.8</ele>
        <time>2024-08-05T10:41:38Z</time>
      </trkpt>
      <trkpt lat="47.16592" lon="5.9353">
        <ele>334</ele>
        <time>2024-08-05T10:41:39Z</time>
      </trkpt>
      <trkpt lat="47.16591" lon="5.93527">
        <ele>334.2</ele>
        <time>2024-08-05T10:41:40Z</time>
      </trkpt>
      <trkpt lat="47.1659" lon="5.93525">
        <ele>334.6</ele>
        <time>2024-08-05T10:41:41Z</time>
      </trkpt>
      <trkpt lat="47.1659" lon="5.93523">
        <ele>334.8</ele>
        <time>2024-08-05T10:41:42Z</time>
      </trkpt>
      <trkpt lat="47.16589" lon="5.93521">
        <ele>334.8</ele>
        <time>2024-08-05T10:41:43Z</time>
      </trkpt>
      <trkpt lat="47.16588" lon="5.93518">
        <ele>335</ele>
        <time>2024-08-05T10:41:44Z</time>
      </trkpt>
      <trkpt lat="47.16586" lon="5.93515">
        <ele>335.2</ele>
        <time>2024-08-05T10:41:45Z</time>
      </trkpt>
      <trkpt lat="47.16585" lon="5.93513">
        <ele>335.2</ele>
        <time>2024-08-05T10:41:46Z</time>
      </trkpt>
      <trkpt lat="47.16584" lon="5.9351">
        <ele>335.4</ele>
        <time>2024-08-05T10:41:47Z</time>
      </trkpt>
      <trkpt lat="47.16583" lon="5.93508">
        <ele>335.6</ele>
        <time>2024-08-05T10:41:48Z</time>
      </trkpt>
      <trkpt lat="47.16581" lon="5.93505">
        <ele>335.8</ele>
        <time>2024-08-05T10:41:49Z</time>
      </trkpt>
      <trkpt lat="47.1658" lon="5.93502">
        <ele>336</ele>
        <time>2024-08-05T10:41:50Z</time>
      </trkpt>
      <trkpt lat="47.1658" lon="5.93499">
        <ele>336.2</ele>
        <time>2024-08-05T10:41:51Z</time>
      </trkpt>
      <trkpt lat="47.16579" lon="5.93497">
        <ele>336.6</ele>
        <time>2024-08-05T10:41:52Z</time>
      </trkpt>
      <trkpt lat="47.16578" lon="5.93495">
        <ele>336.8</ele>
        <time>2024-08-05T10:41:53Z</time>
      </trkpt>
      <trkpt lat="47.16578" lon="5.93493">
        <ele>337</ele>
        <time>2024-08-05T10:41:54Z</time>
      </trkpt>
      <trkpt lat="47.16577" lon="5.93491">
        <ele>337.4</ele>
        <time>2024-08-05T10:41:55Z</time>
      </trkpt>
      <trkpt lat="47.16577" lon="5.93488">
        <ele>337.4</ele>
        <time>2024-08-05T10:41:56Z</time>
      </trkpt>
      <trkpt lat="47.16577" lon="5.93486">
        <ele>337.4</ele>
        <time>2024-08-05T10:41:57Z</time>
      </trkpt>
      <trkpt lat="47.16576" lon="5.93483">
        <ele>337.6</ele>
        <time>2024-08-05T10:41:58Z</time>
      </trkpt>
      <trkpt lat="47.16576" lon="5.93481">
        <ele>337.6</ele>
        <time>2024-08-05T10:41:59Z</time>
      </trkpt>
      <trkpt lat="47.16576" lon="5.93478">
        <ele>338.2</ele>
        <time>2024-08-05T10:42:00Z</time>
      </trkpt>
      <trkpt lat="47.16575" lon="5.93476">
        <ele>338.4</ele>
        <time>2024-08-05T10:42:01Z</time>
      </trkpt>
      <trkpt lat="47.16576" lon="5.93473">
        <ele>338.6</ele>
        <time>2024-08-05T10:42:02Z</time>
      </trkpt>
      <trkpt lat="47.16575" lon="5.9347">
        <ele>338.8</ele>
        <time>2024-08-05T10:42:03Z</time>
      </trkpt>
      <trkpt lat="47.16575" lon="5.93467">
        <ele>339</ele>
        <time>2024-08-05T10:42:04Z</time>
      </trkpt>
      <trkpt lat="47.16574" lon="5.93464">
        <ele>339.2</ele>
        <time>2024-08-05T10:42:05Z</time>
      </trkpt>
      <trkpt lat="47.16574" lon="5.93461">
        <ele>339.4</ele>
        <time>2024-08-05T10:42:06Z</time>
      </trkpt>
      <trkpt lat="47.16574" lon="5.93459">
        <ele>339.6</ele>
        <time>2024-08-05T10:42:07Z</time>
      </trkpt>
      <trkpt lat="47.16573" lon="5.93456">
        <ele>339.6</ele>
        <time>2024-08-05T10:42:08Z</time>
      </trkpt>
      <trkpt lat="47.16572" lon="5.93453">
        <ele>339.8</ele>
        <time>2024-08-05T10:42:09Z</time>
      </trkpt>
      <trkpt lat="47.16571" lon="5.9345">
        <ele>340</ele>
        <time>2024-08-05T10:42:10Z</time>
      </trkpt>
      <trkpt lat="47.1657" lon="5.93447">
        <ele>340</ele>
        <time>2024-08-05T10:42:11Z</time>
      </trkpt>
      <trkpt lat="47.16569" lon="5.93443">
        <ele>340.2</ele>
        <time>2024-08-05T10:42:12Z</time>
      </trkpt>
      <trkpt lat="47.16569" lon="5.93441">
        <ele>340</ele>
        <time>2024-08-05T10:42:13Z</time>
      </trkpt>
      <trkpt lat="47.16567" lon="5.93439">
        <ele>340.4</ele>
        <time>2024-08-05T10:42:14Z</time>
      </trkpt>
      <trkpt lat="47.16566" lon="5.93437">
        <ele>340.6</ele>
        <time>2024-08-05T10:42:15Z</time>
      </trkpt>
      <trkpt lat="47.16565" lon="5.93436">
        <ele>340.6</ele>
        <time>2024-08-05T10:42:16Z</time>
      </trkpt>
      <trkpt lat="47.16564" lon="5.93433">
        <ele>340.6</ele>
        <time>2024-08-05T10:42:17Z</time>
      </trkpt>
      <trkpt lat="47.16562" lon="5.93431">
        <ele>340.8</ele>
        <time>2024-08-05T10:42:18Z</time>
      </trkpt>
      <trkpt lat="47.16561" lon="5.93429">
        <ele>340.8</ele>
        <time>2024-08-05T10:42:19Z</time>
      </trkpt>
      <trkpt lat="47.16559" lon="5.93426">
        <ele>340.6</ele>
        <time>2024-08-05T10:42:20Z</time>
      </trkpt>
      <trkpt lat="47.16557" lon="5.93423">
        <ele>340.6</ele>
        <time>2024-08-05T10:42:21Z</time>
      </trkpt>
      <trkpt lat="47.16556" lon="5.9342">
        <ele>340.8</ele>
        <time>2024-08-05T10:42:22Z</time>
      </trkpt>
      <trkpt lat="47.16555" lon="5.93416">
        <ele>340.8</ele>
        <time>2024-08-05T10:42:23Z</time>
      </trkpt>
      <trkpt lat="47.16553" lon="5.93413">
        <ele>340.8</ele>
        <time>2024-08-05T10:42:24Z</time>
      </trkpt>
      <trkpt lat="47.16552" lon="5.93409">
        <ele>340.8</ele>
        <time>2024-08-05T10:42:25Z</time>
      </trkpt>
      <trkpt lat="47.16552" lon="5.93406">
        <ele>340.8</ele>
        <time>2024-08-05T10:42:26Z</time>
      </trkpt>
      <trkpt lat="47.16551" lon="5.93401">
        <ele>340.8</ele>
        <time>2024-08-05T10:42:27Z</time>
      </trkpt>
      <trkpt lat="47.16549" lon="5.93397">
        <ele>340.8</ele>
        <time>2024-08-05T10:42:28Z</time>
      </trkpt>
      <trkpt lat="47.16548" lon="5.93393">
        <ele>340.8</ele>
        <time>2024-08-05T10:42:29Z</time>
      </trkpt>
      <trkpt lat="47.16547" lon="5.93389">
        <ele>340.8</ele>
        <time>2024-08-05T10:42:30Z</time>
      </trkpt>
      <trkpt lat="47.16546" lon="5.93385">
        <ele>340.8</ele>
        <time>2024-08-05T10:42:31Z</time>
      </trkpt>
      <trkpt lat="47.16545" lon="5.93383">
        <ele>341</ele>
        <time>2024-08-05T10:42:32Z</time>
      </trkpt>
      <trkpt lat="47.16543" lon="5.93379">
        <ele>341.2</ele>
        <time>2024-08-05T10:42:33Z</time>
      </trkpt>
      <trkpt lat="47.16542" lon="5.93376">
        <ele>341.4</ele>
        <time>2024-08-05T10:42:34Z</time>
      </trkpt>
      <trkpt lat="47.1654" lon="5.93373">
        <ele>341.6</ele>
        <time>2024-08-05T10:42:35Z</time>
      </trkpt>
      <trkpt lat="47.16539" lon="5.93369">
        <ele>341.8</ele>
        <time>2024-08-05T10:42:36Z</time>
      </trkpt>
      <trkpt lat="47.16538" lon="5.93366">
        <ele>342</ele>
        <time>2024-08-05T10:42:37Z</time>
      </trkpt>
      <trkpt lat="47.16538" lon="5.93362">
        <ele>342.2</ele>
        <time>2024-08-05T10:42:38Z</time>
      </trkpt>
      <trkpt lat="47.16537" lon="5.93357">
        <ele>342.8</ele>
        <time>2024-08-05T10:42:39Z</time>
      </trkpt>
      <trkpt lat="47.16536" lon="5.93354">
        <ele>343.2</ele>
        <time>2024-08-05T10:42:40Z</time>
      </trkpt>
      <trkpt lat="47.16534" lon="5.9335">
        <ele>343.2</ele>
        <time>2024-08-05T10:42:41Z</time>
      </trkpt>
      <trkpt lat="47.16533" lon="5.93347">
        <ele>343.4</ele>
        <time>2024-08-05T10:42:42Z</time>
      </trkpt>
      <trkpt lat="47.16532" lon="5.93344">
        <ele>343.8</ele>
        <time>2024-08-05T10:42:43Z</time>
      </trkpt>
      <trkpt lat="47.1653" lon="5.9334">
        <ele>344.2</ele>
        <time>2024-08-05T10:42:44Z</time>
      </trkpt>
      <trkpt lat="47.16528" lon="5.93337">
        <ele>344.2</ele>
        <time>2024-08-05T10:42:45Z</time>
      </trkpt>
      <trkpt lat="47.16527" lon="5.93334">
        <ele>344.6</ele>
        <time>2024-08-05T10:42:46Z</time>
      </trkpt>
      <trkpt lat="47.16525" lon="5.93331">
        <ele>344.6</ele>
        <time>2024-08-05T10:42:47Z</time>
      </trkpt>
      <trkpt lat="47.16524" lon="5.93328">
        <ele>344.6</ele>
        <time>2024-08-05T10:42:48Z</time>
      </trkpt>
      <trkpt lat="47.16523" lon="5.93326">
        <ele>344.6</ele>
        <time>2024-08-05T10:42:49Z</time>
      </trkpt>
      <trkpt lat="47.16522" lon="5.93324">
        <ele>344.6</ele>
        <time>2024-08-05T10:42:50Z</time>
      </trkpt>
      <trkpt lat="47.16521" lon="5.93322">
        <ele>344.8</ele>
        <time>2024-08-05T10:42:51Z</time>
      </trkpt>
      <trkpt lat="47.16519" lon="5.93319">
        <ele>345</ele>
        <time>2024-08-05T10:42:52Z</time>
      </trkpt>
      <trkpt lat="47.16518" lon="5.93317">
        <ele>345.2</ele>
        <time>2024-08-05T10:42:53Z</time>
      </trkpt>
      <trkpt lat="47.16516" lon="5.93316">
        <ele>345.4</ele>
        <time>2024-08-05T10:42:54Z</time>
      </trkpt>
      <trkpt lat="47.16515" lon="5.93314">
        <ele>345.4</ele>
        <time>2024-08-05T10:42:55Z</time>
      </trkpt>
      <trkpt lat="47.16513" lon="5.93313">
        <ele>345.6</ele>
        <time>2024-08-05T10:42:56Z</time>
      </trkpt>
      <trkpt lat="47.16512" lon="5.93312">
        <ele>345.6</ele>
        <time>2024-08-05T10:42:57Z</time>
      </trkpt>
      <trkpt lat="47.1651" lon="5.9331">
        <ele>346</ele>
        <time>2024-08-05T10:42:58Z</time>
      </trkpt>
      <trkpt lat="47.16509" lon="5.93307">
        <ele>345.8</ele>
        <time>2024-08-05T10:42:59Z</time>
      </trkpt>
      <trkpt lat="47.16507" lon="5.93305">
        <ele>346</ele>
        <time>2024-08-05T10:43:00Z</time>
      </trkpt>
      <trkpt lat="47.16505" lon="5.93302">
        <ele>346.2</ele>
        <time>2024-08-05T10:43:01Z</time>
      </trkpt>
      <trkpt lat="47.16504" lon="5.93298">
        <ele>346.2</ele>
        <time>2024-08-05T10:43:02Z</time>
      </trkpt>
      <trkpt lat="47.16502" lon="5.93295">
        <ele>346.2</ele>
        <time>2024-08-05T10:43:03Z</time>
      </trkpt>
      <trkpt lat="47.16501" lon="5.93292">
        <ele>346.2</ele>
        <time>2024-08-05T10:43:04Z</time>
      </trkpt>
      <trkpt lat="47.16499" lon="5.93289">
        <ele>346.6</ele>
        <time>2024-08-05T10:43:05Z</time>
      </trkpt>
      <trkpt lat="47.16497" lon="5.93287">
        <ele>346.4</ele>
        <time>2024-08-05T10:43:06Z</time>
      </trkpt>
      <trkpt lat="47.16496" lon="5.93285">
        <ele>346.6</ele>
        <time>2024-08-05T10:43:07Z</time>
      </trkpt>
      <trkpt lat="47.16494" lon="5.93283">
        <ele>346.6</ele>
        <time>2024-08-05T10:43:08Z</time>
      </trkpt>
      <trkpt lat="47.16493" lon="5.93281">
        <ele>346.6</ele>
        <time>2024-08-05T10:43:09Z</time>
      </trkpt>
      <trkpt lat="47.16491" lon="5.93278">
        <ele>346.8</ele>
        <time>2024-08-05T10:43:10Z</time>
      </trkpt>
      <trkpt lat="47.1649" lon="5.93276">
        <ele>346.6</ele>
        <time>2024-08-05T10:43:11Z</time>
      </trkpt>
      <trkpt lat="47.16489" lon="5.93274">
        <ele>346.6</ele>
        <time>2024-08-05T10:43:12Z</time>
      </trkpt>
      <trkpt lat="47.16487" lon="5.93272">
        <ele>346.8</ele>
        <time>2024-08-05T10:43:13Z</time>
      </trkpt>
      <trkpt lat="47.16486" lon="5.93269">
        <ele>346.8</ele>
        <time>2024-08-05T10:43:14Z</time>
      </trkpt>
      <trkpt lat="47.16484" lon="5.93266">
        <ele>346.8</ele>
        <time>2024-08-05T10:43:15Z</time>
      </trkpt>
      <trkpt lat="47.16482" lon="5.9326">
        <ele>346.8</ele>
        <time>2024-08-05T10:43:16Z</time>
      </trkpt>
      <trkpt lat="47.16481" lon="5.93254">
        <ele>347</ele>
        <time>2024-08-05T10:43:17Z</time>
      </trkpt>
      <trkpt lat="47.16478" lon="5.93244">
        <ele>346.8</ele>
        <time>2024-08-05T10:43:18Z</time>
      </trkpt>
      <trkpt lat="47.16477" lon="5.93238">
        <ele>346.8</ele>
        <time>2024-08-05T10:43:19Z</time>
      </trkpt>
      <trkpt lat="47.16476" lon="5.93232">
        <ele>346.8</ele>
        <time>2024-08-05T10:43:20Z</time>
      </trkpt>
      <trkpt lat="47.16474" lon="5.93228">
        <ele>347</ele>
        <time>2024-08-05T10:43:21Z</time>
      </trkpt>
      <trkpt lat="47.16472" lon="5.93224">
        <ele>347</ele>
        <time>2024-08-05T10:43:22Z</time>
      </trkpt>
      <trkpt lat="47.1647" lon="5.93221">
        <ele>347</ele>
        <time>2024-08-05T10:43:23Z</time>
      </trkpt>
      <trkpt lat="47.16468" lon="5.93218">
        <ele>347</ele>
        <time>2024-08-05T10:43:24Z</time>
      </trkpt>
      <trkpt lat="47.16467" lon="5.93215">
        <ele>346.8</ele>
        <time>2024-08-05T10:43:25Z</time>
      </trkpt>
      <trkpt lat="47.16464" lon="5.93213">
        <ele>346.8</ele>
        <time>2024-08-05T10:43:26Z</time>
      </trkpt>
      <trkpt lat="47.16462" lon="5.9321">
        <ele>346.8</ele>
        <time>2024-08-05T10:43:27Z</time>
      </trkpt>
      <trkpt lat="47.1646" lon="5.93206">
        <ele>346.6</ele>
        <time>2024-08-05T10:43:28Z</time>
      </trkpt>
      <trkpt lat="47.16457" lon="5.93203">
        <ele>346.8</ele>
        <time>2024-08-05T10:43:29Z</time>
      </trkpt>
      <trkpt lat="47.16455" lon="5.932">
        <ele>346.6</ele>
        <time>2024-08-05T10:43:30Z</time>
      </trkpt>
      <trkpt lat="47.16453" lon="5.93197">
        <ele>346.6</ele>
        <time>2024-08-05T10:43:31Z</time>
      </trkpt>
      <trkpt lat="47.16451" lon="5.93194">
        <ele>346.6</ele>
        <time>2024-08-05T10:43:32Z</time>
      </trkpt>
      <trkpt lat="47.16449" lon="5.9319">
        <ele>346.6</ele>
        <time>2024-08-05T10:43:33Z</time>
      </trkpt>
      <trkpt lat="47.16446" lon="5.93187">
        <ele>346.8</ele>
        <time>2024-08-05T10:43:34Z</time>
      </trkpt>
      <trkpt lat="47.16443" lon="5.93184">
        <ele>346.6</ele>
        <time>2024-08-05T10:43:35Z</time>
      </trkpt>
      <trkpt lat="47.16441" lon="5.93181">
        <ele>346.8</ele>
        <time>2024-08-05T10:43:36Z</time>
      </trkpt>
      <trkpt lat="47.16438" lon="5.93178">
        <ele>346.8</ele>
        <time>2024-08-05T10:43:37Z</time>
      </trkpt>
      <trkpt lat="47.16436" lon="5.93176">
        <ele>346.8</ele>
        <time>2024-08-05T10:43:38Z</time>
      </trkpt>
      <trkpt lat="47.16433" lon="5.93174">
        <ele>346.8</ele>
        <time>2024-08-05T10:43:39Z</time>
      </trkpt>
      <trkpt lat="47.16431" lon="5.93172">
        <ele>346.8</ele>
        <time>2024-08-05T10:43:40Z</time>
      </trkpt>
      <trkpt lat="47.16428" lon="5.93171">
        <ele>347</ele>
        <time>2024-08-05T10:43:41Z</time>
      </trkpt>
      <trkpt lat="47.16426" lon="5.93169">
        <ele>347</ele>
        <time>2024-08-05T10:43:42Z</time>
      </trkpt>
      <trkpt lat="47.16424" lon="5.93168">
        <ele>347</ele>
        <time>2024-08-05T10:43:43Z</time>
      </trkpt>
      <trkpt lat="47.16421" lon="5.93167">
        <ele>347</ele>
        <time>2024-08-05T10:43:44Z</time>
      </trkpt>
      <trkpt lat="47.16419" lon="5.93166">
        <ele>347.2</ele>
        <time>2024-08-05T10:43:45Z</time>
      </trkpt>
      <trkpt lat="47.16417" lon="5.93164">
        <ele>347.2</ele>
        <time>2024-08-05T10:43:46Z</time>
      </trkpt>
      <trkpt lat="47.16415" lon="5.93163">
        <ele>347.2</ele>
        <time>2024-08-05T10:43:47Z</time>
      </trkpt>
      <trkpt lat="47.16414" lon="5.93162">
        <ele>347.2</ele>
        <time>2024-08-05T10:43:48Z</time>
      </trkpt>
      <trkpt lat="47.16413" lon="5.93161">
        <ele>347.4</ele>
        <time>2024-08-05T10:43:49Z</time>
      </trkpt>
      <trkpt lat="47.16411" lon="5.93161">
        <ele>347.6</ele>
        <time>2024-08-05T10:43:50Z</time>
      </trkpt>
      <trkpt lat="47.16409" lon="5.9316">
        <ele>347.4</ele>
        <time>2024-08-05T10:43:51Z</time>
      </trkpt>
      <trkpt lat="47.16408" lon="5.9316">
        <ele>347.6</ele>
        <time>2024-08-05T10:43:52Z</time>
      </trkpt>
      <trkpt lat="47.16406" lon="5.93158">
        <ele>347.8</ele>
        <time>2024-08-05T10:43:53Z</time>
      </trkpt>
      <trkpt lat="47.16404" lon="5.93157">
        <ele>347.6</ele>
        <time>2024-08-05T10:43:54Z</time>
      </trkpt>
      <trkpt lat="47.16402" lon="5.93155">
        <ele>347.6</ele>
        <time>2024-08-05T10:43:55Z</time>
      </trkpt>
      <trkpt lat="47.164" lon="5.93153">
        <ele>347.8</ele>
        <time>2024-08-05T10:43:56Z</time>
      </trkpt>
      <trkpt lat="47.16398" lon="5.93151">
        <ele>347.8</ele>
        <time>2024-08-05T10:43:57Z</time>
      </trkpt>
      <trkpt lat="47.16395" lon="5.93149">
        <ele>347.8</ele>
        <time>2024-08-05T10:43:58Z</time>
      </trkpt>
      <trkpt lat="47.16393" lon="5.93148">
        <ele>347.8</ele>
        <time>2024-08-05T10:43:59Z</time>
      </trkpt>
      <trkpt lat="47.1639" lon="5.93145">
        <ele>347.8</ele>
        <time>2024-08-05T10:44:00Z</time>
      </trkpt>
      <trkpt lat="47.16387" lon="5.93143">
        <ele>348</ele>
        <time>2024-08-05T10:44:01Z</time>
      </trkpt>
      <trkpt lat="47.16385" lon="5.93141">
        <ele>348</ele>
        <time>2024-08-05T10:44:02Z</time>
      </trkpt>
      <trkpt lat="47.16382" lon="5.93139">
        <ele>348</ele>
        <time>2024-08-05T10:44:03Z</time>
      </trkpt>
      <trkpt lat="47.16379" lon="5.93137">
        <ele>348</ele>
        <time>2024-08-05T10:44:04Z</time>
      </trkpt>
      <trkpt lat="47.16376" lon="5.93134">
        <ele>348</ele>
        <time>2024-08-05T10:44:05Z</time>
      </trkpt>
      <trkpt lat="47.16373" lon="5.93131">
        <ele>348.2</ele>
        <time>2024-08-05T10:44:06Z</time>
      </trkpt>
      <trkpt lat="47.1637" lon="5.93127">
        <ele>348</ele>
        <time>2024-08-05T10:44:07Z</time>
      </trkpt>
      <trkpt lat="47.16367" lon="5.93123">
        <ele>348</ele>
        <time>2024-08-05T10:44:08Z</time>
      </trkpt>
      <trkpt lat="47.16363" lon="5.93119">
        <ele>348</ele>
        <time>2024-08-05T10:44:09Z</time>
      </trkpt>
      <trkpt lat="47.1636" lon="5.93115">
        <ele>348</ele>
        <time>2024-08-05T10:44:10Z</time>
      </trkpt>
      <trkpt lat="47.16356" lon="5.93112">
        <ele>348</ele>
        <time>2024-08-05T10:44:11Z</time>
      </trkpt>
      <trkpt lat="47.16353" lon="5.93108">
        <ele>348</ele>
        <time>2024-08-05T10:44:12Z</time>
      </trkpt>
      <trkpt lat="47.16348" lon="5.93104">
        <ele>348</ele>
        <time>2024-08-05T10:44:13Z</time>
      </trkpt>
      <trkpt lat="47.16343" lon="5.931">
        <ele>347.8</ele>
        <time>2024-08-05T10:44:14Z</time>
      </trkpt>
      <trkpt lat="47.16339" lon="5.93097">
        <ele>347.8</ele>
        <time>2024-08-05T10:44:15Z</time>
      </trkpt>
      <trkpt lat="47.16336" lon="5.93094">
        <ele>347.8</ele>
        <time>2024-08-05T10:44:16Z</time>
      </trkpt>
      <trkpt lat="47.16332" lon="5.93091">
        <ele>347.6</ele>
        <time>2024-08-05T10:44:17Z</time>
      </trkpt>
      <trkpt lat="47.16328" lon="5.93087">
        <ele>347.6</ele>
        <time>2024-08-05T10:44:18Z</time>
      </trkpt>
      <trkpt lat="47.16324" lon="5.93083">
        <ele>347.6</ele>
        <time>2024-08-05T10:44:19Z</time>
      </trkpt>
      <trkpt lat="47.1632" lon="5.9308">
        <ele>347.4</ele>
        <time>2024-08-05T10:44:20Z</time>
      </trkpt>
      <trkpt lat="47.16316" lon="5.93077">
        <ele>347.4</ele>
        <time>2024-08-05T10:44:21Z</time>
      </trkpt>
      <trkpt lat="47.16312" lon="5.93075">
        <ele>347.4</ele>
        <time>2024-08-05T10:44:22Z</time>
      </trkpt>
      <trkpt lat="47.16308" lon="5.93073">
        <ele>347.2</ele>
        <time>2024-08-05T10:44:23Z</time>
      </trkpt>
      <trkpt lat="47.16304" lon="5.9307">
        <ele>347.2</ele>
        <time>2024-08-05T10:44:24Z</time>
      </trkpt>
      <trkpt lat="47.163" lon="5.93067">
        <ele>347</ele>
        <time>2024-08-05T10:44:25Z</time>
      </trkpt>
      <trkpt lat="47.16295" lon="5.93065">
        <ele>347</ele>
        <time>2024-08-05T10:44:26Z</time>
      </trkpt>
      <trkpt lat="47.1629" lon="5.93062">
        <ele>347</ele>
        <time>2024-08-05T10:44:27Z</time>
      </trkpt>
      <trkpt lat="47.16285" lon="5.9306">
        <ele>346.8</ele>
        <time>2024-08-05T10:44:28Z</time>
      </trkpt>
      <trkpt lat="47.1628" lon="5.93057">
        <ele>346.8</ele>
        <time>2024-08-05T10:44:29Z</time>
      </trkpt>
      <trkpt lat="47.16275" lon="5.93054">
        <ele>346.8</ele>
        <time>2024-08-05T10:44:30Z</time>
      </trkpt>
      <trkpt lat="47.1627" lon="5.9305">
        <ele>346.6</ele>
        <time>2024-08-05T10:44:31Z</time>
      </trkpt>
      <trkpt lat="47.16264" lon="5.93045">
        <ele>346.6</ele>
        <time>2024-08-05T10:44:32Z</time>
      </trkpt>
      <trkpt lat="47.16259" lon="5.93038">
        <ele>346.4</ele>
        <time>2024-08-05T10:44:33Z</time>
      </trkpt>
      <trkpt lat="47.16255" lon="5.93031">
        <ele>346.2</ele>
        <time>2024-08-05T10:44:34Z</time>
      </trkpt>
      <trkpt lat="47.16251" lon="5.93023">
        <ele>346</ele>
        <time>2024-08-05T10:44:35Z</time>
      </trkpt>
      <trkpt lat="47.16246" lon="5.93016">
        <ele>345.8</ele>
        <time>2024-08-05T10:44:36Z</time>
      </trkpt>
      <trkpt lat="47.1624" lon="5.9301">
        <ele>345.2</ele>
        <time>2024-08-05T10:44:37Z</time>
      </trkpt>
      <trkpt lat="47.16235" lon="5.93004">
        <ele>345</ele>
        <time>2024-08-05T10:44:38Z</time>
      </trkpt>
      <trkpt lat="47.16229" lon="5.93">
        <ele>344.6</ele>
        <time>2024-08-05T10:44:39Z</time>
      </trkpt>
      <trkpt lat="47.16223" lon="5.92996">
        <ele>344.4</ele>
        <time>2024-08-05T10:44:40Z</time>
      </trkpt>
      <trkpt lat="47.16218" lon="5.92994">
        <ele>344.2</ele>
        <time>2024-08-05T10:44:41Z</time>
      </trkpt>
      <trkpt lat="47.16212" lon="5.92992">
        <ele>343.8</ele>
        <time>2024-08-05T10:44:42Z</time>
      </trkpt>
      <trkpt lat="47.16207" lon="5.92991">
        <ele>343.4</ele>
        <time>2024-08-05T10:44:43Z</time>
      </trkpt>
      <trkpt lat="47.16202" lon="5.92991">
        <ele>343</ele>
        <time>2024-08-05T10:44:44Z</time>
      </trkpt>
      <trkpt lat="47.16197" lon="5.9299">
        <ele>342.4</ele>
        <time>2024-08-05T10:44:45Z</time>
      </trkpt>
      <trkpt lat="47.16191" lon="5.9299">
        <ele>342</ele>
        <time>2024-08-05T10:44:46Z</time>
      </trkpt>
      <trkpt lat="47.16186" lon="5.9299">
        <ele>341.6</ele>
        <time>2024-08-05T10:44:47Z</time>
      </trkpt>
      <trkpt lat="47.1618" lon="5.9299">
        <ele>341.2</ele>
        <time>2024-08-05T10:44:48Z</time>
      </trkpt>
      <trkpt lat="47.16175" lon="5.92991">
        <ele>340.6</ele>
        <time>2024-08-05T10:44:49Z</time>
      </trkpt>
      <trkpt lat="47.1617" lon="5.92991">
        <ele>340</ele>
        <time>2024-08-05T10:44:50Z</time>
      </trkpt>
      <trkpt lat="47.16165" lon="5.92992">
        <ele>339.4</ele>
        <time>2024-08-05T10:44:51Z</time>
      </trkpt>
      <trkpt lat="47.1616" lon="5.92992">
        <ele>339.4</ele>
        <time>2024-08-05T10:44:52Z</time>
      </trkpt>
      <trkpt lat="47.16156" lon="5.92992">
        <ele>338.4</ele>
        <time>2024-08-05T10:44:53Z</time>
      </trkpt>
      <trkpt lat="47.16153" lon="5.92991">
        <ele>337.6</ele>
        <time>2024-08-05T10:44:54Z</time>
      </trkpt>
      <trkpt lat="47.1615" lon="5.9299">
        <ele>337.2</ele>
        <time>2024-08-05T10:44:55Z</time>
      </trkpt>
      <trkpt lat="47.16147" lon="5.92988">
        <ele>337</ele>
        <time>2024-08-05T10:44:56Z</time>
      </trkpt>
      <trkpt lat="47.16143" lon="5.92986">
        <ele>337</ele>
        <time>2024-08-05T10:44:57Z</time>
      </trkpt>
      <trkpt lat="47.16141" lon="5.92984">
        <ele>337</ele>
        <time>2024-08-05T10:44:58Z</time>
      </trkpt>
      <trkpt lat="47.16138" lon="5.92982">
        <ele>336.8</ele>
        <time>2024-08-05T10:44:59Z</time>
      </trkpt>
      <trkpt lat="47.16135" lon="5.9298">
        <ele>336.8</ele>
        <time>2024-08-05T10:45:00Z</time>
      </trkpt>
      <trkpt lat="47.16133" lon="5.92978">
        <ele>336.8</ele>
        <time>2024-08-05T10:45:01Z</time>
      </trkpt>
      <trkpt lat="47.1613" lon="5.92976">
        <ele>336.8</ele>
        <time>2024-08-05T10:45:02Z</time>
      </trkpt>
      <trkpt lat="47.16128" lon="5.92974">
        <ele>337</ele>
        <time>2024-08-05T10:45:03Z</time>
      </trkpt>
      <trkpt lat="47.16125" lon="5.92971">
        <ele>337</ele>
        <time>2024-08-05T10:45:04Z</time>
      </trkpt>
      <trkpt lat="47.16122" lon="5.92969">
        <ele>337</ele>
        <time>2024-08-05T10:45:05Z</time>
      </trkpt>
      <trkpt lat="47.1612" lon="5.92966">
        <ele>337.2</ele>
        <time>2024-08-05T10:45:06Z</time>
      </trkpt>
      <trkpt lat="47.16117" lon="5.92963">
        <ele>337.6</ele>
        <time>2024-08-05T10:45:07Z</time>
      </trkpt>
      <trkpt lat="47.16115" lon="5.9296">
        <ele>337.8</ele>
        <time>2024-08-05T10:45:08Z</time>
      </trkpt>
      <trkpt lat="47.16113" lon="5.92958">
        <ele>338</ele>
        <time>2024-08-05T10:45:09Z</time>
      </trkpt>
      <trkpt lat="47.16111" lon="5.92956">
        <ele>338.2</ele>
        <time>2024-08-05T10:45:10Z</time>
      </trkpt>
      <trkpt lat="47.16109" lon="5.92954">
        <ele>338.6</ele>
        <time>2024-08-05T10:45:11Z</time>
      </trkpt>
      <trkpt lat="47.16107" lon="5.92953">
        <ele>339</ele>
        <time>2024-08-05T10:45:12Z</time>
      </trkpt>
      <trkpt lat="47.16105" lon="5.92951">
        <ele>339.2</ele>
        <time>2024-08-05T10:45:13Z</time>
      </trkpt>
      <trkpt lat="47.16103" lon="5.92949">
        <ele>339.2</ele>
        <time>2024-08-05T10:45:14Z</time>
      </trkpt>
      <trkpt lat="47.16101" lon="5.92947">
        <ele>339.6</ele>
        <time>2024-08-05T10:45:15Z</time>
      </trkpt>
      <trkpt lat="47.16098" lon="5.92945">
        <ele>340</ele>
        <time>2024-08-05T10:45:16Z</time>
      </trkpt>
      <trkpt lat="47.16096" lon="5.92942">
        <ele>340.2</ele>
        <time>2024-08-05T10:45:17Z</time>
      </trkpt>
      <trkpt lat="47.16093" lon="5.92939">
        <ele>340.2</ele>
        <time>2024-08-05T10:45:18Z</time>
      </trkpt>
      <trkpt lat="47.1609" lon="5.92936">
        <ele>340.4</ele>
        <time>2024-08-05T10:45:19Z</time>
      </trkpt>
      <trkpt lat="47.16087" lon="5.92935">
        <ele>340.6</ele>
        <time>2024-08-05T10:45:20Z</time>
      </trkpt>
      <trkpt lat="47.16084" lon="5.92933">
        <ele>340.6</ele>
        <time>2024-08-05T10:45:21Z</time>
      </trkpt>
      <trkpt lat="47.16082" lon="5.92931">
        <ele>340.8</ele>
        <time>2024-08-05T10:45:22Z</time>
      </trkpt>
      <trkpt lat="47.1608" lon="5.92929">
        <ele>341</ele>
        <time>2024-08-05T10:45:23Z</time>
      </trkpt>
      <trkpt lat="47.16078" lon="5.92928">
        <ele>340.8</ele>
        <time>2024-08-05T10:45:24Z</time>
      </trkpt>
      <trkpt lat="47.16077" lon="5.92928">
        <ele>341</ele>
        <time>2024-08-05T10:45:25Z</time>
      </trkpt>
      <trkpt lat="47.16077" lon="5.92929">
        <ele>341</ele>
        <time>2024-08-05T10:45:26Z</time>
      </trkpt>
      <trkpt lat="47.16077" lon="5.92929">
        <ele>341</ele>
        <time>2024-08-05T10:45:27Z</time>
      </trkpt>
      <trkpt lat="47.16078" lon="5.92929">
        <ele>341</ele>
        <time>2024-08-05T10:45:28Z</time>
      </trkpt>
      <trkpt lat="47.16078" lon="5.92929">
        <ele>341</ele>
        <time>2024-08-05T10:45:29Z</time>
      </trkpt>
      <trkpt lat="47.16078" lon="5.92929">
        <ele>341</ele>
        <time>2024-08-05T10:45:30Z</time>
      </trkpt>
      <trkpt lat="47.16078" lon="5.92929">
        <ele>340.8</ele>
        <time>2024-08-05T10:45:31Z</time>
      </trkpt>
      <trkpt lat="47.16078" lon="5.92929">
        <ele>340.8</ele>
        <time>2024-08-05T10:45:32Z</time>
      </trkpt>
      <trkpt lat="47.16078" lon="5.92929">
        <ele>341</ele>
        <time>2024-08-05T10:45:33Z</time>
      </trkpt>
      <trkpt lat="47.16078" lon="5.92929">
        <ele>341</ele>
        <time>2024-08-05T10:45:34Z</time>
      </trkpt>
      <trkpt lat="47.16078" lon="5.92929">
        <ele>341</ele>
        <time>2024-08-05T10:45:35Z</time>
      </trkpt>
      <trkpt lat="47.16078" lon="5.92929">
        <ele>341</ele>
        <time>2024-08-05T10:45:36Z</time>
      </trkpt>
      <trkpt lat="47.16078" lon="5.92929">
        <ele>341</ele>
        <time>2024-08-05T10:45:37Z</time>
      </trkpt>
      <trkpt lat="47.16078" lon="5.92929">
        <ele>341</ele>
        <time>2024-08-05T10:45:38Z</time>
      </trkpt>
      <trkpt lat="47.16078" lon="5.92929">
        <ele>341</ele>
        <time>2024-08-05T10:45:39Z</time>
      </trkpt>
      <trkpt lat="47.16078" lon="5.92929">
        <ele>341</ele>
        <time>2024-08-05T10:45:40Z</time>
      </trkpt>
      <trkpt lat="47.16078" lon="5.92929">
        <ele>341.2</ele>
        <time>2024-08-05T10:45:41Z</time>
      </trkpt>
      <trkpt lat="47.16078" lon="5.92929">
        <ele>341</ele>
        <time>2024-08-05T10:45:42Z</time>
      </trkpt>
      <trkpt lat="47.16078" lon="5.92929">
        <ele>341</ele>
        <time>2024-08-05T10:45:43Z</time>
      </trkpt>
      <trkpt lat="47.16078" lon="5.92929">
        <ele>341</ele>
        <time>2024-08-05T10:45:44Z</time>
      </trkpt>
      <trkpt lat="47.16078" lon="5.92929">
        <ele>341</ele>
        <time>2024-08-05T10:45:45Z</time>
      </trkpt>
      <trkpt lat="47.16078" lon="5.92929">
        <ele>341.2</ele>
        <time>2024-08-05T10:45:46Z</time>
      </trkpt>
      <trkpt lat="47.16078" lon="5.92928">
        <ele>341</ele>
        <time>2024-08-05T10:45:47Z</time>
      </trkpt>
      <trkpt lat="47.16078" lon="5.92928">
        <ele>341</ele>
        <time>2024-08-05T10:45:48Z</time>
      </trkpt>
      <trkpt lat="47.16078" lon="5.92928">
        <ele>341.2</ele>
        <time>2024-08-05T10:45:49Z</time>
      </trkpt>
      <trkpt lat="47.16078" lon="5.92928">
        <ele>341</ele>
        <time>2024-08-05T10:45:50Z</time>
      </trkpt>
      <trkpt lat="47.16078" lon="5.92928">
        <ele>341.2</ele>
        <time>2024-08-05T10:45:51Z</time>
      </trkpt>
      <trkpt lat="47.16078" lon="5.92928">
        <ele>341.2</ele>
        <time>2024-08-05T10:45:52Z</time>
      </trkpt>
      <trkpt lat="47.16078" lon="5.92928">
        <ele>341.2</ele>
        <time>2024-08-05T10:45:53Z</time>
      </trkpt>
      <trkpt lat="47.16078" lon="5.92928">
        <ele>341.2</ele>
        <time>2024-08-05T10:45:54Z</time>
      </trkpt>
      <trkpt lat="47.16078" lon="5.92928">
        <ele>341.2</ele>
        <time>2024-08-05T10:45:55Z</time>
      </trkpt>
      <trkpt lat="47.16078" lon="5.92928">
        <ele>341.2</ele>
        <time>2024-08-05T10:45:56Z</time>
      </trkpt>
      <trkpt lat="47.16078" lon="5.92928">
        <ele>341.2</ele>
        <time>2024-08-05T10:45:57Z</time>
      </trkpt>
      <trkpt lat="47.16078" lon="5.92928">
        <ele>341.2</ele>
        <time>2024-08-05T10:45:58Z</time>
      </trkpt>
      <trkpt lat="47.16078" lon="5.92927">
        <ele>341.2</ele>
        <time>2024-08-05T10:45:59Z</time>
      </trkpt>
      <trkpt lat="47.16079" lon="5.92927">
        <ele>341.2</ele>
        <time>2024-08-05T10:46:00Z</time>
      </trkpt>
      <trkpt lat="47.16079" lon="5.92927">
        <ele>341.2</ele>
        <time>2024-08-05T10:46:01Z</time>
      </trkpt>
      <trkpt lat="47.16079" lon="5.92927">
        <ele>341.2</ele>
        <time>2024-08-05T10:46:02Z</time>
      </trkpt>
      <trkpt lat="47.16079" lon="5.92927">
        <ele>341.2</ele>
        <time>2024-08-05T10:46:03Z</time>
      </trkpt>
      <trkpt lat="47.16079" lon="5.92927">
        <ele>341.2</ele>
        <time>2024-08-05T10:46:04Z</time>
      </trkpt>
      <trkpt lat="47.16079" lon="5.92927">
        <ele>341.2</ele>
        <time>2024-08-05T10:46:05Z</time>
      </trkpt>
      <trkpt lat="47.16079" lon="5.92927">
        <ele>341.2</ele>
        <time>2024-08-05T10:46:06Z</time>
      </trkpt>
      <trkpt lat="47.16079" lon="5.92927">
        <ele>341.2</ele>
        <time>2024-08-05T10:46:07Z</time>
      </trkpt>
      <trkpt lat="47.16079" lon="5.92927">
        <ele>341.2</ele>
        <time>2024-08-05T10:46:08Z</time>
      </trkpt>
      <trkpt lat="47.16079" lon="5.92927">
        <ele>341.2</ele>
        <time>2024-08-05T10:46:09Z</time>
      </trkpt>
      <trkpt lat="47.16079" lon="5.92927">
        <ele>341.2</ele>
        <time>2024-08-05T10:46:10Z</time>
      </trkpt>
      <trkpt lat="47.16079" lon="5.92927">
        <ele>341.2</ele>
        <time>2024-08-05T10:46:11Z</time>
      </trkpt>
      <trkpt lat="47.16079" lon="5.92927">
        <ele>341.2</ele>
        <time>2024-08-05T10:46:12Z</time>
      </trkpt>
      <trkpt lat="47.16079" lon="5.92927">
        <ele>341.2</ele>
        <time>2024-08-05T10:46:13Z</time>
      </trkpt>
      <trkpt lat="47.16079" lon="5.92927">
        <ele>341.2</ele>
        <time>2024-08-05T10:46:14Z</time>
      </trkpt>
      <trkpt lat="47.16079" lon="5.92927">
        <ele>341.2</ele>
        <time>2024-08-05T10:46:15Z</time>
      </trkpt>
      <trkpt lat="47.16079" lon="5.92927">
        <ele>341.2</ele>
        <time>2024-08-05T10:46:16Z</time>
      </trkpt>
      <trkpt lat="47.16079" lon="5.92927">
        <ele>341.2</ele>
        <time>2024-08-05T10:46:17Z</time>
      </trkpt>
      <trkpt lat="47.16079" lon="5.92927">
        <ele>341.2</ele>
        <time>2024-08-05T10:46:18Z</time>
      </trkpt>
      <trkpt lat="47.16079" lon="5.92927">
        <ele>341.2</ele>
        <time>2024-08-05T10:46:19Z</time>
      </trkpt>
      <trkpt lat="47.16079" lon="5.92926">
        <ele>341.2</ele>
        <time>2024-08-05T10:46:20Z</time>
      </trkpt>
      <trkpt lat="47.16079" lon="5.92926">
        <ele>341.2</ele>
        <time>2024-08-05T10:46:21Z</time>
      </trkpt>
      <trkpt lat="47.16079" lon="5.92926">
        <ele>341.2</ele>
        <time>2024-08-05T10:46:22Z</time>
      </trkpt>
      <trkpt lat="47.16079" lon="5.92926">
        <ele>341</ele>
        <time>2024-08-05T10:46:23Z</time>
      </trkpt>
      <trkpt lat="47.16079" lon="5.92926">
        <ele>341.2</ele>
        <time>2024-08-05T10:46:24Z</time>
      </trkpt>
      <trkpt lat="47.16079" lon="5.92926">
        <ele>341.2</ele>
        <time>2024-08-05T10:46:25Z</time>
      </trkpt>
      <trkpt lat="47.16079" lon="5.92926">
        <ele>341.2</ele>
        <time>2024-08-05T10:46:26Z</time>
      </trkpt>
      <trkpt lat="47.16079" lon="5.92926">
        <ele>341.2</ele>
        <time>2024-08-05T10:46:27Z</time>
      </trkpt>
      <trkpt lat="47.16079" lon="5.92926">
        <ele>341.2</ele>
        <time>2024-08-05T10:46:28Z</time>
      </trkpt>
      <trkpt lat="47.16079" lon="5.92926">
        <ele>341.2</ele>
        <time>2024-08-05T10:46:29Z</time>
      </trkpt>
      <trkpt lat="47.16079" lon="5.92926">
        <ele>341</ele>
        <time>2024-08-05T10:46:30Z</time>
      </trkpt>
      <trkpt lat="47.16079" lon="5.92926">
        <ele>341.2</ele>
        <time>2024-08-05T10:46:31Z</time>
      </trkpt>
      <trkpt lat="47.16079" lon="5.92926">
        <ele>341.2</ele>
        <time>2024-08-05T10:46:32Z</time>
      </trkpt>
      <trkpt lat="47.1608" lon="5.92926">
        <ele>341.2</ele>
        <time>2024-08-05T10:46:33Z</time>
      </trkpt>
      <trkpt lat="47.1608" lon="5.92926">
        <ele>341.2</ele>
        <time>2024-08-05T10:46:34Z</time>
      </trkpt>
      <trkpt lat="47.1608" lon="5.92926">
        <ele>341.2</ele>
        <time>2024-08-05T10:46:35Z</time>
      </trkpt>
      <trkpt lat="47.1608" lon="5.92926">
        <ele>341.2</ele>
        <time>2024-08-05T10:46:36Z</time>
      </trkpt>
      <trkpt lat="47.1608" lon="5.92926">
        <ele>341.2</ele>
        <time>2024-08-05T10:46:37Z</time>
      </trkpt>
      <trkpt lat="47.1608" lon="5.92926">
        <ele>341.2</ele>
        <time>2024-08-05T10:46:38Z</time>
      </trkpt>
      <trkpt lat="47.1608" lon="5.92926">
        <ele>341.2</ele>
        <time>2024-08-05T10:46:39Z</time>
      </trkpt>
      <trkpt lat="47.1608" lon="5.92926">
        <ele>341.2</ele>
        <time>2024-08-05T10:46:40Z</time>
      </trkpt>
      <trkpt lat="47.1608" lon="5.92926">
        <ele>341.2</ele>
        <time>2024-08-05T10:46:41Z</time>
      </trkpt>
      <trkpt lat="47.1608" lon="5.92926">
        <ele>341.2</ele>
        <time>2024-08-05T10:46:42Z</time>
      </trkpt>
      <trkpt lat="47.1608" lon="5.92926">
        <ele>341.2</ele>
        <time>2024-08-05T10:46:43Z</time>
      </trkpt>
      <trkpt lat="47.1608" lon="5.92926">
        <ele>341.2</ele>
        <time>2024-08-05T10:46:44Z</time>
      </trkpt>
      <trkpt lat="47.1608" lon="5.92926">
        <ele>341.4</ele>
        <time>2024-08-05T10:46:45Z</time>
      </trkpt>
      <trkpt lat="47.1608" lon="5.92926">
        <ele>341.2</ele>
        <time>2024-08-05T10:46:46Z</time>
      </trkpt>
      <trkpt lat="47.1608" lon="5.92925">
        <ele>341.4</ele>
        <time>2024-08-05T10:46:47Z</time>
      </trkpt>
      <trkpt lat="47.1608" lon="5.92925">
        <ele>341.4</ele>
        <time>2024-08-05T10:46:48Z</time>
      </trkpt>
      <trkpt lat="47.1608" lon="5.92925">
        <ele>341.2</ele>
        <time>2024-08-05T10:46:49Z</time>
      </trkpt>
      <trkpt lat="47.1608" lon="5.92925">
        <ele>341.4</ele>
        <time>2024-08-05T10:46:50Z</time>
      </trkpt>
      <trkpt lat="47.1608" lon="5.92925">
        <ele>341.4</ele>
        <time>2024-08-05T10:46:51Z</time>
      </trkpt>
      <trkpt lat="47.1608" lon="5.92925">
        <ele>341.2</ele>
        <time>2024-08-05T10:46:52Z</time>
      </trkpt>
      <trkpt lat="47.1608" lon="5.92925">
        <ele>341.2</ele>
        <time>2024-08-05T10:46:53Z</time>
      </trkpt>
      <trkpt lat="47.1608" lon="5.92925">
        <ele>341.4</ele>
        <time>2024-08-05T10:46:54Z</time>
      </trkpt>
      <trkpt lat="47.1608" lon="5.92925">
        <ele>341.4</ele>
        <time>2024-08-05T10:46:55Z</time>
      </trkpt>
      <trkpt lat="47.1608" lon="5.92925">
        <ele>341.2</ele>
        <time>2024-08-05T10:46:56Z</time>
      </trkpt>
      <trkpt lat="47.1608" lon="5.92925">
        <ele>341.2</ele>
        <time>2024-08-05T10:46:57Z</time>
      </trkpt>
      <trkpt lat="47.1608" lon="5.92925">
        <ele>341.2</ele>
        <time>2024-08-05T10:46:58Z</time>
      </trkpt>
      <trkpt lat="47.1608" lon="5.92925">
        <ele>341.2</ele>
        <time>2024-08-05T10:46:59Z</time>
      </trkpt>
      <trkpt lat="47.1608" lon="5.92925">
        <ele>341.2</ele>
        <time>2024-08-05T10:47:00Z</time>
      </trkpt>
      <trkpt lat="47.1608" lon="5.92925">
        <ele>341.2</ele>
        <time>2024-08-05T10:47:01Z</time>
      </trkpt>
      <trkpt lat="47.1608" lon="5.92925">
        <ele>341.2</ele>
        <time>2024-08-05T10:47:02Z</time>
      </trkpt>
      <trkpt lat="47.1608" lon="5.92925">
        <ele>341.2</ele>
        <time>2024-08-05T10:47:03Z</time>
      </trkpt>
      <trkpt lat="47.1608" lon="5.92925">
        <ele>341.2</ele>
        <time>2024-08-05T10:47:04Z</time>
      </trkpt>
      <trkpt lat="47.1608" lon="5.92925">
        <ele>341.2</ele>
        <time>2024-08-05T10:47:05Z</time>
      </trkpt>
      <trkpt lat="47.1608" lon="5.92925">
        <ele>341.2</ele>
        <time>2024-08-05T10:47:06Z</time>
      </trkpt>
      <trkpt lat="47.1608" lon="5.92925">
        <ele>341.2</ele>
        <time>2024-08-05T10:47:07Z</time>
      </trkpt>
      <trkpt lat="47.1608" lon="5.92925">
        <ele>341.2</ele>
        <time>2024-08-05T10:47:08Z</time>
      </trkpt>
      <trkpt lat="47.1608" lon="5.92925">
        <ele>341.2</ele>
        <time>2024-08-05T10:47:09Z</time>
      </trkpt>
      <trkpt lat="47.1608" lon="5.92925">
        <ele>341.2</ele>
        <time>2024-08-05T10:47:10Z</time>
      </trkpt>
      <trkpt lat="47.1608" lon="5.92925">
        <ele>341.2</ele>
        <time>2024-08-05T10:47:11Z</time>
      </trkpt>
      <trkpt lat="47.1608" lon="5.92925">
        <ele>341.2</ele>
        <time>2024-08-05T10:47:12Z</time>
      </trkpt>
      <trkpt lat="47.1608" lon="5.92925">
        <ele>341.2</ele>
        <time>2024-08-05T10:47:13Z</time>
      </trkpt>
      <trkpt lat="47.1608" lon="5.92925">
        <ele>341.2</ele>
        <time>2024-08-05T10:47:14Z</time>
      </trkpt>
      <trkpt lat="47.1608" lon="5.92925">
        <ele>341</ele>
        <time>2024-08-05T10:47:15Z</time>
      </trkpt>
      <trkpt lat="47.1608" lon="5.92925">
        <ele>341.2</ele>
        <time>2024-08-05T10:47:16Z</time>
      </trkpt>
      <trkpt lat="47.1608" lon="5.92925">
        <ele>341.2</ele>
        <time>2024-08-05T10:47:17Z</time>
      </trkpt>
      <trkpt lat="47.1608" lon="5.92925">
        <ele>341</ele>
        <time>2024-08-05T10:47:18Z</time>
      </trkpt>
      <trkpt lat="47.1608" lon="5.92925">
        <ele>341</ele>
        <time>2024-08-05T10:47:19Z</time>
      </trkpt>
      <trkpt lat="47.1608" lon="5.92925">
        <ele>341.2</ele>
        <time>2024-08-05T10:47:20Z</time>
      </trkpt>
      <trkpt lat="47.1608" lon="5.92925">
        <ele>341</ele>
        <time>2024-08-05T10:47:21Z</time>
      </trkpt>
      <trkpt lat="47.1608" lon="5.92925">
        <ele>341</ele>
        <time>2024-08-05T10:47:22Z</time>
      </trkpt>
      <trkpt lat="47.1608" lon="5.92925">
        <ele>341</ele>
        <time>2024-08-05T10:47:23Z</time>
      </trkpt>
      <trkpt lat="47.1608" lon="5.92925">
        <ele>341</ele>
        <time>2024-08-05T10:47:24Z</time>
      </trkpt>
      <trkpt lat="47.1608" lon="5.92925">
        <ele>341</ele>
        <time>2024-08-05T10:47:25Z</time>
      </trkpt>
      <trkpt lat="47.1608" lon="5.92925">
        <ele>341</ele>
        <time>2024-08-05T10:47:26Z</time>
      </trkpt>
      <trkpt lat="47.1608" lon="5.92925">
        <ele>341</ele>
        <time>2024-08-05T10:47:27Z</time>
      </trkpt>
      <trkpt lat="47.1608" lon="5.92925">
        <ele>341</ele>
        <time>2024-08-05T10:47:28Z</time>
      </trkpt>
      <trkpt lat="47.1608" lon="5.92925">
        <ele>341</ele>
        <time>2024-08-05T10:47:29Z</time>
      </trkpt>
      <trkpt lat="47.1608" lon="5.92925">
        <ele>341</ele>
        <time>2024-08-05T10:47:30Z</time>
      </trkpt>
      <trkpt lat="47.1608" lon="5.92925">
        <ele>341</ele>
        <time>2024-08-05T10:47:31Z</time>
      </trkpt>
      <trkpt lat="47.1608" lon="5.92925">
        <ele>340.8</ele>
        <time>2024-08-05T10:47:32Z</time>
      </trkpt>
      <trkpt lat="47.1608" lon="5.92925">
        <ele>341</ele>
        <time>2024-08-05T10:47:33Z</time>
      </trkpt>
      <trkpt lat="47.1608" lon="5.92925">
        <ele>341</ele>
        <time>2024-08-05T10:47:34Z</time>
      </trkpt>
      <trkpt lat="47.1608" lon="5.92925">
        <ele>341</ele>
        <time>2024-08-05T10:47:35Z</time>
      </trkpt>
      <trkpt lat="47.1608" lon="5.92925">
        <ele>341</ele>
        <time>2024-08-05T10:47:36Z</time>
      </trkpt>
      <trkpt lat="47.1608" lon="5.92925">
        <ele>341</ele>
        <time>2024-08-05T10:47:37Z</time>
      </trkpt>
      <trkpt lat="47.1608" lon="5.92925">
        <ele>341</ele>
        <time>2024-08-05T10:47:38Z</time>
      </trkpt>
      <trkpt lat="47.1608" lon="5.92925">
        <ele>341</ele>
        <time>2024-08-05T10:47:39Z</time>
      </trkpt>
      <trkpt lat="47.1608" lon="5.92925">
        <ele>341</ele>
        <time>2024-08-05T10:47:40Z</time>
      </trkpt>
      <trkpt lat="47.1608" lon="5.92925">
        <ele>341</ele>
        <time>2024-08-05T10:47:41Z</time>
      </trkpt>
      <trkpt lat="47.1608" lon="5.92925">
        <ele>341</ele>
        <time>2024-08-05T10:47:42Z</time>
      </trkpt>
      <trkpt lat="47.1608" lon="5.92925">
        <ele>341</ele>
        <time>2024-08-05T10:47:43Z</time>
      </trkpt>
      <trkpt lat="47.1608" lon="5.92925">
        <ele>341</ele>
        <time>2024-08-05T10:47:44Z</time>
      </trkpt>
      <trkpt lat="47.1608" lon="5.92925">
        <ele>341</ele>
        <time>2024-08-05T10:47:45Z</time>
      </trkpt>
      <trkpt lat="47.1608" lon="5.92925">
        <ele>341</ele>
        <time>2024-08-05T10:47:46Z</time>
      </trkpt>
      <trkpt lat="47.1608" lon="5.92925">
        <ele>341</ele>
        <time>2024-08-05T10:47:47Z</time>
      </trkpt>
      <trkpt lat="47.1608" lon="5.92925">
        <ele>341.2</ele>
        <time>2024-08-05T10:47:48Z</time>
      </trkpt>
      <trkpt lat="47.1608" lon="5.92925">
        <ele>341</ele>
        <time>2024-08-05T10:47:49Z</time>
      </trkpt>
      <trkpt lat="47.1608" lon="5.92925">
        <ele>341.2</ele>
        <time>2024-08-05T10:47:50Z</time>
      </trkpt>
      <trkpt lat="47.1608" lon="5.92925">
        <ele>341</ele>
        <time>2024-08-05T10:47:51Z</time>
      </trkpt>
      <trkpt lat="47.1608" lon="5.92925">
        <ele>341</ele>
        <time>2024-08-05T10:47:52Z</time>
      </trkpt>
      <trkpt lat="47.1608" lon="5.92925">
        <ele>341</ele>
        <time>2024-08-05T10:47:53Z</time>
      </trkpt>
      <trkpt lat="47.1608" lon="5.92925">
        <ele>341.2</ele>
        <time>2024-08-05T10:47:54Z</time>
      </trkpt>
      <trkpt lat="47.1608" lon="5.92926">
        <ele>341.2</ele>
        <time>2024-08-05T10:47:55Z</time>
      </trkpt>
      <trkpt lat="47.1608" lon="5.92926">
        <ele>341</ele>
        <time>2024-08-05T10:47:56Z</time>
      </trkpt>
      <trkpt lat="47.1608" lon="5.92926">
        <ele>341.2</ele>
        <time>2024-08-05T10:47:57Z</time>
      </trkpt>
      <trkpt lat="47.1608" lon="5.92926">
        <ele>341</ele>
        <time>2024-08-05T10:47:58Z</time>
      </trkpt>
      <trkpt lat="47.1608" lon="5.92926">
        <ele>341</ele>
        <time>2024-08-05T10:47:59Z</time>
      </trkpt>
      <trkpt lat="47.1608" lon="5.92925">
        <ele>341.2</ele>
        <time>2024-08-05T10:48:00Z</time>
      </trkpt>
      <trkpt lat="47.1608" lon="5.92925">
        <ele>341.2</ele>
        <time>2024-08-05T10:48:01Z</time>
      </trkpt>
      <trkpt lat="47.16079" lon="5.92925">
        <ele>341.2</ele>
        <time>2024-08-05T10:48:02Z</time>
      </trkpt>
      <trkpt lat="47.16079" lon="5.92924">
        <ele>341.2</ele>
        <time>2024-08-05T10:48:03Z</time>
      </trkpt>
      <trkpt lat="47.16078" lon="5.92923">
        <ele>341.2</ele>
        <time>2024-08-05T10:48:04Z</time>
      </trkpt>
      <trkpt lat="47.16078" lon="5.92922">
        <ele>341.2</ele>
        <time>2024-08-05T10:48:05Z</time>
      </trkpt>
      <trkpt lat="47.16077" lon="5.9292">
        <ele>341.2</ele>
        <time>2024-08-05T10:48:06Z</time>
      </trkpt>
      <trkpt lat="47.16076" lon="5.92919">
        <ele>341.2</ele>
        <time>2024-08-05T10:48:07Z</time>
      </trkpt>
      <trkpt lat="47.16075" lon="5.92917">
        <ele>341.2</ele>
        <time>2024-08-05T10:48:08Z</time>
      </trkpt>
      <trkpt lat="47.16073" lon="5.92915">
        <ele>341.2</ele>
        <time>2024-08-05T10:48:09Z</time>
      </trkpt>
      <trkpt lat="47.1607" lon="5.92912">
        <ele>341.2</ele>
        <time>2024-08-05T10:48:10Z</time>
      </trkpt>
      <trkpt lat="47.16067" lon="5.9291">
        <ele>341.2</ele>
        <time>2024-08-05T10:48:11Z</time>
      </trkpt>
      <trkpt lat="47.16064" lon="5.92907">
        <ele>341.2</ele>
        <time>2024-08-05T10:48:12Z</time>
      </trkpt>
      <trkpt lat="47.16061" lon="5.92905">
        <ele>341.2</ele>
        <time>2024-08-05T10:48:13Z</time>
      </trkpt>
      <trkpt lat="47.16058" lon="5.92903">
        <ele>341.2</ele>
        <time>2024-08-05T10:48:14Z</time>
      </trkpt>
      <trkpt lat="47.16054" lon="5.929">
        <ele>341.4</ele>
        <time>2024-08-05T10:48:15Z</time>
      </trkpt>
      <trkpt lat="47.16051" lon="5.92898">
        <ele>341</ele>
        <time>2024-08-05T10:48:16Z</time>
      </trkpt>
      <trkpt lat="47.16048" lon="5.92895">
        <ele>341.2</ele>
        <time>2024-08-05T10:48:17Z</time>
      </trkpt>
      <trkpt lat="47.16044" lon="5.92892">
        <ele>341.2</ele>
        <time>2024-08-05T10:48:18Z</time>
      </trkpt>
      <trkpt lat="47.16041" lon="5.9289">
        <ele>341</ele>
        <time>2024-08-05T10:48:19Z</time>
      </trkpt>
      <trkpt lat="47.16037" lon="5.92887">
        <ele>341</ele>
        <time>2024-08-05T10:48:20Z</time>
      </trkpt>
      <trkpt lat="47.16033" lon="5.92884">
        <ele>341</ele>
        <time>2024-08-05T10:48:21Z</time>
      </trkpt>
      <trkpt lat="47.16029" lon="5.92881">
        <ele>341</ele>
        <time>2024-08-05T10:48:22Z</time>
      </trkpt>
      <trkpt lat="47.16025" lon="5.92878">
        <ele>341</ele>
        <time>2024-08-05T10:48:23Z</time>
      </trkpt>
      <trkpt lat="47.1602" lon="5.92876">
        <ele>340.8</ele>
        <time>2024-08-05T10:48:24Z</time>
      </trkpt>
      <trkpt lat="47.16015" lon="5.92874">
        <ele>340.8</ele>
        <time>2024-08-05T10:48:25Z</time>
      </trkpt>
      <trkpt lat="47.1601" lon="5.92871">
        <ele>340.4</ele>
        <time>2024-08-05T10:48:26Z</time>
      </trkpt>
      <trkpt lat="47.16005" lon="5.92869">
        <ele>340.6</ele>
        <time>2024-08-05T10:48:27Z</time>
      </trkpt>
      <trkpt lat="47.15999" lon="5.92866">
        <ele>340.2</ele>
        <time>2024-08-05T10:48:28Z</time>
      </trkpt>
      <trkpt lat="47.15992" lon="5.92863">
        <ele>340.2</ele>
        <time>2024-08-05T10:48:29Z</time>
      </trkpt>
      <trkpt lat="47.15985" lon="5.92859">
        <ele>340.2</ele>
        <time>2024-08-05T10:48:30Z</time>
      </trkpt>
      <trkpt lat="47.15977" lon="5.92854">
        <ele>340.2</ele>
        <time>2024-08-05T10:48:31Z</time>
      </trkpt>
      <trkpt lat="47.1597" lon="5.92848">
        <ele>340.2</ele>
        <time>2024-08-05T10:48:32Z</time>
      </trkpt>
      <trkpt lat="47.15963" lon="5.92841">
        <ele>340</ele>
        <time>2024-08-05T10:48:33Z</time>
      </trkpt>
      <trkpt lat="47.15956" lon="5.92834">
        <ele>339.8</ele>
        <time>2024-08-05T10:48:34Z</time>
      </trkpt>
      <trkpt lat="47.15948" lon="5.92826">
        <ele>339.4</ele>
        <time>2024-08-05T10:48:35Z</time>
      </trkpt>
      <trkpt lat="47.15942" lon="5.92819">
        <ele>339</ele>
        <time>2024-08-05T10:48:36Z</time>
      </trkpt>
      <trkpt lat="47.15935" lon="5.92811">
        <ele>338.6</ele>
        <time>2024-08-05T10:48:37Z</time>
      </trkpt>
      <trkpt lat="47.15929" lon="5.92803">
        <ele>338.4</ele>
        <time>2024-08-05T10:48:38Z</time>
      </trkpt>
      <trkpt lat="47.15923" lon="5.92795">
        <ele>337.8</ele>
        <time>2024-08-05T10:48:39Z</time>
      </trkpt>
      <trkpt lat="47.15917" lon="5.92789">
        <ele>337.2</ele>
        <time>2024-08-05T10:48:40Z</time>
      </trkpt>
      <trkpt lat="47.15911" lon="5.92782">
        <ele>337</ele>
        <time>2024-08-05T10:48:41Z</time>
      </trkpt>
      <trkpt lat="47.15905" lon="5.92777">
        <ele>336.6</ele>
        <time>2024-08-05T10:48:42Z</time>
      </trkpt>
      <trkpt lat="47.15899" lon="5.92772">
        <ele>336.4</ele>
        <time>2024-08-05T10:48:43Z</time>
      </trkpt>
      <trkpt lat="47.15892" lon="5.92767">
        <ele>336.4</ele>
        <time>2024-08-05T10:48:44Z</time>
      </trkpt>
      <trkpt lat="47.15886" lon="5.92762">
        <ele>336</ele>
        <time>2024-08-05T10:48:45Z</time>
      </trkpt>
      <trkpt lat="47.1588" lon="5.92757">
        <ele>335.8</ele>
        <time>2024-08-05T10:48:46Z</time>
      </trkpt>
      <trkpt lat="47.15874" lon="5.92751">
        <ele>335.6</ele>
        <time>2024-08-05T10:48:47Z</time>
      </trkpt>
      <trkpt lat="47.15867" lon="5.92746">
        <ele>335.6</ele>
        <time>2024-08-05T10:48:48Z</time>
      </trkpt>
      <trkpt lat="47.15862" lon="5.9274">
        <ele>335.4</ele>
        <time>2024-08-05T10:48:49Z</time>
      </trkpt>
      <trkpt lat="47.15856" lon="5.92734">
        <ele>335.4</ele>
        <time>2024-08-05T10:48:50Z</time>
      </trkpt>
      <trkpt lat="47.1585" lon="5.92729">
        <ele>335.2</ele>
        <time>2024-08-05T10:48:51Z</time>
      </trkpt>
      <trkpt lat="47.15845" lon="5.92724">
        <ele>335</ele>
        <time>2024-08-05T10:48:52Z</time>
      </trkpt>
      <trkpt lat="47.15839" lon="5.92718">
        <ele>335</ele>
        <time>2024-08-05T10:48:53Z</time>
      </trkpt>
      <trkpt lat="47.15834" lon="5.92713">
        <ele>335</ele>
        <time>2024-08-05T10:48:54Z</time>
      </trkpt>
      <trkpt lat="47.15829" lon="5.92708">
        <ele>334.8</ele>
        <time>2024-08-05T10:48:55Z</time>
      </trkpt>
      <trkpt lat="47.15825" lon="5.92703">
        <ele>334.6</ele>
        <time>2024-08-05T10:48:56Z</time>
      </trkpt>
      <trkpt lat="47.1582" lon="5.92698">
        <ele>334.4</ele>
        <time>2024-08-05T10:48:57Z</time>
      </trkpt>
      <trkpt lat="47.15815" lon="5.92694">
        <ele>334.4</ele>
        <time>2024-08-05T10:48:58Z</time>
      </trkpt>
      <trkpt lat="47.15811" lon="5.92689">
        <ele>334.2</ele>
        <time>2024-08-05T10:48:59Z</time>
      </trkpt>
      <trkpt lat="47.15806" lon="5.92685">
        <ele>334.2</ele>
        <time>2024-08-05T10:49:00Z</time>
      </trkpt>
      <trkpt lat="47.15802" lon="5.92682">
        <ele>334</ele>
        <time>2024-08-05T10:49:01Z</time>
      </trkpt>
      <trkpt lat="47.15798" lon="5.92678">
        <ele>333.8</ele>
        <time>2024-08-05T10:49:02Z</time>
      </trkpt>
      <trkpt lat="47.15793" lon="5.92675">
        <ele>333.6</ele>
        <time>2024-08-05T10:49:03Z</time>
      </trkpt>
      <trkpt lat="47.1579" lon="5.92671">
        <ele>333.6</ele>
        <time>2024-08-05T10:49:04Z</time>
      </trkpt>
      <trkpt lat="47.15786" lon="5.92668">
        <ele>333.6</ele>
        <time>2024-08-05T10:49:05Z</time>
      </trkpt>
      <trkpt lat="47.15782" lon="5.92664">
        <ele>333.6</ele>
        <time>2024-08-05T10:49:06Z</time>
      </trkpt>
      <trkpt lat="47.15778" lon="5.9266">
        <ele>333.8</ele>
        <time>2024-08-05T10:49:07Z</time>
      </trkpt>
      <trkpt lat="47.15774" lon="5.92657">
        <ele>333.6</ele>
        <time>2024-08-05T10:49:08Z</time>
      </trkpt>
      <trkpt lat="47.1577" lon="5.92655">
        <ele>333.6</ele>
        <time>2024-08-05T10:49:09Z</time>
      </trkpt>
      <trkpt lat="47.15766" lon="5.92654">
        <ele>333.6</ele>
        <time>2024-08-05T10:49:10Z</time>
      </trkpt>
      <trkpt lat="47.15763" lon="5.92656">
        <ele>333.6</ele>
        <time>2024-08-05T10:49:11Z</time>
      </trkpt>
      <trkpt lat="47.15759" lon="5.92658">
        <ele>333.6</ele>
        <time>2024-08-05T10:49:12Z</time>
      </trkpt>
      <trkpt lat="47.15756" lon="5.92663">
        <ele>333.6</ele>
        <time>2024-08-05T10:49:13Z</time>
      </trkpt>
      <trkpt lat="47.15754" lon="5.92669">
        <ele>333.6</ele>
        <time>2024-08-05T10:49:14Z</time>
      </trkpt>
      <trkpt lat="47.15752" lon="5.92676">
        <ele>333.6</ele>
        <time>2024-08-05T10:49:15Z</time>
      </trkpt>
      <trkpt lat="47.15749" lon="5.92684">
        <ele>333.6</ele>
        <time>2024-08-05T10:49:16Z</time>
      </trkpt>
      <trkpt lat="47.15747" lon="5.92693">
        <ele>333.6</ele>
        <time>2024-08-05T10:49:17Z</time>
      </trkpt>
      <trkpt lat="47.15744" lon="5.92702">
        <ele>333.6</ele>
        <time>2024-08-05T10:49:18Z</time>
      </trkpt>
      <trkpt lat="47.15741" lon="5.92712">
        <ele>333.6</ele>
        <time>2024-08-05T10:49:19Z</time>
      </trkpt>
      <trkpt lat="47.15739" lon="5.92721">
        <ele>333.6</ele>
        <time>2024-08-05T10:49:20Z</time>
      </trkpt>
      <trkpt lat="47.15737" lon="5.92731">
        <ele>333.6</ele>
        <time>2024-08-05T10:49:21Z</time>
      </trkpt>
      <trkpt lat="47.15734" lon="5.92738">
        <ele>333.4</ele>
        <time>2024-08-05T10:49:22Z</time>
      </trkpt>
      <trkpt lat="47.15732" lon="5.92747">
        <ele>333.2</ele>
        <time>2024-08-05T10:49:23Z</time>
      </trkpt>
      <trkpt lat="47.1573" lon="5.92753">
        <ele>333</ele>
        <time>2024-08-05T10:49:24Z</time>
      </trkpt>
      <trkpt lat="47.15728" lon="5.92759">
        <ele>332.8</ele>
        <time>2024-08-05T10:49:25Z</time>
      </trkpt>
      <trkpt lat="47.15727" lon="5.92764">
        <ele>332.6</ele>
        <time>2024-08-05T10:49:26Z</time>
      </trkpt>
      <trkpt lat="47.15726" lon="5.92767">
        <ele>332.2</ele>
        <time>2024-08-05T10:49:27Z</time>
      </trkpt>
      <trkpt lat="47.15726" lon="5.9277">
        <ele>332.2</ele>
        <time>2024-08-05T10:49:28Z</time>
      </trkpt>
      <trkpt lat="47.15727" lon="5.92774">
        <ele>331.8</ele>
        <time>2024-08-05T10:49:29Z</time>
      </trkpt>
      <trkpt lat="47.15728" lon="5.92777">
        <ele>331.4</ele>
        <time>2024-08-05T10:49:30Z</time>
      </trkpt>
      <trkpt lat="47.15728" lon="5.9278">
        <ele>331.2</ele>
        <time>2024-08-05T10:49:31Z</time>
      </trkpt>
      <trkpt lat="47.15728" lon="5.92784">
        <ele>330.8</ele>
        <time>2024-08-05T10:49:32Z</time>
      </trkpt>
      <trkpt lat="47.15728" lon="5.92787">
        <ele>330.6</ele>
        <time>2024-08-05T10:49:33Z</time>
      </trkpt>
      <trkpt lat="47.15726" lon="5.9279">
        <ele>330.2</ele>
        <time>2024-08-05T10:49:34Z</time>
      </trkpt>
      <trkpt lat="47.15724" lon="5.92792">
        <ele>329.8</ele>
        <time>2024-08-05T10:49:35Z</time>
      </trkpt>
      <trkpt lat="47.15722" lon="5.92793">
        <ele>329.8</ele>
        <time>2024-08-05T10:49:36Z</time>
      </trkpt>
      <trkpt lat="47.15719" lon="5.92794">
        <ele>329.8</ele>
        <time>2024-08-05T10:49:37Z</time>
      </trkpt>
      <trkpt lat="47.15717" lon="5.92795">
        <ele>329.8</ele>
        <time>2024-08-05T10:49:38Z</time>
      </trkpt>
      <trkpt lat="47.15713" lon="5.92795">
        <ele>329.8</ele>
        <time>2024-08-05T10:49:39Z</time>
      </trkpt>
      <trkpt lat="47.1571" lon="5.92796">
        <ele>329.6</ele>
        <time>2024-08-05T10:49:40Z</time>
      </trkpt>
      <trkpt lat="47.15707" lon="5.92794">
        <ele>329.6</ele>
        <time>2024-08-05T10:49:41Z</time>
      </trkpt>
      <trkpt lat="47.15704" lon="5.92795">
        <ele>329.8</ele>
        <time>2024-08-05T10:49:42Z</time>
      </trkpt>
      <trkpt lat="47.15701" lon="5.92796">
        <ele>329.8</ele>
        <time>2024-08-05T10:49:43Z</time>
      </trkpt>
      <trkpt lat="47.15699" lon="5.92797">
        <ele>329.8</ele>
        <time>2024-08-05T10:49:44Z</time>
      </trkpt>
      <trkpt lat="47.15695" lon="5.92797">
        <ele>329.8</ele>
        <time>2024-08-05T10:49:45Z</time>
      </trkpt>
      <trkpt lat="47.15692" lon="5.92797">
        <ele>329.6</ele>
        <time>2024-08-05T10:49:46Z</time>
      </trkpt>
      <trkpt lat="47.15688" lon="5.92797">
        <ele>329.8</ele>
        <time>2024-08-05T10:49:47Z</time>
      </trkpt>
      <trkpt lat="47.15686" lon="5.92796">
        <ele>330</ele>
        <time>2024-08-05T10:49:48Z</time>
      </trkpt>
      <trkpt lat="47.15684" lon="5.92796">
        <ele>330.2</ele>
        <time>2024-08-05T10:49:49Z</time>
      </trkpt>
      <trkpt lat="47.15682" lon="5.92796">
        <ele>330.2</ele>
        <time>2024-08-05T10:49:50Z</time>
      </trkpt>
      <trkpt lat="47.15681" lon="5.92796">
        <ele>330.2</ele>
        <time>2024-08-05T10:49:51Z</time>
      </trkpt>
      <trkpt lat="47.15681" lon="5.92796">
        <ele>330.4</ele>
        <time>2024-08-05T10:49:52Z</time>
      </trkpt>
      <trkpt lat="47.15681" lon="5.92796">
        <ele>330.6</ele>
        <time>2024-08-05T10:49:53Z</time>
      </trkpt>
      <trkpt lat="47.15681" lon="5.92796">
        <ele>330.6</ele>
        <time>2024-08-05T10:49:54Z</time>
      </trkpt>
      <trkpt lat="47.1568" lon="5.92795">
        <ele>330.6</ele>
        <time>2024-08-05T10:49:55Z</time>
      </trkpt>
      <trkpt lat="47.1568" lon="5.92795">
        <ele>330.8</ele>
        <time>2024-08-05T10:49:56Z</time>
      </trkpt>
      <trkpt lat="47.1568" lon="5.92795">
        <ele>330.8</ele>
        <time>2024-08-05T10:49:57Z</time>
      </trkpt>
      <trkpt lat="47.1568" lon="5.92795">
        <ele>330.8</ele>
        <time>2024-08-05T10:49:58Z</time>
      </trkpt>
      <trkpt lat="47.1568" lon="5.92795">
        <ele>330.8</ele>
        <time>2024-08-05T10:49:59Z</time>
      </trkpt>
      <trkpt lat="47.1568" lon="5.92795">
        <ele>330.6</ele>
        <time>2024-08-05T10:50:00Z</time>
      </trkpt>
      <trkpt lat="47.1568" lon="5.92795">
        <ele>330.8</ele>
        <time>2024-08-05T10:50:01Z</time>
      </trkpt>
      <trkpt lat="47.1568" lon="5.92795">
        <ele>330.8</ele>
        <time>2024-08-05T10:50:02Z</time>
      </trkpt>
      <trkpt lat="47.1568" lon="5.92795">
        <ele>330.8</ele>
        <time>2024-08-05T10:50:03Z</time>
      </trkpt>
      <trkpt lat="47.1568" lon="5.92795">
        <ele>330.8</ele>
        <time>2024-08-05T10:50:04Z</time>
      </trkpt>
      <trkpt lat="47.1568" lon="5.92795">
        <ele>330.8</ele>
        <time>2024-08-05T10:50:05Z</time>
      </trkpt>
      <trkpt lat="47.1568" lon="5.92795">
        <ele>330.8</ele>
        <time>2024-08-05T10:50:06Z</time>
      </trkpt>
      <trkpt lat="47.1568" lon="5.92795">
        <ele>330.8</ele>
        <time>2024-08-05T10:50:07Z</time>
      </trkpt>
      <trkpt lat="47.1568" lon="5.92795">
        <ele>330.8</ele>
        <time>2024-08-05T10:50:08Z</time>
      </trkpt>
      <trkpt lat="47.1568" lon="5.92795">
        <ele>330.8</ele>
        <time>2024-08-05T10:50:09Z</time>
      </trkpt>
      <trkpt lat="47.1568" lon="5.92795">
        <ele>330.8</ele>
        <time>2024-08-05T10:50:10Z</time>
      </trkpt>
      <trkpt lat="47.1568" lon="5.92795">
        <ele>330.8</ele>
        <time>2024-08-05T10:50:11Z</time>
      </trkpt>
      <trkpt lat="47.1568" lon="5.92795">
        <ele>330.8</ele>
        <time>2024-08-05T10:50:12Z</time>
      </trkpt>
      <trkpt lat="47.1568" lon="5.92795">
        <ele>330.8</ele>
        <time>2024-08-05T10:50:13Z</time>
      </trkpt>
      <trkpt lat="47.1568" lon="5.92794">
        <ele>330.8</ele>
        <time>2024-08-05T10:50:14Z</time>
      </trkpt>
      <trkpt lat="47.1568" lon="5.92794">
        <ele>330.8</ele>
        <time>2024-08-05T10:50:15Z</time>
      </trkpt>
      <trkpt lat="47.1568" lon="5.92794">
        <ele>330.8</ele>
        <time>2024-08-05T10:50:16Z</time>
      </trkpt>
      <trkpt lat="47.1568" lon="5.92794">
        <ele>330.8</ele>
        <time>2024-08-05T10:50:17Z</time>
      </trkpt>
      <trkpt lat="47.1568" lon="5.92794">
        <ele>330.8</ele>
        <time>2024-08-05T10:50:18Z</time>
      </trkpt>
      <trkpt lat="47.1568" lon="5.92794">
        <ele>330.8</ele>
        <time>2024-08-05T10:50:19Z</time>
      </trkpt>
      <trkpt lat="47.1568" lon="5.92794">
        <ele>330.8</ele>
        <time>2024-08-05T10:50:20Z</time>
      </trkpt>
      <trkpt lat="47.1568" lon="5.92794">
        <ele>330.8</ele>
        <time>2024-08-05T10:50:21Z</time>
      </trkpt>
      <trkpt lat="47.1568" lon="5.92794">
        <ele>330.8</ele>
        <time>2024-08-05T10:50:22Z</time>
      </trkpt>
      <trkpt lat="47.1568" lon="5.92794">
        <ele>330.8</ele>
        <time>2024-08-05T10:50:23Z</time>
      </trkpt>
      <trkpt lat="47.1568" lon="5.92794">
        <ele>330.8</ele>
        <time>2024-08-05T10:50:24Z</time>
      </trkpt>
      <trkpt lat="47.1568" lon="5.92794">
        <ele>330.8</ele>
        <time>2024-08-05T10:50:25Z</time>
      </trkpt>
      <trkpt lat="47.1568" lon="5.92794">
        <ele>330.8</ele>
        <time>2024-08-05T10:50:26Z</time>
      </trkpt>
      <trkpt lat="47.1568" lon="5.92794">
        <ele>330.8</ele>
        <time>2024-08-05T10:50:27Z</time>
      </trkpt>
      <trkpt lat="47.15679" lon="5.92794">
        <ele>330.8</ele>
        <time>2024-08-05T10:50:28Z</time>
      </trkpt>
      <trkpt lat="47.15679" lon="5.92794">
        <ele>330.8</ele>
        <time>2024-08-05T10:50:29Z</time>
      </trkpt>
      <trkpt lat="47.15678" lon="5.92793">
        <ele>330.8</ele>
        <time>2024-08-05T10:50:30Z</time>
      </trkpt>
      <trkpt lat="47.15678" lon="5.92793">
        <ele>330.8</ele>
        <time>2024-08-05T10:50:31Z</time>
      </trkpt>
      <trkpt lat="47.15678" lon="5.92793">
        <ele>330.8</ele>
        <time>2024-08-05T10:50:32Z</time>
      </trkpt>
      <trkpt lat="47.15679" lon="5.92792">
        <ele>330.8</ele>
        <time>2024-08-05T10:50:33Z</time>
      </trkpt>
      <trkpt lat="47.15679" lon="5.92791">
        <ele>330.8</ele>
        <time>2024-08-05T10:50:34Z</time>
      </trkpt>
      <trkpt lat="47.15679" lon="5.92791">
        <ele>330.8</ele>
        <time>2024-08-05T10:50:35Z</time>
      </trkpt>
      <trkpt lat="47.1568" lon="5.9279">
        <ele>331</ele>
        <time>2024-08-05T10:50:36Z</time>
      </trkpt>
      <trkpt lat="47.15681" lon="5.92788">
        <ele>331</ele>
        <time>2024-08-05T10:50:37Z</time>
      </trkpt>
      <trkpt lat="47.15681" lon="5.92786">
        <ele>330.8</ele>
        <time>2024-08-05T10:50:38Z</time>
      </trkpt>
      <trkpt lat="47.15682" lon="5.92785">
        <ele>330.8</ele>
        <time>2024-08-05T10:50:39Z</time>
      </trkpt>
      <trkpt lat="47.15683" lon="5.92783">
        <ele>331</ele>
        <time>2024-08-05T10:50:40Z</time>
      </trkpt>
      <trkpt lat="47.15684" lon="5.9278">
        <ele>330.8</ele>
        <time>2024-08-05T10:50:41Z</time>
      </trkpt>
      <trkpt lat="47.15685" lon="5.92777">
        <ele>331</ele>
        <time>2024-08-05T10:50:42Z</time>
      </trkpt>
      <trkpt lat="47.15686" lon="5.92774">
        <ele>331</ele>
        <time>2024-08-05T10:50:43Z</time>
      </trkpt>
      <trkpt lat="47.15688" lon="5.92771">
        <ele>331</ele>
        <time>2024-08-05T10:50:44Z</time>
      </trkpt>
      <trkpt lat="47.15689" lon="5.92769">
        <ele>331</ele>
        <time>2024-08-05T10:50:45Z</time>
      </trkpt>
      <trkpt lat="47.15691" lon="5.92766">
        <ele>331</ele>
        <time>2024-08-05T10:50:46Z</time>
      </trkpt>
      <trkpt lat="47.15692" lon="5.92763">
        <ele>330.8</ele>
        <time>2024-08-05T10:50:47Z</time>
      </trkpt>
      <trkpt lat="47.15693" lon="5.9276">
        <ele>331</ele>
        <time>2024-08-05T10:50:48Z</time>
      </trkpt>
      <trkpt lat="47.15694" lon="5.92758">
        <ele>330.8</ele>
        <time>2024-08-05T10:50:49Z</time>
      </trkpt>
      <trkpt lat="47.15694" lon="5.92756">
        <ele>331</ele>
        <time>2024-08-05T10:50:50Z</time>
      </trkpt>
      <trkpt lat="47.15695" lon="5.92755">
        <ele>330.8</ele>
        <time>2024-08-05T10:50:51Z</time>
      </trkpt>
      <trkpt lat="47.15696" lon="5.92754">
        <ele>331</ele>
        <time>2024-08-05T10:50:52Z</time>
      </trkpt>
      <trkpt lat="47.15697" lon="5.92753">
        <ele>330.8</ele>
        <time>2024-08-05T10:50:53Z</time>
      </trkpt>
      <trkpt lat="47.15698" lon="5.92752">
        <ele>330.8</ele>
        <time>2024-08-05T10:50:54Z</time>
      </trkpt>
      <trkpt lat="47.15698" lon="5.92751">
        <ele>330.6</ele>
        <time>2024-08-05T10:50:55Z</time>
      </trkpt>
      <trkpt lat="47.15698" lon="5.9275">
        <ele>330.4</ele>
        <time>2024-08-05T10:50:56Z</time>
      </trkpt>
      <trkpt lat="47.15698" lon="5.9275">
        <ele>330.6</ele>
        <time>2024-08-05T10:50:57Z</time>
      </trkpt>
      <trkpt lat="47.15698" lon="5.9275">
        <ele>330.4</ele>
        <time>2024-08-05T10:50:58Z</time>
      </trkpt>
      <trkpt lat="47.15699" lon="5.92751">
        <ele>330.6</ele>
        <time>2024-08-05T10:50:59Z</time>
      </trkpt>
      <trkpt lat="47.15699" lon="5.92751">
        <ele>330.6</ele>
        <time>2024-08-05T10:51:00Z</time>
      </trkpt>
      <trkpt lat="47.15699" lon="5.92751">
        <ele>330.6</ele>
        <time>2024-08-05T10:51:01Z</time>
      </trkpt>
      <trkpt lat="47.15699" lon="5.92751">
        <ele>330.6</ele>
        <time>2024-08-05T10:51:02Z</time>
      </trkpt>
      <trkpt lat="47.15699" lon="5.92751">
        <ele>330.6</ele>
        <time>2024-08-05T10:51:03Z</time>
      </trkpt>
      <trkpt lat="47.15699" lon="5.92751">
        <ele>330.6</ele>
        <time>2024-08-05T10:51:04Z</time>
      </trkpt>
      <trkpt lat="47.15699" lon="5.92751">
        <ele>330.6</ele>
        <time>2024-08-05T10:51:05Z</time>
      </trkpt>
      <trkpt lat="47.15699" lon="5.92751">
        <ele>330.6</ele>
        <time>2024-08-05T10:51:06Z</time>
      </trkpt>
      <trkpt lat="47.15699" lon="5.9275">
        <ele>330.6</ele>
        <time>2024-08-05T10:51:07Z</time>
      </trkpt>
      <trkpt lat="47.15699" lon="5.9275">
        <ele>330.6</ele>
        <time>2024-08-05T10:51:08Z</time>
      </trkpt>
      <trkpt lat="47.15699" lon="5.92751">
        <ele>330.6</ele>
        <time>2024-08-05T10:51:09Z</time>
      </trkpt>
      <trkpt lat="47.15699" lon="5.92751">
        <ele>330.6</ele>
        <time>2024-08-05T10:51:10Z</time>
      </trkpt>
      <trkpt lat="47.15699" lon="5.92752">
        <ele>330.6</ele>
        <time>2024-08-05T10:51:11Z</time>
      </trkpt>
      <trkpt lat="47.157" lon="5.92752">
        <ele>330.6</ele>
        <time>2024-08-05T10:51:12Z</time>
      </trkpt>
      <trkpt lat="47.157" lon="5.92753">
        <ele>330.6</ele>
        <time>2024-08-05T10:51:13Z</time>
      </trkpt>
      <trkpt lat="47.157" lon="5.92753">
        <ele>330.6</ele>
        <time>2024-08-05T10:51:14Z</time>
      </trkpt>
      <trkpt lat="47.157" lon="5.92753">
        <ele>330.8</ele>
        <time>2024-08-05T10:51:15Z</time>
      </trkpt>
      <trkpt lat="47.157" lon="5.92753">
        <ele>330.6</ele>
        <time>2024-08-05T10:51:16Z</time>
      </trkpt>
      <trkpt lat="47.15701" lon="5.92754">
        <ele>330.6</ele>
        <time>2024-08-05T10:51:17Z</time>
      </trkpt>
      <trkpt lat="47.15701" lon="5.92754">
        <ele>330.8</ele>
        <time>2024-08-05T10:51:18Z</time>
      </trkpt>
      <trkpt lat="47.15701" lon="5.92754">
        <ele>330.6</ele>
        <time>2024-08-05T10:51:19Z</time>
      </trkpt>
      <trkpt lat="47.15702" lon="5.92754">
        <ele>330.6</ele>
        <time>2024-08-05T10:51:20Z</time>
      </trkpt>
      <trkpt lat="47.15702" lon="5.92754">
        <ele>330.8</ele>
        <time>2024-08-05T10:51:21Z</time>
      </trkpt>
      <trkpt lat="47.15702" lon="5.92754">
        <ele>330.8</ele>
        <time>2024-08-05T10:51:22Z</time>
      </trkpt>
      <trkpt lat="47.15702" lon="5.92755">
        <ele>330.8</ele>
        <time>2024-08-05T10:51:23Z</time>
      </trkpt>
      <trkpt lat="47.15703" lon="5.92755">
        <ele>330.6</ele>
        <time>2024-08-05T10:51:24Z</time>
      </trkpt>
      <trkpt lat="47.15703" lon="5.92755">
        <ele>330.6</ele>
        <time>2024-08-05T10:51:25Z</time>
      </trkpt>
      <trkpt lat="47.15703" lon="5.92754">
        <ele>330.6</ele>
        <time>2024-08-05T10:51:26Z</time>
      </trkpt>
      <trkpt lat="47.15703" lon="5.92755">
        <ele>330.6</ele>
        <time>2024-08-05T10:51:27Z</time>
      </trkpt>
      <trkpt lat="47.15703" lon="5.92754">
        <ele>330.6</ele>
        <time>2024-08-05T10:51:28Z</time>
      </trkpt>
      <trkpt lat="47.15703" lon="5.92754">
        <ele>330.6</ele>
        <time>2024-08-05T10:51:29Z</time>
      </trkpt>
      <trkpt lat="47.15703" lon="5.92754">
        <ele>330.6</ele>
        <time>2024-08-05T10:51:30Z</time>
      </trkpt>
      <trkpt lat="47.15703" lon="5.92754">
        <ele>330.6</ele>
        <time>2024-08-05T10:51:31Z</time>
      </trkpt>
      <trkpt lat="47.15703" lon="5.92754">
        <ele>330.6</ele>
        <time>2024-08-05T10:51:32Z</time>
      </trkpt>
      <trkpt lat="47.15703" lon="5.92754">
        <ele>330.6</ele>
        <time>2024-08-05T10:51:33Z</time>
      </trkpt>
      <trkpt lat="47.15703" lon="5.92754">
        <ele>330.6</ele>
        <time>2024-08-05T10:51:34Z</time>
      </trkpt>
      <trkpt lat="47.15703" lon="5.92754">
        <ele>330.8</ele>
        <time>2024-08-05T10:51:35Z</time>
      </trkpt>
      <trkpt lat="47.15703" lon="5.92754">
        <ele>330.6</ele>
        <time>2024-08-05T10:51:36Z</time>
      </trkpt>
      <trkpt lat="47.15703" lon="5.92754">
        <ele>330.6</ele>
        <time>2024-08-05T10:51:37Z</time>
      </trkpt>
      <trkpt lat="47.15703" lon="5.92754">
        <ele>330.4</ele>
        <time>2024-08-05T10:51:38Z</time>
      </trkpt>
      <trkpt lat="47.15703" lon="5.92754">
        <ele>330.6</ele>
        <time>2024-08-05T10:51:39Z</time>
      </trkpt>
      <trkpt lat="47.15703" lon="5.92754">
        <ele>330.4</ele>
        <time>2024-08-05T10:51:40Z</time>
      </trkpt>
      <trkpt lat="47.15703" lon="5.92754">
        <ele>330.4</ele>
        <time>2024-08-05T10:51:41Z</time>
      </trkpt>
      <trkpt lat="47.15703" lon="5.92754">
        <ele>330.4</ele>
        <time>2024-08-05T10:51:42Z</time>
      </trkpt>
      <trkpt lat="47.15703" lon="5.92755">
        <ele>330.4</ele>
        <time>2024-08-05T10:51:43Z</time>
      </trkpt>
      <trkpt lat="47.15703" lon="5.92755">
        <ele>330.4</ele>
        <time>2024-08-05T10:51:44Z</time>
      </trkpt>
      <trkpt lat="47.15703" lon="5.92756">
        <ele>330.4</ele>
        <time>2024-08-05T10:51:45Z</time>
      </trkpt>
      <trkpt lat="47.15703" lon="5.92756">
        <ele>330.6</ele>
        <time>2024-08-05T10:51:46Z</time>
      </trkpt>
      <trkpt lat="47.15703" lon="5.92756">
        <ele>330.6</ele>
        <time>2024-08-05T10:51:47Z</time>
      </trkpt>
      <trkpt lat="47.15703" lon="5.92757">
        <ele>330.6</ele>
        <time>2024-08-05T10:51:48Z</time>
      </trkpt>
      <trkpt lat="47.15703" lon="5.92757">
        <ele>330.6</ele>
        <time>2024-08-05T10:51:49Z</time>
      </trkpt>
      <trkpt lat="47.15703" lon="5.92757">
        <ele>330.6</ele>
        <time>2024-08-05T10:51:50Z</time>
      </trkpt>
      <trkpt lat="47.15704" lon="5.92757">
        <ele>330.6</ele>
        <time>2024-08-05T10:51:51Z</time>
      </trkpt>
      <trkpt lat="47.15704" lon="5.92758">
        <ele>330.4</ele>
        <time>2024-08-05T10:51:52Z</time>
      </trkpt>
      <trkpt lat="47.15703" lon="5.92758">
        <ele>330.4</ele>
        <time>2024-08-05T10:51:53Z</time>
      </trkpt>
      <trkpt lat="47.15703" lon="5.92758">
        <ele>330.4</ele>
        <time>2024-08-05T10:51:54Z</time>
      </trkpt>
      <trkpt lat="47.15703" lon="5.92758">
        <ele>330.4</ele>
        <time>2024-08-05T10:51:55Z</time>
      </trkpt>
      <trkpt lat="47.15703" lon="5.92758">
        <ele>330.4</ele>
        <time>2024-08-05T10:51:56Z</time>
      </trkpt>
      <trkpt lat="47.15703" lon="5.92758">
        <ele>330.4</ele>
        <time>2024-08-05T10:51:57Z</time>
      </trkpt>
      <trkpt lat="47.15702" lon="5.92758">
        <ele>330.4</ele>
        <time>2024-08-05T10:51:58Z</time>
      </trkpt>
      <trkpt lat="47.15702" lon="5.92758">
        <ele>330.4</ele>
        <time>2024-08-05T10:51:59Z</time>
      </trkpt>
      <trkpt lat="47.15702" lon="5.92758">
        <ele>330.2</ele>
        <time>2024-08-05T10:52:00Z</time>
      </trkpt>
      <trkpt lat="47.15702" lon="5.92758">
        <ele>330.4</ele>
        <time>2024-08-05T10:52:01Z</time>
      </trkpt>
      <trkpt lat="47.15702" lon="5.92758">
        <ele>330.6</ele>
        <time>2024-08-05T10:52:02Z</time>
      </trkpt>
      <trkpt lat="47.15702" lon="5.92758">
        <ele>330.4</ele>
        <time>2024-08-05T10:52:03Z</time>
      </trkpt>
      <trkpt lat="47.15702" lon="5.92758">
        <ele>330.4</ele>
        <time>2024-08-05T10:52:04Z</time>
      </trkpt>
      <trkpt lat="47.15702" lon="5.92758">
        <ele>330.6</ele>
        <time>2024-08-05T10:52:05Z</time>
      </trkpt>
      <trkpt lat="47.15702" lon="5.92759">
        <ele>330.4</ele>
        <time>2024-08-05T10:52:06Z</time>
      </trkpt>
      <trkpt lat="47.15703" lon="5.92759">
        <ele>330.6</ele>
        <time>2024-08-05T10:52:07Z</time>
      </trkpt>
      <trkpt lat="47.15703" lon="5.92759">
        <ele>330.6</ele>
        <time>2024-08-05T10:52:08Z</time>
      </trkpt>
      <trkpt lat="47.15703" lon="5.92759">
        <ele>330.4</ele>
        <time>2024-08-05T10:52:09Z</time>
      </trkpt>
      <trkpt lat="47.15703" lon="5.92759">
        <ele>330.6</ele>
        <time>2024-08-05T10:52:10Z</time>
      </trkpt>
      <trkpt lat="47.15702" lon="5.9276">
        <ele>330.8</ele>
        <time>2024-08-05T10:52:11Z</time>
      </trkpt>
      <trkpt lat="47.15702" lon="5.9276">
        <ele>330.8</ele>
        <time>2024-08-05T10:52:12Z</time>
      </trkpt>
      <trkpt lat="47.15701" lon="5.92761">
        <ele>330.6</ele>
        <time>2024-08-05T10:52:13Z</time>
      </trkpt>
      <trkpt lat="47.15701" lon="5.92762">
        <ele>330.6</ele>
        <time>2024-08-05T10:52:14Z</time>
      </trkpt>
      <trkpt lat="47.157" lon="5.92762">
        <ele>330.8</ele>
        <time>2024-08-05T10:52:15Z</time>
      </trkpt>
      <trkpt lat="47.15699" lon="5.92763">
        <ele>330.8</ele>
        <time>2024-08-05T10:52:16Z</time>
      </trkpt>
      <trkpt lat="47.15698" lon="5.92763">
        <ele>330.8</ele>
        <time>2024-08-05T10:52:17Z</time>
      </trkpt>
      <trkpt lat="47.15698" lon="5.92764">
        <ele>330.8</ele>
        <time>2024-08-05T10:52:18Z</time>
      </trkpt>
      <trkpt lat="47.15697" lon="5.92765">
        <ele>330.8</ele>
        <time>2024-08-05T10:52:19Z</time>
      </trkpt>
      <trkpt lat="47.15696" lon="5.92765">
        <ele>331</ele>
        <time>2024-08-05T10:52:20Z</time>
      </trkpt>
      <trkpt lat="47.15696" lon="5.92766">
        <ele>331</ele>
        <time>2024-08-05T10:52:21Z</time>
      </trkpt>
      <trkpt lat="47.15696" lon="5.92767">
        <ele>331</ele>
        <time>2024-08-05T10:52:22Z</time>
      </trkpt>
      <trkpt lat="47.15695" lon="5.92768">
        <ele>331</ele>
        <time>2024-08-05T10:52:23Z</time>
      </trkpt>
      <trkpt lat="47.15695" lon="5.92768">
        <ele>331</ele>
        <time>2024-08-05T10:52:24Z</time>
      </trkpt>
      <trkpt lat="47.15694" lon="5.92769">
        <ele>331</ele>
        <time>2024-08-05T10:52:25Z</time>
      </trkpt>
      <trkpt lat="47.15694" lon="5.9277">
        <ele>331</ele>
        <time>2024-08-05T10:52:26Z</time>
      </trkpt>
      <trkpt lat="47.15693" lon="5.92771">
        <ele>331</ele>
        <time>2024-08-05T10:52:27Z</time>
      </trkpt>
      <trkpt lat="47.15693" lon="5.92772">
        <ele>331</ele>
        <time>2024-08-05T10:52:28Z</time>
      </trkpt>
      <trkpt lat="47.15692" lon="5.92773">
        <ele>331.2</ele>
        <time>2024-08-05T10:52:29Z</time>
      </trkpt>
      <trkpt lat="47.15692" lon="5.92774">
        <ele>331</ele>
        <time>2024-08-05T10:52:30Z</time>
      </trkpt>
      <trkpt lat="47.15691" lon="5.92774">
        <ele>331</ele>
        <time>2024-08-05T10:52:31Z</time>
      </trkpt>
      <trkpt lat="47.15691" lon="5.92774">
        <ele>331.2</ele>
        <time>2024-08-05T10:52:32Z</time>
      </trkpt>
      <trkpt lat="47.1569" lon="5.92774">
        <ele>331.2</ele>
        <time>2024-08-05T10:52:33Z</time>
      </trkpt>
      <trkpt lat="47.1569" lon="5.92775">
        <ele>331.2</ele>
        <time>2024-08-05T10:52:34Z</time>
      </trkpt>
      <trkpt lat="47.1569" lon="5.92775">
        <ele>331.2</ele>
        <time>2024-08-05T10:52:35Z</time>
      </trkpt>
      <trkpt lat="47.1569" lon="5.92775">
        <ele>331.2</ele>
        <time>2024-08-05T10:52:36Z</time>
      </trkpt>
      <trkpt lat="47.1569" lon="5.92775">
        <ele>331.4</ele>
        <time>2024-08-05T10:52:37Z</time>
      </trkpt>
      <trkpt lat="47.15689" lon="5.92775">
        <ele>331.4</ele>
        <time>2024-08-05T10:52:38Z</time>
      </trkpt>
      <trkpt lat="47.15689" lon="5.92775">
        <ele>331.4</ele>
        <time>2024-08-05T10:52:39Z</time>
      </trkpt>
      <trkpt lat="47.15689" lon="5.92775">
        <ele>331.2</ele>
        <time>2024-08-05T10:52:40Z</time>
      </trkpt>
      <trkpt lat="47.15688" lon="5.92776">
        <ele>331.2</ele>
        <time>2024-08-05T10:52:41Z</time>
      </trkpt>
      <trkpt lat="47.15688" lon="5.92776">
        <ele>331.2</ele>
        <time>2024-08-05T10:52:42Z</time>
      </trkpt>
      <trkpt lat="47.15687" lon="5.92777">
        <ele>331.4</ele>
        <time>2024-08-05T10:52:43Z</time>
      </trkpt>
      <trkpt lat="47.15687" lon="5.92778">
        <ele>331.2</ele>
        <time>2024-08-05T10:52:44Z</time>
      </trkpt>
      <trkpt lat="47.15687" lon="5.92779">
        <ele>331.2</ele>
        <time>2024-08-05T10:52:45Z</time>
      </trkpt>
      <trkpt lat="47.15687" lon="5.9278">
        <ele>331.2</ele>
        <time>2024-08-05T10:52:46Z</time>
      </trkpt>
      <trkpt lat="47.15687" lon="5.92782">
        <ele>331.2</ele>
        <time>2024-08-05T10:52:47Z</time>
      </trkpt>
      <trkpt lat="47.15686" lon="5.92783">
        <ele>331.2</ele>
        <time>2024-08-05T10:52:48Z</time>
      </trkpt>
      <trkpt lat="47.15687" lon="5.92785">
        <ele>331.2</ele>
        <time>2024-08-05T10:52:49Z</time>
      </trkpt>
      <trkpt lat="47.15687" lon="5.92786">
        <ele>331.2</ele>
        <time>2024-08-05T10:52:50Z</time>
      </trkpt>
      <trkpt lat="47.15687" lon="5.92787">
        <ele>331.2</ele>
        <time>2024-08-05T10:52:51Z</time>
      </trkpt>
      <trkpt lat="47.15687" lon="5.92787">
        <ele>331.2</ele>
        <time>2024-08-05T10:52:52Z</time>
      </trkpt>
      <trkpt lat="47.15687" lon="5.92788">
        <ele>331</ele>
        <time>2024-08-05T10:52:53Z</time>
      </trkpt>
      <trkpt lat="47.15687" lon="5.92789">
        <ele>331.2</ele>
        <time>2024-08-05T10:52:54Z</time>
      </trkpt>
      <trkpt lat="47.15687" lon="5.9279">
        <ele>331.2</ele>
        <time>2024-08-05T10:52:55Z</time>
      </trkpt>
      <trkpt lat="47.15687" lon="5.9279">
        <ele>331.2</ele>
        <time>2024-08-05T10:52:56Z</time>
      </trkpt>
      <trkpt lat="47.15686" lon="5.92791">
        <ele>331.2</ele>
        <time>2024-08-05T10:52:57Z</time>
      </trkpt>
      <trkpt lat="47.15686" lon="5.92792">
        <ele>331.2</ele>
        <time>2024-08-05T10:52:58Z</time>
      </trkpt>
      <trkpt lat="47.15686" lon="5.92794">
        <ele>331.2</ele>
        <time>2024-08-05T10:52:59Z</time>
      </trkpt>
      <trkpt lat="47.15686" lon="5.92795">
        <ele>331.2</ele>
        <time>2024-08-05T10:53:00Z</time>
      </trkpt>
      <trkpt lat="47.15685" lon="5.92795">
        <ele>331</ele>
        <time>2024-08-05T10:53:01Z</time>
      </trkpt>
      <trkpt lat="47.15685" lon="5.92797">
        <ele>331.2</ele>
        <time>2024-08-05T10:53:02Z</time>
      </trkpt>
      <trkpt lat="47.15684" lon="5.92798">
        <ele>331</ele>
        <time>2024-08-05T10:53:03Z</time>
      </trkpt>
      <trkpt lat="47.15683" lon="5.92799">
        <ele>331.2</ele>
        <time>2024-08-05T10:53:04Z</time>
      </trkpt>
      <trkpt lat="47.15683" lon="5.92799">
        <ele>331.2</ele>
        <time>2024-08-05T10:53:05Z</time>
      </trkpt>
      <trkpt lat="47.15682" lon="5.92799">
        <ele>331.2</ele>
        <time>2024-08-05T10:53:06Z</time>
      </trkpt>
      <trkpt lat="47.15682" lon="5.92799">
        <ele>331.4</ele>
        <time>2024-08-05T10:53:07Z</time>
      </trkpt>
      <trkpt lat="47.15682" lon="5.928">
        <ele>331.2</ele>
        <time>2024-08-05T10:53:08Z</time>
      </trkpt>
      <trkpt lat="47.15682" lon="5.928">
        <ele>331.2</ele>
        <time>2024-08-05T10:53:09Z</time>
      </trkpt>
      <trkpt lat="47.15682" lon="5.928">
        <ele>331.4</ele>
        <time>2024-08-05T10:53:10Z</time>
      </trkpt>
      <trkpt lat="47.15682" lon="5.928">
        <ele>331.4</ele>
        <time>2024-08-05T10:53:11Z</time>
      </trkpt>
      <trkpt lat="47.15681" lon="5.928">
        <ele>331.2</ele>
        <time>2024-08-05T10:53:12Z</time>
      </trkpt>
      <trkpt lat="47.15681" lon="5.928">
        <ele>331.4</ele>
        <time>2024-08-05T10:53:13Z</time>
      </trkpt>
      <trkpt lat="47.15679" lon="5.928">
        <ele>331.4</ele>
        <time>2024-08-05T10:53:14Z</time>
      </trkpt>
      <trkpt lat="47.15678" lon="5.92801">
        <ele>331.4</ele>
        <time>2024-08-05T10:53:15Z</time>
      </trkpt>
      <trkpt lat="47.15676" lon="5.92803">
        <ele>331.4</ele>
        <time>2024-08-05T10:53:16Z</time>
      </trkpt>
      <trkpt lat="47.15675" lon="5.92804">
        <ele>331.2</ele>
        <time>2024-08-05T10:53:17Z</time>
      </trkpt>
      <trkpt lat="47.15673" lon="5.92806">
        <ele>331.2</ele>
        <time>2024-08-05T10:53:18Z</time>
      </trkpt>
      <trkpt lat="47.15671" lon="5.92808">
        <ele>331.4</ele>
        <time>2024-08-05T10:53:19Z</time>
      </trkpt>
      <trkpt lat="47.15669" lon="5.92811">
        <ele>331.4</ele>
        <time>2024-08-05T10:53:20Z</time>
      </trkpt>
      <trkpt lat="47.15667" lon="5.92814">
        <ele>331.4</ele>
        <time>2024-08-05T10:53:21Z</time>
      </trkpt>
      <trkpt lat="47.15665" lon="5.92816">
        <ele>331.2</ele>
        <time>2024-08-05T10:53:22Z</time>
      </trkpt>
      <trkpt lat="47.15662" lon="5.92819">
        <ele>331.4</ele>
        <time>2024-08-05T10:53:23Z</time>
      </trkpt>
      <trkpt lat="47.1566" lon="5.92822">
        <ele>331.4</ele>
        <time>2024-08-05T10:53:24Z</time>
      </trkpt>
      <trkpt lat="47.15658" lon="5.92824">
        <ele>331.4</ele>
        <time>2024-08-05T10:53:25Z</time>
      </trkpt>
      <trkpt lat="47.15656" lon="5.92826">
        <ele>331.6</ele>
        <time>2024-08-05T10:53:26Z</time>
      </trkpt>
      <trkpt lat="47.15654" lon="5.92829">
        <ele>331.6</ele>
        <time>2024-08-05T10:53:27Z</time>
      </trkpt>
      <trkpt lat="47.15652" lon="5.92831">
        <ele>331.8</ele>
        <time>2024-08-05T10:53:28Z</time>
      </trkpt>
      <trkpt lat="47.1565" lon="5.92833">
        <ele>331.8</ele>
        <time>2024-08-05T10:53:29Z</time>
      </trkpt>
      <trkpt lat="47.15648" lon="5.92835">
        <ele>332</ele>
        <time>2024-08-05T10:53:30Z</time>
      </trkpt>
      <trkpt lat="47.15646" lon="5.92837">
        <ele>332.2</ele>
        <time>2024-08-05T10:53:31Z</time>
      </trkpt>
      <trkpt lat="47.15644" lon="5.92839">
        <ele>332.4</ele>
        <time>2024-08-05T10:53:32Z</time>
      </trkpt>
      <trkpt lat="47.15641" lon="5.92841">
        <ele>332.4</ele>
        <time>2024-08-05T10:53:33Z</time>
      </trkpt>
      <trkpt lat="47.15639" lon="5.92844">
        <ele>332.4</ele>
        <time>2024-08-05T10:53:34Z</time>
      </trkpt>
      <trkpt lat="47.15637" lon="5.92846">
        <ele>332.8</ele>
        <time>2024-08-05T10:53:35Z</time>
      </trkpt>
      <trkpt lat="47.15634" lon="5.92848">
        <ele>332.8</ele>
        <time>2024-08-05T10:53:36Z</time>
      </trkpt>
      <trkpt lat="47.15632" lon="5.92851">
        <ele>333</ele>
        <time>2024-08-05T10:53:37Z</time>
      </trkpt>
      <trkpt lat="47.15629" lon="5.92854">
        <ele>333.2</ele>
        <time>2024-08-05T10:53:38Z</time>
      </trkpt>
      <trkpt lat="47.15627" lon="5.92856">
        <ele>333.4</ele>
        <time>2024-08-05T10:53:39Z</time>
      </trkpt>
      <trkpt lat="47.15624" lon="5.92859">
        <ele>333.4</ele>
        <time>2024-08-05T10:53:40Z</time>
      </trkpt>
      <trkpt lat="47.15622" lon="5.92861">
        <ele>333.6</ele>
        <time>2024-08-05T10:53:41Z</time>
      </trkpt>
      <trkpt lat="47.15619" lon="5.92863">
        <ele>333.6</ele>
        <time>2024-08-05T10:53:42Z</time>
      </trkpt>
      <trkpt lat="47.15616" lon="5.92864">
        <ele>333.8</ele>
        <time>2024-08-05T10:53:43Z</time>
      </trkpt>
      <trkpt lat="47.15613" lon="5.92864">
        <ele>334</ele>
        <time>2024-08-05T10:53:44Z</time>
      </trkpt>
      <trkpt lat="47.15611" lon="5.92865">
        <ele>334.2</ele>
        <time>2024-08-05T10:53:45Z</time>
      </trkpt>
      <trkpt lat="47.15608" lon="5.92865">
        <ele>334.4</ele>
        <time>2024-08-05T10:53:46Z</time>
      </trkpt>
      <trkpt lat="47.15606" lon="5.92865">
        <ele>334.6</ele>
        <time>2024-08-05T10:53:47Z</time>
      </trkpt>
      <trkpt lat="47.15604" lon="5.92864">
        <ele>334.6</ele>
        <time>2024-08-05T10:53:48Z</time>
      </trkpt>
      <trkpt lat="47.15602" lon="5.92863">
        <ele>334.8</ele>
        <time>2024-08-05T10:53:49Z</time>
      </trkpt>
      <trkpt lat="47.156" lon="5.92861">
        <ele>334.8</ele>
        <time>2024-08-05T10:53:50Z</time>
      </trkpt>
      <trkpt lat="47.15598" lon="5.9286">
        <ele>335</ele>
        <time>2024-08-05T10:53:51Z</time>
      </trkpt>
      <trkpt lat="47.15596" lon="5.92859">
        <ele>335</ele>
        <time>2024-08-05T10:53:52Z</time>
      </trkpt>
      <trkpt lat="47.15594" lon="5.92857">
        <ele>335.2</ele>
        <time>2024-08-05T10:53:53Z</time>
      </trkpt>
      <trkpt lat="47.15592" lon="5.92856">
        <ele>335.4</ele>
        <time>2024-08-05T10:53:54Z</time>
      </trkpt>
      <trkpt lat="47.1559" lon="5.92854">
        <ele>335.6</ele>
        <time>2024-08-05T10:53:55Z</time>
      </trkpt>
      <trkpt lat="47.15588" lon="5.92852">
        <ele>336</ele>
        <time>2024-08-05T10:53:56Z</time>
      </trkpt>
      <trkpt lat="47.15586" lon="5.92851">
        <ele>336.2</ele>
        <time>2024-08-05T10:53:57Z</time>
      </trkpt>
      <trkpt lat="47.15585" lon="5.92849">
        <ele>336.4</ele>
        <time>2024-08-05T10:53:58Z</time>
      </trkpt>
      <trkpt lat="47.15583" lon="5.92846">
        <ele>336.6</ele>
        <time>2024-08-05T10:53:59Z</time>
      </trkpt>
      <trkpt lat="47.15581" lon="5.92844">
        <ele>337</ele>
        <time>2024-08-05T10:54:00Z</time>
      </trkpt>
      <trkpt lat="47.15579" lon="5.92841">
        <ele>337</ele>
        <time>2024-08-05T10:54:01Z</time>
      </trkpt>
      <trkpt lat="47.15577" lon="5.92839">
        <ele>337</ele>
        <time>2024-08-05T10:54:02Z</time>
      </trkpt>
      <trkpt lat="47.15575" lon="5.92836">
        <ele>337.2</ele>
        <time>2024-08-05T10:54:03Z</time>
      </trkpt>
      <trkpt lat="47.15573" lon="5.92834">
        <ele>337.4</ele>
        <time>2024-08-05T10:54:04Z</time>
      </trkpt>
      <trkpt lat="47.15571" lon="5.92832">
        <ele>337.8</ele>
        <time>2024-08-05T10:54:05Z</time>
      </trkpt>
      <trkpt lat="47.15569" lon="5.92829">
        <ele>337.6</ele>
        <time>2024-08-05T10:54:06Z</time>
      </trkpt>
      <trkpt lat="47.15567" lon="5.92827">
        <ele>338</ele>
        <time>2024-08-05T10:54:07Z</time>
      </trkpt>
      <trkpt lat="47.15565" lon="5.92824">
        <ele>338</ele>
        <time>2024-08-05T10:54:08Z</time>
      </trkpt>
      <trkpt lat="47.15564" lon="5.92822">
        <ele>338.2</ele>
        <time>2024-08-05T10:54:09Z</time>
      </trkpt>
      <trkpt lat="47.15562" lon="5.9282">
        <ele>338.4</ele>
        <time>2024-08-05T10:54:10Z</time>
      </trkpt>
      <trkpt lat="47.1556" lon="5.92818">
        <ele>338.6</ele>
        <time>2024-08-05T10:54:11Z</time>
      </trkpt>
      <trkpt lat="47.15559" lon="5.92817">
        <ele>338.8</ele>
        <time>2024-08-05T10:54:12Z</time>
      </trkpt>
      <trkpt lat="47.15557" lon="5.92815">
        <ele>338.8</ele>
        <time>2024-08-05T10:54:13Z</time>
      </trkpt>
      <trkpt lat="47.15555" lon="5.92813">
        <ele>339.2</ele>
        <time>2024-08-05T10:54:14Z</time>
      </trkpt>
      <trkpt lat="47.15553" lon="5.92812">
        <ele>339.4</ele>
        <time>2024-08-05T10:54:15Z</time>
      </trkpt>
      <trkpt lat="47.15552" lon="5.9281">
        <ele>339.4</ele>
        <time>2024-08-05T10:54:16Z</time>
      </trkpt>
      <trkpt lat="47.1555" lon="5.92809">
        <ele>339.6</ele>
        <time>2024-08-05T10:54:17Z</time>
      </trkpt>
      <trkpt lat="47.15548" lon="5.92807">
        <ele>339.8</ele>
        <time>2024-08-05T10:54:18Z</time>
      </trkpt>
      <trkpt lat="47.15546" lon="5.92806">
        <ele>340.2</ele>
        <time>2024-08-05T10:54:19Z</time>
      </trkpt>
      <trkpt lat="47.15543" lon="5.92805">
        <ele>340.4</ele>
        <time>2024-08-05T10:54:20Z</time>
      </trkpt>
      <trkpt lat="47.15541" lon="5.92804">
        <ele>340.4</ele>
        <time>2024-08-05T10:54:21Z</time>
      </trkpt>
      <trkpt lat="47.15539" lon="5.92803">
        <ele>340.8</ele>
        <time>2024-08-05T10:54:22Z</time>
      </trkpt>
      <trkpt lat="47.15537" lon="5.92801">
        <ele>340.8</ele>
        <time>2024-08-05T10:54:23Z</time>
      </trkpt>
      <trkpt lat="47.15535" lon="5.928">
        <ele>340.8</ele>
        <time>2024-08-05T10:54:24Z</time>
      </trkpt>
      <trkpt lat="47.15532" lon="5.92798">
        <ele>341.2</ele>
        <time>2024-08-05T10:54:25Z</time>
      </trkpt>
      <trkpt lat="47.1553" lon="5.92797">
        <ele>341.4</ele>
        <time>2024-08-05T10:54:26Z</time>
      </trkpt>
      <trkpt lat="47.15528" lon="5.92795">
        <ele>341.6</ele>
        <time>2024-08-05T10:54:27Z</time>
      </trkpt>
      <trkpt lat="47.15525" lon="5.92794">
        <ele>341.6</ele>
        <time>2024-08-05T10:54:28Z</time>
      </trkpt>
      <trkpt lat="47.15523" lon="5.92793">
        <ele>341.8</ele>
        <time>2024-08-05T10:54:29Z</time>
      </trkpt>
      <trkpt lat="47.15521" lon="5.92792">
        <ele>342.2</ele>
        <time>2024-08-05T10:54:30Z</time>
      </trkpt>
      <trkpt lat="47.15519" lon="5.92791">
        <ele>342.2</ele>
        <time>2024-08-05T10:54:31Z</time>
      </trkpt>
      <trkpt lat="47.15517" lon="5.92791">
        <ele>342.4</ele>
        <time>2024-08-05T10:54:32Z</time>
      </trkpt>
      <trkpt lat="47.15515" lon="5.9279">
        <ele>342.6</ele>
        <time>2024-08-05T10:54:33Z</time>
      </trkpt>
      <trkpt lat="47.15513" lon="5.92789">
        <ele>342.8</ele>
        <time>2024-08-05T10:54:34Z</time>
      </trkpt>
      <trkpt lat="47.15511" lon="5.92788">
        <ele>342.8</ele>
        <time>2024-08-05T10:54:35Z</time>
      </trkpt>
      <trkpt lat="47.15509" lon="5.92787">
        <ele>343.2</ele>
        <time>2024-08-05T10:54:36Z</time>
      </trkpt>
      <trkpt lat="47.15507" lon="5.92786">
        <ele>343.2</ele>
        <time>2024-08-05T10:54:37Z</time>
      </trkpt>
      <trkpt lat="47.15505" lon="5.92785">
        <ele>343.4</ele>
        <time>2024-08-05T10:54:38Z</time>
      </trkpt>
      <trkpt lat="47.15502" lon="5.92784">
        <ele>343.6</ele>
        <time>2024-08-05T10:54:39Z</time>
      </trkpt>
      <trkpt lat="47.155" lon="5.92784">
        <ele>344</ele>
        <time>2024-08-05T10:54:40Z</time>
      </trkpt>
      <trkpt lat="47.15497" lon="5.92784">
        <ele>344.2</ele>
        <time>2024-08-05T10:54:41Z</time>
      </trkpt>
      <trkpt lat="47.15495" lon="5.92784">
        <ele>344.6</ele>
        <time>2024-08-05T10:54:42Z</time>
      </trkpt>
      <trkpt lat="47.15492" lon="5.92783">
        <ele>344.8</ele>
        <time>2024-08-05T10:54:43Z</time>
      </trkpt>
      <trkpt lat="47.1549" lon="5.92783">
        <ele>345</ele>
        <time>2024-08-05T10:54:44Z</time>
      </trkpt>
      <trkpt lat="47.15488" lon="5.92782">
        <ele>345.2</ele>
        <time>2024-08-05T10:54:45Z</time>
      </trkpt>
      <trkpt lat="47.15486" lon="5.92782">
        <ele>345.4</ele>
        <time>2024-08-05T10:54:46Z</time>
      </trkpt>
      <trkpt lat="47.15483" lon="5.92782">
        <ele>345.4</ele>
        <time>2024-08-05T10:54:47Z</time>
      </trkpt>
      <trkpt lat="47.15481" lon="5.92782">
        <ele>345.6</ele>
        <time>2024-08-05T10:54:48Z</time>
      </trkpt>
      <trkpt lat="47.15479" lon="5.92782">
        <ele>346</ele>
        <time>2024-08-05T10:54:49Z</time>
      </trkpt>
      <trkpt lat="47.15477" lon="5.92781">
        <ele>346.2</ele>
        <time>2024-08-05T10:54:50Z</time>
      </trkpt>
      <trkpt lat="47.15475" lon="5.92781">
        <ele>346.4</ele>
        <time>2024-08-05T10:54:51Z</time>
      </trkpt>
      <trkpt lat="47.15473" lon="5.92781">
        <ele>346.6</ele>
        <time>2024-08-05T10:54:52Z</time>
      </trkpt>
      <trkpt lat="47.15471" lon="5.92781">
        <ele>346.6</ele>
        <time>2024-08-05T10:54:53Z</time>
      </trkpt>
      <trkpt lat="47.15468" lon="5.9278">
        <ele>346.8</ele>
        <time>2024-08-05T10:54:54Z</time>
      </trkpt>
      <trkpt lat="47.15466" lon="5.92779">
        <ele>347</ele>
        <time>2024-08-05T10:54:55Z</time>
      </trkpt>
      <trkpt lat="47.15464" lon="5.92779">
        <ele>347</ele>
        <time>2024-08-05T10:54:56Z</time>
      </trkpt>
      <trkpt lat="47.15462" lon="5.92778">
        <ele>347.4</ele>
        <time>2024-08-05T10:54:57Z</time>
      </trkpt>
      <trkpt lat="47.1546" lon="5.92778">
        <ele>347.4</ele>
        <time>2024-08-05T10:54:58Z</time>
      </trkpt>
      <trkpt lat="47.15457" lon="5.92777">
        <ele>347.6</ele>
        <time>2024-08-05T10:54:59Z</time>
      </trkpt>
      <trkpt lat="47.15455" lon="5.92777">
        <ele>347.8</ele>
        <time>2024-08-05T10:55:00Z</time>
      </trkpt>
      <trkpt lat="47.15453" lon="5.92776">
        <ele>348</ele>
        <time>2024-08-05T10:55:01Z</time>
      </trkpt>
      <trkpt lat="47.1545" lon="5.92775">
        <ele>348</ele>
        <time>2024-08-05T10:55:02Z</time>
      </trkpt>
      <trkpt lat="47.15448" lon="5.92775">
        <ele>348.2</ele>
        <time>2024-08-05T10:55:03Z</time>
      </trkpt>
      <trkpt lat="47.15446" lon="5.92774">
        <ele>348.4</ele>
        <time>2024-08-05T10:55:04Z</time>
      </trkpt>
      <trkpt lat="47.15443" lon="5.92773">
        <ele>348.4</ele>
        <time>2024-08-05T10:55:05Z</time>
      </trkpt>
      <trkpt lat="47.15441" lon="5.92773">
        <ele>348.6</ele>
        <time>2024-08-05T10:55:06Z</time>
      </trkpt>
      <trkpt lat="47.15438" lon="5.92772">
        <ele>348.8</ele>
        <time>2024-08-05T10:55:07Z</time>
      </trkpt>
      <trkpt lat="47.15436" lon="5.92772">
        <ele>349</ele>
        <time>2024-08-05T10:55:08Z</time>
      </trkpt>
      <trkpt lat="47.15434" lon="5.92771">
        <ele>349</ele>
        <time>2024-08-05T10:55:09Z</time>
      </trkpt>
      <trkpt lat="47.15431" lon="5.9277">
        <ele>349</ele>
        <time>2024-08-05T10:55:10Z</time>
      </trkpt>
      <trkpt lat="47.15429" lon="5.9277">
        <ele>349.2</ele>
        <time>2024-08-05T10:55:11Z</time>
      </trkpt>
      <trkpt lat="47.15427" lon="5.9277">
        <ele>349.4</ele>
        <time>2024-08-05T10:55:12Z</time>
      </trkpt>
      <trkpt lat="47.15425" lon="5.92769">
        <ele>349.6</ele>
        <time>2024-08-05T10:55:13Z</time>
      </trkpt>
      <trkpt lat="47.15423" lon="5.92769">
        <ele>349.8</ele>
        <time>2024-08-05T10:55:14Z</time>
      </trkpt>
      <trkpt lat="47.15421" lon="5.92769">
        <ele>350</ele>
        <time>2024-08-05T10:55:15Z</time>
      </trkpt>
      <trkpt lat="47.15419" lon="5.92769">
        <ele>350</ele>
        <time>2024-08-05T10:55:16Z</time>
      </trkpt>
      <trkpt lat="47.15417" lon="5.92769">
        <ele>350.4</ele>
        <time>2024-08-05T10:55:17Z</time>
      </trkpt>
      <trkpt lat="47.15415" lon="5.92768">
        <ele>350.4</ele>
        <time>2024-08-05T10:55:18Z</time>
      </trkpt>
      <trkpt lat="47.15413" lon="5.92768">
        <ele>350.8</ele>
        <time>2024-08-05T10:55:19Z</time>
      </trkpt>
      <trkpt lat="47.15411" lon="5.92767">
        <ele>350.8</ele>
        <time>2024-08-05T10:55:20Z</time>
      </trkpt>
      <trkpt lat="47.15409" lon="5.92766">
        <ele>351</ele>
        <time>2024-08-05T10:55:21Z</time>
      </trkpt>
      <trkpt lat="47.15407" lon="5.92764">
        <ele>351</ele>
        <time>2024-08-05T10:55:22Z</time>
      </trkpt>
      <trkpt lat="47.15405" lon="5.92763">
        <ele>351.2</ele>
        <time>2024-08-05T10:55:23Z</time>
      </trkpt>
      <trkpt lat="47.15403" lon="5.92761">
        <ele>351.4</ele>
        <time>2024-08-05T10:55:24Z</time>
      </trkpt>
      <trkpt lat="47.15402" lon="5.92761">
        <ele>351.8</ele>
        <time>2024-08-05T10:55:25Z</time>
      </trkpt>
      <trkpt lat="47.154" lon="5.9276">
        <ele>351.8</ele>
        <time>2024-08-05T10:55:26Z</time>
      </trkpt>
      <trkpt lat="47.15398" lon="5.92759">
        <ele>352</ele>
        <time>2024-08-05T10:55:27Z</time>
      </trkpt>
      <trkpt lat="47.15397" lon="5.92759">
        <ele>352.2</ele>
        <time>2024-08-05T10:55:28Z</time>
      </trkpt>
      <trkpt lat="47.15395" lon="5.92758">
        <ele>352.4</ele>
        <time>2024-08-05T10:55:29Z</time>
      </trkpt>
      <trkpt lat="47.15394" lon="5.92758">
        <ele>352.4</ele>
        <time>2024-08-05T10:55:30Z</time>
      </trkpt>
      <trkpt lat="47.15392" lon="5.92757">
        <ele>352.4</ele>
        <time>2024-08-05T10:55:31Z</time>
      </trkpt>
      <trkpt lat="47.15391" lon="5.92757">
        <ele>352.4</ele>
        <time>2024-08-05T10:55:32Z</time>
      </trkpt>
      <trkpt lat="47.15389" lon="5.92757">
        <ele>352.6</ele>
        <time>2024-08-05T10:55:33Z</time>
      </trkpt>
      <trkpt lat="47.15387" lon="5.92756">
        <ele>352.8</ele>
        <time>2024-08-05T10:55:34Z</time>
      </trkpt>
      <trkpt lat="47.15385" lon="5.92756">
        <ele>353</ele>
        <time>2024-08-05T10:55:35Z</time>
      </trkpt>
      <trkpt lat="47.15383" lon="5.92756">
        <ele>353.2</ele>
        <time>2024-08-05T10:55:36Z</time>
      </trkpt>
      <trkpt lat="47.15381" lon="5.92757">
        <ele>353.4</ele>
        <time>2024-08-05T10:55:37Z</time>
      </trkpt>
      <trkpt lat="47.1538" lon="5.92757">
        <ele>353.6</ele>
        <time>2024-08-05T10:55:38Z</time>
      </trkpt>
      <trkpt lat="47.15378" lon="5.92758">
        <ele>353.8</ele>
        <time>2024-08-05T10:55:39Z</time>
      </trkpt>
      <trkpt lat="47.15376" lon="5.92759">
        <ele>354</ele>
        <time>2024-08-05T10:55:40Z</time>
      </trkpt>
      <trkpt lat="47.15374" lon="5.9276">
        <ele>354.2</ele>
        <time>2024-08-05T10:55:41Z</time>
      </trkpt>
      <trkpt lat="47.15372" lon="5.92761">
        <ele>354.4</ele>
        <time>2024-08-05T10:55:42Z</time>
      </trkpt>
      <trkpt lat="47.1537" lon="5.92763">
        <ele>354.8</ele>
        <time>2024-08-05T10:55:43Z</time>
      </trkpt>
      <trkpt lat="47.15368" lon="5.92764">
        <ele>355</ele>
        <time>2024-08-05T10:55:44Z</time>
      </trkpt>
      <trkpt lat="47.15367" lon="5.92766">
        <ele>355.4</ele>
        <time>2024-08-05T10:55:45Z</time>
      </trkpt>
      <trkpt lat="47.15365" lon="5.92768">
        <ele>355.8</ele>
        <time>2024-08-05T10:55:46Z</time>
      </trkpt>
      <trkpt lat="47.15363" lon="5.9277">
        <ele>356</ele>
        <time>2024-08-05T10:55:47Z</time>
      </trkpt>
      <trkpt lat="47.15362" lon="5.92772">
        <ele>356.2</ele>
        <time>2024-08-05T10:55:48Z</time>
      </trkpt>
      <trkpt lat="47.1536" lon="5.92774">
        <ele>356.4</ele>
        <time>2024-08-05T10:55:49Z</time>
      </trkpt>
      <trkpt lat="47.15359" lon="5.92776">
        <ele>356.8</ele>
        <time>2024-08-05T10:55:50Z</time>
      </trkpt>
      <trkpt lat="47.15358" lon="5.92778">
        <ele>357</ele>
        <time>2024-08-05T10:55:51Z</time>
      </trkpt>
      <trkpt lat="47.15357" lon="5.9278">
        <ele>357.2</ele>
        <time>2024-08-05T10:55:52Z</time>
      </trkpt>
      <trkpt lat="47.15355" lon="5.92783">
        <ele>357.2</ele>
        <time>2024-08-05T10:55:53Z</time>
      </trkpt>
      <trkpt lat="47.15354" lon="5.92785">
        <ele>357.6</ele>
        <time>2024-08-05T10:55:54Z</time>
      </trkpt>
      <trkpt lat="47.15352" lon="5.92787">
        <ele>357.8</ele>
        <time>2024-08-05T10:55:55Z</time>
      </trkpt>
      <trkpt lat="47.15352" lon="5.9279">
        <ele>358</ele>
        <time>2024-08-05T10:55:56Z</time>
      </trkpt>
      <trkpt lat="47.15351" lon="5.92792">
        <ele>358</ele>
        <time>2024-08-05T10:55:57Z</time>
      </trkpt>
      <trkpt lat="47.1535" lon="5.92794">
        <ele>358.2</ele>
        <time>2024-08-05T10:55:58Z</time>
      </trkpt>
      <trkpt lat="47.15349" lon="5.92796">
        <ele>358.4</ele>
        <time>2024-08-05T10:55:59Z</time>
      </trkpt>
      <trkpt lat="47.15348" lon="5.92798">
        <ele>358.6</ele>
        <time>2024-08-05T10:56:00Z</time>
      </trkpt>
      <trkpt lat="47.15347" lon="5.92801">
        <ele>358.8</ele>
        <time>2024-08-05T10:56:01Z</time>
      </trkpt>
      <trkpt lat="47.15346" lon="5.92803">
        <ele>358.8</ele>
        <time>2024-08-05T10:56:02Z</time>
      </trkpt>
      <trkpt lat="47.15345" lon="5.92805">
        <ele>359.2</ele>
        <time>2024-08-05T10:56:03Z</time>
      </trkpt>
      <trkpt lat="47.15344" lon="5.92808">
        <ele>359.4</ele>
        <time>2024-08-05T10:56:04Z</time>
      </trkpt>
      <trkpt lat="47.15343" lon="5.9281">
        <ele>359.6</ele>
        <time>2024-08-05T10:56:05Z</time>
      </trkpt>
      <trkpt lat="47.15341" lon="5.92813">
        <ele>360</ele>
        <time>2024-08-05T10:56:06Z</time>
      </trkpt>
      <trkpt lat="47.1534" lon="5.92815">
        <ele>360</ele>
        <time>2024-08-05T10:56:07Z</time>
      </trkpt>
      <trkpt lat="47.15339" lon="5.92818">
        <ele>360.2</ele>
        <time>2024-08-05T10:56:08Z</time>
      </trkpt>
      <trkpt lat="47.15338" lon="5.92821">
        <ele>360.4</ele>
        <time>2024-08-05T10:56:09Z</time>
      </trkpt>
      <trkpt lat="47.15337" lon="5.92824">
        <ele>360.6</ele>
        <time>2024-08-05T10:56:10Z</time>
      </trkpt>
      <trkpt lat="47.15336" lon="5.92827">
        <ele>361</ele>
        <time>2024-08-05T10:56:11Z</time>
      </trkpt>
      <trkpt lat="47.15336" lon="5.9283">
        <ele>361.2</ele>
        <time>2024-08-05T10:56:12Z</time>
      </trkpt>
      <trkpt lat="47.15335" lon="5.92834">
        <ele>361.6</ele>
        <time>2024-08-05T10:56:13Z</time>
      </trkpt>
      <trkpt lat="47.15334" lon="5.92837">
        <ele>361.4</ele>
        <time>2024-08-05T10:56:14Z</time>
      </trkpt>
      <trkpt lat="47.15333" lon="5.92841">
        <ele>361.4</ele>
        <time>2024-08-05T10:56:15Z</time>
      </trkpt>
      <trkpt lat="47.15332" lon="5.92843">
        <ele>361.8</ele>
        <time>2024-08-05T10:56:16Z</time>
      </trkpt>
      <trkpt lat="47.15331" lon="5.92847">
        <ele>361.8</ele>
        <time>2024-08-05T10:56:17Z</time>
      </trkpt>
      <trkpt lat="47.1533" lon="5.9285">
        <ele>362.2</ele>
        <time>2024-08-05T10:56:18Z</time>
      </trkpt>
      <trkpt lat="47.15329" lon="5.92853">
        <ele>362.2</ele>
        <time>2024-08-05T10:56:19Z</time>
      </trkpt>
      <trkpt lat="47.15328" lon="5.92856">
        <ele>362.4</ele>
        <time>2024-08-05T10:56:20Z</time>
      </trkpt>
      <trkpt lat="47.15327" lon="5.92859">
        <ele>362.6</ele>
        <time>2024-08-05T10:56:21Z</time>
      </trkpt>
      <trkpt lat="47.15326" lon="5.92862">
        <ele>362.8</ele>
        <time>2024-08-05T10:56:22Z</time>
      </trkpt>
      <trkpt lat="47.15325" lon="5.92865">
        <ele>363</ele>
        <time>2024-08-05T10:56:23Z</time>
      </trkpt>
      <trkpt lat="47.15324" lon="5.92868">
        <ele>363</ele>
        <time>2024-08-05T10:56:24Z</time>
      </trkpt>
      <trkpt lat="47.15323" lon="5.92871">
        <ele>363</ele>
        <time>2024-08-05T10:56:25Z</time>
      </trkpt>
      <trkpt lat="47.15323" lon="5.92875">
        <ele>363.4</ele>
        <time>2024-08-05T10:56:26Z</time>
      </trkpt>
      <trkpt lat="47.15322" lon="5.92878">
        <ele>363.4</ele>
        <time>2024-08-05T10:56:27Z</time>
      </trkpt>
      <trkpt lat="47.15321" lon="5.92881">
        <ele>363.4</ele>
        <time>2024-08-05T10:56:28Z</time>
      </trkpt>
      <trkpt lat="47.15321" lon="5.92885">
        <ele>363.4</ele>
        <time>2024-08-05T10:56:29Z</time>
      </trkpt>
      <trkpt lat="47.1532" lon="5.92888">
        <ele>363.6</ele>
        <time>2024-08-05T10:56:30Z</time>
      </trkpt>
      <trkpt lat="47.15319" lon="5.92891">
        <ele>363.6</ele>
        <time>2024-08-05T10:56:31Z</time>
      </trkpt>
      <trkpt lat="47.15319" lon="5.92894">
        <ele>363.6</ele>
        <time>2024-08-05T10:56:32Z</time>
      </trkpt>
      <trkpt lat="47.15318" lon="5.92896">
        <ele>363.8</ele>
        <time>2024-08-05T10:56:33Z</time>
      </trkpt>
      <trkpt lat="47.15317" lon="5.92899">
        <ele>363.8</ele>
        <time>2024-08-05T10:56:34Z</time>
      </trkpt>
      <trkpt lat="47.15316" lon="5.92902">
        <ele>364.2</ele>
        <time>2024-08-05T10:56:35Z</time>
      </trkpt>
      <trkpt lat="47.15316" lon="5.92905">
        <ele>364.2</ele>
        <time>2024-08-05T10:56:36Z</time>
      </trkpt>
      <trkpt lat="47.15315" lon="5.92907">
        <ele>364.2</ele>
        <time>2024-08-05T10:56:37Z</time>
      </trkpt>
      <trkpt lat="47.15314" lon="5.9291">
        <ele>364.4</ele>
        <time>2024-08-05T10:56:38Z</time>
      </trkpt>
      <trkpt lat="47.15314" lon="5.92913">
        <ele>364.6</ele>
        <time>2024-08-05T10:56:39Z</time>
      </trkpt>
      <trkpt lat="47.15313" lon="5.92915">
        <ele>364.8</ele>
        <time>2024-08-05T10:56:40Z</time>
      </trkpt>
      <trkpt lat="47.15312" lon="5.92917">
        <ele>364.8</ele>
        <time>2024-08-05T10:56:41Z</time>
      </trkpt>
      <trkpt lat="47.15312" lon="5.9292">
        <ele>365.2</ele>
        <time>2024-08-05T10:56:42Z</time>
      </trkpt>
      <trkpt lat="47.15311" lon="5.92922">
        <ele>365.2</ele>
        <time>2024-08-05T10:56:43Z</time>
      </trkpt>
      <trkpt lat="47.1531" lon="5.92925">
        <ele>365.6</ele>
        <time>2024-08-05T10:56:44Z</time>
      </trkpt>
      <trkpt lat="47.15309" lon="5.92927">
        <ele>365.8</ele>
        <time>2024-08-05T10:56:45Z</time>
      </trkpt>
      <trkpt lat="47.15307" lon="5.9293">
        <ele>366</ele>
        <time>2024-08-05T10:56:46Z</time>
      </trkpt>
      <trkpt lat="47.15306" lon="5.92932">
        <ele>366.2</ele>
        <time>2024-08-05T10:56:47Z</time>
      </trkpt>
      <trkpt lat="47.15305" lon="5.92935">
        <ele>366.4</ele>
        <time>2024-08-05T10:56:48Z</time>
      </trkpt>
      <trkpt lat="47.15304" lon="5.92937">
        <ele>366.6</ele>
        <time>2024-08-05T10:56:49Z</time>
      </trkpt>
      <trkpt lat="47.15303" lon="5.9294">
        <ele>367</ele>
        <time>2024-08-05T10:56:50Z</time>
      </trkpt>
      <trkpt lat="47.15302" lon="5.92943">
        <ele>366.8</ele>
        <time>2024-08-05T10:56:51Z</time>
      </trkpt>
      <trkpt lat="47.15301" lon="5.92945">
        <ele>367.2</ele>
        <time>2024-08-05T10:56:52Z</time>
      </trkpt>
      <trkpt lat="47.153" lon="5.92947">
        <ele>367.2</ele>
        <time>2024-08-05T10:56:53Z</time>
      </trkpt>
      <trkpt lat="47.15298" lon="5.92949">
        <ele>367.4</ele>
        <time>2024-08-05T10:56:54Z</time>
      </trkpt>
      <trkpt lat="47.15297" lon="5.92951">
        <ele>367.8</ele>
        <time>2024-08-05T10:56:55Z</time>
      </trkpt>
      <trkpt lat="47.15296" lon="5.92954">
        <ele>367.8</ele>
        <time>2024-08-05T10:56:56Z</time>
      </trkpt>
      <trkpt lat="47.15295" lon="5.92956">
        <ele>368.2</ele>
        <time>2024-08-05T10:56:57Z</time>
      </trkpt>
      <trkpt lat="47.15295" lon="5.92958">
        <ele>368.4</ele>
        <time>2024-08-05T10:56:58Z</time>
      </trkpt>
      <trkpt lat="47.15294" lon="5.9296">
        <ele>368.4</ele>
        <time>2024-08-05T10:56:59Z</time>
      </trkpt>
      <trkpt lat="47.15293" lon="5.92963">
        <ele>368.6</ele>
        <time>2024-08-05T10:57:00Z</time>
      </trkpt>
      <trkpt lat="47.15292" lon="5.92965">
        <ele>368.8</ele>
        <time>2024-08-05T10:57:01Z</time>
      </trkpt>
      <trkpt lat="47.15291" lon="5.92967">
        <ele>369</ele>
        <time>2024-08-05T10:57:02Z</time>
      </trkpt>
      <trkpt lat="47.1529" lon="5.92969">
        <ele>369.2</ele>
        <time>2024-08-05T10:57:03Z</time>
      </trkpt>
      <trkpt lat="47.15289" lon="5.92972">
        <ele>369.2</ele>
        <time>2024-08-05T10:57:04Z</time>
      </trkpt>
      <trkpt lat="47.15288" lon="5.92974">
        <ele>369.4</ele>
        <time>2024-08-05T10:57:05Z</time>
      </trkpt>
      <trkpt lat="47.15287" lon="5.92976">
        <ele>369.6</ele>
        <time>2024-08-05T10:57:06Z</time>
      </trkpt>
      <trkpt lat="47.15286" lon="5.92979">
        <ele>369.8</ele>
        <time>2024-08-05T10:57:07Z</time>
      </trkpt>
      <trkpt lat="47.15286" lon="5.92981">
        <ele>370</ele>
        <time>2024-08-05T10:57:08Z</time>
      </trkpt>
      <trkpt lat="47.15285" lon="5.92983">
        <ele>370</ele>
        <time>2024-08-05T10:57:09Z</time>
      </trkpt>
      <trkpt lat="47.15285" lon="5.92986">
        <ele>370.4</ele>
        <time>2024-08-05T10:57:10Z</time>
      </trkpt>
      <trkpt lat="47.15285" lon="5.92989">
        <ele>370.6</ele>
        <time>2024-08-05T10:57:11Z</time>
      </trkpt>
      <trkpt lat="47.15284" lon="5.92991">
        <ele>370.6</ele>
        <time>2024-08-05T10:57:12Z</time>
      </trkpt>
      <trkpt lat="47.15283" lon="5.92993">
        <ele>370.8</ele>
        <time>2024-08-05T10:57:13Z</time>
      </trkpt>
      <trkpt lat="47.15282" lon="5.92996">
        <ele>371</ele>
        <time>2024-08-05T10:57:14Z</time>
      </trkpt>
      <trkpt lat="47.15282" lon="5.92998">
        <ele>371.4</ele>
        <time>2024-08-05T10:57:15Z</time>
      </trkpt>
      <trkpt lat="47.15281" lon="5.93">
        <ele>371.4</ele>
        <time>2024-08-05T10:57:16Z</time>
      </trkpt>
      <trkpt lat="47.15281" lon="5.93003">
        <ele>371.6</ele>
        <time>2024-08-05T10:57:17Z</time>
      </trkpt>
      <trkpt lat="47.15281" lon="5.93005">
        <ele>371.8</ele>
        <time>2024-08-05T10:57:18Z</time>
      </trkpt>
      <trkpt lat="47.15281" lon="5.93008">
        <ele>372</ele>
        <time>2024-08-05T10:57:19Z</time>
      </trkpt>
      <trkpt lat="47.1528" lon="5.9301">
        <ele>372.2</ele>
        <time>2024-08-05T10:57:20Z</time>
      </trkpt>
      <trkpt lat="47.1528" lon="5.93012">
        <ele>372.2</ele>
        <time>2024-08-05T10:57:21Z</time>
      </trkpt>
      <trkpt lat="47.1528" lon="5.93015">
        <ele>372.4</ele>
        <time>2024-08-05T10:57:22Z</time>
      </trkpt>
      <trkpt lat="47.15279" lon="5.93017">
        <ele>372.6</ele>
        <time>2024-08-05T10:57:23Z</time>
      </trkpt>
      <trkpt lat="47.15278" lon="5.93019">
        <ele>372.8</ele>
        <time>2024-08-05T10:57:24Z</time>
      </trkpt>
      <trkpt lat="47.15277" lon="5.9302">
        <ele>373</ele>
        <time>2024-08-05T10:57:25Z</time>
      </trkpt>
      <trkpt lat="47.15276" lon="5.93022">
        <ele>373</ele>
        <time>2024-08-05T10:57:26Z</time>
      </trkpt>
      <trkpt lat="47.15275" lon="5.93024">
        <ele>373.2</ele>
        <time>2024-08-05T10:57:27Z</time>
      </trkpt>
      <trkpt lat="47.15274" lon="5.93025">
        <ele>373.4</ele>
        <time>2024-08-05T10:57:28Z</time>
      </trkpt>
      <trkpt lat="47.15272" lon="5.93026">
        <ele>373.6</ele>
        <time>2024-08-05T10:57:29Z</time>
      </trkpt>
      <trkpt lat="47.15271" lon="5.93027">
        <ele>373.8</ele>
        <time>2024-08-05T10:57:30Z</time>
      </trkpt>
      <trkpt lat="47.15269" lon="5.93028">
        <ele>374</ele>
        <time>2024-08-05T10:57:31Z</time>
      </trkpt>
      <trkpt lat="47.15267" lon="5.93028">
        <ele>374.2</ele>
        <time>2024-08-05T10:57:32Z</time>
      </trkpt>
      <trkpt lat="47.15265" lon="5.93029">
        <ele>374.4</ele>
        <time>2024-08-05T10:57:33Z</time>
      </trkpt>
      <trkpt lat="47.15264" lon="5.93029">
        <ele>374.6</ele>
        <time>2024-08-05T10:57:34Z</time>
      </trkpt>
      <trkpt lat="47.15262" lon="5.9303">
        <ele>374.8</ele>
        <time>2024-08-05T10:57:35Z</time>
      </trkpt>
      <trkpt lat="47.15261" lon="5.9303">
        <ele>375</ele>
        <time>2024-08-05T10:57:36Z</time>
      </trkpt>
      <trkpt lat="47.15259" lon="5.93031">
        <ele>375.2</ele>
        <time>2024-08-05T10:57:37Z</time>
      </trkpt>
      <trkpt lat="47.15257" lon="5.93032">
        <ele>375.2</ele>
        <time>2024-08-05T10:57:38Z</time>
      </trkpt>
      <trkpt lat="47.15256" lon="5.93033">
        <ele>375.4</ele>
        <time>2024-08-05T10:57:39Z</time>
      </trkpt>
      <trkpt lat="47.15254" lon="5.93033">
        <ele>375.6</ele>
        <time>2024-08-05T10:57:40Z</time>
      </trkpt>
      <trkpt lat="47.15253" lon="5.93034">
        <ele>375.8</ele>
        <time>2024-08-05T10:57:41Z</time>
      </trkpt>
      <trkpt lat="47.15251" lon="5.93035">
        <ele>376</ele>
        <time>2024-08-05T10:57:42Z</time>
      </trkpt>
      <trkpt lat="47.15249" lon="5.93036">
        <ele>376</ele>
        <time>2024-08-05T10:57:43Z</time>
      </trkpt>
      <trkpt lat="47.15248" lon="5.93038">
        <ele>376.4</ele>
        <time>2024-08-05T10:57:44Z</time>
      </trkpt>
      <trkpt lat="47.15246" lon="5.93039">
        <ele>376.6</ele>
        <time>2024-08-05T10:57:45Z</time>
      </trkpt>
      <trkpt lat="47.15244" lon="5.9304">
        <ele>376.8</ele>
        <time>2024-08-05T10:57:46Z</time>
      </trkpt>
      <trkpt lat="47.15242" lon="5.93041">
        <ele>377</ele>
        <time>2024-08-05T10:57:47Z</time>
      </trkpt>
      <trkpt lat="47.1524" lon="5.93041">
        <ele>377.4</ele>
        <time>2024-08-05T10:57:48Z</time>
      </trkpt>
      <trkpt lat="47.15238" lon="5.93042">
        <ele>377.4</ele>
        <time>2024-08-05T10:57:49Z</time>
      </trkpt>
      <trkpt lat="47.15235" lon="5.93043">
        <ele>377.8</ele>
        <time>2024-08-05T10:57:50Z</time>
      </trkpt>
      <trkpt lat="47.15234" lon="5.93044">
        <ele>378</ele>
        <time>2024-08-05T10:57:51Z</time>
      </trkpt>
      <trkpt lat="47.15232" lon="5.93044">
        <ele>378.4</ele>
        <time>2024-08-05T10:57:52Z</time>
      </trkpt>
      <trkpt lat="47.1523" lon="5.93045">
        <ele>378.8</ele>
        <time>2024-08-05T10:57:53Z</time>
      </trkpt>
      <trkpt lat="47.15228" lon="5.93046">
        <ele>379</ele>
        <time>2024-08-05T10:57:54Z</time>
      </trkpt>
      <trkpt lat="47.15227" lon="5.93047">
        <ele>379.2</ele>
        <time>2024-08-05T10:57:55Z</time>
      </trkpt>
      <trkpt lat="47.15225" lon="5.93047">
        <ele>379.6</ele>
        <time>2024-08-05T10:57:56Z</time>
      </trkpt>
      <trkpt lat="47.15224" lon="5.93048">
        <ele>380</ele>
        <time>2024-08-05T10:57:57Z</time>
      </trkpt>
      <trkpt lat="47.15222" lon="5.93049">
        <ele>380.2</ele>
        <time>2024-08-05T10:57:58Z</time>
      </trkpt>
      <trkpt lat="47.15221" lon="5.9305">
        <ele>380.2</ele>
        <time>2024-08-05T10:57:59Z</time>
      </trkpt>
      <trkpt lat="47.1522" lon="5.93051">
        <ele>380.6</ele>
        <time>2024-08-05T10:58:00Z</time>
      </trkpt>
      <trkpt lat="47.15218" lon="5.93052">
        <ele>380.8</ele>
        <time>2024-08-05T10:58:01Z</time>
      </trkpt>
      <trkpt lat="47.15217" lon="5.93053">
        <ele>381</ele>
        <time>2024-08-05T10:58:02Z</time>
      </trkpt>
      <trkpt lat="47.15215" lon="5.93054">
        <ele>381</ele>
        <time>2024-08-05T10:58:03Z</time>
      </trkpt>
      <trkpt lat="47.15214" lon="5.93056">
        <ele>381.4</ele>
        <time>2024-08-05T10:58:04Z</time>
      </trkpt>
      <trkpt lat="47.15212" lon="5.93058">
        <ele>381.4</ele>
        <time>2024-08-05T10:58:05Z</time>
      </trkpt>
      <trkpt lat="47.15211" lon="5.9306">
        <ele>381.4</ele>
        <time>2024-08-05T10:58:06Z</time>
      </trkpt>
      <trkpt lat="47.15209" lon="5.93062">
        <ele>381.6</ele>
        <time>2024-08-05T10:58:07Z</time>
      </trkpt>
      <trkpt lat="47.15208" lon="5.93064">
        <ele>381.6</ele>
        <time>2024-08-05T10:58:08Z</time>
      </trkpt>
      <trkpt lat="47.15206" lon="5.93066">
        <ele>381.8</ele>
        <time>2024-08-05T10:58:09Z</time>
      </trkpt>
      <trkpt lat="47.15205" lon="5.93068">
        <ele>382</ele>
        <time>2024-08-05T10:58:10Z</time>
      </trkpt>
      <trkpt lat="47.15203" lon="5.93071">
        <ele>382</ele>
        <time>2024-08-05T10:58:11Z</time>
      </trkpt>
      <trkpt lat="47.15201" lon="5.93072">
        <ele>382.2</ele>
        <time>2024-08-05T10:58:12Z</time>
      </trkpt>
      <trkpt lat="47.152" lon="5.93074">
        <ele>382.4</ele>
        <time>2024-08-05T10:58:13Z</time>
      </trkpt>
      <trkpt lat="47.15198" lon="5.93076">
        <ele>382.2</ele>
        <time>2024-08-05T10:58:14Z</time>
      </trkpt>
      <trkpt lat="47.15197" lon="5.93078">
        <ele>382.4</ele>
        <time>2024-08-05T10:58:15Z</time>
      </trkpt>
      <trkpt lat="47.15195" lon="5.9308">
        <ele>382.4</ele>
        <time>2024-08-05T10:58:16Z</time>
      </trkpt>
      <trkpt lat="47.15194" lon="5.93082">
        <ele>382.6</ele>
        <time>2024-08-05T10:58:17Z</time>
      </trkpt>
      <trkpt lat="47.15193" lon="5.93084">
        <ele>382.8</ele>
        <time>2024-08-05T10:58:18Z</time>
      </trkpt>
      <trkpt lat="47.15191" lon="5.93086">
        <ele>383</ele>
        <time>2024-08-05T10:58:19Z</time>
      </trkpt>
      <trkpt lat="47.1519" lon="5.93089">
        <ele>383</ele>
        <time>2024-08-05T10:58:20Z</time>
      </trkpt>
      <trkpt lat="47.15189" lon="5.93091">
        <ele>383.4</ele>
        <time>2024-08-05T10:58:21Z</time>
      </trkpt>
      <trkpt lat="47.15187" lon="5.93093">
        <ele>383.6</ele>
        <time>2024-08-05T10:58:22Z</time>
      </trkpt>
      <trkpt lat="47.15186" lon="5.93095">
        <ele>383.8</ele>
        <time>2024-08-05T10:58:23Z</time>
      </trkpt>
      <trkpt lat="47.15185" lon="5.93098">
        <ele>384</ele>
        <time>2024-08-05T10:58:24Z</time>
      </trkpt>
      <trkpt lat="47.15183" lon="5.931">
        <ele>384.4</ele>
        <time>2024-08-05T10:58:25Z</time>
      </trkpt>
      <trkpt lat="47.15182" lon="5.93103">
        <ele>384.4</ele>
        <time>2024-08-05T10:58:26Z</time>
      </trkpt>
      <trkpt lat="47.15181" lon="5.93105">
        <ele>384.4</ele>
        <time>2024-08-05T10:58:27Z</time>
      </trkpt>
      <trkpt lat="47.1518" lon="5.93108">
        <ele>384.6</ele>
        <time>2024-08-05T10:58:28Z</time>
      </trkpt>
      <trkpt lat="47.15178" lon="5.93111">
        <ele>384.6</ele>
        <time>2024-08-05T10:58:29Z</time>
      </trkpt>
      <trkpt lat="47.15177" lon="5.93113">
        <ele>385</ele>
        <time>2024-08-05T10:58:30Z</time>
      </trkpt>
      <trkpt lat="47.15175" lon="5.93116">
        <ele>385.2</ele>
        <time>2024-08-05T10:58:31Z</time>
      </trkpt>
      <trkpt lat="47.15174" lon="5.93118">
        <ele>385.2</ele>
        <time>2024-08-05T10:58:32Z</time>
      </trkpt>
      <trkpt lat="47.15173" lon="5.93121">
        <ele>385.4</ele>
        <time>2024-08-05T10:58:33Z</time>
      </trkpt>
      <trkpt lat="47.15171" lon="5.93124">
        <ele>385.4</ele>
        <time>2024-08-05T10:58:34Z</time>
      </trkpt>
      <trkpt lat="47.1517" lon="5.93126">
        <ele>385.6</ele>
        <time>2024-08-05T10:58:35Z</time>
      </trkpt>
      <trkpt lat="47.15169" lon="5.93128">
        <ele>386</ele>
        <time>2024-08-05T10:58:36Z</time>
      </trkpt>
      <trkpt lat="47.15168" lon="5.93131">
        <ele>386</ele>
        <time>2024-08-05T10:58:37Z</time>
      </trkpt>
      <trkpt lat="47.15167" lon="5.93133">
        <ele>386</ele>
        <time>2024-08-05T10:58:38Z</time>
      </trkpt>
      <trkpt lat="47.15165" lon="5.93135">
        <ele>386.4</ele>
        <time>2024-08-05T10:58:39Z</time>
      </trkpt>
      <trkpt lat="47.15164" lon="5.93137">
        <ele>386.6</ele>
        <time>2024-08-05T10:58:40Z</time>
      </trkpt>
      <trkpt lat="47.15163" lon="5.9314">
        <ele>386.6</ele>
        <time>2024-08-05T10:58:41Z</time>
      </trkpt>
      <trkpt lat="47.15163" lon="5.93142">
        <ele>386.8</ele>
        <time>2024-08-05T10:58:42Z</time>
      </trkpt>
      <trkpt lat="47.15161" lon="5.93144">
        <ele>387.2</ele>
        <time>2024-08-05T10:58:43Z</time>
      </trkpt>
      <trkpt lat="47.1516" lon="5.93146">
        <ele>387.4</ele>
        <time>2024-08-05T10:58:44Z</time>
      </trkpt>
      <trkpt lat="47.15158" lon="5.93148">
        <ele>387.4</ele>
        <time>2024-08-05T10:58:45Z</time>
      </trkpt>
      <trkpt lat="47.15157" lon="5.93149">
        <ele>387.6</ele>
        <time>2024-08-05T10:58:46Z</time>
      </trkpt>
      <trkpt lat="47.15155" lon="5.93151">
        <ele>387.8</ele>
        <time>2024-08-05T10:58:47Z</time>
      </trkpt>
      <trkpt lat="47.15154" lon="5.93153">
        <ele>388.2</ele>
        <time>2024-08-05T10:58:48Z</time>
      </trkpt>
      <trkpt lat="47.15153" lon="5.93154">
        <ele>388.2</ele>
        <time>2024-08-05T10:58:49Z</time>
      </trkpt>
      <trkpt lat="47.15152" lon="5.93157">
        <ele>388.4</ele>
        <time>2024-08-05T10:58:50Z</time>
      </trkpt>
      <trkpt lat="47.15151" lon="5.93159">
        <ele>388.4</ele>
        <time>2024-08-05T10:58:51Z</time>
      </trkpt>
      <trkpt lat="47.15149" lon="5.93161">
        <ele>388.6</ele>
        <time>2024-08-05T10:58:52Z</time>
      </trkpt>
      <trkpt lat="47.15147" lon="5.93162">
        <ele>388.8</ele>
        <time>2024-08-05T10:58:53Z</time>
      </trkpt>
      <trkpt lat="47.15145" lon="5.93163">
        <ele>389</ele>
        <time>2024-08-05T10:58:54Z</time>
      </trkpt>
      <trkpt lat="47.15143" lon="5.93164">
        <ele>389.4</ele>
        <time>2024-08-05T10:58:55Z</time>
      </trkpt>
      <trkpt lat="47.15142" lon="5.93165">
        <ele>389.4</ele>
        <time>2024-08-05T10:58:56Z</time>
      </trkpt>
      <trkpt lat="47.1514" lon="5.93166">
        <ele>389.6</ele>
        <time>2024-08-05T10:58:57Z</time>
      </trkpt>
      <trkpt lat="47.15138" lon="5.93166">
        <ele>389.8</ele>
        <time>2024-08-05T10:58:58Z</time>
      </trkpt>
      <trkpt lat="47.15137" lon="5.93165">
        <ele>390.2</ele>
        <time>2024-08-05T10:58:59Z</time>
      </trkpt>
      <trkpt lat="47.15135" lon="5.93165">
        <ele>390.4</ele>
        <time>2024-08-05T10:59:00Z</time>
      </trkpt>
      <trkpt lat="47.15133" lon="5.93164">
        <ele>390.8</ele>
        <time>2024-08-05T10:59:01Z</time>
      </trkpt>
      <trkpt lat="47.15132" lon="5.93164">
        <ele>391</ele>
        <time>2024-08-05T10:59:02Z</time>
      </trkpt>
      <trkpt lat="47.15129" lon="5.93163">
        <ele>391.2</ele>
        <time>2024-08-05T10:59:03Z</time>
      </trkpt>
      <trkpt lat="47.15128" lon="5.93163">
        <ele>391.6</ele>
        <time>2024-08-05T10:59:04Z</time>
      </trkpt>
      <trkpt lat="47.15126" lon="5.93164">
        <ele>391.6</ele>
        <time>2024-08-05T10:59:05Z</time>
      </trkpt>
      <trkpt lat="47.15124" lon="5.93164">
        <ele>392</ele>
        <time>2024-08-05T10:59:06Z</time>
      </trkpt>
      <trkpt lat="47.15124" lon="5.93164">
        <ele>392</ele>
        <time>2024-08-05T10:59:07Z</time>
      </trkpt>
      <trkpt lat="47.15122" lon="5.93163">
        <ele>392.2</ele>
        <time>2024-08-05T10:59:08Z</time>
      </trkpt>
      <trkpt lat="47.1512" lon="5.93163">
        <ele>392.6</ele>
        <time>2024-08-05T10:59:09Z</time>
      </trkpt>
      <trkpt lat="47.15118" lon="5.93162">
        <ele>392.6</ele>
        <time>2024-08-05T10:59:10Z</time>
      </trkpt>
      <trkpt lat="47.15116" lon="5.93161">
        <ele>392.6</ele>
        <time>2024-08-05T10:59:11Z</time>
      </trkpt>
      <trkpt lat="47.15114" lon="5.93159">
        <ele>392.8</ele>
        <time>2024-08-05T10:59:12Z</time>
      </trkpt>
      <trkpt lat="47.15113" lon="5.93158">
        <ele>393</ele>
        <time>2024-08-05T10:59:13Z</time>
      </trkpt>
      <trkpt lat="47.15111" lon="5.93157">
        <ele>393.2</ele>
        <time>2024-08-05T10:59:14Z</time>
      </trkpt>
      <trkpt lat="47.15109" lon="5.93156">
        <ele>393.6</ele>
        <time>2024-08-05T10:59:15Z</time>
      </trkpt>
      <trkpt lat="47.15107" lon="5.93156">
        <ele>393.6</ele>
        <time>2024-08-05T10:59:16Z</time>
      </trkpt>
      <trkpt lat="47.15105" lon="5.93155">
        <ele>393.8</ele>
        <time>2024-08-05T10:59:17Z</time>
      </trkpt>
      <trkpt lat="47.15104" lon="5.93155">
        <ele>394</ele>
        <time>2024-08-05T10:59:18Z</time>
      </trkpt>
      <trkpt lat="47.15102" lon="5.93154">
        <ele>394</ele>
        <time>2024-08-05T10:59:19Z</time>
      </trkpt>
      <trkpt lat="47.151" lon="5.93154">
        <ele>394.2</ele>
        <time>2024-08-05T10:59:20Z</time>
      </trkpt>
      <trkpt lat="47.15099" lon="5.93152">
        <ele>394.4</ele>
        <time>2024-08-05T10:59:21Z</time>
      </trkpt>
      <trkpt lat="47.15097" lon="5.93151">
        <ele>394.6</ele>
        <time>2024-08-05T10:59:22Z</time>
      </trkpt>
      <trkpt lat="47.15096" lon="5.93151">
        <ele>394.8</ele>
        <time>2024-08-05T10:59:23Z</time>
      </trkpt>
      <trkpt lat="47.15095" lon="5.93149">
        <ele>394.8</ele>
        <time>2024-08-05T10:59:24Z</time>
      </trkpt>
      <trkpt lat="47.15093" lon="5.93148">
        <ele>395.2</ele>
        <time>2024-08-05T10:59:25Z</time>
      </trkpt>
      <trkpt lat="47.15092" lon="5.93146">
        <ele>395.2</ele>
        <time>2024-08-05T10:59:26Z</time>
      </trkpt>
      <trkpt lat="47.15091" lon="5.93144">
        <ele>395.4</ele>
        <time>2024-08-05T10:59:27Z</time>
      </trkpt>
      <trkpt lat="47.15089" lon="5.93143">
        <ele>395.6</ele>
        <time>2024-08-05T10:59:28Z</time>
      </trkpt>
      <trkpt lat="47.15088" lon="5.93141">
        <ele>395.6</ele>
        <time>2024-08-05T10:59:29Z</time>
      </trkpt>
      <trkpt lat="47.15086" lon="5.9314">
        <ele>395.8</ele>
        <time>2024-08-05T10:59:30Z</time>
      </trkpt>
      <trkpt lat="47.15084" lon="5.93138">
        <ele>396</ele>
        <time>2024-08-05T10:59:31Z</time>
      </trkpt>
      <trkpt lat="47.15082" lon="5.93138">
        <ele>396.2</ele>
        <time>2024-08-05T10:59:32Z</time>
      </trkpt>
      <trkpt lat="47.15081" lon="5.93136">
        <ele>396.2</ele>
        <time>2024-08-05T10:59:33Z</time>
      </trkpt>
      <trkpt lat="47.15079" lon="5.93135">
        <ele>396.2</ele>
        <time>2024-08-05T10:59:34Z</time>
      </trkpt>
      <trkpt lat="47.15077" lon="5.93133">
        <ele>396.4</ele>
        <time>2024-08-05T10:59:35Z</time>
      </trkpt>
      <trkpt lat="47.15075" lon="5.93132">
        <ele>396.6</ele>
        <time>2024-08-05T10:59:36Z</time>
      </trkpt>
      <trkpt lat="47.15073" lon="5.93131">
        <ele>396.6</ele>
        <time>2024-08-05T10:59:37Z</time>
      </trkpt>
      <trkpt lat="47.15071" lon="5.9313">
        <ele>397</ele>
        <time>2024-08-05T10:59:38Z</time>
      </trkpt>
      <trkpt lat="47.15069" lon="5.93129">
        <ele>397</ele>
        <time>2024-08-05T10:59:39Z</time>
      </trkpt>
      <trkpt lat="47.15067" lon="5.93128">
        <ele>397.2</ele>
        <time>2024-08-05T10:59:40Z</time>
      </trkpt>
      <trkpt lat="47.15065" lon="5.93127">
        <ele>397.2</ele>
        <time>2024-08-05T10:59:41Z</time>
      </trkpt>
      <trkpt lat="47.15063" lon="5.93126">
        <ele>397.2</ele>
        <time>2024-08-05T10:59:42Z</time>
      </trkpt>
      <trkpt lat="47.15061" lon="5.93124">
        <ele>397.4</ele>
        <time>2024-08-05T10:59:43Z</time>
      </trkpt>
      <trkpt lat="47.15059" lon="5.93123">
        <ele>397.4</ele>
        <time>2024-08-05T10:59:44Z</time>
      </trkpt>
      <trkpt lat="47.15056" lon="5.93121">
        <ele>397.6</ele>
        <time>2024-08-05T10:59:45Z</time>
      </trkpt>
      <trkpt lat="47.15054" lon="5.9312">
        <ele>397.8</ele>
        <time>2024-08-05T10:59:46Z</time>
      </trkpt>
      <trkpt lat="47.15051" lon="5.93117">
        <ele>397.8</ele>
        <time>2024-08-05T10:59:47Z</time>
      </trkpt>
      <trkpt lat="47.15048" lon="5.93115">
        <ele>398</ele>
        <time>2024-08-05T10:59:48Z</time>
      </trkpt>
      <trkpt lat="47.15045" lon="5.93114">
        <ele>398</ele>
        <time>2024-08-05T10:59:49Z</time>
      </trkpt>
      <trkpt lat="47.15043" lon="5.93113">
        <ele>398.2</ele>
        <time>2024-08-05T10:59:50Z</time>
      </trkpt>
      <trkpt lat="47.1504" lon="5.93112">
        <ele>398.2</ele>
        <time>2024-08-05T10:59:51Z</time>
      </trkpt>
      <trkpt lat="47.15038" lon="5.93111">
        <ele>398.4</ele>
        <time>2024-08-05T10:59:52Z</time>
      </trkpt>
      <trkpt lat="47.15036" lon="5.9311">
        <ele>398.4</ele>
        <time>2024-08-05T10:59:53Z</time>
      </trkpt>
      <trkpt lat="47.15033" lon="5.93109">
        <ele>398.4</ele>
        <time>2024-08-05T10:59:54Z</time>
      </trkpt>
      <trkpt lat="47.15031" lon="5.93108">
        <ele>398.4</ele>
        <time>2024-08-05T10:59:55Z</time>
      </trkpt>
      <trkpt lat="47.15028" lon="5.93107">
        <ele>398.2</ele>
        <time>2024-08-05T10:59:56Z</time>
      </trkpt>
      <trkpt lat="47.15026" lon="5.93106">
        <ele>398.4</ele>
        <time>2024-08-05T10:59:57Z</time>
      </trkpt>
      <trkpt lat="47.15023" lon="5.93105">
        <ele>398.4</ele>
        <time>2024-08-05T10:59:58Z</time>
      </trkpt>
      <trkpt lat="47.15021" lon="5.93104">
        <ele>398.4</ele>
        <time>2024-08-05T10:59:59Z</time>
      </trkpt>
      <trkpt lat="47.15019" lon="5.93103">
        <ele>398.6</ele>
        <time>2024-08-05T11:00:00Z</time>
      </trkpt>
      <trkpt lat="47.15017" lon="5.93103">
        <ele>398.4</ele>
        <time>2024-08-05T11:00:01Z</time>
      </trkpt>
      <trkpt lat="47.15015" lon="5.93103">
        <ele>398.6</ele>
        <time>2024-08-05T11:00:02Z</time>
      </trkpt>
      <trkpt lat="47.15013" lon="5.93103">
        <ele>398.6</ele>
        <time>2024-08-05T11:00:03Z</time>
      </trkpt>
      <trkpt lat="47.15011" lon="5.93104">
        <ele>398.6</ele>
        <time>2024-08-05T11:00:04Z</time>
      </trkpt>
      <trkpt lat="47.15009" lon="5.93105">
        <ele>398.8</ele>
        <time>2024-08-05T11:00:05Z</time>
      </trkpt>
      <trkpt lat="47.15007" lon="5.93106">
        <ele>398.8</ele>
        <time>2024-08-05T11:00:06Z</time>
      </trkpt>
      <trkpt lat="47.15005" lon="5.93107">
        <ele>399</ele>
        <time>2024-08-05T11:00:07Z</time>
      </trkpt>
      <trkpt lat="47.15003" lon="5.93108">
        <ele>399</ele>
        <time>2024-08-05T11:00:08Z</time>
      </trkpt>
      <trkpt lat="47.15002" lon="5.93109">
        <ele>399</ele>
        <time>2024-08-05T11:00:09Z</time>
      </trkpt>
      <trkpt lat="47.15" lon="5.93111">
        <ele>399</ele>
        <time>2024-08-05T11:00:10Z</time>
      </trkpt>
      <trkpt lat="47.14999" lon="5.93113">
        <ele>399</ele>
        <time>2024-08-05T11:00:11Z</time>
      </trkpt>
      <trkpt lat="47.14999" lon="5.93114">
        <ele>399.2</ele>
        <time>2024-08-05T11:00:12Z</time>
      </trkpt>
      <trkpt lat="47.14997" lon="5.93115">
        <ele>399.2</ele>
        <time>2024-08-05T11:00:13Z</time>
      </trkpt>
      <trkpt lat="47.14996" lon="5.93117">
        <ele>399.4</ele>
        <time>2024-08-05T11:00:14Z</time>
      </trkpt>
      <trkpt lat="47.14995" lon="5.93118">
        <ele>399.4</ele>
        <time>2024-08-05T11:00:15Z</time>
      </trkpt>
      <trkpt lat="47.14995" lon="5.93119">
        <ele>399.4</ele>
        <time>2024-08-05T11:00:16Z</time>
      </trkpt>
      <trkpt lat="47.14993" lon="5.9312">
        <ele>399.4</ele>
        <time>2024-08-05T11:00:17Z</time>
      </trkpt>
      <trkpt lat="47.14992" lon="5.93121">
        <ele>399.6</ele>
        <time>2024-08-05T11:00:18Z</time>
      </trkpt>
      <trkpt lat="47.14991" lon="5.93123">
        <ele>399.6</ele>
        <time>2024-08-05T11:00:19Z</time>
      </trkpt>
      <trkpt lat="47.1499" lon="5.93124">
        <ele>399.6</ele>
        <time>2024-08-05T11:00:20Z</time>
      </trkpt>
      <trkpt lat="47.14989" lon="5.93125">
        <ele>400</ele>
        <time>2024-08-05T11:00:21Z</time>
      </trkpt>
      <trkpt lat="47.14988" lon="5.93126">
        <ele>400</ele>
        <time>2024-08-05T11:00:22Z</time>
      </trkpt>
      <trkpt lat="47.14987" lon="5.93128">
        <ele>400</ele>
        <time>2024-08-05T11:00:23Z</time>
      </trkpt>
      <trkpt lat="47.14986" lon="5.93129">
        <ele>400.2</ele>
        <time>2024-08-05T11:00:24Z</time>
      </trkpt>
      <trkpt lat="47.14985" lon="5.9313">
        <ele>400.4</ele>
        <time>2024-08-05T11:00:25Z</time>
      </trkpt>
      <trkpt lat="47.14984" lon="5.93131">
        <ele>400.6</ele>
        <time>2024-08-05T11:00:26Z</time>
      </trkpt>
      <trkpt lat="47.14983" lon="5.93132">
        <ele>400.8</ele>
        <time>2024-08-05T11:00:27Z</time>
      </trkpt>
      <trkpt lat="47.14983" lon="5.93132">
        <ele>401</ele>
        <time>2024-08-05T11:00:28Z</time>
      </trkpt>
      <trkpt lat="47.14982" lon="5.93133">
        <ele>401.2</ele>
        <time>2024-08-05T11:00:29Z</time>
      </trkpt>
      <trkpt lat="47.14981" lon="5.93134">
        <ele>401.4</ele>
        <time>2024-08-05T11:00:30Z</time>
      </trkpt>
      <trkpt lat="47.1498" lon="5.93135">
        <ele>401.6</ele>
        <time>2024-08-05T11:00:31Z</time>
      </trkpt>
      <trkpt lat="47.14979" lon="5.93136">
        <ele>401.8</ele>
        <time>2024-08-05T11:00:32Z</time>
      </trkpt>
      <trkpt lat="47.14978" lon="5.93136">
        <ele>401.6</ele>
        <time>2024-08-05T11:00:33Z</time>
      </trkpt>
      <trkpt lat="47.14977" lon="5.93137">
        <ele>402</ele>
        <time>2024-08-05T11:00:34Z</time>
      </trkpt>
      <trkpt lat="47.14976" lon="5.93137">
        <ele>402.2</ele>
        <time>2024-08-05T11:00:35Z</time>
      </trkpt>
      <trkpt lat="47.14975" lon="5.93138">
        <ele>402.4</ele>
        <time>2024-08-05T11:00:36Z</time>
      </trkpt>
      <trkpt lat="47.14974" lon="5.93139">
        <ele>402.4</ele>
        <time>2024-08-05T11:00:37Z</time>
      </trkpt>
      <trkpt lat="47.14973" lon="5.93139">
        <ele>402.8</ele>
        <time>2024-08-05T11:00:38Z</time>
      </trkpt>
      <trkpt lat="47.14972" lon="5.9314">
        <ele>402.8</ele>
        <time>2024-08-05T11:00:39Z</time>
      </trkpt>
      <trkpt lat="47.14971" lon="5.93141">
        <ele>402.8</ele>
        <time>2024-08-05T11:00:40Z</time>
      </trkpt>
      <trkpt lat="47.1497" lon="5.93142">
        <ele>403</ele>
        <time>2024-08-05T11:00:41Z</time>
      </trkpt>
      <trkpt lat="47.14969" lon="5.93143">
        <ele>403</ele>
        <time>2024-08-05T11:00:42Z</time>
      </trkpt>
      <trkpt lat="47.14969" lon="5.93144">
        <ele>403.4</ele>
        <time>2024-08-05T11:00:43Z</time>
      </trkpt>
      <trkpt lat="47.14968" lon="5.93145">
        <ele>403.6</ele>
        <time>2024-08-05T11:00:44Z</time>
      </trkpt>
      <trkpt lat="47.14967" lon="5.93146">
        <ele>403.8</ele>
        <time>2024-08-05T11:00:45Z</time>
      </trkpt>
      <trkpt lat="47.14966" lon="5.93147">
        <ele>403.8</ele>
        <time>2024-08-05T11:00:46Z</time>
      </trkpt>
      <trkpt lat="47.14965" lon="5.93148">
        <ele>404</ele>
        <time>2024-08-05T11:00:47Z</time>
      </trkpt>
      <trkpt lat="47.14964" lon="5.93149">
        <ele>404.2</ele>
        <time>2024-08-05T11:00:48Z</time>
      </trkpt>
      <trkpt lat="47.14963" lon="5.9315">
        <ele>404.4</ele>
        <time>2024-08-05T11:00:49Z</time>
      </trkpt>
      <trkpt lat="47.14962" lon="5.93151">
        <ele>404.6</ele>
        <time>2024-08-05T11:00:50Z</time>
      </trkpt>
      <trkpt lat="47.14961" lon="5.93152">
        <ele>404.6</ele>
        <time>2024-08-05T11:00:51Z</time>
      </trkpt>
      <trkpt lat="47.1496" lon="5.93152">
        <ele>404.8</ele>
        <time>2024-08-05T11:00:52Z</time>
      </trkpt>
      <trkpt lat="47.14959" lon="5.93153">
        <ele>404.8</ele>
        <time>2024-08-05T11:00:53Z</time>
      </trkpt>
      <trkpt lat="47.14959" lon="5.93154">
        <ele>405</ele>
        <time>2024-08-05T11:00:54Z</time>
      </trkpt>
      <trkpt lat="47.14958" lon="5.93155">
        <ele>405.2</ele>
        <time>2024-08-05T11:00:55Z</time>
      </trkpt>
      <trkpt lat="47.14957" lon="5.93156">
        <ele>405.2</ele>
        <time>2024-08-05T11:00:56Z</time>
      </trkpt>
      <trkpt lat="47.14955" lon="5.93158">
        <ele>405.4</ele>
        <time>2024-08-05T11:00:57Z</time>
      </trkpt>
      <trkpt lat="47.14954" lon="5.93159">
        <ele>405.6</ele>
        <time>2024-08-05T11:00:58Z</time>
      </trkpt>
      <trkpt lat="47.14954" lon="5.93161">
        <ele>405.8</ele>
        <time>2024-08-05T11:00:59Z</time>
      </trkpt>
      <trkpt lat="47.14953" lon="5.93163">
        <ele>406.2</ele>
        <time>2024-08-05T11:01:00Z</time>
      </trkpt>
      <trkpt lat="47.14952" lon="5.93164">
        <ele>406.2</ele>
        <time>2024-08-05T11:01:01Z</time>
      </trkpt>
      <trkpt lat="47.14951" lon="5.93165">
        <ele>406.2</ele>
        <time>2024-08-05T11:01:02Z</time>
      </trkpt>
      <trkpt lat="47.1495" lon="5.93166">
        <ele>406.4</ele>
        <time>2024-08-05T11:01:03Z</time>
      </trkpt>
      <trkpt lat="47.14949" lon="5.93168">
        <ele>406.6</ele>
        <time>2024-08-05T11:01:04Z</time>
      </trkpt>
      <trkpt lat="47.14948" lon="5.93169">
        <ele>406.8</ele>
        <time>2024-08-05T11:01:05Z</time>
      </trkpt>
      <trkpt lat="47.14947" lon="5.9317">
        <ele>406.8</ele>
        <time>2024-08-05T11:01:06Z</time>
      </trkpt>
      <trkpt lat="47.14947" lon="5.93172">
        <ele>407</ele>
        <time>2024-08-05T11:01:07Z</time>
      </trkpt>
      <trkpt lat="47.14946" lon="5.93174">
        <ele>407.2</ele>
        <time>2024-08-05T11:01:08Z</time>
      </trkpt>
      <trkpt lat="47.14945" lon="5.93177">
        <ele>407.2</ele>
        <time>2024-08-05T11:01:09Z</time>
      </trkpt>
      <trkpt lat="47.14944" lon="5.93178">
        <ele>407.4</ele>
        <time>2024-08-05T11:01:10Z</time>
      </trkpt>
      <trkpt lat="47.14943" lon="5.93179">
        <ele>407.6</ele>
        <time>2024-08-05T11:01:11Z</time>
      </trkpt>
      <trkpt lat="47.14942" lon="5.9318">
        <ele>407.6</ele>
        <time>2024-08-05T11:01:12Z</time>
      </trkpt>
      <trkpt lat="47.14941" lon="5.93182">
        <ele>407.8</ele>
        <time>2024-08-05T11:01:13Z</time>
      </trkpt>
      <trkpt lat="47.1494" lon="5.93183">
        <ele>408</ele>
        <time>2024-08-05T11:01:14Z</time>
      </trkpt>
      <trkpt lat="47.14939" lon="5.93184">
        <ele>407.8</ele>
        <time>2024-08-05T11:01:15Z</time>
      </trkpt>
      <trkpt lat="47.14938" lon="5.93185">
        <ele>408.2</ele>
        <time>2024-08-05T11:01:16Z</time>
      </trkpt>
      <trkpt lat="47.14937" lon="5.93186">
        <ele>408.2</ele>
        <time>2024-08-05T11:01:17Z</time>
      </trkpt>
      <trkpt lat="47.14936" lon="5.93186">
        <ele>408.4</ele>
        <time>2024-08-05T11:01:18Z</time>
      </trkpt>
      <trkpt lat="47.14935" lon="5.93187">
        <ele>408.4</ele>
        <time>2024-08-05T11:01:19Z</time>
      </trkpt>
      <trkpt lat="47.14934" lon="5.93188">
        <ele>408.4</ele>
        <time>2024-08-05T11:01:20Z</time>
      </trkpt>
      <trkpt lat="47.14933" lon="5.93189">
        <ele>408.6</ele>
        <time>2024-08-05T11:01:21Z</time>
      </trkpt>
      <trkpt lat="47.14932" lon="5.93189">
        <ele>408.8</ele>
        <time>2024-08-05T11:01:22Z</time>
      </trkpt>
      <trkpt lat="47.14931" lon="5.93189">
        <ele>408.8</ele>
        <time>2024-08-05T11:01:23Z</time>
      </trkpt>
      <trkpt lat="47.1493" lon="5.9319">
        <ele>409.2</ele>
        <time>2024-08-05T11:01:24Z</time>
      </trkpt>
      <trkpt lat="47.14928" lon="5.93189">
        <ele>409.2</ele>
        <time>2024-08-05T11:01:25Z</time>
      </trkpt>
      <trkpt lat="47.14927" lon="5.93189">
        <ele>409.6</ele>
        <time>2024-08-05T11:01:26Z</time>
      </trkpt>
      <trkpt lat="47.14925" lon="5.93189">
        <ele>409.8</ele>
        <time>2024-08-05T11:01:27Z</time>
      </trkpt>
      <trkpt lat="47.14924" lon="5.93188">
        <ele>410</ele>
        <time>2024-08-05T11:01:28Z</time>
      </trkpt>
      <trkpt lat="47.14923" lon="5.93187">
        <ele>410</ele>
        <time>2024-08-05T11:01:29Z</time>
      </trkpt>
      <trkpt lat="47.14922" lon="5.93186">
        <ele>410.4</ele>
        <time>2024-08-05T11:01:30Z</time>
      </trkpt>
      <trkpt lat="47.14921" lon="5.93187">
        <ele>410.4</ele>
        <time>2024-08-05T11:01:31Z</time>
      </trkpt>
      <trkpt lat="47.14921" lon="5.93187">
        <ele>410.6</ele>
        <time>2024-08-05T11:01:32Z</time>
      </trkpt>
      <trkpt lat="47.1492" lon="5.93188">
        <ele>410.8</ele>
        <time>2024-08-05T11:01:33Z</time>
      </trkpt>
      <trkpt lat="47.1492" lon="5.93188">
        <ele>411.2</ele>
        <time>2024-08-05T11:01:34Z</time>
      </trkpt>
      <trkpt lat="47.14919" lon="5.93188">
        <ele>411.2</ele>
        <time>2024-08-05T11:01:35Z</time>
      </trkpt>
      <trkpt lat="47.14919" lon="5.93188">
        <ele>411.4</ele>
        <time>2024-08-05T11:01:36Z</time>
      </trkpt>
      <trkpt lat="47.14918" lon="5.93189">
        <ele>411.6</ele>
        <time>2024-08-05T11:01:37Z</time>
      </trkpt>
      <trkpt lat="47.14916" lon="5.93188">
        <ele>412</ele>
        <time>2024-08-05T11:01:38Z</time>
      </trkpt>
      <trkpt lat="47.14915" lon="5.93187">
        <ele>412.2</ele>
        <time>2024-08-05T11:01:39Z</time>
      </trkpt>
      <trkpt lat="47.14914" lon="5.93187">
        <ele>412.6</ele>
        <time>2024-08-05T11:01:40Z</time>
      </trkpt>
      <trkpt lat="47.14913" lon="5.93187">
        <ele>412.4</ele>
        <time>2024-08-05T11:01:41Z</time>
      </trkpt>
      <trkpt lat="47.14912" lon="5.93186">
        <ele>412.8</ele>
        <time>2024-08-05T11:01:42Z</time>
      </trkpt>
      <trkpt lat="47.14911" lon="5.93186">
        <ele>413</ele>
        <time>2024-08-05T11:01:43Z</time>
      </trkpt>
      <trkpt lat="47.1491" lon="5.93186">
        <ele>413.2</ele>
        <time>2024-08-05T11:01:44Z</time>
      </trkpt>
      <trkpt lat="47.14908" lon="5.93185">
        <ele>413.2</ele>
        <time>2024-08-05T11:01:45Z</time>
      </trkpt>
      <trkpt lat="47.14907" lon="5.93183">
        <ele>413.4</ele>
        <time>2024-08-05T11:01:46Z</time>
      </trkpt>
      <trkpt lat="47.14905" lon="5.93182">
        <ele>413.6</ele>
        <time>2024-08-05T11:01:47Z</time>
      </trkpt>
      <trkpt lat="47.14905" lon="5.93182">
        <ele>413.8</ele>
        <time>2024-08-05T11:01:48Z</time>
      </trkpt>
      <trkpt lat="47.14903" lon="5.9318">
        <ele>414.2</ele>
        <time>2024-08-05T11:01:49Z</time>
      </trkpt>
      <trkpt lat="47.14902" lon="5.9318">
        <ele>414.6</ele>
        <time>2024-08-05T11:01:50Z</time>
      </trkpt>
      <trkpt lat="47.14901" lon="5.93179">
        <ele>414.8</ele>
        <time>2024-08-05T11:01:51Z</time>
      </trkpt>
      <trkpt lat="47.149" lon="5.93179">
        <ele>415</ele>
        <time>2024-08-05T11:01:52Z</time>
      </trkpt>
      <trkpt lat="47.14899" lon="5.9318">
        <ele>415.2</ele>
        <time>2024-08-05T11:01:53Z</time>
      </trkpt>
      <trkpt lat="47.14899" lon="5.93181">
        <ele>415.4</ele>
        <time>2024-08-05T11:01:54Z</time>
      </trkpt>
      <trkpt lat="47.14898" lon="5.93182">
        <ele>415.6</ele>
        <time>2024-08-05T11:01:55Z</time>
      </trkpt>
      <trkpt lat="47.14897" lon="5.93183">
        <ele>415.8</ele>
        <time>2024-08-05T11:01:56Z</time>
      </trkpt>
      <trkpt lat="47.14896" lon="5.93184">
        <ele>416</ele>
        <time>2024-08-05T11:01:57Z</time>
      </trkpt>
      <trkpt lat="47.14895" lon="5.93184">
        <ele>416.2</ele>
        <time>2024-08-05T11:01:58Z</time>
      </trkpt>
      <trkpt lat="47.14894" lon="5.93186">
        <ele>416.6</ele>
        <time>2024-08-05T11:01:59Z</time>
      </trkpt>
      <trkpt lat="47.14894" lon="5.93186">
        <ele>416.6</ele>
        <time>2024-08-05T11:02:00Z</time>
      </trkpt>
      <trkpt lat="47.14892" lon="5.93186">
        <ele>417</ele>
        <time>2024-08-05T11:02:01Z</time>
      </trkpt>
      <trkpt lat="47.14892" lon="5.93187">
        <ele>417.2</ele>
        <time>2024-08-05T11:02:02Z</time>
      </trkpt>
      <trkpt lat="47.14891" lon="5.93188">
        <ele>417.4</ele>
        <time>2024-08-05T11:02:03Z</time>
      </trkpt>
      <trkpt lat="47.14891" lon="5.93189">
        <ele>417.8</ele>
        <time>2024-08-05T11:02:04Z</time>
      </trkpt>
      <trkpt lat="47.1489" lon="5.9319">
        <ele>418</ele>
        <time>2024-08-05T11:02:05Z</time>
      </trkpt>
      <trkpt lat="47.14889" lon="5.9319">
        <ele>418.2</ele>
        <time>2024-08-05T11:02:06Z</time>
      </trkpt>
      <trkpt lat="47.14888" lon="5.93191">
        <ele>418.2</ele>
        <time>2024-08-05T11:02:07Z</time>
      </trkpt>
      <trkpt lat="47.14886" lon="5.93189">
        <ele>418.2</ele>
        <time>2024-08-05T11:02:08Z</time>
      </trkpt>
      <trkpt lat="47.14883" lon="5.93187">
        <ele>418.8</ele>
        <time>2024-08-05T11:02:09Z</time>
      </trkpt>
      <trkpt lat="47.14881" lon="5.93187">
        <ele>419</ele>
        <time>2024-08-05T11:02:10Z</time>
      </trkpt>
      <trkpt lat="47.1488" lon="5.93187">
        <ele>419.2</ele>
        <time>2024-08-05T11:02:11Z</time>
      </trkpt>
      <trkpt lat="47.1488" lon="5.93187">
        <ele>419.2</ele>
        <time>2024-08-05T11:02:12Z</time>
      </trkpt>
      <trkpt lat="47.14879" lon="5.93186">
        <ele>419.8</ele>
        <time>2024-08-05T11:02:13Z</time>
      </trkpt>
      <trkpt lat="47.14878" lon="5.93186">
        <ele>420</ele>
        <time>2024-08-05T11:02:14Z</time>
      </trkpt>
      <trkpt lat="47.14876" lon="5.93184">
        <ele>420.2</ele>
        <time>2024-08-05T11:02:15Z</time>
      </trkpt>
      <trkpt lat="47.14875" lon="5.93183">
        <ele>420.4</ele>
        <time>2024-08-05T11:02:16Z</time>
      </trkpt>
      <trkpt lat="47.14873" lon="5.93182">
        <ele>420.8</ele>
        <time>2024-08-05T11:02:17Z</time>
      </trkpt>
      <trkpt lat="47.14872" lon="5.93182">
        <ele>420.8</ele>
        <time>2024-08-05T11:02:18Z</time>
      </trkpt>
      <trkpt lat="47.14872" lon="5.93182">
        <ele>421</ele>
        <time>2024-08-05T11:02:19Z</time>
      </trkpt>
      <trkpt lat="47.14871" lon="5.93182">
        <ele>421.2</ele>
        <time>2024-08-05T11:02:20Z</time>
      </trkpt>
      <trkpt lat="47.14872" lon="5.93183">
        <ele>421.2</ele>
        <time>2024-08-05T11:02:21Z</time>
      </trkpt>
      <trkpt lat="47.14871" lon="5.93183">
        <ele>421.4</ele>
        <time>2024-08-05T11:02:22Z</time>
      </trkpt>
      <trkpt lat="47.14871" lon="5.93183">
        <ele>421.8</ele>
        <time>2024-08-05T11:02:23Z</time>
      </trkpt>
      <trkpt lat="47.1487" lon="5.93183">
        <ele>422</ele>
        <time>2024-08-05T11:02:24Z</time>
      </trkpt>
      <trkpt lat="47.14869" lon="5.93181">
        <ele>422</ele>
        <time>2024-08-05T11:02:25Z</time>
      </trkpt>
      <trkpt lat="47.14868" lon="5.9318">
        <ele>422.2</ele>
        <time>2024-08-05T11:02:26Z</time>
      </trkpt>
      <trkpt lat="47.14867" lon="5.93179">
        <ele>422.4</ele>
        <time>2024-08-05T11:02:27Z</time>
      </trkpt>
      <trkpt lat="47.14866" lon="5.93177">
        <ele>422.6</ele>
        <time>2024-08-05T11:02:28Z</time>
      </trkpt>
      <trkpt lat="47.14865" lon="5.93176">
        <ele>422.6</ele>
        <time>2024-08-05T11:02:29Z</time>
      </trkpt>
      <trkpt lat="47.14864" lon="5.93175">
        <ele>423</ele>
        <time>2024-08-05T11:02:30Z</time>
      </trkpt>
      <trkpt lat="47.14863" lon="5.93174">
        <ele>423</ele>
        <time>2024-08-05T11:02:31Z</time>
      </trkpt>
      <trkpt lat="47.14863" lon="5.93173">
        <ele>423</ele>
        <time>2024-08-05T11:02:32Z</time>
      </trkpt>
      <trkpt lat="47.14862" lon="5.93173">
        <ele>423.2</ele>
        <time>2024-08-05T11:02:33Z</time>
      </trkpt>
      <trkpt lat="47.14861" lon="5.93172">
        <ele>423.2</ele>
        <time>2024-08-05T11:02:34Z</time>
      </trkpt>
      <trkpt lat="47.14861" lon="5.93172">
        <ele>423.4</ele>
        <time>2024-08-05T11:02:35Z</time>
      </trkpt>
      <trkpt lat="47.1486" lon="5.93172">
        <ele>423.6</ele>
        <time>2024-08-05T11:02:36Z</time>
      </trkpt>
      <trkpt lat="47.14858" lon="5.93172">
        <ele>423.8</ele>
        <time>2024-08-05T11:02:37Z</time>
      </trkpt>
      <trkpt lat="47.14858" lon="5.93172">
        <ele>424</ele>
        <time>2024-08-05T11:02:38Z</time>
      </trkpt>
      <trkpt lat="47.14857" lon="5.93173">
        <ele>424</ele>
        <time>2024-08-05T11:02:39Z</time>
      </trkpt>
      <trkpt lat="47.14856" lon="5.93173">
        <ele>424.2</ele>
        <time>2024-08-05T11:02:40Z</time>
      </trkpt>
      <trkpt lat="47.14855" lon="5.93173">
        <ele>424.6</ele>
        <time>2024-08-05T11:02:41Z</time>
      </trkpt>
      <trkpt lat="47.14854" lon="5.93173">
        <ele>424.6</ele>
        <time>2024-08-05T11:02:42Z</time>
      </trkpt>
      <trkpt lat="47.14853" lon="5.93174">
        <ele>424.8</ele>
        <time>2024-08-05T11:02:43Z</time>
      </trkpt>
      <trkpt lat="47.14852" lon="5.93173">
        <ele>425</ele>
        <time>2024-08-05T11:02:44Z</time>
      </trkpt>
      <trkpt lat="47.14851" lon="5.93173">
        <ele>425.2</ele>
        <time>2024-08-05T11:02:45Z</time>
      </trkpt>
      <trkpt lat="47.1485" lon="5.93173">
        <ele>425.4</ele>
        <time>2024-08-05T11:02:46Z</time>
      </trkpt>
      <trkpt lat="47.14849" lon="5.93172">
        <ele>425.8</ele>
        <time>2024-08-05T11:02:47Z</time>
      </trkpt>
      <trkpt lat="47.14847" lon="5.93172">
        <ele>425.8</ele>
        <time>2024-08-05T11:02:48Z</time>
      </trkpt>
      <trkpt lat="47.14846" lon="5.93172">
        <ele>426</ele>
        <time>2024-08-05T11:02:49Z</time>
      </trkpt>
      <trkpt lat="47.14845" lon="5.93171">
        <ele>426.2</ele>
        <time>2024-08-05T11:02:50Z</time>
      </trkpt>
      <trkpt lat="47.14845" lon="5.93172">
        <ele>426.2</ele>
        <time>2024-08-05T11:02:51Z</time>
      </trkpt>
      <trkpt lat="47.14844" lon="5.93173">
        <ele>426.8</ele>
        <time>2024-08-05T11:02:52Z</time>
      </trkpt>
      <trkpt lat="47.14844" lon="5.93173">
        <ele>426.8</ele>
        <time>2024-08-05T11:02:53Z</time>
      </trkpt>
      <trkpt lat="47.14843" lon="5.93173">
        <ele>427</ele>
        <time>2024-08-05T11:02:54Z</time>
      </trkpt>
      <trkpt lat="47.14842" lon="5.93173">
        <ele>427.2</ele>
        <time>2024-08-05T11:02:55Z</time>
      </trkpt>
      <trkpt lat="47.14841" lon="5.93172">
        <ele>427.4</ele>
        <time>2024-08-05T11:02:56Z</time>
      </trkpt>
      <trkpt lat="47.14839" lon="5.93171">
        <ele>427.6</ele>
        <time>2024-08-05T11:02:57Z</time>
      </trkpt>
      <trkpt lat="47.14837" lon="5.9317">
        <ele>428</ele>
        <time>2024-08-05T11:02:58Z</time>
      </trkpt>
      <trkpt lat="47.14836" lon="5.93169">
        <ele>428</ele>
        <time>2024-08-05T11:02:59Z</time>
      </trkpt>
      <trkpt lat="47.14835" lon="5.93168">
        <ele>428.2</ele>
        <time>2024-08-05T11:03:00Z</time>
      </trkpt>
      <trkpt lat="47.14835" lon="5.93168">
        <ele>428.6</ele>
        <time>2024-08-05T11:03:01Z</time>
      </trkpt>
      <trkpt lat="47.14834" lon="5.93168">
        <ele>428.8</ele>
        <time>2024-08-05T11:03:02Z</time>
      </trkpt>
      <trkpt lat="47.14833" lon="5.93168">
        <ele>429</ele>
        <time>2024-08-05T11:03:03Z</time>
      </trkpt>
      <trkpt lat="47.14832" lon="5.93168">
        <ele>429.4</ele>
        <time>2024-08-05T11:03:04Z</time>
      </trkpt>
      <trkpt lat="47.14831" lon="5.93168">
        <ele>429.6</ele>
        <time>2024-08-05T11:03:05Z</time>
      </trkpt>
      <trkpt lat="47.1483" lon="5.93168">
        <ele>430</ele>
        <time>2024-08-05T11:03:06Z</time>
      </trkpt>
      <trkpt lat="47.14829" lon="5.93168">
        <ele>430</ele>
        <time>2024-08-05T11:03:07Z</time>
      </trkpt>
      <trkpt lat="47.14828" lon="5.9317">
        <ele>430.2</ele>
        <time>2024-08-05T11:03:08Z</time>
      </trkpt>
      <trkpt lat="47.14828" lon="5.9317">
        <ele>430.4</ele>
        <time>2024-08-05T11:03:09Z</time>
      </trkpt>
      <trkpt lat="47.14827" lon="5.9317">
        <ele>430.4</ele>
        <time>2024-08-05T11:03:10Z</time>
      </trkpt>
      <trkpt lat="47.14827" lon="5.9317">
        <ele>430.4</ele>
        <time>2024-08-05T11:03:11Z</time>
      </trkpt>
      <trkpt lat="47.14826" lon="5.93167">
        <ele>430.4</ele>
        <time>2024-08-05T11:03:12Z</time>
      </trkpt>
      <trkpt lat="47.14826" lon="5.93166">
        <ele>430.4</ele>
        <time>2024-08-05T11:03:13Z</time>
      </trkpt>
      <trkpt lat="47.14825" lon="5.93165">
        <ele>430.8</ele>
        <time>2024-08-05T11:03:14Z</time>
      </trkpt>
      <trkpt lat="47.14824" lon="5.93165">
        <ele>430.8</ele>
        <time>2024-08-05T11:03:15Z</time>
      </trkpt>
      <trkpt lat="47.14824" lon="5.93165">
        <ele>430.8</ele>
        <time>2024-08-05T11:03:16Z</time>
      </trkpt>
      <trkpt lat="47.14823" lon="5.93164">
        <ele>431</ele>
        <time>2024-08-05T11:03:17Z</time>
      </trkpt>
      <trkpt lat="47.14822" lon="5.93163">
        <ele>431.2</ele>
        <time>2024-08-05T11:03:18Z</time>
      </trkpt>
      <trkpt lat="47.14821" lon="5.93162">
        <ele>431.4</ele>
        <time>2024-08-05T11:03:19Z</time>
      </trkpt>
      <trkpt lat="47.14821" lon="5.93162">
        <ele>431.4</ele>
        <time>2024-08-05T11:03:20Z</time>
      </trkpt>
      <trkpt lat="47.14819" lon="5.9316">
        <ele>431.6</ele>
        <time>2024-08-05T11:03:21Z</time>
      </trkpt>
      <trkpt lat="47.14818" lon="5.93159">
        <ele>431.6</ele>
        <time>2024-08-05T11:03:22Z</time>
      </trkpt>
      <trkpt lat="47.14817" lon="5.93158">
        <ele>431.8</ele>
        <time>2024-08-05T11:03:23Z</time>
      </trkpt>
      <trkpt lat="47.14817" lon="5.93158">
        <ele>431.8</ele>
        <time>2024-08-05T11:03:24Z</time>
      </trkpt>
      <trkpt lat="47.14816" lon="5.93158">
        <ele>431.8</ele>
        <time>2024-08-05T11:03:25Z</time>
      </trkpt>
      <trkpt lat="47.14816" lon="5.93158">
        <ele>432.2</ele>
        <time>2024-08-05T11:03:26Z</time>
      </trkpt>
      <trkpt lat="47.14815" lon="5.93157">
        <ele>432.2</ele>
        <time>2024-08-05T11:03:27Z</time>
      </trkpt>
      <trkpt lat="47.14814" lon="5.93156">
        <ele>432.2</ele>
        <time>2024-08-05T11:03:28Z</time>
      </trkpt>
      <trkpt lat="47.14814" lon="5.93156">
        <ele>432.6</ele>
        <time>2024-08-05T11:03:29Z</time>
      </trkpt>
      <trkpt lat="47.14813" lon="5.93155">
        <ele>432.8</ele>
        <time>2024-08-05T11:03:30Z</time>
      </trkpt>
      <trkpt lat="47.14813" lon="5.93155">
        <ele>432.8</ele>
        <time>2024-08-05T11:03:31Z</time>
      </trkpt>
      <trkpt lat="47.14812" lon="5.93155">
        <ele>433</ele>
        <time>2024-08-05T11:03:32Z</time>
      </trkpt>
      <trkpt lat="47.14811" lon="5.93154">
        <ele>433.2</ele>
        <time>2024-08-05T11:03:33Z</time>
      </trkpt>
      <trkpt lat="47.14811" lon="5.93154">
        <ele>433.2</ele>
        <time>2024-08-05T11:03:34Z</time>
      </trkpt>
      <trkpt lat="47.1481" lon="5.93154">
        <ele>433.2</ele>
        <time>2024-08-05T11:03:35Z</time>
      </trkpt>
      <trkpt lat="47.1481" lon="5.93155">
        <ele>433.4</ele>
        <time>2024-08-05T11:03:36Z</time>
      </trkpt>
      <trkpt lat="47.1481" lon="5.93155">
        <ele>433.6</ele>
        <time>2024-08-05T11:03:37Z</time>
      </trkpt>
      <trkpt lat="47.14809" lon="5.93156">
        <ele>433.8</ele>
        <time>2024-08-05T11:03:38Z</time>
      </trkpt>
      <trkpt lat="47.14809" lon="5.93156">
        <ele>434</ele>
        <time>2024-08-05T11:03:39Z</time>
      </trkpt>
      <trkpt lat="47.14808" lon="5.93156">
        <ele>434.2</ele>
        <time>2024-08-05T11:03:40Z</time>
      </trkpt>
      <trkpt lat="47.14808" lon="5.93156">
        <ele>434.2</ele>
        <time>2024-08-05T11:03:41Z</time>
      </trkpt>
      <trkpt lat="47.14807" lon="5.93156">
        <ele>434.4</ele>
        <time>2024-08-05T11:03:42Z</time>
      </trkpt>
      <trkpt lat="47.14807" lon="5.93157">
        <ele>434.6</ele>
        <time>2024-08-05T11:03:43Z</time>
      </trkpt>
      <trkpt lat="47.14805" lon="5.93156">
        <ele>434.6</ele>
        <time>2024-08-05T11:03:44Z</time>
      </trkpt>
      <trkpt lat="47.14805" lon="5.93155">
        <ele>434.8</ele>
        <time>2024-08-05T11:03:45Z</time>
      </trkpt>
      <trkpt lat="47.14804" lon="5.93155">
        <ele>434.8</ele>
        <time>2024-08-05T11:03:46Z</time>
      </trkpt>
      <trkpt lat="47.14803" lon="5.93153">
        <ele>435</ele>
        <time>2024-08-05T11:03:47Z</time>
      </trkpt>
      <trkpt lat="47.14802" lon="5.93152">
        <ele>435</ele>
        <time>2024-08-05T11:03:48Z</time>
      </trkpt>
      <trkpt lat="47.14801" lon="5.93153">
        <ele>435.2</ele>
        <time>2024-08-05T11:03:49Z</time>
      </trkpt>
      <trkpt lat="47.148" lon="5.93153">
        <ele>435.6</ele>
        <time>2024-08-05T11:03:50Z</time>
      </trkpt>
      <trkpt lat="47.14799" lon="5.93153">
        <ele>435.6</ele>
        <time>2024-08-05T11:03:51Z</time>
      </trkpt>
      <trkpt lat="47.14798" lon="5.93153">
        <ele>435.8</ele>
        <time>2024-08-05T11:03:52Z</time>
      </trkpt>
      <trkpt lat="47.14798" lon="5.93152">
        <ele>436</ele>
        <time>2024-08-05T11:03:53Z</time>
      </trkpt>
      <trkpt lat="47.14796" lon="5.93151">
        <ele>436.2</ele>
        <time>2024-08-05T11:03:54Z</time>
      </trkpt>
      <trkpt lat="47.14795" lon="5.93151">
        <ele>436.2</ele>
        <time>2024-08-05T11:03:55Z</time>
      </trkpt>
      <trkpt lat="47.14794" lon="5.9315">
        <ele>436.4</ele>
        <time>2024-08-05T11:03:56Z</time>
      </trkpt>
      <trkpt lat="47.14793" lon="5.9315">
        <ele>436.4</ele>
        <time>2024-08-05T11:03:57Z</time>
      </trkpt>
      <trkpt lat="47.14792" lon="5.93149">
        <ele>436.6</ele>
        <time>2024-08-05T11:03:58Z</time>
      </trkpt>
      <trkpt lat="47.14791" lon="5.93149">
        <ele>436.8</ele>
        <time>2024-08-05T11:03:59Z</time>
      </trkpt>
      <trkpt lat="47.14791" lon="5.93148">
        <ele>436.8</ele>
        <time>2024-08-05T11:04:00Z</time>
      </trkpt>
      <trkpt lat="47.1479" lon="5.93148">
        <ele>437</ele>
        <time>2024-08-05T11:04:01Z</time>
      </trkpt>
      <trkpt lat="47.14789" lon="5.93147">
        <ele>437</ele>
        <time>2024-08-05T11:04:02Z</time>
      </trkpt>
      <trkpt lat="47.14789" lon="5.93147">
        <ele>437.2</ele>
        <time>2024-08-05T11:04:03Z</time>
      </trkpt>
      <trkpt lat="47.14788" lon="5.93148">
        <ele>437.2</ele>
        <time>2024-08-05T11:04:04Z</time>
      </trkpt>
      <trkpt lat="47.14787" lon="5.93148">
        <ele>437.4</ele>
        <time>2024-08-05T11:04:05Z</time>
      </trkpt>
      <trkpt lat="47.14787" lon="5.93147">
        <ele>437.8</ele>
        <time>2024-08-05T11:04:06Z</time>
      </trkpt>
      <trkpt lat="47.14786" lon="5.93147">
        <ele>437.8</ele>
        <time>2024-08-05T11:04:07Z</time>
      </trkpt>
      <trkpt lat="47.14786" lon="5.93147">
        <ele>438</ele>
        <time>2024-08-05T11:04:08Z</time>
      </trkpt>
      <trkpt lat="47.14786" lon="5.93148">
        <ele>438.2</ele>
        <time>2024-08-05T11:04:09Z</time>
      </trkpt>
      <trkpt lat="47.14786" lon="5.93149">
        <ele>438.4</ele>
        <time>2024-08-05T11:04:10Z</time>
      </trkpt>
      <trkpt lat="47.14785" lon="5.9315">
        <ele>438.4</ele>
        <time>2024-08-05T11:04:11Z</time>
      </trkpt>
      <trkpt lat="47.14785" lon="5.93151">
        <ele>438.8</ele>
        <time>2024-08-05T11:04:12Z</time>
      </trkpt>
      <trkpt lat="47.14785" lon="5.93151">
        <ele>439</ele>
        <time>2024-08-05T11:04:13Z</time>
      </trkpt>
      <trkpt lat="47.14784" lon="5.93152">
        <ele>439.2</ele>
        <time>2024-08-05T11:04:14Z</time>
      </trkpt>
      <trkpt lat="47.14784" lon="5.93153">
        <ele>439.2</ele>
        <time>2024-08-05T11:04:15Z</time>
      </trkpt>
      <trkpt lat="47.14783" lon="5.93154">
        <ele>439.4</ele>
        <time>2024-08-05T11:04:16Z</time>
      </trkpt>
      <trkpt lat="47.14783" lon="5.93154">
        <ele>439.6</ele>
        <time>2024-08-05T11:04:17Z</time>
      </trkpt>
      <trkpt lat="47.14783" lon="5.93154">
        <ele>439.8</ele>
        <time>2024-08-05T11:04:18Z</time>
      </trkpt>
      <trkpt lat="47.14782" lon="5.93155">
        <ele>439.8</ele>
        <time>2024-08-05T11:04:19Z</time>
      </trkpt>
      <trkpt lat="47.14782" lon="5.93155">
        <ele>439.6</ele>
        <time>2024-08-05T11:04:20Z</time>
      </trkpt>
      <trkpt lat="47.14781" lon="5.93155">
        <ele>439.8</ele>
        <time>2024-08-05T11:04:21Z</time>
      </trkpt>
      <trkpt lat="47.1478" lon="5.93155">
        <ele>439.8</ele>
        <time>2024-08-05T11:04:22Z</time>
      </trkpt>
      <trkpt lat="47.1478" lon="5.93156">
        <ele>440</ele>
        <time>2024-08-05T11:04:23Z</time>
      </trkpt>
      <trkpt lat="47.14779" lon="5.93156">
        <ele>440.2</ele>
        <time>2024-08-05T11:04:24Z</time>
      </trkpt>
      <trkpt lat="47.14779" lon="5.93156">
        <ele>440.4</ele>
        <time>2024-08-05T11:04:25Z</time>
      </trkpt>
      <trkpt lat="47.14778" lon="5.93155">
        <ele>440.4</ele>
        <time>2024-08-05T11:04:26Z</time>
      </trkpt>
      <trkpt lat="47.14778" lon="5.93156">
        <ele>440.6</ele>
        <time>2024-08-05T11:04:27Z</time>
      </trkpt>
      <trkpt lat="47.14778" lon="5.93156">
        <ele>440.8</ele>
        <time>2024-08-05T11:04:28Z</time>
      </trkpt>
      <trkpt lat="47.14778" lon="5.93156">
        <ele>441</ele>
        <time>2024-08-05T11:04:29Z</time>
      </trkpt>
      <trkpt lat="47.14778" lon="5.93156">
        <ele>441</ele>
        <time>2024-08-05T11:04:30Z</time>
      </trkpt>
      <trkpt lat="47.14778" lon="5.93156">
        <ele>441.2</ele>
        <time>2024-08-05T11:04:31Z</time>
      </trkpt>
      <trkpt lat="47.14778" lon="5.93156">
        <ele>441.4</ele>
        <time>2024-08-05T11:04:32Z</time>
      </trkpt>
      <trkpt lat="47.14777" lon="5.93156">
        <ele>441.6</ele>
        <time>2024-08-05T11:04:33Z</time>
      </trkpt>
      <trkpt lat="47.14777" lon="5.93156">
        <ele>441.6</ele>
        <time>2024-08-05T11:04:34Z</time>
      </trkpt>
      <trkpt lat="47.14776" lon="5.93157">
        <ele>441.8</ele>
        <time>2024-08-05T11:04:35Z</time>
      </trkpt>
      <trkpt lat="47.14776" lon="5.93157">
        <ele>442</ele>
        <time>2024-08-05T11:04:36Z</time>
      </trkpt>
      <trkpt lat="47.14775" lon="5.93157">
        <ele>442</ele>
        <time>2024-08-05T11:04:37Z</time>
      </trkpt>
      <trkpt lat="47.14775" lon="5.93158">
        <ele>442.4</ele>
        <time>2024-08-05T11:04:38Z</time>
      </trkpt>
      <trkpt lat="47.14774" lon="5.93158">
        <ele>442.4</ele>
        <time>2024-08-05T11:04:39Z</time>
      </trkpt>
      <trkpt lat="47.14773" lon="5.93158">
        <ele>442.6</ele>
        <time>2024-08-05T11:04:40Z</time>
      </trkpt>
      <trkpt lat="47.14773" lon="5.93159">
        <ele>442.6</ele>
        <time>2024-08-05T11:04:41Z</time>
      </trkpt>
      <trkpt lat="47.14772" lon="5.93159">
        <ele>442.8</ele>
        <time>2024-08-05T11:04:42Z</time>
      </trkpt>
      <trkpt lat="47.14772" lon="5.9316">
        <ele>443</ele>
        <time>2024-08-05T11:04:43Z</time>
      </trkpt>
      <trkpt lat="47.14771" lon="5.9316">
        <ele>443</ele>
        <time>2024-08-05T11:04:44Z</time>
      </trkpt>
      <trkpt lat="47.14771" lon="5.9316">
        <ele>443.2</ele>
        <time>2024-08-05T11:04:45Z</time>
      </trkpt>
      <trkpt lat="47.1477" lon="5.9316">
        <ele>443.4</ele>
        <time>2024-08-05T11:04:46Z</time>
      </trkpt>
      <trkpt lat="47.1477" lon="5.93161">
        <ele>443.8</ele>
        <time>2024-08-05T11:04:47Z</time>
      </trkpt>
      <trkpt lat="47.1477" lon="5.93161">
        <ele>443.8</ele>
        <time>2024-08-05T11:04:48Z</time>
      </trkpt>
      <trkpt lat="47.1477" lon="5.93161">
        <ele>444</ele>
        <time>2024-08-05T11:04:49Z</time>
      </trkpt>
      <trkpt lat="47.1477" lon="5.93161">
        <ele>444.2</ele>
        <time>2024-08-05T11:04:50Z</time>
      </trkpt>
      <trkpt lat="47.14769" lon="5.93162">
        <ele>444.4</ele>
        <time>2024-08-05T11:04:51Z</time>
      </trkpt>
      <trkpt lat="47.14769" lon="5.93161">
        <ele>444.4</ele>
        <time>2024-08-05T11:04:52Z</time>
      </trkpt>
      <trkpt lat="47.14768" lon="5.93161">
        <ele>444.8</ele>
        <time>2024-08-05T11:04:53Z</time>
      </trkpt>
      <trkpt lat="47.14768" lon="5.93161">
        <ele>445</ele>
        <time>2024-08-05T11:04:54Z</time>
      </trkpt>
      <trkpt lat="47.14767" lon="5.93161">
        <ele>445</ele>
        <time>2024-08-05T11:04:55Z</time>
      </trkpt>
      <trkpt lat="47.14766" lon="5.93161">
        <ele>445.2</ele>
        <time>2024-08-05T11:04:56Z</time>
      </trkpt>
      <trkpt lat="47.14765" lon="5.9316">
        <ele>445.4</ele>
        <time>2024-08-05T11:04:57Z</time>
      </trkpt>
      <trkpt lat="47.14765" lon="5.9316">
        <ele>445.6</ele>
        <time>2024-08-05T11:04:58Z</time>
      </trkpt>
      <trkpt lat="47.14764" lon="5.93161">
        <ele>445.8</ele>
        <time>2024-08-05T11:04:59Z</time>
      </trkpt>
      <trkpt lat="47.14764" lon="5.93162">
        <ele>445.8</ele>
        <time>2024-08-05T11:05:00Z</time>
      </trkpt>
      <trkpt lat="47.14763" lon="5.93162">
        <ele>446.2</ele>
        <time>2024-08-05T11:05:01Z</time>
      </trkpt>
      <trkpt lat="47.14762" lon="5.93163">
        <ele>446.2</ele>
        <time>2024-08-05T11:05:02Z</time>
      </trkpt>
      <trkpt lat="47.14762" lon="5.93164">
        <ele>446.2</ele>
        <time>2024-08-05T11:05:03Z</time>
      </trkpt>
      <trkpt lat="47.14761" lon="5.93165">
        <ele>446.2</ele>
        <time>2024-08-05T11:05:04Z</time>
      </trkpt>
      <trkpt lat="47.1476" lon="5.93165">
        <ele>446.4</ele>
        <time>2024-08-05T11:05:05Z</time>
      </trkpt>
      <trkpt lat="47.14759" lon="5.93165">
        <ele>446.8</ele>
        <time>2024-08-05T11:05:06Z</time>
      </trkpt>
      <trkpt lat="47.14758" lon="5.93166">
        <ele>446.8</ele>
        <time>2024-08-05T11:05:07Z</time>
      </trkpt>
      <trkpt lat="47.14757" lon="5.93166">
        <ele>447</ele>
        <time>2024-08-05T11:05:08Z</time>
      </trkpt>
      <trkpt lat="47.14757" lon="5.93167">
        <ele>447.4</ele>
        <time>2024-08-05T11:05:09Z</time>
      </trkpt>
      <trkpt lat="47.14756" lon="5.93168">
        <ele>447.4</ele>
        <time>2024-08-05T11:05:10Z</time>
      </trkpt>
      <trkpt lat="47.14756" lon="5.93168">
        <ele>447.6</ele>
        <time>2024-08-05T11:05:11Z</time>
      </trkpt>
      <trkpt lat="47.14756" lon="5.93169">
        <ele>447.8</ele>
        <time>2024-08-05T11:05:12Z</time>
      </trkpt>
      <trkpt lat="47.14756" lon="5.93169">
        <ele>447.8</ele>
        <time>2024-08-05T11:05:13Z</time>
      </trkpt>
      <trkpt lat="47.14755" lon="5.93169">
        <ele>448</ele>
        <time>2024-08-05T11:05:14Z</time>
      </trkpt>
      <trkpt lat="47.14755" lon="5.9317">
        <ele>448</ele>
        <time>2024-08-05T11:05:15Z</time>
      </trkpt>
      <trkpt lat="47.14754" lon="5.9317">
        <ele>448.2</ele>
        <time>2024-08-05T11:05:16Z</time>
      </trkpt>
      <trkpt lat="47.14755" lon="5.9317">
        <ele>448.4</ele>
        <time>2024-08-05T11:05:17Z</time>
      </trkpt>
      <trkpt lat="47.14755" lon="5.93171">
        <ele>448.4</ele>
        <time>2024-08-05T11:05:18Z</time>
      </trkpt>
      <trkpt lat="47.14755" lon="5.93171">
        <ele>448.4</ele>
        <time>2024-08-05T11:05:19Z</time>
      </trkpt>
      <trkpt lat="47.14755" lon="5.93172">
        <ele>448.4</ele>
        <time>2024-08-05T11:05:20Z</time>
      </trkpt>
      <trkpt lat="47.14755" lon="5.93173">
        <ele>448.6</ele>
        <time>2024-08-05T11:05:21Z</time>
      </trkpt>
      <trkpt lat="47.14756" lon="5.93174">
        <ele>448.6</ele>
        <time>2024-08-05T11:05:22Z</time>
      </trkpt>
      <trkpt lat="47.14756" lon="5.93176">
        <ele>448.8</ele>
        <time>2024-08-05T11:05:23Z</time>
      </trkpt>
      <trkpt lat="47.14757" lon="5.93177">
        <ele>448.6</ele>
        <time>2024-08-05T11:05:24Z</time>
      </trkpt>
      <trkpt lat="47.14758" lon="5.93179">
        <ele>448.6</ele>
        <time>2024-08-05T11:05:25Z</time>
      </trkpt>
      <trkpt lat="47.14759" lon="5.93182">
        <ele>448.6</ele>
        <time>2024-08-05T11:05:26Z</time>
      </trkpt>
      <trkpt lat="47.1476" lon="5.93184">
        <ele>448.8</ele>
        <time>2024-08-05T11:05:27Z</time>
      </trkpt>
      <trkpt lat="47.14762" lon="5.93187">
        <ele>448.6</ele>
        <time>2024-08-05T11:05:28Z</time>
      </trkpt>
      <trkpt lat="47.14764" lon="5.93191">
        <ele>448.8</ele>
        <time>2024-08-05T11:05:29Z</time>
      </trkpt>
      <trkpt lat="47.14767" lon="5.93197">
        <ele>448.8</ele>
        <time>2024-08-05T11:05:30Z</time>
      </trkpt>
      <trkpt lat="47.1477" lon="5.93202">
        <ele>448.6</ele>
        <time>2024-08-05T11:05:31Z</time>
      </trkpt>
      <trkpt lat="47.14774" lon="5.93208">
        <ele>448.8</ele>
        <time>2024-08-05T11:05:32Z</time>
      </trkpt>
      <trkpt lat="47.14777" lon="5.93213">
        <ele>448.6</ele>
        <time>2024-08-05T11:05:33Z</time>
      </trkpt>
      <trkpt lat="47.14781" lon="5.93219">
        <ele>448.6</ele>
        <time>2024-08-05T11:05:34Z</time>
      </trkpt>
      <trkpt lat="47.14785" lon="5.93223">
        <ele>448.4</ele>
        <time>2024-08-05T11:05:35Z</time>
      </trkpt>
      <trkpt lat="47.14788" lon="5.93228">
        <ele>448.2</ele>
        <time>2024-08-05T11:05:36Z</time>
      </trkpt>
      <trkpt lat="47.14792" lon="5.93232">
        <ele>448</ele>
        <time>2024-08-05T11:05:37Z</time>
      </trkpt>
      <trkpt lat="47.14796" lon="5.93235">
        <ele>447.6</ele>
        <time>2024-08-05T11:05:38Z</time>
      </trkpt>
      <trkpt lat="47.148" lon="5.9324">
        <ele>447</ele>
        <time>2024-08-05T11:05:39Z</time>
      </trkpt>
      <trkpt lat="47.14804" lon="5.93244">
        <ele>446.6</ele>
        <time>2024-08-05T11:05:40Z</time>
      </trkpt>
      <trkpt lat="47.14807" lon="5.93248">
        <ele>446.4</ele>
        <time>2024-08-05T11:05:41Z</time>
      </trkpt>
      <trkpt lat="47.14811" lon="5.93252">
        <ele>446.2</ele>
        <time>2024-08-05T11:05:42Z</time>
      </trkpt>
      <trkpt lat="47.14814" lon="5.93256">
        <ele>446</ele>
        <time>2024-08-05T11:05:43Z</time>
      </trkpt>
      <trkpt lat="47.14817" lon="5.9326">
        <ele>445.6</ele>
        <time>2024-08-05T11:05:44Z</time>
      </trkpt>
      <trkpt lat="47.14821" lon="5.93263">
        <ele>445.6</ele>
        <time>2024-08-05T11:05:45Z</time>
      </trkpt>
      <trkpt lat="47.14825" lon="5.93266">
        <ele>445.6</ele>
        <time>2024-08-05T11:05:46Z</time>
      </trkpt>
      <trkpt lat="47.14828" lon="5.93269">
        <ele>445.2</ele>
        <time>2024-08-05T11:05:47Z</time>
      </trkpt>
      <trkpt lat="47.14832" lon="5.93272">
        <ele>445</ele>
        <time>2024-08-05T11:05:48Z</time>
      </trkpt>
      <trkpt lat="47.14835" lon="5.93276">
        <ele>444.8</ele>
        <time>2024-08-05T11:05:49Z</time>
      </trkpt>
      <trkpt lat="47.14838" lon="5.9328">
        <ele>444.8</ele>
        <time>2024-08-05T11:05:50Z</time>
      </trkpt>
      <trkpt lat="47.1484" lon="5.93284">
        <ele>444.6</ele>
        <time>2024-08-05T11:05:51Z</time>
      </trkpt>
      <trkpt lat="47.14843" lon="5.93287">
        <ele>444.4</ele>
        <time>2024-08-05T11:05:52Z</time>
      </trkpt>
      <trkpt lat="47.14845" lon="5.93291">
        <ele>444.4</ele>
        <time>2024-08-05T11:05:53Z</time>
      </trkpt>
      <trkpt lat="47.14848" lon="5.93293">
        <ele>444.2</ele>
        <time>2024-08-05T11:05:54Z</time>
      </trkpt>
      <trkpt lat="47.1485" lon="5.93296">
        <ele>444.2</ele>
        <time>2024-08-05T11:05:55Z</time>
      </trkpt>
      <trkpt lat="47.14853" lon="5.93298">
        <ele>444</ele>
        <time>2024-08-05T11:05:56Z</time>
      </trkpt>
      <trkpt lat="47.14855" lon="5.933">
        <ele>443.6</ele>
        <time>2024-08-05T11:05:57Z</time>
      </trkpt>
      <trkpt lat="47.14857" lon="5.933">
        <ele>443.6</ele>
        <time>2024-08-05T11:05:58Z</time>
      </trkpt>
      <trkpt lat="47.14859" lon="5.93301">
        <ele>443.4</ele>
        <time>2024-08-05T11:05:59Z</time>
      </trkpt>
      <trkpt lat="47.1486" lon="5.93301">
        <ele>443.4</ele>
        <time>2024-08-05T11:06:00Z</time>
      </trkpt>
      <trkpt lat="47.14861" lon="5.93301">
        <ele>443.4</ele>
        <time>2024-08-05T11:06:01Z</time>
      </trkpt>
      <trkpt lat="47.14863" lon="5.933">
        <ele>443.4</ele>
        <time>2024-08-05T11:06:02Z</time>
      </trkpt>
      <trkpt lat="47.14864" lon="5.933">
        <ele>443.4</ele>
        <time>2024-08-05T11:06:03Z</time>
      </trkpt>
      <trkpt lat="47.14865" lon="5.93299">
        <ele>443.6</ele>
        <time>2024-08-05T11:06:04Z</time>
      </trkpt>
      <trkpt lat="47.14866" lon="5.93299">
        <ele>443.4</ele>
        <time>2024-08-05T11:06:05Z</time>
      </trkpt>
      <trkpt lat="47.14867" lon="5.93298">
        <ele>443.6</ele>
        <time>2024-08-05T11:06:06Z</time>
      </trkpt>
      <trkpt lat="47.14868" lon="5.93298">
        <ele>443.6</ele>
        <time>2024-08-05T11:06:07Z</time>
      </trkpt>
      <trkpt lat="47.1487" lon="5.93298">
        <ele>443.6</ele>
        <time>2024-08-05T11:06:08Z</time>
      </trkpt>
      <trkpt lat="47.14871" lon="5.93298">
        <ele>443.6</ele>
        <time>2024-08-05T11:06:09Z</time>
      </trkpt>
      <trkpt lat="47.14872" lon="5.93299">
        <ele>443.8</ele>
        <time>2024-08-05T11:06:10Z</time>
      </trkpt>
      <trkpt lat="47.14874" lon="5.933">
        <ele>444.2</ele>
        <time>2024-08-05T11:06:11Z</time>
      </trkpt>
      <trkpt lat="47.14875" lon="5.93301">
        <ele>444.6</ele>
        <time>2024-08-05T11:06:12Z</time>
      </trkpt>
      <trkpt lat="47.14876" lon="5.93302">
        <ele>445</ele>
        <time>2024-08-05T11:06:13Z</time>
      </trkpt>
      <trkpt lat="47.14878" lon="5.93303">
        <ele>445.6</ele>
        <time>2024-08-05T11:06:14Z</time>
      </trkpt>
      <trkpt lat="47.1488" lon="5.93305">
        <ele>446.2</ele>
        <time>2024-08-05T11:06:15Z</time>
      </trkpt>
      <trkpt lat="47.14882" lon="5.93306">
        <ele>446.6</ele>
        <time>2024-08-05T11:06:16Z</time>
      </trkpt>
      <trkpt lat="47.14884" lon="5.93308">
        <ele>446.8</ele>
        <time>2024-08-05T11:06:17Z</time>
      </trkpt>
      <trkpt lat="47.14886" lon="5.93309">
        <ele>447.2</ele>
        <time>2024-08-05T11:06:18Z</time>
      </trkpt>
      <trkpt lat="47.14888" lon="5.9331">
        <ele>447.2</ele>
        <time>2024-08-05T11:06:19Z</time>
      </trkpt>
      <trkpt lat="47.14889" lon="5.93311">
        <ele>447.4</ele>
        <time>2024-08-05T11:06:20Z</time>
      </trkpt>
      <trkpt lat="47.14891" lon="5.93313">
        <ele>447.6</ele>
        <time>2024-08-05T11:06:21Z</time>
      </trkpt>
      <trkpt lat="47.14893" lon="5.93314">
        <ele>447.6</ele>
        <time>2024-08-05T11:06:22Z</time>
      </trkpt>
      <trkpt lat="47.14895" lon="5.93315">
        <ele>447.6</ele>
        <time>2024-08-05T11:06:23Z</time>
      </trkpt>
      <trkpt lat="47.14896" lon="5.93316">
        <ele>447.6</ele>
        <time>2024-08-05T11:06:24Z</time>
      </trkpt>
      <trkpt lat="47.14898" lon="5.93317">
        <ele>447.8</ele>
        <time>2024-08-05T11:06:25Z</time>
      </trkpt>
      <trkpt lat="47.149" lon="5.93319">
        <ele>447.8</ele>
        <time>2024-08-05T11:06:26Z</time>
      </trkpt>
      <trkpt lat="47.14902" lon="5.9332">
        <ele>448</ele>
        <time>2024-08-05T11:06:27Z</time>
      </trkpt>
      <trkpt lat="47.14903" lon="5.93321">
        <ele>448.2</ele>
        <time>2024-08-05T11:06:28Z</time>
      </trkpt>
      <trkpt lat="47.14904" lon="5.93322">
        <ele>448.2</ele>
        <time>2024-08-05T11:06:29Z</time>
      </trkpt>
      <trkpt lat="47.14906" lon="5.93323">
        <ele>448.2</ele>
        <time>2024-08-05T11:06:30Z</time>
      </trkpt>
      <trkpt lat="47.14908" lon="5.93324">
        <ele>448.2</ele>
        <time>2024-08-05T11:06:31Z</time>
      </trkpt>
      <trkpt lat="47.1491" lon="5.93326">
        <ele>448.2</ele>
        <time>2024-08-05T11:06:32Z</time>
      </trkpt>
      <trkpt lat="47.14911" lon="5.93327">
        <ele>448.2</ele>
        <time>2024-08-05T11:06:33Z</time>
      </trkpt>
      <trkpt lat="47.14913" lon="5.93329">
        <ele>448.4</ele>
        <time>2024-08-05T11:06:34Z</time>
      </trkpt>
      <trkpt lat="47.14914" lon="5.9333">
        <ele>448.6</ele>
        <time>2024-08-05T11:06:35Z</time>
      </trkpt>
      <trkpt lat="47.14917" lon="5.93332">
        <ele>448.6</ele>
        <time>2024-08-05T11:06:36Z</time>
      </trkpt>
      <trkpt lat="47.14918" lon="5.93333">
        <ele>448.8</ele>
        <time>2024-08-05T11:06:37Z</time>
      </trkpt>
      <trkpt lat="47.1492" lon="5.93335">
        <ele>448.8</ele>
        <time>2024-08-05T11:06:38Z</time>
      </trkpt>
      <trkpt lat="47.14922" lon="5.93337">
        <ele>448.8</ele>
        <time>2024-08-05T11:06:39Z</time>
      </trkpt>
      <trkpt lat="47.14923" lon="5.93339">
        <ele>449</ele>
        <time>2024-08-05T11:06:40Z</time>
      </trkpt>
      <trkpt lat="47.14925" lon="5.9334">
        <ele>449</ele>
        <time>2024-08-05T11:06:41Z</time>
      </trkpt>
      <trkpt lat="47.14926" lon="5.93341">
        <ele>449</ele>
        <time>2024-08-05T11:06:42Z</time>
      </trkpt>
      <trkpt lat="47.14927" lon="5.93342">
        <ele>449</ele>
        <time>2024-08-05T11:06:43Z</time>
      </trkpt>
      <trkpt lat="47.14929" lon="5.93344">
        <ele>449.2</ele>
        <time>2024-08-05T11:06:44Z</time>
      </trkpt>
      <trkpt lat="47.14931" lon="5.93345">
        <ele>449.2</ele>
        <time>2024-08-05T11:06:45Z</time>
      </trkpt>
      <trkpt lat="47.14932" lon="5.93348">
        <ele>449</ele>
        <time>2024-08-05T11:06:46Z</time>
      </trkpt>
      <trkpt lat="47.14934" lon="5.93351">
        <ele>449.2</ele>
        <time>2024-08-05T11:06:47Z</time>
      </trkpt>
      <trkpt lat="47.14935" lon="5.93353">
        <ele>449.2</ele>
        <time>2024-08-05T11:06:48Z</time>
      </trkpt>
      <trkpt lat="47.14937" lon="5.93355">
        <ele>449.2</ele>
        <time>2024-08-05T11:06:49Z</time>
      </trkpt>
      <trkpt lat="47.14938" lon="5.93357">
        <ele>449</ele>
        <time>2024-08-05T11:06:50Z</time>
      </trkpt>
      <trkpt lat="47.1494" lon="5.93359">
        <ele>449.2</ele>
        <time>2024-08-05T11:06:51Z</time>
      </trkpt>
      <trkpt lat="47.14942" lon="5.93361">
        <ele>449.2</ele>
        <time>2024-08-05T11:06:52Z</time>
      </trkpt>
      <trkpt lat="47.14944" lon="5.93364">
        <ele>449</ele>
        <time>2024-08-05T11:06:53Z</time>
      </trkpt>
      <trkpt lat="47.14946" lon="5.93366">
        <ele>449.2</ele>
        <time>2024-08-05T11:06:54Z</time>
      </trkpt>
      <trkpt lat="47.1495" lon="5.9337">
        <ele>449.2</ele>
        <time>2024-08-05T11:06:55Z</time>
      </trkpt>
      <trkpt lat="47.14952" lon="5.93372">
        <ele>449.2</ele>
        <time>2024-08-05T11:06:56Z</time>
      </trkpt>
      <trkpt lat="47.14956" lon="5.93376">
        <ele>449.2</ele>
        <time>2024-08-05T11:06:57Z</time>
      </trkpt>
      <trkpt lat="47.1496" lon="5.93379">
        <ele>449.2</ele>
        <time>2024-08-05T11:06:58Z</time>
      </trkpt>
      <trkpt lat="47.14964" lon="5.93382">
        <ele>449.2</ele>
        <time>2024-08-05T11:06:59Z</time>
      </trkpt>
      <trkpt lat="47.14967" lon="5.93385">
        <ele>449.2</ele>
        <time>2024-08-05T11:07:00Z</time>
      </trkpt>
      <trkpt lat="47.14971" lon="5.93388">
        <ele>449.2</ele>
        <time>2024-08-05T11:07:01Z</time>
      </trkpt>
      <trkpt lat="47.14974" lon="5.93391">
        <ele>449</ele>
        <time>2024-08-05T11:07:02Z</time>
      </trkpt>
      <trkpt lat="47.14978" lon="5.93394">
        <ele>449</ele>
        <time>2024-08-05T11:07:03Z</time>
      </trkpt>
      <trkpt lat="47.14982" lon="5.93397">
        <ele>448.6</ele>
        <time>2024-08-05T11:07:04Z</time>
      </trkpt>
      <trkpt lat="47.14985" lon="5.93401">
        <ele>448.2</ele>
        <time>2024-08-05T11:07:05Z</time>
      </trkpt>
      <trkpt lat="47.1499" lon="5.93405">
        <ele>448</ele>
        <time>2024-08-05T11:07:06Z</time>
      </trkpt>
      <trkpt lat="47.14994" lon="5.93409">
        <ele>447.8</ele>
        <time>2024-08-05T11:07:07Z</time>
      </trkpt>
      <trkpt lat="47.14998" lon="5.93413">
        <ele>447.6</ele>
        <time>2024-08-05T11:07:08Z</time>
      </trkpt>
      <trkpt lat="47.15002" lon="5.93418">
        <ele>447.8</ele>
        <time>2024-08-05T11:07:09Z</time>
      </trkpt>
      <trkpt lat="47.15007" lon="5.93423">
        <ele>447.6</ele>
        <time>2024-08-05T11:07:10Z</time>
      </trkpt>
      <trkpt lat="47.15012" lon="5.93428">
        <ele>447.4</ele>
        <time>2024-08-05T11:07:11Z</time>
      </trkpt>
      <trkpt lat="47.15018" lon="5.93433">
        <ele>447.4</ele>
        <time>2024-08-05T11:07:12Z</time>
      </trkpt>
      <trkpt lat="47.15024" lon="5.93438">
        <ele>447.2</ele>
        <time>2024-08-05T11:07:13Z</time>
      </trkpt>
      <trkpt lat="47.1503" lon="5.93443">
        <ele>447.2</ele>
        <time>2024-08-05T11:07:14Z</time>
      </trkpt>
      <trkpt lat="47.15036" lon="5.93448">
        <ele>447</ele>
        <time>2024-08-05T11:07:15Z</time>
      </trkpt>
      <trkpt lat="47.15042" lon="5.93452">
        <ele>446.6</ele>
        <time>2024-08-05T11:07:16Z</time>
      </trkpt>
      <trkpt lat="47.15047" lon="5.93455">
        <ele>446.2</ele>
        <time>2024-08-05T11:07:17Z</time>
      </trkpt>
      <trkpt lat="47.15053" lon="5.93459">
        <ele>445.6</ele>
        <time>2024-08-05T11:07:18Z</time>
      </trkpt>
      <trkpt lat="47.15058" lon="5.93463">
        <ele>445.4</ele>
        <time>2024-08-05T11:07:19Z</time>
      </trkpt>
      <trkpt lat="47.15063" lon="5.93468">
        <ele>445.2</ele>
        <time>2024-08-05T11:07:20Z</time>
      </trkpt>
      <trkpt lat="47.15069" lon="5.93472">
        <ele>444.6</ele>
        <time>2024-08-05T11:07:21Z</time>
      </trkpt>
      <trkpt lat="47.15074" lon="5.93476">
        <ele>444.2</ele>
        <time>2024-08-05T11:07:22Z</time>
      </trkpt>
      <trkpt lat="47.15079" lon="5.9348">
        <ele>444</ele>
        <time>2024-08-05T11:07:23Z</time>
      </trkpt>
      <trkpt lat="47.15084" lon="5.93483">
        <ele>444</ele>
        <time>2024-08-05T11:07:24Z</time>
      </trkpt>
      <trkpt lat="47.15088" lon="5.93486">
        <ele>443.8</ele>
        <time>2024-08-05T11:07:25Z</time>
      </trkpt>
      <trkpt lat="47.15092" lon="5.93489">
        <ele>443.8</ele>
        <time>2024-08-05T11:07:26Z</time>
      </trkpt>
      <trkpt lat="47.15095" lon="5.93491">
        <ele>443.4</ele>
        <time>2024-08-05T11:07:27Z</time>
      </trkpt>
      <trkpt lat="47.15098" lon="5.93492">
        <ele>443.2</ele>
        <time>2024-08-05T11:07:28Z</time>
      </trkpt>
      <trkpt lat="47.15101" lon="5.93494">
        <ele>443.2</ele>
        <time>2024-08-05T11:07:29Z</time>
      </trkpt>
      <trkpt lat="47.15104" lon="5.93494">
        <ele>443</ele>
        <time>2024-08-05T11:07:30Z</time>
      </trkpt>
      <trkpt lat="47.15106" lon="5.93495">
        <ele>443</ele>
        <time>2024-08-05T11:07:31Z</time>
      </trkpt>
      <trkpt lat="47.15108" lon="5.93495">
        <ele>442.8</ele>
        <time>2024-08-05T11:07:32Z</time>
      </trkpt>
      <trkpt lat="47.1511" lon="5.93496">
        <ele>442.8</ele>
        <time>2024-08-05T11:07:33Z</time>
      </trkpt>
      <trkpt lat="47.15112" lon="5.93496">
        <ele>442.8</ele>
        <time>2024-08-05T11:07:34Z</time>
      </trkpt>
      <trkpt lat="47.15113" lon="5.93497">
        <ele>442.8</ele>
        <time>2024-08-05T11:07:35Z</time>
      </trkpt>
      <trkpt lat="47.15115" lon="5.93497">
        <ele>442.8</ele>
        <time>2024-08-05T11:07:36Z</time>
      </trkpt>
      <trkpt lat="47.15116" lon="5.93497">
        <ele>442.6</ele>
        <time>2024-08-05T11:07:37Z</time>
      </trkpt>
      <trkpt lat="47.15118" lon="5.93497">
        <ele>442.8</ele>
        <time>2024-08-05T11:07:38Z</time>
      </trkpt>
      <trkpt lat="47.15119" lon="5.93497">
        <ele>442.8</ele>
        <time>2024-08-05T11:07:39Z</time>
      </trkpt>
      <trkpt lat="47.15121" lon="5.93497">
        <ele>442.8</ele>
        <time>2024-08-05T11:07:40Z</time>
      </trkpt>
      <trkpt lat="47.15122" lon="5.93497">
        <ele>442.8</ele>
        <time>2024-08-05T11:07:41Z</time>
      </trkpt>
      <trkpt lat="47.15124" lon="5.93497">
        <ele>443</ele>
        <time>2024-08-05T11:07:42Z</time>
      </trkpt>
      <trkpt lat="47.15125" lon="5.93497">
        <ele>443</ele>
        <time>2024-08-05T11:07:43Z</time>
      </trkpt>
      <trkpt lat="47.15128" lon="5.93497">
        <ele>443.2</ele>
        <time>2024-08-05T11:07:44Z</time>
      </trkpt>
      <trkpt lat="47.1513" lon="5.93497">
        <ele>443.2</ele>
        <time>2024-08-05T11:07:45Z</time>
      </trkpt>
      <trkpt lat="47.15132" lon="5.93498">
        <ele>443.6</ele>
        <time>2024-08-05T11:07:46Z</time>
      </trkpt>
      <trkpt lat="47.15135" lon="5.935">
        <ele>444</ele>
        <time>2024-08-05T11:07:47Z</time>
      </trkpt>
      <trkpt lat="47.15137" lon="5.93502">
        <ele>444</ele>
        <time>2024-08-05T11:07:48Z</time>
      </trkpt>
      <trkpt lat="47.1514" lon="5.93503">
        <ele>444.2</ele>
        <time>2024-08-05T11:07:49Z</time>
      </trkpt>
      <trkpt lat="47.15142" lon="5.93505">
        <ele>444.4</ele>
        <time>2024-08-05T11:07:50Z</time>
      </trkpt>
      <trkpt lat="47.15144" lon="5.93506">
        <ele>444.6</ele>
        <time>2024-08-05T11:07:51Z</time>
      </trkpt>
      <trkpt lat="47.15145" lon="5.93507">
        <ele>444.8</ele>
        <time>2024-08-05T11:07:52Z</time>
      </trkpt>
      <trkpt lat="47.15147" lon="5.93508">
        <ele>444.8</ele>
        <time>2024-08-05T11:07:53Z</time>
      </trkpt>
      <trkpt lat="47.15149" lon="5.9351">
        <ele>445</ele>
        <time>2024-08-05T11:07:54Z</time>
      </trkpt>
      <trkpt lat="47.15151" lon="5.93511">
        <ele>445</ele>
        <time>2024-08-05T11:07:55Z</time>
      </trkpt>
      <trkpt lat="47.15153" lon="5.93513">
        <ele>444.8</ele>
        <time>2024-08-05T11:07:56Z</time>
      </trkpt>
      <trkpt lat="47.15156" lon="5.93516">
        <ele>444.8</ele>
        <time>2024-08-05T11:07:57Z</time>
      </trkpt>
      <trkpt lat="47.15159" lon="5.93518">
        <ele>444.8</ele>
        <time>2024-08-05T11:07:58Z</time>
      </trkpt>
      <trkpt lat="47.15162" lon="5.93521">
        <ele>445</ele>
        <time>2024-08-05T11:07:59Z</time>
      </trkpt>
      <trkpt lat="47.15165" lon="5.93524">
        <ele>445</ele>
        <time>2024-08-05T11:08:00Z</time>
      </trkpt>
      <trkpt lat="47.15169" lon="5.93527">
        <ele>444.8</ele>
        <time>2024-08-05T11:08:01Z</time>
      </trkpt>
      <trkpt lat="47.15173" lon="5.9353">
        <ele>445</ele>
        <time>2024-08-05T11:08:02Z</time>
      </trkpt>
      <trkpt lat="47.15176" lon="5.93533">
        <ele>444.8</ele>
        <time>2024-08-05T11:08:03Z</time>
      </trkpt>
      <trkpt lat="47.1518" lon="5.93536">
        <ele>444.8</ele>
        <time>2024-08-05T11:08:04Z</time>
      </trkpt>
      <trkpt lat="47.15183" lon="5.93539">
        <ele>444.6</ele>
        <time>2024-08-05T11:08:05Z</time>
      </trkpt>
      <trkpt lat="47.15188" lon="5.93543">
        <ele>444.4</ele>
        <time>2024-08-05T11:08:06Z</time>
      </trkpt>
      <trkpt lat="47.15192" lon="5.93547">
        <ele>444.4</ele>
        <time>2024-08-05T11:08:07Z</time>
      </trkpt>
      <trkpt lat="47.15196" lon="5.93552">
        <ele>444.2</ele>
        <time>2024-08-05T11:08:08Z</time>
      </trkpt>
      <trkpt lat="47.15201" lon="5.93556">
        <ele>443.8</ele>
        <time>2024-08-05T11:08:09Z</time>
      </trkpt>
      <trkpt lat="47.15205" lon="5.9356">
        <ele>443.6</ele>
        <time>2024-08-05T11:08:10Z</time>
      </trkpt>
      <trkpt lat="47.1521" lon="5.93563">
        <ele>443.4</ele>
        <time>2024-08-05T11:08:11Z</time>
      </trkpt>
      <trkpt lat="47.15215" lon="5.93567">
        <ele>443.6</ele>
        <time>2024-08-05T11:08:12Z</time>
      </trkpt>
      <trkpt lat="47.15219" lon="5.9357">
        <ele>443.2</ele>
        <time>2024-08-05T11:08:13Z</time>
      </trkpt>
      <trkpt lat="47.15222" lon="5.93572">
        <ele>442.6</ele>
        <time>2024-08-05T11:08:14Z</time>
      </trkpt>
      <trkpt lat="47.15226" lon="5.93575">
        <ele>442.2</ele>
        <time>2024-08-05T11:08:15Z</time>
      </trkpt>
      <trkpt lat="47.15229" lon="5.93577">
        <ele>442</ele>
        <time>2024-08-05T11:08:16Z</time>
      </trkpt>
      <trkpt lat="47.15233" lon="5.9358">
        <ele>441.6</ele>
        <time>2024-08-05T11:08:17Z</time>
      </trkpt>
      <trkpt lat="47.15237" lon="5.93582">
        <ele>441.6</ele>
        <time>2024-08-05T11:08:18Z</time>
      </trkpt>
      <trkpt lat="47.1524" lon="5.93584">
        <ele>441.2</ele>
        <time>2024-08-05T11:08:19Z</time>
      </trkpt>
      <trkpt lat="47.15242" lon="5.93586">
        <ele>441.2</ele>
        <time>2024-08-05T11:08:20Z</time>
      </trkpt>
      <trkpt lat="47.15245" lon="5.93588">
        <ele>441</ele>
        <time>2024-08-05T11:08:21Z</time>
      </trkpt>
      <trkpt lat="47.15246" lon="5.93589">
        <ele>441</ele>
        <time>2024-08-05T11:08:22Z</time>
      </trkpt>
      <trkpt lat="47.15249" lon="5.93591">
        <ele>440.8</ele>
        <time>2024-08-05T11:08:23Z</time>
      </trkpt>
      <trkpt lat="47.15251" lon="5.93592">
        <ele>440.8</ele>
        <time>2024-08-05T11:08:24Z</time>
      </trkpt>
      <trkpt lat="47.15253" lon="5.93594">
        <ele>440.8</ele>
        <time>2024-08-05T11:08:25Z</time>
      </trkpt>
      <trkpt lat="47.15256" lon="5.93597">
        <ele>440.8</ele>
        <time>2024-08-05T11:08:26Z</time>
      </trkpt>
      <trkpt lat="47.15258" lon="5.93599">
        <ele>440.8</ele>
        <time>2024-08-05T11:08:27Z</time>
      </trkpt>
      <trkpt lat="47.15261" lon="5.93602">
        <ele>440.8</ele>
        <time>2024-08-05T11:08:28Z</time>
      </trkpt>
      <trkpt lat="47.15264" lon="5.93604">
        <ele>440.8</ele>
        <time>2024-08-05T11:08:29Z</time>
      </trkpt>
      <trkpt lat="47.15266" lon="5.93607">
        <ele>440.6</ele>
        <time>2024-08-05T11:08:30Z</time>
      </trkpt>
      <trkpt lat="47.15269" lon="5.93609">
        <ele>440.8</ele>
        <time>2024-08-05T11:08:31Z</time>
      </trkpt>
      <trkpt lat="47.15271" lon="5.93611">
        <ele>440.6</ele>
        <time>2024-08-05T11:08:32Z</time>
      </trkpt>
      <trkpt lat="47.15274" lon="5.93613">
        <ele>440.6</ele>
        <time>2024-08-05T11:08:33Z</time>
      </trkpt>
      <trkpt lat="47.15276" lon="5.93615">
        <ele>440.4</ele>
        <time>2024-08-05T11:08:34Z</time>
      </trkpt>
      <trkpt lat="47.15278" lon="5.93616">
        <ele>440.4</ele>
        <time>2024-08-05T11:08:35Z</time>
      </trkpt>
      <trkpt lat="47.1528" lon="5.93618">
        <ele>440.4</ele>
        <time>2024-08-05T11:08:36Z</time>
      </trkpt>
      <trkpt lat="47.15283" lon="5.9362">
        <ele>440.4</ele>
        <time>2024-08-05T11:08:37Z</time>
      </trkpt>
      <trkpt lat="47.15285" lon="5.93622">
        <ele>440.4</ele>
        <time>2024-08-05T11:08:38Z</time>
      </trkpt>
      <trkpt lat="47.15287" lon="5.93624">
        <ele>440.4</ele>
        <time>2024-08-05T11:08:39Z</time>
      </trkpt>
      <trkpt lat="47.15289" lon="5.93626">
        <ele>440.4</ele>
        <time>2024-08-05T11:08:40Z</time>
      </trkpt>
      <trkpt lat="47.15292" lon="5.93628">
        <ele>440.2</ele>
        <time>2024-08-05T11:08:41Z</time>
      </trkpt>
      <trkpt lat="47.15294" lon="5.93629">
        <ele>440.2</ele>
        <time>2024-08-05T11:08:42Z</time>
      </trkpt>
      <trkpt lat="47.15296" lon="5.93632">
        <ele>440.4</ele>
        <time>2024-08-05T11:08:43Z</time>
      </trkpt>
      <trkpt lat="47.15298" lon="5.93633">
        <ele>440.4</ele>
        <time>2024-08-05T11:08:44Z</time>
      </trkpt>
      <trkpt lat="47.153" lon="5.93635">
        <ele>440.4</ele>
        <time>2024-08-05T11:08:45Z</time>
      </trkpt>
      <trkpt lat="47.15302" lon="5.93638">
        <ele>440.4</ele>
        <time>2024-08-05T11:08:46Z</time>
      </trkpt>
      <trkpt lat="47.15305" lon="5.9364">
        <ele>440.4</ele>
        <time>2024-08-05T11:08:47Z</time>
      </trkpt>
      <trkpt lat="47.15307" lon="5.93643">
        <ele>440.6</ele>
        <time>2024-08-05T11:08:48Z</time>
      </trkpt>
      <trkpt lat="47.15309" lon="5.93645">
        <ele>440.6</ele>
        <time>2024-08-05T11:08:49Z</time>
      </trkpt>
      <trkpt lat="47.15312" lon="5.93646">
        <ele>440.6</ele>
        <time>2024-08-05T11:08:50Z</time>
      </trkpt>
      <trkpt lat="47.15314" lon="5.93648">
        <ele>440.8</ele>
        <time>2024-08-05T11:08:51Z</time>
      </trkpt>
      <trkpt lat="47.15317" lon="5.93649">
        <ele>440.8</ele>
        <time>2024-08-05T11:08:52Z</time>
      </trkpt>
      <trkpt lat="47.1532" lon="5.9365">
        <ele>440.8</ele>
        <time>2024-08-05T11:08:53Z</time>
      </trkpt>
      <trkpt lat="47.15322" lon="5.93651">
        <ele>440.8</ele>
        <time>2024-08-05T11:08:54Z</time>
      </trkpt>
      <trkpt lat="47.15325" lon="5.93652">
        <ele>440.8</ele>
        <time>2024-08-05T11:08:55Z</time>
      </trkpt>
      <trkpt lat="47.15328" lon="5.93654">
        <ele>440.8</ele>
        <time>2024-08-05T11:08:56Z</time>
      </trkpt>
      <trkpt lat="47.1533" lon="5.93655">
        <ele>440.8</ele>
        <time>2024-08-05T11:08:57Z</time>
      </trkpt>
      <trkpt lat="47.15332" lon="5.93656">
        <ele>440.8</ele>
        <time>2024-08-05T11:08:58Z</time>
      </trkpt>
      <trkpt lat="47.15334" lon="5.93657">
        <ele>440.8</ele>
        <time>2024-08-05T11:08:59Z</time>
      </trkpt>
      <trkpt lat="47.15336" lon="5.93658">
        <ele>441</ele>
        <time>2024-08-05T11:09:00Z</time>
      </trkpt>
      <trkpt lat="47.15338" lon="5.9366">
        <ele>440.8</ele>
        <time>2024-08-05T11:09:01Z</time>
      </trkpt>
      <trkpt lat="47.1534" lon="5.93662">
        <ele>440.8</ele>
        <time>2024-08-05T11:09:02Z</time>
      </trkpt>
      <trkpt lat="47.15342" lon="5.93664">
        <ele>440.8</ele>
        <time>2024-08-05T11:09:03Z</time>
      </trkpt>
      <trkpt lat="47.15344" lon="5.93667">
        <ele>441</ele>
        <time>2024-08-05T11:09:04Z</time>
      </trkpt>
      <trkpt lat="47.15347" lon="5.93669">
        <ele>441</ele>
        <time>2024-08-05T11:09:05Z</time>
      </trkpt>
      <trkpt lat="47.15349" lon="5.93671">
        <ele>441</ele>
        <time>2024-08-05T11:09:06Z</time>
      </trkpt>
      <trkpt lat="47.15351" lon="5.93673">
        <ele>441.2</ele>
        <time>2024-08-05T11:09:07Z</time>
      </trkpt>
      <trkpt lat="47.15354" lon="5.93675">
        <ele>441</ele>
        <time>2024-08-05T11:09:08Z</time>
      </trkpt>
      <trkpt lat="47.15355" lon="5.93676">
        <ele>441</ele>
        <time>2024-08-05T11:09:09Z</time>
      </trkpt>
      <trkpt lat="47.15358" lon="5.93678">
        <ele>441.2</ele>
        <time>2024-08-05T11:09:10Z</time>
      </trkpt>
      <trkpt lat="47.1536" lon="5.9368">
        <ele>441.2</ele>
        <time>2024-08-05T11:09:11Z</time>
      </trkpt>
      <trkpt lat="47.15363" lon="5.93682">
        <ele>441.2</ele>
        <time>2024-08-05T11:09:12Z</time>
      </trkpt>
      <trkpt lat="47.15365" lon="5.93685">
        <ele>441</ele>
        <time>2024-08-05T11:09:13Z</time>
      </trkpt>
      <trkpt lat="47.15367" lon="5.93687">
        <ele>441.2</ele>
        <time>2024-08-05T11:09:14Z</time>
      </trkpt>
      <trkpt lat="47.15369" lon="5.93689">
        <ele>441</ele>
        <time>2024-08-05T11:09:15Z</time>
      </trkpt>
      <trkpt lat="47.15371" lon="5.93692">
        <ele>441.2</ele>
        <time>2024-08-05T11:09:16Z</time>
      </trkpt>
      <trkpt lat="47.15372" lon="5.93694">
        <ele>441</ele>
        <time>2024-08-05T11:09:17Z</time>
      </trkpt>
      <trkpt lat="47.15374" lon="5.93697">
        <ele>441</ele>
        <time>2024-08-05T11:09:18Z</time>
      </trkpt>
      <trkpt lat="47.15376" lon="5.93699">
        <ele>441.2</ele>
        <time>2024-08-05T11:09:19Z</time>
      </trkpt>
      <trkpt lat="47.15379" lon="5.93701">
        <ele>441.2</ele>
        <time>2024-08-05T11:09:20Z</time>
      </trkpt>
      <trkpt lat="47.15381" lon="5.93704">
        <ele>441.2</ele>
        <time>2024-08-05T11:09:21Z</time>
      </trkpt>
      <trkpt lat="47.15383" lon="5.93706">
        <ele>441</ele>
        <time>2024-08-05T11:09:22Z</time>
      </trkpt>
      <trkpt lat="47.15385" lon="5.93708">
        <ele>441.2</ele>
        <time>2024-08-05T11:09:23Z</time>
      </trkpt>
      <trkpt lat="47.15387" lon="5.9371">
        <ele>440.8</ele>
        <time>2024-08-05T11:09:24Z</time>
      </trkpt>
      <trkpt lat="47.1539" lon="5.93712">
        <ele>440.8</ele>
        <time>2024-08-05T11:09:25Z</time>
      </trkpt>
      <trkpt lat="47.15392" lon="5.93715">
        <ele>440.8</ele>
        <time>2024-08-05T11:09:26Z</time>
      </trkpt>
      <trkpt lat="47.15394" lon="5.93717">
        <ele>440.8</ele>
        <time>2024-08-05T11:09:27Z</time>
      </trkpt>
      <trkpt lat="47.15396" lon="5.93719">
        <ele>440.6</ele>
        <time>2024-08-05T11:09:28Z</time>
      </trkpt>
      <trkpt lat="47.15398" lon="5.93721">
        <ele>440.4</ele>
        <time>2024-08-05T11:09:29Z</time>
      </trkpt>
      <trkpt lat="47.154" lon="5.93722">
        <ele>440.4</ele>
        <time>2024-08-05T11:09:30Z</time>
      </trkpt>
      <trkpt lat="47.15402" lon="5.93723">
        <ele>440.4</ele>
        <time>2024-08-05T11:09:31Z</time>
      </trkpt>
      <trkpt lat="47.15404" lon="5.93724">
        <ele>440.2</ele>
        <time>2024-08-05T11:09:32Z</time>
      </trkpt>
      <trkpt lat="47.15406" lon="5.93725">
        <ele>440.4</ele>
        <time>2024-08-05T11:09:33Z</time>
      </trkpt>
      <trkpt lat="47.15407" lon="5.93727">
        <ele>440.2</ele>
        <time>2024-08-05T11:09:34Z</time>
      </trkpt>
      <trkpt lat="47.15409" lon="5.93728">
        <ele>440.4</ele>
        <time>2024-08-05T11:09:35Z</time>
      </trkpt>
      <trkpt lat="47.15411" lon="5.93729">
        <ele>440.4</ele>
        <time>2024-08-05T11:09:36Z</time>
      </trkpt>
      <trkpt lat="47.15412" lon="5.93731">
        <ele>440.2</ele>
        <time>2024-08-05T11:09:37Z</time>
      </trkpt>
      <trkpt lat="47.15414" lon="5.93732">
        <ele>440.2</ele>
        <time>2024-08-05T11:09:38Z</time>
      </trkpt>
      <trkpt lat="47.15416" lon="5.93735">
        <ele>440.2</ele>
        <time>2024-08-05T11:09:39Z</time>
      </trkpt>
      <trkpt lat="47.15418" lon="5.93737">
        <ele>440.2</ele>
        <time>2024-08-05T11:09:40Z</time>
      </trkpt>
      <trkpt lat="47.15421" lon="5.93738">
        <ele>440.4</ele>
        <time>2024-08-05T11:09:41Z</time>
      </trkpt>
      <trkpt lat="47.15423" lon="5.9374">
        <ele>440.4</ele>
        <time>2024-08-05T11:09:42Z</time>
      </trkpt>
      <trkpt lat="47.15425" lon="5.93741">
        <ele>440.4</ele>
        <time>2024-08-05T11:09:43Z</time>
      </trkpt>
      <trkpt lat="47.15426" lon="5.93742">
        <ele>440.4</ele>
        <time>2024-08-05T11:09:44Z</time>
      </trkpt>
      <trkpt lat="47.15428" lon="5.93745">
        <ele>440.4</ele>
        <time>2024-08-05T11:09:45Z</time>
      </trkpt>
      <trkpt lat="47.15429" lon="5.93746">
        <ele>440.4</ele>
        <time>2024-08-05T11:09:46Z</time>
      </trkpt>
      <trkpt lat="47.15431" lon="5.93748">
        <ele>440.4</ele>
        <time>2024-08-05T11:09:47Z</time>
      </trkpt>
      <trkpt lat="47.15432" lon="5.93749">
        <ele>440.6</ele>
        <time>2024-08-05T11:09:48Z</time>
      </trkpt>
      <trkpt lat="47.15434" lon="5.9375">
        <ele>440.4</ele>
        <time>2024-08-05T11:09:49Z</time>
      </trkpt>
      <trkpt lat="47.15435" lon="5.93751">
        <ele>440.6</ele>
        <time>2024-08-05T11:09:50Z</time>
      </trkpt>
      <trkpt lat="47.15437" lon="5.93753">
        <ele>440.6</ele>
        <time>2024-08-05T11:09:51Z</time>
      </trkpt>
      <trkpt lat="47.15438" lon="5.93754">
        <ele>440.6</ele>
        <time>2024-08-05T11:09:52Z</time>
      </trkpt>
      <trkpt lat="47.1544" lon="5.93757">
        <ele>440.6</ele>
        <time>2024-08-05T11:09:53Z</time>
      </trkpt>
      <trkpt lat="47.15442" lon="5.93759">
        <ele>440.6</ele>
        <time>2024-08-05T11:09:54Z</time>
      </trkpt>
      <trkpt lat="47.15445" lon="5.93761">
        <ele>440.8</ele>
        <time>2024-08-05T11:09:55Z</time>
      </trkpt>
      <trkpt lat="47.15448" lon="5.93764">
        <ele>440.6</ele>
        <time>2024-08-05T11:09:56Z</time>
      </trkpt>
      <trkpt lat="47.1545" lon="5.93766">
        <ele>440.6</ele>
        <time>2024-08-05T11:09:57Z</time>
      </trkpt>
      <trkpt lat="47.15452" lon="5.93768">
        <ele>440.6</ele>
        <time>2024-08-05T11:09:58Z</time>
      </trkpt>
      <trkpt lat="47.15454" lon="5.9377">
        <ele>440.6</ele>
        <time>2024-08-05T11:09:59Z</time>
      </trkpt>
      <trkpt lat="47.15456" lon="5.93773">
        <ele>440.6</ele>
        <time>2024-08-05T11:10:00Z</time>
      </trkpt>
      <trkpt lat="47.15458" lon="5.93776">
        <ele>440.6</ele>
        <time>2024-08-05T11:10:01Z</time>
      </trkpt>
      <trkpt lat="47.15459" lon="5.93778">
        <ele>440.6</ele>
        <time>2024-08-05T11:10:02Z</time>
      </trkpt>
      <trkpt lat="47.15461" lon="5.9378">
        <ele>440.6</ele>
        <time>2024-08-05T11:10:03Z</time>
      </trkpt>
      <trkpt lat="47.15463" lon="5.93783">
        <ele>440.6</ele>
        <time>2024-08-05T11:10:04Z</time>
      </trkpt>
      <trkpt lat="47.15465" lon="5.93786">
        <ele>440.6</ele>
        <time>2024-08-05T11:10:05Z</time>
      </trkpt>
      <trkpt lat="47.15467" lon="5.93788">
        <ele>440.6</ele>
        <time>2024-08-05T11:10:06Z</time>
      </trkpt>
      <trkpt lat="47.15469" lon="5.93791">
        <ele>440.6</ele>
        <time>2024-08-05T11:10:07Z</time>
      </trkpt>
      <trkpt lat="47.1547" lon="5.93793">
        <ele>440.6</ele>
        <time>2024-08-05T11:10:08Z</time>
      </trkpt>
      <trkpt lat="47.15472" lon="5.93796">
        <ele>440.6</ele>
        <time>2024-08-05T11:10:09Z</time>
      </trkpt>
      <trkpt lat="47.15474" lon="5.93798">
        <ele>440.6</ele>
        <time>2024-08-05T11:10:10Z</time>
      </trkpt>
      <trkpt lat="47.15476" lon="5.938">
        <ele>440.6</ele>
        <time>2024-08-05T11:10:11Z</time>
      </trkpt>
      <trkpt lat="47.15477" lon="5.93803">
        <ele>440.6</ele>
        <time>2024-08-05T11:10:12Z</time>
      </trkpt>
      <trkpt lat="47.15479" lon="5.93807">
        <ele>440.6</ele>
        <time>2024-08-05T11:10:13Z</time>
      </trkpt>
      <trkpt lat="47.15481" lon="5.93809">
        <ele>440.4</ele>
        <time>2024-08-05T11:10:14Z</time>
      </trkpt>
      <trkpt lat="47.15483" lon="5.93811">
        <ele>440.4</ele>
        <time>2024-08-05T11:10:15Z</time>
      </trkpt>
      <trkpt lat="47.15484" lon="5.93813">
        <ele>440.4</ele>
        <time>2024-08-05T11:10:16Z</time>
      </trkpt>
      <trkpt lat="47.15486" lon="5.93815">
        <ele>440.2</ele>
        <time>2024-08-05T11:10:17Z</time>
      </trkpt>
      <trkpt lat="47.15488" lon="5.93817">
        <ele>440.4</ele>
        <time>2024-08-05T11:10:18Z</time>
      </trkpt>
      <trkpt lat="47.1549" lon="5.9382">
        <ele>440.2</ele>
        <time>2024-08-05T11:10:19Z</time>
      </trkpt>
      <trkpt lat="47.15492" lon="5.93821">
        <ele>440.2</ele>
        <time>2024-08-05T11:10:20Z</time>
      </trkpt>
      <trkpt lat="47.15494" lon="5.93823">
        <ele>440.2</ele>
        <time>2024-08-05T11:10:21Z</time>
      </trkpt>
      <trkpt lat="47.15496" lon="5.93825">
        <ele>440.4</ele>
        <time>2024-08-05T11:10:22Z</time>
      </trkpt>
      <trkpt lat="47.15498" lon="5.93827">
        <ele>440.2</ele>
        <time>2024-08-05T11:10:23Z</time>
      </trkpt>
      <trkpt lat="47.155" lon="5.93828">
        <ele>440.2</ele>
        <time>2024-08-05T11:10:24Z</time>
      </trkpt>
      <trkpt lat="47.15502" lon="5.9383">
        <ele>440.2</ele>
        <time>2024-08-05T11:10:25Z</time>
      </trkpt>
      <trkpt lat="47.15504" lon="5.93832">
        <ele>440.4</ele>
        <time>2024-08-05T11:10:26Z</time>
      </trkpt>
      <trkpt lat="47.15505" lon="5.93834">
        <ele>440.4</ele>
        <time>2024-08-05T11:10:27Z</time>
      </trkpt>
      <trkpt lat="47.15507" lon="5.93836">
        <ele>440.4</ele>
        <time>2024-08-05T11:10:28Z</time>
      </trkpt>
      <trkpt lat="47.1551" lon="5.93838">
        <ele>440.2</ele>
        <time>2024-08-05T11:10:29Z</time>
      </trkpt>
      <trkpt lat="47.15512" lon="5.9384">
        <ele>440.4</ele>
        <time>2024-08-05T11:10:30Z</time>
      </trkpt>
      <trkpt lat="47.15514" lon="5.93842">
        <ele>440.4</ele>
        <time>2024-08-05T11:10:31Z</time>
      </trkpt>
      <trkpt lat="47.15516" lon="5.93845">
        <ele>440.4</ele>
        <time>2024-08-05T11:10:32Z</time>
      </trkpt>
      <trkpt lat="47.15518" lon="5.93848">
        <ele>440.6</ele>
        <time>2024-08-05T11:10:33Z</time>
      </trkpt>
      <trkpt lat="47.15521" lon="5.93851">
        <ele>440.6</ele>
        <time>2024-08-05T11:10:34Z</time>
      </trkpt>
      <trkpt lat="47.15523" lon="5.93853">
        <ele>440.6</ele>
        <time>2024-08-05T11:10:35Z</time>
      </trkpt>
      <trkpt lat="47.15525" lon="5.93856">
        <ele>440.6</ele>
        <time>2024-08-05T11:10:36Z</time>
      </trkpt>
      <trkpt lat="47.15528" lon="5.93859">
        <ele>440.6</ele>
        <time>2024-08-05T11:10:37Z</time>
      </trkpt>
      <trkpt lat="47.1553" lon="5.93862">
        <ele>440.6</ele>
        <time>2024-08-05T11:10:38Z</time>
      </trkpt>
      <trkpt lat="47.15532" lon="5.93865">
        <ele>440.6</ele>
        <time>2024-08-05T11:10:39Z</time>
      </trkpt>
      <trkpt lat="47.15535" lon="5.93868">
        <ele>440.6</ele>
        <time>2024-08-05T11:10:40Z</time>
      </trkpt>
      <trkpt lat="47.15539" lon="5.93872">
        <ele>440.4</ele>
        <time>2024-08-05T11:10:41Z</time>
      </trkpt>
      <trkpt lat="47.15542" lon="5.93875">
        <ele>440.6</ele>
        <time>2024-08-05T11:10:42Z</time>
      </trkpt>
      <trkpt lat="47.15545" lon="5.93878">
        <ele>440.6</ele>
        <time>2024-08-05T11:10:43Z</time>
      </trkpt>
      <trkpt lat="47.15548" lon="5.9388">
        <ele>440.6</ele>
        <time>2024-08-05T11:10:44Z</time>
      </trkpt>
      <trkpt lat="47.15551" lon="5.93883">
        <ele>440.6</ele>
        <time>2024-08-05T11:10:45Z</time>
      </trkpt>
      <trkpt lat="47.15554" lon="5.93886">
        <ele>440.6</ele>
        <time>2024-08-05T11:10:46Z</time>
      </trkpt>
      <trkpt lat="47.15557" lon="5.93889">
        <ele>440.6</ele>
        <time>2024-08-05T11:10:47Z</time>
      </trkpt>
      <trkpt lat="47.1556" lon="5.93893">
        <ele>440.6</ele>
        <time>2024-08-05T11:10:48Z</time>
      </trkpt>
      <trkpt lat="47.15562" lon="5.93896">
        <ele>440.6</ele>
        <time>2024-08-05T11:10:49Z</time>
      </trkpt>
      <trkpt lat="47.15564" lon="5.939">
        <ele>440.8</ele>
        <time>2024-08-05T11:10:50Z</time>
      </trkpt>
      <trkpt lat="47.15567" lon="5.93904">
        <ele>440.6</ele>
        <time>2024-08-05T11:10:51Z</time>
      </trkpt>
      <trkpt lat="47.1557" lon="5.93908">
        <ele>440.6</ele>
        <time>2024-08-05T11:10:52Z</time>
      </trkpt>
      <trkpt lat="47.15572" lon="5.93912">
        <ele>440.6</ele>
        <time>2024-08-05T11:10:53Z</time>
      </trkpt>
      <trkpt lat="47.15576" lon="5.93915">
        <ele>440.6</ele>
        <time>2024-08-05T11:10:54Z</time>
      </trkpt>
      <trkpt lat="47.15579" lon="5.93919">
        <ele>440.6</ele>
        <time>2024-08-05T11:10:55Z</time>
      </trkpt>
      <trkpt lat="47.15582" lon="5.93923">
        <ele>440.6</ele>
        <time>2024-08-05T11:10:56Z</time>
      </trkpt>
      <trkpt lat="47.15584" lon="5.93926">
        <ele>440.6</ele>
        <time>2024-08-05T11:10:57Z</time>
      </trkpt>
      <trkpt lat="47.15587" lon="5.9393">
        <ele>440.6</ele>
        <time>2024-08-05T11:10:58Z</time>
      </trkpt>
      <trkpt lat="47.1559" lon="5.93933">
        <ele>440.6</ele>
        <time>2024-08-05T11:10:59Z</time>
      </trkpt>
      <trkpt lat="47.15594" lon="5.93937">
        <ele>440.6</ele>
        <time>2024-08-05T11:11:00Z</time>
      </trkpt>
      <trkpt lat="47.15597" lon="5.9394">
        <ele>440.4</ele>
        <time>2024-08-05T11:11:01Z</time>
      </trkpt>
      <trkpt lat="47.156" lon="5.93943">
        <ele>440.4</ele>
        <time>2024-08-05T11:11:02Z</time>
      </trkpt>
      <trkpt lat="47.15603" lon="5.93946">
        <ele>440.4</ele>
        <time>2024-08-05T11:11:03Z</time>
      </trkpt>
      <trkpt lat="47.15606" lon="5.93949">
        <ele>440.4</ele>
        <time>2024-08-05T11:11:04Z</time>
      </trkpt>
      <trkpt lat="47.15608" lon="5.93952">
        <ele>440.4</ele>
        <time>2024-08-05T11:11:05Z</time>
      </trkpt>
      <trkpt lat="47.15611" lon="5.93954">
        <ele>440.2</ele>
        <time>2024-08-05T11:11:06Z</time>
      </trkpt>
      <trkpt lat="47.15613" lon="5.93957">
        <ele>440.2</ele>
        <time>2024-08-05T11:11:07Z</time>
      </trkpt>
      <trkpt lat="47.15616" lon="5.9396">
        <ele>440.2</ele>
        <time>2024-08-05T11:11:08Z</time>
      </trkpt>
      <trkpt lat="47.15618" lon="5.93963">
        <ele>440</ele>
        <time>2024-08-05T11:11:09Z</time>
      </trkpt>
      <trkpt lat="47.15621" lon="5.93966">
        <ele>440.2</ele>
        <time>2024-08-05T11:11:10Z</time>
      </trkpt>
      <trkpt lat="47.15624" lon="5.93969">
        <ele>440</ele>
        <time>2024-08-05T11:11:11Z</time>
      </trkpt>
      <trkpt lat="47.15627" lon="5.93972">
        <ele>440</ele>
        <time>2024-08-05T11:11:12Z</time>
      </trkpt>
      <trkpt lat="47.1563" lon="5.93975">
        <ele>440</ele>
        <time>2024-08-05T11:11:13Z</time>
      </trkpt>
      <trkpt lat="47.15632" lon="5.93978">
        <ele>439.8</ele>
        <time>2024-08-05T11:11:14Z</time>
      </trkpt>
      <trkpt lat="47.15635" lon="5.93981">
        <ele>439.8</ele>
        <time>2024-08-05T11:11:15Z</time>
      </trkpt>
      <trkpt lat="47.15637" lon="5.93984">
        <ele>439.8</ele>
        <time>2024-08-05T11:11:16Z</time>
      </trkpt>
      <trkpt lat="47.1564" lon="5.93987">
        <ele>439.4</ele>
        <time>2024-08-05T11:11:17Z</time>
      </trkpt>
      <trkpt lat="47.15642" lon="5.93989">
        <ele>439.4</ele>
        <time>2024-08-05T11:11:18Z</time>
      </trkpt>
      <trkpt lat="47.15644" lon="5.93991">
        <ele>439.4</ele>
        <time>2024-08-05T11:11:19Z</time>
      </trkpt>
      <trkpt lat="47.15645" lon="5.93992">
        <ele>439.4</ele>
        <time>2024-08-05T11:11:20Z</time>
      </trkpt>
      <trkpt lat="47.15646" lon="5.93993">
        <ele>439.2</ele>
        <time>2024-08-05T11:11:21Z</time>
      </trkpt>
      <trkpt lat="47.15647" lon="5.93993">
        <ele>439.2</ele>
        <time>2024-08-05T11:11:22Z</time>
      </trkpt>
      <trkpt lat="47.15648" lon="5.93993">
        <ele>439</ele>
        <time>2024-08-05T11:11:23Z</time>
      </trkpt>
      <trkpt lat="47.15648" lon="5.93992">
        <ele>439</ele>
        <time>2024-08-05T11:11:24Z</time>
      </trkpt>
      <trkpt lat="47.15648" lon="5.93991">
        <ele>438.8</ele>
        <time>2024-08-05T11:11:25Z</time>
      </trkpt>
      <trkpt lat="47.15648" lon="5.93991">
        <ele>438.6</ele>
        <time>2024-08-05T11:11:26Z</time>
      </trkpt>
      <trkpt lat="47.15648" lon="5.93991">
        <ele>438.6</ele>
        <time>2024-08-05T11:11:27Z</time>
      </trkpt>
      <trkpt lat="47.15648" lon="5.93991">
        <ele>438.6</ele>
        <time>2024-08-05T11:11:28Z</time>
      </trkpt>
      <trkpt lat="47.15648" lon="5.93991">
        <ele>438.6</ele>
        <time>2024-08-05T11:11:29Z</time>
      </trkpt>
      <trkpt lat="47.15648" lon="5.93991">
        <ele>438.6</ele>
        <time>2024-08-05T11:11:30Z</time>
      </trkpt>
      <trkpt lat="47.15648" lon="5.93991">
        <ele>438.6</ele>
        <time>2024-08-05T11:11:31Z</time>
      </trkpt>
      <trkpt lat="47.15648" lon="5.93991">
        <ele>438.4</ele>
        <time>2024-08-05T11:11:32Z</time>
      </trkpt>
      <trkpt lat="47.15648" lon="5.93991">
        <ele>438.4</ele>
        <time>2024-08-05T11:11:33Z</time>
      </trkpt>
      <trkpt lat="47.15648" lon="5.93991">
        <ele>438.4</ele>
        <time>2024-08-05T11:11:34Z</time>
      </trkpt>
      <trkpt lat="47.15648" lon="5.93991">
        <ele>438.4</ele>
        <time>2024-08-05T11:11:35Z</time>
      </trkpt>
      <trkpt lat="47.15648" lon="5.93991">
        <ele>438.2</ele>
        <time>2024-08-05T11:11:36Z</time>
      </trkpt>
      <trkpt lat="47.15648" lon="5.93991">
        <ele>438.2</ele>
        <time>2024-08-05T11:11:37Z</time>
      </trkpt>
      <trkpt lat="47.15648" lon="5.93991">
        <ele>438.4</ele>
        <time>2024-08-05T11:11:38Z</time>
      </trkpt>
      <trkpt lat="47.15648" lon="5.93991">
        <ele>438.2</ele>
        <time>2024-08-05T11:11:39Z</time>
      </trkpt>
      <trkpt lat="47.15648" lon="5.93991">
        <ele>438.4</ele>
        <time>2024-08-05T11:11:40Z</time>
      </trkpt>
      <trkpt lat="47.15648" lon="5.93991">
        <ele>438.4</ele>
        <time>2024-08-05T11:11:41Z</time>
      </trkpt>
      <trkpt lat="47.15648" lon="5.93991">
        <ele>438.4</ele>
        <time>2024-08-05T11:11:42Z</time>
      </trkpt>
      <trkpt lat="47.15648" lon="5.93991">
        <ele>438.4</ele>
        <time>2024-08-05T11:11:43Z</time>
      </trkpt>
      <trkpt lat="47.15648" lon="5.93991">
        <ele>438.4</ele>
        <time>2024-08-05T11:11:44Z</time>
      </trkpt>
      <trkpt lat="47.15648" lon="5.93991">
        <ele>438.2</ele>
        <time>2024-08-05T11:11:45Z</time>
      </trkpt>
      <trkpt lat="47.15648" lon="5.93991">
        <ele>438.2</ele>
        <time>2024-08-05T11:11:46Z</time>
      </trkpt>
      <trkpt lat="47.15648" lon="5.93991">
        <ele>438.2</ele>
        <time>2024-08-05T11:11:47Z</time>
      </trkpt>
      <trkpt lat="47.15648" lon="5.93991">
        <ele>438.4</ele>
        <time>2024-08-05T11:11:48Z</time>
      </trkpt>
      <trkpt lat="47.15648" lon="5.93991">
        <ele>438.4</ele>
        <time>2024-08-05T11:11:49Z</time>
      </trkpt>
      <trkpt lat="47.15648" lon="5.93991">
        <ele>438.2</ele>
        <time>2024-08-05T11:11:50Z</time>
      </trkpt>
      <trkpt lat="47.15648" lon="5.93991">
        <ele>438.2</ele>
        <time>2024-08-05T11:11:51Z</time>
      </trkpt>
      <trkpt lat="47.15648" lon="5.93991">
        <ele>438.2</ele>
        <time>2024-08-05T11:11:52Z</time>
      </trkpt>
      <trkpt lat="47.15648" lon="5.93991">
        <ele>438.2</ele>
        <time>2024-08-05T11:11:53Z</time>
      </trkpt>
      <trkpt lat="47.15648" lon="5.93991">
        <ele>438.2</ele>
        <time>2024-08-05T11:11:54Z</time>
      </trkpt>
      <trkpt lat="47.15648" lon="5.93991">
        <ele>438.2</ele>
        <time>2024-08-05T11:11:55Z</time>
      </trkpt>
      <trkpt lat="47.15648" lon="5.93991">
        <ele>438.2</ele>
        <time>2024-08-05T11:11:56Z</time>
      </trkpt>
      <trkpt lat="47.15648" lon="5.93991">
        <ele>438.2</ele>
        <time>2024-08-05T11:11:57Z</time>
      </trkpt>
      <trkpt lat="47.15648" lon="5.93991">
        <ele>438.2</ele>
        <time>2024-08-05T11:11:58Z</time>
      </trkpt>
      <trkpt lat="47.15648" lon="5.93991">
        <ele>438.2</ele>
        <time>2024-08-05T11:11:59Z</time>
      </trkpt>
      <trkpt lat="47.15648" lon="5.93991">
        <ele>438.2</ele>
        <time>2024-08-05T11:12:00Z</time>
      </trkpt>
      <trkpt lat="47.15648" lon="5.93991">
        <ele>438.2</ele>
        <time>2024-08-05T11:12:01Z</time>
      </trkpt>
      <trkpt lat="47.15648" lon="5.93991">
        <ele>438.2</ele>
        <time>2024-08-05T11:12:02Z</time>
      </trkpt>
      <trkpt lat="47.15648" lon="5.93991">
        <ele>438.2</ele>
        <time>2024-08-05T11:12:03Z</time>
      </trkpt>
      <trkpt lat="47.15648" lon="5.93991">
        <ele>438</ele>
        <time>2024-08-05T11:12:04Z</time>
      </trkpt>
      <trkpt lat="47.15648" lon="5.93991">
        <ele>438.2</ele>
        <time>2024-08-05T11:12:05Z</time>
      </trkpt>
      <trkpt lat="47.15648" lon="5.93991">
        <ele>438.2</ele>
        <time>2024-08-05T11:12:06Z</time>
      </trkpt>
      <trkpt lat="47.15648" lon="5.93991">
        <ele>438</ele>
        <time>2024-08-05T11:12:07Z</time>
      </trkpt>
      <trkpt lat="47.15648" lon="5.93991">
        <ele>438</ele>
        <time>2024-08-05T11:12:08Z</time>
      </trkpt>
      <trkpt lat="47.15648" lon="5.93991">
        <ele>438</ele>
        <time>2024-08-05T11:12:09Z</time>
      </trkpt>
      <trkpt lat="47.15648" lon="5.93992">
        <ele>438</ele>
        <time>2024-08-05T11:12:10Z</time>
      </trkpt>
      <trkpt lat="47.15648" lon="5.93992">
        <ele>438</ele>
        <time>2024-08-05T11:12:11Z</time>
      </trkpt>
      <trkpt lat="47.15648" lon="5.93992">
        <ele>438</ele>
        <time>2024-08-05T11:12:12Z</time>
      </trkpt>
      <trkpt lat="47.15648" lon="5.93992">
        <ele>438</ele>
        <time>2024-08-05T11:12:13Z</time>
      </trkpt>
      <trkpt lat="47.15649" lon="5.93992">
        <ele>438</ele>
        <time>2024-08-05T11:12:14Z</time>
      </trkpt>
      <trkpt lat="47.15649" lon="5.93992">
        <ele>438</ele>
        <time>2024-08-05T11:12:15Z</time>
      </trkpt>
      <trkpt lat="47.15649" lon="5.93992">
        <ele>438</ele>
        <time>2024-08-05T11:12:16Z</time>
      </trkpt>
      <trkpt lat="47.15649" lon="5.93992">
        <ele>438</ele>
        <time>2024-08-05T11:12:17Z</time>
      </trkpt>
      <trkpt lat="47.15649" lon="5.93992">
        <ele>438</ele>
        <time>2024-08-05T11:12:18Z</time>
      </trkpt>
      <trkpt lat="47.15649" lon="5.93992">
        <ele>438</ele>
        <time>2024-08-05T11:12:19Z</time>
      </trkpt>
      <trkpt lat="47.15649" lon="5.93992">
        <ele>438.2</ele>
        <time>2024-08-05T11:12:20Z</time>
      </trkpt>
      <trkpt lat="47.15649" lon="5.93992">
        <ele>438.2</ele>
        <time>2024-08-05T11:12:21Z</time>
      </trkpt>
      <trkpt lat="47.15648" lon="5.93992">
        <ele>438.2</ele>
        <time>2024-08-05T11:12:22Z</time>
      </trkpt>
      <trkpt lat="47.15648" lon="5.93992">
        <ele>438.2</ele>
        <time>2024-08-05T11:12:23Z</time>
      </trkpt>
      <trkpt lat="47.15648" lon="5.93992">
        <ele>438</ele>
        <time>2024-08-05T11:12:24Z</time>
      </trkpt>
      <trkpt lat="47.15648" lon="5.93992">
        <ele>438.2</ele>
        <time>2024-08-05T11:12:25Z</time>
      </trkpt>
      <trkpt lat="47.15648" lon="5.93992">
        <ele>438.2</ele>
        <time>2024-08-05T11:12:26Z</time>
      </trkpt>
      <trkpt lat="47.15648" lon="5.93992">
        <ele>438.2</ele>
        <time>2024-08-05T11:12:27Z</time>
      </trkpt>
      <trkpt lat="47.15648" lon="5.93992">
        <ele>438.2</ele>
        <time>2024-08-05T11:12:28Z</time>
      </trkpt>
      <trkpt lat="47.15648" lon="5.93992">
        <ele>438.2</ele>
        <time>2024-08-05T11:12:29Z</time>
      </trkpt>
      <trkpt lat="47.15648" lon="5.93992">
        <ele>438.2</ele>
        <time>2024-08-05T11:12:30Z</time>
      </trkpt>
      <trkpt lat="47.15648" lon="5.93992">
        <ele>438.2</ele>
        <time>2024-08-05T11:12:31Z</time>
      </trkpt>
      <trkpt lat="47.15648" lon="5.93992">
        <ele>438</ele>
        <time>2024-08-05T11:12:32Z</time>
      </trkpt>
      <trkpt lat="47.15648" lon="5.93992">
        <ele>438</ele>
        <time>2024-08-05T11:12:33Z</time>
      </trkpt>
      <trkpt lat="47.15648" lon="5.93992">
        <ele>438.2</ele>
        <time>2024-08-05T11:12:34Z</time>
      </trkpt>
      <trkpt lat="47.15648" lon="5.93992">
        <ele>438</ele>
        <time>2024-08-05T11:12:35Z</time>
      </trkpt>
      <trkpt lat="47.15648" lon="5.93992">
        <ele>438.2</ele>
        <time>2024-08-05T11:12:36Z</time>
      </trkpt>
      <trkpt lat="47.15648" lon="5.93992">
        <ele>438</ele>
        <time>2024-08-05T11:12:37Z</time>
      </trkpt>
      <trkpt lat="47.15648" lon="5.93992">
        <ele>438.2</ele>
        <time>2024-08-05T11:12:38Z</time>
      </trkpt>
      <trkpt lat="47.15648" lon="5.93992">
        <ele>438.2</ele>
        <time>2024-08-05T11:12:39Z</time>
      </trkpt>
      <trkpt lat="47.15648" lon="5.93992">
        <ele>438.2</ele>
        <time>2024-08-05T11:12:40Z</time>
      </trkpt>
      <trkpt lat="47.15648" lon="5.93992">
        <ele>438</ele>
        <time>2024-08-05T11:12:41Z</time>
      </trkpt>
      <trkpt lat="47.15648" lon="5.93992">
        <ele>438</ele>
        <time>2024-08-05T11:12:42Z</time>
      </trkpt>
      <trkpt lat="47.15648" lon="5.93992">
        <ele>438</ele>
        <time>2024-08-05T11:12:43Z</time>
      </trkpt>
      <trkpt lat="47.15648" lon="5.93992">
        <ele>438</ele>
        <time>2024-08-05T11:12:44Z</time>
      </trkpt>
      <trkpt lat="47.15648" lon="5.93992">
        <ele>438.2</ele>
        <time>2024-08-05T11:12:45Z</time>
      </trkpt>
      <trkpt lat="47.15648" lon="5.93992">
        <ele>438.2</ele>
        <time>2024-08-05T11:12:46Z</time>
      </trkpt>
      <trkpt lat="47.15648" lon="5.93992">
        <ele>438</ele>
        <time>2024-08-05T11:12:47Z</time>
      </trkpt>
      <trkpt lat="47.15648" lon="5.93992">
        <ele>438</ele>
        <time>2024-08-05T11:12:48Z</time>
      </trkpt>
      <trkpt lat="47.15648" lon="5.93992">
        <ele>438</ele>
        <time>2024-08-05T11:12:49Z</time>
      </trkpt>
      <trkpt lat="47.15648" lon="5.93992">
        <ele>438</ele>
        <time>2024-08-05T11:12:50Z</time>
      </trkpt>
      <trkpt lat="47.15648" lon="5.93992">
        <ele>438.2</ele>
        <time>2024-08-05T11:12:51Z</time>
      </trkpt>
      <trkpt lat="47.15648" lon="5.93992">
        <ele>438</ele>
        <time>2024-08-05T11:12:52Z</time>
      </trkpt>
      <trkpt lat="47.15648" lon="5.93992">
        <ele>438</ele>
        <time>2024-08-05T11:12:53Z</time>
      </trkpt>
      <trkpt lat="47.15648" lon="5.93992">
        <ele>438.2</ele>
        <time>2024-08-05T11:12:54Z</time>
      </trkpt>
      <trkpt lat="47.15648" lon="5.93992">
        <ele>438</ele>
        <time>2024-08-05T11:12:55Z</time>
      </trkpt>
      <trkpt lat="47.15648" lon="5.93992">
        <ele>438.2</ele>
        <time>2024-08-05T11:12:56Z</time>
      </trkpt>
      <trkpt lat="47.15648" lon="5.93992">
        <ele>438</ele>
        <time>2024-08-05T11:12:57Z</time>
      </trkpt>
      <trkpt lat="47.15648" lon="5.93992">
        <ele>438</ele>
        <time>2024-08-05T11:12:58Z</time>
      </trkpt>
      <trkpt lat="47.15648" lon="5.93992">
        <ele>438.2</ele>
        <time>2024-08-05T11:12:59Z</time>
      </trkpt>
      <trkpt lat="47.15648" lon="5.93992">
        <ele>438</ele>
        <time>2024-08-05T11:13:00Z</time>
      </trkpt>
      <trkpt lat="47.15648" lon="5.93992">
        <ele>438</ele>
        <time>2024-08-05T11:13:01Z</time>
      </trkpt>
      <trkpt lat="47.15648" lon="5.93993">
        <ele>438</ele>
        <time>2024-08-05T11:13:02Z</time>
      </trkpt>
      <trkpt lat="47.15648" lon="5.93993">
        <ele>438</ele>
        <time>2024-08-05T11:13:03Z</time>
      </trkpt>
      <trkpt lat="47.15648" lon="5.93993">
        <ele>438</ele>
        <time>2024-08-05T11:13:04Z</time>
      </trkpt>
      <trkpt lat="47.15648" lon="5.93993">
        <ele>438</ele>
        <time>2024-08-05T11:13:05Z</time>
      </trkpt>
      <trkpt lat="47.15648" lon="5.93993">
        <ele>438</ele>
        <time>2024-08-05T11:13:06Z</time>
      </trkpt>
      <trkpt lat="47.15648" lon="5.93993">
        <ele>438</ele>
        <time>2024-08-05T11:13:07Z</time>
      </trkpt>
      <trkpt lat="47.15648" lon="5.93993">
        <ele>438</ele>
        <time>2024-08-05T11:13:08Z</time>
      </trkpt>
      <trkpt lat="47.15648" lon="5.93993">
        <ele>438</ele>
        <time>2024-08-05T11:13:09Z</time>
      </trkpt>
      <trkpt lat="47.15648" lon="5.93993">
        <ele>437.8</ele>
        <time>2024-08-05T11:13:10Z</time>
      </trkpt>
      <trkpt lat="47.15648" lon="5.93993">
        <ele>437.8</ele>
        <time>2024-08-05T11:13:11Z</time>
      </trkpt>
      <trkpt lat="47.15648" lon="5.93993">
        <ele>438</ele>
        <time>2024-08-05T11:13:12Z</time>
      </trkpt>
      <trkpt lat="47.15648" lon="5.93993">
        <ele>438</ele>
        <time>2024-08-05T11:13:13Z</time>
      </trkpt>
      <trkpt lat="47.15648" lon="5.93993">
        <ele>438</ele>
        <time>2024-08-05T11:13:14Z</time>
      </trkpt>
      <trkpt lat="47.15648" lon="5.93993">
        <ele>437.8</ele>
        <time>2024-08-05T11:13:15Z</time>
      </trkpt>
      <trkpt lat="47.15648" lon="5.93993">
        <ele>438</ele>
        <time>2024-08-05T11:13:16Z</time>
      </trkpt>
      <trkpt lat="47.15648" lon="5.93993">
        <ele>438</ele>
        <time>2024-08-05T11:13:17Z</time>
      </trkpt>
      <trkpt lat="47.15648" lon="5.93993">
        <ele>438</ele>
        <time>2024-08-05T11:13:18Z</time>
      </trkpt>
      <trkpt lat="47.15648" lon="5.93993">
        <ele>438.2</ele>
        <time>2024-08-05T11:13:19Z</time>
      </trkpt>
      <trkpt lat="47.15648" lon="5.93993">
        <ele>438.2</ele>
        <time>2024-08-05T11:13:20Z</time>
      </trkpt>
      <trkpt lat="47.15648" lon="5.93993">
        <ele>438.2</ele>
        <time>2024-08-05T11:13:21Z</time>
      </trkpt>
      <trkpt lat="47.15648" lon="5.93993">
        <ele>438.2</ele>
        <time>2024-08-05T11:13:22Z</time>
      </trkpt>
      <trkpt lat="47.15648" lon="5.93993">
        <ele>438.2</ele>
        <time>2024-08-05T11:13:23Z</time>
      </trkpt>
      <trkpt lat="47.15648" lon="5.93993">
        <ele>438.2</ele>
        <time>2024-08-05T11:13:24Z</time>
      </trkpt>
      <trkpt lat="47.15648" lon="5.93993">
        <ele>438.4</ele>
        <time>2024-08-05T11:13:25Z</time>
      </trkpt>
      <trkpt lat="47.15648" lon="5.93993">
        <ele>438.4</ele>
        <time>2024-08-05T11:13:26Z</time>
      </trkpt>
      <trkpt lat="47.15648" lon="5.93993">
        <ele>438.4</ele>
        <time>2024-08-05T11:13:27Z</time>
      </trkpt>
      <trkpt lat="47.15648" lon="5.93993">
        <ele>438.4</ele>
        <time>2024-08-05T11:13:28Z</time>
      </trkpt>
      <trkpt lat="47.15648" lon="5.93993">
        <ele>438.4</ele>
        <time>2024-08-05T11:13:29Z</time>
      </trkpt>
      <trkpt lat="47.15648" lon="5.93993">
        <ele>438.4</ele>
        <time>2024-08-05T11:13:30Z</time>
      </trkpt>
      <trkpt lat="47.15648" lon="5.93993">
        <ele>438.4</ele>
        <time>2024-08-05T11:13:31Z</time>
      </trkpt>
      <trkpt lat="47.15648" lon="5.93993">
        <ele>438.4</ele>
        <time>2024-08-05T11:13:32Z</time>
      </trkpt>
      <trkpt lat="47.15648" lon="5.93993">
        <ele>438.4</ele>
        <time>2024-08-05T11:13:33Z</time>
      </trkpt>
      <trkpt lat="47.15648" lon="5.93993">
        <ele>438.4</ele>
        <time>2024-08-05T11:13:34Z</time>
      </trkpt>
      <trkpt lat="47.15648" lon="5.93993">
        <ele>438.4</ele>
        <time>2024-08-05T11:13:35Z</time>
      </trkpt>
      <trkpt lat="47.15648" lon="5.93993">
        <ele>438.4</ele>
        <time>2024-08-05T11:13:36Z</time>
      </trkpt>
      <trkpt lat="47.15648" lon="5.93993">
        <ele>438.4</ele>
        <time>2024-08-05T11:13:37Z</time>
      </trkpt>
      <trkpt lat="47.15648" lon="5.93993">
        <ele>438.6</ele>
        <time>2024-08-05T11:13:38Z</time>
      </trkpt>
      <trkpt lat="47.15648" lon="5.93993">
        <ele>438.6</ele>
        <time>2024-08-05T11:13:39Z</time>
      </trkpt>
      <trkpt lat="47.15648" lon="5.93993">
        <ele>438.6</ele>
        <time>2024-08-05T11:13:40Z</time>
      </trkpt>
      <trkpt lat="47.15648" lon="5.93993">
        <ele>438.4</ele>
        <time>2024-08-05T11:13:41Z</time>
      </trkpt>
      <trkpt lat="47.15648" lon="5.93993">
        <ele>438.4</ele>
        <time>2024-08-05T11:13:42Z</time>
      </trkpt>
      <trkpt lat="47.15648" lon="5.93993">
        <ele>438.4</ele>
        <time>2024-08-05T11:13:43Z</time>
      </trkpt>
      <trkpt lat="47.15648" lon="5.93993">
        <ele>438.4</ele>
        <time>2024-08-05T11:13:44Z</time>
      </trkpt>
      <trkpt lat="47.15648" lon="5.93993">
        <ele>438.4</ele>
        <time>2024-08-05T11:13:45Z</time>
      </trkpt>
      <trkpt lat="47.15648" lon="5.93993">
        <ele>438.4</ele>
        <time>2024-08-05T11:13:46Z</time>
      </trkpt>
      <trkpt lat="47.15648" lon="5.93993">
        <ele>438.4</ele>
        <time>2024-08-05T11:13:47Z</time>
      </trkpt>
      <trkpt lat="47.15648" lon="5.93993">
        <ele>438.4</ele>
        <time>2024-08-05T11:13:48Z</time>
      </trkpt>
      <trkpt lat="47.15648" lon="5.93993">
        <ele>438.4</ele>
        <time>2024-08-05T11:13:49Z</time>
      </trkpt>
      <trkpt lat="47.15648" lon="5.93993">
        <ele>438.2</ele>
        <time>2024-08-05T11:13:50Z</time>
      </trkpt>
      <trkpt lat="47.15648" lon="5.93993">
        <ele>438.4</ele>
        <time>2024-08-05T11:13:51Z</time>
      </trkpt>
      <trkpt lat="47.15648" lon="5.93993">
        <ele>438.4</ele>
        <time>2024-08-05T11:13:52Z</time>
      </trkpt>
      <trkpt lat="47.15648" lon="5.93993">
        <ele>438.4</ele>
        <time>2024-08-05T11:13:53Z</time>
      </trkpt>
      <trkpt lat="47.15648" lon="5.93993">
        <ele>438.4</ele>
        <time>2024-08-05T11:13:54Z</time>
      </trkpt>
      <trkpt lat="47.15648" lon="5.93993">
        <ele>438.4</ele>
        <time>2024-08-05T11:13:55Z</time>
      </trkpt>
      <trkpt lat="47.15648" lon="5.93993">
        <ele>438.6</ele>
        <time>2024-08-05T11:13:56Z</time>
      </trkpt>
      <trkpt lat="47.15648" lon="5.93993">
        <ele>438.6</ele>
        <time>2024-08-05T11:13:57Z</time>
      </trkpt>
      <trkpt lat="47.15648" lon="5.93993">
        <ele>438.4</ele>
        <time>2024-08-05T11:13:58Z</time>
      </trkpt>
      <trkpt lat="47.15648" lon="5.93993">
        <ele>438.4</ele>
        <time>2024-08-05T11:13:59Z</time>
      </trkpt>
      <trkpt lat="47.15648" lon="5.93993">
        <ele>438.4</ele>
        <time>2024-08-05T11:14:00Z</time>
      </trkpt>
      <trkpt lat="47.15648" lon="5.93993">
        <ele>438.6</ele>
        <time>2024-08-05T11:14:01Z</time>
      </trkpt>
      <trkpt lat="47.15648" lon="5.93993">
        <ele>438.6</ele>
        <time>2024-08-05T11:14:02Z</time>
      </trkpt>
      <trkpt lat="47.15648" lon="5.93993">
        <ele>438.6</ele>
        <time>2024-08-05T11:14:03Z</time>
      </trkpt>
      <trkpt lat="47.15648" lon="5.93993">
        <ele>438.8</ele>
        <time>2024-08-05T11:14:04Z</time>
      </trkpt>
      <trkpt lat="47.15648" lon="5.93993">
        <ele>438.8</ele>
        <time>2024-08-05T11:14:05Z</time>
      </trkpt>
      <trkpt lat="47.15648" lon="5.93993">
        <ele>438.8</ele>
        <time>2024-08-05T11:14:06Z</time>
      </trkpt>
      <trkpt lat="47.15648" lon="5.93993">
        <ele>438.8</ele>
        <time>2024-08-05T11:14:07Z</time>
      </trkpt>
      <trkpt lat="47.15648" lon="5.93993">
        <ele>438.8</ele>
        <time>2024-08-05T11:14:08Z</time>
      </trkpt>
      <trkpt lat="47.15648" lon="5.93993">
        <ele>438.8</ele>
        <time>2024-08-05T11:14:09Z</time>
      </trkpt>
      <trkpt lat="47.15648" lon="5.93993">
        <ele>438.8</ele>
        <time>2024-08-05T11:14:10Z</time>
      </trkpt>
      <trkpt lat="47.15648" lon="5.93993">
        <ele>438.8</ele>
        <time>2024-08-05T11:14:11Z</time>
      </trkpt>
      <trkpt lat="47.15648" lon="5.93993">
        <ele>438.8</ele>
        <time>2024-08-05T11:14:12Z</time>
      </trkpt>
      <trkpt lat="47.15648" lon="5.93993">
        <ele>438.8</ele>
        <time>2024-08-05T11:14:13Z</time>
      </trkpt>
      <trkpt lat="47.15648" lon="5.93993">
        <ele>438.8</ele>
        <time>2024-08-05T11:14:14Z</time>
      </trkpt>
      <trkpt lat="47.15648" lon="5.93993">
        <ele>438.8</ele>
        <time>2024-08-05T11:14:15Z</time>
      </trkpt>
      <trkpt lat="47.15648" lon="5.93993">
        <ele>438.8</ele>
        <time>2024-08-05T11:14:16Z</time>
      </trkpt>
      <trkpt lat="47.15648" lon="5.93993">
        <ele>438.8</ele>
        <time>2024-08-05T11:14:17Z</time>
      </trkpt>
      <trkpt lat="47.15648" lon="5.93993">
        <ele>438.8</ele>
        <time>2024-08-05T11:14:18Z</time>
      </trkpt>
      <trkpt lat="47.15648" lon="5.93993">
        <ele>438.8</ele>
        <time>2024-08-05T11:14:19Z</time>
      </trkpt>
      <trkpt lat="47.15648" lon="5.93993">
        <ele>438.6</ele>
        <time>2024-08-05T11:14:20Z</time>
      </trkpt>
      <trkpt lat="47.15648" lon="5.93993">
        <ele>438.8</ele>
        <time>2024-08-05T11:14:21Z</time>
      </trkpt>
      <trkpt lat="47.15648" lon="5.93993">
        <ele>438.8</ele>
        <time>2024-08-05T11:14:22Z</time>
      </trkpt>
      <trkpt lat="47.15648" lon="5.93993">
        <ele>438.8</ele>
        <time>2024-08-05T11:14:23Z</time>
      </trkpt>
      <trkpt lat="47.15648" lon="5.93993">
        <ele>438.6</ele>
        <time>2024-08-05T11:14:24Z</time>
      </trkpt>
      <trkpt lat="47.15648" lon="5.93993">
        <ele>438.6</ele>
        <time>2024-08-05T11:14:25Z</time>
      </trkpt>
      <trkpt lat="47.15648" lon="5.93993">
        <ele>438.6</ele>
        <time>2024-08-05T11:14:26Z</time>
      </trkpt>
      <trkpt lat="47.15648" lon="5.93993">
        <ele>438.6</ele>
        <time>2024-08-05T11:14:27Z</time>
      </trkpt>
      <trkpt lat="47.15648" lon="5.93993">
        <ele>438.6</ele>
        <time>2024-08-05T11:14:28Z</time>
      </trkpt>
      <trkpt lat="47.15648" lon="5.93993">
        <ele>438.4</ele>
        <time>2024-08-05T11:14:29Z</time>
      </trkpt>
      <trkpt lat="47.15648" lon="5.93993">
        <ele>438.4</ele>
        <time>2024-08-05T11:14:30Z</time>
      </trkpt>
      <trkpt lat="47.15648" lon="5.93992">
        <ele>438.6</ele>
        <time>2024-08-05T11:14:31Z</time>
      </trkpt>
      <trkpt lat="47.15648" lon="5.93992">
        <ele>438.6</ele>
        <time>2024-08-05T11:14:32Z</time>
      </trkpt>
      <trkpt lat="47.15648" lon="5.93992">
        <ele>438.6</ele>
        <time>2024-08-05T11:14:33Z</time>
      </trkpt>
      <trkpt lat="47.15648" lon="5.93992">
        <ele>438.6</ele>
        <time>2024-08-05T11:14:34Z</time>
      </trkpt>
      <trkpt lat="47.15648" lon="5.93992">
        <ele>438.6</ele>
        <time>2024-08-05T11:14:35Z</time>
      </trkpt>
      <trkpt lat="47.15648" lon="5.93993">
        <ele>438.6</ele>
        <time>2024-08-05T11:14:36Z</time>
      </trkpt>
      <trkpt lat="47.15648" lon="5.93993">
        <ele>438.6</ele>
        <time>2024-08-05T11:14:37Z</time>
      </trkpt>
      <trkpt lat="47.15648" lon="5.93993">
        <ele>438.6</ele>
        <time>2024-08-05T11:14:38Z</time>
      </trkpt>
      <trkpt lat="47.15648" lon="5.93993">
        <ele>438.4</ele>
        <time>2024-08-05T11:14:39Z</time>
      </trkpt>
      <trkpt lat="47.15648" lon="5.93993">
        <ele>438.6</ele>
        <time>2024-08-05T11:14:40Z</time>
      </trkpt>
      <trkpt lat="47.15648" lon="5.93993">
        <ele>438.4</ele>
        <time>2024-08-05T11:14:41Z</time>
      </trkpt>
      <trkpt lat="47.15648" lon="5.93993">
        <ele>438.4</ele>
        <time>2024-08-05T11:14:42Z</time>
      </trkpt>
      <trkpt lat="47.15648" lon="5.93993">
        <ele>438.4</ele>
        <time>2024-08-05T11:14:43Z</time>
      </trkpt>
      <trkpt lat="47.15648" lon="5.93993">
        <ele>438.6</ele>
        <time>2024-08-05T11:14:44Z</time>
      </trkpt>
      <trkpt lat="47.15648" lon="5.93993">
        <ele>438.6</ele>
        <time>2024-08-05T11:14:45Z</time>
      </trkpt>
      <trkpt lat="47.15648" lon="5.93993">
        <ele>438.6</ele>
        <time>2024-08-05T11:14:46Z</time>
      </trkpt>
      <trkpt lat="47.15648" lon="5.93992">
        <ele>438.4</ele>
        <time>2024-08-05T11:14:47Z</time>
      </trkpt>
      <trkpt lat="47.15648" lon="5.93992">
        <ele>438.6</ele>
        <time>2024-08-05T11:14:48Z</time>
      </trkpt>
      <trkpt lat="47.15648" lon="5.93992">
        <ele>438.4</ele>
        <time>2024-08-05T11:14:49Z</time>
      </trkpt>
      <trkpt lat="47.15648" lon="5.93992">
        <ele>438.4</ele>
        <time>2024-08-05T11:14:50Z</time>
      </trkpt>
      <trkpt lat="47.15648" lon="5.93992">
        <ele>438.4</ele>
        <time>2024-08-05T11:14:51Z</time>
      </trkpt>
      <trkpt lat="47.15648" lon="5.93992">
        <ele>438.4</ele>
        <time>2024-08-05T11:14:52Z</time>
      </trkpt>
      <trkpt lat="47.15648" lon="5.93992">
        <ele>438.4</ele>
        <time>2024-08-05T11:14:53Z</time>
      </trkpt>
      <trkpt lat="47.15648" lon="5.93992">
        <ele>438.4</ele>
        <time>2024-08-05T11:14:54Z</time>
      </trkpt>
      <trkpt lat="47.15648" lon="5.93993">
        <ele>438.4</ele>
        <time>2024-08-05T11:14:55Z</time>
      </trkpt>
      <trkpt lat="47.15648" lon="5.93993">
        <ele>438.4</ele>
        <time>2024-08-05T11:14:56Z</time>
      </trkpt>
      <trkpt lat="47.15647" lon="5.93993">
        <ele>438.4</ele>
        <time>2024-08-05T11:14:57Z</time>
      </trkpt>
      <trkpt lat="47.15647" lon="5.93994">
        <ele>438.4</ele>
        <time>2024-08-05T11:14:58Z</time>
      </trkpt>
      <trkpt lat="47.15647" lon="5.93995">
        <ele>438.6</ele>
        <time>2024-08-05T11:14:59Z</time>
      </trkpt>
      <trkpt lat="47.15647" lon="5.93996">
        <ele>438.4</ele>
        <time>2024-08-05T11:15:00Z</time>
      </trkpt>
      <trkpt lat="47.15647" lon="5.93997">
        <ele>438.4</ele>
        <time>2024-08-05T11:15:01Z</time>
      </trkpt>
      <trkpt lat="47.15647" lon="5.93997">
        <ele>438.4</ele>
        <time>2024-08-05T11:15:02Z</time>
      </trkpt>
      <trkpt lat="47.15647" lon="5.93998">
        <ele>438.4</ele>
        <time>2024-08-05T11:15:03Z</time>
      </trkpt>
      <trkpt lat="47.15647" lon="5.93998">
        <ele>438.4</ele>
        <time>2024-08-05T11:15:04Z</time>
      </trkpt>
      <trkpt lat="47.15647" lon="5.93999">
        <ele>438.4</ele>
        <time>2024-08-05T11:15:05Z</time>
      </trkpt>
      <trkpt lat="47.15647" lon="5.93999">
        <ele>438.4</ele>
        <time>2024-08-05T11:15:06Z</time>
      </trkpt>
      <trkpt lat="47.15647" lon="5.94">
        <ele>438.2</ele>
        <time>2024-08-05T11:15:07Z</time>
      </trkpt>
      <trkpt lat="47.15647" lon="5.94001">
        <ele>438.2</ele>
        <time>2024-08-05T11:15:08Z</time>
      </trkpt>
      <trkpt lat="47.15648" lon="5.94003">
        <ele>438.2</ele>
        <time>2024-08-05T11:15:09Z</time>
      </trkpt>
      <trkpt lat="47.15649" lon="5.94004">
        <ele>438.2</ele>
        <time>2024-08-05T11:15:10Z</time>
      </trkpt>
      <trkpt lat="47.15652" lon="5.94005">
        <ele>438.2</ele>
        <time>2024-08-05T11:15:11Z</time>
      </trkpt>
      <trkpt lat="47.15653" lon="5.94005">
        <ele>438.2</ele>
        <time>2024-08-05T11:15:12Z</time>
      </trkpt>
      <trkpt lat="47.15656" lon="5.94006">
        <ele>438</ele>
        <time>2024-08-05T11:15:13Z</time>
      </trkpt>
      <trkpt lat="47.15657" lon="5.94007">
        <ele>438</ele>
        <time>2024-08-05T11:15:14Z</time>
      </trkpt>
      <trkpt lat="47.1566" lon="5.94008">
        <ele>438.2</ele>
        <time>2024-08-05T11:15:15Z</time>
      </trkpt>
      <trkpt lat="47.15663" lon="5.94011">
        <ele>438</ele>
        <time>2024-08-05T11:15:16Z</time>
      </trkpt>
      <trkpt lat="47.15665" lon="5.94013">
        <ele>438</ele>
        <time>2024-08-05T11:15:17Z</time>
      </trkpt>
      <trkpt lat="47.15667" lon="5.94014">
        <ele>437.8</ele>
        <time>2024-08-05T11:15:18Z</time>
      </trkpt>
      <trkpt lat="47.1567" lon="5.94017">
        <ele>437.8</ele>
        <time>2024-08-05T11:15:19Z</time>
      </trkpt>
      <trkpt lat="47.15673" lon="5.94019">
        <ele>437.8</ele>
        <time>2024-08-05T11:15:20Z</time>
      </trkpt>
      <trkpt lat="47.15675" lon="5.94022">
        <ele>437.6</ele>
        <time>2024-08-05T11:15:21Z</time>
      </trkpt>
      <trkpt lat="47.15679" lon="5.94025">
        <ele>437.6</ele>
        <time>2024-08-05T11:15:22Z</time>
      </trkpt>
      <trkpt lat="47.15681" lon="5.94028">
        <ele>437.4</ele>
        <time>2024-08-05T11:15:23Z</time>
      </trkpt>
      <trkpt lat="47.15684" lon="5.94032">
        <ele>437.6</ele>
        <time>2024-08-05T11:15:24Z</time>
      </trkpt>
      <trkpt lat="47.15686" lon="5.94035">
        <ele>437.6</ele>
        <time>2024-08-05T11:15:25Z</time>
      </trkpt>
      <trkpt lat="47.15688" lon="5.94038">
        <ele>437.2</ele>
        <time>2024-08-05T11:15:26Z</time>
      </trkpt>
      <trkpt lat="47.1569" lon="5.94041">
        <ele>437</ele>
        <time>2024-08-05T11:15:27Z</time>
      </trkpt>
      <trkpt lat="47.15691" lon="5.94045">
        <ele>436.8</ele>
        <time>2024-08-05T11:15:28Z</time>
      </trkpt>
      <trkpt lat="47.15693" lon="5.94049">
        <ele>436.6</ele>
        <time>2024-08-05T11:15:29Z</time>
      </trkpt>
      <trkpt lat="47.15694" lon="5.94053">
        <ele>436.4</ele>
        <time>2024-08-05T11:15:30Z</time>
      </trkpt>
      <trkpt lat="47.15696" lon="5.94057">
        <ele>436.4</ele>
        <time>2024-08-05T11:15:31Z</time>
      </trkpt>
      <trkpt lat="47.15698" lon="5.94061">
        <ele>436.2</ele>
        <time>2024-08-05T11:15:32Z</time>
      </trkpt>
      <trkpt lat="47.157" lon="5.94064">
        <ele>435.8</ele>
        <time>2024-08-05T11:15:33Z</time>
      </trkpt>
      <trkpt lat="47.15703" lon="5.94068">
        <ele>435.4</ele>
        <time>2024-08-05T11:15:34Z</time>
      </trkpt>
      <trkpt lat="47.15705" lon="5.94071">
        <ele>435.2</ele>
        <time>2024-08-05T11:15:35Z</time>
      </trkpt>
      <trkpt lat="47.15708" lon="5.94074">
        <ele>435</ele>
        <time>2024-08-05T11:15:36Z</time>
      </trkpt>
      <trkpt lat="47.15711" lon="5.94076">
        <ele>434.6</ele>
        <time>2024-08-05T11:15:37Z</time>
      </trkpt>
      <trkpt lat="47.15714" lon="5.94077">
        <ele>434.4</ele>
        <time>2024-08-05T11:15:38Z</time>
      </trkpt>
      <trkpt lat="47.15717" lon="5.94078">
        <ele>434.4</ele>
        <time>2024-08-05T11:15:39Z</time>
      </trkpt>
      <trkpt lat="47.1572" lon="5.94079">
        <ele>434</ele>
        <time>2024-08-05T11:15:40Z</time>
      </trkpt>
      <trkpt lat="47.15722" lon="5.9408">
        <ele>433.2</ele>
        <time>2024-08-05T11:15:41Z</time>
      </trkpt>
      <trkpt lat="47.15725" lon="5.94081">
        <ele>433</ele>
        <time>2024-08-05T11:15:42Z</time>
      </trkpt>
      <trkpt lat="47.15727" lon="5.94082">
        <ele>432.8</ele>
        <time>2024-08-05T11:15:43Z</time>
      </trkpt>
      <trkpt lat="47.1573" lon="5.94084">
        <ele>432.2</ele>
        <time>2024-08-05T11:15:44Z</time>
      </trkpt>
      <trkpt lat="47.15733" lon="5.94086">
        <ele>432.2</ele>
        <time>2024-08-05T11:15:45Z</time>
      </trkpt>
      <trkpt lat="47.15736" lon="5.94088">
        <ele>431.8</ele>
        <time>2024-08-05T11:15:46Z</time>
      </trkpt>
      <trkpt lat="47.15739" lon="5.94091">
        <ele>431.4</ele>
        <time>2024-08-05T11:15:47Z</time>
      </trkpt>
      <trkpt lat="47.15742" lon="5.94095">
        <ele>431</ele>
        <time>2024-08-05T11:15:48Z</time>
      </trkpt>
      <trkpt lat="47.15746" lon="5.941">
        <ele>430.4</ele>
        <time>2024-08-05T11:15:49Z</time>
      </trkpt>
      <trkpt lat="47.15749" lon="5.94104">
        <ele>430</ele>
        <time>2024-08-05T11:15:50Z</time>
      </trkpt>
      <trkpt lat="47.15752" lon="5.94109">
        <ele>429.6</ele>
        <time>2024-08-05T11:15:51Z</time>
      </trkpt>
      <trkpt lat="47.15755" lon="5.94114">
        <ele>428.6</ele>
        <time>2024-08-05T11:15:52Z</time>
      </trkpt>
      <trkpt lat="47.15757" lon="5.9412">
        <ele>427.8</ele>
        <time>2024-08-05T11:15:53Z</time>
      </trkpt>
      <trkpt lat="47.1576" lon="5.94126">
        <ele>427</ele>
        <time>2024-08-05T11:15:54Z</time>
      </trkpt>
      <trkpt lat="47.15762" lon="5.94133">
        <ele>426.2</ele>
        <time>2024-08-05T11:15:55Z</time>
      </trkpt>
      <trkpt lat="47.15764" lon="5.9414">
        <ele>425.6</ele>
        <time>2024-08-05T11:15:56Z</time>
      </trkpt>
      <trkpt lat="47.15767" lon="5.94148">
        <ele>425.2</ele>
        <time>2024-08-05T11:15:57Z</time>
      </trkpt>
      <trkpt lat="47.15769" lon="5.94155">
        <ele>424.6</ele>
        <time>2024-08-05T11:15:58Z</time>
      </trkpt>
      <trkpt lat="47.15773" lon="5.94164">
        <ele>423.8</ele>
        <time>2024-08-05T11:15:59Z</time>
      </trkpt>
      <trkpt lat="47.15776" lon="5.9417">
        <ele>423.4</ele>
        <time>2024-08-05T11:16:00Z</time>
      </trkpt>
      <trkpt lat="47.1578" lon="5.94177">
        <ele>423.4</ele>
        <time>2024-08-05T11:16:01Z</time>
      </trkpt>
      <trkpt lat="47.15783" lon="5.94182">
        <ele>423</ele>
        <time>2024-08-05T11:16:02Z</time>
      </trkpt>
      <trkpt lat="47.15788" lon="5.94188">
        <ele>422.2</ele>
        <time>2024-08-05T11:16:03Z</time>
      </trkpt>
      <trkpt lat="47.15792" lon="5.94193">
        <ele>421.8</ele>
        <time>2024-08-05T11:16:04Z</time>
      </trkpt>
      <trkpt lat="47.15796" lon="5.94199">
        <ele>421.2</ele>
        <time>2024-08-05T11:16:05Z</time>
      </trkpt>
      <trkpt lat="47.158" lon="5.94203">
        <ele>420.4</ele>
        <time>2024-08-05T11:16:06Z</time>
      </trkpt>
      <trkpt lat="47.15804" lon="5.94209">
        <ele>420.2</ele>
        <time>2024-08-05T11:16:07Z</time>
      </trkpt>
      <trkpt lat="47.15808" lon="5.94213">
        <ele>420</ele>
        <time>2024-08-05T11:16:08Z</time>
      </trkpt>
      <trkpt lat="47.15812" lon="5.94218">
        <ele>419.8</ele>
        <time>2024-08-05T11:16:09Z</time>
      </trkpt>
      <trkpt lat="47.15817" lon="5.94223">
        <ele>419.6</ele>
        <time>2024-08-05T11:16:10Z</time>
      </trkpt>
      <trkpt lat="47.15822" lon="5.94228">
        <ele>419.4</ele>
        <time>2024-08-05T11:16:11Z</time>
      </trkpt>
      <trkpt lat="47.15826" lon="5.94233">
        <ele>419</ele>
        <time>2024-08-05T11:16:12Z</time>
      </trkpt>
      <trkpt lat="47.1583" lon="5.94238">
        <ele>418.6</ele>
        <time>2024-08-05T11:16:13Z</time>
      </trkpt>
      <trkpt lat="47.15832" lon="5.94241">
        <ele>418.6</ele>
        <time>2024-08-05T11:16:14Z</time>
      </trkpt>
      <trkpt lat="47.15834" lon="5.94244">
        <ele>418.4</ele>
        <time>2024-08-05T11:16:15Z</time>
      </trkpt>
      <trkpt lat="47.15835" lon="5.94247">
        <ele>418.4</ele>
        <time>2024-08-05T11:16:16Z</time>
      </trkpt>
      <trkpt lat="47.15836" lon="5.94249">
        <ele>418.2</ele>
        <time>2024-08-05T11:16:17Z</time>
      </trkpt>
      <trkpt lat="47.15836" lon="5.94251">
        <ele>418</ele>
        <time>2024-08-05T11:16:18Z</time>
      </trkpt>
      <trkpt lat="47.15836" lon="5.94252">
        <ele>417.4</ele>
        <time>2024-08-05T11:16:19Z</time>
      </trkpt>
      <trkpt lat="47.15836" lon="5.94254">
        <ele>417</ele>
        <time>2024-08-05T11:16:20Z</time>
      </trkpt>
      <trkpt lat="47.15836" lon="5.94255">
        <ele>416.6</ele>
        <time>2024-08-05T11:16:21Z</time>
      </trkpt>
      <trkpt lat="47.15837" lon="5.94257">
        <ele>416.4</ele>
        <time>2024-08-05T11:16:22Z</time>
      </trkpt>
      <trkpt lat="47.15838" lon="5.94258">
        <ele>416.4</ele>
        <time>2024-08-05T11:16:23Z</time>
      </trkpt>
      <trkpt lat="47.15838" lon="5.94259">
        <ele>416</ele>
        <time>2024-08-05T11:16:24Z</time>
      </trkpt>
      <trkpt lat="47.15838" lon="5.9426">
        <ele>415.8</ele>
        <time>2024-08-05T11:16:25Z</time>
      </trkpt>
      <trkpt lat="47.15838" lon="5.94262">
        <ele>415.6</ele>
        <time>2024-08-05T11:16:26Z</time>
      </trkpt>
      <trkpt lat="47.15839" lon="5.94263">
        <ele>415.4</ele>
        <time>2024-08-05T11:16:27Z</time>
      </trkpt>
      <trkpt lat="47.15838" lon="5.94265">
        <ele>415.4</ele>
        <time>2024-08-05T11:16:28Z</time>
      </trkpt>
      <trkpt lat="47.15838" lon="5.94266">
        <ele>415.4</ele>
        <time>2024-08-05T11:16:29Z</time>
      </trkpt>
      <trkpt lat="47.15837" lon="5.94268">
        <ele>415</ele>
        <time>2024-08-05T11:16:30Z</time>
      </trkpt>
      <trkpt lat="47.15836" lon="5.9427">
        <ele>415.2</ele>
        <time>2024-08-05T11:16:31Z</time>
      </trkpt>
      <trkpt lat="47.15835" lon="5.94272">
        <ele>415</ele>
        <time>2024-08-05T11:16:32Z</time>
      </trkpt>
      <trkpt lat="47.15835" lon="5.94275">
        <ele>415</ele>
        <time>2024-08-05T11:16:33Z</time>
      </trkpt>
      <trkpt lat="47.15834" lon="5.94277">
        <ele>415</ele>
        <time>2024-08-05T11:16:34Z</time>
      </trkpt>
      <trkpt lat="47.15834" lon="5.9428">
        <ele>414.8</ele>
        <time>2024-08-05T11:16:35Z</time>
      </trkpt>
      <trkpt lat="47.15833" lon="5.94283">
        <ele>414.8</ele>
        <time>2024-08-05T11:16:36Z</time>
      </trkpt>
      <trkpt lat="47.15833" lon="5.94286">
        <ele>414.8</ele>
        <time>2024-08-05T11:16:37Z</time>
      </trkpt>
      <trkpt lat="47.15833" lon="5.94289">
        <ele>414.8</ele>
        <time>2024-08-05T11:16:38Z</time>
      </trkpt>
      <trkpt lat="47.15832" lon="5.94292">
        <ele>415</ele>
        <time>2024-08-05T11:16:39Z</time>
      </trkpt>
      <trkpt lat="47.15831" lon="5.94295">
        <ele>414.8</ele>
        <time>2024-08-05T11:16:40Z</time>
      </trkpt>
      <trkpt lat="47.1583" lon="5.943">
        <ele>414.8</ele>
        <time>2024-08-05T11:16:41Z</time>
      </trkpt>
      <trkpt lat="47.15829" lon="5.94304">
        <ele>414.8</ele>
        <time>2024-08-05T11:16:42Z</time>
      </trkpt>
      <trkpt lat="47.15827" lon="5.9431">
        <ele>414.8</ele>
        <time>2024-08-05T11:16:43Z</time>
      </trkpt>
      <trkpt lat="47.15825" lon="5.94315">
        <ele>414.6</ele>
        <time>2024-08-05T11:16:44Z</time>
      </trkpt>
      <trkpt lat="47.15823" lon="5.94319">
        <ele>414.6</ele>
        <time>2024-08-05T11:16:45Z</time>
      </trkpt>
      <trkpt lat="47.15822" lon="5.94324">
        <ele>414.2</ele>
        <time>2024-08-05T11:16:46Z</time>
      </trkpt>
      <trkpt lat="47.1582" lon="5.94329">
        <ele>414</ele>
        <time>2024-08-05T11:16:47Z</time>
      </trkpt>
      <trkpt lat="47.15818" lon="5.94334">
        <ele>413.6</ele>
        <time>2024-08-05T11:16:48Z</time>
      </trkpt>
      <trkpt lat="47.15817" lon="5.94339">
        <ele>413.4</ele>
        <time>2024-08-05T11:16:49Z</time>
      </trkpt>
      <trkpt lat="47.15816" lon="5.94344">
        <ele>413.2</ele>
        <time>2024-08-05T11:16:50Z</time>
      </trkpt>
      <trkpt lat="47.15816" lon="5.94348">
        <ele>412.8</ele>
        <time>2024-08-05T11:16:51Z</time>
      </trkpt>
      <trkpt lat="47.15816" lon="5.94353">
        <ele>412.6</ele>
        <time>2024-08-05T11:16:52Z</time>
      </trkpt>
      <trkpt lat="47.15817" lon="5.94358">
        <ele>412</ele>
        <time>2024-08-05T11:16:53Z</time>
      </trkpt>
      <trkpt lat="47.15816" lon="5.94363">
        <ele>411.8</ele>
        <time>2024-08-05T11:16:54Z</time>
      </trkpt>
      <trkpt lat="47.15816" lon="5.94368">
        <ele>411.6</ele>
        <time>2024-08-05T11:16:55Z</time>
      </trkpt>
      <trkpt lat="47.15816" lon="5.94373">
        <ele>411</ele>
        <time>2024-08-05T11:16:56Z</time>
      </trkpt>
      <trkpt lat="47.15816" lon="5.94377">
        <ele>410.6</ele>
        <time>2024-08-05T11:16:57Z</time>
      </trkpt>
      <trkpt lat="47.15816" lon="5.94382">
        <ele>410.2</ele>
        <time>2024-08-05T11:16:58Z</time>
      </trkpt>
      <trkpt lat="47.15816" lon="5.94387">
        <ele>409.8</ele>
        <time>2024-08-05T11:16:59Z</time>
      </trkpt>
      <trkpt lat="47.15817" lon="5.94392">
        <ele>409.8</ele>
        <time>2024-08-05T11:17:00Z</time>
      </trkpt>
      <trkpt lat="47.15818" lon="5.94396">
        <ele>409.4</ele>
        <time>2024-08-05T11:17:01Z</time>
      </trkpt>
      <trkpt lat="47.1582" lon="5.94401">
        <ele>409</ele>
        <time>2024-08-05T11:17:02Z</time>
      </trkpt>
      <trkpt lat="47.15822" lon="5.94406">
        <ele>408.6</ele>
        <time>2024-08-05T11:17:03Z</time>
      </trkpt>
      <trkpt lat="47.15824" lon="5.94411">
        <ele>408.2</ele>
        <time>2024-08-05T11:17:04Z</time>
      </trkpt>
      <trkpt lat="47.15826" lon="5.94416">
        <ele>408</ele>
        <time>2024-08-05T11:17:05Z</time>
      </trkpt>
      <trkpt lat="47.15829" lon="5.94421">
        <ele>407.6</ele>
        <time>2024-08-05T11:17:06Z</time>
      </trkpt>
      <trkpt lat="47.15832" lon="5.94427">
        <ele>407.6</ele>
        <time>2024-08-05T11:17:07Z</time>
      </trkpt>
      <trkpt lat="47.15834" lon="5.94431">
        <ele>407.2</ele>
        <time>2024-08-05T11:17:08Z</time>
      </trkpt>
      <trkpt lat="47.15837" lon="5.94436">
        <ele>406.8</ele>
        <time>2024-08-05T11:17:09Z</time>
      </trkpt>
      <trkpt lat="47.15839" lon="5.9444">
        <ele>406.6</ele>
        <time>2024-08-05T11:17:10Z</time>
      </trkpt>
      <trkpt lat="47.15842" lon="5.94443">
        <ele>406.4</ele>
        <time>2024-08-05T11:17:11Z</time>
      </trkpt>
      <trkpt lat="47.15844" lon="5.94447">
        <ele>406.2</ele>
        <time>2024-08-05T11:17:12Z</time>
      </trkpt>
      <trkpt lat="47.15846" lon="5.9445">
        <ele>406</ele>
        <time>2024-08-05T11:17:13Z</time>
      </trkpt>
      <trkpt lat="47.15847" lon="5.94453">
        <ele>405.8</ele>
        <time>2024-08-05T11:17:14Z</time>
      </trkpt>
      <trkpt lat="47.15848" lon="5.94457">
        <ele>405.6</ele>
        <time>2024-08-05T11:17:15Z</time>
      </trkpt>
      <trkpt lat="47.15849" lon="5.9446">
        <ele>405.4</ele>
        <time>2024-08-05T11:17:16Z</time>
      </trkpt>
      <trkpt lat="47.1585" lon="5.94463">
        <ele>405.2</ele>
        <time>2024-08-05T11:17:17Z</time>
      </trkpt>
      <trkpt lat="47.15851" lon="5.94465">
        <ele>405.2</ele>
        <time>2024-08-05T11:17:18Z</time>
      </trkpt>
      <trkpt lat="47.15853" lon="5.94467">
        <ele>404.8</ele>
        <time>2024-08-05T11:17:19Z</time>
      </trkpt>
      <trkpt lat="47.15854" lon="5.94469">
        <ele>404.8</ele>
        <time>2024-08-05T11:17:20Z</time>
      </trkpt>
      <trkpt lat="47.15854" lon="5.94473">
        <ele>404.6</ele>
        <time>2024-08-05T11:17:21Z</time>
      </trkpt>
      <trkpt lat="47.15854" lon="5.94476">
        <ele>404.6</ele>
        <time>2024-08-05T11:17:22Z</time>
      </trkpt>
      <trkpt lat="47.15854" lon="5.94479">
        <ele>404.4</ele>
        <time>2024-08-05T11:17:23Z</time>
      </trkpt>
      <trkpt lat="47.15855" lon="5.94481">
        <ele>404.2</ele>
        <time>2024-08-05T11:17:24Z</time>
      </trkpt>
      <trkpt lat="47.15856" lon="5.94484">
        <ele>404.2</ele>
        <time>2024-08-05T11:17:25Z</time>
      </trkpt>
      <trkpt lat="47.15856" lon="5.94486">
        <ele>404.2</ele>
        <time>2024-08-05T11:17:26Z</time>
      </trkpt>
      <trkpt lat="47.15857" lon="5.94489">
        <ele>404</ele>
        <time>2024-08-05T11:17:27Z</time>
      </trkpt>
      <trkpt lat="47.15858" lon="5.94491">
        <ele>403.8</ele>
        <time>2024-08-05T11:17:28Z</time>
      </trkpt>
      <trkpt lat="47.15859" lon="5.94493">
        <ele>403.8</ele>
        <time>2024-08-05T11:17:29Z</time>
      </trkpt>
      <trkpt lat="47.15859" lon="5.94495">
        <ele>403.8</ele>
        <time>2024-08-05T11:17:30Z</time>
      </trkpt>
      <trkpt lat="47.1586" lon="5.94497">
        <ele>403.4</ele>
        <time>2024-08-05T11:17:31Z</time>
      </trkpt>
      <trkpt lat="47.15861" lon="5.94499">
        <ele>403.4</ele>
        <time>2024-08-05T11:17:32Z</time>
      </trkpt>
      <trkpt lat="47.15861" lon="5.94502">
        <ele>403.2</ele>
        <time>2024-08-05T11:17:33Z</time>
      </trkpt>
      <trkpt lat="47.15861" lon="5.94504">
        <ele>403</ele>
        <time>2024-08-05T11:17:34Z</time>
      </trkpt>
      <trkpt lat="47.15861" lon="5.94507">
        <ele>402.8</ele>
        <time>2024-08-05T11:17:35Z</time>
      </trkpt>
      <trkpt lat="47.15861" lon="5.94511">
        <ele>402.8</ele>
        <time>2024-08-05T11:17:36Z</time>
      </trkpt>
      <trkpt lat="47.15861" lon="5.94514">
        <ele>402.6</ele>
        <time>2024-08-05T11:17:37Z</time>
      </trkpt>
      <trkpt lat="47.15862" lon="5.94517">
        <ele>402.4</ele>
        <time>2024-08-05T11:17:38Z</time>
      </trkpt>
      <trkpt lat="47.15863" lon="5.9452">
        <ele>402.4</ele>
        <time>2024-08-05T11:17:39Z</time>
      </trkpt>
      <trkpt lat="47.15863" lon="5.94523">
        <ele>402.2</ele>
        <time>2024-08-05T11:17:40Z</time>
      </trkpt>
      <trkpt lat="47.15863" lon="5.94526">
        <ele>402</ele>
        <time>2024-08-05T11:17:41Z</time>
      </trkpt>
      <trkpt lat="47.15862" lon="5.94529">
        <ele>401.8</ele>
        <time>2024-08-05T11:17:42Z</time>
      </trkpt>
      <trkpt lat="47.1586" lon="5.94532">
        <ele>402</ele>
        <time>2024-08-05T11:17:43Z</time>
      </trkpt>
      <trkpt lat="47.15858" lon="5.94536">
        <ele>401.8</ele>
        <time>2024-08-05T11:17:44Z</time>
      </trkpt>
      <trkpt lat="47.15857" lon="5.94538">
        <ele>401.8</ele>
        <time>2024-08-05T11:17:45Z</time>
      </trkpt>
      <trkpt lat="47.15855" lon="5.94541">
        <ele>401.6</ele>
        <time>2024-08-05T11:17:46Z</time>
      </trkpt>
      <trkpt lat="47.15854" lon="5.94544">
        <ele>401.6</ele>
        <time>2024-08-05T11:17:47Z</time>
      </trkpt>
      <trkpt lat="47.15852" lon="5.94546">
        <ele>401.6</ele>
        <time>2024-08-05T11:17:48Z</time>
      </trkpt>
      <trkpt lat="47.15851" lon="5.94548">
        <ele>401.2</ele>
        <time>2024-08-05T11:17:49Z</time>
      </trkpt>
      <trkpt lat="47.15849" lon="5.94551">
        <ele>401</ele>
        <time>2024-08-05T11:17:50Z</time>
      </trkpt>
      <trkpt lat="47.15848" lon="5.94554">
        <ele>401</ele>
        <time>2024-08-05T11:17:51Z</time>
      </trkpt>
      <trkpt lat="47.15846" lon="5.94557">
        <ele>400.8</ele>
        <time>2024-08-05T11:17:52Z</time>
      </trkpt>
      <trkpt lat="47.15845" lon="5.94559">
        <ele>400.4</ele>
        <time>2024-08-05T11:17:53Z</time>
      </trkpt>
      <trkpt lat="47.15843" lon="5.94563">
        <ele>399.8</ele>
        <time>2024-08-05T11:17:54Z</time>
      </trkpt>
      <trkpt lat="47.15842" lon="5.94565">
        <ele>399.6</ele>
        <time>2024-08-05T11:17:55Z</time>
      </trkpt>
      <trkpt lat="47.1584" lon="5.94567">
        <ele>399.2</ele>
        <time>2024-08-05T11:17:56Z</time>
      </trkpt>
      <trkpt lat="47.15839" lon="5.94569">
        <ele>398.6</ele>
        <time>2024-08-05T11:17:57Z</time>
      </trkpt>
      <trkpt lat="47.15838" lon="5.94571">
        <ele>398.4</ele>
        <time>2024-08-05T11:17:58Z</time>
      </trkpt>
      <trkpt lat="47.15837" lon="5.94574">
        <ele>397.8</ele>
        <time>2024-08-05T11:17:59Z</time>
      </trkpt>
      <trkpt lat="47.15837" lon="5.94577">
        <ele>397.4</ele>
        <time>2024-08-05T11:18:00Z</time>
      </trkpt>
      <trkpt lat="47.15838" lon="5.94581">
        <ele>396.8</ele>
        <time>2024-08-05T11:18:01Z</time>
      </trkpt>
      <trkpt lat="47.1584" lon="5.94585">
        <ele>396.4</ele>
        <time>2024-08-05T11:18:02Z</time>
      </trkpt>
      <trkpt lat="47.15842" lon="5.94589">
        <ele>395.8</ele>
        <time>2024-08-05T11:18:03Z</time>
      </trkpt>
      <trkpt lat="47.15845" lon="5.94593">
        <ele>395.4</ele>
        <time>2024-08-05T11:18:04Z</time>
      </trkpt>
      <trkpt lat="47.15846" lon="5.94597">
        <ele>395</ele>
        <time>2024-08-05T11:18:05Z</time>
      </trkpt>
      <trkpt lat="47.15849" lon="5.946">
        <ele>394.4</ele>
        <time>2024-08-05T11:18:06Z</time>
      </trkpt>
      <trkpt lat="47.1585" lon="5.94603">
        <ele>394.2</ele>
        <time>2024-08-05T11:18:07Z</time>
      </trkpt>
      <trkpt lat="47.15852" lon="5.94607">
        <ele>394</ele>
        <time>2024-08-05T11:18:08Z</time>
      </trkpt>
      <trkpt lat="47.15853" lon="5.94611">
        <ele>393.4</ele>
        <time>2024-08-05T11:18:09Z</time>
      </trkpt>
      <trkpt lat="47.15855" lon="5.94615">
        <ele>393.2</ele>
        <time>2024-08-05T11:18:10Z</time>
      </trkpt>
      <trkpt lat="47.15856" lon="5.94619">
        <ele>393</ele>
        <time>2024-08-05T11:18:11Z</time>
      </trkpt>
      <trkpt lat="47.15858" lon="5.94623">
        <ele>392.8</ele>
        <time>2024-08-05T11:18:12Z</time>
      </trkpt>
      <trkpt lat="47.1586" lon="5.94628">
        <ele>392.8</ele>
        <time>2024-08-05T11:18:13Z</time>
      </trkpt>
      <trkpt lat="47.15863" lon="5.94633">
        <ele>393</ele>
        <time>2024-08-05T11:18:14Z</time>
      </trkpt>
      <trkpt lat="47.15866" lon="5.9464">
        <ele>392.8</ele>
        <time>2024-08-05T11:18:15Z</time>
      </trkpt>
      <trkpt lat="47.15867" lon="5.94647">
        <ele>392.8</ele>
        <time>2024-08-05T11:18:16Z</time>
      </trkpt>
      <trkpt lat="47.15868" lon="5.94653">
        <ele>392.6</ele>
        <time>2024-08-05T11:18:17Z</time>
      </trkpt>
      <trkpt lat="47.15869" lon="5.9466">
        <ele>392.4</ele>
        <time>2024-08-05T11:18:18Z</time>
      </trkpt>
      <trkpt lat="47.15869" lon="5.94668">
        <ele>392.6</ele>
        <time>2024-08-05T11:18:19Z</time>
      </trkpt>
      <trkpt lat="47.1587" lon="5.94675">
        <ele>392.2</ele>
        <time>2024-08-05T11:18:20Z</time>
      </trkpt>
      <trkpt lat="47.15872" lon="5.94683">
        <ele>392.2</ele>
        <time>2024-08-05T11:18:21Z</time>
      </trkpt>
      <trkpt lat="47.15873" lon="5.94691">
        <ele>392.2</ele>
        <time>2024-08-05T11:18:22Z</time>
      </trkpt>
      <trkpt lat="47.15875" lon="5.947">
        <ele>392.2</ele>
        <time>2024-08-05T11:18:23Z</time>
      </trkpt>
      <trkpt lat="47.15877" lon="5.94708">
        <ele>392</ele>
        <time>2024-08-05T11:18:24Z</time>
      </trkpt>
      <trkpt lat="47.15879" lon="5.94715">
        <ele>391.6</ele>
        <time>2024-08-05T11:18:25Z</time>
      </trkpt>
      <trkpt lat="47.1588" lon="5.94721">
        <ele>391.2</ele>
        <time>2024-08-05T11:18:26Z</time>
      </trkpt>
      <trkpt lat="47.15882" lon="5.94727">
        <ele>390.6</ele>
        <time>2024-08-05T11:18:27Z</time>
      </trkpt>
      <trkpt lat="47.15884" lon="5.94734">
        <ele>390.4</ele>
        <time>2024-08-05T11:18:28Z</time>
      </trkpt>
      <trkpt lat="47.15887" lon="5.9474">
        <ele>389.6</ele>
        <time>2024-08-05T11:18:29Z</time>
      </trkpt>
      <trkpt lat="47.15889" lon="5.94747">
        <ele>388.8</ele>
        <time>2024-08-05T11:18:30Z</time>
      </trkpt>
      <trkpt lat="47.15891" lon="5.94754">
        <ele>388.2</ele>
        <time>2024-08-05T11:18:31Z</time>
      </trkpt>
      <trkpt lat="47.15892" lon="5.94759">
        <ele>387.6</ele>
        <time>2024-08-05T11:18:32Z</time>
      </trkpt>
      <trkpt lat="47.15893" lon="5.94762">
        <ele>387</ele>
        <time>2024-08-05T11:18:33Z</time>
      </trkpt>
      <trkpt lat="47.15894" lon="5.94765">
        <ele>386.6</ele>
        <time>2024-08-05T11:18:34Z</time>
      </trkpt>
      <trkpt lat="47.15894" lon="5.94768">
        <ele>386.6</ele>
        <time>2024-08-05T11:18:35Z</time>
      </trkpt>
      <trkpt lat="47.15895" lon="5.94771">
        <ele>386</ele>
        <time>2024-08-05T11:18:36Z</time>
      </trkpt>
      <trkpt lat="47.15896" lon="5.94773">
        <ele>385.6</ele>
        <time>2024-08-05T11:18:37Z</time>
      </trkpt>
      <trkpt lat="47.15897" lon="5.94776">
        <ele>385</ele>
        <time>2024-08-05T11:18:38Z</time>
      </trkpt>
      <trkpt lat="47.15899" lon="5.94779">
        <ele>384.6</ele>
        <time>2024-08-05T11:18:39Z</time>
      </trkpt>
      <trkpt lat="47.159" lon="5.94782">
        <ele>384.2</ele>
        <time>2024-08-05T11:18:40Z</time>
      </trkpt>
      <trkpt lat="47.15901" lon="5.94784">
        <ele>384</ele>
        <time>2024-08-05T11:18:41Z</time>
      </trkpt>
      <trkpt lat="47.15903" lon="5.94787">
        <ele>383.8</ele>
        <time>2024-08-05T11:18:42Z</time>
      </trkpt>
      <trkpt lat="47.15904" lon="5.9479">
        <ele>383.6</ele>
        <time>2024-08-05T11:18:43Z</time>
      </trkpt>
      <trkpt lat="47.15905" lon="5.94792">
        <ele>383.6</ele>
        <time>2024-08-05T11:18:44Z</time>
      </trkpt>
      <trkpt lat="47.15905" lon="5.94794">
        <ele>383.6</ele>
        <time>2024-08-05T11:18:45Z</time>
      </trkpt>
      <trkpt lat="47.15906" lon="5.94796">
        <ele>383.4</ele>
        <time>2024-08-05T11:18:46Z</time>
      </trkpt>
      <trkpt lat="47.15907" lon="5.94798">
        <ele>383.4</ele>
        <time>2024-08-05T11:18:47Z</time>
      </trkpt>
      <trkpt lat="47.15908" lon="5.948">
        <ele>383.4</ele>
        <time>2024-08-05T11:18:48Z</time>
      </trkpt>
      <trkpt lat="47.15909" lon="5.94803">
        <ele>383.4</ele>
        <time>2024-08-05T11:18:49Z</time>
      </trkpt>
      <trkpt lat="47.1591" lon="5.94805">
        <ele>383.4</ele>
        <time>2024-08-05T11:18:50Z</time>
      </trkpt>
      <trkpt lat="47.15912" lon="5.94808">
        <ele>383.4</ele>
        <time>2024-08-05T11:18:51Z</time>
      </trkpt>
      <trkpt lat="47.15913" lon="5.9481">
        <ele>383.4</ele>
        <time>2024-08-05T11:18:52Z</time>
      </trkpt>
      <trkpt lat="47.15914" lon="5.94812">
        <ele>383.6</ele>
        <time>2024-08-05T11:18:53Z</time>
      </trkpt>
      <trkpt lat="47.15915" lon="5.94814">
        <ele>383.4</ele>
        <time>2024-08-05T11:18:54Z</time>
      </trkpt>
      <trkpt lat="47.15917" lon="5.94816">
        <ele>383.6</ele>
        <time>2024-08-05T11:18:55Z</time>
      </trkpt>
      <trkpt lat="47.15919" lon="5.94819">
        <ele>383.6</ele>
        <time>2024-08-05T11:18:56Z</time>
      </trkpt>
      <trkpt lat="47.15921" lon="5.94822">
        <ele>383.6</ele>
        <time>2024-08-05T11:18:57Z</time>
      </trkpt>
      <trkpt lat="47.15923" lon="5.94825">
        <ele>383.6</ele>
        <time>2024-08-05T11:18:58Z</time>
      </trkpt>
      <trkpt lat="47.15925" lon="5.94829">
        <ele>383.4</ele>
        <time>2024-08-05T11:18:59Z</time>
      </trkpt>
      <trkpt lat="47.15927" lon="5.94833">
        <ele>383.4</ele>
        <time>2024-08-05T11:19:00Z</time>
      </trkpt>
      <trkpt lat="47.1593" lon="5.94838">
        <ele>383.4</ele>
        <time>2024-08-05T11:19:01Z</time>
      </trkpt>
      <trkpt lat="47.15932" lon="5.94842">
        <ele>383.4</ele>
        <time>2024-08-05T11:19:02Z</time>
      </trkpt>
      <trkpt lat="47.15934" lon="5.94847">
        <ele>383.4</ele>
        <time>2024-08-05T11:19:03Z</time>
      </trkpt>
      <trkpt lat="47.15935" lon="5.94852">
        <ele>383.4</ele>
        <time>2024-08-05T11:19:04Z</time>
      </trkpt>
      <trkpt lat="47.15937" lon="5.94856">
        <ele>383.4</ele>
        <time>2024-08-05T11:19:05Z</time>
      </trkpt>
      <trkpt lat="47.15938" lon="5.9486">
        <ele>383.4</ele>
        <time>2024-08-05T11:19:06Z</time>
      </trkpt>
      <trkpt lat="47.15939" lon="5.94863">
        <ele>383.4</ele>
        <time>2024-08-05T11:19:07Z</time>
      </trkpt>
      <trkpt lat="47.1594" lon="5.94866">
        <ele>383.2</ele>
        <time>2024-08-05T11:19:08Z</time>
      </trkpt>
      <trkpt lat="47.15942" lon="5.94869">
        <ele>383.2</ele>
        <time>2024-08-05T11:19:09Z</time>
      </trkpt>
      <trkpt lat="47.15943" lon="5.94873">
        <ele>383.2</ele>
        <time>2024-08-05T11:19:10Z</time>
      </trkpt>
      <trkpt lat="47.15944" lon="5.94876">
        <ele>383</ele>
        <time>2024-08-05T11:19:11Z</time>
      </trkpt>
      <trkpt lat="47.15946" lon="5.94881">
        <ele>382.6</ele>
        <time>2024-08-05T11:19:12Z</time>
      </trkpt>
      <trkpt lat="47.15948" lon="5.94885">
        <ele>382.2</ele>
        <time>2024-08-05T11:19:13Z</time>
      </trkpt>
      <trkpt lat="47.1595" lon="5.94889">
        <ele>382.2</ele>
        <time>2024-08-05T11:19:14Z</time>
      </trkpt>
      <trkpt lat="47.15951" lon="5.94894">
        <ele>382</ele>
        <time>2024-08-05T11:19:15Z</time>
      </trkpt>
      <trkpt lat="47.15952" lon="5.94899">
        <ele>382</ele>
        <time>2024-08-05T11:19:16Z</time>
      </trkpt>
      <trkpt lat="47.15953" lon="5.94904">
        <ele>381.8</ele>
        <time>2024-08-05T11:19:17Z</time>
      </trkpt>
      <trkpt lat="47.15954" lon="5.94908">
        <ele>381.8</ele>
        <time>2024-08-05T11:19:18Z</time>
      </trkpt>
      <trkpt lat="47.15955" lon="5.94912">
        <ele>381.8</ele>
        <time>2024-08-05T11:19:19Z</time>
      </trkpt>
      <trkpt lat="47.15957" lon="5.94916">
        <ele>381.6</ele>
        <time>2024-08-05T11:19:20Z</time>
      </trkpt>
      <trkpt lat="47.15958" lon="5.94921">
        <ele>381.8</ele>
        <time>2024-08-05T11:19:21Z</time>
      </trkpt>
      <trkpt lat="47.15959" lon="5.94926">
        <ele>381.6</ele>
        <time>2024-08-05T11:19:22Z</time>
      </trkpt>
      <trkpt lat="47.15961" lon="5.94931">
        <ele>381.6</ele>
        <time>2024-08-05T11:19:23Z</time>
      </trkpt>
      <trkpt lat="47.15962" lon="5.94937">
        <ele>381.6</ele>
        <time>2024-08-05T11:19:24Z</time>
      </trkpt>
      <trkpt lat="47.15965" lon="5.94944">
        <ele>381.6</ele>
        <time>2024-08-05T11:19:25Z</time>
      </trkpt>
      <trkpt lat="47.15967" lon="5.9495">
        <ele>381.4</ele>
        <time>2024-08-05T11:19:26Z</time>
      </trkpt>
      <trkpt lat="47.15969" lon="5.94956">
        <ele>381.2</ele>
        <time>2024-08-05T11:19:27Z</time>
      </trkpt>
      <trkpt lat="47.15971" lon="5.94962">
        <ele>381.2</ele>
        <time>2024-08-05T11:19:28Z</time>
      </trkpt>
      <trkpt lat="47.15973" lon="5.94968">
        <ele>381</ele>
        <time>2024-08-05T11:19:29Z</time>
      </trkpt>
      <trkpt lat="47.15975" lon="5.94973">
        <ele>380.8</ele>
        <time>2024-08-05T11:19:30Z</time>
      </trkpt>
      <trkpt lat="47.15978" lon="5.94979">
        <ele>380.8</ele>
        <time>2024-08-05T11:19:31Z</time>
      </trkpt>
      <trkpt lat="47.15979" lon="5.94983">
        <ele>380.8</ele>
        <time>2024-08-05T11:19:32Z</time>
      </trkpt>
      <trkpt lat="47.15981" lon="5.94987">
        <ele>380.8</ele>
        <time>2024-08-05T11:19:33Z</time>
      </trkpt>
      <trkpt lat="47.15982" lon="5.94991">
        <ele>380.8</ele>
        <time>2024-08-05T11:19:34Z</time>
      </trkpt>
      <trkpt lat="47.15984" lon="5.94993">
        <ele>380.6</ele>
        <time>2024-08-05T11:19:35Z</time>
      </trkpt>
      <trkpt lat="47.15985" lon="5.94995">
        <ele>380.4</ele>
        <time>2024-08-05T11:19:36Z</time>
      </trkpt>
      <trkpt lat="47.15987" lon="5.94998">
        <ele>380.6</ele>
        <time>2024-08-05T11:19:37Z</time>
      </trkpt>
      <trkpt lat="47.15988" lon="5.95">
        <ele>380.4</ele>
        <time>2024-08-05T11:19:38Z</time>
      </trkpt>
      <trkpt lat="47.15989" lon="5.95003">
        <ele>380.2</ele>
        <time>2024-08-05T11:19:39Z</time>
      </trkpt>
      <trkpt lat="47.15991" lon="5.95007">
        <ele>380</ele>
        <time>2024-08-05T11:19:40Z</time>
      </trkpt>
      <trkpt lat="47.15993" lon="5.95012">
        <ele>380</ele>
        <time>2024-08-05T11:19:41Z</time>
      </trkpt>
      <trkpt lat="47.15995" lon="5.95016">
        <ele>380</ele>
        <time>2024-08-05T11:19:42Z</time>
      </trkpt>
      <trkpt lat="47.15996" lon="5.9502">
        <ele>379.8</ele>
        <time>2024-08-05T11:19:43Z</time>
      </trkpt>
      <trkpt lat="47.15999" lon="5.95023">
        <ele>380</ele>
        <time>2024-08-05T11:19:44Z</time>
      </trkpt>
      <trkpt lat="47.16001" lon="5.95027">
        <ele>379.8</ele>
        <time>2024-08-05T11:19:45Z</time>
      </trkpt>
      <trkpt lat="47.16002" lon="5.95029">
        <ele>379.6</ele>
        <time>2024-08-05T11:19:46Z</time>
      </trkpt>
      <trkpt lat="47.16003" lon="5.95032">
        <ele>379.8</ele>
        <time>2024-08-05T11:19:47Z</time>
      </trkpt>
      <trkpt lat="47.16005" lon="5.95035">
        <ele>379.6</ele>
        <time>2024-08-05T11:19:48Z</time>
      </trkpt>
      <trkpt lat="47.16006" lon="5.95038">
        <ele>379.8</ele>
        <time>2024-08-05T11:19:49Z</time>
      </trkpt>
      <trkpt lat="47.16008" lon="5.95041">
        <ele>379.8</ele>
        <time>2024-08-05T11:19:50Z</time>
      </trkpt>
      <trkpt lat="47.16011" lon="5.95044">
        <ele>379.6</ele>
        <time>2024-08-05T11:19:51Z</time>
      </trkpt>
      <trkpt lat="47.16013" lon="5.95048">
        <ele>379.8</ele>
        <time>2024-08-05T11:19:52Z</time>
      </trkpt>
      <trkpt lat="47.16015" lon="5.95052">
        <ele>379.6</ele>
        <time>2024-08-05T11:19:53Z</time>
      </trkpt>
      <trkpt lat="47.16017" lon="5.95056">
        <ele>379.6</ele>
        <time>2024-08-05T11:19:54Z</time>
      </trkpt>
      <trkpt lat="47.16019" lon="5.95061">
        <ele>379.4</ele>
        <time>2024-08-05T11:19:55Z</time>
      </trkpt>
      <trkpt lat="47.16022" lon="5.95066">
        <ele>379.4</ele>
        <time>2024-08-05T11:19:56Z</time>
      </trkpt>
      <trkpt lat="47.16024" lon="5.95072">
        <ele>379.2</ele>
        <time>2024-08-05T11:19:57Z</time>
      </trkpt>
      <trkpt lat="47.16027" lon="5.95077">
        <ele>379.2</ele>
        <time>2024-08-05T11:19:58Z</time>
      </trkpt>
      <trkpt lat="47.16029" lon="5.95083">
        <ele>379.2</ele>
        <time>2024-08-05T11:19:59Z</time>
      </trkpt>
      <trkpt lat="47.16031" lon="5.95087">
        <ele>379.2</ele>
        <time>2024-08-05T11:20:00Z</time>
      </trkpt>
      <trkpt lat="47.16033" lon="5.95091">
        <ele>379.2</ele>
        <time>2024-08-05T11:20:01Z</time>
      </trkpt>
      <trkpt lat="47.16034" lon="5.95094">
        <ele>379.2</ele>
        <time>2024-08-05T11:20:02Z</time>
      </trkpt>
      <trkpt lat="47.16035" lon="5.95098">
        <ele>379.2</ele>
        <time>2024-08-05T11:20:03Z</time>
      </trkpt>
      <trkpt lat="47.16036" lon="5.95101">
        <ele>379.2</ele>
        <time>2024-08-05T11:20:04Z</time>
      </trkpt>
      <trkpt lat="47.16035" lon="5.95105">
        <ele>379.2</ele>
        <time>2024-08-05T11:20:05Z</time>
      </trkpt>
      <trkpt lat="47.16034" lon="5.95109">
        <ele>379</ele>
        <time>2024-08-05T11:20:06Z</time>
      </trkpt>
      <trkpt lat="47.16032" lon="5.95114">
        <ele>378.8</ele>
        <time>2024-08-05T11:20:07Z</time>
      </trkpt>
      <trkpt lat="47.16031" lon="5.95119">
        <ele>378.4</ele>
        <time>2024-08-05T11:20:08Z</time>
      </trkpt>
      <trkpt lat="47.1603" lon="5.95124">
        <ele>378.2</ele>
        <time>2024-08-05T11:20:09Z</time>
      </trkpt>
      <trkpt lat="47.1603" lon="5.95128">
        <ele>377.8</ele>
        <time>2024-08-05T11:20:10Z</time>
      </trkpt>
      <trkpt lat="47.16031" lon="5.95133">
        <ele>377.8</ele>
        <time>2024-08-05T11:20:11Z</time>
      </trkpt>
      <trkpt lat="47.16033" lon="5.95137">
        <ele>377.6</ele>
        <time>2024-08-05T11:20:12Z</time>
      </trkpt>
      <trkpt lat="47.16035" lon="5.95141">
        <ele>377.6</ele>
        <time>2024-08-05T11:20:13Z</time>
      </trkpt>
      <trkpt lat="47.16038" lon="5.95145">
        <ele>377.6</ele>
        <time>2024-08-05T11:20:14Z</time>
      </trkpt>
      <trkpt lat="47.16041" lon="5.95149">
        <ele>377.4</ele>
        <time>2024-08-05T11:20:15Z</time>
      </trkpt>
      <trkpt lat="47.16044" lon="5.95152">
        <ele>377</ele>
        <time>2024-08-05T11:20:16Z</time>
      </trkpt>
      <trkpt lat="47.16047" lon="5.95155">
        <ele>376.8</ele>
        <time>2024-08-05T11:20:17Z</time>
      </trkpt>
      <trkpt lat="47.1605" lon="5.95157">
        <ele>376.4</ele>
        <time>2024-08-05T11:20:18Z</time>
      </trkpt>
      <trkpt lat="47.16052" lon="5.95159">
        <ele>376.2</ele>
        <time>2024-08-05T11:20:19Z</time>
      </trkpt>
      <trkpt lat="47.16054" lon="5.95161">
        <ele>376.2</ele>
        <time>2024-08-05T11:20:20Z</time>
      </trkpt>
      <trkpt lat="47.16055" lon="5.95161">
        <ele>376</ele>
        <time>2024-08-05T11:20:21Z</time>
      </trkpt>
      <trkpt lat="47.16056" lon="5.95162">
        <ele>375.8</ele>
        <time>2024-08-05T11:20:22Z</time>
      </trkpt>
      <trkpt lat="47.16057" lon="5.95163">
        <ele>375.8</ele>
        <time>2024-08-05T11:20:23Z</time>
      </trkpt>
      <trkpt lat="47.16057" lon="5.95164">
        <ele>375.6</ele>
        <time>2024-08-05T11:20:24Z</time>
      </trkpt>
      <trkpt lat="47.16057" lon="5.95166">
        <ele>375.6</ele>
        <time>2024-08-05T11:20:25Z</time>
      </trkpt>
      <trkpt lat="47.16057" lon="5.95169">
        <ele>375.2</ele>
        <time>2024-08-05T11:20:26Z</time>
      </trkpt>
      <trkpt lat="47.16057" lon="5.95171">
        <ele>375.2</ele>
        <time>2024-08-05T11:20:27Z</time>
      </trkpt>
      <trkpt lat="47.16057" lon="5.95174">
        <ele>375</ele>
        <time>2024-08-05T11:20:28Z</time>
      </trkpt>
      <trkpt lat="47.16057" lon="5.95176">
        <ele>374.8</ele>
        <time>2024-08-05T11:20:29Z</time>
      </trkpt>
      <trkpt lat="47.16057" lon="5.95178">
        <ele>374.6</ele>
        <time>2024-08-05T11:20:30Z</time>
      </trkpt>
      <trkpt lat="47.16056" lon="5.9518">
        <ele>374.4</ele>
        <time>2024-08-05T11:20:31Z</time>
      </trkpt>
      <trkpt lat="47.16055" lon="5.95182">
        <ele>374.4</ele>
        <time>2024-08-05T11:20:32Z</time>
      </trkpt>
      <trkpt lat="47.16054" lon="5.95184">
        <ele>374.2</ele>
        <time>2024-08-05T11:20:33Z</time>
      </trkpt>
      <trkpt lat="47.16052" lon="5.95187">
        <ele>374</ele>
        <time>2024-08-05T11:20:34Z</time>
      </trkpt>
      <trkpt lat="47.16051" lon="5.95189">
        <ele>374</ele>
        <time>2024-08-05T11:20:35Z</time>
      </trkpt>
      <trkpt lat="47.16049" lon="5.95192">
        <ele>373.6</ele>
        <time>2024-08-05T11:20:36Z</time>
      </trkpt>
      <trkpt lat="47.16048" lon="5.95196">
        <ele>373.4</ele>
        <time>2024-08-05T11:20:37Z</time>
      </trkpt>
      <trkpt lat="47.16047" lon="5.95199">
        <ele>373.2</ele>
        <time>2024-08-05T11:20:38Z</time>
      </trkpt>
      <trkpt lat="47.16046" lon="5.95203">
        <ele>373.2</ele>
        <time>2024-08-05T11:20:39Z</time>
      </trkpt>
      <trkpt lat="47.16045" lon="5.95207">
        <ele>373</ele>
        <time>2024-08-05T11:20:40Z</time>
      </trkpt>
      <trkpt lat="47.16044" lon="5.95211">
        <ele>373.2</ele>
        <time>2024-08-05T11:20:41Z</time>
      </trkpt>
      <trkpt lat="47.16042" lon="5.95215">
        <ele>373</ele>
        <time>2024-08-05T11:20:42Z</time>
      </trkpt>
      <trkpt lat="47.16041" lon="5.95218">
        <ele>373</ele>
        <time>2024-08-05T11:20:43Z</time>
      </trkpt>
      <trkpt lat="47.16039" lon="5.95222">
        <ele>373</ele>
        <time>2024-08-05T11:20:44Z</time>
      </trkpt>
      <trkpt lat="47.16038" lon="5.95226">
        <ele>373</ele>
        <time>2024-08-05T11:20:45Z</time>
      </trkpt>
      <trkpt lat="47.16035" lon="5.9523">
        <ele>373</ele>
        <time>2024-08-05T11:20:46Z</time>
      </trkpt>
      <trkpt lat="47.16032" lon="5.95233">
        <ele>373</ele>
        <time>2024-08-05T11:20:47Z</time>
      </trkpt>
      <trkpt lat="47.16028" lon="5.95235">
        <ele>373</ele>
        <time>2024-08-05T11:20:48Z</time>
      </trkpt>
      <trkpt lat="47.16024" lon="5.95237">
        <ele>372.8</ele>
        <time>2024-08-05T11:20:49Z</time>
      </trkpt>
      <trkpt lat="47.1602" lon="5.95239">
        <ele>372.6</ele>
        <time>2024-08-05T11:20:50Z</time>
      </trkpt>
      <trkpt lat="47.16015" lon="5.95241">
        <ele>372.4</ele>
        <time>2024-08-05T11:20:51Z</time>
      </trkpt>
      <trkpt lat="47.16011" lon="5.95242">
        <ele>372.4</ele>
        <time>2024-08-05T11:20:52Z</time>
      </trkpt>
      <trkpt lat="47.16007" lon="5.95243">
        <ele>372.2</ele>
        <time>2024-08-05T11:20:53Z</time>
      </trkpt>
      <trkpt lat="47.16003" lon="5.95244">
        <ele>372.2</ele>
        <time>2024-08-05T11:20:54Z</time>
      </trkpt>
      <trkpt lat="47.15999" lon="5.95244">
        <ele>371.8</ele>
        <time>2024-08-05T11:20:55Z</time>
      </trkpt>
      <trkpt lat="47.15995" lon="5.95244">
        <ele>371.8</ele>
        <time>2024-08-05T11:20:56Z</time>
      </trkpt>
      <trkpt lat="47.15991" lon="5.95244">
        <ele>371.6</ele>
        <time>2024-08-05T11:20:57Z</time>
      </trkpt>
      <trkpt lat="47.15986" lon="5.95245">
        <ele>371.2</ele>
        <time>2024-08-05T11:20:58Z</time>
      </trkpt>
      <trkpt lat="47.15981" lon="5.95245">
        <ele>370.8</ele>
        <time>2024-08-05T11:20:59Z</time>
      </trkpt>
      <trkpt lat="47.15976" lon="5.95246">
        <ele>370.6</ele>
        <time>2024-08-05T11:21:00Z</time>
      </trkpt>
      <trkpt lat="47.1597" lon="5.95246">
        <ele>370.2</ele>
        <time>2024-08-05T11:21:01Z</time>
      </trkpt>
      <trkpt lat="47.15964" lon="5.95247">
        <ele>369.6</ele>
        <time>2024-08-05T11:21:02Z</time>
      </trkpt>
      <trkpt lat="47.15958" lon="5.95248">
        <ele>369.2</ele>
        <time>2024-08-05T11:21:03Z</time>
      </trkpt>
      <trkpt lat="47.15952" lon="5.95249">
        <ele>368.8</ele>
        <time>2024-08-05T11:21:04Z</time>
      </trkpt>
      <trkpt lat="47.15946" lon="5.95251">
        <ele>368.6</ele>
        <time>2024-08-05T11:21:05Z</time>
      </trkpt>
      <trkpt lat="47.15939" lon="5.95253">
        <ele>368.4</ele>
        <time>2024-08-05T11:21:06Z</time>
      </trkpt>
      <trkpt lat="47.15933" lon="5.95255">
        <ele>368.2</ele>
        <time>2024-08-05T11:21:07Z</time>
      </trkpt>
      <trkpt lat="47.15927" lon="5.95258">
        <ele>367.8</ele>
        <time>2024-08-05T11:21:08Z</time>
      </trkpt>
      <trkpt lat="47.15921" lon="5.95261">
        <ele>367.8</ele>
        <time>2024-08-05T11:21:09Z</time>
      </trkpt>
      <trkpt lat="47.15916" lon="5.95263">
        <ele>367.6</ele>
        <time>2024-08-05T11:21:10Z</time>
      </trkpt>
      <trkpt lat="47.15912" lon="5.95266">
        <ele>367.2</ele>
        <time>2024-08-05T11:21:11Z</time>
      </trkpt>
      <trkpt lat="47.15908" lon="5.95268">
        <ele>367</ele>
        <time>2024-08-05T11:21:12Z</time>
      </trkpt>
      <trkpt lat="47.15904" lon="5.9527">
        <ele>366.6</ele>
        <time>2024-08-05T11:21:13Z</time>
      </trkpt>
      <trkpt lat="47.15901" lon="5.95273">
        <ele>366.4</ele>
        <time>2024-08-05T11:21:14Z</time>
      </trkpt>
      <trkpt lat="47.15898" lon="5.95275">
        <ele>366.2</ele>
        <time>2024-08-05T11:21:15Z</time>
      </trkpt>
      <trkpt lat="47.15896" lon="5.95277">
        <ele>366.2</ele>
        <time>2024-08-05T11:21:16Z</time>
      </trkpt>
      <trkpt lat="47.15894" lon="5.95278">
        <ele>365.8</ele>
        <time>2024-08-05T11:21:17Z</time>
      </trkpt>
      <trkpt lat="47.15893" lon="5.95279">
        <ele>365.4</ele>
        <time>2024-08-05T11:21:18Z</time>
      </trkpt>
      <trkpt lat="47.15892" lon="5.95279">
        <ele>365.2</ele>
        <time>2024-08-05T11:21:19Z</time>
      </trkpt>
      <trkpt lat="47.15892" lon="5.95279">
        <ele>364.8</ele>
        <time>2024-08-05T11:21:20Z</time>
      </trkpt>
      <trkpt lat="47.15892" lon="5.95278">
        <ele>365</ele>
        <time>2024-08-05T11:21:21Z</time>
      </trkpt>
      <trkpt lat="47.15891" lon="5.95276">
        <ele>364.8</ele>
        <time>2024-08-05T11:21:22Z</time>
      </trkpt>
      <trkpt lat="47.15891" lon="5.95274">
        <ele>364.8</ele>
        <time>2024-08-05T11:21:23Z</time>
      </trkpt>
      <trkpt lat="47.1589" lon="5.95273">
        <ele>364.4</ele>
        <time>2024-08-05T11:21:24Z</time>
      </trkpt>
      <trkpt lat="47.1589" lon="5.95272">
        <ele>364.4</ele>
        <time>2024-08-05T11:21:25Z</time>
      </trkpt>
      <trkpt lat="47.1589" lon="5.95272">
        <ele>364.4</ele>
        <time>2024-08-05T11:21:26Z</time>
      </trkpt>
      <trkpt lat="47.1589" lon="5.95272">
        <ele>364.2</ele>
        <time>2024-08-05T11:21:27Z</time>
      </trkpt>
      <trkpt lat="47.1589" lon="5.95272">
        <ele>364.2</ele>
        <time>2024-08-05T11:21:28Z</time>
      </trkpt>
      <trkpt lat="47.1589" lon="5.95272">
        <ele>364.2</ele>
        <time>2024-08-05T11:21:29Z</time>
      </trkpt>
      <trkpt lat="47.1589" lon="5.95272">
        <ele>364.2</ele>
        <time>2024-08-05T11:21:30Z</time>
      </trkpt>
      <trkpt lat="47.15891" lon="5.95272">
        <ele>364.2</ele>
        <time>2024-08-05T11:21:31Z</time>
      </trkpt>
      <trkpt lat="47.15891" lon="5.95272">
        <ele>364.2</ele>
        <time>2024-08-05T11:21:32Z</time>
      </trkpt>
      <trkpt lat="47.15891" lon="5.95272">
        <ele>364.2</ele>
        <time>2024-08-05T11:21:33Z</time>
      </trkpt>
      <trkpt lat="47.15892" lon="5.95272">
        <ele>364.4</ele>
        <time>2024-08-05T11:21:34Z</time>
      </trkpt>
      <trkpt lat="47.15892" lon="5.95272">
        <ele>364.2</ele>
        <time>2024-08-05T11:21:35Z</time>
      </trkpt>
      <trkpt lat="47.15892" lon="5.95271">
        <ele>364.2</ele>
        <time>2024-08-05T11:21:36Z</time>
      </trkpt>
      <trkpt lat="47.15892" lon="5.95271">
        <ele>364.2</ele>
        <time>2024-08-05T11:21:37Z</time>
      </trkpt>
      <trkpt lat="47.15892" lon="5.95271">
        <ele>364.2</ele>
        <time>2024-08-05T11:21:38Z</time>
      </trkpt>
      <trkpt lat="47.15892" lon="5.95271">
        <ele>364.4</ele>
        <time>2024-08-05T11:21:39Z</time>
      </trkpt>
      <trkpt lat="47.15891" lon="5.9527">
        <ele>364.4</ele>
        <time>2024-08-05T11:21:40Z</time>
      </trkpt>
      <trkpt lat="47.15891" lon="5.9527">
        <ele>364.2</ele>
        <time>2024-08-05T11:21:41Z</time>
      </trkpt>
      <trkpt lat="47.15891" lon="5.9527">
        <ele>364.2</ele>
        <time>2024-08-05T11:21:42Z</time>
      </trkpt>
      <trkpt lat="47.15891" lon="5.95269">
        <ele>364.2</ele>
        <time>2024-08-05T11:21:43Z</time>
      </trkpt>
      <trkpt lat="47.1589" lon="5.95269">
        <ele>364.2</ele>
        <time>2024-08-05T11:21:44Z</time>
      </trkpt>
      <trkpt lat="47.1589" lon="5.95268">
        <ele>364.2</ele>
        <time>2024-08-05T11:21:45Z</time>
      </trkpt>
      <trkpt lat="47.1589" lon="5.95268">
        <ele>364.2</ele>
        <time>2024-08-05T11:21:46Z</time>
      </trkpt>
      <trkpt lat="47.1589" lon="5.95268">
        <ele>364.4</ele>
        <time>2024-08-05T11:21:47Z</time>
      </trkpt>
      <trkpt lat="47.15889" lon="5.95267">
        <ele>364.4</ele>
        <time>2024-08-05T11:21:48Z</time>
      </trkpt>
      <trkpt lat="47.15889" lon="5.95267">
        <ele>364.4</ele>
        <time>2024-08-05T11:21:49Z</time>
      </trkpt>
      <trkpt lat="47.15889" lon="5.95267">
        <ele>364.2</ele>
        <time>2024-08-05T11:21:50Z</time>
      </trkpt>
      <trkpt lat="47.15889" lon="5.95267">
        <ele>364.4</ele>
        <time>2024-08-05T11:21:51Z</time>
      </trkpt>
      <trkpt lat="47.1589" lon="5.95267">
        <ele>364.2</ele>
        <time>2024-08-05T11:21:52Z</time>
      </trkpt>
      <trkpt lat="47.1589" lon="5.95268">
        <ele>364.4</ele>
        <time>2024-08-05T11:21:53Z</time>
      </trkpt>
      <trkpt lat="47.1589" lon="5.95269">
        <ele>364.4</ele>
        <time>2024-08-05T11:21:54Z</time>
      </trkpt>
      <trkpt lat="47.15891" lon="5.95269">
        <ele>364.2</ele>
        <time>2024-08-05T11:21:55Z</time>
      </trkpt>
      <trkpt lat="47.15891" lon="5.9527">
        <ele>364.2</ele>
        <time>2024-08-05T11:21:56Z</time>
      </trkpt>
      <trkpt lat="47.15891" lon="5.95272">
        <ele>364.2</ele>
        <time>2024-08-05T11:21:57Z</time>
      </trkpt>
      <trkpt lat="47.15892" lon="5.95273">
        <ele>364.2</ele>
        <time>2024-08-05T11:21:58Z</time>
      </trkpt>
      <trkpt lat="47.15894" lon="5.95274">
        <ele>364.2</ele>
        <time>2024-08-05T11:21:59Z</time>
      </trkpt>
      <trkpt lat="47.15895" lon="5.95274">
        <ele>364.2</ele>
        <time>2024-08-05T11:22:00Z</time>
      </trkpt>
      <trkpt lat="47.15898" lon="5.95273">
        <ele>364.2</ele>
        <time>2024-08-05T11:22:01Z</time>
      </trkpt>
      <trkpt lat="47.159" lon="5.95272">
        <ele>364</ele>
        <time>2024-08-05T11:22:02Z</time>
      </trkpt>
      <trkpt lat="47.15902" lon="5.9527">
        <ele>364</ele>
        <time>2024-08-05T11:22:03Z</time>
      </trkpt>
      <trkpt lat="47.15905" lon="5.95268">
        <ele>364</ele>
        <time>2024-08-05T11:22:04Z</time>
      </trkpt>
      <trkpt lat="47.15908" lon="5.95266">
        <ele>364</ele>
        <time>2024-08-05T11:22:05Z</time>
      </trkpt>
      <trkpt lat="47.15911" lon="5.95264">
        <ele>364</ele>
        <time>2024-08-05T11:22:06Z</time>
      </trkpt>
      <trkpt lat="47.15913" lon="5.95263">
        <ele>364</ele>
        <time>2024-08-05T11:22:07Z</time>
      </trkpt>
      <trkpt lat="47.15916" lon="5.95262">
        <ele>364</ele>
        <time>2024-08-05T11:22:08Z</time>
      </trkpt>
      <trkpt lat="47.15919" lon="5.95261">
        <ele>364.2</ele>
        <time>2024-08-05T11:22:09Z</time>
      </trkpt>
      <trkpt lat="47.15921" lon="5.95261">
        <ele>364.2</ele>
        <time>2024-08-05T11:22:10Z</time>
      </trkpt>
      <trkpt lat="47.15923" lon="5.95262">
        <ele>364.2</ele>
        <time>2024-08-05T11:22:11Z</time>
      </trkpt>
      <trkpt lat="47.15925" lon="5.95264">
        <ele>364.2</ele>
        <time>2024-08-05T11:22:12Z</time>
      </trkpt>
      <trkpt lat="47.15927" lon="5.95267">
        <ele>364.2</ele>
        <time>2024-08-05T11:22:13Z</time>
      </trkpt>
      <trkpt lat="47.15929" lon="5.9527">
        <ele>364.2</ele>
        <time>2024-08-05T11:22:14Z</time>
      </trkpt>
      <trkpt lat="47.1593" lon="5.95273">
        <ele>364.2</ele>
        <time>2024-08-05T11:22:15Z</time>
      </trkpt>
      <trkpt lat="47.15931" lon="5.95276">
        <ele>364.2</ele>
        <time>2024-08-05T11:22:16Z</time>
      </trkpt>
      <trkpt lat="47.15932" lon="5.95278">
        <ele>364.2</ele>
        <time>2024-08-05T11:22:17Z</time>
      </trkpt>
      <trkpt lat="47.15932" lon="5.95281">
        <ele>364.2</ele>
        <time>2024-08-05T11:22:18Z</time>
      </trkpt>
      <trkpt lat="47.15931" lon="5.95283">
        <ele>364</ele>
        <time>2024-08-05T11:22:19Z</time>
      </trkpt>
      <trkpt lat="47.15931" lon="5.95284">
        <ele>364.2</ele>
        <time>2024-08-05T11:22:20Z</time>
      </trkpt>
      <trkpt lat="47.15931" lon="5.95286">
        <ele>364.2</ele>
        <time>2024-08-05T11:22:21Z</time>
      </trkpt>
      <trkpt lat="47.15931" lon="5.95288">
        <ele>364.2</ele>
        <time>2024-08-05T11:22:22Z</time>
      </trkpt>
      <trkpt lat="47.15931" lon="5.9529">
        <ele>364.2</ele>
        <time>2024-08-05T11:22:23Z</time>
      </trkpt>
      <trkpt lat="47.15931" lon="5.95291">
        <ele>364.2</ele>
        <time>2024-08-05T11:22:24Z</time>
      </trkpt>
      <trkpt lat="47.15931" lon="5.95294">
        <ele>364.2</ele>
        <time>2024-08-05T11:22:25Z</time>
      </trkpt>
      <trkpt lat="47.1593" lon="5.95297">
        <ele>364.4</ele>
        <time>2024-08-05T11:22:26Z</time>
      </trkpt>
      <trkpt lat="47.1593" lon="5.95299">
        <ele>364.4</ele>
        <time>2024-08-05T11:22:27Z</time>
      </trkpt>
      <trkpt lat="47.1593" lon="5.95301">
        <ele>364.2</ele>
        <time>2024-08-05T11:22:28Z</time>
      </trkpt>
      <trkpt lat="47.1593" lon="5.95304">
        <ele>364.2</ele>
        <time>2024-08-05T11:22:29Z</time>
      </trkpt>
      <trkpt lat="47.1593" lon="5.95306">
        <ele>364.4</ele>
        <time>2024-08-05T11:22:30Z</time>
      </trkpt>
      <trkpt lat="47.1593" lon="5.95307">
        <ele>364.4</ele>
        <time>2024-08-05T11:22:31Z</time>
      </trkpt>
      <trkpt lat="47.1593" lon="5.95309">
        <ele>364.6</ele>
        <time>2024-08-05T11:22:32Z</time>
      </trkpt>
      <trkpt lat="47.1593" lon="5.95311">
        <ele>365</ele>
        <time>2024-08-05T11:22:33Z</time>
      </trkpt>
      <trkpt lat="47.1593" lon="5.95313">
        <ele>365.6</ele>
        <time>2024-08-05T11:22:34Z</time>
      </trkpt>
      <trkpt lat="47.1593" lon="5.95315">
        <ele>366</ele>
        <time>2024-08-05T11:22:35Z</time>
      </trkpt>
      <trkpt lat="47.1593" lon="5.95317">
        <ele>366.2</ele>
        <time>2024-08-05T11:22:36Z</time>
      </trkpt>
      <trkpt lat="47.1593" lon="5.95318">
        <ele>366.6</ele>
        <time>2024-08-05T11:22:37Z</time>
      </trkpt>
      <trkpt lat="47.1593" lon="5.9532">
        <ele>366.6</ele>
        <time>2024-08-05T11:22:38Z</time>
      </trkpt>
      <trkpt lat="47.15931" lon="5.95321">
        <ele>366.6</ele>
        <time>2024-08-05T11:22:39Z</time>
      </trkpt>
      <trkpt lat="47.15931" lon="5.95323">
        <ele>366.8</ele>
        <time>2024-08-05T11:22:40Z</time>
      </trkpt>
      <trkpt lat="47.15932" lon="5.95324">
        <ele>367.2</ele>
        <time>2024-08-05T11:22:41Z</time>
      </trkpt>
      <trkpt lat="47.15932" lon="5.95325">
        <ele>367.6</ele>
        <time>2024-08-05T11:22:42Z</time>
      </trkpt>
      <trkpt lat="47.15933" lon="5.95327">
        <ele>367.8</ele>
        <time>2024-08-05T11:22:43Z</time>
      </trkpt>
      <trkpt lat="47.15933" lon="5.95329">
        <ele>368</ele>
        <time>2024-08-05T11:22:44Z</time>
      </trkpt>
      <trkpt lat="47.15934" lon="5.95331">
        <ele>368.4</ele>
        <time>2024-08-05T11:22:45Z</time>
      </trkpt>
      <trkpt lat="47.15935" lon="5.95333">
        <ele>368.6</ele>
        <time>2024-08-05T11:22:46Z</time>
      </trkpt>
      <trkpt lat="47.15936" lon="5.95336">
        <ele>368.6</ele>
        <time>2024-08-05T11:22:47Z</time>
      </trkpt>
      <trkpt lat="47.15936" lon="5.95338">
        <ele>368.8</ele>
        <time>2024-08-05T11:22:48Z</time>
      </trkpt>
      <trkpt lat="47.15937" lon="5.95339">
        <ele>368.8</ele>
        <time>2024-08-05T11:22:49Z</time>
      </trkpt>
      <trkpt lat="47.15938" lon="5.95341">
        <ele>369.2</ele>
        <time>2024-08-05T11:22:50Z</time>
      </trkpt>
      <trkpt lat="47.15939" lon="5.95343">
        <ele>369.4</ele>
        <time>2024-08-05T11:22:51Z</time>
      </trkpt>
      <trkpt lat="47.1594" lon="5.95345">
        <ele>369.4</ele>
        <time>2024-08-05T11:22:52Z</time>
      </trkpt>
      <trkpt lat="47.1594" lon="5.95348">
        <ele>369.8</ele>
        <time>2024-08-05T11:22:53Z</time>
      </trkpt>
      <trkpt lat="47.15941" lon="5.9535">
        <ele>369.8</ele>
        <time>2024-08-05T11:22:54Z</time>
      </trkpt>
      <trkpt lat="47.15941" lon="5.95352">
        <ele>369.8</ele>
        <time>2024-08-05T11:22:55Z</time>
      </trkpt>
      <trkpt lat="47.15942" lon="5.95354">
        <ele>370</ele>
        <time>2024-08-05T11:22:56Z</time>
      </trkpt>
      <trkpt lat="47.15942" lon="5.95356">
        <ele>370.2</ele>
        <time>2024-08-05T11:22:57Z</time>
      </trkpt>
      <trkpt lat="47.15943" lon="5.95358">
        <ele>370.4</ele>
        <time>2024-08-05T11:22:58Z</time>
      </trkpt>
      <trkpt lat="47.15944" lon="5.95359">
        <ele>370.4</ele>
        <time>2024-08-05T11:22:59Z</time>
      </trkpt>
      <trkpt lat="47.15944" lon="5.95361">
        <ele>370.4</ele>
        <time>2024-08-05T11:23:00Z</time>
      </trkpt>
      <trkpt lat="47.15944" lon="5.95362">
        <ele>370.6</ele>
        <time>2024-08-05T11:23:01Z</time>
      </trkpt>
      <trkpt lat="47.15945" lon="5.95365">
        <ele>370.8</ele>
        <time>2024-08-05T11:23:02Z</time>
      </trkpt>
      <trkpt lat="47.15945" lon="5.95367">
        <ele>371</ele>
        <time>2024-08-05T11:23:03Z</time>
      </trkpt>
      <trkpt lat="47.15946" lon="5.95369">
        <ele>371.2</ele>
        <time>2024-08-05T11:23:04Z</time>
      </trkpt>
      <trkpt lat="47.15946" lon="5.9537">
        <ele>371.4</ele>
        <time>2024-08-05T11:23:05Z</time>
      </trkpt>
      <trkpt lat="47.15946" lon="5.95373">
        <ele>371.6</ele>
        <time>2024-08-05T11:23:06Z</time>
      </trkpt>
      <trkpt lat="47.15947" lon="5.95374">
        <ele>372</ele>
        <time>2024-08-05T11:23:07Z</time>
      </trkpt>
      <trkpt lat="47.15947" lon="5.95376">
        <ele>372</ele>
        <time>2024-08-05T11:23:08Z</time>
      </trkpt>
      <trkpt lat="47.15948" lon="5.95378">
        <ele>372.4</ele>
        <time>2024-08-05T11:23:09Z</time>
      </trkpt>
      <trkpt lat="47.15949" lon="5.95381">
        <ele>372.6</ele>
        <time>2024-08-05T11:23:10Z</time>
      </trkpt>
      <trkpt lat="47.1595" lon="5.95385">
        <ele>372.6</ele>
        <time>2024-08-05T11:23:11Z</time>
      </trkpt>
      <trkpt lat="47.15952" lon="5.95389">
        <ele>372.8</ele>
        <time>2024-08-05T11:23:12Z</time>
      </trkpt>
      <trkpt lat="47.15954" lon="5.95394">
        <ele>373.2</ele>
        <time>2024-08-05T11:23:13Z</time>
      </trkpt>
      <trkpt lat="47.15956" lon="5.95397">
        <ele>373.2</ele>
        <time>2024-08-05T11:23:14Z</time>
      </trkpt>
      <trkpt lat="47.15959" lon="5.95402">
        <ele>373.2</ele>
        <time>2024-08-05T11:23:15Z</time>
      </trkpt>
      <trkpt lat="47.15961" lon="5.95405">
        <ele>373.4</ele>
        <time>2024-08-05T11:23:16Z</time>
      </trkpt>
      <trkpt lat="47.15964" lon="5.9541">
        <ele>373.4</ele>
        <time>2024-08-05T11:23:17Z</time>
      </trkpt>
      <trkpt lat="47.15967" lon="5.95414">
        <ele>373.6</ele>
        <time>2024-08-05T11:23:18Z</time>
      </trkpt>
      <trkpt lat="47.15968" lon="5.95418">
        <ele>373.6</ele>
        <time>2024-08-05T11:23:19Z</time>
      </trkpt>
      <trkpt lat="47.1597" lon="5.95421">
        <ele>373.6</ele>
        <time>2024-08-05T11:23:20Z</time>
      </trkpt>
      <trkpt lat="47.15972" lon="5.95425">
        <ele>373.8</ele>
        <time>2024-08-05T11:23:21Z</time>
      </trkpt>
      <trkpt lat="47.15973" lon="5.95428">
        <ele>373.8</ele>
        <time>2024-08-05T11:23:22Z</time>
      </trkpt>
      <trkpt lat="47.15974" lon="5.95431">
        <ele>373.6</ele>
        <time>2024-08-05T11:23:23Z</time>
      </trkpt>
      <trkpt lat="47.15974" lon="5.95434">
        <ele>373.6</ele>
        <time>2024-08-05T11:23:24Z</time>
      </trkpt>
      <trkpt lat="47.15974" lon="5.95436">
        <ele>373.6</ele>
        <time>2024-08-05T11:23:25Z</time>
      </trkpt>
      <trkpt lat="47.15974" lon="5.95438">
        <ele>373.6</ele>
        <time>2024-08-05T11:23:26Z</time>
      </trkpt>
      <trkpt lat="47.15974" lon="5.9544">
        <ele>373.6</ele>
        <time>2024-08-05T11:23:27Z</time>
      </trkpt>
      <trkpt lat="47.15975" lon="5.95444">
        <ele>373.4</ele>
        <time>2024-08-05T11:23:28Z</time>
      </trkpt>
      <trkpt lat="47.15974" lon="5.95447">
        <ele>373.4</ele>
        <time>2024-08-05T11:23:29Z</time>
      </trkpt>
      <trkpt lat="47.15975" lon="5.9545">
        <ele>373.6</ele>
        <time>2024-08-05T11:23:30Z</time>
      </trkpt>
      <trkpt lat="47.15975" lon="5.95454">
        <ele>373.6</ele>
        <time>2024-08-05T11:23:31Z</time>
      </trkpt>
      <trkpt lat="47.15977" lon="5.95458">
        <ele>373.6</ele>
        <time>2024-08-05T11:23:32Z</time>
      </trkpt>
      <trkpt lat="47.15978" lon="5.95462">
        <ele>373.6</ele>
        <time>2024-08-05T11:23:33Z</time>
      </trkpt>
      <trkpt lat="47.15978" lon="5.95466">
        <ele>373.4</ele>
        <time>2024-08-05T11:23:34Z</time>
      </trkpt>
      <trkpt lat="47.15979" lon="5.9547">
        <ele>373.6</ele>
        <time>2024-08-05T11:23:35Z</time>
      </trkpt>
      <trkpt lat="47.1598" lon="5.95474">
        <ele>373.6</ele>
        <time>2024-08-05T11:23:36Z</time>
      </trkpt>
      <trkpt lat="47.1598" lon="5.95477">
        <ele>373.6</ele>
        <time>2024-08-05T11:23:37Z</time>
      </trkpt>
      <trkpt lat="47.1598" lon="5.95481">
        <ele>373.6</ele>
        <time>2024-08-05T11:23:38Z</time>
      </trkpt>
      <trkpt lat="47.15979" lon="5.95484">
        <ele>373.6</ele>
        <time>2024-08-05T11:23:39Z</time>
      </trkpt>
      <trkpt lat="47.15978" lon="5.95487">
        <ele>373.6</ele>
        <time>2024-08-05T11:23:40Z</time>
      </trkpt>
      <trkpt lat="47.15978" lon="5.9549">
        <ele>373.8</ele>
        <time>2024-08-05T11:23:41Z</time>
      </trkpt>
      <trkpt lat="47.15978" lon="5.95493">
        <ele>373.6</ele>
        <time>2024-08-05T11:23:42Z</time>
      </trkpt>
      <trkpt lat="47.15979" lon="5.95495">
        <ele>373.8</ele>
        <time>2024-08-05T11:23:43Z</time>
      </trkpt>
      <trkpt lat="47.15979" lon="5.95496">
        <ele>373.8</ele>
        <time>2024-08-05T11:23:44Z</time>
      </trkpt>
      <trkpt lat="47.15976" lon="5.95495">
        <ele>373.8</ele>
        <time>2024-08-05T11:23:45Z</time>
      </trkpt>
      <trkpt lat="47.15975" lon="5.95497">
        <ele>374</ele>
        <time>2024-08-05T11:23:46Z</time>
      </trkpt>
      <trkpt lat="47.15975" lon="5.95498">
        <ele>374.2</ele>
        <time>2024-08-05T11:23:47Z</time>
      </trkpt>
      <trkpt lat="47.15975" lon="5.95502">
        <ele>374.4</ele>
        <time>2024-08-05T11:23:48Z</time>
      </trkpt>
      <trkpt lat="47.15975" lon="5.95505">
        <ele>374.4</ele>
        <time>2024-08-05T11:23:49Z</time>
      </trkpt>
      <trkpt lat="47.15976" lon="5.95508">
        <ele>374.6</ele>
        <time>2024-08-05T11:23:50Z</time>
      </trkpt>
      <trkpt lat="47.15976" lon="5.95512">
        <ele>374.6</ele>
        <time>2024-08-05T11:23:51Z</time>
      </trkpt>
      <trkpt lat="47.15977" lon="5.95514">
        <ele>374.8</ele>
        <time>2024-08-05T11:23:52Z</time>
      </trkpt>
      <trkpt lat="47.15977" lon="5.95516">
        <ele>375</ele>
        <time>2024-08-05T11:23:53Z</time>
      </trkpt>
      <trkpt lat="47.15978" lon="5.95518">
        <ele>375.2</ele>
        <time>2024-08-05T11:23:54Z</time>
      </trkpt>
      <trkpt lat="47.15978" lon="5.9552">
        <ele>375.4</ele>
        <time>2024-08-05T11:23:55Z</time>
      </trkpt>
      <trkpt lat="47.15979" lon="5.95521">
        <ele>375.8</ele>
        <time>2024-08-05T11:23:56Z</time>
      </trkpt>
      <trkpt lat="47.15979" lon="5.95523">
        <ele>376</ele>
        <time>2024-08-05T11:23:57Z</time>
      </trkpt>
      <trkpt lat="47.15979" lon="5.95524">
        <ele>376.2</ele>
        <time>2024-08-05T11:23:58Z</time>
      </trkpt>
      <trkpt lat="47.15979" lon="5.95526">
        <ele>376.4</ele>
        <time>2024-08-05T11:23:59Z</time>
      </trkpt>
      <trkpt lat="47.15978" lon="5.95527">
        <ele>376.6</ele>
        <time>2024-08-05T11:24:00Z</time>
      </trkpt>
      <trkpt lat="47.15977" lon="5.95527">
        <ele>376.8</ele>
        <time>2024-08-05T11:24:01Z</time>
      </trkpt>
      <trkpt lat="47.15974" lon="5.95526">
        <ele>377</ele>
        <time>2024-08-05T11:24:02Z</time>
      </trkpt>
      <trkpt lat="47.15971" lon="5.95526">
        <ele>377.2</ele>
        <time>2024-08-05T11:24:03Z</time>
      </trkpt>
      <trkpt lat="47.1597" lon="5.95528">
        <ele>377.4</ele>
        <time>2024-08-05T11:24:04Z</time>
      </trkpt>
      <trkpt lat="47.15969" lon="5.95531">
        <ele>377.6</ele>
        <time>2024-08-05T11:24:05Z</time>
      </trkpt>
      <trkpt lat="47.15967" lon="5.95532">
        <ele>378</ele>
        <time>2024-08-05T11:24:06Z</time>
      </trkpt>
      <trkpt lat="47.15966" lon="5.95534">
        <ele>377.8</ele>
        <time>2024-08-05T11:24:07Z</time>
      </trkpt>
      <trkpt lat="47.15965" lon="5.95534">
        <ele>377.8</ele>
        <time>2024-08-05T11:24:08Z</time>
      </trkpt>
      <trkpt lat="47.15964" lon="5.95535">
        <ele>378.2</ele>
        <time>2024-08-05T11:24:09Z</time>
      </trkpt>
      <trkpt lat="47.15963" lon="5.95536">
        <ele>378.2</ele>
        <time>2024-08-05T11:24:10Z</time>
      </trkpt>
      <trkpt lat="47.15961" lon="5.95537">
        <ele>378.4</ele>
        <time>2024-08-05T11:24:11Z</time>
      </trkpt>
      <trkpt lat="47.1596" lon="5.95537">
        <ele>378.6</ele>
        <time>2024-08-05T11:24:12Z</time>
      </trkpt>
      <trkpt lat="47.15959" lon="5.95537">
        <ele>379</ele>
        <time>2024-08-05T11:24:13Z</time>
      </trkpt>
      <trkpt lat="47.15959" lon="5.95538">
        <ele>379.2</ele>
        <time>2024-08-05T11:24:14Z</time>
      </trkpt>
      <trkpt lat="47.15957" lon="5.95537">
        <ele>379.2</ele>
        <time>2024-08-05T11:24:15Z</time>
      </trkpt>
      <trkpt lat="47.15955" lon="5.95537">
        <ele>379.4</ele>
        <time>2024-08-05T11:24:16Z</time>
      </trkpt>
      <trkpt lat="47.15954" lon="5.95538">
        <ele>379.6</ele>
        <time>2024-08-05T11:24:17Z</time>
      </trkpt>
      <trkpt lat="47.15952" lon="5.95538">
        <ele>379.8</ele>
        <time>2024-08-05T11:24:18Z</time>
      </trkpt>
      <trkpt lat="47.1595" lon="5.95537">
        <ele>380.2</ele>
        <time>2024-08-05T11:24:19Z</time>
      </trkpt>
      <trkpt lat="47.1595" lon="5.95538">
        <ele>380.4</ele>
        <time>2024-08-05T11:24:20Z</time>
      </trkpt>
      <trkpt lat="47.15949" lon="5.95538">
        <ele>380.6</ele>
        <time>2024-08-05T11:24:21Z</time>
      </trkpt>
      <trkpt lat="47.15948" lon="5.95538">
        <ele>380.8</ele>
        <time>2024-08-05T11:24:22Z</time>
      </trkpt>
      <trkpt lat="47.15947" lon="5.95538">
        <ele>381.2</ele>
        <time>2024-08-05T11:24:23Z</time>
      </trkpt>
      <trkpt lat="47.15946" lon="5.95538">
        <ele>381.6</ele>
        <time>2024-08-05T11:24:24Z</time>
      </trkpt>
      <trkpt lat="47.15945" lon="5.95539">
        <ele>381.8</ele>
        <time>2024-08-05T11:24:25Z</time>
      </trkpt>
      <trkpt lat="47.15944" lon="5.95539">
        <ele>382</ele>
        <time>2024-08-05T11:24:26Z</time>
      </trkpt>
      <trkpt lat="47.15944" lon="5.9554">
        <ele>382.4</ele>
        <time>2024-08-05T11:24:27Z</time>
      </trkpt>
      <trkpt lat="47.15942" lon="5.9554">
        <ele>382.4</ele>
        <time>2024-08-05T11:24:28Z</time>
      </trkpt>
      <trkpt lat="47.15941" lon="5.9554">
        <ele>382.8</ele>
        <time>2024-08-05T11:24:29Z</time>
      </trkpt>
      <trkpt lat="47.15939" lon="5.95538">
        <ele>382.8</ele>
        <time>2024-08-05T11:24:30Z</time>
      </trkpt>
      <trkpt lat="47.15937" lon="5.95538">
        <ele>383</ele>
        <time>2024-08-05T11:24:31Z</time>
      </trkpt>
      <trkpt lat="47.15936" lon="5.95537">
        <ele>383.2</ele>
        <time>2024-08-05T11:24:32Z</time>
      </trkpt>
      <trkpt lat="47.15935" lon="5.95536">
        <ele>383.6</ele>
        <time>2024-08-05T11:24:33Z</time>
      </trkpt>
      <trkpt lat="47.15934" lon="5.95536">
        <ele>383.6</ele>
        <time>2024-08-05T11:24:34Z</time>
      </trkpt>
      <trkpt lat="47.15932" lon="5.95535">
        <ele>384</ele>
        <time>2024-08-05T11:24:35Z</time>
      </trkpt>
      <trkpt lat="47.1593" lon="5.95534">
        <ele>384.2</ele>
        <time>2024-08-05T11:24:36Z</time>
      </trkpt>
      <trkpt lat="47.15928" lon="5.95535">
        <ele>384.4</ele>
        <time>2024-08-05T11:24:37Z</time>
      </trkpt>
      <trkpt lat="47.15926" lon="5.95534">
        <ele>384.6</ele>
        <time>2024-08-05T11:24:38Z</time>
      </trkpt>
      <trkpt lat="47.15925" lon="5.95534">
        <ele>385</ele>
        <time>2024-08-05T11:24:39Z</time>
      </trkpt>
      <trkpt lat="47.15923" lon="5.95535">
        <ele>385.2</ele>
        <time>2024-08-05T11:24:40Z</time>
      </trkpt>
      <trkpt lat="47.15922" lon="5.95534">
        <ele>385.4</ele>
        <time>2024-08-05T11:24:41Z</time>
      </trkpt>
      <trkpt lat="47.15921" lon="5.95535">
        <ele>385.6</ele>
        <time>2024-08-05T11:24:42Z</time>
      </trkpt>
      <trkpt lat="47.15919" lon="5.95535">
        <ele>385.8</ele>
        <time>2024-08-05T11:24:43Z</time>
      </trkpt>
      <trkpt lat="47.15918" lon="5.95536">
        <ele>386.2</ele>
        <time>2024-08-05T11:24:44Z</time>
      </trkpt>
      <trkpt lat="47.15917" lon="5.95536">
        <ele>386.4</ele>
        <time>2024-08-05T11:24:45Z</time>
      </trkpt>
      <trkpt lat="47.15917" lon="5.95537">
        <ele>386.6</ele>
        <time>2024-08-05T11:24:46Z</time>
      </trkpt>
      <trkpt lat="47.15916" lon="5.95538">
        <ele>386.8</ele>
        <time>2024-08-05T11:24:47Z</time>
      </trkpt>
      <trkpt lat="47.15916" lon="5.95539">
        <ele>387</ele>
        <time>2024-08-05T11:24:48Z</time>
      </trkpt>
      <trkpt lat="47.15916" lon="5.9554">
        <ele>387.4</ele>
        <time>2024-08-05T11:24:49Z</time>
      </trkpt>
      <trkpt lat="47.15916" lon="5.95541">
        <ele>387.6</ele>
        <time>2024-08-05T11:24:50Z</time>
      </trkpt>
      <trkpt lat="47.15914" lon="5.95541">
        <ele>387.8</ele>
        <time>2024-08-05T11:24:51Z</time>
      </trkpt>
      <trkpt lat="47.15914" lon="5.95542">
        <ele>387.8</ele>
        <time>2024-08-05T11:24:52Z</time>
      </trkpt>
      <trkpt lat="47.15914" lon="5.95543">
        <ele>388</ele>
        <time>2024-08-05T11:24:53Z</time>
      </trkpt>
      <trkpt lat="47.15913" lon="5.95545">
        <ele>388.2</ele>
        <time>2024-08-05T11:24:54Z</time>
      </trkpt>
      <trkpt lat="47.15912" lon="5.95545">
        <ele>388.4</ele>
        <time>2024-08-05T11:24:55Z</time>
      </trkpt>
      <trkpt lat="47.15911" lon="5.95545">
        <ele>388.6</ele>
        <time>2024-08-05T11:24:56Z</time>
      </trkpt>
      <trkpt lat="47.15911" lon="5.95545">
        <ele>389</ele>
        <time>2024-08-05T11:24:57Z</time>
      </trkpt>
      <trkpt lat="47.1591" lon="5.95546">
        <ele>389</ele>
        <time>2024-08-05T11:24:58Z</time>
      </trkpt>
      <trkpt lat="47.15909" lon="5.95546">
        <ele>389.2</ele>
        <time>2024-08-05T11:24:59Z</time>
      </trkpt>
      <trkpt lat="47.15909" lon="5.95545">
        <ele>389.4</ele>
        <time>2024-08-05T11:25:00Z</time>
      </trkpt>
      <trkpt lat="47.15907" lon="5.95545">
        <ele>389.6</ele>
        <time>2024-08-05T11:25:01Z</time>
      </trkpt>
      <trkpt lat="47.15906" lon="5.95544">
        <ele>389.6</ele>
        <time>2024-08-05T11:25:02Z</time>
      </trkpt>
      <trkpt lat="47.15906" lon="5.95545">
        <ele>389.8</ele>
        <time>2024-08-05T11:25:03Z</time>
      </trkpt>
      <trkpt lat="47.15905" lon="5.95545">
        <ele>390</ele>
        <time>2024-08-05T11:25:04Z</time>
      </trkpt>
      <trkpt lat="47.15905" lon="5.95545">
        <ele>390.4</ele>
        <time>2024-08-05T11:25:05Z</time>
      </trkpt>
      <trkpt lat="47.15904" lon="5.95545">
        <ele>390.6</ele>
        <time>2024-08-05T11:25:06Z</time>
      </trkpt>
      <trkpt lat="47.15903" lon="5.95546">
        <ele>391</ele>
        <time>2024-08-05T11:25:07Z</time>
      </trkpt>
      <trkpt lat="47.15901" lon="5.95546">
        <ele>391</ele>
        <time>2024-08-05T11:25:08Z</time>
      </trkpt>
      <trkpt lat="47.15899" lon="5.95547">
        <ele>391.4</ele>
        <time>2024-08-05T11:25:09Z</time>
      </trkpt>
      <trkpt lat="47.15898" lon="5.95548">
        <ele>391.6</ele>
        <time>2024-08-05T11:25:10Z</time>
      </trkpt>
      <trkpt lat="47.15897" lon="5.95548">
        <ele>391.6</ele>
        <time>2024-08-05T11:25:11Z</time>
      </trkpt>
      <trkpt lat="47.15896" lon="5.95549">
        <ele>391.8</ele>
        <time>2024-08-05T11:25:12Z</time>
      </trkpt>
      <trkpt lat="47.15895" lon="5.95549">
        <ele>392</ele>
        <time>2024-08-05T11:25:13Z</time>
      </trkpt>
      <trkpt lat="47.15894" lon="5.95549">
        <ele>392</ele>
        <time>2024-08-05T11:25:14Z</time>
      </trkpt>
      <trkpt lat="47.15893" lon="5.95549">
        <ele>392.4</ele>
        <time>2024-08-05T11:25:15Z</time>
      </trkpt>
      <trkpt lat="47.15891" lon="5.95549">
        <ele>392.4</ele>
        <time>2024-08-05T11:25:16Z</time>
      </trkpt>
      <trkpt lat="47.1589" lon="5.95549">
        <ele>392.8</ele>
        <time>2024-08-05T11:25:17Z</time>
      </trkpt>
      <trkpt lat="47.15889" lon="5.95549">
        <ele>393.2</ele>
        <time>2024-08-05T11:25:18Z</time>
      </trkpt>
      <trkpt lat="47.15888" lon="5.95549">
        <ele>393.2</ele>
        <time>2024-08-05T11:25:19Z</time>
      </trkpt>
      <trkpt lat="47.15887" lon="5.9555">
        <ele>393.4</ele>
        <time>2024-08-05T11:25:20Z</time>
      </trkpt>
      <trkpt lat="47.15886" lon="5.9555">
        <ele>393.6</ele>
        <time>2024-08-05T11:25:21Z</time>
      </trkpt>
      <trkpt lat="47.15885" lon="5.9555">
        <ele>394</ele>
        <time>2024-08-05T11:25:22Z</time>
      </trkpt>
      <trkpt lat="47.15884" lon="5.9555">
        <ele>394</ele>
        <time>2024-08-05T11:25:23Z</time>
      </trkpt>
      <trkpt lat="47.15882" lon="5.9555">
        <ele>394.4</ele>
        <time>2024-08-05T11:25:24Z</time>
      </trkpt>
      <trkpt lat="47.15881" lon="5.9555">
        <ele>394.6</ele>
        <time>2024-08-05T11:25:25Z</time>
      </trkpt>
      <trkpt lat="47.1588" lon="5.9555">
        <ele>394.6</ele>
        <time>2024-08-05T11:25:26Z</time>
      </trkpt>
      <trkpt lat="47.15878" lon="5.95551">
        <ele>394.8</ele>
        <time>2024-08-05T11:25:27Z</time>
      </trkpt>
      <trkpt lat="47.15877" lon="5.95553">
        <ele>395</ele>
        <time>2024-08-05T11:25:28Z</time>
      </trkpt>
      <trkpt lat="47.15875" lon="5.95553">
        <ele>395.4</ele>
        <time>2024-08-05T11:25:29Z</time>
      </trkpt>
      <trkpt lat="47.15873" lon="5.95554">
        <ele>395.8</ele>
        <time>2024-08-05T11:25:30Z</time>
      </trkpt>
      <trkpt lat="47.15871" lon="5.95554">
        <ele>395.8</ele>
        <time>2024-08-05T11:25:31Z</time>
      </trkpt>
      <trkpt lat="47.15869" lon="5.95557">
        <ele>396.2</ele>
        <time>2024-08-05T11:25:32Z</time>
      </trkpt>
      <trkpt lat="47.15867" lon="5.9556">
        <ele>396.4</ele>
        <time>2024-08-05T11:25:33Z</time>
      </trkpt>
      <trkpt lat="47.15865" lon="5.95561">
        <ele>396.6</ele>
        <time>2024-08-05T11:25:34Z</time>
      </trkpt>
      <trkpt lat="47.15862" lon="5.95562">
        <ele>396.8</ele>
        <time>2024-08-05T11:25:35Z</time>
      </trkpt>
      <trkpt lat="47.15861" lon="5.95564">
        <ele>396.8</ele>
        <time>2024-08-05T11:25:36Z</time>
      </trkpt>
      <trkpt lat="47.15858" lon="5.95565">
        <ele>396.8</ele>
        <time>2024-08-05T11:25:37Z</time>
      </trkpt>
      <trkpt lat="47.15856" lon="5.95566">
        <ele>397.2</ele>
        <time>2024-08-05T11:25:38Z</time>
      </trkpt>
      <trkpt lat="47.15854" lon="5.95568">
        <ele>397.2</ele>
        <time>2024-08-05T11:25:39Z</time>
      </trkpt>
      <trkpt lat="47.15852" lon="5.9557">
        <ele>397.4</ele>
        <time>2024-08-05T11:25:40Z</time>
      </trkpt>
      <trkpt lat="47.1585" lon="5.95571">
        <ele>397.6</ele>
        <time>2024-08-05T11:25:41Z</time>
      </trkpt>
      <trkpt lat="47.15848" lon="5.95572">
        <ele>397.6</ele>
        <time>2024-08-05T11:25:42Z</time>
      </trkpt>
      <trkpt lat="47.15846" lon="5.95573">
        <ele>397.6</ele>
        <time>2024-08-05T11:25:43Z</time>
      </trkpt>
      <trkpt lat="47.15844" lon="5.95576">
        <ele>397.8</ele>
        <time>2024-08-05T11:25:44Z</time>
      </trkpt>
      <trkpt lat="47.15843" lon="5.95578">
        <ele>397.8</ele>
        <time>2024-08-05T11:25:45Z</time>
      </trkpt>
      <trkpt lat="47.15842" lon="5.95581">
        <ele>397.8</ele>
        <time>2024-08-05T11:25:46Z</time>
      </trkpt>
      <trkpt lat="47.1584" lon="5.95582">
        <ele>398</ele>
        <time>2024-08-05T11:25:47Z</time>
      </trkpt>
      <trkpt lat="47.15838" lon="5.95584">
        <ele>397.8</ele>
        <time>2024-08-05T11:25:48Z</time>
      </trkpt>
      <trkpt lat="47.15837" lon="5.95585">
        <ele>398</ele>
        <time>2024-08-05T11:25:49Z</time>
      </trkpt>
      <trkpt lat="47.15835" lon="5.95587">
        <ele>398.2</ele>
        <time>2024-08-05T11:25:50Z</time>
      </trkpt>
      <trkpt lat="47.15835" lon="5.95591">
        <ele>398.2</ele>
        <time>2024-08-05T11:25:51Z</time>
      </trkpt>
      <trkpt lat="47.15835" lon="5.95593">
        <ele>398.2</ele>
        <time>2024-08-05T11:25:52Z</time>
      </trkpt>
      <trkpt lat="47.15835" lon="5.95597">
        <ele>398.4</ele>
        <time>2024-08-05T11:25:53Z</time>
      </trkpt>
      <trkpt lat="47.15836" lon="5.956">
        <ele>398.2</ele>
        <time>2024-08-05T11:25:54Z</time>
      </trkpt>
      <trkpt lat="47.15835" lon="5.95603">
        <ele>398.4</ele>
        <time>2024-08-05T11:25:55Z</time>
      </trkpt>
      <trkpt lat="47.15835" lon="5.95606">
        <ele>398.6</ele>
        <time>2024-08-05T11:25:56Z</time>
      </trkpt>
      <trkpt lat="47.15835" lon="5.9561">
        <ele>398.6</ele>
        <time>2024-08-05T11:25:57Z</time>
      </trkpt>
      <trkpt lat="47.15835" lon="5.95613">
        <ele>398.8</ele>
        <time>2024-08-05T11:25:58Z</time>
      </trkpt>
      <trkpt lat="47.15834" lon="5.95615">
        <ele>398.8</ele>
        <time>2024-08-05T11:25:59Z</time>
      </trkpt>
      <trkpt lat="47.15834" lon="5.95618">
        <ele>398.8</ele>
        <time>2024-08-05T11:26:00Z</time>
      </trkpt>
      <trkpt lat="47.15832" lon="5.95621">
        <ele>399.2</ele>
        <time>2024-08-05T11:26:01Z</time>
      </trkpt>
      <trkpt lat="47.15831" lon="5.95624">
        <ele>399.4</ele>
        <time>2024-08-05T11:26:02Z</time>
      </trkpt>
      <trkpt lat="47.1583" lon="5.95625">
        <ele>399.4</ele>
        <time>2024-08-05T11:26:03Z</time>
      </trkpt>
      <trkpt lat="47.15828" lon="5.95627">
        <ele>399.6</ele>
        <time>2024-08-05T11:26:04Z</time>
      </trkpt>
      <trkpt lat="47.15827" lon="5.95628">
        <ele>399.8</ele>
        <time>2024-08-05T11:26:05Z</time>
      </trkpt>
      <trkpt lat="47.15826" lon="5.95629">
        <ele>399.8</ele>
        <time>2024-08-05T11:26:06Z</time>
      </trkpt>
      <trkpt lat="47.15826" lon="5.9563">
        <ele>399.8</ele>
        <time>2024-08-05T11:26:07Z</time>
      </trkpt>
      <trkpt lat="47.15826" lon="5.95631">
        <ele>400</ele>
        <time>2024-08-05T11:26:08Z</time>
      </trkpt>
      <trkpt lat="47.15827" lon="5.95633">
        <ele>399.8</ele>
        <time>2024-08-05T11:26:09Z</time>
      </trkpt>
      <trkpt lat="47.15828" lon="5.95634">
        <ele>399.8</ele>
        <time>2024-08-05T11:26:10Z</time>
      </trkpt>
      <trkpt lat="47.15828" lon="5.95634">
        <ele>399.8</ele>
        <time>2024-08-05T11:26:11Z</time>
      </trkpt>
      <trkpt lat="47.15828" lon="5.95634">
        <ele>399.8</ele>
        <time>2024-08-05T11:26:12Z</time>
      </trkpt>
      <trkpt lat="47.15827" lon="5.95635">
        <ele>399.8</ele>
        <time>2024-08-05T11:26:13Z</time>
      </trkpt>
      <trkpt lat="47.15826" lon="5.95635">
        <ele>400</ele>
        <time>2024-08-05T11:26:14Z</time>
      </trkpt>
      <trkpt lat="47.15824" lon="5.95635">
        <ele>399.8</ele>
        <time>2024-08-05T11:26:15Z</time>
      </trkpt>
      <trkpt lat="47.15824" lon="5.95635">
        <ele>399.8</ele>
        <time>2024-08-05T11:26:16Z</time>
      </trkpt>
      <trkpt lat="47.15824" lon="5.95636">
        <ele>399.8</ele>
        <time>2024-08-05T11:26:17Z</time>
      </trkpt>
      <trkpt lat="47.15824" lon="5.95636">
        <ele>399.8</ele>
        <time>2024-08-05T11:26:18Z</time>
      </trkpt>
      <trkpt lat="47.15824" lon="5.95637">
        <ele>399.8</ele>
        <time>2024-08-05T11:26:19Z</time>
      </trkpt>
      <trkpt lat="47.15824" lon="5.95637">
        <ele>399.8</ele>
        <time>2024-08-05T11:26:20Z</time>
      </trkpt>
      <trkpt lat="47.15823" lon="5.95637">
        <ele>400</ele>
        <time>2024-08-05T11:26:21Z</time>
      </trkpt>
      <trkpt lat="47.15823" lon="5.95637">
        <ele>399.8</ele>
        <time>2024-08-05T11:26:22Z</time>
      </trkpt>
      <trkpt lat="47.15822" lon="5.95638">
        <ele>400</ele>
        <time>2024-08-05T11:26:23Z</time>
      </trkpt>
      <trkpt lat="47.15821" lon="5.95638">
        <ele>400</ele>
        <time>2024-08-05T11:26:24Z</time>
      </trkpt>
      <trkpt lat="47.15821" lon="5.95638">
        <ele>399.8</ele>
        <time>2024-08-05T11:26:25Z</time>
      </trkpt>
      <trkpt lat="47.15821" lon="5.95639">
        <ele>399.8</ele>
        <time>2024-08-05T11:26:26Z</time>
      </trkpt>
      <trkpt lat="47.15821" lon="5.95639">
        <ele>399.8</ele>
        <time>2024-08-05T11:26:27Z</time>
      </trkpt>
      <trkpt lat="47.15821" lon="5.9564">
        <ele>399.8</ele>
        <time>2024-08-05T11:26:28Z</time>
      </trkpt>
      <trkpt lat="47.15821" lon="5.9564">
        <ele>399.8</ele>
        <time>2024-08-05T11:26:29Z</time>
      </trkpt>
      <trkpt lat="47.15821" lon="5.9564">
        <ele>400</ele>
        <time>2024-08-05T11:26:30Z</time>
      </trkpt>
      <trkpt lat="47.15821" lon="5.9564">
        <ele>400</ele>
        <time>2024-08-05T11:26:31Z</time>
      </trkpt>
      <trkpt lat="47.15821" lon="5.9564">
        <ele>400</ele>
        <time>2024-08-05T11:26:32Z</time>
      </trkpt>
      <trkpt lat="47.15821" lon="5.9564">
        <ele>400</ele>
        <time>2024-08-05T11:26:33Z</time>
      </trkpt>
      <trkpt lat="47.15822" lon="5.9564">
        <ele>399.8</ele>
        <time>2024-08-05T11:26:34Z</time>
      </trkpt>
      <trkpt lat="47.15822" lon="5.9564">
        <ele>400</ele>
        <time>2024-08-05T11:26:35Z</time>
      </trkpt>
      <trkpt lat="47.15822" lon="5.9564">
        <ele>399.8</ele>
        <time>2024-08-05T11:26:36Z</time>
      </trkpt>
      <trkpt lat="47.15822" lon="5.95639">
        <ele>400</ele>
        <time>2024-08-05T11:26:37Z</time>
      </trkpt>
      <trkpt lat="47.15822" lon="5.95639">
        <ele>400</ele>
        <time>2024-08-05T11:26:38Z</time>
      </trkpt>
      <trkpt lat="47.15822" lon="5.95639">
        <ele>400</ele>
        <time>2024-08-05T11:26:39Z</time>
      </trkpt>
      <trkpt lat="47.15821" lon="5.9564">
        <ele>399.8</ele>
        <time>2024-08-05T11:26:40Z</time>
      </trkpt>
      <trkpt lat="47.15821" lon="5.9564">
        <ele>399.8</ele>
        <time>2024-08-05T11:26:41Z</time>
      </trkpt>
      <trkpt lat="47.15821" lon="5.9564">
        <ele>400</ele>
        <time>2024-08-05T11:26:42Z</time>
      </trkpt>
      <trkpt lat="47.15821" lon="5.9564">
        <ele>400</ele>
        <time>2024-08-05T11:26:43Z</time>
      </trkpt>
      <trkpt lat="47.15821" lon="5.95639">
        <ele>400</ele>
        <time>2024-08-05T11:26:44Z</time>
      </trkpt>
      <trkpt lat="47.15821" lon="5.95639">
        <ele>399.8</ele>
        <time>2024-08-05T11:26:45Z</time>
      </trkpt>
      <trkpt lat="47.15821" lon="5.95639">
        <ele>400</ele>
        <time>2024-08-05T11:26:46Z</time>
      </trkpt>
      <trkpt lat="47.15821" lon="5.95639">
        <ele>400</ele>
        <time>2024-08-05T11:26:47Z</time>
      </trkpt>
      <trkpt lat="47.15821" lon="5.95639">
        <ele>400</ele>
        <time>2024-08-05T11:26:48Z</time>
      </trkpt>
      <trkpt lat="47.15821" lon="5.95638">
        <ele>400</ele>
        <time>2024-08-05T11:26:49Z</time>
      </trkpt>
      <trkpt lat="47.15821" lon="5.95638">
        <ele>400</ele>
        <time>2024-08-05T11:26:50Z</time>
      </trkpt>
      <trkpt lat="47.15821" lon="5.95638">
        <ele>400</ele>
        <time>2024-08-05T11:26:51Z</time>
      </trkpt>
      <trkpt lat="47.15821" lon="5.95638">
        <ele>400</ele>
        <time>2024-08-05T11:26:52Z</time>
      </trkpt>
      <trkpt lat="47.15821" lon="5.95638">
        <ele>400</ele>
        <time>2024-08-05T11:26:53Z</time>
      </trkpt>
      <trkpt lat="47.15821" lon="5.95637">
        <ele>400</ele>
        <time>2024-08-05T11:26:54Z</time>
      </trkpt>
      <trkpt lat="47.1582" lon="5.95637">
        <ele>400</ele>
        <time>2024-08-05T11:26:55Z</time>
      </trkpt>
      <trkpt lat="47.15819" lon="5.95637">
        <ele>400</ele>
        <time>2024-08-05T11:26:56Z</time>
      </trkpt>
      <trkpt lat="47.15819" lon="5.95638">
        <ele>399.8</ele>
        <time>2024-08-05T11:26:57Z</time>
      </trkpt>
      <trkpt lat="47.15819" lon="5.95638">
        <ele>400</ele>
        <time>2024-08-05T11:26:58Z</time>
      </trkpt>
      <trkpt lat="47.15818" lon="5.95639">
        <ele>400</ele>
        <time>2024-08-05T11:26:59Z</time>
      </trkpt>
      <trkpt lat="47.15816" lon="5.9564">
        <ele>400</ele>
        <time>2024-08-05T11:27:00Z</time>
      </trkpt>
      <trkpt lat="47.15815" lon="5.95641">
        <ele>400</ele>
        <time>2024-08-05T11:27:01Z</time>
      </trkpt>
      <trkpt lat="47.15815" lon="5.95642">
        <ele>400</ele>
        <time>2024-08-05T11:27:02Z</time>
      </trkpt>
      <trkpt lat="47.15815" lon="5.95643">
        <ele>400</ele>
        <time>2024-08-05T11:27:03Z</time>
      </trkpt>
      <trkpt lat="47.15815" lon="5.95644">
        <ele>400</ele>
        <time>2024-08-05T11:27:04Z</time>
      </trkpt>
      <trkpt lat="47.15815" lon="5.95646">
        <ele>400</ele>
        <time>2024-08-05T11:27:05Z</time>
      </trkpt>
      <trkpt lat="47.15815" lon="5.95647">
        <ele>400</ele>
        <time>2024-08-05T11:27:06Z</time>
      </trkpt>
      <trkpt lat="47.15815" lon="5.95648">
        <ele>400.2</ele>
        <time>2024-08-05T11:27:07Z</time>
      </trkpt>
      <trkpt lat="47.15814" lon="5.95649">
        <ele>400.2</ele>
        <time>2024-08-05T11:27:08Z</time>
      </trkpt>
      <trkpt lat="47.15814" lon="5.9565">
        <ele>400</ele>
        <time>2024-08-05T11:27:09Z</time>
      </trkpt>
      <trkpt lat="47.15813" lon="5.95651">
        <ele>400.2</ele>
        <time>2024-08-05T11:27:10Z</time>
      </trkpt>
      <trkpt lat="47.15813" lon="5.95653">
        <ele>400.2</ele>
        <time>2024-08-05T11:27:11Z</time>
      </trkpt>
      <trkpt lat="47.15812" lon="5.95654">
        <ele>400.2</ele>
        <time>2024-08-05T11:27:12Z</time>
      </trkpt>
      <trkpt lat="47.15811" lon="5.95656">
        <ele>400.2</ele>
        <time>2024-08-05T11:27:13Z</time>
      </trkpt>
      <trkpt lat="47.1581" lon="5.95658">
        <ele>400.2</ele>
        <time>2024-08-05T11:27:14Z</time>
      </trkpt>
      <trkpt lat="47.15809" lon="5.95661">
        <ele>400</ele>
        <time>2024-08-05T11:27:15Z</time>
      </trkpt>
      <trkpt lat="47.15808" lon="5.95663">
        <ele>400.2</ele>
        <time>2024-08-05T11:27:16Z</time>
      </trkpt>
      <trkpt lat="47.15807" lon="5.95665">
        <ele>400.2</ele>
        <time>2024-08-05T11:27:17Z</time>
      </trkpt>
      <trkpt lat="47.15807" lon="5.95666">
        <ele>400.2</ele>
        <time>2024-08-05T11:27:18Z</time>
      </trkpt>
      <trkpt lat="47.15807" lon="5.95668">
        <ele>400</ele>
        <time>2024-08-05T11:27:19Z</time>
      </trkpt>
      <trkpt lat="47.15808" lon="5.95669">
        <ele>400.2</ele>
        <time>2024-08-05T11:27:20Z</time>
      </trkpt>
      <trkpt lat="47.15809" lon="5.95671">
        <ele>400.2</ele>
        <time>2024-08-05T11:27:21Z</time>
      </trkpt>
      <trkpt lat="47.1581" lon="5.95673">
        <ele>400.2</ele>
        <time>2024-08-05T11:27:22Z</time>
      </trkpt>
      <trkpt lat="47.15812" lon="5.95674">
        <ele>400</ele>
        <time>2024-08-05T11:27:23Z</time>
      </trkpt>
      <trkpt lat="47.15813" lon="5.95676">
        <ele>400.2</ele>
        <time>2024-08-05T11:27:24Z</time>
      </trkpt>
      <trkpt lat="47.15814" lon="5.95678">
        <ele>400.2</ele>
        <time>2024-08-05T11:27:25Z</time>
      </trkpt>
      <trkpt lat="47.15815" lon="5.95679">
        <ele>400</ele>
        <time>2024-08-05T11:27:26Z</time>
      </trkpt>
      <trkpt lat="47.15817" lon="5.95682">
        <ele>400.2</ele>
        <time>2024-08-05T11:27:27Z</time>
      </trkpt>
      <trkpt lat="47.15819" lon="5.95684">
        <ele>400.2</ele>
        <time>2024-08-05T11:27:28Z</time>
      </trkpt>
      <trkpt lat="47.15821" lon="5.95686">
        <ele>400.2</ele>
        <time>2024-08-05T11:27:29Z</time>
      </trkpt>
      <trkpt lat="47.15823" lon="5.95689">
        <ele>400.2</ele>
        <time>2024-08-05T11:27:30Z</time>
      </trkpt>
      <trkpt lat="47.15825" lon="5.95692">
        <ele>400.4</ele>
        <time>2024-08-05T11:27:31Z</time>
      </trkpt>
      <trkpt lat="47.15827" lon="5.95694">
        <ele>400.2</ele>
        <time>2024-08-05T11:27:32Z</time>
      </trkpt>
      <trkpt lat="47.1583" lon="5.95696">
        <ele>400.2</ele>
        <time>2024-08-05T11:27:33Z</time>
      </trkpt>
      <trkpt lat="47.15832" lon="5.95698">
        <ele>400.4</ele>
        <time>2024-08-05T11:27:34Z</time>
      </trkpt>
      <trkpt lat="47.15834" lon="5.95698">
        <ele>400.4</ele>
        <time>2024-08-05T11:27:35Z</time>
      </trkpt>
      <trkpt lat="47.15836" lon="5.95699">
        <ele>400.4</ele>
        <time>2024-08-05T11:27:36Z</time>
      </trkpt>
      <trkpt lat="47.15838" lon="5.95699">
        <ele>400.6</ele>
        <time>2024-08-05T11:27:37Z</time>
      </trkpt>
      <trkpt lat="47.1584" lon="5.957">
        <ele>400.6</ele>
        <time>2024-08-05T11:27:38Z</time>
      </trkpt>
      <trkpt lat="47.15841" lon="5.957">
        <ele>400.8</ele>
        <time>2024-08-05T11:27:39Z</time>
      </trkpt>
      <trkpt lat="47.15843" lon="5.95701">
        <ele>400.8</ele>
        <time>2024-08-05T11:27:40Z</time>
      </trkpt>
      <trkpt lat="47.15845" lon="5.95701">
        <ele>401</ele>
        <time>2024-08-05T11:27:41Z</time>
      </trkpt>
      <trkpt lat="47.15847" lon="5.95701">
        <ele>401.2</ele>
        <time>2024-08-05T11:27:42Z</time>
      </trkpt>
      <trkpt lat="47.15849" lon="5.95702">
        <ele>401.2</ele>
        <time>2024-08-05T11:27:43Z</time>
      </trkpt>
      <trkpt lat="47.15851" lon="5.95702">
        <ele>401.2</ele>
        <time>2024-08-05T11:27:44Z</time>
      </trkpt>
      <trkpt lat="47.15853" lon="5.95703">
        <ele>401.4</ele>
        <time>2024-08-05T11:27:45Z</time>
      </trkpt>
      <trkpt lat="47.15855" lon="5.95704">
        <ele>401.8</ele>
        <time>2024-08-05T11:27:46Z</time>
      </trkpt>
      <trkpt lat="47.15857" lon="5.95705">
        <ele>401.8</ele>
        <time>2024-08-05T11:27:47Z</time>
      </trkpt>
      <trkpt lat="47.15859" lon="5.95706">
        <ele>401.8</ele>
        <time>2024-08-05T11:27:48Z</time>
      </trkpt>
      <trkpt lat="47.1586" lon="5.95707">
        <ele>402.2</ele>
        <time>2024-08-05T11:27:49Z</time>
      </trkpt>
      <trkpt lat="47.15862" lon="5.95707">
        <ele>402.4</ele>
        <time>2024-08-05T11:27:50Z</time>
      </trkpt>
      <trkpt lat="47.15863" lon="5.95708">
        <ele>402.6</ele>
        <time>2024-08-05T11:27:51Z</time>
      </trkpt>
      <trkpt lat="47.15865" lon="5.95709">
        <ele>402.8</ele>
        <time>2024-08-05T11:27:52Z</time>
      </trkpt>
      <trkpt lat="47.15866" lon="5.9571">
        <ele>403</ele>
        <time>2024-08-05T11:27:53Z</time>
      </trkpt>
      <trkpt lat="47.15867" lon="5.9571">
        <ele>403.2</ele>
        <time>2024-08-05T11:27:54Z</time>
      </trkpt>
      <trkpt lat="47.15868" lon="5.95711">
        <ele>403.4</ele>
        <time>2024-08-05T11:27:55Z</time>
      </trkpt>
      <trkpt lat="47.1587" lon="5.95712">
        <ele>403.6</ele>
        <time>2024-08-05T11:27:56Z</time>
      </trkpt>
      <trkpt lat="47.15871" lon="5.95713">
        <ele>403.8</ele>
        <time>2024-08-05T11:27:57Z</time>
      </trkpt>
      <trkpt lat="47.15872" lon="5.95713">
        <ele>404.2</ele>
        <time>2024-08-05T11:27:58Z</time>
      </trkpt>
      <trkpt lat="47.15873" lon="5.95714">
        <ele>404.2</ele>
        <time>2024-08-05T11:27:59Z</time>
      </trkpt>
      <trkpt lat="47.15874" lon="5.95715">
        <ele>404.6</ele>
        <time>2024-08-05T11:28:00Z</time>
      </trkpt>
      <trkpt lat="47.15876" lon="5.95716">
        <ele>404.6</ele>
        <time>2024-08-05T11:28:01Z</time>
      </trkpt>
      <trkpt lat="47.15878" lon="5.95717">
        <ele>405</ele>
        <time>2024-08-05T11:28:02Z</time>
      </trkpt>
      <trkpt lat="47.1588" lon="5.95718">
        <ele>405</ele>
        <time>2024-08-05T11:28:03Z</time>
      </trkpt>
      <trkpt lat="47.15882" lon="5.9572">
        <ele>405.2</ele>
        <time>2024-08-05T11:28:04Z</time>
      </trkpt>
      <trkpt lat="47.15885" lon="5.95721">
        <ele>405.4</ele>
        <time>2024-08-05T11:28:05Z</time>
      </trkpt>
      <trkpt lat="47.15887" lon="5.95722">
        <ele>405.6</ele>
        <time>2024-08-05T11:28:06Z</time>
      </trkpt>
      <trkpt lat="47.1589" lon="5.95723">
        <ele>405.6</ele>
        <time>2024-08-05T11:28:07Z</time>
      </trkpt>
      <trkpt lat="47.15892" lon="5.95724">
        <ele>405.8</ele>
        <time>2024-08-05T11:28:08Z</time>
      </trkpt>
      <trkpt lat="47.15893" lon="5.95723">
        <ele>405.8</ele>
        <time>2024-08-05T11:28:09Z</time>
      </trkpt>
      <trkpt lat="47.15895" lon="5.95723">
        <ele>406.2</ele>
        <time>2024-08-05T11:28:10Z</time>
      </trkpt>
      <trkpt lat="47.15896" lon="5.95723">
        <ele>406.2</ele>
        <time>2024-08-05T11:28:11Z</time>
      </trkpt>
      <trkpt lat="47.15898" lon="5.95723">
        <ele>406.4</ele>
        <time>2024-08-05T11:28:12Z</time>
      </trkpt>
      <trkpt lat="47.159" lon="5.95723">
        <ele>406.6</ele>
        <time>2024-08-05T11:28:13Z</time>
      </trkpt>
      <trkpt lat="47.15902" lon="5.95723">
        <ele>407</ele>
        <time>2024-08-05T11:28:14Z</time>
      </trkpt>
      <trkpt lat="47.15904" lon="5.95724">
        <ele>407.2</ele>
        <time>2024-08-05T11:28:15Z</time>
      </trkpt>
      <trkpt lat="47.15906" lon="5.95725">
        <ele>407.2</ele>
        <time>2024-08-05T11:28:16Z</time>
      </trkpt>
      <trkpt lat="47.15908" lon="5.95726">
        <ele>407.4</ele>
        <time>2024-08-05T11:28:17Z</time>
      </trkpt>
      <trkpt lat="47.15911" lon="5.95727">
        <ele>407.8</ele>
        <time>2024-08-05T11:28:18Z</time>
      </trkpt>
      <trkpt lat="47.15912" lon="5.95728">
        <ele>408.2</ele>
        <time>2024-08-05T11:28:19Z</time>
      </trkpt>
      <trkpt lat="47.15914" lon="5.95728">
        <ele>408.6</ele>
        <time>2024-08-05T11:28:20Z</time>
      </trkpt>
      <trkpt lat="47.15915" lon="5.95729">
        <ele>408.8</ele>
        <time>2024-08-05T11:28:21Z</time>
      </trkpt>
      <trkpt lat="47.15916" lon="5.95729">
        <ele>409</ele>
        <time>2024-08-05T11:28:22Z</time>
      </trkpt>
      <trkpt lat="47.15917" lon="5.95729">
        <ele>409.2</ele>
        <time>2024-08-05T11:28:23Z</time>
      </trkpt>
      <trkpt lat="47.15918" lon="5.95729">
        <ele>409.4</ele>
        <time>2024-08-05T11:28:24Z</time>
      </trkpt>
      <trkpt lat="47.15919" lon="5.95729">
        <ele>409.6</ele>
        <time>2024-08-05T11:28:25Z</time>
      </trkpt>
      <trkpt lat="47.1592" lon="5.95729">
        <ele>409.8</ele>
        <time>2024-08-05T11:28:26Z</time>
      </trkpt>
      <trkpt lat="47.15922" lon="5.9573">
        <ele>409.8</ele>
        <time>2024-08-05T11:28:27Z</time>
      </trkpt>
      <trkpt lat="47.15924" lon="5.9573">
        <ele>410.2</ele>
        <time>2024-08-05T11:28:28Z</time>
      </trkpt>
      <trkpt lat="47.15926" lon="5.95731">
        <ele>410.4</ele>
        <time>2024-08-05T11:28:29Z</time>
      </trkpt>
      <trkpt lat="47.15928" lon="5.95732">
        <ele>410.6</ele>
        <time>2024-08-05T11:28:30Z</time>
      </trkpt>
      <trkpt lat="47.1593" lon="5.95732">
        <ele>410.6</ele>
        <time>2024-08-05T11:28:31Z</time>
      </trkpt>
      <trkpt lat="47.15932" lon="5.95733">
        <ele>410.8</ele>
        <time>2024-08-05T11:28:32Z</time>
      </trkpt>
      <trkpt lat="47.15934" lon="5.95733">
        <ele>410.8</ele>
        <time>2024-08-05T11:28:33Z</time>
      </trkpt>
      <trkpt lat="47.15937" lon="5.95734">
        <ele>411</ele>
        <time>2024-08-05T11:28:34Z</time>
      </trkpt>
      <trkpt lat="47.15939" lon="5.95735">
        <ele>411.2</ele>
        <time>2024-08-05T11:28:35Z</time>
      </trkpt>
      <trkpt lat="47.15941" lon="5.95735">
        <ele>411.4</ele>
        <time>2024-08-05T11:28:36Z</time>
      </trkpt>
      <trkpt lat="47.15943" lon="5.95736">
        <ele>411.4</ele>
        <time>2024-08-05T11:28:37Z</time>
      </trkpt>
      <trkpt lat="47.15946" lon="5.95737">
        <ele>411.6</ele>
        <time>2024-08-05T11:28:38Z</time>
      </trkpt>
      <trkpt lat="47.15949" lon="5.95739">
        <ele>411.8</ele>
        <time>2024-08-05T11:28:39Z</time>
      </trkpt>
      <trkpt lat="47.15952" lon="5.9574">
        <ele>412</ele>
        <time>2024-08-05T11:28:40Z</time>
      </trkpt>
      <trkpt lat="47.15955" lon="5.95742">
        <ele>412.2</ele>
        <time>2024-08-05T11:28:41Z</time>
      </trkpt>
      <trkpt lat="47.15958" lon="5.95743">
        <ele>412.4</ele>
        <time>2024-08-05T11:28:42Z</time>
      </trkpt>
      <trkpt lat="47.15961" lon="5.95744">
        <ele>412.6</ele>
        <time>2024-08-05T11:28:43Z</time>
      </trkpt>
      <trkpt lat="47.15963" lon="5.95745">
        <ele>412.6</ele>
        <time>2024-08-05T11:28:44Z</time>
      </trkpt>
      <trkpt lat="47.15966" lon="5.95747">
        <ele>412.8</ele>
        <time>2024-08-05T11:28:45Z</time>
      </trkpt>
      <trkpt lat="47.1597" lon="5.95748">
        <ele>413</ele>
        <time>2024-08-05T11:28:46Z</time>
      </trkpt>
      <trkpt lat="47.15973" lon="5.9575">
        <ele>413.2</ele>
        <time>2024-08-05T11:28:47Z</time>
      </trkpt>
      <trkpt lat="47.15976" lon="5.95751">
        <ele>413.4</ele>
        <time>2024-08-05T11:28:48Z</time>
      </trkpt>
      <trkpt lat="47.15978" lon="5.95753">
        <ele>413.6</ele>
        <time>2024-08-05T11:28:49Z</time>
      </trkpt>
      <trkpt lat="47.15981" lon="5.95755">
        <ele>413.6</ele>
        <time>2024-08-05T11:28:50Z</time>
      </trkpt>
      <trkpt lat="47.15983" lon="5.95757">
        <ele>413.8</ele>
        <time>2024-08-05T11:28:51Z</time>
      </trkpt>
      <trkpt lat="47.15985" lon="5.95758">
        <ele>414</ele>
        <time>2024-08-05T11:28:52Z</time>
      </trkpt>
      <trkpt lat="47.15987" lon="5.95759">
        <ele>414</ele>
        <time>2024-08-05T11:28:53Z</time>
      </trkpt>
      <trkpt lat="47.15989" lon="5.95761">
        <ele>414</ele>
        <time>2024-08-05T11:28:54Z</time>
      </trkpt>
      <trkpt lat="47.15991" lon="5.95763">
        <ele>414</ele>
        <time>2024-08-05T11:28:55Z</time>
      </trkpt>
      <trkpt lat="47.15993" lon="5.95765">
        <ele>414</ele>
        <time>2024-08-05T11:28:56Z</time>
      </trkpt>
      <trkpt lat="47.15995" lon="5.95768">
        <ele>414.2</ele>
        <time>2024-08-05T11:28:57Z</time>
      </trkpt>
      <trkpt lat="47.15996" lon="5.9577">
        <ele>414.2</ele>
        <time>2024-08-05T11:28:58Z</time>
      </trkpt>
      <trkpt lat="47.15998" lon="5.95772">
        <ele>414.2</ele>
        <time>2024-08-05T11:28:59Z</time>
      </trkpt>
      <trkpt lat="47.15999" lon="5.95774">
        <ele>414.4</ele>
        <time>2024-08-05T11:29:00Z</time>
      </trkpt>
      <trkpt lat="47.16001" lon="5.95776">
        <ele>414.6</ele>
        <time>2024-08-05T11:29:01Z</time>
      </trkpt>
      <trkpt lat="47.16003" lon="5.95778">
        <ele>414.6</ele>
        <time>2024-08-05T11:29:02Z</time>
      </trkpt>
      <trkpt lat="47.16004" lon="5.9578">
        <ele>414.6</ele>
        <time>2024-08-05T11:29:03Z</time>
      </trkpt>
      <trkpt lat="47.16005" lon="5.95782">
        <ele>414.8</ele>
        <time>2024-08-05T11:29:04Z</time>
      </trkpt>
      <trkpt lat="47.16007" lon="5.95784">
        <ele>414.8</ele>
        <time>2024-08-05T11:29:05Z</time>
      </trkpt>
      <trkpt lat="47.16009" lon="5.95786">
        <ele>415</ele>
        <time>2024-08-05T11:29:06Z</time>
      </trkpt>
      <trkpt lat="47.16012" lon="5.95788">
        <ele>415</ele>
        <time>2024-08-05T11:29:07Z</time>
      </trkpt>
      <trkpt lat="47.16013" lon="5.95791">
        <ele>415.2</ele>
        <time>2024-08-05T11:29:08Z</time>
      </trkpt>
      <trkpt lat="47.16015" lon="5.95792">
        <ele>415.2</ele>
        <time>2024-08-05T11:29:09Z</time>
      </trkpt>
      <trkpt lat="47.16016" lon="5.95795">
        <ele>415.4</ele>
        <time>2024-08-05T11:29:10Z</time>
      </trkpt>
      <trkpt lat="47.16018" lon="5.95797">
        <ele>415.4</ele>
        <time>2024-08-05T11:29:11Z</time>
      </trkpt>
      <trkpt lat="47.16019" lon="5.95798">
        <ele>415.4</ele>
        <time>2024-08-05T11:29:12Z</time>
      </trkpt>
      <trkpt lat="47.16021" lon="5.958">
        <ele>415.6</ele>
        <time>2024-08-05T11:29:13Z</time>
      </trkpt>
      <trkpt lat="47.16022" lon="5.95802">
        <ele>415.4</ele>
        <time>2024-08-05T11:29:14Z</time>
      </trkpt>
      <trkpt lat="47.16024" lon="5.95804">
        <ele>415.4</ele>
        <time>2024-08-05T11:29:15Z</time>
      </trkpt>
      <trkpt lat="47.16026" lon="5.95805">
        <ele>415.6</ele>
        <time>2024-08-05T11:29:16Z</time>
      </trkpt>
      <trkpt lat="47.16027" lon="5.95806">
        <ele>415.6</ele>
        <time>2024-08-05T11:29:17Z</time>
      </trkpt>
      <trkpt lat="47.16031" lon="5.95809">
        <ele>415.8</ele>
        <time>2024-08-05T11:29:18Z</time>
      </trkpt>
      <trkpt lat="47.16034" lon="5.95812">
        <ele>415.8</ele>
        <time>2024-08-05T11:29:19Z</time>
      </trkpt>
      <trkpt lat="47.16037" lon="5.95815">
        <ele>416</ele>
        <time>2024-08-05T11:29:20Z</time>
      </trkpt>
      <trkpt lat="47.16039" lon="5.95817">
        <ele>416</ele>
        <time>2024-08-05T11:29:21Z</time>
      </trkpt>
      <trkpt lat="47.16041" lon="5.9582">
        <ele>416.4</ele>
        <time>2024-08-05T11:29:22Z</time>
      </trkpt>
      <trkpt lat="47.16042" lon="5.95822">
        <ele>416.4</ele>
        <time>2024-08-05T11:29:23Z</time>
      </trkpt>
      <trkpt lat="47.16044" lon="5.95824">
        <ele>416.6</ele>
        <time>2024-08-05T11:29:24Z</time>
      </trkpt>
      <trkpt lat="47.16046" lon="5.95827">
        <ele>416.8</ele>
        <time>2024-08-05T11:29:25Z</time>
      </trkpt>
      <trkpt lat="47.16048" lon="5.95829">
        <ele>416.8</ele>
        <time>2024-08-05T11:29:26Z</time>
      </trkpt>
      <trkpt lat="47.1605" lon="5.95832">
        <ele>417</ele>
        <time>2024-08-05T11:29:27Z</time>
      </trkpt>
      <trkpt lat="47.16051" lon="5.95835">
        <ele>417.4</ele>
        <time>2024-08-05T11:29:28Z</time>
      </trkpt>
      <trkpt lat="47.16054" lon="5.95839">
        <ele>417.4</ele>
        <time>2024-08-05T11:29:29Z</time>
      </trkpt>
      <trkpt lat="47.16057" lon="5.95842">
        <ele>417.6</ele>
        <time>2024-08-05T11:29:30Z</time>
      </trkpt>
      <trkpt lat="47.16058" lon="5.95844">
        <ele>417.8</ele>
        <time>2024-08-05T11:29:31Z</time>
      </trkpt>
      <trkpt lat="47.1606" lon="5.95847">
        <ele>418</ele>
        <time>2024-08-05T11:29:32Z</time>
      </trkpt>
      <trkpt lat="47.16063" lon="5.9585">
        <ele>418</ele>
        <time>2024-08-05T11:29:33Z</time>
      </trkpt>
      <trkpt lat="47.16066" lon="5.95853">
        <ele>418.2</ele>
        <time>2024-08-05T11:29:34Z</time>
      </trkpt>
      <trkpt lat="47.16068" lon="5.95855">
        <ele>418.4</ele>
        <time>2024-08-05T11:29:35Z</time>
      </trkpt>
      <trkpt lat="47.16071" lon="5.95858">
        <ele>418.6</ele>
        <time>2024-08-05T11:29:36Z</time>
      </trkpt>
      <trkpt lat="47.16073" lon="5.95861">
        <ele>418.6</ele>
        <time>2024-08-05T11:29:37Z</time>
      </trkpt>
      <trkpt lat="47.16075" lon="5.95864">
        <ele>418.8</ele>
        <time>2024-08-05T11:29:38Z</time>
      </trkpt>
      <trkpt lat="47.16077" lon="5.95866">
        <ele>418.8</ele>
        <time>2024-08-05T11:29:39Z</time>
      </trkpt>
      <trkpt lat="47.16079" lon="5.95869">
        <ele>419</ele>
        <time>2024-08-05T11:29:40Z</time>
      </trkpt>
      <trkpt lat="47.16081" lon="5.95872">
        <ele>419.2</ele>
        <time>2024-08-05T11:29:41Z</time>
      </trkpt>
      <trkpt lat="47.16083" lon="5.95874">
        <ele>419.2</ele>
        <time>2024-08-05T11:29:42Z</time>
      </trkpt>
      <trkpt lat="47.16085" lon="5.95877">
        <ele>419.6</ele>
        <time>2024-08-05T11:29:43Z</time>
      </trkpt>
      <trkpt lat="47.16088" lon="5.9588">
        <ele>419.8</ele>
        <time>2024-08-05T11:29:44Z</time>
      </trkpt>
      <trkpt lat="47.1609" lon="5.95883">
        <ele>419.8</ele>
        <time>2024-08-05T11:29:45Z</time>
      </trkpt>
      <trkpt lat="47.16092" lon="5.95885">
        <ele>420.2</ele>
        <time>2024-08-05T11:29:46Z</time>
      </trkpt>
      <trkpt lat="47.16094" lon="5.95888">
        <ele>420.4</ele>
        <time>2024-08-05T11:29:47Z</time>
      </trkpt>
      <trkpt lat="47.16095" lon="5.9589">
        <ele>420.4</ele>
        <time>2024-08-05T11:29:48Z</time>
      </trkpt>
      <trkpt lat="47.16097" lon="5.95892">
        <ele>420.6</ele>
        <time>2024-08-05T11:29:49Z</time>
      </trkpt>
      <trkpt lat="47.16099" lon="5.95894">
        <ele>420.8</ele>
        <time>2024-08-05T11:29:50Z</time>
      </trkpt>
      <trkpt lat="47.161" lon="5.95897">
        <ele>420.8</ele>
        <time>2024-08-05T11:29:51Z</time>
      </trkpt>
      <trkpt lat="47.16101" lon="5.95899">
        <ele>421</ele>
        <time>2024-08-05T11:29:52Z</time>
      </trkpt>
      <trkpt lat="47.16103" lon="5.95902">
        <ele>421.2</ele>
        <time>2024-08-05T11:29:53Z</time>
      </trkpt>
      <trkpt lat="47.16105" lon="5.95906">
        <ele>421.2</ele>
        <time>2024-08-05T11:29:54Z</time>
      </trkpt>
      <trkpt lat="47.16106" lon="5.95909">
        <ele>421.2</ele>
        <time>2024-08-05T11:29:55Z</time>
      </trkpt>
      <trkpt lat="47.16107" lon="5.95911">
        <ele>421.4</ele>
        <time>2024-08-05T11:29:56Z</time>
      </trkpt>
      <trkpt lat="47.1611" lon="5.95914">
        <ele>421.4</ele>
        <time>2024-08-05T11:29:57Z</time>
      </trkpt>
      <trkpt lat="47.16112" lon="5.95916">
        <ele>421.8</ele>
        <time>2024-08-05T11:29:58Z</time>
      </trkpt>
      <trkpt lat="47.16113" lon="5.95918">
        <ele>421.8</ele>
        <time>2024-08-05T11:29:59Z</time>
      </trkpt>
      <trkpt lat="47.16114" lon="5.9592">
        <ele>421.8</ele>
        <time>2024-08-05T11:30:00Z</time>
      </trkpt>
      <trkpt lat="47.16116" lon="5.95923">
        <ele>421.8</ele>
        <time>2024-08-05T11:30:01Z</time>
      </trkpt>
      <trkpt lat="47.16118" lon="5.95925">
        <ele>422</ele>
        <time>2024-08-05T11:30:02Z</time>
      </trkpt>
      <trkpt lat="47.1612" lon="5.95929">
        <ele>422.2</ele>
        <time>2024-08-05T11:30:03Z</time>
      </trkpt>
      <trkpt lat="47.16121" lon="5.95933">
        <ele>422.2</ele>
        <time>2024-08-05T11:30:04Z</time>
      </trkpt>
      <trkpt lat="47.16124" lon="5.95936">
        <ele>422.4</ele>
        <time>2024-08-05T11:30:05Z</time>
      </trkpt>
      <trkpt lat="47.16126" lon="5.95939">
        <ele>422.4</ele>
        <time>2024-08-05T11:30:06Z</time>
      </trkpt>
      <trkpt lat="47.16127" lon="5.95942">
        <ele>422.6</ele>
        <time>2024-08-05T11:30:07Z</time>
      </trkpt>
      <trkpt lat="47.16129" lon="5.95945">
        <ele>422.8</ele>
        <time>2024-08-05T11:30:08Z</time>
      </trkpt>
      <trkpt lat="47.1613" lon="5.95947">
        <ele>423.2</ele>
        <time>2024-08-05T11:30:09Z</time>
      </trkpt>
      <trkpt lat="47.16132" lon="5.9595">
        <ele>423.6</ele>
        <time>2024-08-05T11:30:10Z</time>
      </trkpt>
      <trkpt lat="47.16135" lon="5.95952">
        <ele>423.6</ele>
        <time>2024-08-05T11:30:11Z</time>
      </trkpt>
      <trkpt lat="47.16136" lon="5.95954">
        <ele>423.8</ele>
        <time>2024-08-05T11:30:12Z</time>
      </trkpt>
      <trkpt lat="47.16138" lon="5.95957">
        <ele>423.8</ele>
        <time>2024-08-05T11:30:13Z</time>
      </trkpt>
      <trkpt lat="47.16141" lon="5.9596">
        <ele>424.2</ele>
        <time>2024-08-05T11:30:14Z</time>
      </trkpt>
      <trkpt lat="47.16142" lon="5.95964">
        <ele>424.2</ele>
        <time>2024-08-05T11:30:15Z</time>
      </trkpt>
      <trkpt lat="47.16144" lon="5.95966">
        <ele>424.2</ele>
        <time>2024-08-05T11:30:16Z</time>
      </trkpt>
      <trkpt lat="47.16146" lon="5.95969">
        <ele>424.4</ele>
        <time>2024-08-05T11:30:17Z</time>
      </trkpt>
      <trkpt lat="47.16147" lon="5.95971">
        <ele>424.4</ele>
        <time>2024-08-05T11:30:18Z</time>
      </trkpt>
      <trkpt lat="47.16149" lon="5.95973">
        <ele>424.2</ele>
        <time>2024-08-05T11:30:19Z</time>
      </trkpt>
      <trkpt lat="47.1615" lon="5.95976">
        <ele>424.4</ele>
        <time>2024-08-05T11:30:20Z</time>
      </trkpt>
      <trkpt lat="47.16152" lon="5.95978">
        <ele>424.4</ele>
        <time>2024-08-05T11:30:21Z</time>
      </trkpt>
      <trkpt lat="47.16154" lon="5.9598">
        <ele>424.6</ele>
        <time>2024-08-05T11:30:22Z</time>
      </trkpt>
      <trkpt lat="47.16155" lon="5.95982">
        <ele>424.8</ele>
        <time>2024-08-05T11:30:23Z</time>
      </trkpt>
      <trkpt lat="47.16157" lon="5.95985">
        <ele>425</ele>
        <time>2024-08-05T11:30:24Z</time>
      </trkpt>
      <trkpt lat="47.16159" lon="5.95988">
        <ele>425.2</ele>
        <time>2024-08-05T11:30:25Z</time>
      </trkpt>
      <trkpt lat="47.1616" lon="5.95991">
        <ele>425.2</ele>
        <time>2024-08-05T11:30:26Z</time>
      </trkpt>
      <trkpt lat="47.16162" lon="5.95994">
        <ele>425.4</ele>
        <time>2024-08-05T11:30:27Z</time>
      </trkpt>
      <trkpt lat="47.16164" lon="5.95996">
        <ele>425.4</ele>
        <time>2024-08-05T11:30:28Z</time>
      </trkpt>
      <trkpt lat="47.16166" lon="5.95999">
        <ele>425.6</ele>
        <time>2024-08-05T11:30:29Z</time>
      </trkpt>
      <trkpt lat="47.16167" lon="5.96002">
        <ele>425.6</ele>
        <time>2024-08-05T11:30:30Z</time>
      </trkpt>
      <trkpt lat="47.16169" lon="5.96007">
        <ele>425.4</ele>
        <time>2024-08-05T11:30:31Z</time>
      </trkpt>
      <trkpt lat="47.16171" lon="5.96011">
        <ele>425.6</ele>
        <time>2024-08-05T11:30:32Z</time>
      </trkpt>
      <trkpt lat="47.16172" lon="5.96015">
        <ele>425.6</ele>
        <time>2024-08-05T11:30:33Z</time>
      </trkpt>
      <trkpt lat="47.16174" lon="5.96019">
        <ele>425.6</ele>
        <time>2024-08-05T11:30:34Z</time>
      </trkpt>
      <trkpt lat="47.16175" lon="5.96026">
        <ele>425.8</ele>
        <time>2024-08-05T11:30:35Z</time>
      </trkpt>
      <trkpt lat="47.16177" lon="5.96032">
        <ele>425.8</ele>
        <time>2024-08-05T11:30:36Z</time>
      </trkpt>
      <trkpt lat="47.16179" lon="5.96037">
        <ele>425.8</ele>
        <time>2024-08-05T11:30:37Z</time>
      </trkpt>
      <trkpt lat="47.16181" lon="5.96043">
        <ele>425.8</ele>
        <time>2024-08-05T11:30:38Z</time>
      </trkpt>
      <trkpt lat="47.16183" lon="5.96048">
        <ele>425.8</ele>
        <time>2024-08-05T11:30:39Z</time>
      </trkpt>
      <trkpt lat="47.16185" lon="5.96052">
        <ele>425.8</ele>
        <time>2024-08-05T11:30:40Z</time>
      </trkpt>
      <trkpt lat="47.16187" lon="5.96056">
        <ele>425.8</ele>
        <time>2024-08-05T11:30:41Z</time>
      </trkpt>
      <trkpt lat="47.1619" lon="5.9606">
        <ele>426</ele>
        <time>2024-08-05T11:30:42Z</time>
      </trkpt>
      <trkpt lat="47.16192" lon="5.96064">
        <ele>426</ele>
        <time>2024-08-05T11:30:43Z</time>
      </trkpt>
      <trkpt lat="47.16194" lon="5.96067">
        <ele>426</ele>
        <time>2024-08-05T11:30:44Z</time>
      </trkpt>
      <trkpt lat="47.16197" lon="5.96071">
        <ele>426</ele>
        <time>2024-08-05T11:30:45Z</time>
      </trkpt>
      <trkpt lat="47.16199" lon="5.96072">
        <ele>425.8</ele>
        <time>2024-08-05T11:30:46Z</time>
      </trkpt>
      <trkpt lat="47.16202" lon="5.96077">
        <ele>425.8</ele>
        <time>2024-08-05T11:30:47Z</time>
      </trkpt>
      <trkpt lat="47.16205" lon="5.96079">
        <ele>425.8</ele>
        <time>2024-08-05T11:30:48Z</time>
      </trkpt>
      <trkpt lat="47.16208" lon="5.96082">
        <ele>425.8</ele>
        <time>2024-08-05T11:30:49Z</time>
      </trkpt>
      <trkpt lat="47.16212" lon="5.96084">
        <ele>425.8</ele>
        <time>2024-08-05T11:30:50Z</time>
      </trkpt>
      <trkpt lat="47.16215" lon="5.96086">
        <ele>425.8</ele>
        <time>2024-08-05T11:30:51Z</time>
      </trkpt>
      <trkpt lat="47.16217" lon="5.96087">
        <ele>425.8</ele>
        <time>2024-08-05T11:30:52Z</time>
      </trkpt>
      <trkpt lat="47.1622" lon="5.96089">
        <ele>425.8</ele>
        <time>2024-08-05T11:30:53Z</time>
      </trkpt>
      <trkpt lat="47.16222" lon="5.96092">
        <ele>425.6</ele>
        <time>2024-08-05T11:30:54Z</time>
      </trkpt>
      <trkpt lat="47.16225" lon="5.96096">
        <ele>425.8</ele>
        <time>2024-08-05T11:30:55Z</time>
      </trkpt>
      <trkpt lat="47.16228" lon="5.96099">
        <ele>425.8</ele>
        <time>2024-08-05T11:30:56Z</time>
      </trkpt>
      <trkpt lat="47.1623" lon="5.96102">
        <ele>425.8</ele>
        <time>2024-08-05T11:30:57Z</time>
      </trkpt>
      <trkpt lat="47.16232" lon="5.96107">
        <ele>425.6</ele>
        <time>2024-08-05T11:30:58Z</time>
      </trkpt>
      <trkpt lat="47.16234" lon="5.96112">
        <ele>425.8</ele>
        <time>2024-08-05T11:30:59Z</time>
      </trkpt>
      <trkpt lat="47.16237" lon="5.96114">
        <ele>425.6</ele>
        <time>2024-08-05T11:31:00Z</time>
      </trkpt>
      <trkpt lat="47.16239" lon="5.96117">
        <ele>425.6</ele>
        <time>2024-08-05T11:31:01Z</time>
      </trkpt>
      <trkpt lat="47.16243" lon="5.96119">
        <ele>425.8</ele>
        <time>2024-08-05T11:31:02Z</time>
      </trkpt>
      <trkpt lat="47.16246" lon="5.96121">
        <ele>425.8</ele>
        <time>2024-08-05T11:31:03Z</time>
      </trkpt>
      <trkpt lat="47.16249" lon="5.96125">
        <ele>425.8</ele>
        <time>2024-08-05T11:31:04Z</time>
      </trkpt>
      <trkpt lat="47.16252" lon="5.96128">
        <ele>425.8</ele>
        <time>2024-08-05T11:31:05Z</time>
      </trkpt>
      <trkpt lat="47.16254" lon="5.96131">
        <ele>425.8</ele>
        <time>2024-08-05T11:31:06Z</time>
      </trkpt>
      <trkpt lat="47.16257" lon="5.96133">
        <ele>425.6</ele>
        <time>2024-08-05T11:31:07Z</time>
      </trkpt>
      <trkpt lat="47.1626" lon="5.96135">
        <ele>425.4</ele>
        <time>2024-08-05T11:31:08Z</time>
      </trkpt>
      <trkpt lat="47.16264" lon="5.9614">
        <ele>425.6</ele>
        <time>2024-08-05T11:31:09Z</time>
      </trkpt>
      <trkpt lat="47.16267" lon="5.96145">
        <ele>425.4</ele>
        <time>2024-08-05T11:31:10Z</time>
      </trkpt>
      <trkpt lat="47.1627" lon="5.96148">
        <ele>425.4</ele>
        <time>2024-08-05T11:31:11Z</time>
      </trkpt>
      <trkpt lat="47.16274" lon="5.96152">
        <ele>425.4</ele>
        <time>2024-08-05T11:31:12Z</time>
      </trkpt>
      <trkpt lat="47.16277" lon="5.96155">
        <ele>425.4</ele>
        <time>2024-08-05T11:31:13Z</time>
      </trkpt>
      <trkpt lat="47.16281" lon="5.96158">
        <ele>425.2</ele>
        <time>2024-08-05T11:31:14Z</time>
      </trkpt>
      <trkpt lat="47.16284" lon="5.96162">
        <ele>425</ele>
        <time>2024-08-05T11:31:15Z</time>
      </trkpt>
      <trkpt lat="47.16288" lon="5.96166">
        <ele>424.8</ele>
        <time>2024-08-05T11:31:16Z</time>
      </trkpt>
      <trkpt lat="47.16292" lon="5.96169">
        <ele>424.6</ele>
        <time>2024-08-05T11:31:17Z</time>
      </trkpt>
      <trkpt lat="47.16295" lon="5.96173">
        <ele>424.4</ele>
        <time>2024-08-05T11:31:18Z</time>
      </trkpt>
      <trkpt lat="47.163" lon="5.96176">
        <ele>424</ele>
        <time>2024-08-05T11:31:19Z</time>
      </trkpt>
      <trkpt lat="47.16305" lon="5.96178">
        <ele>424</ele>
        <time>2024-08-05T11:31:20Z</time>
      </trkpt>
      <trkpt lat="47.16309" lon="5.96181">
        <ele>424</ele>
        <time>2024-08-05T11:31:21Z</time>
      </trkpt>
      <trkpt lat="47.16314" lon="5.96183">
        <ele>424</ele>
        <time>2024-08-05T11:31:22Z</time>
      </trkpt>
      <trkpt lat="47.1632" lon="5.96186">
        <ele>423.6</ele>
        <time>2024-08-05T11:31:23Z</time>
      </trkpt>
      <trkpt lat="47.16325" lon="5.96188">
        <ele>423.4</ele>
        <time>2024-08-05T11:31:24Z</time>
      </trkpt>
      <trkpt lat="47.1633" lon="5.96191">
        <ele>423</ele>
        <time>2024-08-05T11:31:25Z</time>
      </trkpt>
      <trkpt lat="47.16335" lon="5.96195">
        <ele>422.8</ele>
        <time>2024-08-05T11:31:26Z</time>
      </trkpt>
      <trkpt lat="47.1634" lon="5.96199">
        <ele>422.4</ele>
        <time>2024-08-05T11:31:27Z</time>
      </trkpt>
      <trkpt lat="47.16346" lon="5.96203">
        <ele>422.4</ele>
        <time>2024-08-05T11:31:28Z</time>
      </trkpt>
      <trkpt lat="47.16351" lon="5.96207">
        <ele>422.2</ele>
        <time>2024-08-05T11:31:29Z</time>
      </trkpt>
      <trkpt lat="47.16357" lon="5.9621">
        <ele>422</ele>
        <time>2024-08-05T11:31:30Z</time>
      </trkpt>
      <trkpt lat="47.16363" lon="5.96214">
        <ele>422</ele>
        <time>2024-08-05T11:31:31Z</time>
      </trkpt>
      <trkpt lat="47.1637" lon="5.96216">
        <ele>421.6</ele>
        <time>2024-08-05T11:31:32Z</time>
      </trkpt>
      <trkpt lat="47.16377" lon="5.96219">
        <ele>421.8</ele>
        <time>2024-08-05T11:31:33Z</time>
      </trkpt>
      <trkpt lat="47.16383" lon="5.96221">
        <ele>421.6</ele>
        <time>2024-08-05T11:31:34Z</time>
      </trkpt>
      <trkpt lat="47.16389" lon="5.96224">
        <ele>421</ele>
        <time>2024-08-05T11:31:35Z</time>
      </trkpt>
      <trkpt lat="47.16395" lon="5.96226">
        <ele>420.4</ele>
        <time>2024-08-05T11:31:36Z</time>
      </trkpt>
      <trkpt lat="47.16401" lon="5.96229">
        <ele>419.6</ele>
        <time>2024-08-05T11:31:37Z</time>
      </trkpt>
      <trkpt lat="47.16407" lon="5.96231">
        <ele>419.2</ele>
        <time>2024-08-05T11:31:38Z</time>
      </trkpt>
      <trkpt lat="47.16415" lon="5.96234">
        <ele>418.4</ele>
        <time>2024-08-05T11:31:39Z</time>
      </trkpt>
      <trkpt lat="47.16422" lon="5.96237">
        <ele>417.8</ele>
        <time>2024-08-05T11:31:40Z</time>
      </trkpt>
      <trkpt lat="47.16431" lon="5.96242">
        <ele>416.6</ele>
        <time>2024-08-05T11:31:41Z</time>
      </trkpt>
      <trkpt lat="47.16439" lon="5.96246">
        <ele>415.4</ele>
        <time>2024-08-05T11:31:42Z</time>
      </trkpt>
      <trkpt lat="47.16446" lon="5.96249">
        <ele>414.6</ele>
        <time>2024-08-05T11:31:43Z</time>
      </trkpt>
      <trkpt lat="47.16452" lon="5.96252">
        <ele>413</ele>
        <time>2024-08-05T11:31:44Z</time>
      </trkpt>
      <trkpt lat="47.16459" lon="5.96254">
        <ele>411.8</ele>
        <time>2024-08-05T11:31:45Z</time>
      </trkpt>
      <trkpt lat="47.16464" lon="5.96256">
        <ele>411.2</ele>
        <time>2024-08-05T11:31:46Z</time>
      </trkpt>
      <trkpt lat="47.16469" lon="5.96257">
        <ele>410.2</ele>
        <time>2024-08-05T11:31:47Z</time>
      </trkpt>
      <trkpt lat="47.16473" lon="5.96257">
        <ele>409.2</ele>
        <time>2024-08-05T11:31:48Z</time>
      </trkpt>
      <trkpt lat="47.16477" lon="5.96256">
        <ele>409</ele>
        <time>2024-08-05T11:31:49Z</time>
      </trkpt>
      <trkpt lat="47.1648" lon="5.96254">
        <ele>409</ele>
        <time>2024-08-05T11:31:50Z</time>
      </trkpt>
      <trkpt lat="47.16483" lon="5.96251">
        <ele>408.2</ele>
        <time>2024-08-05T11:31:51Z</time>
      </trkpt>
      <trkpt lat="47.16485" lon="5.96249">
        <ele>408</ele>
        <time>2024-08-05T11:31:52Z</time>
      </trkpt>
      <trkpt lat="47.16488" lon="5.96245">
        <ele>407.6</ele>
        <time>2024-08-05T11:31:53Z</time>
      </trkpt>
      <trkpt lat="47.1649" lon="5.96243">
        <ele>407.2</ele>
        <time>2024-08-05T11:31:54Z</time>
      </trkpt>
      <trkpt lat="47.16491" lon="5.96238">
        <ele>407.4</ele>
        <time>2024-08-05T11:31:55Z</time>
      </trkpt>
      <trkpt lat="47.16493" lon="5.96234">
        <ele>407.2</ele>
        <time>2024-08-05T11:31:56Z</time>
      </trkpt>
      <trkpt lat="47.16496" lon="5.9623">
        <ele>407.2</ele>
        <time>2024-08-05T11:31:57Z</time>
      </trkpt>
      <trkpt lat="47.16497" lon="5.96226">
        <ele>407.2</ele>
        <time>2024-08-05T11:31:58Z</time>
      </trkpt>
      <trkpt lat="47.16499" lon="5.96221">
        <ele>407.2</ele>
        <time>2024-08-05T11:31:59Z</time>
      </trkpt>
      <trkpt lat="47.16502" lon="5.96217">
        <ele>407.2</ele>
        <time>2024-08-05T11:32:00Z</time>
      </trkpt>
      <trkpt lat="47.16504" lon="5.96213">
        <ele>407.2</ele>
        <time>2024-08-05T11:32:01Z</time>
      </trkpt>
      <trkpt lat="47.16507" lon="5.9621">
        <ele>407.2</ele>
        <time>2024-08-05T11:32:02Z</time>
      </trkpt>
      <trkpt lat="47.1651" lon="5.96207">
        <ele>407.2</ele>
        <time>2024-08-05T11:32:03Z</time>
      </trkpt>
      <trkpt lat="47.16514" lon="5.96205">
        <ele>407.2</ele>
        <time>2024-08-05T11:32:04Z</time>
      </trkpt>
      <trkpt lat="47.16519" lon="5.96204">
        <ele>407.4</ele>
        <time>2024-08-05T11:32:05Z</time>
      </trkpt>
      <trkpt lat="47.16523" lon="5.96203">
        <ele>407.4</ele>
        <time>2024-08-05T11:32:06Z</time>
      </trkpt>
      <trkpt lat="47.16528" lon="5.96204">
        <ele>407.4</ele>
        <time>2024-08-05T11:32:07Z</time>
      </trkpt>
      <trkpt lat="47.16533" lon="5.96204">
        <ele>407.4</ele>
        <time>2024-08-05T11:32:08Z</time>
      </trkpt>
      <trkpt lat="47.16538" lon="5.96205">
        <ele>407.4</ele>
        <time>2024-08-05T11:32:09Z</time>
      </trkpt>
      <trkpt lat="47.16543" lon="5.96206">
        <ele>407.6</ele>
        <time>2024-08-05T11:32:10Z</time>
      </trkpt>
      <trkpt lat="47.16549" lon="5.96208">
        <ele>407.4</ele>
        <time>2024-08-05T11:32:11Z</time>
      </trkpt>
      <trkpt lat="47.16554" lon="5.96209">
        <ele>407.4</ele>
        <time>2024-08-05T11:32:12Z</time>
      </trkpt>
      <trkpt lat="47.1656" lon="5.96211">
        <ele>407.6</ele>
        <time>2024-08-05T11:32:13Z</time>
      </trkpt>
      <trkpt lat="47.16565" lon="5.96212">
        <ele>407.6</ele>
        <time>2024-08-05T11:32:14Z</time>
      </trkpt>
      <trkpt lat="47.1657" lon="5.96212">
        <ele>407.6</ele>
        <time>2024-08-05T11:32:15Z</time>
      </trkpt>
      <trkpt lat="47.16576" lon="5.96212">
        <ele>407.2</ele>
        <time>2024-08-05T11:32:16Z</time>
      </trkpt>
      <trkpt lat="47.16582" lon="5.96209">
        <ele>407</ele>
        <time>2024-08-05T11:32:17Z</time>
      </trkpt>
      <trkpt lat="47.16588" lon="5.96206">
        <ele>406.8</ele>
        <time>2024-08-05T11:32:18Z</time>
      </trkpt>
      <trkpt lat="47.16593" lon="5.96202">
        <ele>406.4</ele>
        <time>2024-08-05T11:32:19Z</time>
      </trkpt>
      <trkpt lat="47.16599" lon="5.96198">
        <ele>406</ele>
        <time>2024-08-05T11:32:20Z</time>
      </trkpt>
      <trkpt lat="47.16604" lon="5.96197">
        <ele>405.2</ele>
        <time>2024-08-05T11:32:21Z</time>
      </trkpt>
      <trkpt lat="47.16609" lon="5.96198">
        <ele>404.6</ele>
        <time>2024-08-05T11:32:22Z</time>
      </trkpt>
      <trkpt lat="47.16613" lon="5.962">
        <ele>403.6</ele>
        <time>2024-08-05T11:32:23Z</time>
      </trkpt>
      <trkpt lat="47.16615" lon="5.96204">
        <ele>403</ele>
        <time>2024-08-05T11:32:24Z</time>
      </trkpt>
      <trkpt lat="47.16617" lon="5.96207">
        <ele>402</ele>
        <time>2024-08-05T11:32:25Z</time>
      </trkpt>
      <trkpt lat="47.16618" lon="5.96211">
        <ele>401.4</ele>
        <time>2024-08-05T11:32:26Z</time>
      </trkpt>
      <trkpt lat="47.1662" lon="5.96215">
        <ele>400.8</ele>
        <time>2024-08-05T11:32:27Z</time>
      </trkpt>
      <trkpt lat="47.16622" lon="5.96219">
        <ele>400.4</ele>
        <time>2024-08-05T11:32:28Z</time>
      </trkpt>
      <trkpt lat="47.16624" lon="5.96222">
        <ele>400.2</ele>
        <time>2024-08-05T11:32:29Z</time>
      </trkpt>
      <trkpt lat="47.16626" lon="5.96226">
        <ele>400</ele>
        <time>2024-08-05T11:32:30Z</time>
      </trkpt>
      <trkpt lat="47.16628" lon="5.96229">
        <ele>399.8</ele>
        <time>2024-08-05T11:32:31Z</time>
      </trkpt>
      <trkpt lat="47.1663" lon="5.96233">
        <ele>400</ele>
        <time>2024-08-05T11:32:32Z</time>
      </trkpt>
      <trkpt lat="47.16632" lon="5.96236">
        <ele>400</ele>
        <time>2024-08-05T11:32:33Z</time>
      </trkpt>
      <trkpt lat="47.16634" lon="5.9624">
        <ele>400</ele>
        <time>2024-08-05T11:32:34Z</time>
      </trkpt>
      <trkpt lat="47.16636" lon="5.96243">
        <ele>399.8</ele>
        <time>2024-08-05T11:32:35Z</time>
      </trkpt>
      <trkpt lat="47.16638" lon="5.96246">
        <ele>399.8</ele>
        <time>2024-08-05T11:32:36Z</time>
      </trkpt>
      <trkpt lat="47.16641" lon="5.96249">
        <ele>399.8</ele>
        <time>2024-08-05T11:32:37Z</time>
      </trkpt>
      <trkpt lat="47.16643" lon="5.96253">
        <ele>399.8</ele>
        <time>2024-08-05T11:32:38Z</time>
      </trkpt>
      <trkpt lat="47.16646" lon="5.96256">
        <ele>400</ele>
        <time>2024-08-05T11:32:39Z</time>
      </trkpt>
      <trkpt lat="47.16649" lon="5.9626">
        <ele>400.2</ele>
        <time>2024-08-05T11:32:40Z</time>
      </trkpt>
      <trkpt lat="47.16651" lon="5.96263">
        <ele>400.6</ele>
        <time>2024-08-05T11:32:41Z</time>
      </trkpt>
      <trkpt lat="47.16654" lon="5.96267">
        <ele>400.8</ele>
        <time>2024-08-05T11:32:42Z</time>
      </trkpt>
      <trkpt lat="47.16656" lon="5.9627">
        <ele>401.2</ele>
        <time>2024-08-05T11:32:43Z</time>
      </trkpt>
      <trkpt lat="47.16658" lon="5.96273">
        <ele>401.4</ele>
        <time>2024-08-05T11:32:44Z</time>
      </trkpt>
      <trkpt lat="47.1666" lon="5.96276">
        <ele>401.8</ele>
        <time>2024-08-05T11:32:45Z</time>
      </trkpt>
      <trkpt lat="47.16663" lon="5.96279">
        <ele>402</ele>
        <time>2024-08-05T11:32:46Z</time>
      </trkpt>
      <trkpt lat="47.16665" lon="5.96282">
        <ele>402.2</ele>
        <time>2024-08-05T11:32:47Z</time>
      </trkpt>
      <trkpt lat="47.16667" lon="5.96286">
        <ele>402.4</ele>
        <time>2024-08-05T11:32:48Z</time>
      </trkpt>
      <trkpt lat="47.16669" lon="5.96289">
        <ele>402.6</ele>
        <time>2024-08-05T11:32:49Z</time>
      </trkpt>
      <trkpt lat="47.16672" lon="5.96292">
        <ele>403</ele>
        <time>2024-08-05T11:32:50Z</time>
      </trkpt>
      <trkpt lat="47.16674" lon="5.96295">
        <ele>403.2</ele>
        <time>2024-08-05T11:32:51Z</time>
      </trkpt>
      <trkpt lat="47.16676" lon="5.96298">
        <ele>403.2</ele>
        <time>2024-08-05T11:32:52Z</time>
      </trkpt>
      <trkpt lat="47.16678" lon="5.963">
        <ele>403.4</ele>
        <time>2024-08-05T11:32:53Z</time>
      </trkpt>
      <trkpt lat="47.1668" lon="5.96302">
        <ele>403.6</ele>
        <time>2024-08-05T11:32:54Z</time>
      </trkpt>
      <trkpt lat="47.16683" lon="5.96304">
        <ele>403.8</ele>
        <time>2024-08-05T11:32:55Z</time>
      </trkpt>
      <trkpt lat="47.16685" lon="5.96306">
        <ele>403.8</ele>
        <time>2024-08-05T11:32:56Z</time>
      </trkpt>
      <trkpt lat="47.16687" lon="5.96308">
        <ele>404</ele>
        <time>2024-08-05T11:32:57Z</time>
      </trkpt>
      <trkpt lat="47.16689" lon="5.96311">
        <ele>404.2</ele>
        <time>2024-08-05T11:32:58Z</time>
      </trkpt>
      <trkpt lat="47.16691" lon="5.96313">
        <ele>404.6</ele>
        <time>2024-08-05T11:32:59Z</time>
      </trkpt>
      <trkpt lat="47.16694" lon="5.96316">
        <ele>404.8</ele>
        <time>2024-08-05T11:33:00Z</time>
      </trkpt>
      <trkpt lat="47.16696" lon="5.96318">
        <ele>405</ele>
        <time>2024-08-05T11:33:01Z</time>
      </trkpt>
      <trkpt lat="47.16698" lon="5.96321">
        <ele>405.2</ele>
        <time>2024-08-05T11:33:02Z</time>
      </trkpt>
      <trkpt lat="47.167" lon="5.96323">
        <ele>405.6</ele>
        <time>2024-08-05T11:33:03Z</time>
      </trkpt>
      <trkpt lat="47.16702" lon="5.96326">
        <ele>405.8</ele>
        <time>2024-08-05T11:33:04Z</time>
      </trkpt>
      <trkpt lat="47.16705" lon="5.96328">
        <ele>405.8</ele>
        <time>2024-08-05T11:33:05Z</time>
      </trkpt>
      <trkpt lat="47.16707" lon="5.96331">
        <ele>406</ele>
        <time>2024-08-05T11:33:06Z</time>
      </trkpt>
      <trkpt lat="47.16709" lon="5.96334">
        <ele>406.4</ele>
        <time>2024-08-05T11:33:07Z</time>
      </trkpt>
      <trkpt lat="47.16711" lon="5.96337">
        <ele>406.4</ele>
        <time>2024-08-05T11:33:08Z</time>
      </trkpt>
      <trkpt lat="47.16713" lon="5.9634">
        <ele>406.6</ele>
        <time>2024-08-05T11:33:09Z</time>
      </trkpt>
      <trkpt lat="47.16715" lon="5.96343">
        <ele>407</ele>
        <time>2024-08-05T11:33:10Z</time>
      </trkpt>
      <trkpt lat="47.16717" lon="5.96346">
        <ele>407.2</ele>
        <time>2024-08-05T11:33:11Z</time>
      </trkpt>
      <trkpt lat="47.16719" lon="5.96349">
        <ele>407.6</ele>
        <time>2024-08-05T11:33:12Z</time>
      </trkpt>
      <trkpt lat="47.1672" lon="5.96352">
        <ele>407.8</ele>
        <time>2024-08-05T11:33:13Z</time>
      </trkpt>
      <trkpt lat="47.16722" lon="5.96356">
        <ele>408</ele>
        <time>2024-08-05T11:33:14Z</time>
      </trkpt>
      <trkpt lat="47.16724" lon="5.96359">
        <ele>408.4</ele>
        <time>2024-08-05T11:33:15Z</time>
      </trkpt>
      <trkpt lat="47.16726" lon="5.96362">
        <ele>408.6</ele>
        <time>2024-08-05T11:33:16Z</time>
      </trkpt>
      <trkpt lat="47.16727" lon="5.96365">
        <ele>409</ele>
        <time>2024-08-05T11:33:17Z</time>
      </trkpt>
      <trkpt lat="47.16729" lon="5.96368">
        <ele>409</ele>
        <time>2024-08-05T11:33:18Z</time>
      </trkpt>
      <trkpt lat="47.16731" lon="5.96371">
        <ele>409.2</ele>
        <time>2024-08-05T11:33:19Z</time>
      </trkpt>
      <trkpt lat="47.16733" lon="5.96374">
        <ele>409.2</ele>
        <time>2024-08-05T11:33:20Z</time>
      </trkpt>
      <trkpt lat="47.16734" lon="5.96376">
        <ele>409.2</ele>
        <time>2024-08-05T11:33:21Z</time>
      </trkpt>
      <trkpt lat="47.16736" lon="5.96379">
        <ele>409.4</ele>
        <time>2024-08-05T11:33:22Z</time>
      </trkpt>
      <trkpt lat="47.16737" lon="5.96382">
        <ele>409.8</ele>
        <time>2024-08-05T11:33:23Z</time>
      </trkpt>
      <trkpt lat="47.16737" lon="5.96386">
        <ele>409.8</ele>
        <time>2024-08-05T11:33:24Z</time>
      </trkpt>
      <trkpt lat="47.16737" lon="5.9639">
        <ele>410</ele>
        <time>2024-08-05T11:33:25Z</time>
      </trkpt>
      <trkpt lat="47.16735" lon="5.96394">
        <ele>410</ele>
        <time>2024-08-05T11:33:26Z</time>
      </trkpt>
      <trkpt lat="47.16733" lon="5.96398">
        <ele>410</ele>
        <time>2024-08-05T11:33:27Z</time>
      </trkpt>
      <trkpt lat="47.16731" lon="5.96402">
        <ele>410.2</ele>
        <time>2024-08-05T11:33:28Z</time>
      </trkpt>
      <trkpt lat="47.16729" lon="5.96406">
        <ele>410</ele>
        <time>2024-08-05T11:33:29Z</time>
      </trkpt>
      <trkpt lat="47.16728" lon="5.96411">
        <ele>410.2</ele>
        <time>2024-08-05T11:33:30Z</time>
      </trkpt>
      <trkpt lat="47.16727" lon="5.96415">
        <ele>410</ele>
        <time>2024-08-05T11:33:31Z</time>
      </trkpt>
      <trkpt lat="47.16726" lon="5.9642">
        <ele>410</ele>
        <time>2024-08-05T11:33:32Z</time>
      </trkpt>
      <trkpt lat="47.16726" lon="5.96425">
        <ele>410</ele>
        <time>2024-08-05T11:33:33Z</time>
      </trkpt>
      <trkpt lat="47.16727" lon="5.9643">
        <ele>410.2</ele>
        <time>2024-08-05T11:33:34Z</time>
      </trkpt>
      <trkpt lat="47.1673" lon="5.96437">
        <ele>410</ele>
        <time>2024-08-05T11:33:35Z</time>
      </trkpt>
      <trkpt lat="47.16733" lon="5.96444">
        <ele>410</ele>
        <time>2024-08-05T11:33:36Z</time>
      </trkpt>
      <trkpt lat="47.16738" lon="5.96452">
        <ele>409.6</ele>
        <time>2024-08-05T11:33:37Z</time>
      </trkpt>
      <trkpt lat="47.16743" lon="5.96459">
        <ele>409.4</ele>
        <time>2024-08-05T11:33:38Z</time>
      </trkpt>
      <trkpt lat="47.16748" lon="5.96466">
        <ele>409</ele>
        <time>2024-08-05T11:33:39Z</time>
      </trkpt>
      <trkpt lat="47.16753" lon="5.96473">
        <ele>409</ele>
        <time>2024-08-05T11:33:40Z</time>
      </trkpt>
      <trkpt lat="47.16759" lon="5.9648">
        <ele>408.4</ele>
        <time>2024-08-05T11:33:41Z</time>
      </trkpt>
      <trkpt lat="47.16765" lon="5.96487">
        <ele>408</ele>
        <time>2024-08-05T11:33:42Z</time>
      </trkpt>
      <trkpt lat="47.16771" lon="5.96494">
        <ele>407.4</ele>
        <time>2024-08-05T11:33:43Z</time>
      </trkpt>
      <trkpt lat="47.16778" lon="5.96502">
        <ele>406.8</ele>
        <time>2024-08-05T11:33:44Z</time>
      </trkpt>
      <trkpt lat="47.16785" lon="5.96509">
        <ele>406</ele>
        <time>2024-08-05T11:33:45Z</time>
      </trkpt>
      <trkpt lat="47.16792" lon="5.96517">
        <ele>405.6</ele>
        <time>2024-08-05T11:33:46Z</time>
      </trkpt>
      <trkpt lat="47.168" lon="5.96525">
        <ele>404.8</ele>
        <time>2024-08-05T11:33:47Z</time>
      </trkpt>
      <trkpt lat="47.16808" lon="5.96533">
        <ele>404.2</ele>
        <time>2024-08-05T11:33:48Z</time>
      </trkpt>
      <trkpt lat="47.16816" lon="5.9654">
        <ele>403.4</ele>
        <time>2024-08-05T11:33:49Z</time>
      </trkpt>
      <trkpt lat="47.16825" lon="5.96547">
        <ele>402.8</ele>
        <time>2024-08-05T11:33:50Z</time>
      </trkpt>
      <trkpt lat="47.16834" lon="5.96553">
        <ele>402</ele>
        <time>2024-08-05T11:33:51Z</time>
      </trkpt>
      <trkpt lat="47.16843" lon="5.9656">
        <ele>401.4</ele>
        <time>2024-08-05T11:33:52Z</time>
      </trkpt>
      <trkpt lat="47.16852" lon="5.96567">
        <ele>400.6</ele>
        <time>2024-08-05T11:33:53Z</time>
      </trkpt>
      <trkpt lat="47.16862" lon="5.96575">
        <ele>399.8</ele>
        <time>2024-08-05T11:33:54Z</time>
      </trkpt>
      <trkpt lat="47.16872" lon="5.96583">
        <ele>398.8</ele>
        <time>2024-08-05T11:33:55Z</time>
      </trkpt>
      <trkpt lat="47.16882" lon="5.96592">
        <ele>398</ele>
        <time>2024-08-05T11:33:56Z</time>
      </trkpt>
      <trkpt lat="47.16894" lon="5.96601">
        <ele>397.2</ele>
        <time>2024-08-05T11:33:57Z</time>
      </trkpt>
      <trkpt lat="47.16904" lon="5.96609">
        <ele>396.6</ele>
        <time>2024-08-05T11:33:58Z</time>
      </trkpt>
      <trkpt lat="47.16915" lon="5.96616">
        <ele>395.4</ele>
        <time>2024-08-05T11:33:59Z</time>
      </trkpt>
      <trkpt lat="47.16926" lon="5.96623">
        <ele>394.6</ele>
        <time>2024-08-05T11:34:00Z</time>
      </trkpt>
      <trkpt lat="47.16935" lon="5.96629">
        <ele>393.8</ele>
        <time>2024-08-05T11:34:01Z</time>
      </trkpt>
      <trkpt lat="47.16942" lon="5.96635">
        <ele>393.8</ele>
        <time>2024-08-05T11:34:02Z</time>
      </trkpt>
      <trkpt lat="47.16949" lon="5.96642">
        <ele>392.8</ele>
        <time>2024-08-05T11:34:03Z</time>
      </trkpt>
      <trkpt lat="47.16955" lon="5.96648">
        <ele>391.8</ele>
        <time>2024-08-05T11:34:04Z</time>
      </trkpt>
      <trkpt lat="47.16961" lon="5.96655">
        <ele>390.8</ele>
        <time>2024-08-05T11:34:05Z</time>
      </trkpt>
      <trkpt lat="47.16967" lon="5.9666">
        <ele>389.8</ele>
        <time>2024-08-05T11:34:06Z</time>
      </trkpt>
      <trkpt lat="47.16973" lon="5.96666">
        <ele>389.2</ele>
        <time>2024-08-05T11:34:07Z</time>
      </trkpt>
      <trkpt lat="47.1698" lon="5.96671">
        <ele>388.6</ele>
        <time>2024-08-05T11:34:08Z</time>
      </trkpt>
      <trkpt lat="47.16986" lon="5.96676">
        <ele>388</ele>
        <time>2024-08-05T11:34:09Z</time>
      </trkpt>
      <trkpt lat="47.16993" lon="5.9668">
        <ele>387.4</ele>
        <time>2024-08-05T11:34:10Z</time>
      </trkpt>
      <trkpt lat="47.16999" lon="5.96684">
        <ele>387</ele>
        <time>2024-08-05T11:34:11Z</time>
      </trkpt>
      <trkpt lat="47.17004" lon="5.9669">
        <ele>386.4</ele>
        <time>2024-08-05T11:34:12Z</time>
      </trkpt>
      <trkpt lat="47.17009" lon="5.96695">
        <ele>385.8</ele>
        <time>2024-08-05T11:34:13Z</time>
      </trkpt>
      <trkpt lat="47.17013" lon="5.967">
        <ele>385</ele>
        <time>2024-08-05T11:34:14Z</time>
      </trkpt>
      <trkpt lat="47.17017" lon="5.96704">
        <ele>384</ele>
        <time>2024-08-05T11:34:15Z</time>
      </trkpt>
      <trkpt lat="47.17019" lon="5.96708">
        <ele>383.2</ele>
        <time>2024-08-05T11:34:16Z</time>
      </trkpt>
      <trkpt lat="47.1702" lon="5.96709">
        <ele>382</ele>
        <time>2024-08-05T11:34:17Z</time>
      </trkpt>
      <trkpt lat="47.17022" lon="5.96711">
        <ele>381.4</ele>
        <time>2024-08-05T11:34:18Z</time>
      </trkpt>
      <trkpt lat="47.17022" lon="5.96712">
        <ele>380.6</ele>
        <time>2024-08-05T11:34:19Z</time>
      </trkpt>
      <trkpt lat="47.17022" lon="5.96712">
        <ele>379.8</ele>
        <time>2024-08-05T11:34:20Z</time>
      </trkpt>
      <trkpt lat="47.17021" lon="5.96712">
        <ele>379</ele>
        <time>2024-08-05T11:34:21Z</time>
      </trkpt>
      <trkpt lat="47.17021" lon="5.96712">
        <ele>378.2</ele>
        <time>2024-08-05T11:34:22Z</time>
      </trkpt>
      <trkpt lat="47.1702" lon="5.96711">
        <ele>377.6</ele>
        <time>2024-08-05T11:34:23Z</time>
      </trkpt>
      <trkpt lat="47.1702" lon="5.9671">
        <ele>377.6</ele>
        <time>2024-08-05T11:34:24Z</time>
      </trkpt>
      <trkpt lat="47.17019" lon="5.96709">
        <ele>377</ele>
        <time>2024-08-05T11:34:25Z</time>
      </trkpt>
      <trkpt lat="47.17018" lon="5.96709">
        <ele>376.6</ele>
        <time>2024-08-05T11:34:26Z</time>
      </trkpt>
      <trkpt lat="47.17018" lon="5.96708">
        <ele>376.4</ele>
        <time>2024-08-05T11:34:27Z</time>
      </trkpt>
      <trkpt lat="47.17018" lon="5.96708">
        <ele>376.2</ele>
        <time>2024-08-05T11:34:28Z</time>
      </trkpt>
      <trkpt lat="47.17017" lon="5.96707">
        <ele>376</ele>
        <time>2024-08-05T11:34:29Z</time>
      </trkpt>
      <trkpt lat="47.17017" lon="5.96707">
        <ele>375.8</ele>
        <time>2024-08-05T11:34:30Z</time>
      </trkpt>
      <trkpt lat="47.17016" lon="5.96707">
        <ele>375.8</ele>
        <time>2024-08-05T11:34:31Z</time>
      </trkpt>
      <trkpt lat="47.17016" lon="5.96707">
        <ele>375.6</ele>
        <time>2024-08-05T11:34:32Z</time>
      </trkpt>
      <trkpt lat="47.17016" lon="5.96706">
        <ele>375.6</ele>
        <time>2024-08-05T11:34:33Z</time>
      </trkpt>
      <trkpt lat="47.17016" lon="5.96706">
        <ele>375.6</ele>
        <time>2024-08-05T11:34:34Z</time>
      </trkpt>
      <trkpt lat="47.17016" lon="5.96706">
        <ele>375.6</ele>
        <time>2024-08-05T11:34:35Z</time>
      </trkpt>
      <trkpt lat="47.17016" lon="5.96707">
        <ele>375.8</ele>
        <time>2024-08-05T11:34:36Z</time>
      </trkpt>
      <trkpt lat="47.17016" lon="5.96708">
        <ele>375.6</ele>
        <time>2024-08-05T11:34:37Z</time>
      </trkpt>
      <trkpt lat="47.17017" lon="5.9671">
        <ele>375.8</ele>
        <time>2024-08-05T11:34:38Z</time>
      </trkpt>
      <trkpt lat="47.17017" lon="5.96712">
        <ele>375.6</ele>
        <time>2024-08-05T11:34:39Z</time>
      </trkpt>
      <trkpt lat="47.17018" lon="5.96714">
        <ele>375.6</ele>
        <time>2024-08-05T11:34:40Z</time>
      </trkpt>
      <trkpt lat="47.17019" lon="5.96718">
        <ele>375.8</ele>
        <time>2024-08-05T11:34:41Z</time>
      </trkpt>
      <trkpt lat="47.1702" lon="5.96721">
        <ele>375.6</ele>
        <time>2024-08-05T11:34:42Z</time>
      </trkpt>
      <trkpt lat="47.17022" lon="5.96726">
        <ele>375.8</ele>
        <time>2024-08-05T11:34:43Z</time>
      </trkpt>
      <trkpt lat="47.17024" lon="5.9673">
        <ele>375.6</ele>
        <time>2024-08-05T11:34:44Z</time>
      </trkpt>
      <trkpt lat="47.17027" lon="5.96734">
        <ele>375.6</ele>
        <time>2024-08-05T11:34:45Z</time>
      </trkpt>
      <trkpt lat="47.17029" lon="5.96738">
        <ele>375.6</ele>
        <time>2024-08-05T11:34:46Z</time>
      </trkpt>
      <trkpt lat="47.17032" lon="5.96742">
        <ele>375.6</ele>
        <time>2024-08-05T11:34:47Z</time>
      </trkpt>
      <trkpt lat="47.17035" lon="5.96746">
        <ele>375.6</ele>
        <time>2024-08-05T11:34:48Z</time>
      </trkpt>
      <trkpt lat="47.17037" lon="5.96749">
        <ele>375.6</ele>
        <time>2024-08-05T11:34:49Z</time>
      </trkpt>
      <trkpt lat="47.1704" lon="5.96753">
        <ele>375.4</ele>
        <time>2024-08-05T11:34:50Z</time>
      </trkpt>
      <trkpt lat="47.17043" lon="5.96756">
        <ele>375.2</ele>
        <time>2024-08-05T11:34:51Z</time>
      </trkpt>
      <trkpt lat="47.17046" lon="5.9676">
        <ele>375</ele>
        <time>2024-08-05T11:34:52Z</time>
      </trkpt>
      <trkpt lat="47.1705" lon="5.96763">
        <ele>374.8</ele>
        <time>2024-08-05T11:34:53Z</time>
      </trkpt>
      <trkpt lat="47.17053" lon="5.96766">
        <ele>374.8</ele>
        <time>2024-08-05T11:34:54Z</time>
      </trkpt>
      <trkpt lat="47.17057" lon="5.9677">
        <ele>374.4</ele>
        <time>2024-08-05T11:34:55Z</time>
      </trkpt>
      <trkpt lat="47.1706" lon="5.96773">
        <ele>374.6</ele>
        <time>2024-08-05T11:34:56Z</time>
      </trkpt>
      <trkpt lat="47.17064" lon="5.96777">
        <ele>374.4</ele>
        <time>2024-08-05T11:34:57Z</time>
      </trkpt>
      <trkpt lat="47.17067" lon="5.9678">
        <ele>374.2</ele>
        <time>2024-08-05T11:34:58Z</time>
      </trkpt>
      <trkpt lat="47.1707" lon="5.96782">
        <ele>374.2</ele>
        <time>2024-08-05T11:34:59Z</time>
      </trkpt>
      <trkpt lat="47.17074" lon="5.96785">
        <ele>374.2</ele>
        <time>2024-08-05T11:35:00Z</time>
      </trkpt>
      <trkpt lat="47.17078" lon="5.96788">
        <ele>374.2</ele>
        <time>2024-08-05T11:35:01Z</time>
      </trkpt>
      <trkpt lat="47.17081" lon="5.9679">
        <ele>374</ele>
        <time>2024-08-05T11:35:02Z</time>
      </trkpt>
      <trkpt lat="47.17085" lon="5.96793">
        <ele>374</ele>
        <time>2024-08-05T11:35:03Z</time>
      </trkpt>
      <trkpt lat="47.17088" lon="5.96795">
        <ele>374.2</ele>
        <time>2024-08-05T11:35:04Z</time>
      </trkpt>
      <trkpt lat="47.17092" lon="5.96797">
        <ele>374</ele>
        <time>2024-08-05T11:35:05Z</time>
      </trkpt>
      <trkpt lat="47.17096" lon="5.96799">
        <ele>374</ele>
        <time>2024-08-05T11:35:06Z</time>
      </trkpt>
      <trkpt lat="47.171" lon="5.96801">
        <ele>374</ele>
        <time>2024-08-05T11:35:07Z</time>
      </trkpt>
      <trkpt lat="47.17103" lon="5.96803">
        <ele>374</ele>
        <time>2024-08-05T11:35:08Z</time>
      </trkpt>
      <trkpt lat="47.17107" lon="5.96805">
        <ele>374</ele>
        <time>2024-08-05T11:35:09Z</time>
      </trkpt>
      <trkpt lat="47.17111" lon="5.96807">
        <ele>374</ele>
        <time>2024-08-05T11:35:10Z</time>
      </trkpt>
      <trkpt lat="47.17114" lon="5.96809">
        <ele>374.2</ele>
        <time>2024-08-05T11:35:11Z</time>
      </trkpt>
      <trkpt lat="47.17117" lon="5.96811">
        <ele>374</ele>
        <time>2024-08-05T11:35:12Z</time>
      </trkpt>
      <trkpt lat="47.17121" lon="5.96812">
        <ele>374.2</ele>
        <time>2024-08-05T11:35:13Z</time>
      </trkpt>
      <trkpt lat="47.17124" lon="5.96815">
        <ele>374</ele>
        <time>2024-08-05T11:35:14Z</time>
      </trkpt>
      <trkpt lat="47.17127" lon="5.96817">
        <ele>374</ele>
        <time>2024-08-05T11:35:15Z</time>
      </trkpt>
      <trkpt lat="47.17131" lon="5.9682">
        <ele>374</ele>
        <time>2024-08-05T11:35:16Z</time>
      </trkpt>
      <trkpt lat="47.17135" lon="5.96822">
        <ele>374</ele>
        <time>2024-08-05T11:35:17Z</time>
      </trkpt>
      <trkpt lat="47.1714" lon="5.96825">
        <ele>374.2</ele>
        <time>2024-08-05T11:35:18Z</time>
      </trkpt>
      <trkpt lat="47.17144" lon="5.96829">
        <ele>373.8</ele>
        <time>2024-08-05T11:35:19Z</time>
      </trkpt>
      <trkpt lat="47.17149" lon="5.96833">
        <ele>373.8</ele>
        <time>2024-08-05T11:35:20Z</time>
      </trkpt>
      <trkpt lat="47.17153" lon="5.96838">
        <ele>373.6</ele>
        <time>2024-08-05T11:35:21Z</time>
      </trkpt>
      <trkpt lat="47.17157" lon="5.96844">
        <ele>373.6</ele>
        <time>2024-08-05T11:35:22Z</time>
      </trkpt>
      <trkpt lat="47.1716" lon="5.96852">
        <ele>373.6</ele>
        <time>2024-08-05T11:35:23Z</time>
      </trkpt>
      <trkpt lat="47.17163" lon="5.9686">
        <ele>373.4</ele>
        <time>2024-08-05T11:35:24Z</time>
      </trkpt>
      <trkpt lat="47.17165" lon="5.96869">
        <ele>373</ele>
        <time>2024-08-05T11:35:25Z</time>
      </trkpt>
      <trkpt lat="47.17166" lon="5.96879">
        <ele>373</ele>
        <time>2024-08-05T11:35:26Z</time>
      </trkpt>
      <trkpt lat="47.17167" lon="5.96888">
        <ele>372.6</ele>
        <time>2024-08-05T11:35:27Z</time>
      </trkpt>
      <trkpt lat="47.17168" lon="5.96896">
        <ele>372.4</ele>
        <time>2024-08-05T11:35:28Z</time>
      </trkpt>
      <trkpt lat="47.17168" lon="5.96904">
        <ele>371.8</ele>
        <time>2024-08-05T11:35:29Z</time>
      </trkpt>
      <trkpt lat="47.1717" lon="5.96911">
        <ele>371.8</ele>
        <time>2024-08-05T11:35:30Z</time>
      </trkpt>
      <trkpt lat="47.17171" lon="5.96917">
        <ele>371.6</ele>
        <time>2024-08-05T11:35:31Z</time>
      </trkpt>
      <trkpt lat="47.17172" lon="5.96923">
        <ele>371.4</ele>
        <time>2024-08-05T11:35:32Z</time>
      </trkpt>
      <trkpt lat="47.17174" lon="5.96929">
        <ele>371</ele>
        <time>2024-08-05T11:35:33Z</time>
      </trkpt>
      <trkpt lat="47.17175" lon="5.96934">
        <ele>370.8</ele>
        <time>2024-08-05T11:35:34Z</time>
      </trkpt>
      <trkpt lat="47.17177" lon="5.96939">
        <ele>370.6</ele>
        <time>2024-08-05T11:35:35Z</time>
      </trkpt>
      <trkpt lat="47.17179" lon="5.96944">
        <ele>370.6</ele>
        <time>2024-08-05T11:35:36Z</time>
      </trkpt>
      <trkpt lat="47.17181" lon="5.96948">
        <ele>370.4</ele>
        <time>2024-08-05T11:35:37Z</time>
      </trkpt>
      <trkpt lat="47.17182" lon="5.96953">
        <ele>370.6</ele>
        <time>2024-08-05T11:35:38Z</time>
      </trkpt>
      <trkpt lat="47.17184" lon="5.96957">
        <ele>370.6</ele>
        <time>2024-08-05T11:35:39Z</time>
      </trkpt>
      <trkpt lat="47.17185" lon="5.96962">
        <ele>370.4</ele>
        <time>2024-08-05T11:35:40Z</time>
      </trkpt>
      <trkpt lat="47.17187" lon="5.96966">
        <ele>370.4</ele>
        <time>2024-08-05T11:35:41Z</time>
      </trkpt>
      <trkpt lat="47.17188" lon="5.9697">
        <ele>370.4</ele>
        <time>2024-08-05T11:35:42Z</time>
      </trkpt>
      <trkpt lat="47.17189" lon="5.96974">
        <ele>370.6</ele>
        <time>2024-08-05T11:35:43Z</time>
      </trkpt>
      <trkpt lat="47.17191" lon="5.96978">
        <ele>370.8</ele>
        <time>2024-08-05T11:35:44Z</time>
      </trkpt>
      <trkpt lat="47.17192" lon="5.96982">
        <ele>370.8</ele>
        <time>2024-08-05T11:35:45Z</time>
      </trkpt>
      <trkpt lat="47.17193" lon="5.96986">
        <ele>371.2</ele>
        <time>2024-08-05T11:35:46Z</time>
      </trkpt>
      <trkpt lat="47.17195" lon="5.96989">
        <ele>371.2</ele>
        <time>2024-08-05T11:35:47Z</time>
      </trkpt>
      <trkpt lat="47.17196" lon="5.96993">
        <ele>371.4</ele>
        <time>2024-08-05T11:35:48Z</time>
      </trkpt>
      <trkpt lat="47.17198" lon="5.96996">
        <ele>371.6</ele>
        <time>2024-08-05T11:35:49Z</time>
      </trkpt>
      <trkpt lat="47.17199" lon="5.97">
        <ele>371.6</ele>
        <time>2024-08-05T11:35:50Z</time>
      </trkpt>
      <trkpt lat="47.17201" lon="5.97004">
        <ele>372</ele>
        <time>2024-08-05T11:35:51Z</time>
      </trkpt>
      <trkpt lat="47.17202" lon="5.97008">
        <ele>372</ele>
        <time>2024-08-05T11:35:52Z</time>
      </trkpt>
      <trkpt lat="47.17204" lon="5.97011">
        <ele>372.4</ele>
        <time>2024-08-05T11:35:53Z</time>
      </trkpt>
      <trkpt lat="47.17205" lon="5.97015">
        <ele>372.8</ele>
        <time>2024-08-05T11:35:54Z</time>
      </trkpt>
      <trkpt lat="47.17206" lon="5.97019">
        <ele>373</ele>
        <time>2024-08-05T11:35:55Z</time>
      </trkpt>
      <trkpt lat="47.17208" lon="5.97023">
        <ele>373.2</ele>
        <time>2024-08-05T11:35:56Z</time>
      </trkpt>
      <trkpt lat="47.17209" lon="5.97026">
        <ele>373.6</ele>
        <time>2024-08-05T11:35:57Z</time>
      </trkpt>
      <trkpt lat="47.17211" lon="5.9703">
        <ele>373.8</ele>
        <time>2024-08-05T11:35:58Z</time>
      </trkpt>
      <trkpt lat="47.17212" lon="5.97033">
        <ele>374</ele>
        <time>2024-08-05T11:35:59Z</time>
      </trkpt>
      <trkpt lat="47.17214" lon="5.97037">
        <ele>374.2</ele>
        <time>2024-08-05T11:36:00Z</time>
      </trkpt>
      <trkpt lat="47.17215" lon="5.97041">
        <ele>374.4</ele>
        <time>2024-08-05T11:36:01Z</time>
      </trkpt>
      <trkpt lat="47.17217" lon="5.97044">
        <ele>374.6</ele>
        <time>2024-08-05T11:36:02Z</time>
      </trkpt>
      <trkpt lat="47.17218" lon="5.97048">
        <ele>374.8</ele>
        <time>2024-08-05T11:36:03Z</time>
      </trkpt>
      <trkpt lat="47.17219" lon="5.97051">
        <ele>375</ele>
        <time>2024-08-05T11:36:04Z</time>
      </trkpt>
      <trkpt lat="47.17221" lon="5.97055">
        <ele>375.4</ele>
        <time>2024-08-05T11:36:05Z</time>
      </trkpt>
      <trkpt lat="47.17222" lon="5.97059">
        <ele>375.6</ele>
        <time>2024-08-05T11:36:06Z</time>
      </trkpt>
      <trkpt lat="47.17224" lon="5.97063">
        <ele>375.8</ele>
        <time>2024-08-05T11:36:07Z</time>
      </trkpt>
      <trkpt lat="47.17225" lon="5.97066">
        <ele>376</ele>
        <time>2024-08-05T11:36:08Z</time>
      </trkpt>
      <trkpt lat="47.17227" lon="5.9707">
        <ele>376</ele>
        <time>2024-08-05T11:36:09Z</time>
      </trkpt>
      <trkpt lat="47.17228" lon="5.97073">
        <ele>376.2</ele>
        <time>2024-08-05T11:36:10Z</time>
      </trkpt>
      <trkpt lat="47.1723" lon="5.97076">
        <ele>376.4</ele>
        <time>2024-08-05T11:36:11Z</time>
      </trkpt>
      <trkpt lat="47.17231" lon="5.9708">
        <ele>376.4</ele>
        <time>2024-08-05T11:36:12Z</time>
      </trkpt>
      <trkpt lat="47.17233" lon="5.97083">
        <ele>376.8</ele>
        <time>2024-08-05T11:36:13Z</time>
      </trkpt>
      <trkpt lat="47.17234" lon="5.97086">
        <ele>376.8</ele>
        <time>2024-08-05T11:36:14Z</time>
      </trkpt>
      <trkpt lat="47.17235" lon="5.9709">
        <ele>376.8</ele>
        <time>2024-08-05T11:36:15Z</time>
      </trkpt>
      <trkpt lat="47.17237" lon="5.97093">
        <ele>377</ele>
        <time>2024-08-05T11:36:16Z</time>
      </trkpt>
      <trkpt lat="47.17238" lon="5.97096">
        <ele>377.2</ele>
        <time>2024-08-05T11:36:17Z</time>
      </trkpt>
      <trkpt lat="47.1724" lon="5.97099">
        <ele>377.4</ele>
        <time>2024-08-05T11:36:18Z</time>
      </trkpt>
      <trkpt lat="47.17241" lon="5.97103">
        <ele>377.8</ele>
        <time>2024-08-05T11:36:19Z</time>
      </trkpt>
      <trkpt lat="47.17243" lon="5.97106">
        <ele>378</ele>
        <time>2024-08-05T11:36:20Z</time>
      </trkpt>
      <trkpt lat="47.17244" lon="5.97109">
        <ele>377.8</ele>
        <time>2024-08-05T11:36:21Z</time>
      </trkpt>
      <trkpt lat="47.17246" lon="5.97112">
        <ele>378.2</ele>
        <time>2024-08-05T11:36:22Z</time>
      </trkpt>
      <trkpt lat="47.17247" lon="5.97116">
        <ele>378.4</ele>
        <time>2024-08-05T11:36:23Z</time>
      </trkpt>
      <trkpt lat="47.17248" lon="5.97119">
        <ele>378.4</ele>
        <time>2024-08-05T11:36:24Z</time>
      </trkpt>
      <trkpt lat="47.1725" lon="5.97123">
        <ele>378.6</ele>
        <time>2024-08-05T11:36:25Z</time>
      </trkpt>
      <trkpt lat="47.17251" lon="5.97126">
        <ele>378.6</ele>
        <time>2024-08-05T11:36:26Z</time>
      </trkpt>
      <trkpt lat="47.17253" lon="5.9713">
        <ele>378.6</ele>
        <time>2024-08-05T11:36:27Z</time>
      </trkpt>
      <trkpt lat="47.17254" lon="5.97133">
        <ele>378.8</ele>
        <time>2024-08-05T11:36:28Z</time>
      </trkpt>
      <trkpt lat="47.17255" lon="5.97136">
        <ele>379</ele>
        <time>2024-08-05T11:36:29Z</time>
      </trkpt>
      <trkpt lat="47.17257" lon="5.9714">
        <ele>379</ele>
        <time>2024-08-05T11:36:30Z</time>
      </trkpt>
      <trkpt lat="47.17258" lon="5.97143">
        <ele>379.2</ele>
        <time>2024-08-05T11:36:31Z</time>
      </trkpt>
      <trkpt lat="47.17259" lon="5.97146">
        <ele>379.6</ele>
        <time>2024-08-05T11:36:32Z</time>
      </trkpt>
      <trkpt lat="47.17261" lon="5.97149">
        <ele>379.6</ele>
        <time>2024-08-05T11:36:33Z</time>
      </trkpt>
      <trkpt lat="47.17262" lon="5.97152">
        <ele>380</ele>
        <time>2024-08-05T11:36:34Z</time>
      </trkpt>
      <trkpt lat="47.17264" lon="5.97155">
        <ele>380</ele>
        <time>2024-08-05T11:36:35Z</time>
      </trkpt>
      <trkpt lat="47.17265" lon="5.97158">
        <ele>380.2</ele>
        <time>2024-08-05T11:36:36Z</time>
      </trkpt>
      <trkpt lat="47.17266" lon="5.97161">
        <ele>380.2</ele>
        <time>2024-08-05T11:36:37Z</time>
      </trkpt>
      <trkpt lat="47.17268" lon="5.97164">
        <ele>380.4</ele>
        <time>2024-08-05T11:36:38Z</time>
      </trkpt>
      <trkpt lat="47.17269" lon="5.97167">
        <ele>380.4</ele>
        <time>2024-08-05T11:36:39Z</time>
      </trkpt>
      <trkpt lat="47.1727" lon="5.9717">
        <ele>380.8</ele>
        <time>2024-08-05T11:36:40Z</time>
      </trkpt>
      <trkpt lat="47.17272" lon="5.97173">
        <ele>381.2</ele>
        <time>2024-08-05T11:36:41Z</time>
      </trkpt>
      <trkpt lat="47.17273" lon="5.97176">
        <ele>381.2</ele>
        <time>2024-08-05T11:36:42Z</time>
      </trkpt>
      <trkpt lat="47.17274" lon="5.97179">
        <ele>381.4</ele>
        <time>2024-08-05T11:36:43Z</time>
      </trkpt>
      <trkpt lat="47.17276" lon="5.97182">
        <ele>381.6</ele>
        <time>2024-08-05T11:36:44Z</time>
      </trkpt>
      <trkpt lat="47.17277" lon="5.97185">
        <ele>381.6</ele>
        <time>2024-08-05T11:36:45Z</time>
      </trkpt>
      <trkpt lat="47.17278" lon="5.97188">
        <ele>382</ele>
        <time>2024-08-05T11:36:46Z</time>
      </trkpt>
      <trkpt lat="47.17279" lon="5.97191">
        <ele>382.2</ele>
        <time>2024-08-05T11:36:47Z</time>
      </trkpt>
      <trkpt lat="47.1728" lon="5.97194">
        <ele>382.6</ele>
        <time>2024-08-05T11:36:48Z</time>
      </trkpt>
      <trkpt lat="47.17282" lon="5.97197">
        <ele>382.8</ele>
        <time>2024-08-05T11:36:49Z</time>
      </trkpt>
      <trkpt lat="47.17283" lon="5.972">
        <ele>383</ele>
        <time>2024-08-05T11:36:50Z</time>
      </trkpt>
      <trkpt lat="47.17285" lon="5.97202">
        <ele>383.4</ele>
        <time>2024-08-05T11:36:51Z</time>
      </trkpt>
      <trkpt lat="47.17287" lon="5.97205">
        <ele>383.4</ele>
        <time>2024-08-05T11:36:52Z</time>
      </trkpt>
      <trkpt lat="47.17288" lon="5.97208">
        <ele>383.6</ele>
        <time>2024-08-05T11:36:53Z</time>
      </trkpt>
      <trkpt lat="47.17289" lon="5.97212">
        <ele>383.8</ele>
        <time>2024-08-05T11:36:54Z</time>
      </trkpt>
      <trkpt lat="47.17291" lon="5.97215">
        <ele>384</ele>
        <time>2024-08-05T11:36:55Z</time>
      </trkpt>
      <trkpt lat="47.17292" lon="5.97219">
        <ele>384.2</ele>
        <time>2024-08-05T11:36:56Z</time>
      </trkpt>
      <trkpt lat="47.17293" lon="5.97222">
        <ele>384.6</ele>
        <time>2024-08-05T11:36:57Z</time>
      </trkpt>
      <trkpt lat="47.17294" lon="5.97225">
        <ele>384.8</ele>
        <time>2024-08-05T11:36:58Z</time>
      </trkpt>
      <trkpt lat="47.17296" lon="5.97229">
        <ele>384.8</ele>
        <time>2024-08-05T11:36:59Z</time>
      </trkpt>
      <trkpt lat="47.17297" lon="5.97232">
        <ele>384.8</ele>
        <time>2024-08-05T11:37:00Z</time>
      </trkpt>
      <trkpt lat="47.17299" lon="5.97235">
        <ele>384.8</ele>
        <time>2024-08-05T11:37:01Z</time>
      </trkpt>
      <trkpt lat="47.173" lon="5.97238">
        <ele>384.8</ele>
        <time>2024-08-05T11:37:02Z</time>
      </trkpt>
      <trkpt lat="47.17301" lon="5.97241">
        <ele>385.2</ele>
        <time>2024-08-05T11:37:03Z</time>
      </trkpt>
      <trkpt lat="47.17302" lon="5.97245">
        <ele>385.4</ele>
        <time>2024-08-05T11:37:04Z</time>
      </trkpt>
      <trkpt lat="47.17304" lon="5.97248">
        <ele>385.4</ele>
        <time>2024-08-05T11:37:05Z</time>
      </trkpt>
      <trkpt lat="47.17305" lon="5.97251">
        <ele>385.6</ele>
        <time>2024-08-05T11:37:06Z</time>
      </trkpt>
      <trkpt lat="47.17306" lon="5.97255">
        <ele>386</ele>
        <time>2024-08-05T11:37:07Z</time>
      </trkpt>
      <trkpt lat="47.17307" lon="5.97258">
        <ele>386.2</ele>
        <time>2024-08-05T11:37:08Z</time>
      </trkpt>
      <trkpt lat="47.17309" lon="5.97262">
        <ele>386.2</ele>
        <time>2024-08-05T11:37:09Z</time>
      </trkpt>
      <trkpt lat="47.1731" lon="5.97265">
        <ele>386.4</ele>
        <time>2024-08-05T11:37:10Z</time>
      </trkpt>
      <trkpt lat="47.17311" lon="5.97268">
        <ele>386.6</ele>
        <time>2024-08-05T11:37:11Z</time>
      </trkpt>
      <trkpt lat="47.17312" lon="5.97272">
        <ele>386.6</ele>
        <time>2024-08-05T11:37:12Z</time>
      </trkpt>
      <trkpt lat="47.17314" lon="5.97275">
        <ele>386.8</ele>
        <time>2024-08-05T11:37:13Z</time>
      </trkpt>
      <trkpt lat="47.17315" lon="5.97278">
        <ele>387.2</ele>
        <time>2024-08-05T11:37:14Z</time>
      </trkpt>
      <trkpt lat="47.17317" lon="5.97282">
        <ele>387.2</ele>
        <time>2024-08-05T11:37:15Z</time>
      </trkpt>
      <trkpt lat="47.17319" lon="5.97285">
        <ele>387.4</ele>
        <time>2024-08-05T11:37:16Z</time>
      </trkpt>
      <trkpt lat="47.1732" lon="5.97288">
        <ele>387.8</ele>
        <time>2024-08-05T11:37:17Z</time>
      </trkpt>
      <trkpt lat="47.17321" lon="5.97292">
        <ele>388</ele>
        <time>2024-08-05T11:37:18Z</time>
      </trkpt>
      <trkpt lat="47.17323" lon="5.97295">
        <ele>388.6</ele>
        <time>2024-08-05T11:37:19Z</time>
      </trkpt>
      <trkpt lat="47.17324" lon="5.97298">
        <ele>388.8</ele>
        <time>2024-08-05T11:37:20Z</time>
      </trkpt>
      <trkpt lat="47.17326" lon="5.97302">
        <ele>388.8</ele>
        <time>2024-08-05T11:37:21Z</time>
      </trkpt>
      <trkpt lat="47.17327" lon="5.97305">
        <ele>388.8</ele>
        <time>2024-08-05T11:37:22Z</time>
      </trkpt>
      <trkpt lat="47.17329" lon="5.97308">
        <ele>389.4</ele>
        <time>2024-08-05T11:37:23Z</time>
      </trkpt>
      <trkpt lat="47.1733" lon="5.97311">
        <ele>389.4</ele>
        <time>2024-08-05T11:37:24Z</time>
      </trkpt>
      <trkpt lat="47.17332" lon="5.97315">
        <ele>389.6</ele>
        <time>2024-08-05T11:37:25Z</time>
      </trkpt>
      <trkpt lat="47.17333" lon="5.97318">
        <ele>389.6</ele>
        <time>2024-08-05T11:37:26Z</time>
      </trkpt>
      <trkpt lat="47.17334" lon="5.97321">
        <ele>390</ele>
        <time>2024-08-05T11:37:27Z</time>
      </trkpt>
      <trkpt lat="47.17336" lon="5.97324">
        <ele>390.2</ele>
        <time>2024-08-05T11:37:28Z</time>
      </trkpt>
      <trkpt lat="47.17338" lon="5.97327">
        <ele>390.6</ele>
        <time>2024-08-05T11:37:29Z</time>
      </trkpt>
      <trkpt lat="47.17339" lon="5.97331">
        <ele>390.6</ele>
        <time>2024-08-05T11:37:30Z</time>
      </trkpt>
      <trkpt lat="47.17341" lon="5.97334">
        <ele>390.8</ele>
        <time>2024-08-05T11:37:31Z</time>
      </trkpt>
      <trkpt lat="47.17343" lon="5.97337">
        <ele>391</ele>
        <time>2024-08-05T11:37:32Z</time>
      </trkpt>
      <trkpt lat="47.17344" lon="5.9734">
        <ele>391.2</ele>
        <time>2024-08-05T11:37:33Z</time>
      </trkpt>
      <trkpt lat="47.17347" lon="5.97342">
        <ele>391.4</ele>
        <time>2024-08-05T11:37:34Z</time>
      </trkpt>
      <trkpt lat="47.1735" lon="5.97342">
        <ele>391.2</ele>
        <time>2024-08-05T11:37:35Z</time>
      </trkpt>
      <trkpt lat="47.17353" lon="5.97343">
        <ele>391.4</ele>
        <time>2024-08-05T11:37:36Z</time>
      </trkpt>
      <trkpt lat="47.17357" lon="5.97342">
        <ele>391.4</ele>
        <time>2024-08-05T11:37:37Z</time>
      </trkpt>
      <trkpt lat="47.1736" lon="5.97342">
        <ele>391.6</ele>
        <time>2024-08-05T11:37:38Z</time>
      </trkpt>
      <trkpt lat="47.17365" lon="5.97341">
        <ele>391.6</ele>
        <time>2024-08-05T11:37:39Z</time>
      </trkpt>
      <trkpt lat="47.17369" lon="5.97341">
        <ele>391.6</ele>
        <time>2024-08-05T11:37:40Z</time>
      </trkpt>
      <trkpt lat="47.17374" lon="5.97341">
        <ele>391.6</ele>
        <time>2024-08-05T11:37:41Z</time>
      </trkpt>
      <trkpt lat="47.17379" lon="5.97341">
        <ele>391.8</ele>
        <time>2024-08-05T11:37:42Z</time>
      </trkpt>
      <trkpt lat="47.17384" lon="5.97341">
        <ele>391.8</ele>
        <time>2024-08-05T11:37:43Z</time>
      </trkpt>
      <trkpt lat="47.17389" lon="5.97342">
        <ele>391.6</ele>
        <time>2024-08-05T11:37:44Z</time>
      </trkpt>
      <trkpt lat="47.17395" lon="5.97344">
        <ele>391.8</ele>
        <time>2024-08-05T11:37:45Z</time>
      </trkpt>
      <trkpt lat="47.17401" lon="5.97346">
        <ele>391.6</ele>
        <time>2024-08-05T11:37:46Z</time>
      </trkpt>
      <trkpt lat="47.17407" lon="5.97348">
        <ele>391.8</ele>
        <time>2024-08-05T11:37:47Z</time>
      </trkpt>
      <trkpt lat="47.17413" lon="5.9735">
        <ele>391.8</ele>
        <time>2024-08-05T11:37:48Z</time>
      </trkpt>
      <trkpt lat="47.17419" lon="5.97351">
        <ele>391.6</ele>
        <time>2024-08-05T11:37:49Z</time>
      </trkpt>
      <trkpt lat="47.17425" lon="5.97353">
        <ele>391.4</ele>
        <time>2024-08-05T11:37:50Z</time>
      </trkpt>
      <trkpt lat="47.17431" lon="5.97354">
        <ele>391.2</ele>
        <time>2024-08-05T11:37:51Z</time>
      </trkpt>
      <trkpt lat="47.17438" lon="5.97355">
        <ele>390.8</ele>
        <time>2024-08-05T11:37:52Z</time>
      </trkpt>
      <trkpt lat="47.17444" lon="5.97355">
        <ele>390.6</ele>
        <time>2024-08-05T11:37:53Z</time>
      </trkpt>
      <trkpt lat="47.17449" lon="5.97356">
        <ele>390.4</ele>
        <time>2024-08-05T11:37:54Z</time>
      </trkpt>
      <trkpt lat="47.17454" lon="5.97356">
        <ele>390.2</ele>
        <time>2024-08-05T11:37:55Z</time>
      </trkpt>
      <trkpt lat="47.17458" lon="5.97357">
        <ele>389.6</ele>
        <time>2024-08-05T11:37:56Z</time>
      </trkpt>
      <trkpt lat="47.1746" lon="5.97356">
        <ele>389.6</ele>
        <time>2024-08-05T11:37:57Z</time>
      </trkpt>
      <trkpt lat="47.17463" lon="5.97355">
        <ele>389.2</ele>
        <time>2024-08-05T11:37:58Z</time>
      </trkpt>
      <trkpt lat="47.17466" lon="5.97355">
        <ele>388.8</ele>
        <time>2024-08-05T11:37:59Z</time>
      </trkpt>
      <trkpt lat="47.17468" lon="5.97354">
        <ele>388.4</ele>
        <time>2024-08-05T11:38:00Z</time>
      </trkpt>
      <trkpt lat="47.1747" lon="5.97355">
        <ele>388.4</ele>
        <time>2024-08-05T11:38:01Z</time>
      </trkpt>
      <trkpt lat="47.17473" lon="5.97356">
        <ele>388</ele>
        <time>2024-08-05T11:38:02Z</time>
      </trkpt>
      <trkpt lat="47.17475" lon="5.97357">
        <ele>387.8</ele>
        <time>2024-08-05T11:38:03Z</time>
      </trkpt>
      <trkpt lat="47.17478" lon="5.97357">
        <ele>387.4</ele>
        <time>2024-08-05T11:38:04Z</time>
      </trkpt>
      <trkpt lat="47.1748" lon="5.97356">
        <ele>387.4</ele>
        <time>2024-08-05T11:38:05Z</time>
      </trkpt>
      <trkpt lat="47.17484" lon="5.97355">
        <ele>387.4</ele>
        <time>2024-08-05T11:38:06Z</time>
      </trkpt>
      <trkpt lat="47.17488" lon="5.97353">
        <ele>387.2</ele>
        <time>2024-08-05T11:38:07Z</time>
      </trkpt>
      <trkpt lat="47.17492" lon="5.97351">
        <ele>387.2</ele>
        <time>2024-08-05T11:38:08Z</time>
      </trkpt>
      <trkpt lat="47.17496" lon="5.97349">
        <ele>386.8</ele>
        <time>2024-08-05T11:38:09Z</time>
      </trkpt>
      <trkpt lat="47.175" lon="5.97347">
        <ele>386.8</ele>
        <time>2024-08-05T11:38:10Z</time>
      </trkpt>
      <trkpt lat="47.17505" lon="5.97345">
        <ele>386.6</ele>
        <time>2024-08-05T11:38:11Z</time>
      </trkpt>
      <trkpt lat="47.1751" lon="5.97343">
        <ele>386.4</ele>
        <time>2024-08-05T11:38:12Z</time>
      </trkpt>
      <trkpt lat="47.17515" lon="5.9734">
        <ele>386.4</ele>
        <time>2024-08-05T11:38:13Z</time>
      </trkpt>
      <trkpt lat="47.1752" lon="5.97337">
        <ele>386.2</ele>
        <time>2024-08-05T11:38:14Z</time>
      </trkpt>
      <trkpt lat="47.17526" lon="5.97334">
        <ele>386</ele>
        <time>2024-08-05T11:38:15Z</time>
      </trkpt>
      <trkpt lat="47.17533" lon="5.97331">
        <ele>385.8</ele>
        <time>2024-08-05T11:38:16Z</time>
      </trkpt>
      <trkpt lat="47.1754" lon="5.97328">
        <ele>385.8</ele>
        <time>2024-08-05T11:38:17Z</time>
      </trkpt>
      <trkpt lat="47.17546" lon="5.97326">
        <ele>385.6</ele>
        <time>2024-08-05T11:38:18Z</time>
      </trkpt>
      <trkpt lat="47.17553" lon="5.97325">
        <ele>385.6</ele>
        <time>2024-08-05T11:38:19Z</time>
      </trkpt>
      <trkpt lat="47.17559" lon="5.97325">
        <ele>385.4</ele>
        <time>2024-08-05T11:38:20Z</time>
      </trkpt>
      <trkpt lat="47.17564" lon="5.97325">
        <ele>385.2</ele>
        <time>2024-08-05T11:38:21Z</time>
      </trkpt>
      <trkpt lat="47.17569" lon="5.97324">
        <ele>385</ele>
        <time>2024-08-05T11:38:22Z</time>
      </trkpt>
      <trkpt lat="47.17574" lon="5.97324">
        <ele>384.8</ele>
        <time>2024-08-05T11:38:23Z</time>
      </trkpt>
      <trkpt lat="47.17578" lon="5.97324">
        <ele>384.4</ele>
        <time>2024-08-05T11:38:24Z</time>
      </trkpt>
      <trkpt lat="47.17582" lon="5.97325">
        <ele>384</ele>
        <time>2024-08-05T11:38:25Z</time>
      </trkpt>
      <trkpt lat="47.17585" lon="5.97328">
        <ele>383.8</ele>
        <time>2024-08-05T11:38:26Z</time>
      </trkpt>
      <trkpt lat="47.17587" lon="5.97331">
        <ele>383.8</ele>
        <time>2024-08-05T11:38:27Z</time>
      </trkpt>
      <trkpt lat="47.17587" lon="5.97336">
        <ele>383.2</ele>
        <time>2024-08-05T11:38:28Z</time>
      </trkpt>
      <trkpt lat="47.17587" lon="5.9734">
        <ele>382.8</ele>
        <time>2024-08-05T11:38:29Z</time>
      </trkpt>
      <trkpt lat="47.17585" lon="5.97346">
        <ele>382.4</ele>
        <time>2024-08-05T11:38:30Z</time>
      </trkpt>
      <trkpt lat="47.17584" lon="5.9735">
        <ele>382.2</ele>
        <time>2024-08-05T11:38:31Z</time>
      </trkpt>
      <trkpt lat="47.17583" lon="5.97355">
        <ele>382</ele>
        <time>2024-08-05T11:38:32Z</time>
      </trkpt>
      <trkpt lat="47.17581" lon="5.97359">
        <ele>382</ele>
        <time>2024-08-05T11:38:33Z</time>
      </trkpt>
      <trkpt lat="47.17579" lon="5.97363">
        <ele>382</ele>
        <time>2024-08-05T11:38:34Z</time>
      </trkpt>
      <trkpt lat="47.17578" lon="5.97367">
        <ele>381.8</ele>
        <time>2024-08-05T11:38:35Z</time>
      </trkpt>
      <trkpt lat="47.17576" lon="5.97371">
        <ele>382</ele>
        <time>2024-08-05T11:38:36Z</time>
      </trkpt>
      <trkpt lat="47.17574" lon="5.97375">
        <ele>382</ele>
        <time>2024-08-05T11:38:37Z</time>
      </trkpt>
      <trkpt lat="47.17573" lon="5.97379">
        <ele>382</ele>
        <time>2024-08-05T11:38:38Z</time>
      </trkpt>
      <trkpt lat="47.17571" lon="5.97383">
        <ele>382</ele>
        <time>2024-08-05T11:38:39Z</time>
      </trkpt>
      <trkpt lat="47.17569" lon="5.97387">
        <ele>382</ele>
        <time>2024-08-05T11:38:40Z</time>
      </trkpt>
      <trkpt lat="47.17568" lon="5.97391">
        <ele>382</ele>
        <time>2024-08-05T11:38:41Z</time>
      </trkpt>
      <trkpt lat="47.17566" lon="5.97395">
        <ele>382.2</ele>
        <time>2024-08-05T11:38:42Z</time>
      </trkpt>
      <trkpt lat="47.17564" lon="5.97399">
        <ele>382.4</ele>
        <time>2024-08-05T11:38:43Z</time>
      </trkpt>
      <trkpt lat="47.17562" lon="5.97403">
        <ele>382.4</ele>
        <time>2024-08-05T11:38:44Z</time>
      </trkpt>
      <trkpt lat="47.17561" lon="5.97407">
        <ele>382.4</ele>
        <time>2024-08-05T11:38:45Z</time>
      </trkpt>
      <trkpt lat="47.17559" lon="5.97411">
        <ele>382.6</ele>
        <time>2024-08-05T11:38:46Z</time>
      </trkpt>
      <trkpt lat="47.17557" lon="5.97414">
        <ele>382.8</ele>
        <time>2024-08-05T11:38:47Z</time>
      </trkpt>
      <trkpt lat="47.17555" lon="5.97418">
        <ele>383</ele>
        <time>2024-08-05T11:38:48Z</time>
      </trkpt>
      <trkpt lat="47.17553" lon="5.9742">
        <ele>383</ele>
        <time>2024-08-05T11:38:49Z</time>
      </trkpt>
      <trkpt lat="47.17551" lon="5.97423">
        <ele>383.2</ele>
        <time>2024-08-05T11:38:50Z</time>
      </trkpt>
      <trkpt lat="47.17548" lon="5.97426">
        <ele>383.4</ele>
        <time>2024-08-05T11:38:51Z</time>
      </trkpt>
      <trkpt lat="47.17546" lon="5.97428">
        <ele>383.6</ele>
        <time>2024-08-05T11:38:52Z</time>
      </trkpt>
      <trkpt lat="47.17544" lon="5.97429">
        <ele>383.8</ele>
        <time>2024-08-05T11:38:53Z</time>
      </trkpt>
      <trkpt lat="47.17541" lon="5.9743">
        <ele>383.8</ele>
        <time>2024-08-05T11:38:54Z</time>
      </trkpt>
      <trkpt lat="47.17538" lon="5.97431">
        <ele>384.2</ele>
        <time>2024-08-05T11:38:55Z</time>
      </trkpt>
      <trkpt lat="47.17536" lon="5.97431">
        <ele>384.2</ele>
        <time>2024-08-05T11:38:56Z</time>
      </trkpt>
      <trkpt lat="47.17533" lon="5.97431">
        <ele>384.4</ele>
        <time>2024-08-05T11:38:57Z</time>
      </trkpt>
      <trkpt lat="47.1753" lon="5.9743">
        <ele>384.8</ele>
        <time>2024-08-05T11:38:58Z</time>
      </trkpt>
      <trkpt lat="47.17527" lon="5.9743">
        <ele>384.8</ele>
        <time>2024-08-05T11:38:59Z</time>
      </trkpt>
      <trkpt lat="47.17524" lon="5.9743">
        <ele>385.2</ele>
        <time>2024-08-05T11:39:00Z</time>
      </trkpt>
      <trkpt lat="47.17522" lon="5.97429">
        <ele>385.4</ele>
        <time>2024-08-05T11:39:01Z</time>
      </trkpt>
      <trkpt lat="47.17519" lon="5.97429">
        <ele>385.6</ele>
        <time>2024-08-05T11:39:02Z</time>
      </trkpt>
      <trkpt lat="47.17516" lon="5.97428">
        <ele>385.8</ele>
        <time>2024-08-05T11:39:03Z</time>
      </trkpt>
      <trkpt lat="47.17514" lon="5.97427">
        <ele>386</ele>
        <time>2024-08-05T11:39:04Z</time>
      </trkpt>
      <trkpt lat="47.17511" lon="5.97427">
        <ele>386</ele>
        <time>2024-08-05T11:39:05Z</time>
      </trkpt>
      <trkpt lat="47.17509" lon="5.97426">
        <ele>386.2</ele>
        <time>2024-08-05T11:39:06Z</time>
      </trkpt>
      <trkpt lat="47.17506" lon="5.97426">
        <ele>386.4</ele>
        <time>2024-08-05T11:39:07Z</time>
      </trkpt>
      <trkpt lat="47.17503" lon="5.97425">
        <ele>386.4</ele>
        <time>2024-08-05T11:39:08Z</time>
      </trkpt>
      <trkpt lat="47.175" lon="5.97425">
        <ele>386.6</ele>
        <time>2024-08-05T11:39:09Z</time>
      </trkpt>
      <trkpt lat="47.17497" lon="5.97424">
        <ele>386.8</ele>
        <time>2024-08-05T11:39:10Z</time>
      </trkpt>
      <trkpt lat="47.17494" lon="5.97423">
        <ele>386.8</ele>
        <time>2024-08-05T11:39:11Z</time>
      </trkpt>
      <trkpt lat="47.17491" lon="5.97423">
        <ele>386.8</ele>
        <time>2024-08-05T11:39:12Z</time>
      </trkpt>
      <trkpt lat="47.17488" lon="5.97422">
        <ele>387.2</ele>
        <time>2024-08-05T11:39:13Z</time>
      </trkpt>
      <trkpt lat="47.17486" lon="5.97422">
        <ele>387.4</ele>
        <time>2024-08-05T11:39:14Z</time>
      </trkpt>
      <trkpt lat="47.17483" lon="5.97421">
        <ele>387.4</ele>
        <time>2024-08-05T11:39:15Z</time>
      </trkpt>
      <trkpt lat="47.1748" lon="5.97421">
        <ele>387.6</ele>
        <time>2024-08-05T11:39:16Z</time>
      </trkpt>
      <trkpt lat="47.17478" lon="5.9742">
        <ele>387.6</ele>
        <time>2024-08-05T11:39:17Z</time>
      </trkpt>
      <trkpt lat="47.17475" lon="5.9742">
        <ele>387.6</ele>
        <time>2024-08-05T11:39:18Z</time>
      </trkpt>
      <trkpt lat="47.17473" lon="5.97419">
        <ele>387.8</ele>
        <time>2024-08-05T11:39:19Z</time>
      </trkpt>
      <trkpt lat="47.1747" lon="5.97419">
        <ele>388.2</ele>
        <time>2024-08-05T11:39:20Z</time>
      </trkpt>
      <trkpt lat="47.17468" lon="5.97418">
        <ele>388.4</ele>
        <time>2024-08-05T11:39:21Z</time>
      </trkpt>
      <trkpt lat="47.17465" lon="5.97418">
        <ele>388.6</ele>
        <time>2024-08-05T11:39:22Z</time>
      </trkpt>
      <trkpt lat="47.17463" lon="5.97417">
        <ele>388.6</ele>
        <time>2024-08-05T11:39:23Z</time>
      </trkpt>
      <trkpt lat="47.1746" lon="5.97417">
        <ele>388.8</ele>
        <time>2024-08-05T11:39:24Z</time>
      </trkpt>
      <trkpt lat="47.17458" lon="5.97416">
        <ele>389</ele>
        <time>2024-08-05T11:39:25Z</time>
      </trkpt>
      <trkpt lat="47.17455" lon="5.97415">
        <ele>389</ele>
        <time>2024-08-05T11:39:26Z</time>
      </trkpt>
      <trkpt lat="47.17453" lon="5.97415">
        <ele>389.4</ele>
        <time>2024-08-05T11:39:27Z</time>
      </trkpt>
      <trkpt lat="47.1745" lon="5.97415">
        <ele>389.4</ele>
        <time>2024-08-05T11:39:28Z</time>
      </trkpt>
      <trkpt lat="47.17448" lon="5.97414">
        <ele>389.8</ele>
        <time>2024-08-05T11:39:29Z</time>
      </trkpt>
      <trkpt lat="47.17445" lon="5.97414">
        <ele>389.8</ele>
        <time>2024-08-05T11:39:30Z</time>
      </trkpt>
      <trkpt lat="47.17443" lon="5.97414">
        <ele>390</ele>
        <time>2024-08-05T11:39:31Z</time>
      </trkpt>
      <trkpt lat="47.1744" lon="5.97413">
        <ele>390.4</ele>
        <time>2024-08-05T11:39:32Z</time>
      </trkpt>
      <trkpt lat="47.17438" lon="5.97413">
        <ele>390.4</ele>
        <time>2024-08-05T11:39:33Z</time>
      </trkpt>
      <trkpt lat="47.17435" lon="5.97413">
        <ele>390.4</ele>
        <time>2024-08-05T11:39:34Z</time>
      </trkpt>
      <trkpt lat="47.17433" lon="5.97413">
        <ele>390.8</ele>
        <time>2024-08-05T11:39:35Z</time>
      </trkpt>
      <trkpt lat="47.1743" lon="5.97413">
        <ele>390.8</ele>
        <time>2024-08-05T11:39:36Z</time>
      </trkpt>
      <trkpt lat="47.17427" lon="5.97412">
        <ele>391</ele>
        <time>2024-08-05T11:39:37Z</time>
      </trkpt>
      <trkpt lat="47.17424" lon="5.97412">
        <ele>391.2</ele>
        <time>2024-08-05T11:39:38Z</time>
      </trkpt>
      <trkpt lat="47.17421" lon="5.97412">
        <ele>391.4</ele>
        <time>2024-08-05T11:39:39Z</time>
      </trkpt>
      <trkpt lat="47.17418" lon="5.97411">
        <ele>391.6</ele>
        <time>2024-08-05T11:39:40Z</time>
      </trkpt>
      <trkpt lat="47.17416" lon="5.97411">
        <ele>391.8</ele>
        <time>2024-08-05T11:39:41Z</time>
      </trkpt>
      <trkpt lat="47.17413" lon="5.97412">
        <ele>392</ele>
        <time>2024-08-05T11:39:42Z</time>
      </trkpt>
      <trkpt lat="47.17411" lon="5.97413">
        <ele>392.2</ele>
        <time>2024-08-05T11:39:43Z</time>
      </trkpt>
      <trkpt lat="47.17409" lon="5.97414">
        <ele>392.4</ele>
        <time>2024-08-05T11:39:44Z</time>
      </trkpt>
      <trkpt lat="47.17407" lon="5.97415">
        <ele>392.4</ele>
        <time>2024-08-05T11:39:45Z</time>
      </trkpt>
      <trkpt lat="47.17405" lon="5.97416">
        <ele>392.6</ele>
        <time>2024-08-05T11:39:46Z</time>
      </trkpt>
      <trkpt lat="47.17404" lon="5.97417">
        <ele>392.8</ele>
        <time>2024-08-05T11:39:47Z</time>
      </trkpt>
      <trkpt lat="47.17403" lon="5.97419">
        <ele>393</ele>
        <time>2024-08-05T11:39:48Z</time>
      </trkpt>
      <trkpt lat="47.17402" lon="5.9742">
        <ele>393.2</ele>
        <time>2024-08-05T11:39:49Z</time>
      </trkpt>
      <trkpt lat="47.17402" lon="5.97422">
        <ele>393.6</ele>
        <time>2024-08-05T11:39:50Z</time>
      </trkpt>
      <trkpt lat="47.17401" lon="5.97424">
        <ele>393.6</ele>
        <time>2024-08-05T11:39:51Z</time>
      </trkpt>
      <trkpt lat="47.17401" lon="5.97425">
        <ele>394</ele>
        <time>2024-08-05T11:39:52Z</time>
      </trkpt>
      <trkpt lat="47.17401" lon="5.97427">
        <ele>394.2</ele>
        <time>2024-08-05T11:39:53Z</time>
      </trkpt>
      <trkpt lat="47.17401" lon="5.97429">
        <ele>394.4</ele>
        <time>2024-08-05T11:39:54Z</time>
      </trkpt>
      <trkpt lat="47.17402" lon="5.97431">
        <ele>394.4</ele>
        <time>2024-08-05T11:39:55Z</time>
      </trkpt>
      <trkpt lat="47.17403" lon="5.97433">
        <ele>394.8</ele>
        <time>2024-08-05T11:39:56Z</time>
      </trkpt>
      <trkpt lat="47.17404" lon="5.97435">
        <ele>395.2</ele>
        <time>2024-08-05T11:39:57Z</time>
      </trkpt>
      <trkpt lat="47.17405" lon="5.97436">
        <ele>395.6</ele>
        <time>2024-08-05T11:39:58Z</time>
      </trkpt>
      <trkpt lat="47.17406" lon="5.97438">
        <ele>396</ele>
        <time>2024-08-05T11:39:59Z</time>
      </trkpt>
      <trkpt lat="47.17407" lon="5.97439">
        <ele>396.2</ele>
        <time>2024-08-05T11:40:00Z</time>
      </trkpt>
      <trkpt lat="47.17409" lon="5.97441">
        <ele>396.6</ele>
        <time>2024-08-05T11:40:01Z</time>
      </trkpt>
      <trkpt lat="47.1741" lon="5.97442">
        <ele>396.8</ele>
        <time>2024-08-05T11:40:02Z</time>
      </trkpt>
      <trkpt lat="47.17412" lon="5.97443">
        <ele>397.2</ele>
        <time>2024-08-05T11:40:03Z</time>
      </trkpt>
      <trkpt lat="47.17413" lon="5.97444">
        <ele>397.6</ele>
        <time>2024-08-05T11:40:04Z</time>
      </trkpt>
      <trkpt lat="47.17415" lon="5.97446">
        <ele>397.8</ele>
        <time>2024-08-05T11:40:05Z</time>
      </trkpt>
      <trkpt lat="47.17416" lon="5.97448">
        <ele>398.2</ele>
        <time>2024-08-05T11:40:06Z</time>
      </trkpt>
      <trkpt lat="47.17418" lon="5.9745">
        <ele>398.6</ele>
        <time>2024-08-05T11:40:07Z</time>
      </trkpt>
      <trkpt lat="47.17419" lon="5.97452">
        <ele>398.6</ele>
        <time>2024-08-05T11:40:08Z</time>
      </trkpt>
      <trkpt lat="47.17421" lon="5.97453">
        <ele>399</ele>
        <time>2024-08-05T11:40:09Z</time>
      </trkpt>
      <trkpt lat="47.17422" lon="5.97455">
        <ele>399</ele>
        <time>2024-08-05T11:40:10Z</time>
      </trkpt>
      <trkpt lat="47.17424" lon="5.97457">
        <ele>399.2</ele>
        <time>2024-08-05T11:40:11Z</time>
      </trkpt>
      <trkpt lat="47.17425" lon="5.97459">
        <ele>399.2</ele>
        <time>2024-08-05T11:40:12Z</time>
      </trkpt>
      <trkpt lat="47.17427" lon="5.97461">
        <ele>399.4</ele>
        <time>2024-08-05T11:40:13Z</time>
      </trkpt>
      <trkpt lat="47.1743" lon="5.97463">
        <ele>399.4</ele>
        <time>2024-08-05T11:40:14Z</time>
      </trkpt>
      <trkpt lat="47.17432" lon="5.97466">
        <ele>399.4</ele>
        <time>2024-08-05T11:40:15Z</time>
      </trkpt>
      <trkpt lat="47.17434" lon="5.97468">
        <ele>399.4</ele>
        <time>2024-08-05T11:40:16Z</time>
      </trkpt>
      <trkpt lat="47.17435" lon="5.9747">
        <ele>399.4</ele>
        <time>2024-08-05T11:40:17Z</time>
      </trkpt>
      <trkpt lat="47.17437" lon="5.97472">
        <ele>399.4</ele>
        <time>2024-08-05T11:40:18Z</time>
      </trkpt>
      <trkpt lat="47.17439" lon="5.97474">
        <ele>399.6</ele>
        <time>2024-08-05T11:40:19Z</time>
      </trkpt>
      <trkpt lat="47.17441" lon="5.97476">
        <ele>399.6</ele>
        <time>2024-08-05T11:40:20Z</time>
      </trkpt>
      <trkpt lat="47.17443" lon="5.97478">
        <ele>399.6</ele>
        <time>2024-08-05T11:40:21Z</time>
      </trkpt>
      <trkpt lat="47.17445" lon="5.9748">
        <ele>399.6</ele>
        <time>2024-08-05T11:40:22Z</time>
      </trkpt>
      <trkpt lat="47.17447" lon="5.97483">
        <ele>399.6</ele>
        <time>2024-08-05T11:40:23Z</time>
      </trkpt>
      <trkpt lat="47.17449" lon="5.97486">
        <ele>399.6</ele>
        <time>2024-08-05T11:40:24Z</time>
      </trkpt>
      <trkpt lat="47.17452" lon="5.97489">
        <ele>399.6</ele>
        <time>2024-08-05T11:40:25Z</time>
      </trkpt>
      <trkpt lat="47.17455" lon="5.97491">
        <ele>399.6</ele>
        <time>2024-08-05T11:40:26Z</time>
      </trkpt>
      <trkpt lat="47.17458" lon="5.97493">
        <ele>399.6</ele>
        <time>2024-08-05T11:40:27Z</time>
      </trkpt>
      <trkpt lat="47.17462" lon="5.97495">
        <ele>399.6</ele>
        <time>2024-08-05T11:40:28Z</time>
      </trkpt>
      <trkpt lat="47.17466" lon="5.97499">
        <ele>399.6</ele>
        <time>2024-08-05T11:40:29Z</time>
      </trkpt>
      <trkpt lat="47.1747" lon="5.97502">
        <ele>399.6</ele>
        <time>2024-08-05T11:40:30Z</time>
      </trkpt>
      <trkpt lat="47.17476" lon="5.97507">
        <ele>399.4</ele>
        <time>2024-08-05T11:40:31Z</time>
      </trkpt>
      <trkpt lat="47.1748" lon="5.97511">
        <ele>399.6</ele>
        <time>2024-08-05T11:40:32Z</time>
      </trkpt>
      <trkpt lat="47.17485" lon="5.97514">
        <ele>399.2</ele>
        <time>2024-08-05T11:40:33Z</time>
      </trkpt>
      <trkpt lat="47.17489" lon="5.97517">
        <ele>399</ele>
        <time>2024-08-05T11:40:34Z</time>
      </trkpt>
      <trkpt lat="47.17493" lon="5.9752">
        <ele>398.8</ele>
        <time>2024-08-05T11:40:35Z</time>
      </trkpt>
      <trkpt lat="47.17497" lon="5.97523">
        <ele>398.6</ele>
        <time>2024-08-05T11:40:36Z</time>
      </trkpt>
      <trkpt lat="47.17502" lon="5.97526">
        <ele>398.2</ele>
        <time>2024-08-05T11:40:37Z</time>
      </trkpt>
      <trkpt lat="47.17506" lon="5.97528">
        <ele>398</ele>
        <time>2024-08-05T11:40:38Z</time>
      </trkpt>
      <trkpt lat="47.17511" lon="5.9753">
        <ele>398</ele>
        <time>2024-08-05T11:40:39Z</time>
      </trkpt>
      <trkpt lat="47.17515" lon="5.97532">
        <ele>398</ele>
        <time>2024-08-05T11:40:40Z</time>
      </trkpt>
      <trkpt lat="47.17519" lon="5.97533">
        <ele>397.8</ele>
        <time>2024-08-05T11:40:41Z</time>
      </trkpt>
      <trkpt lat="47.17522" lon="5.97534">
        <ele>397.8</ele>
        <time>2024-08-05T11:40:42Z</time>
      </trkpt>
      <trkpt lat="47.17525" lon="5.97535">
        <ele>397.8</ele>
        <time>2024-08-05T11:40:43Z</time>
      </trkpt>
      <trkpt lat="47.17528" lon="5.97535">
        <ele>397.8</ele>
        <time>2024-08-05T11:40:44Z</time>
      </trkpt>
      <trkpt lat="47.17532" lon="5.97537">
        <ele>397.6</ele>
        <time>2024-08-05T11:40:45Z</time>
      </trkpt>
      <trkpt lat="47.17535" lon="5.97538">
        <ele>397.8</ele>
        <time>2024-08-05T11:40:46Z</time>
      </trkpt>
      <trkpt lat="47.17538" lon="5.97538">
        <ele>397.8</ele>
        <time>2024-08-05T11:40:47Z</time>
      </trkpt>
      <trkpt lat="47.17542" lon="5.97539">
        <ele>397.6</ele>
        <time>2024-08-05T11:40:48Z</time>
      </trkpt>
      <trkpt lat="47.17546" lon="5.9754">
        <ele>397.6</ele>
        <time>2024-08-05T11:40:49Z</time>
      </trkpt>
      <trkpt lat="47.1755" lon="5.97541">
        <ele>397.6</ele>
        <time>2024-08-05T11:40:50Z</time>
      </trkpt>
      <trkpt lat="47.17554" lon="5.97542">
        <ele>397.6</ele>
        <time>2024-08-05T11:40:51Z</time>
      </trkpt>
      <trkpt lat="47.17558" lon="5.97543">
        <ele>397.6</ele>
        <time>2024-08-05T11:40:52Z</time>
      </trkpt>
      <trkpt lat="47.17563" lon="5.97543">
        <ele>397.6</ele>
        <time>2024-08-05T11:40:53Z</time>
      </trkpt>
      <trkpt lat="47.17568" lon="5.97543">
        <ele>397.6</ele>
        <time>2024-08-05T11:40:54Z</time>
      </trkpt>
      <trkpt lat="47.17573" lon="5.97544">
        <ele>397.6</ele>
        <time>2024-08-05T11:40:55Z</time>
      </trkpt>
      <trkpt lat="47.17579" lon="5.97544">
        <ele>397.6</ele>
        <time>2024-08-05T11:40:56Z</time>
      </trkpt>
      <trkpt lat="47.17586" lon="5.97545">
        <ele>397.6</ele>
        <time>2024-08-05T11:40:57Z</time>
      </trkpt>
      <trkpt lat="47.17593" lon="5.97545">
        <ele>397.4</ele>
        <time>2024-08-05T11:40:58Z</time>
      </trkpt>
      <trkpt lat="47.17601" lon="5.97545">
        <ele>397.4</ele>
        <time>2024-08-05T11:40:59Z</time>
      </trkpt>
      <trkpt lat="47.17609" lon="5.97544">
        <ele>397.4</ele>
        <time>2024-08-05T11:41:00Z</time>
      </trkpt>
      <trkpt lat="47.17617" lon="5.97542">
        <ele>397.4</ele>
        <time>2024-08-05T11:41:01Z</time>
      </trkpt>
      <trkpt lat="47.17626" lon="5.97543">
        <ele>397.4</ele>
        <time>2024-08-05T11:41:02Z</time>
      </trkpt>
      <trkpt lat="47.17635" lon="5.97543">
        <ele>397.2</ele>
        <time>2024-08-05T11:41:03Z</time>
      </trkpt>
      <trkpt lat="47.17643" lon="5.97542">
        <ele>397</ele>
        <time>2024-08-05T11:41:04Z</time>
      </trkpt>
      <trkpt lat="47.17652" lon="5.97541">
        <ele>396.8</ele>
        <time>2024-08-05T11:41:05Z</time>
      </trkpt>
      <trkpt lat="47.1766" lon="5.9754">
        <ele>396.6</ele>
        <time>2024-08-05T11:41:06Z</time>
      </trkpt>
      <trkpt lat="47.17668" lon="5.97539">
        <ele>396.4</ele>
        <time>2024-08-05T11:41:07Z</time>
      </trkpt>
      <trkpt lat="47.17675" lon="5.97537">
        <ele>396.2</ele>
        <time>2024-08-05T11:41:08Z</time>
      </trkpt>
      <trkpt lat="47.17682" lon="5.97536">
        <ele>395.2</ele>
        <time>2024-08-05T11:41:09Z</time>
      </trkpt>
      <trkpt lat="47.17689" lon="5.97534">
        <ele>395</ele>
        <time>2024-08-05T11:41:10Z</time>
      </trkpt>
      <trkpt lat="47.17695" lon="5.97532">
        <ele>394.6</ele>
        <time>2024-08-05T11:41:11Z</time>
      </trkpt>
      <trkpt lat="47.17702" lon="5.97531">
        <ele>394.2</ele>
        <time>2024-08-05T11:41:12Z</time>
      </trkpt>
      <trkpt lat="47.17709" lon="5.97529">
        <ele>394.2</ele>
        <time>2024-08-05T11:41:13Z</time>
      </trkpt>
      <trkpt lat="47.17716" lon="5.97527">
        <ele>394.2</ele>
        <time>2024-08-05T11:41:14Z</time>
      </trkpt>
      <trkpt lat="47.17723" lon="5.97524">
        <ele>394</ele>
        <time>2024-08-05T11:41:15Z</time>
      </trkpt>
      <trkpt lat="47.1773" lon="5.97521">
        <ele>393.6</ele>
        <time>2024-08-05T11:41:16Z</time>
      </trkpt>
      <trkpt lat="47.17737" lon="5.97518">
        <ele>393.4</ele>
        <time>2024-08-05T11:41:17Z</time>
      </trkpt>
      <trkpt lat="47.17743" lon="5.97514">
        <ele>392.6</ele>
        <time>2024-08-05T11:41:18Z</time>
      </trkpt>
      <trkpt lat="47.1775" lon="5.9751">
        <ele>392.2</ele>
        <time>2024-08-05T11:41:19Z</time>
      </trkpt>
      <trkpt lat="47.17756" lon="5.97505">
        <ele>392</ele>
        <time>2024-08-05T11:41:20Z</time>
      </trkpt>
      <trkpt lat="47.17763" lon="5.97499">
        <ele>391.6</ele>
        <time>2024-08-05T11:41:21Z</time>
      </trkpt>
      <trkpt lat="47.17769" lon="5.97494">
        <ele>391.4</ele>
        <time>2024-08-05T11:41:22Z</time>
      </trkpt>
      <trkpt lat="47.17776" lon="5.97489">
        <ele>391</ele>
        <time>2024-08-05T11:41:23Z</time>
      </trkpt>
      <trkpt lat="47.17784" lon="5.97484">
        <ele>391</ele>
        <time>2024-08-05T11:41:24Z</time>
      </trkpt>
      <trkpt lat="47.17791" lon="5.97481">
        <ele>390.6</ele>
        <time>2024-08-05T11:41:25Z</time>
      </trkpt>
      <trkpt lat="47.17798" lon="5.97479">
        <ele>390.4</ele>
        <time>2024-08-05T11:41:26Z</time>
      </trkpt>
      <trkpt lat="47.17806" lon="5.97477">
        <ele>390</ele>
        <time>2024-08-05T11:41:27Z</time>
      </trkpt>
      <trkpt lat="47.17813" lon="5.97476">
        <ele>389.6</ele>
        <time>2024-08-05T11:41:28Z</time>
      </trkpt>
      <trkpt lat="47.17819" lon="5.97475">
        <ele>389</ele>
        <time>2024-08-05T11:41:29Z</time>
      </trkpt>
      <trkpt lat="47.17825" lon="5.97476">
        <ele>388.8</ele>
        <time>2024-08-05T11:41:30Z</time>
      </trkpt>
      <trkpt lat="47.17831" lon="5.97477">
        <ele>388.6</ele>
        <time>2024-08-05T11:41:31Z</time>
      </trkpt>
      <trkpt lat="47.17837" lon="5.97479">
        <ele>387.8</ele>
        <time>2024-08-05T11:41:32Z</time>
      </trkpt>
      <trkpt lat="47.17842" lon="5.9748">
        <ele>387.6</ele>
        <time>2024-08-05T11:41:33Z</time>
      </trkpt>
      <trkpt lat="47.17847" lon="5.97481">
        <ele>387.4</ele>
        <time>2024-08-05T11:41:34Z</time>
      </trkpt>
      <trkpt lat="47.17852" lon="5.97482">
        <ele>387.4</ele>
        <time>2024-08-05T11:41:35Z</time>
      </trkpt>
      <trkpt lat="47.17857" lon="5.97483">
        <ele>387.2</ele>
        <time>2024-08-05T11:41:36Z</time>
      </trkpt>
      <trkpt lat="47.17862" lon="5.97484">
        <ele>387.2</ele>
        <time>2024-08-05T11:41:37Z</time>
      </trkpt>
      <trkpt lat="47.17866" lon="5.97485">
        <ele>387.2</ele>
        <time>2024-08-05T11:41:38Z</time>
      </trkpt>
      <trkpt lat="47.17871" lon="5.97486">
        <ele>387.2</ele>
        <time>2024-08-05T11:41:39Z</time>
      </trkpt>
      <trkpt lat="47.17875" lon="5.97487">
        <ele>387</ele>
        <time>2024-08-05T11:41:40Z</time>
      </trkpt>
      <trkpt lat="47.17879" lon="5.97488">
        <ele>387.2</ele>
        <time>2024-08-05T11:41:41Z</time>
      </trkpt>
      <trkpt lat="47.17883" lon="5.97489">
        <ele>387</ele>
        <time>2024-08-05T11:41:42Z</time>
      </trkpt>
      <trkpt lat="47.17887" lon="5.9749">
        <ele>387</ele>
        <time>2024-08-05T11:41:43Z</time>
      </trkpt>
      <trkpt lat="47.17892" lon="5.97491">
        <ele>387</ele>
        <time>2024-08-05T11:41:44Z</time>
      </trkpt>
      <trkpt lat="47.17896" lon="5.97493">
        <ele>387</ele>
        <time>2024-08-05T11:41:45Z</time>
      </trkpt>
      <trkpt lat="47.179" lon="5.97494">
        <ele>387</ele>
        <time>2024-08-05T11:41:46Z</time>
      </trkpt>
      <trkpt lat="47.17905" lon="5.97494">
        <ele>387</ele>
        <time>2024-08-05T11:41:47Z</time>
      </trkpt>
      <trkpt lat="47.17909" lon="5.97495">
        <ele>387</ele>
        <time>2024-08-05T11:41:48Z</time>
      </trkpt>
      <trkpt lat="47.17914" lon="5.97496">
        <ele>386.8</ele>
        <time>2024-08-05T11:41:49Z</time>
      </trkpt>
      <trkpt lat="47.17919" lon="5.97497">
        <ele>386.8</ele>
        <time>2024-08-05T11:41:50Z</time>
      </trkpt>
      <trkpt lat="47.17925" lon="5.97497">
        <ele>386.8</ele>
        <time>2024-08-05T11:41:51Z</time>
      </trkpt>
      <trkpt lat="47.1793" lon="5.97497">
        <ele>386.8</ele>
        <time>2024-08-05T11:41:52Z</time>
      </trkpt>
      <trkpt lat="47.17936" lon="5.97496">
        <ele>386.8</ele>
        <time>2024-08-05T11:41:53Z</time>
      </trkpt>
      <trkpt lat="47.17942" lon="5.97495">
        <ele>387</ele>
        <time>2024-08-05T11:41:54Z</time>
      </trkpt>
      <trkpt lat="47.17949" lon="5.97493">
        <ele>386.8</ele>
        <time>2024-08-05T11:41:55Z</time>
      </trkpt>
      <trkpt lat="47.17955" lon="5.97492">
        <ele>386.8</ele>
        <time>2024-08-05T11:41:56Z</time>
      </trkpt>
      <trkpt lat="47.17962" lon="5.97493">
        <ele>386.8</ele>
        <time>2024-08-05T11:41:57Z</time>
      </trkpt>
      <trkpt lat="47.17969" lon="5.97494">
        <ele>386.8</ele>
        <time>2024-08-05T11:41:58Z</time>
      </trkpt>
      <trkpt lat="47.17975" lon="5.97496">
        <ele>386.6</ele>
        <time>2024-08-05T11:41:59Z</time>
      </trkpt>
      <trkpt lat="47.17981" lon="5.97498">
        <ele>386.6</ele>
        <time>2024-08-05T11:42:00Z</time>
      </trkpt>
      <trkpt lat="47.17987" lon="5.97501">
        <ele>386.6</ele>
        <time>2024-08-05T11:42:01Z</time>
      </trkpt>
      <trkpt lat="47.17992" lon="5.97503">
        <ele>386.2</ele>
        <time>2024-08-05T11:42:02Z</time>
      </trkpt>
      <trkpt lat="47.17997" lon="5.97506">
        <ele>385.8</ele>
        <time>2024-08-05T11:42:03Z</time>
      </trkpt>
      <trkpt lat="47.18002" lon="5.97509">
        <ele>385.8</ele>
        <time>2024-08-05T11:42:04Z</time>
      </trkpt>
      <trkpt lat="47.18006" lon="5.97512">
        <ele>385.2</ele>
        <time>2024-08-05T11:42:05Z</time>
      </trkpt>
      <trkpt lat="47.18011" lon="5.97515">
        <ele>385.2</ele>
        <time>2024-08-05T11:42:06Z</time>
      </trkpt>
      <trkpt lat="47.18015" lon="5.97518">
        <ele>385.2</ele>
        <time>2024-08-05T11:42:07Z</time>
      </trkpt>
      <trkpt lat="47.1802" lon="5.97522">
        <ele>385</ele>
        <time>2024-08-05T11:42:08Z</time>
      </trkpt>
      <trkpt lat="47.18024" lon="5.97525">
        <ele>384.8</ele>
        <time>2024-08-05T11:42:09Z</time>
      </trkpt>
      <trkpt lat="47.18029" lon="5.97528">
        <ele>384.8</ele>
        <time>2024-08-05T11:42:10Z</time>
      </trkpt>
      <trkpt lat="47.18034" lon="5.97531">
        <ele>384.8</ele>
        <time>2024-08-05T11:42:11Z</time>
      </trkpt>
      <trkpt lat="47.18039" lon="5.97534">
        <ele>384.6</ele>
        <time>2024-08-05T11:42:12Z</time>
      </trkpt>
      <trkpt lat="47.18043" lon="5.97538">
        <ele>384.4</ele>
        <time>2024-08-05T11:42:13Z</time>
      </trkpt>
      <trkpt lat="47.18047" lon="5.97541">
        <ele>384.6</ele>
        <time>2024-08-05T11:42:14Z</time>
      </trkpt>
      <trkpt lat="47.18052" lon="5.97544">
        <ele>384.4</ele>
        <time>2024-08-05T11:42:15Z</time>
      </trkpt>
      <trkpt lat="47.18057" lon="5.97548">
        <ele>384.6</ele>
        <time>2024-08-05T11:42:16Z</time>
      </trkpt>
      <trkpt lat="47.18062" lon="5.9755">
        <ele>384.4</ele>
        <time>2024-08-05T11:42:17Z</time>
      </trkpt>
      <trkpt lat="47.18066" lon="5.97553">
        <ele>384.6</ele>
        <time>2024-08-05T11:42:18Z</time>
      </trkpt>
      <trkpt lat="47.18071" lon="5.97556">
        <ele>384.4</ele>
        <time>2024-08-05T11:42:19Z</time>
      </trkpt>
      <trkpt lat="47.18075" lon="5.97559">
        <ele>384.4</ele>
        <time>2024-08-05T11:42:20Z</time>
      </trkpt>
      <trkpt lat="47.18079" lon="5.97562">
        <ele>384.4</ele>
        <time>2024-08-05T11:42:21Z</time>
      </trkpt>
      <trkpt lat="47.18083" lon="5.97565">
        <ele>384.4</ele>
        <time>2024-08-05T11:42:22Z</time>
      </trkpt>
      <trkpt lat="47.18087" lon="5.97567">
        <ele>384.4</ele>
        <time>2024-08-05T11:42:23Z</time>
      </trkpt>
      <trkpt lat="47.18091" lon="5.97569">
        <ele>384.4</ele>
        <time>2024-08-05T11:42:24Z</time>
      </trkpt>
      <trkpt lat="47.18095" lon="5.97571">
        <ele>384.4</ele>
        <time>2024-08-05T11:42:25Z</time>
      </trkpt>
      <trkpt lat="47.18098" lon="5.97573">
        <ele>384.6</ele>
        <time>2024-08-05T11:42:26Z</time>
      </trkpt>
      <trkpt lat="47.18102" lon="5.97575">
        <ele>384.4</ele>
        <time>2024-08-05T11:42:27Z</time>
      </trkpt>
      <trkpt lat="47.18105" lon="5.97578">
        <ele>384.6</ele>
        <time>2024-08-05T11:42:28Z</time>
      </trkpt>
      <trkpt lat="47.18108" lon="5.9758">
        <ele>384.6</ele>
        <time>2024-08-05T11:42:29Z</time>
      </trkpt>
      <trkpt lat="47.18111" lon="5.97583">
        <ele>384.8</ele>
        <time>2024-08-05T11:42:30Z</time>
      </trkpt>
      <trkpt lat="47.18115" lon="5.97585">
        <ele>384.8</ele>
        <time>2024-08-05T11:42:31Z</time>
      </trkpt>
      <trkpt lat="47.18118" lon="5.97588">
        <ele>384.8</ele>
        <time>2024-08-05T11:42:32Z</time>
      </trkpt>
      <trkpt lat="47.18122" lon="5.97591">
        <ele>385</ele>
        <time>2024-08-05T11:42:33Z</time>
      </trkpt>
      <trkpt lat="47.18125" lon="5.97593">
        <ele>385</ele>
        <time>2024-08-05T11:42:34Z</time>
      </trkpt>
      <trkpt lat="47.18129" lon="5.97595">
        <ele>385</ele>
        <time>2024-08-05T11:42:35Z</time>
      </trkpt>
      <trkpt lat="47.18132" lon="5.97598">
        <ele>385</ele>
        <time>2024-08-05T11:42:36Z</time>
      </trkpt>
      <trkpt lat="47.18136" lon="5.976">
        <ele>385</ele>
        <time>2024-08-05T11:42:37Z</time>
      </trkpt>
      <trkpt lat="47.18139" lon="5.97602">
        <ele>385</ele>
        <time>2024-08-05T11:42:38Z</time>
      </trkpt>
      <trkpt lat="47.18143" lon="5.97604">
        <ele>385.2</ele>
        <time>2024-08-05T11:42:39Z</time>
      </trkpt>
      <trkpt lat="47.18147" lon="5.97606">
        <ele>385.4</ele>
        <time>2024-08-05T11:42:40Z</time>
      </trkpt>
      <trkpt lat="47.1815" lon="5.97608">
        <ele>385.4</ele>
        <time>2024-08-05T11:42:41Z</time>
      </trkpt>
      <trkpt lat="47.18154" lon="5.9761">
        <ele>385.6</ele>
        <time>2024-08-05T11:42:42Z</time>
      </trkpt>
      <trkpt lat="47.18158" lon="5.97612">
        <ele>385.8</ele>
        <time>2024-08-05T11:42:43Z</time>
      </trkpt>
      <trkpt lat="47.18162" lon="5.97614">
        <ele>385.8</ele>
        <time>2024-08-05T11:42:44Z</time>
      </trkpt>
      <trkpt lat="47.18166" lon="5.97616">
        <ele>385.8</ele>
        <time>2024-08-05T11:42:45Z</time>
      </trkpt>
      <trkpt lat="47.1817" lon="5.97617">
        <ele>386</ele>
        <time>2024-08-05T11:42:46Z</time>
      </trkpt>
      <trkpt lat="47.18174" lon="5.97619">
        <ele>386</ele>
        <time>2024-08-05T11:42:47Z</time>
      </trkpt>
      <trkpt lat="47.18178" lon="5.97621">
        <ele>386.2</ele>
        <time>2024-08-05T11:42:48Z</time>
      </trkpt>
      <trkpt lat="47.18182" lon="5.97622">
        <ele>386.2</ele>
        <time>2024-08-05T11:42:49Z</time>
      </trkpt>
      <trkpt lat="47.18186" lon="5.97623">
        <ele>386.4</ele>
        <time>2024-08-05T11:42:50Z</time>
      </trkpt>
      <trkpt lat="47.1819" lon="5.97624">
        <ele>386.4</ele>
        <time>2024-08-05T11:42:51Z</time>
      </trkpt>
      <trkpt lat="47.18195" lon="5.97625">
        <ele>386.6</ele>
        <time>2024-08-05T11:42:52Z</time>
      </trkpt>
      <trkpt lat="47.18199" lon="5.97627">
        <ele>386.6</ele>
        <time>2024-08-05T11:42:53Z</time>
      </trkpt>
      <trkpt lat="47.18203" lon="5.97628">
        <ele>386.8</ele>
        <time>2024-08-05T11:42:54Z</time>
      </trkpt>
      <trkpt lat="47.18207" lon="5.97628">
        <ele>386.8</ele>
        <time>2024-08-05T11:42:55Z</time>
      </trkpt>
      <trkpt lat="47.18211" lon="5.97629">
        <ele>387</ele>
        <time>2024-08-05T11:42:56Z</time>
      </trkpt>
      <trkpt lat="47.18215" lon="5.97629">
        <ele>387</ele>
        <time>2024-08-05T11:42:57Z</time>
      </trkpt>
      <trkpt lat="47.1822" lon="5.9763">
        <ele>387.2</ele>
        <time>2024-08-05T11:42:58Z</time>
      </trkpt>
      <trkpt lat="47.18225" lon="5.97631">
        <ele>387.4</ele>
        <time>2024-08-05T11:42:59Z</time>
      </trkpt>
      <trkpt lat="47.18229" lon="5.97632">
        <ele>387.2</ele>
        <time>2024-08-05T11:43:00Z</time>
      </trkpt>
      <trkpt lat="47.18234" lon="5.97633">
        <ele>387.4</ele>
        <time>2024-08-05T11:43:01Z</time>
      </trkpt>
      <trkpt lat="47.18238" lon="5.97634">
        <ele>387.6</ele>
        <time>2024-08-05T11:43:02Z</time>
      </trkpt>
      <trkpt lat="47.18243" lon="5.97634">
        <ele>387.8</ele>
        <time>2024-08-05T11:43:03Z</time>
      </trkpt>
      <trkpt lat="47.18248" lon="5.97635">
        <ele>387.8</ele>
        <time>2024-08-05T11:43:04Z</time>
      </trkpt>
      <trkpt lat="47.18252" lon="5.97636">
        <ele>387.6</ele>
        <time>2024-08-05T11:43:05Z</time>
      </trkpt>
      <trkpt lat="47.18257" lon="5.97637">
        <ele>387.8</ele>
        <time>2024-08-05T11:43:06Z</time>
      </trkpt>
      <trkpt lat="47.18261" lon="5.97637">
        <ele>388</ele>
        <time>2024-08-05T11:43:07Z</time>
      </trkpt>
      <trkpt lat="47.18266" lon="5.97638">
        <ele>388</ele>
        <time>2024-08-05T11:43:08Z</time>
      </trkpt>
      <trkpt lat="47.1827" lon="5.97639">
        <ele>388</ele>
        <time>2024-08-05T11:43:09Z</time>
      </trkpt>
      <trkpt lat="47.18274" lon="5.9764">
        <ele>388</ele>
        <time>2024-08-05T11:43:10Z</time>
      </trkpt>
      <trkpt lat="47.18278" lon="5.9764">
        <ele>388</ele>
        <time>2024-08-05T11:43:11Z</time>
      </trkpt>
      <trkpt lat="47.18282" lon="5.97641">
        <ele>388.2</ele>
        <time>2024-08-05T11:43:12Z</time>
      </trkpt>
      <trkpt lat="47.18286" lon="5.97642">
        <ele>388.2</ele>
        <time>2024-08-05T11:43:13Z</time>
      </trkpt>
      <trkpt lat="47.18291" lon="5.97643">
        <ele>388.2</ele>
        <time>2024-08-05T11:43:14Z</time>
      </trkpt>
      <trkpt lat="47.18295" lon="5.97643">
        <ele>388.2</ele>
        <time>2024-08-05T11:43:15Z</time>
      </trkpt>
      <trkpt lat="47.18299" lon="5.97644">
        <ele>388.2</ele>
        <time>2024-08-05T11:43:16Z</time>
      </trkpt>
      <trkpt lat="47.18303" lon="5.97645">
        <ele>388.4</ele>
        <time>2024-08-05T11:43:17Z</time>
      </trkpt>
      <trkpt lat="47.18306" lon="5.97645">
        <ele>388.4</ele>
        <time>2024-08-05T11:43:18Z</time>
      </trkpt>
      <trkpt lat="47.1831" lon="5.97646">
        <ele>388.6</ele>
        <time>2024-08-05T11:43:19Z</time>
      </trkpt>
      <trkpt lat="47.18314" lon="5.97646">
        <ele>388.4</ele>
        <time>2024-08-05T11:43:20Z</time>
      </trkpt>
      <trkpt lat="47.18318" lon="5.97647">
        <ele>388.6</ele>
        <time>2024-08-05T11:43:21Z</time>
      </trkpt>
      <trkpt lat="47.18321" lon="5.97647">
        <ele>388.6</ele>
        <time>2024-08-05T11:43:22Z</time>
      </trkpt>
      <trkpt lat="47.18325" lon="5.97648">
        <ele>388.6</ele>
        <time>2024-08-05T11:43:23Z</time>
      </trkpt>
      <trkpt lat="47.18328" lon="5.97648">
        <ele>388.6</ele>
        <time>2024-08-05T11:43:24Z</time>
      </trkpt>
      <trkpt lat="47.18331" lon="5.97648">
        <ele>388.8</ele>
        <time>2024-08-05T11:43:25Z</time>
      </trkpt>
      <trkpt lat="47.18334" lon="5.97648">
        <ele>388.8</ele>
        <time>2024-08-05T11:43:26Z</time>
      </trkpt>
      <trkpt lat="47.18338" lon="5.97648">
        <ele>389.2</ele>
        <time>2024-08-05T11:43:27Z</time>
      </trkpt>
      <trkpt lat="47.18342" lon="5.97649">
        <ele>389.4</ele>
        <time>2024-08-05T11:43:28Z</time>
      </trkpt>
      <trkpt lat="47.18346" lon="5.97649">
        <ele>389.6</ele>
        <time>2024-08-05T11:43:29Z</time>
      </trkpt>
      <trkpt lat="47.1835" lon="5.9765">
        <ele>389.8</ele>
        <time>2024-08-05T11:43:30Z</time>
      </trkpt>
      <trkpt lat="47.18354" lon="5.9765">
        <ele>389.8</ele>
        <time>2024-08-05T11:43:31Z</time>
      </trkpt>
      <trkpt lat="47.18358" lon="5.97651">
        <ele>390</ele>
        <time>2024-08-05T11:43:32Z</time>
      </trkpt>
      <trkpt lat="47.18362" lon="5.97652">
        <ele>390.4</ele>
        <time>2024-08-05T11:43:33Z</time>
      </trkpt>
      <trkpt lat="47.18366" lon="5.97654">
        <ele>390.4</ele>
        <time>2024-08-05T11:43:34Z</time>
      </trkpt>
      <trkpt lat="47.1837" lon="5.97655">
        <ele>390.4</ele>
        <time>2024-08-05T11:43:35Z</time>
      </trkpt>
      <trkpt lat="47.18375" lon="5.97657">
        <ele>390.6</ele>
        <time>2024-08-05T11:43:36Z</time>
      </trkpt>
      <trkpt lat="47.18379" lon="5.97659">
        <ele>390.6</ele>
        <time>2024-08-05T11:43:37Z</time>
      </trkpt>
      <trkpt lat="47.18384" lon="5.97662">
        <ele>390.8</ele>
        <time>2024-08-05T11:43:38Z</time>
      </trkpt>
      <trkpt lat="47.18388" lon="5.97664">
        <ele>390.8</ele>
        <time>2024-08-05T11:43:39Z</time>
      </trkpt>
      <trkpt lat="47.18393" lon="5.97667">
        <ele>390.8</ele>
        <time>2024-08-05T11:43:40Z</time>
      </trkpt>
      <trkpt lat="47.18397" lon="5.9767">
        <ele>390.8</ele>
        <time>2024-08-05T11:43:41Z</time>
      </trkpt>
      <trkpt lat="47.18401" lon="5.97673">
        <ele>390.8</ele>
        <time>2024-08-05T11:43:42Z</time>
      </trkpt>
      <trkpt lat="47.18405" lon="5.97676">
        <ele>390.8</ele>
        <time>2024-08-05T11:43:43Z</time>
      </trkpt>
      <trkpt lat="47.18409" lon="5.9768">
        <ele>390.8</ele>
        <time>2024-08-05T11:43:44Z</time>
      </trkpt>
      <trkpt lat="47.18412" lon="5.97683">
        <ele>391</ele>
        <time>2024-08-05T11:43:45Z</time>
      </trkpt>
      <trkpt lat="47.18416" lon="5.97687">
        <ele>391</ele>
        <time>2024-08-05T11:43:46Z</time>
      </trkpt>
      <trkpt lat="47.18419" lon="5.9769">
        <ele>391</ele>
        <time>2024-08-05T11:43:47Z</time>
      </trkpt>
      <trkpt lat="47.18421" lon="5.97694">
        <ele>391</ele>
        <time>2024-08-05T11:43:48Z</time>
      </trkpt>
      <trkpt lat="47.18424" lon="5.97697">
        <ele>391.2</ele>
        <time>2024-08-05T11:43:49Z</time>
      </trkpt>
      <trkpt lat="47.18427" lon="5.977">
        <ele>391.2</ele>
        <time>2024-08-05T11:43:50Z</time>
      </trkpt>
      <trkpt lat="47.18429" lon="5.97703">
        <ele>391.4</ele>
        <time>2024-08-05T11:43:51Z</time>
      </trkpt>
      <trkpt lat="47.18432" lon="5.97706">
        <ele>391.4</ele>
        <time>2024-08-05T11:43:52Z</time>
      </trkpt>
      <trkpt lat="47.18435" lon="5.9771">
        <ele>391.6</ele>
        <time>2024-08-05T11:43:53Z</time>
      </trkpt>
      <trkpt lat="47.18438" lon="5.97713">
        <ele>391.6</ele>
        <time>2024-08-05T11:43:54Z</time>
      </trkpt>
      <trkpt lat="47.18442" lon="5.97716">
        <ele>391.8</ele>
        <time>2024-08-05T11:43:55Z</time>
      </trkpt>
      <trkpt lat="47.18445" lon="5.97719">
        <ele>392</ele>
        <time>2024-08-05T11:43:56Z</time>
      </trkpt>
      <trkpt lat="47.18449" lon="5.97722">
        <ele>392</ele>
        <time>2024-08-05T11:43:57Z</time>
      </trkpt>
      <trkpt lat="47.18452" lon="5.97725">
        <ele>392.4</ele>
        <time>2024-08-05T11:43:58Z</time>
      </trkpt>
      <trkpt lat="47.18456" lon="5.97728">
        <ele>392.6</ele>
        <time>2024-08-05T11:43:59Z</time>
      </trkpt>
      <trkpt lat="47.18459" lon="5.97731">
        <ele>392.8</ele>
        <time>2024-08-05T11:44:00Z</time>
      </trkpt>
      <trkpt lat="47.18463" lon="5.97733">
        <ele>393</ele>
        <time>2024-08-05T11:44:01Z</time>
      </trkpt>
      <trkpt lat="47.18467" lon="5.97736">
        <ele>393</ele>
        <time>2024-08-05T11:44:02Z</time>
      </trkpt>
      <trkpt lat="47.1847" lon="5.97739">
        <ele>393.2</ele>
        <time>2024-08-05T11:44:03Z</time>
      </trkpt>
      <trkpt lat="47.18474" lon="5.97742">
        <ele>393.2</ele>
        <time>2024-08-05T11:44:04Z</time>
      </trkpt>
      <trkpt lat="47.18477" lon="5.97745">
        <ele>393.2</ele>
        <time>2024-08-05T11:44:05Z</time>
      </trkpt>
      <trkpt lat="47.18481" lon="5.97747">
        <ele>393.4</ele>
        <time>2024-08-05T11:44:06Z</time>
      </trkpt>
      <trkpt lat="47.18485" lon="5.9775">
        <ele>393.4</ele>
        <time>2024-08-05T11:44:07Z</time>
      </trkpt>
      <trkpt lat="47.18488" lon="5.97753">
        <ele>393.6</ele>
        <time>2024-08-05T11:44:08Z</time>
      </trkpt>
      <trkpt lat="47.18492" lon="5.97756">
        <ele>393.6</ele>
        <time>2024-08-05T11:44:09Z</time>
      </trkpt>
      <trkpt lat="47.18496" lon="5.97758">
        <ele>393.8</ele>
        <time>2024-08-05T11:44:10Z</time>
      </trkpt>
      <trkpt lat="47.18499" lon="5.9776">
        <ele>393.8</ele>
        <time>2024-08-05T11:44:11Z</time>
      </trkpt>
      <trkpt lat="47.18503" lon="5.97762">
        <ele>394</ele>
        <time>2024-08-05T11:44:12Z</time>
      </trkpt>
      <trkpt lat="47.18507" lon="5.97764">
        <ele>394</ele>
        <time>2024-08-05T11:44:13Z</time>
      </trkpt>
      <trkpt lat="47.1851" lon="5.97766">
        <ele>394.2</ele>
        <time>2024-08-05T11:44:14Z</time>
      </trkpt>
      <trkpt lat="47.18514" lon="5.97768">
        <ele>394.2</ele>
        <time>2024-08-05T11:44:15Z</time>
      </trkpt>
      <trkpt lat="47.18518" lon="5.9777">
        <ele>394.2</ele>
        <time>2024-08-05T11:44:16Z</time>
      </trkpt>
      <trkpt lat="47.18522" lon="5.97772">
        <ele>394.4</ele>
        <time>2024-08-05T11:44:17Z</time>
      </trkpt>
      <trkpt lat="47.18526" lon="5.97774">
        <ele>394.2</ele>
        <time>2024-08-05T11:44:18Z</time>
      </trkpt>
      <trkpt lat="47.1853" lon="5.97775">
        <ele>394.2</ele>
        <time>2024-08-05T11:44:19Z</time>
      </trkpt>
      <trkpt lat="47.18535" lon="5.97777">
        <ele>394.2</ele>
        <time>2024-08-05T11:44:20Z</time>
      </trkpt>
      <trkpt lat="47.18539" lon="5.97779">
        <ele>394.4</ele>
        <time>2024-08-05T11:44:21Z</time>
      </trkpt>
      <trkpt lat="47.18543" lon="5.97782">
        <ele>394.4</ele>
        <time>2024-08-05T11:44:22Z</time>
      </trkpt>
      <trkpt lat="47.18547" lon="5.97784">
        <ele>394.4</ele>
        <time>2024-08-05T11:44:23Z</time>
      </trkpt>
      <trkpt lat="47.18551" lon="5.97786">
        <ele>394.4</ele>
        <time>2024-08-05T11:44:24Z</time>
      </trkpt>
      <trkpt lat="47.18556" lon="5.97788">
        <ele>394.4</ele>
        <time>2024-08-05T11:44:25Z</time>
      </trkpt>
      <trkpt lat="47.1856" lon="5.9779">
        <ele>394.2</ele>
        <time>2024-08-05T11:44:26Z</time>
      </trkpt>
      <trkpt lat="47.18564" lon="5.97792">
        <ele>394.4</ele>
        <time>2024-08-05T11:44:27Z</time>
      </trkpt>
      <trkpt lat="47.18567" lon="5.97794">
        <ele>394.4</ele>
        <time>2024-08-05T11:44:28Z</time>
      </trkpt>
      <trkpt lat="47.18571" lon="5.97796">
        <ele>394.6</ele>
        <time>2024-08-05T11:44:29Z</time>
      </trkpt>
      <trkpt lat="47.18575" lon="5.97799">
        <ele>394.6</ele>
        <time>2024-08-05T11:44:30Z</time>
      </trkpt>
      <trkpt lat="47.18578" lon="5.97801">
        <ele>394.6</ele>
        <time>2024-08-05T11:44:31Z</time>
      </trkpt>
      <trkpt lat="47.18582" lon="5.97803">
        <ele>394.4</ele>
        <time>2024-08-05T11:44:32Z</time>
      </trkpt>
      <trkpt lat="47.18586" lon="5.97805">
        <ele>394.6</ele>
        <time>2024-08-05T11:44:33Z</time>
      </trkpt>
      <trkpt lat="47.1859" lon="5.97807">
        <ele>394.6</ele>
        <time>2024-08-05T11:44:34Z</time>
      </trkpt>
      <trkpt lat="47.18594" lon="5.9781">
        <ele>394.6</ele>
        <time>2024-08-05T11:44:35Z</time>
      </trkpt>
      <trkpt lat="47.18598" lon="5.97812">
        <ele>394.6</ele>
        <time>2024-08-05T11:44:36Z</time>
      </trkpt>
      <trkpt lat="47.18602" lon="5.97815">
        <ele>394.8</ele>
        <time>2024-08-05T11:44:37Z</time>
      </trkpt>
      <trkpt lat="47.18605" lon="5.97817">
        <ele>394.8</ele>
        <time>2024-08-05T11:44:38Z</time>
      </trkpt>
      <trkpt lat="47.18609" lon="5.9782">
        <ele>394.8</ele>
        <time>2024-08-05T11:44:39Z</time>
      </trkpt>
      <trkpt lat="47.18612" lon="5.97822">
        <ele>394.8</ele>
        <time>2024-08-05T11:44:40Z</time>
      </trkpt>
      <trkpt lat="47.18616" lon="5.97824">
        <ele>394.8</ele>
        <time>2024-08-05T11:44:41Z</time>
      </trkpt>
      <trkpt lat="47.18619" lon="5.97826">
        <ele>394.8</ele>
        <time>2024-08-05T11:44:42Z</time>
      </trkpt>
      <trkpt lat="47.18622" lon="5.97828">
        <ele>394.8</ele>
        <time>2024-08-05T11:44:43Z</time>
      </trkpt>
      <trkpt lat="47.18625" lon="5.9783">
        <ele>395</ele>
        <time>2024-08-05T11:44:44Z</time>
      </trkpt>
      <trkpt lat="47.18628" lon="5.97832">
        <ele>394.8</ele>
        <time>2024-08-05T11:44:45Z</time>
      </trkpt>
      <trkpt lat="47.18631" lon="5.97834">
        <ele>395</ele>
        <time>2024-08-05T11:44:46Z</time>
      </trkpt>
      <trkpt lat="47.18635" lon="5.97836">
        <ele>395.2</ele>
        <time>2024-08-05T11:44:47Z</time>
      </trkpt>
      <trkpt lat="47.18638" lon="5.97838">
        <ele>395.4</ele>
        <time>2024-08-05T11:44:48Z</time>
      </trkpt>
      <trkpt lat="47.18641" lon="5.9784">
        <ele>395.8</ele>
        <time>2024-08-05T11:44:49Z</time>
      </trkpt>
      <trkpt lat="47.18644" lon="5.97842">
        <ele>395.8</ele>
        <time>2024-08-05T11:44:50Z</time>
      </trkpt>
      <trkpt lat="47.18647" lon="5.97844">
        <ele>396.2</ele>
        <time>2024-08-05T11:44:51Z</time>
      </trkpt>
      <trkpt lat="47.18651" lon="5.97846">
        <ele>396.4</ele>
        <time>2024-08-05T11:44:52Z</time>
      </trkpt>
      <trkpt lat="47.18654" lon="5.97848">
        <ele>396.6</ele>
        <time>2024-08-05T11:44:53Z</time>
      </trkpt>
      <trkpt lat="47.18657" lon="5.9785">
        <ele>396.8</ele>
        <time>2024-08-05T11:44:54Z</time>
      </trkpt>
      <trkpt lat="47.18661" lon="5.97852">
        <ele>396.8</ele>
        <time>2024-08-05T11:44:55Z</time>
      </trkpt>
      <trkpt lat="47.18664" lon="5.97854">
        <ele>397.2</ele>
        <time>2024-08-05T11:44:56Z</time>
      </trkpt>
      <trkpt lat="47.18668" lon="5.97856">
        <ele>397.4</ele>
        <time>2024-08-05T11:44:57Z</time>
      </trkpt>
      <trkpt lat="47.18671" lon="5.97858">
        <ele>397.6</ele>
        <time>2024-08-05T11:44:58Z</time>
      </trkpt>
      <trkpt lat="47.18675" lon="5.97861">
        <ele>397.8</ele>
        <time>2024-08-05T11:44:59Z</time>
      </trkpt>
      <trkpt lat="47.18678" lon="5.97864">
        <ele>398</ele>
        <time>2024-08-05T11:45:00Z</time>
      </trkpt>
      <trkpt lat="47.18682" lon="5.97868">
        <ele>398.2</ele>
        <time>2024-08-05T11:45:01Z</time>
      </trkpt>
      <trkpt lat="47.18684" lon="5.97872">
        <ele>398.2</ele>
        <time>2024-08-05T11:45:02Z</time>
      </trkpt>
      <trkpt lat="47.18687" lon="5.97876">
        <ele>398.2</ele>
        <time>2024-08-05T11:45:03Z</time>
      </trkpt>
      <trkpt lat="47.1869" lon="5.97879">
        <ele>398.4</ele>
        <time>2024-08-05T11:45:04Z</time>
      </trkpt>
      <trkpt lat="47.18692" lon="5.97883">
        <ele>398.4</ele>
        <time>2024-08-05T11:45:05Z</time>
      </trkpt>
      <trkpt lat="47.18695" lon="5.97887">
        <ele>398.4</ele>
        <time>2024-08-05T11:45:06Z</time>
      </trkpt>
      <trkpt lat="47.18698" lon="5.97891">
        <ele>398.2</ele>
        <time>2024-08-05T11:45:07Z</time>
      </trkpt>
      <trkpt lat="47.18701" lon="5.97895">
        <ele>398.4</ele>
        <time>2024-08-05T11:45:08Z</time>
      </trkpt>
      <trkpt lat="47.18703" lon="5.97899">
        <ele>398.4</ele>
        <time>2024-08-05T11:45:09Z</time>
      </trkpt>
      <trkpt lat="47.18706" lon="5.97903">
        <ele>398.4</ele>
        <time>2024-08-05T11:45:10Z</time>
      </trkpt>
      <trkpt lat="47.18709" lon="5.97907">
        <ele>398.4</ele>
        <time>2024-08-05T11:45:11Z</time>
      </trkpt>
      <trkpt lat="47.18712" lon="5.97911">
        <ele>398.6</ele>
        <time>2024-08-05T11:45:12Z</time>
      </trkpt>
      <trkpt lat="47.18714" lon="5.97915">
        <ele>398.8</ele>
        <time>2024-08-05T11:45:13Z</time>
      </trkpt>
      <trkpt lat="47.18717" lon="5.9792">
        <ele>399</ele>
        <time>2024-08-05T11:45:14Z</time>
      </trkpt>
      <trkpt lat="47.1872" lon="5.97924">
        <ele>399.2</ele>
        <time>2024-08-05T11:45:15Z</time>
      </trkpt>
      <trkpt lat="47.18723" lon="5.97929">
        <ele>399.4</ele>
        <time>2024-08-05T11:45:16Z</time>
      </trkpt>
      <trkpt lat="47.18726" lon="5.97933">
        <ele>399.4</ele>
        <time>2024-08-05T11:45:17Z</time>
      </trkpt>
      <trkpt lat="47.18728" lon="5.97938">
        <ele>399.4</ele>
        <time>2024-08-05T11:45:18Z</time>
      </trkpt>
      <trkpt lat="47.18731" lon="5.97943">
        <ele>399.4</ele>
        <time>2024-08-05T11:45:19Z</time>
      </trkpt>
      <trkpt lat="47.18733" lon="5.97947">
        <ele>399.8</ele>
        <time>2024-08-05T11:45:20Z</time>
      </trkpt>
      <trkpt lat="47.18736" lon="5.97951">
        <ele>399.8</ele>
        <time>2024-08-05T11:45:21Z</time>
      </trkpt>
      <trkpt lat="47.18739" lon="5.97955">
        <ele>399.8</ele>
        <time>2024-08-05T11:45:22Z</time>
      </trkpt>
      <trkpt lat="47.18742" lon="5.97959">
        <ele>399.8</ele>
        <time>2024-08-05T11:45:23Z</time>
      </trkpt>
      <trkpt lat="47.18745" lon="5.97963">
        <ele>399.6</ele>
        <time>2024-08-05T11:45:24Z</time>
      </trkpt>
      <trkpt lat="47.18748" lon="5.97967">
        <ele>399.6</ele>
        <time>2024-08-05T11:45:25Z</time>
      </trkpt>
      <trkpt lat="47.18751" lon="5.97971">
        <ele>399.8</ele>
        <time>2024-08-05T11:45:26Z</time>
      </trkpt>
      <trkpt lat="47.18754" lon="5.97975">
        <ele>399.8</ele>
        <time>2024-08-05T11:45:27Z</time>
      </trkpt>
      <trkpt lat="47.18757" lon="5.97979">
        <ele>399.8</ele>
        <time>2024-08-05T11:45:28Z</time>
      </trkpt>
      <trkpt lat="47.1876" lon="5.97983">
        <ele>399.8</ele>
        <time>2024-08-05T11:45:29Z</time>
      </trkpt>
      <trkpt lat="47.18762" lon="5.97988">
        <ele>400</ele>
        <time>2024-08-05T11:45:30Z</time>
      </trkpt>
      <trkpt lat="47.18765" lon="5.97992">
        <ele>400.2</ele>
        <time>2024-08-05T11:45:31Z</time>
      </trkpt>
      <trkpt lat="47.18767" lon="5.97997">
        <ele>400</ele>
        <time>2024-08-05T11:45:32Z</time>
      </trkpt>
      <trkpt lat="47.1877" lon="5.98001">
        <ele>400</ele>
        <time>2024-08-05T11:45:33Z</time>
      </trkpt>
      <trkpt lat="47.18772" lon="5.98006">
        <ele>400.2</ele>
        <time>2024-08-05T11:45:34Z</time>
      </trkpt>
      <trkpt lat="47.18775" lon="5.9801">
        <ele>400.2</ele>
        <time>2024-08-05T11:45:35Z</time>
      </trkpt>
      <trkpt lat="47.18778" lon="5.98014">
        <ele>400.4</ele>
        <time>2024-08-05T11:45:36Z</time>
      </trkpt>
      <trkpt lat="47.18781" lon="5.98018">
        <ele>400.6</ele>
        <time>2024-08-05T11:45:37Z</time>
      </trkpt>
      <trkpt lat="47.18783" lon="5.98022">
        <ele>400.6</ele>
        <time>2024-08-05T11:45:38Z</time>
      </trkpt>
      <trkpt lat="47.18786" lon="5.98026">
        <ele>400.8</ele>
        <time>2024-08-05T11:45:39Z</time>
      </trkpt>
      <trkpt lat="47.18789" lon="5.9803">
        <ele>400.8</ele>
        <time>2024-08-05T11:45:40Z</time>
      </trkpt>
      <trkpt lat="47.18791" lon="5.98034">
        <ele>401</ele>
        <time>2024-08-05T11:45:41Z</time>
      </trkpt>
      <trkpt lat="47.18794" lon="5.98038">
        <ele>401</ele>
        <time>2024-08-05T11:45:42Z</time>
      </trkpt>
      <trkpt lat="47.18797" lon="5.98042">
        <ele>401</ele>
        <time>2024-08-05T11:45:43Z</time>
      </trkpt>
      <trkpt lat="47.188" lon="5.98046">
        <ele>401.2</ele>
        <time>2024-08-05T11:45:44Z</time>
      </trkpt>
      <trkpt lat="47.18803" lon="5.98051">
        <ele>401.2</ele>
        <time>2024-08-05T11:45:45Z</time>
      </trkpt>
      <trkpt lat="47.18806" lon="5.98055">
        <ele>401.4</ele>
        <time>2024-08-05T11:45:46Z</time>
      </trkpt>
      <trkpt lat="47.18808" lon="5.98059">
        <ele>401.4</ele>
        <time>2024-08-05T11:45:47Z</time>
      </trkpt>
      <trkpt lat="47.18811" lon="5.98062">
        <ele>401.4</ele>
        <time>2024-08-05T11:45:48Z</time>
      </trkpt>
      <trkpt lat="47.18814" lon="5.98066">
        <ele>401.4</ele>
        <time>2024-08-05T11:45:49Z</time>
      </trkpt>
      <trkpt lat="47.18817" lon="5.98069">
        <ele>401.6</ele>
        <time>2024-08-05T11:45:50Z</time>
      </trkpt>
      <trkpt lat="47.1882" lon="5.98071">
        <ele>401.6</ele>
        <time>2024-08-05T11:45:51Z</time>
      </trkpt>
      <trkpt lat="47.18823" lon="5.98074">
        <ele>401.6</ele>
        <time>2024-08-05T11:45:52Z</time>
      </trkpt>
      <trkpt lat="47.18826" lon="5.98076">
        <ele>401.8</ele>
        <time>2024-08-05T11:45:53Z</time>
      </trkpt>
      <trkpt lat="47.18829" lon="5.98078">
        <ele>401.8</ele>
        <time>2024-08-05T11:45:54Z</time>
      </trkpt>
      <trkpt lat="47.18832" lon="5.98081">
        <ele>402</ele>
        <time>2024-08-05T11:45:55Z</time>
      </trkpt>
      <trkpt lat="47.18834" lon="5.98084">
        <ele>402.2</ele>
        <time>2024-08-05T11:45:56Z</time>
      </trkpt>
      <trkpt lat="47.18837" lon="5.98087">
        <ele>402.2</ele>
        <time>2024-08-05T11:45:57Z</time>
      </trkpt>
      <trkpt lat="47.1884" lon="5.98089">
        <ele>402.6</ele>
        <time>2024-08-05T11:45:58Z</time>
      </trkpt>
      <trkpt lat="47.18843" lon="5.98092">
        <ele>402.6</ele>
        <time>2024-08-05T11:45:59Z</time>
      </trkpt>
      <trkpt lat="47.18846" lon="5.98094">
        <ele>402.6</ele>
        <time>2024-08-05T11:46:00Z</time>
      </trkpt>
      <trkpt lat="47.18848" lon="5.98097">
        <ele>403</ele>
        <time>2024-08-05T11:46:01Z</time>
      </trkpt>
      <trkpt lat="47.18851" lon="5.98099">
        <ele>403.2</ele>
        <time>2024-08-05T11:46:02Z</time>
      </trkpt>
      <trkpt lat="47.18854" lon="5.98102">
        <ele>403.6</ele>
        <time>2024-08-05T11:46:03Z</time>
      </trkpt>
      <trkpt lat="47.18857" lon="5.98105">
        <ele>403.8</ele>
        <time>2024-08-05T11:46:04Z</time>
      </trkpt>
      <trkpt lat="47.18859" lon="5.98108">
        <ele>403.8</ele>
        <time>2024-08-05T11:46:05Z</time>
      </trkpt>
      <trkpt lat="47.18862" lon="5.98111">
        <ele>404</ele>
        <time>2024-08-05T11:46:06Z</time>
      </trkpt>
      <trkpt lat="47.18864" lon="5.98114">
        <ele>404.2</ele>
        <time>2024-08-05T11:46:07Z</time>
      </trkpt>
      <trkpt lat="47.18866" lon="5.98117">
        <ele>404.6</ele>
        <time>2024-08-05T11:46:08Z</time>
      </trkpt>
      <trkpt lat="47.18868" lon="5.98119">
        <ele>404.6</ele>
        <time>2024-08-05T11:46:09Z</time>
      </trkpt>
      <trkpt lat="47.1887" lon="5.98122">
        <ele>404.8</ele>
        <time>2024-08-05T11:46:10Z</time>
      </trkpt>
      <trkpt lat="47.18873" lon="5.98124">
        <ele>404.8</ele>
        <time>2024-08-05T11:46:11Z</time>
      </trkpt>
      <trkpt lat="47.18875" lon="5.98127">
        <ele>405.2</ele>
        <time>2024-08-05T11:46:12Z</time>
      </trkpt>
      <trkpt lat="47.18878" lon="5.98129">
        <ele>405.2</ele>
        <time>2024-08-05T11:46:13Z</time>
      </trkpt>
      <trkpt lat="47.18881" lon="5.98131">
        <ele>405.6</ele>
        <time>2024-08-05T11:46:14Z</time>
      </trkpt>
      <trkpt lat="47.18884" lon="5.98134">
        <ele>405.6</ele>
        <time>2024-08-05T11:46:15Z</time>
      </trkpt>
      <trkpt lat="47.18886" lon="5.98137">
        <ele>405.8</ele>
        <time>2024-08-05T11:46:16Z</time>
      </trkpt>
      <trkpt lat="47.18888" lon="5.98139">
        <ele>406.2</ele>
        <time>2024-08-05T11:46:17Z</time>
      </trkpt>
      <trkpt lat="47.18891" lon="5.98142">
        <ele>406.2</ele>
        <time>2024-08-05T11:46:18Z</time>
      </trkpt>
      <trkpt lat="47.18893" lon="5.98145">
        <ele>406.4</ele>
        <time>2024-08-05T11:46:19Z</time>
      </trkpt>
      <trkpt lat="47.18895" lon="5.98148">
        <ele>406.6</ele>
        <time>2024-08-05T11:46:20Z</time>
      </trkpt>
      <trkpt lat="47.18897" lon="5.9815">
        <ele>406.6</ele>
        <time>2024-08-05T11:46:21Z</time>
      </trkpt>
      <trkpt lat="47.18899" lon="5.98153">
        <ele>407</ele>
        <time>2024-08-05T11:46:22Z</time>
      </trkpt>
      <trkpt lat="47.18902" lon="5.98156">
        <ele>407</ele>
        <time>2024-08-05T11:46:23Z</time>
      </trkpt>
      <trkpt lat="47.18904" lon="5.98158">
        <ele>407</ele>
        <time>2024-08-05T11:46:24Z</time>
      </trkpt>
      <trkpt lat="47.18907" lon="5.98161">
        <ele>407.6</ele>
        <time>2024-08-05T11:46:25Z</time>
      </trkpt>
      <trkpt lat="47.18909" lon="5.98164">
        <ele>407.6</ele>
        <time>2024-08-05T11:46:26Z</time>
      </trkpt>
      <trkpt lat="47.18911" lon="5.98167">
        <ele>407.6</ele>
        <time>2024-08-05T11:46:27Z</time>
      </trkpt>
      <trkpt lat="47.18913" lon="5.98169">
        <ele>407.8</ele>
        <time>2024-08-05T11:46:28Z</time>
      </trkpt>
      <trkpt lat="47.18916" lon="5.98172">
        <ele>408</ele>
        <time>2024-08-05T11:46:29Z</time>
      </trkpt>
      <trkpt lat="47.18918" lon="5.98174">
        <ele>408.2</ele>
        <time>2024-08-05T11:46:30Z</time>
      </trkpt>
      <trkpt lat="47.1892" lon="5.98177">
        <ele>408.2</ele>
        <time>2024-08-05T11:46:31Z</time>
      </trkpt>
      <trkpt lat="47.18923" lon="5.98179">
        <ele>408.2</ele>
        <time>2024-08-05T11:46:32Z</time>
      </trkpt>
      <trkpt lat="47.18925" lon="5.98182">
        <ele>408.4</ele>
        <time>2024-08-05T11:46:33Z</time>
      </trkpt>
      <trkpt lat="47.18927" lon="5.98184">
        <ele>408.6</ele>
        <time>2024-08-05T11:46:34Z</time>
      </trkpt>
      <trkpt lat="47.18929" lon="5.98187">
        <ele>408.8</ele>
        <time>2024-08-05T11:46:35Z</time>
      </trkpt>
      <trkpt lat="47.18932" lon="5.98189">
        <ele>409</ele>
        <time>2024-08-05T11:46:36Z</time>
      </trkpt>
      <trkpt lat="47.18934" lon="5.98191">
        <ele>409.4</ele>
        <time>2024-08-05T11:46:37Z</time>
      </trkpt>
      <trkpt lat="47.18936" lon="5.98194">
        <ele>409.4</ele>
        <time>2024-08-05T11:46:38Z</time>
      </trkpt>
      <trkpt lat="47.18938" lon="5.98196">
        <ele>409.8</ele>
        <time>2024-08-05T11:46:39Z</time>
      </trkpt>
      <trkpt lat="47.1894" lon="5.98199">
        <ele>410</ele>
        <time>2024-08-05T11:46:40Z</time>
      </trkpt>
      <trkpt lat="47.18942" lon="5.98201">
        <ele>410.2</ele>
        <time>2024-08-05T11:46:41Z</time>
      </trkpt>
      <trkpt lat="47.18944" lon="5.98204">
        <ele>410.4</ele>
        <time>2024-08-05T11:46:42Z</time>
      </trkpt>
      <trkpt lat="47.18947" lon="5.98207">
        <ele>410.6</ele>
        <time>2024-08-05T11:46:43Z</time>
      </trkpt>
      <trkpt lat="47.18949" lon="5.98209">
        <ele>410.8</ele>
        <time>2024-08-05T11:46:44Z</time>
      </trkpt>
      <trkpt lat="47.18952" lon="5.98211">
        <ele>411</ele>
        <time>2024-08-05T11:46:45Z</time>
      </trkpt>
      <trkpt lat="47.18954" lon="5.98214">
        <ele>411.2</ele>
        <time>2024-08-05T11:46:46Z</time>
      </trkpt>
      <trkpt lat="47.18957" lon="5.98216">
        <ele>411.4</ele>
        <time>2024-08-05T11:46:47Z</time>
      </trkpt>
      <trkpt lat="47.18959" lon="5.98219">
        <ele>411.4</ele>
        <time>2024-08-05T11:46:48Z</time>
      </trkpt>
      <trkpt lat="47.18962" lon="5.98222">
        <ele>411.6</ele>
        <time>2024-08-05T11:46:49Z</time>
      </trkpt>
      <trkpt lat="47.18964" lon="5.98224">
        <ele>411.8</ele>
        <time>2024-08-05T11:46:50Z</time>
      </trkpt>
      <trkpt lat="47.18966" lon="5.98227">
        <ele>412</ele>
        <time>2024-08-05T11:46:51Z</time>
      </trkpt>
      <trkpt lat="47.18968" lon="5.98229">
        <ele>412</ele>
        <time>2024-08-05T11:46:52Z</time>
      </trkpt>
      <trkpt lat="47.1897" lon="5.98231">
        <ele>412.2</ele>
        <time>2024-08-05T11:46:53Z</time>
      </trkpt>
      <trkpt lat="47.18973" lon="5.98233">
        <ele>412.2</ele>
        <time>2024-08-05T11:46:54Z</time>
      </trkpt>
      <trkpt lat="47.18975" lon="5.98235">
        <ele>412.4</ele>
        <time>2024-08-05T11:46:55Z</time>
      </trkpt>
      <trkpt lat="47.18978" lon="5.98236">
        <ele>412.8</ele>
        <time>2024-08-05T11:46:56Z</time>
      </trkpt>
      <trkpt lat="47.1898" lon="5.98238">
        <ele>413</ele>
        <time>2024-08-05T11:46:57Z</time>
      </trkpt>
      <trkpt lat="47.18982" lon="5.9824">
        <ele>413.2</ele>
        <time>2024-08-05T11:46:58Z</time>
      </trkpt>
      <trkpt lat="47.18985" lon="5.98242">
        <ele>413.8</ele>
        <time>2024-08-05T11:46:59Z</time>
      </trkpt>
      <trkpt lat="47.18987" lon="5.98244">
        <ele>414</ele>
        <time>2024-08-05T11:47:00Z</time>
      </trkpt>
      <trkpt lat="47.1899" lon="5.98246">
        <ele>414.2</ele>
        <time>2024-08-05T11:47:01Z</time>
      </trkpt>
      <trkpt lat="47.18993" lon="5.98247">
        <ele>414.2</ele>
        <time>2024-08-05T11:47:02Z</time>
      </trkpt>
      <trkpt lat="47.18995" lon="5.98249">
        <ele>414.6</ele>
        <time>2024-08-05T11:47:03Z</time>
      </trkpt>
      <trkpt lat="47.18998" lon="5.9825">
        <ele>414.6</ele>
        <time>2024-08-05T11:47:04Z</time>
      </trkpt>
      <trkpt lat="47.19001" lon="5.98252">
        <ele>414.8</ele>
        <time>2024-08-05T11:47:05Z</time>
      </trkpt>
      <trkpt lat="47.19004" lon="5.98253">
        <ele>415</ele>
        <time>2024-08-05T11:47:06Z</time>
      </trkpt>
      <trkpt lat="47.19007" lon="5.98255">
        <ele>415.2</ele>
        <time>2024-08-05T11:47:07Z</time>
      </trkpt>
      <trkpt lat="47.1901" lon="5.98257">
        <ele>415.4</ele>
        <time>2024-08-05T11:47:08Z</time>
      </trkpt>
      <trkpt lat="47.19013" lon="5.98258">
        <ele>415.6</ele>
        <time>2024-08-05T11:47:09Z</time>
      </trkpt>
      <trkpt lat="47.19016" lon="5.98259">
        <ele>415.6</ele>
        <time>2024-08-05T11:47:10Z</time>
      </trkpt>
      <trkpt lat="47.1902" lon="5.98261">
        <ele>415.8</ele>
        <time>2024-08-05T11:47:11Z</time>
      </trkpt>
      <trkpt lat="47.19023" lon="5.98262">
        <ele>416</ele>
        <time>2024-08-05T11:47:12Z</time>
      </trkpt>
      <trkpt lat="47.19026" lon="5.98263">
        <ele>416.4</ele>
        <time>2024-08-05T11:47:13Z</time>
      </trkpt>
      <trkpt lat="47.19029" lon="5.98264">
        <ele>416.4</ele>
        <time>2024-08-05T11:47:14Z</time>
      </trkpt>
      <trkpt lat="47.19033" lon="5.98265">
        <ele>416.6</ele>
        <time>2024-08-05T11:47:15Z</time>
      </trkpt>
      <trkpt lat="47.19037" lon="5.98265">
        <ele>416.6</ele>
        <time>2024-08-05T11:47:16Z</time>
      </trkpt>
      <trkpt lat="47.19041" lon="5.98265">
        <ele>416.8</ele>
        <time>2024-08-05T11:47:17Z</time>
      </trkpt>
      <trkpt lat="47.19045" lon="5.98265">
        <ele>416.6</ele>
        <time>2024-08-05T11:47:18Z</time>
      </trkpt>
      <trkpt lat="47.19049" lon="5.98266">
        <ele>416.8</ele>
        <time>2024-08-05T11:47:19Z</time>
      </trkpt>
      <trkpt lat="47.19053" lon="5.98266">
        <ele>416.8</ele>
        <time>2024-08-05T11:47:20Z</time>
      </trkpt>
      <trkpt lat="47.19057" lon="5.98267">
        <ele>416.8</ele>
        <time>2024-08-05T11:47:21Z</time>
      </trkpt>
      <trkpt lat="47.19062" lon="5.98267">
        <ele>416.8</ele>
        <time>2024-08-05T11:47:22Z</time>
      </trkpt>
      <trkpt lat="47.19068" lon="5.98269">
        <ele>416.8</ele>
        <time>2024-08-05T11:47:23Z</time>
      </trkpt>
      <trkpt lat="47.19074" lon="5.98271">
        <ele>416.8</ele>
        <time>2024-08-05T11:47:24Z</time>
      </trkpt>
      <trkpt lat="47.19081" lon="5.98274">
        <ele>417</ele>
        <time>2024-08-05T11:47:25Z</time>
      </trkpt>
      <trkpt lat="47.19089" lon="5.98278">
        <ele>417</ele>
        <time>2024-08-05T11:47:26Z</time>
      </trkpt>
      <trkpt lat="47.19097" lon="5.98282">
        <ele>417</ele>
        <time>2024-08-05T11:47:27Z</time>
      </trkpt>
      <trkpt lat="47.19105" lon="5.98287">
        <ele>416.8</ele>
        <time>2024-08-05T11:47:28Z</time>
      </trkpt>
      <trkpt lat="47.19114" lon="5.98292">
        <ele>416.8</ele>
        <time>2024-08-05T11:47:29Z</time>
      </trkpt>
      <trkpt lat="47.19123" lon="5.98297">
        <ele>416.6</ele>
        <time>2024-08-05T11:47:30Z</time>
      </trkpt>
      <trkpt lat="47.19132" lon="5.98302">
        <ele>416.2</ele>
        <time>2024-08-05T11:47:31Z</time>
      </trkpt>
      <trkpt lat="47.19141" lon="5.98308">
        <ele>415.8</ele>
        <time>2024-08-05T11:47:32Z</time>
      </trkpt>
      <trkpt lat="47.19151" lon="5.98313">
        <ele>415.2</ele>
        <time>2024-08-05T11:47:33Z</time>
      </trkpt>
      <trkpt lat="47.1916" lon="5.98319">
        <ele>414.4</ele>
        <time>2024-08-05T11:47:34Z</time>
      </trkpt>
      <trkpt lat="47.19169" lon="5.98324">
        <ele>413.4</ele>
        <time>2024-08-05T11:47:35Z</time>
      </trkpt>
      <trkpt lat="47.19178" lon="5.98329">
        <ele>412.6</ele>
        <time>2024-08-05T11:47:36Z</time>
      </trkpt>
      <trkpt lat="47.19187" lon="5.98333">
        <ele>411.8</ele>
        <time>2024-08-05T11:47:37Z</time>
      </trkpt>
      <trkpt lat="47.19196" lon="5.98337">
        <ele>411.8</ele>
        <time>2024-08-05T11:47:38Z</time>
      </trkpt>
      <trkpt lat="47.19204" lon="5.9834">
        <ele>411</ele>
        <time>2024-08-05T11:47:39Z</time>
      </trkpt>
      <trkpt lat="47.19213" lon="5.98342">
        <ele>410.4</ele>
        <time>2024-08-05T11:47:40Z</time>
      </trkpt>
      <trkpt lat="47.19221" lon="5.98344">
        <ele>410</ele>
        <time>2024-08-05T11:47:41Z</time>
      </trkpt>
      <trkpt lat="47.19229" lon="5.98347">
        <ele>409.4</ele>
        <time>2024-08-05T11:47:42Z</time>
      </trkpt>
      <trkpt lat="47.19237" lon="5.98349">
        <ele>409.2</ele>
        <time>2024-08-05T11:47:43Z</time>
      </trkpt>
      <trkpt lat="47.19245" lon="5.98352">
        <ele>408.6</ele>
        <time>2024-08-05T11:47:44Z</time>
      </trkpt>
      <trkpt lat="47.19252" lon="5.98354">
        <ele>408.4</ele>
        <time>2024-08-05T11:47:45Z</time>
      </trkpt>
      <trkpt lat="47.19259" lon="5.98357">
        <ele>408</ele>
        <time>2024-08-05T11:47:46Z</time>
      </trkpt>
      <trkpt lat="47.19266" lon="5.9836">
        <ele>407.8</ele>
        <time>2024-08-05T11:47:47Z</time>
      </trkpt>
      <trkpt lat="47.19272" lon="5.98362">
        <ele>407.4</ele>
        <time>2024-08-05T11:47:48Z</time>
      </trkpt>
      <trkpt lat="47.19278" lon="5.98364">
        <ele>407</ele>
        <time>2024-08-05T11:47:49Z</time>
      </trkpt>
      <trkpt lat="47.19284" lon="5.98366">
        <ele>406.6</ele>
        <time>2024-08-05T11:47:50Z</time>
      </trkpt>
      <trkpt lat="47.1929" lon="5.98369">
        <ele>406.6</ele>
        <time>2024-08-05T11:47:51Z</time>
      </trkpt>
      <trkpt lat="47.19295" lon="5.98371">
        <ele>406.4</ele>
        <time>2024-08-05T11:47:52Z</time>
      </trkpt>
      <trkpt lat="47.19301" lon="5.98373">
        <ele>406</ele>
        <time>2024-08-05T11:47:53Z</time>
      </trkpt>
      <trkpt lat="47.19306" lon="5.98375">
        <ele>406</ele>
        <time>2024-08-05T11:47:54Z</time>
      </trkpt>
      <trkpt lat="47.19312" lon="5.98377">
        <ele>406</ele>
        <time>2024-08-05T11:47:55Z</time>
      </trkpt>
      <trkpt lat="47.19317" lon="5.98378">
        <ele>406.2</ele>
        <time>2024-08-05T11:47:56Z</time>
      </trkpt>
      <trkpt lat="47.19322" lon="5.98381">
        <ele>406</ele>
        <time>2024-08-05T11:47:57Z</time>
      </trkpt>
      <trkpt lat="47.19327" lon="5.98382">
        <ele>406</ele>
        <time>2024-08-05T11:47:58Z</time>
      </trkpt>
      <trkpt lat="47.19331" lon="5.98385">
        <ele>406</ele>
        <time>2024-08-05T11:47:59Z</time>
      </trkpt>
      <trkpt lat="47.19335" lon="5.98387">
        <ele>406</ele>
        <time>2024-08-05T11:48:00Z</time>
      </trkpt>
      <trkpt lat="47.19339" lon="5.98389">
        <ele>406</ele>
        <time>2024-08-05T11:48:01Z</time>
      </trkpt>
      <trkpt lat="47.19343" lon="5.98391">
        <ele>406</ele>
        <time>2024-08-05T11:48:02Z</time>
      </trkpt>
      <trkpt lat="47.19345" lon="5.98394">
        <ele>406</ele>
        <time>2024-08-05T11:48:03Z</time>
      </trkpt>
      <trkpt lat="47.19348" lon="5.98397">
        <ele>406</ele>
        <time>2024-08-05T11:48:04Z</time>
      </trkpt>
      <trkpt lat="47.19349" lon="5.98401">
        <ele>406</ele>
        <time>2024-08-05T11:48:05Z</time>
      </trkpt>
      <trkpt lat="47.19351" lon="5.98407">
        <ele>406.2</ele>
        <time>2024-08-05T11:48:06Z</time>
      </trkpt>
      <trkpt lat="47.19352" lon="5.98411">
        <ele>406.4</ele>
        <time>2024-08-05T11:48:07Z</time>
      </trkpt>
      <trkpt lat="47.19352" lon="5.98415">
        <ele>406.8</ele>
        <time>2024-08-05T11:48:08Z</time>
      </trkpt>
      <trkpt lat="47.19353" lon="5.9842">
        <ele>407</ele>
        <time>2024-08-05T11:48:09Z</time>
      </trkpt>
      <trkpt lat="47.19355" lon="5.98424">
        <ele>407.6</ele>
        <time>2024-08-05T11:48:10Z</time>
      </trkpt>
      <trkpt lat="47.19357" lon="5.98429">
        <ele>407.6</ele>
        <time>2024-08-05T11:48:11Z</time>
      </trkpt>
      <trkpt lat="47.19359" lon="5.98433">
        <ele>408</ele>
        <time>2024-08-05T11:48:12Z</time>
      </trkpt>
      <trkpt lat="47.19361" lon="5.98437">
        <ele>408</ele>
        <time>2024-08-05T11:48:13Z</time>
      </trkpt>
      <trkpt lat="47.19363" lon="5.98442">
        <ele>408.2</ele>
        <time>2024-08-05T11:48:14Z</time>
      </trkpt>
      <trkpt lat="47.19364" lon="5.98447">
        <ele>408.2</ele>
        <time>2024-08-05T11:48:15Z</time>
      </trkpt>
      <trkpt lat="47.19366" lon="5.98451">
        <ele>408.2</ele>
        <time>2024-08-05T11:48:16Z</time>
      </trkpt>
      <trkpt lat="47.19369" lon="5.98456">
        <ele>408.4</ele>
        <time>2024-08-05T11:48:17Z</time>
      </trkpt>
      <trkpt lat="47.19371" lon="5.9846">
        <ele>408.4</ele>
        <time>2024-08-05T11:48:18Z</time>
      </trkpt>
      <trkpt lat="47.19374" lon="5.98464">
        <ele>408.2</ele>
        <time>2024-08-05T11:48:19Z</time>
      </trkpt>
      <trkpt lat="47.19378" lon="5.98468">
        <ele>408.2</ele>
        <time>2024-08-05T11:48:20Z</time>
      </trkpt>
      <trkpt lat="47.19381" lon="5.98473">
        <ele>408.4</ele>
        <time>2024-08-05T11:48:21Z</time>
      </trkpt>
      <trkpt lat="47.19385" lon="5.98478">
        <ele>408.4</ele>
        <time>2024-08-05T11:48:22Z</time>
      </trkpt>
      <trkpt lat="47.19389" lon="5.98484">
        <ele>408.4</ele>
        <time>2024-08-05T11:48:23Z</time>
      </trkpt>
      <trkpt lat="47.19393" lon="5.98492">
        <ele>408.2</ele>
        <time>2024-08-05T11:48:24Z</time>
      </trkpt>
      <trkpt lat="47.19398" lon="5.985">
        <ele>408.2</ele>
        <time>2024-08-05T11:48:25Z</time>
      </trkpt>
      <trkpt lat="47.19404" lon="5.9851">
        <ele>408.2</ele>
        <time>2024-08-05T11:48:26Z</time>
      </trkpt>
      <trkpt lat="47.19409" lon="5.98521">
        <ele>408</ele>
        <time>2024-08-05T11:48:27Z</time>
      </trkpt>
      <trkpt lat="47.19414" lon="5.98532">
        <ele>407.6</ele>
        <time>2024-08-05T11:48:28Z</time>
      </trkpt>
      <trkpt lat="47.1942" lon="5.98544">
        <ele>407.6</ele>
        <time>2024-08-05T11:48:29Z</time>
      </trkpt>
      <trkpt lat="47.19425" lon="5.98558">
        <ele>407.2</ele>
        <time>2024-08-05T11:48:30Z</time>
      </trkpt>
      <trkpt lat="47.19432" lon="5.98572">
        <ele>406.8</ele>
        <time>2024-08-05T11:48:31Z</time>
      </trkpt>
      <trkpt lat="47.19438" lon="5.98588">
        <ele>406.4</ele>
        <time>2024-08-05T11:48:32Z</time>
      </trkpt>
      <trkpt lat="47.19445" lon="5.98602">
        <ele>406</ele>
        <time>2024-08-05T11:48:33Z</time>
      </trkpt>
      <trkpt lat="47.19452" lon="5.98616">
        <ele>405.6</ele>
        <time>2024-08-05T11:48:34Z</time>
      </trkpt>
      <trkpt lat="47.1946" lon="5.9863">
        <ele>404.8</ele>
        <time>2024-08-05T11:48:35Z</time>
      </trkpt>
      <trkpt lat="47.19469" lon="5.98644">
        <ele>404.4</ele>
        <time>2024-08-05T11:48:36Z</time>
      </trkpt>
      <trkpt lat="47.19478" lon="5.98657">
        <ele>403.8</ele>
        <time>2024-08-05T11:48:37Z</time>
      </trkpt>
      <trkpt lat="47.19487" lon="5.98672">
        <ele>402.8</ele>
        <time>2024-08-05T11:48:38Z</time>
      </trkpt>
      <trkpt lat="47.19496" lon="5.98686">
        <ele>402</ele>
        <time>2024-08-05T11:48:39Z</time>
      </trkpt>
      <trkpt lat="47.19504" lon="5.98702">
        <ele>401</ele>
        <time>2024-08-05T11:48:40Z</time>
      </trkpt>
      <trkpt lat="47.19512" lon="5.98718">
        <ele>399.8</ele>
        <time>2024-08-05T11:48:41Z</time>
      </trkpt>
      <trkpt lat="47.1952" lon="5.98736">
        <ele>398.6</ele>
        <time>2024-08-05T11:48:42Z</time>
      </trkpt>
      <trkpt lat="47.19528" lon="5.98752">
        <ele>397.4</ele>
        <time>2024-08-05T11:48:43Z</time>
      </trkpt>
      <trkpt lat="47.19537" lon="5.98768">
        <ele>397.4</ele>
        <time>2024-08-05T11:48:44Z</time>
      </trkpt>
      <trkpt lat="47.19547" lon="5.98783">
        <ele>396.2</ele>
        <time>2024-08-05T11:48:45Z</time>
      </trkpt>
      <trkpt lat="47.19556" lon="5.98799">
        <ele>395</ele>
        <time>2024-08-05T11:48:46Z</time>
      </trkpt>
      <trkpt lat="47.19566" lon="5.98814">
        <ele>394.2</ele>
        <time>2024-08-05T11:48:47Z</time>
      </trkpt>
      <trkpt lat="47.19576" lon="5.98829">
        <ele>392.4</ele>
        <time>2024-08-05T11:48:48Z</time>
      </trkpt>
      <trkpt lat="47.19585" lon="5.98844">
        <ele>390.8</ele>
        <time>2024-08-05T11:48:49Z</time>
      </trkpt>
      <trkpt lat="47.19595" lon="5.98859">
        <ele>389.6</ele>
        <time>2024-08-05T11:48:50Z</time>
      </trkpt>
      <trkpt lat="47.19604" lon="5.98874">
        <ele>388.4</ele>
        <time>2024-08-05T11:48:51Z</time>
      </trkpt>
      <trkpt lat="47.19613" lon="5.98888">
        <ele>387</ele>
        <time>2024-08-05T11:48:52Z</time>
      </trkpt>
      <trkpt lat="47.19623" lon="5.98902">
        <ele>385.4</ele>
        <time>2024-08-05T11:48:53Z</time>
      </trkpt>
      <trkpt lat="47.19632" lon="5.98916">
        <ele>384.2</ele>
        <time>2024-08-05T11:48:54Z</time>
      </trkpt>
      <trkpt lat="47.19642" lon="5.9893">
        <ele>382.8</ele>
        <time>2024-08-05T11:48:55Z</time>
      </trkpt>
      <trkpt lat="47.19652" lon="5.98945">
        <ele>381.2</ele>
        <time>2024-08-05T11:48:56Z</time>
      </trkpt>
      <trkpt lat="47.19662" lon="5.98959">
        <ele>380</ele>
        <time>2024-08-05T11:48:57Z</time>
      </trkpt>
      <trkpt lat="47.19671" lon="5.98972">
        <ele>378.8</ele>
        <time>2024-08-05T11:48:58Z</time>
      </trkpt>
      <trkpt lat="47.19681" lon="5.98986">
        <ele>377.8</ele>
        <time>2024-08-05T11:48:59Z</time>
      </trkpt>
      <trkpt lat="47.19691" lon="5.98998">
        <ele>377</ele>
        <time>2024-08-05T11:49:00Z</time>
      </trkpt>
      <trkpt lat="47.19701" lon="5.99009">
        <ele>375.8</ele>
        <time>2024-08-05T11:49:01Z</time>
      </trkpt>
      <trkpt lat="47.1971" lon="5.9902">
        <ele>374.6</ele>
        <time>2024-08-05T11:49:02Z</time>
      </trkpt>
      <trkpt lat="47.1972" lon="5.9903">
        <ele>373.4</ele>
        <time>2024-08-05T11:49:03Z</time>
      </trkpt>
      <trkpt lat="47.19729" lon="5.99041">
        <ele>372.2</ele>
        <time>2024-08-05T11:49:04Z</time>
      </trkpt>
      <trkpt lat="47.19739" lon="5.99051">
        <ele>371.6</ele>
        <time>2024-08-05T11:49:05Z</time>
      </trkpt>
      <trkpt lat="47.19748" lon="5.99062">
        <ele>371.6</ele>
        <time>2024-08-05T11:49:06Z</time>
      </trkpt>
      <trkpt lat="47.19757" lon="5.99072">
        <ele>370.8</ele>
        <time>2024-08-05T11:49:07Z</time>
      </trkpt>
      <trkpt lat="47.19766" lon="5.99082">
        <ele>369.8</ele>
        <time>2024-08-05T11:49:08Z</time>
      </trkpt>
      <trkpt lat="47.19775" lon="5.99092">
        <ele>369</ele>
        <time>2024-08-05T11:49:09Z</time>
      </trkpt>
      <trkpt lat="47.19784" lon="5.99101">
        <ele>368</ele>
        <time>2024-08-05T11:49:10Z</time>
      </trkpt>
      <trkpt lat="47.19793" lon="5.99111">
        <ele>367.4</ele>
        <time>2024-08-05T11:49:11Z</time>
      </trkpt>
      <trkpt lat="47.19801" lon="5.99121">
        <ele>366.4</ele>
        <time>2024-08-05T11:49:12Z</time>
      </trkpt>
      <trkpt lat="47.1981" lon="5.99133">
        <ele>365.6</ele>
        <time>2024-08-05T11:49:13Z</time>
      </trkpt>
      <trkpt lat="47.19818" lon="5.99144">
        <ele>364.8</ele>
        <time>2024-08-05T11:49:14Z</time>
      </trkpt>
      <trkpt lat="47.19826" lon="5.99156">
        <ele>364.2</ele>
        <time>2024-08-05T11:49:15Z</time>
      </trkpt>
      <trkpt lat="47.19834" lon="5.99167">
        <ele>363.4</ele>
        <time>2024-08-05T11:49:16Z</time>
      </trkpt>
      <trkpt lat="47.19841" lon="5.99179">
        <ele>363</ele>
        <time>2024-08-05T11:49:17Z</time>
      </trkpt>
      <trkpt lat="47.19848" lon="5.99191">
        <ele>362.2</ele>
        <time>2024-08-05T11:49:18Z</time>
      </trkpt>
      <trkpt lat="47.19854" lon="5.99203">
        <ele>361.2</ele>
        <time>2024-08-05T11:49:19Z</time>
      </trkpt>
      <trkpt lat="47.19861" lon="5.99215">
        <ele>360.2</ele>
        <time>2024-08-05T11:49:20Z</time>
      </trkpt>
      <trkpt lat="47.19867" lon="5.99227">
        <ele>359.2</ele>
        <time>2024-08-05T11:49:21Z</time>
      </trkpt>
      <trkpt lat="47.19873" lon="5.99239">
        <ele>358.2</ele>
        <time>2024-08-05T11:49:22Z</time>
      </trkpt>
      <trkpt lat="47.1988" lon="5.99251">
        <ele>357.4</ele>
        <time>2024-08-05T11:49:23Z</time>
      </trkpt>
      <trkpt lat="47.19887" lon="5.99262">
        <ele>356.6</ele>
        <time>2024-08-05T11:49:24Z</time>
      </trkpt>
      <trkpt lat="47.19895" lon="5.99274">
        <ele>356.2</ele>
        <time>2024-08-05T11:49:25Z</time>
      </trkpt>
      <trkpt lat="47.19902" lon="5.99285">
        <ele>355.8</ele>
        <time>2024-08-05T11:49:26Z</time>
      </trkpt>
      <trkpt lat="47.1991" lon="5.99295">
        <ele>355.2</ele>
        <time>2024-08-05T11:49:27Z</time>
      </trkpt>
      <trkpt lat="47.19919" lon="5.99305">
        <ele>355.2</ele>
        <time>2024-08-05T11:49:28Z</time>
      </trkpt>
      <trkpt lat="47.19928" lon="5.99316">
        <ele>354.6</ele>
        <time>2024-08-05T11:49:29Z</time>
      </trkpt>
      <trkpt lat="47.19937" lon="5.99326">
        <ele>354.2</ele>
        <time>2024-08-05T11:49:30Z</time>
      </trkpt>
      <trkpt lat="47.19945" lon="5.99338">
        <ele>353.4</ele>
        <time>2024-08-05T11:49:31Z</time>
      </trkpt>
      <trkpt lat="47.19952" lon="5.99349">
        <ele>352.6</ele>
        <time>2024-08-05T11:49:32Z</time>
      </trkpt>
      <trkpt lat="47.19958" lon="5.99362">
        <ele>352</ele>
        <time>2024-08-05T11:49:33Z</time>
      </trkpt>
      <trkpt lat="47.19963" lon="5.99377">
        <ele>351.4</ele>
        <time>2024-08-05T11:49:34Z</time>
      </trkpt>
      <trkpt lat="47.19967" lon="5.99393">
        <ele>350.6</ele>
        <time>2024-08-05T11:49:35Z</time>
      </trkpt>
      <trkpt lat="47.19971" lon="5.99409">
        <ele>349.8</ele>
        <time>2024-08-05T11:49:36Z</time>
      </trkpt>
      <trkpt lat="47.19974" lon="5.99425">
        <ele>348.8</ele>
        <time>2024-08-05T11:49:37Z</time>
      </trkpt>
      <trkpt lat="47.19977" lon="5.9944">
        <ele>348</ele>
        <time>2024-08-05T11:49:38Z</time>
      </trkpt>
      <trkpt lat="47.19981" lon="5.99456">
        <ele>347.4</ele>
        <time>2024-08-05T11:49:39Z</time>
      </trkpt>
      <trkpt lat="47.19985" lon="5.99471">
        <ele>346.6</ele>
        <time>2024-08-05T11:49:40Z</time>
      </trkpt>
      <trkpt lat="47.19989" lon="5.99486">
        <ele>345.8</ele>
        <time>2024-08-05T11:49:41Z</time>
      </trkpt>
      <trkpt lat="47.19993" lon="5.99501">
        <ele>345</ele>
        <time>2024-08-05T11:49:42Z</time>
      </trkpt>
      <trkpt lat="47.19997" lon="5.99515">
        <ele>344</ele>
        <time>2024-08-05T11:49:43Z</time>
      </trkpt>
      <trkpt lat="47.2" lon="5.9953">
        <ele>343.4</ele>
        <time>2024-08-05T11:49:44Z</time>
      </trkpt>
      <trkpt lat="47.20004" lon="5.99544">
        <ele>343</ele>
        <time>2024-08-05T11:49:45Z</time>
      </trkpt>
      <trkpt lat="47.20008" lon="5.99558">
        <ele>342.4</ele>
        <time>2024-08-05T11:49:46Z</time>
      </trkpt>
      <trkpt lat="47.20011" lon="5.99572">
        <ele>341.8</ele>
        <time>2024-08-05T11:49:47Z</time>
      </trkpt>
      <trkpt lat="47.20015" lon="5.99586">
        <ele>341.4</ele>
        <time>2024-08-05T11:49:48Z</time>
      </trkpt>
      <trkpt lat="47.2002" lon="5.99599">
        <ele>340.8</ele>
        <time>2024-08-05T11:49:49Z</time>
      </trkpt>
      <trkpt lat="47.20025" lon="5.99613">
        <ele>340.8</ele>
        <time>2024-08-05T11:49:50Z</time>
      </trkpt>
      <trkpt lat="47.20029" lon="5.99627">
        <ele>340.4</ele>
        <time>2024-08-05T11:49:51Z</time>
      </trkpt>
      <trkpt lat="47.20033" lon="5.99641">
        <ele>340</ele>
        <time>2024-08-05T11:49:52Z</time>
      </trkpt>
      <trkpt lat="47.20036" lon="5.99655">
        <ele>340</ele>
        <time>2024-08-05T11:49:53Z</time>
      </trkpt>
      <trkpt lat="47.20039" lon="5.99669">
        <ele>339.2</ele>
        <time>2024-08-05T11:49:54Z</time>
      </trkpt>
      <trkpt lat="47.20042" lon="5.99684">
        <ele>338.8</ele>
        <time>2024-08-05T11:49:55Z</time>
      </trkpt>
      <trkpt lat="47.20044" lon="5.99698">
        <ele>338</ele>
        <time>2024-08-05T11:49:56Z</time>
      </trkpt>
      <trkpt lat="47.20047" lon="5.99712">
        <ele>337.4</ele>
        <time>2024-08-05T11:49:57Z</time>
      </trkpt>
      <trkpt lat="47.20051" lon="5.99726">
        <ele>336.4</ele>
        <time>2024-08-05T11:49:58Z</time>
      </trkpt>
      <trkpt lat="47.20055" lon="5.99739">
        <ele>335.8</ele>
        <time>2024-08-05T11:49:59Z</time>
      </trkpt>
      <trkpt lat="47.2006" lon="5.99751">
        <ele>335.2</ele>
        <time>2024-08-05T11:50:00Z</time>
      </trkpt>
      <trkpt lat="47.20066" lon="5.99762">
        <ele>334.8</ele>
        <time>2024-08-05T11:50:01Z</time>
      </trkpt>
      <trkpt lat="47.20071" lon="5.99773">
        <ele>334.4</ele>
        <time>2024-08-05T11:50:02Z</time>
      </trkpt>
      <trkpt lat="47.20078" lon="5.99783">
        <ele>333.8</ele>
        <time>2024-08-05T11:50:03Z</time>
      </trkpt>
      <trkpt lat="47.20084" lon="5.99793">
        <ele>333.2</ele>
        <time>2024-08-05T11:50:04Z</time>
      </trkpt>
      <trkpt lat="47.20092" lon="5.99802">
        <ele>332.6</ele>
        <time>2024-08-05T11:50:05Z</time>
      </trkpt>
      <trkpt lat="47.201" lon="5.9981">
        <ele>332.2</ele>
        <time>2024-08-05T11:50:06Z</time>
      </trkpt>
      <trkpt lat="47.20109" lon="5.99818">
        <ele>331.8</ele>
        <time>2024-08-05T11:50:07Z</time>
      </trkpt>
      <trkpt lat="47.20117" lon="5.99827">
        <ele>331.2</ele>
        <time>2024-08-05T11:50:08Z</time>
      </trkpt>
      <trkpt lat="47.20126" lon="5.99835">
        <ele>330.6</ele>
        <time>2024-08-05T11:50:09Z</time>
      </trkpt>
      <trkpt lat="47.20135" lon="5.99844">
        <ele>330.2</ele>
        <time>2024-08-05T11:50:10Z</time>
      </trkpt>
      <trkpt lat="47.20144" lon="5.99853">
        <ele>329.8</ele>
        <time>2024-08-05T11:50:11Z</time>
      </trkpt>
      <trkpt lat="47.20152" lon="5.99861">
        <ele>329.4</ele>
        <time>2024-08-05T11:50:12Z</time>
      </trkpt>
      <trkpt lat="47.20159" lon="5.99869">
        <ele>329.4</ele>
        <time>2024-08-05T11:50:13Z</time>
      </trkpt>
      <trkpt lat="47.20166" lon="5.99878">
        <ele>329</ele>
        <time>2024-08-05T11:50:14Z</time>
      </trkpt>
      <trkpt lat="47.20172" lon="5.99887">
        <ele>328.2</ele>
        <time>2024-08-05T11:50:15Z</time>
      </trkpt>
      <trkpt lat="47.20178" lon="5.99896">
        <ele>327.6</ele>
        <time>2024-08-05T11:50:16Z</time>
      </trkpt>
      <trkpt lat="47.20183" lon="5.99904">
        <ele>326.8</ele>
        <time>2024-08-05T11:50:17Z</time>
      </trkpt>
      <trkpt lat="47.20187" lon="5.9991">
        <ele>325.8</ele>
        <time>2024-08-05T11:50:18Z</time>
      </trkpt>
      <trkpt lat="47.2019" lon="5.99914">
        <ele>325.4</ele>
        <time>2024-08-05T11:50:19Z</time>
      </trkpt>
      <trkpt lat="47.20193" lon="5.99915">
        <ele>324.8</ele>
        <time>2024-08-05T11:50:20Z</time>
      </trkpt>
      <trkpt lat="47.20196" lon="5.99915">
        <ele>323.8</ele>
        <time>2024-08-05T11:50:21Z</time>
      </trkpt>
      <trkpt lat="47.202" lon="5.99914">
        <ele>323.2</ele>
        <time>2024-08-05T11:50:22Z</time>
      </trkpt>
      <trkpt lat="47.20204" lon="5.99915">
        <ele>322.4</ele>
        <time>2024-08-05T11:50:23Z</time>
      </trkpt>
      <trkpt lat="47.20209" lon="5.99917">
        <ele>321</ele>
        <time>2024-08-05T11:50:24Z</time>
      </trkpt>
      <trkpt lat="47.20213" lon="5.99921">
        <ele>320.2</ele>
        <time>2024-08-05T11:50:25Z</time>
      </trkpt>
      <trkpt lat="47.20218" lon="5.99926">
        <ele>319.4</ele>
        <time>2024-08-05T11:50:26Z</time>
      </trkpt>
      <trkpt lat="47.20224" lon="5.99933">
        <ele>318.6</ele>
        <time>2024-08-05T11:50:27Z</time>
      </trkpt>
      <trkpt lat="47.2023" lon="5.99939">
        <ele>317.8</ele>
        <time>2024-08-05T11:50:28Z</time>
      </trkpt>
      <trkpt lat="47.20236" lon="5.99945">
        <ele>317.4</ele>
        <time>2024-08-05T11:50:29Z</time>
      </trkpt>
      <trkpt lat="47.20242" lon="5.99951">
        <ele>317.2</ele>
        <time>2024-08-05T11:50:30Z</time>
      </trkpt>
      <trkpt lat="47.20249" lon="5.99957">
        <ele>316.8</ele>
        <time>2024-08-05T11:50:31Z</time>
      </trkpt>
      <trkpt lat="47.20256" lon="5.99963">
        <ele>316.6</ele>
        <time>2024-08-05T11:50:32Z</time>
      </trkpt>
      <trkpt lat="47.20263" lon="5.9997">
        <ele>316.2</ele>
        <time>2024-08-05T11:50:33Z</time>
      </trkpt>
      <trkpt lat="47.20271" lon="5.99978">
        <ele>316</ele>
        <time>2024-08-05T11:50:34Z</time>
      </trkpt>
      <trkpt lat="47.20279" lon="5.99986">
        <ele>316</ele>
        <time>2024-08-05T11:50:35Z</time>
      </trkpt>
      <trkpt lat="47.20287" lon="5.99994">
        <ele>315.4</ele>
        <time>2024-08-05T11:50:36Z</time>
      </trkpt>
      <trkpt lat="47.20295" lon="6.00003">
        <ele>315</ele>
        <time>2024-08-05T11:50:37Z</time>
      </trkpt>
      <trkpt lat="47.20304" lon="6.00012">
        <ele>314.8</ele>
        <time>2024-08-05T11:50:38Z</time>
      </trkpt>
      <trkpt lat="47.20313" lon="6.00021">
        <ele>314.2</ele>
        <time>2024-08-05T11:50:39Z</time>
      </trkpt>
      <trkpt lat="47.20322" lon="6.0003">
        <ele>314.2</ele>
        <time>2024-08-05T11:50:40Z</time>
      </trkpt>
      <trkpt lat="47.2033" lon="6.00039">
        <ele>313.4</ele>
        <time>2024-08-05T11:50:41Z</time>
      </trkpt>
      <trkpt lat="47.20339" lon="6.00048">
        <ele>312.4</ele>
        <time>2024-08-05T11:50:42Z</time>
      </trkpt>
      <trkpt lat="47.20348" lon="6.00058">
        <ele>311.8</ele>
        <time>2024-08-05T11:50:43Z</time>
      </trkpt>
      <trkpt lat="47.20357" lon="6.00067">
        <ele>311.2</ele>
        <time>2024-08-05T11:50:44Z</time>
      </trkpt>
      <trkpt lat="47.20367" lon="6.00077">
        <ele>310.4</ele>
        <time>2024-08-05T11:50:45Z</time>
      </trkpt>
      <trkpt lat="47.20376" lon="6.00087">
        <ele>309.8</ele>
        <time>2024-08-05T11:50:46Z</time>
      </trkpt>
      <trkpt lat="47.20386" lon="6.00096">
        <ele>309.2</ele>
        <time>2024-08-05T11:50:47Z</time>
      </trkpt>
      <trkpt lat="47.20395" lon="6.00106">
        <ele>308.4</ele>
        <time>2024-08-05T11:50:48Z</time>
      </trkpt>
      <trkpt lat="47.20405" lon="6.00116">
        <ele>308</ele>
        <time>2024-08-05T11:50:49Z</time>
      </trkpt>
      <trkpt lat="47.20415" lon="6.00126">
        <ele>307</ele>
        <time>2024-08-05T11:50:50Z</time>
      </trkpt>
      <trkpt lat="47.20426" lon="6.00135">
        <ele>305.8</ele>
        <time>2024-08-05T11:50:51Z</time>
      </trkpt>
      <trkpt lat="47.20436" lon="6.00145">
        <ele>304.8</ele>
        <time>2024-08-05T11:50:52Z</time>
      </trkpt>
      <trkpt lat="47.20447" lon="6.00154">
        <ele>303.8</ele>
        <time>2024-08-05T11:50:53Z</time>
      </trkpt>
      <trkpt lat="47.20458" lon="6.00164">
        <ele>302.8</ele>
        <time>2024-08-05T11:50:54Z</time>
      </trkpt>
      <trkpt lat="47.2047" lon="6.00174">
        <ele>302</ele>
        <time>2024-08-05T11:50:55Z</time>
      </trkpt>
      <trkpt lat="47.20481" lon="6.00184">
        <ele>301.2</ele>
        <time>2024-08-05T11:50:56Z</time>
      </trkpt>
      <trkpt lat="47.20493" lon="6.00195">
        <ele>301.2</ele>
        <time>2024-08-05T11:50:57Z</time>
      </trkpt>
      <trkpt lat="47.20504" lon="6.00206">
        <ele>300.2</ele>
        <time>2024-08-05T11:50:58Z</time>
      </trkpt>
      <trkpt lat="47.20514" lon="6.00219">
        <ele>299.2</ele>
        <time>2024-08-05T11:50:59Z</time>
      </trkpt>
      <trkpt lat="47.20525" lon="6.00232">
        <ele>298</ele>
        <time>2024-08-05T11:51:00Z</time>
      </trkpt>
      <trkpt lat="47.20535" lon="6.00245">
        <ele>296.6</ele>
        <time>2024-08-05T11:51:01Z</time>
      </trkpt>
      <trkpt lat="47.20544" lon="6.00259">
        <ele>295</ele>
        <time>2024-08-05T11:51:02Z</time>
      </trkpt>
      <trkpt lat="47.20553" lon="6.00273">
        <ele>293.6</ele>
        <time>2024-08-05T11:51:03Z</time>
      </trkpt>
      <trkpt lat="47.20562" lon="6.00287">
        <ele>292.4</ele>
        <time>2024-08-05T11:51:04Z</time>
      </trkpt>
      <trkpt lat="47.2057" lon="6.003">
        <ele>291.2</ele>
        <time>2024-08-05T11:51:05Z</time>
      </trkpt>
      <trkpt lat="47.20578" lon="6.00312">
        <ele>290</ele>
        <time>2024-08-05T11:51:06Z</time>
      </trkpt>
      <trkpt lat="47.20585" lon="6.00324">
        <ele>288.8</ele>
        <time>2024-08-05T11:51:07Z</time>
      </trkpt>
      <trkpt lat="47.2059" lon="6.00334">
        <ele>287.6</ele>
        <time>2024-08-05T11:51:08Z</time>
      </trkpt>
      <trkpt lat="47.20595" lon="6.00344">
        <ele>286.2</ele>
        <time>2024-08-05T11:51:09Z</time>
      </trkpt>
      <trkpt lat="47.206" lon="6.00354">
        <ele>285.6</ele>
        <time>2024-08-05T11:51:10Z</time>
      </trkpt>
      <trkpt lat="47.20605" lon="6.00364">
        <ele>284.6</ele>
        <time>2024-08-05T11:51:11Z</time>
      </trkpt>
      <trkpt lat="47.20609" lon="6.00374">
        <ele>283.4</ele>
        <time>2024-08-05T11:51:12Z</time>
      </trkpt>
      <trkpt lat="47.20612" lon="6.00385">
        <ele>282.2</ele>
        <time>2024-08-05T11:51:13Z</time>
      </trkpt>
      <trkpt lat="47.20613" lon="6.00397">
        <ele>280.6</ele>
        <time>2024-08-05T11:51:14Z</time>
      </trkpt>
      <trkpt lat="47.20614" lon="6.00408">
        <ele>279.2</ele>
        <time>2024-08-05T11:51:15Z</time>
      </trkpt>
      <trkpt lat="47.20615" lon="6.0042">
        <ele>278</ele>
        <time>2024-08-05T11:51:16Z</time>
      </trkpt>
      <trkpt lat="47.20616" lon="6.00433">
        <ele>276.8</ele>
        <time>2024-08-05T11:51:17Z</time>
      </trkpt>
      <trkpt lat="47.20616" lon="6.00446">
        <ele>276.8</ele>
        <time>2024-08-05T11:51:18Z</time>
      </trkpt>
      <trkpt lat="47.20618" lon="6.00458">
        <ele>275.6</ele>
        <time>2024-08-05T11:51:19Z</time>
      </trkpt>
      <trkpt lat="47.20619" lon="6.00471">
        <ele>274.8</ele>
        <time>2024-08-05T11:51:20Z</time>
      </trkpt>
      <trkpt lat="47.20621" lon="6.00484">
        <ele>273.4</ele>
        <time>2024-08-05T11:51:21Z</time>
      </trkpt>
      <trkpt lat="47.20626" lon="6.00495">
        <ele>272.8</ele>
        <time>2024-08-05T11:51:22Z</time>
      </trkpt>
      <trkpt lat="47.20633" lon="6.00503">
        <ele>272.4</ele>
        <time>2024-08-05T11:51:23Z</time>
      </trkpt>
      <trkpt lat="47.20642" lon="6.00506">
        <ele>272</ele>
        <time>2024-08-05T11:51:24Z</time>
      </trkpt>
      <trkpt lat="47.20651" lon="6.00504">
        <ele>271.4</ele>
        <time>2024-08-05T11:51:25Z</time>
      </trkpt>
      <trkpt lat="47.2066" lon="6.00501">
        <ele>270.8</ele>
        <time>2024-08-05T11:51:26Z</time>
      </trkpt>
      <trkpt lat="47.2067" lon="6.00497">
        <ele>270.4</ele>
        <time>2024-08-05T11:51:27Z</time>
      </trkpt>
      <trkpt lat="47.20679" lon="6.00494">
        <ele>270</ele>
        <time>2024-08-05T11:51:28Z</time>
      </trkpt>
      <trkpt lat="47.20687" lon="6.0049">
        <ele>269.4</ele>
        <time>2024-08-05T11:51:29Z</time>
      </trkpt>
      <trkpt lat="47.20696" lon="6.00486">
        <ele>268.8</ele>
        <time>2024-08-05T11:51:30Z</time>
      </trkpt>
      <trkpt lat="47.20704" lon="6.00482">
        <ele>268</ele>
        <time>2024-08-05T11:51:31Z</time>
      </trkpt>
      <trkpt lat="47.20712" lon="6.00476">
        <ele>267.4</ele>
        <time>2024-08-05T11:51:32Z</time>
      </trkpt>
      <trkpt lat="47.20718" lon="6.0047">
        <ele>267</ele>
        <time>2024-08-05T11:51:33Z</time>
      </trkpt>
      <trkpt lat="47.20724" lon="6.00463">
        <ele>266.8</ele>
        <time>2024-08-05T11:51:34Z</time>
      </trkpt>
      <trkpt lat="47.20729" lon="6.00457">
        <ele>266.4</ele>
        <time>2024-08-05T11:51:35Z</time>
      </trkpt>
      <trkpt lat="47.20735" lon="6.00452">
        <ele>265.8</ele>
        <time>2024-08-05T11:51:36Z</time>
      </trkpt>
      <trkpt lat="47.2074" lon="6.00447">
        <ele>265.4</ele>
        <time>2024-08-05T11:51:37Z</time>
      </trkpt>
      <trkpt lat="47.20745" lon="6.00442">
        <ele>265.2</ele>
        <time>2024-08-05T11:51:38Z</time>
      </trkpt>
      <trkpt lat="47.2075" lon="6.00438">
        <ele>265.2</ele>
        <time>2024-08-05T11:51:39Z</time>
      </trkpt>
      <trkpt lat="47.20754" lon="6.00434">
        <ele>265.2</ele>
        <time>2024-08-05T11:51:40Z</time>
      </trkpt>
      <trkpt lat="47.20759" lon="6.0043">
        <ele>265</ele>
        <time>2024-08-05T11:51:41Z</time>
      </trkpt>
      <trkpt lat="47.20764" lon="6.00427">
        <ele>265.2</ele>
        <time>2024-08-05T11:51:42Z</time>
      </trkpt>
      <trkpt lat="47.20769" lon="6.00424">
        <ele>265.2</ele>
        <time>2024-08-05T11:51:43Z</time>
      </trkpt>
      <trkpt lat="47.20774" lon="6.00423">
        <ele>265.2</ele>
        <time>2024-08-05T11:51:44Z</time>
      </trkpt>
      <trkpt lat="47.20779" lon="6.00422">
        <ele>265.2</ele>
        <time>2024-08-05T11:51:45Z</time>
      </trkpt>
      <trkpt lat="47.20785" lon="6.0042">
        <ele>265.2</ele>
        <time>2024-08-05T11:51:46Z</time>
      </trkpt>
      <trkpt lat="47.20791" lon="6.00417">
        <ele>265</ele>
        <time>2024-08-05T11:51:47Z</time>
      </trkpt>
      <trkpt lat="47.20797" lon="6.00414">
        <ele>265</ele>
        <time>2024-08-05T11:51:48Z</time>
      </trkpt>
      <trkpt lat="47.20803" lon="6.0041">
        <ele>265</ele>
        <time>2024-08-05T11:51:49Z</time>
      </trkpt>
      <trkpt lat="47.2081" lon="6.00408">
        <ele>264.8</ele>
        <time>2024-08-05T11:51:50Z</time>
      </trkpt>
      <trkpt lat="47.20816" lon="6.00405">
        <ele>264.8</ele>
        <time>2024-08-05T11:51:51Z</time>
      </trkpt>
      <trkpt lat="47.20823" lon="6.00401">
        <ele>264.8</ele>
        <time>2024-08-05T11:51:52Z</time>
      </trkpt>
      <trkpt lat="47.2083" lon="6.00399">
        <ele>264.8</ele>
        <time>2024-08-05T11:51:53Z</time>
      </trkpt>
      <trkpt lat="47.20837" lon="6.00397">
        <ele>264.8</ele>
        <time>2024-08-05T11:51:54Z</time>
      </trkpt>
      <trkpt lat="47.20844" lon="6.00395">
        <ele>264.8</ele>
        <time>2024-08-05T11:51:55Z</time>
      </trkpt>
      <trkpt lat="47.20851" lon="6.00393">
        <ele>264.8</ele>
        <time>2024-08-05T11:51:56Z</time>
      </trkpt>
      <trkpt lat="47.20858" lon="6.00391">
        <ele>264.6</ele>
        <time>2024-08-05T11:51:57Z</time>
      </trkpt>
      <trkpt lat="47.20865" lon="6.00388">
        <ele>264.6</ele>
        <time>2024-08-05T11:51:58Z</time>
      </trkpt>
      <trkpt lat="47.20871" lon="6.00386">
        <ele>264.6</ele>
        <time>2024-08-05T11:51:59Z</time>
      </trkpt>
      <trkpt lat="47.20878" lon="6.00383">
        <ele>264.4</ele>
        <time>2024-08-05T11:52:00Z</time>
      </trkpt>
      <trkpt lat="47.20884" lon="6.00381">
        <ele>264.6</ele>
        <time>2024-08-05T11:52:01Z</time>
      </trkpt>
      <trkpt lat="47.20891" lon="6.00379">
        <ele>264.6</ele>
        <time>2024-08-05T11:52:02Z</time>
      </trkpt>
      <trkpt lat="47.20897" lon="6.00376">
        <ele>264.4</ele>
        <time>2024-08-05T11:52:03Z</time>
      </trkpt>
      <trkpt lat="47.20903" lon="6.00374">
        <ele>264.4</ele>
        <time>2024-08-05T11:52:04Z</time>
      </trkpt>
      <trkpt lat="47.20909" lon="6.00371">
        <ele>264.4</ele>
        <time>2024-08-05T11:52:05Z</time>
      </trkpt>
      <trkpt lat="47.20916" lon="6.00368">
        <ele>264.4</ele>
        <time>2024-08-05T11:52:06Z</time>
      </trkpt>
      <trkpt lat="47.20922" lon="6.00365">
        <ele>264.4</ele>
        <time>2024-08-05T11:52:07Z</time>
      </trkpt>
      <trkpt lat="47.20928" lon="6.00363">
        <ele>264.4</ele>
        <time>2024-08-05T11:52:08Z</time>
      </trkpt>
      <trkpt lat="47.20934" lon="6.00361">
        <ele>264.4</ele>
        <time>2024-08-05T11:52:09Z</time>
      </trkpt>
      <trkpt lat="47.2094" lon="6.00358">
        <ele>264.4</ele>
        <time>2024-08-05T11:52:10Z</time>
      </trkpt>
      <trkpt lat="47.20946" lon="6.00356">
        <ele>264.2</ele>
        <time>2024-08-05T11:52:11Z</time>
      </trkpt>
      <trkpt lat="47.20952" lon="6.00354">
        <ele>264.4</ele>
        <time>2024-08-05T11:52:12Z</time>
      </trkpt>
      <trkpt lat="47.20959" lon="6.00353">
        <ele>264.4</ele>
        <time>2024-08-05T11:52:13Z</time>
      </trkpt>
      <trkpt lat="47.20965" lon="6.00351">
        <ele>264.4</ele>
        <time>2024-08-05T11:52:14Z</time>
      </trkpt>
      <trkpt lat="47.20971" lon="6.00349">
        <ele>264.4</ele>
        <time>2024-08-05T11:52:15Z</time>
      </trkpt>
      <trkpt lat="47.20976" lon="6.00347">
        <ele>264.4</ele>
        <time>2024-08-05T11:52:16Z</time>
      </trkpt>
      <trkpt lat="47.20982" lon="6.00345">
        <ele>264.4</ele>
        <time>2024-08-05T11:52:17Z</time>
      </trkpt>
      <trkpt lat="47.20987" lon="6.00342">
        <ele>264.6</ele>
        <time>2024-08-05T11:52:18Z</time>
      </trkpt>
      <trkpt lat="47.20993" lon="6.0034">
        <ele>264.4</ele>
        <time>2024-08-05T11:52:19Z</time>
      </trkpt>
      <trkpt lat="47.20998" lon="6.00338">
        <ele>264.6</ele>
        <time>2024-08-05T11:52:20Z</time>
      </trkpt>
      <trkpt lat="47.21003" lon="6.00335">
        <ele>264.8</ele>
        <time>2024-08-05T11:52:21Z</time>
      </trkpt>
      <trkpt lat="47.21008" lon="6.00333">
        <ele>264.8</ele>
        <time>2024-08-05T11:52:22Z</time>
      </trkpt>
      <trkpt lat="47.21013" lon="6.00331">
        <ele>264.8</ele>
        <time>2024-08-05T11:52:23Z</time>
      </trkpt>
      <trkpt lat="47.21018" lon="6.00328">
        <ele>264.8</ele>
        <time>2024-08-05T11:52:24Z</time>
      </trkpt>
      <trkpt lat="47.21022" lon="6.00326">
        <ele>265</ele>
        <time>2024-08-05T11:52:25Z</time>
      </trkpt>
      <trkpt lat="47.21027" lon="6.00324">
        <ele>265</ele>
        <time>2024-08-05T11:52:26Z</time>
      </trkpt>
      <trkpt lat="47.21032" lon="6.00322">
        <ele>265.2</ele>
        <time>2024-08-05T11:52:27Z</time>
      </trkpt>
      <trkpt lat="47.21037" lon="6.00319">
        <ele>265</ele>
        <time>2024-08-05T11:52:28Z</time>
      </trkpt>
      <trkpt lat="47.21041" lon="6.00317">
        <ele>265.2</ele>
        <time>2024-08-05T11:52:29Z</time>
      </trkpt>
      <trkpt lat="47.21046" lon="6.00316">
        <ele>265.2</ele>
        <time>2024-08-05T11:52:30Z</time>
      </trkpt>
      <trkpt lat="47.2105" lon="6.00314">
        <ele>265</ele>
        <time>2024-08-05T11:52:31Z</time>
      </trkpt>
      <trkpt lat="47.21055" lon="6.00312">
        <ele>265.4</ele>
        <time>2024-08-05T11:52:32Z</time>
      </trkpt>
      <trkpt lat="47.2106" lon="6.0031">
        <ele>265.2</ele>
        <time>2024-08-05T11:52:33Z</time>
      </trkpt>
      <trkpt lat="47.21065" lon="6.00309">
        <ele>265.4</ele>
        <time>2024-08-05T11:52:34Z</time>
      </trkpt>
      <trkpt lat="47.2107" lon="6.00308">
        <ele>265.4</ele>
        <time>2024-08-05T11:52:35Z</time>
      </trkpt>
      <trkpt lat="47.21074" lon="6.00306">
        <ele>265.4</ele>
        <time>2024-08-05T11:52:36Z</time>
      </trkpt>
      <trkpt lat="47.21079" lon="6.00305">
        <ele>265.4</ele>
        <time>2024-08-05T11:52:37Z</time>
      </trkpt>
      <trkpt lat="47.21084" lon="6.00303">
        <ele>265.6</ele>
        <time>2024-08-05T11:52:38Z</time>
      </trkpt>
      <trkpt lat="47.2109" lon="6.00302">
        <ele>265.8</ele>
        <time>2024-08-05T11:52:39Z</time>
      </trkpt>
      <trkpt lat="47.21094" lon="6.003">
        <ele>265.8</ele>
        <time>2024-08-05T11:52:40Z</time>
      </trkpt>
      <trkpt lat="47.21098" lon="6.00299">
        <ele>265.8</ele>
        <time>2024-08-05T11:52:41Z</time>
      </trkpt>
      <trkpt lat="47.21102" lon="6.00297">
        <ele>266</ele>
        <time>2024-08-05T11:52:42Z</time>
      </trkpt>
      <trkpt lat="47.21106" lon="6.00295">
        <ele>266</ele>
        <time>2024-08-05T11:52:43Z</time>
      </trkpt>
      <trkpt lat="47.2111" lon="6.00293">
        <ele>266.2</ele>
        <time>2024-08-05T11:52:44Z</time>
      </trkpt>
      <trkpt lat="47.21115" lon="6.00291">
        <ele>266.4</ele>
        <time>2024-08-05T11:52:45Z</time>
      </trkpt>
      <trkpt lat="47.21119" lon="6.00289">
        <ele>266.4</ele>
        <time>2024-08-05T11:52:46Z</time>
      </trkpt>
      <trkpt lat="47.21123" lon="6.00287">
        <ele>266.4</ele>
        <time>2024-08-05T11:52:47Z</time>
      </trkpt>
      <trkpt lat="47.21128" lon="6.00285">
        <ele>266.4</ele>
        <time>2024-08-05T11:52:48Z</time>
      </trkpt>
      <trkpt lat="47.21133" lon="6.00283">
        <ele>266.6</ele>
        <time>2024-08-05T11:52:49Z</time>
      </trkpt>
      <trkpt lat="47.21139" lon="6.0028">
        <ele>266.6</ele>
        <time>2024-08-05T11:52:50Z</time>
      </trkpt>
      <trkpt lat="47.21145" lon="6.00278">
        <ele>266.4</ele>
        <time>2024-08-05T11:52:51Z</time>
      </trkpt>
      <trkpt lat="47.21151" lon="6.00276">
        <ele>266.6</ele>
        <time>2024-08-05T11:52:52Z</time>
      </trkpt>
      <trkpt lat="47.21157" lon="6.00274">
        <ele>266.6</ele>
        <time>2024-08-05T11:52:53Z</time>
      </trkpt>
      <trkpt lat="47.21164" lon="6.00272">
        <ele>266.6</ele>
        <time>2024-08-05T11:52:54Z</time>
      </trkpt>
      <trkpt lat="47.21171" lon="6.00269">
        <ele>266.6</ele>
        <time>2024-08-05T11:52:55Z</time>
      </trkpt>
      <trkpt lat="47.21178" lon="6.00267">
        <ele>266.6</ele>
        <time>2024-08-05T11:52:56Z</time>
      </trkpt>
      <trkpt lat="47.21185" lon="6.00264">
        <ele>266.6</ele>
        <time>2024-08-05T11:52:57Z</time>
      </trkpt>
      <trkpt lat="47.21193" lon="6.00261">
        <ele>266.4</ele>
        <time>2024-08-05T11:52:58Z</time>
      </trkpt>
      <trkpt lat="47.212" lon="6.00259">
        <ele>266.4</ele>
        <time>2024-08-05T11:52:59Z</time>
      </trkpt>
      <trkpt lat="47.21208" lon="6.00257">
        <ele>266.2</ele>
        <time>2024-08-05T11:53:00Z</time>
      </trkpt>
      <trkpt lat="47.21216" lon="6.00255">
        <ele>266</ele>
        <time>2024-08-05T11:53:01Z</time>
      </trkpt>
      <trkpt lat="47.21224" lon="6.00252">
        <ele>265.4</ele>
        <time>2024-08-05T11:53:02Z</time>
      </trkpt>
      <trkpt lat="47.21232" lon="6.00251">
        <ele>265</ele>
        <time>2024-08-05T11:53:03Z</time>
      </trkpt>
      <trkpt lat="47.2124" lon="6.0025">
        <ele>264.8</ele>
        <time>2024-08-05T11:53:04Z</time>
      </trkpt>
      <trkpt lat="47.21248" lon="6.00248">
        <ele>264.4</ele>
        <time>2024-08-05T11:53:05Z</time>
      </trkpt>
      <trkpt lat="47.21256" lon="6.00248">
        <ele>264.2</ele>
        <time>2024-08-05T11:53:06Z</time>
      </trkpt>
      <trkpt lat="47.21264" lon="6.00248">
        <ele>264</ele>
        <time>2024-08-05T11:53:07Z</time>
      </trkpt>
      <trkpt lat="47.21273" lon="6.0025">
        <ele>264</ele>
        <time>2024-08-05T11:53:08Z</time>
      </trkpt>
      <trkpt lat="47.21281" lon="6.00252">
        <ele>263.8</ele>
        <time>2024-08-05T11:53:09Z</time>
      </trkpt>
      <trkpt lat="47.2129" lon="6.00255">
        <ele>263.6</ele>
        <time>2024-08-05T11:53:10Z</time>
      </trkpt>
      <trkpt lat="47.21298" lon="6.0026">
        <ele>263.2</ele>
        <time>2024-08-05T11:53:11Z</time>
      </trkpt>
      <trkpt lat="47.21307" lon="6.00264">
        <ele>262.8</ele>
        <time>2024-08-05T11:53:12Z</time>
      </trkpt>
      <trkpt lat="47.21315" lon="6.00268">
        <ele>262.6</ele>
        <time>2024-08-05T11:53:13Z</time>
      </trkpt>
      <trkpt lat="47.21323" lon="6.00273">
        <ele>262.2</ele>
        <time>2024-08-05T11:53:14Z</time>
      </trkpt>
      <trkpt lat="47.21332" lon="6.00279">
        <ele>261.8</ele>
        <time>2024-08-05T11:53:15Z</time>
      </trkpt>
      <trkpt lat="47.21339" lon="6.00284">
        <ele>261.2</ele>
        <time>2024-08-05T11:53:16Z</time>
      </trkpt>
      <trkpt lat="47.21346" lon="6.0029">
        <ele>260.6</ele>
        <time>2024-08-05T11:53:17Z</time>
      </trkpt>
      <trkpt lat="47.21353" lon="6.00294">
        <ele>260.2</ele>
        <time>2024-08-05T11:53:18Z</time>
      </trkpt>
      <trkpt lat="47.21361" lon="6.00298">
        <ele>259.8</ele>
        <time>2024-08-05T11:53:19Z</time>
      </trkpt>
      <trkpt lat="47.21369" lon="6.00302">
        <ele>259.2</ele>
        <time>2024-08-05T11:53:20Z</time>
      </trkpt>
      <trkpt lat="47.21377" lon="6.00306">
        <ele>258.8</ele>
        <time>2024-08-05T11:53:21Z</time>
      </trkpt>
      <trkpt lat="47.21384" lon="6.00312">
        <ele>258.2</ele>
        <time>2024-08-05T11:53:22Z</time>
      </trkpt>
      <trkpt lat="47.2139" lon="6.00318">
        <ele>257.8</ele>
        <time>2024-08-05T11:53:23Z</time>
      </trkpt>
      <trkpt lat="47.21395" lon="6.00325">
        <ele>257.2</ele>
        <time>2024-08-05T11:53:24Z</time>
      </trkpt>
      <trkpt lat="47.21401" lon="6.00332">
        <ele>256.4</ele>
        <time>2024-08-05T11:53:25Z</time>
      </trkpt>
      <trkpt lat="47.21406" lon="6.00339">
        <ele>255.8</ele>
        <time>2024-08-05T11:53:26Z</time>
      </trkpt>
      <trkpt lat="47.21412" lon="6.00347">
        <ele>255.2</ele>
        <time>2024-08-05T11:53:27Z</time>
      </trkpt>
      <trkpt lat="47.21416" lon="6.00353">
        <ele>254.8</ele>
        <time>2024-08-05T11:53:29Z</time>
      </trkpt>
      <trkpt lat="47.2142" lon="6.00362">
        <ele>254.8</ele>
        <time>2024-08-05T11:53:30Z</time>
      </trkpt>
      <trkpt lat="47.21424" lon="6.00371">
        <ele>254.8</ele>
        <time>2024-08-05T11:53:31Z</time>
      </trkpt>
      <trkpt lat="47.21428" lon="6.00379">
        <ele>254.4</ele>
        <time>2024-08-05T11:53:32Z</time>
      </trkpt>
      <trkpt lat="47.21433" lon="6.00386">
        <ele>254</ele>
        <time>2024-08-05T11:53:33Z</time>
      </trkpt>
      <trkpt lat="47.21439" lon="6.00391">
        <ele>254</ele>
        <time>2024-08-05T11:53:34Z</time>
      </trkpt>
      <trkpt lat="47.21445" lon="6.00397">
        <ele>253.6</ele>
        <time>2024-08-05T11:53:35Z</time>
      </trkpt>
      <trkpt lat="47.2145" lon="6.00402">
        <ele>253.6</ele>
        <time>2024-08-05T11:53:36Z</time>
      </trkpt>
      <trkpt lat="47.21456" lon="6.00409">
        <ele>253.6</ele>
        <time>2024-08-05T11:53:37Z</time>
      </trkpt>
      <trkpt lat="47.21462" lon="6.00417">
        <ele>253.4</ele>
        <time>2024-08-05T11:53:38Z</time>
      </trkpt>
      <trkpt lat="47.21467" lon="6.00427">
        <ele>253.4</ele>
        <time>2024-08-05T11:53:39Z</time>
      </trkpt>
      <trkpt lat="47.21472" lon="6.00437">
        <ele>253.4</ele>
        <time>2024-08-05T11:53:40Z</time>
      </trkpt>
      <trkpt lat="47.21474" lon="6.00448">
        <ele>253.4</ele>
        <time>2024-08-05T11:53:41Z</time>
      </trkpt>
      <trkpt lat="47.21475" lon="6.00458">
        <ele>253.2</ele>
        <time>2024-08-05T11:53:42Z</time>
      </trkpt>
      <trkpt lat="47.21477" lon="6.00467">
        <ele>253.2</ele>
        <time>2024-08-05T11:53:43Z</time>
      </trkpt>
      <trkpt lat="47.21479" lon="6.00475">
        <ele>253.2</ele>
        <time>2024-08-05T11:53:44Z</time>
      </trkpt>
      <trkpt lat="47.21481" lon="6.00483">
        <ele>253.2</ele>
        <time>2024-08-05T11:53:45Z</time>
      </trkpt>
      <trkpt lat="47.21484" lon="6.00491">
        <ele>252.6</ele>
        <time>2024-08-05T11:53:46Z</time>
      </trkpt>
      <trkpt lat="47.21486" lon="6.00498">
        <ele>252.2</ele>
        <time>2024-08-05T11:53:47Z</time>
      </trkpt>
      <trkpt lat="47.21488" lon="6.00506">
        <ele>251.6</ele>
        <time>2024-08-05T11:53:48Z</time>
      </trkpt>
      <trkpt lat="47.2149" lon="6.00513">
        <ele>251</ele>
        <time>2024-08-05T11:53:49Z</time>
      </trkpt>
      <trkpt lat="47.21492" lon="6.00521">
        <ele>250.6</ele>
        <time>2024-08-05T11:53:50Z</time>
      </trkpt>
      <trkpt lat="47.21495" lon="6.00528">
        <ele>250.4</ele>
        <time>2024-08-05T11:53:51Z</time>
      </trkpt>
      <trkpt lat="47.21498" lon="6.00536">
        <ele>250.4</ele>
        <time>2024-08-05T11:53:52Z</time>
      </trkpt>
      <trkpt lat="47.215" lon="6.00544">
        <ele>250.4</ele>
        <time>2024-08-05T11:53:53Z</time>
      </trkpt>
      <trkpt lat="47.21503" lon="6.00552">
        <ele>250.2</ele>
        <time>2024-08-05T11:53:54Z</time>
      </trkpt>
      <trkpt lat="47.21506" lon="6.0056">
        <ele>250.2</ele>
        <time>2024-08-05T11:53:55Z</time>
      </trkpt>
      <trkpt lat="47.21509" lon="6.00568">
        <ele>250.2</ele>
        <time>2024-08-05T11:53:56Z</time>
      </trkpt>
      <trkpt lat="47.21511" lon="6.00575">
        <ele>250</ele>
        <time>2024-08-05T11:53:57Z</time>
      </trkpt>
      <trkpt lat="47.21514" lon="6.00583">
        <ele>250</ele>
        <time>2024-08-05T11:53:58Z</time>
      </trkpt>
      <trkpt lat="47.21517" lon="6.00591">
        <ele>250</ele>
        <time>2024-08-05T11:53:59Z</time>
      </trkpt>
      <trkpt lat="47.21519" lon="6.00599">
        <ele>250.2</ele>
        <time>2024-08-05T11:54:00Z</time>
      </trkpt>
      <trkpt lat="47.21521" lon="6.00606">
        <ele>249.8</ele>
        <time>2024-08-05T11:54:01Z</time>
      </trkpt>
      <trkpt lat="47.21523" lon="6.00614">
        <ele>250</ele>
        <time>2024-08-05T11:54:02Z</time>
      </trkpt>
      <trkpt lat="47.21525" lon="6.00621">
        <ele>250</ele>
        <time>2024-08-05T11:54:03Z</time>
      </trkpt>
      <trkpt lat="47.21527" lon="6.00628">
        <ele>249.8</ele>
        <time>2024-08-05T11:54:04Z</time>
      </trkpt>
      <trkpt lat="47.21529" lon="6.00635">
        <ele>250</ele>
        <time>2024-08-05T11:54:05Z</time>
      </trkpt>
      <trkpt lat="47.21532" lon="6.00643">
        <ele>250</ele>
        <time>2024-08-05T11:54:06Z</time>
      </trkpt>
      <trkpt lat="47.21534" lon="6.0065">
        <ele>250</ele>
        <time>2024-08-05T11:54:07Z</time>
      </trkpt>
      <trkpt lat="47.21536" lon="6.00657">
        <ele>250</ele>
        <time>2024-08-05T11:54:08Z</time>
      </trkpt>
      <trkpt lat="47.21538" lon="6.00663">
        <ele>250</ele>
        <time>2024-08-05T11:54:09Z</time>
      </trkpt>
      <trkpt lat="47.2154" lon="6.00669">
        <ele>250</ele>
        <time>2024-08-05T11:54:10Z</time>
      </trkpt>
      <trkpt lat="47.21542" lon="6.00676">
        <ele>250</ele>
        <time>2024-08-05T11:54:11Z</time>
      </trkpt>
      <trkpt lat="47.21544" lon="6.00683">
        <ele>250</ele>
        <time>2024-08-05T11:54:12Z</time>
      </trkpt>
      <trkpt lat="47.21545" lon="6.0069">
        <ele>250</ele>
        <time>2024-08-05T11:54:13Z</time>
      </trkpt>
      <trkpt lat="47.21548" lon="6.00697">
        <ele>250</ele>
        <time>2024-08-05T11:54:14Z</time>
      </trkpt>
      <trkpt lat="47.21549" lon="6.00704">
        <ele>250</ele>
        <time>2024-08-05T11:54:15Z</time>
      </trkpt>
      <trkpt lat="47.21551" lon="6.00712">
        <ele>250</ele>
        <time>2024-08-05T11:54:16Z</time>
      </trkpt>
      <trkpt lat="47.21553" lon="6.00719">
        <ele>250</ele>
        <time>2024-08-05T11:54:17Z</time>
      </trkpt>
      <trkpt lat="47.21555" lon="6.00726">
        <ele>250.2</ele>
        <time>2024-08-05T11:54:18Z</time>
      </trkpt>
      <trkpt lat="47.21556" lon="6.00734">
        <ele>250</ele>
        <time>2024-08-05T11:54:19Z</time>
      </trkpt>
      <trkpt lat="47.21558" lon="6.00741">
        <ele>250.2</ele>
        <time>2024-08-05T11:54:20Z</time>
      </trkpt>
      <trkpt lat="47.2156" lon="6.00748">
        <ele>250.2</ele>
        <time>2024-08-05T11:54:21Z</time>
      </trkpt>
      <trkpt lat="47.21562" lon="6.00755">
        <ele>250.2</ele>
        <time>2024-08-05T11:54:22Z</time>
      </trkpt>
      <trkpt lat="47.21564" lon="6.00763">
        <ele>250.2</ele>
        <time>2024-08-05T11:54:23Z</time>
      </trkpt>
      <trkpt lat="47.21566" lon="6.0077">
        <ele>250.4</ele>
        <time>2024-08-05T11:54:24Z</time>
      </trkpt>
      <trkpt lat="47.21568" lon="6.00778">
        <ele>250.4</ele>
        <time>2024-08-05T11:54:25Z</time>
      </trkpt>
      <trkpt lat="47.2157" lon="6.00785">
        <ele>250.4</ele>
        <time>2024-08-05T11:54:26Z</time>
      </trkpt>
      <trkpt lat="47.21571" lon="6.00792">
        <ele>250.6</ele>
        <time>2024-08-05T11:54:27Z</time>
      </trkpt>
      <trkpt lat="47.21573" lon="6.00799">
        <ele>250.6</ele>
        <time>2024-08-05T11:54:28Z</time>
      </trkpt>
      <trkpt lat="47.21575" lon="6.00806">
        <ele>250.6</ele>
        <time>2024-08-05T11:54:29Z</time>
      </trkpt>
      <trkpt lat="47.21578" lon="6.00813">
        <ele>250.6</ele>
        <time>2024-08-05T11:54:30Z</time>
      </trkpt>
      <trkpt lat="47.2158" lon="6.0082">
        <ele>250.6</ele>
        <time>2024-08-05T11:54:31Z</time>
      </trkpt>
      <trkpt lat="47.21582" lon="6.00827">
        <ele>250.6</ele>
        <time>2024-08-05T11:54:32Z</time>
      </trkpt>
      <trkpt lat="47.21583" lon="6.00834">
        <ele>250.6</ele>
        <time>2024-08-05T11:54:33Z</time>
      </trkpt>
      <trkpt lat="47.21585" lon="6.0084">
        <ele>250.6</ele>
        <time>2024-08-05T11:54:34Z</time>
      </trkpt>
      <trkpt lat="47.21587" lon="6.00846">
        <ele>250.6</ele>
        <time>2024-08-05T11:54:35Z</time>
      </trkpt>
      <trkpt lat="47.21589" lon="6.0085">
        <ele>250.6</ele>
        <time>2024-08-05T11:54:36Z</time>
      </trkpt>
      <trkpt lat="47.21593" lon="6.00852">
        <ele>250.6</ele>
        <time>2024-08-05T11:54:37Z</time>
      </trkpt>
      <trkpt lat="47.21596" lon="6.00851">
        <ele>250.6</ele>
        <time>2024-08-05T11:54:38Z</time>
      </trkpt>
      <trkpt lat="47.21597" lon="6.00851">
        <ele>250.6</ele>
        <time>2024-08-05T11:54:39Z</time>
      </trkpt>
      <trkpt lat="47.21599" lon="6.0085">
        <ele>250.6</ele>
        <time>2024-08-05T11:54:40Z</time>
      </trkpt>
      <trkpt lat="47.216" lon="6.0085">
        <ele>250.6</ele>
        <time>2024-08-05T11:54:41Z</time>
      </trkpt>
      <trkpt lat="47.21602" lon="6.0085">
        <ele>250.4</ele>
        <time>2024-08-05T11:54:42Z</time>
      </trkpt>
      <trkpt lat="47.21603" lon="6.00849">
        <ele>250.4</ele>
        <time>2024-08-05T11:54:43Z</time>
      </trkpt>
      <trkpt lat="47.21605" lon="6.00849">
        <ele>250.4</ele>
        <time>2024-08-05T11:54:44Z</time>
      </trkpt>
      <trkpt lat="47.21608" lon="6.00848">
        <ele>250.4</ele>
        <time>2024-08-05T11:54:45Z</time>
      </trkpt>
      <trkpt lat="47.21611" lon="6.00846">
        <ele>250.4</ele>
        <time>2024-08-05T11:54:46Z</time>
      </trkpt>
      <trkpt lat="47.21614" lon="6.00844">
        <ele>250.4</ele>
        <time>2024-08-05T11:54:47Z</time>
      </trkpt>
      <trkpt lat="47.21618" lon="6.00842">
        <ele>250.2</ele>
        <time>2024-08-05T11:54:48Z</time>
      </trkpt>
      <trkpt lat="47.2162" lon="6.00839">
        <ele>250.4</ele>
        <time>2024-08-05T11:54:49Z</time>
      </trkpt>
      <trkpt lat="47.21624" lon="6.00837">
        <ele>250.2</ele>
        <time>2024-08-05T11:54:50Z</time>
      </trkpt>
      <trkpt lat="47.21627" lon="6.00838">
        <ele>250.2</ele>
        <time>2024-08-05T11:54:51Z</time>
      </trkpt>
      <trkpt lat="47.2163" lon="6.00841">
        <ele>250.2</ele>
        <time>2024-08-05T11:54:52Z</time>
      </trkpt>
      <trkpt lat="47.21632" lon="6.00845">
        <ele>250</ele>
        <time>2024-08-05T11:54:53Z</time>
      </trkpt>
      <trkpt lat="47.21634" lon="6.00851">
        <ele>249.8</ele>
        <time>2024-08-05T11:54:54Z</time>
      </trkpt>
      <trkpt lat="47.21635" lon="6.00857">
        <ele>250</ele>
        <time>2024-08-05T11:54:55Z</time>
      </trkpt>
      <trkpt lat="47.21636" lon="6.00864">
        <ele>250</ele>
        <time>2024-08-05T11:54:56Z</time>
      </trkpt>
      <trkpt lat="47.21637" lon="6.00871">
        <ele>250</ele>
        <time>2024-08-05T11:54:57Z</time>
      </trkpt>
      <trkpt lat="47.21638" lon="6.00878">
        <ele>250</ele>
        <time>2024-08-05T11:54:58Z</time>
      </trkpt>
      <trkpt lat="47.21639" lon="6.00885">
        <ele>250</ele>
        <time>2024-08-05T11:54:59Z</time>
      </trkpt>
      <trkpt lat="47.2164" lon="6.00892">
        <ele>249.8</ele>
        <time>2024-08-05T11:55:00Z</time>
      </trkpt>
      <trkpt lat="47.21641" lon="6.00899">
        <ele>250</ele>
        <time>2024-08-05T11:55:01Z</time>
      </trkpt>
      <trkpt lat="47.21641" lon="6.00906">
        <ele>250</ele>
        <time>2024-08-05T11:55:02Z</time>
      </trkpt>
      <trkpt lat="47.21643" lon="6.00914">
        <ele>250</ele>
        <time>2024-08-05T11:55:03Z</time>
      </trkpt>
      <trkpt lat="47.21643" lon="6.00922">
        <ele>250</ele>
        <time>2024-08-05T11:55:04Z</time>
      </trkpt>
      <trkpt lat="47.21644" lon="6.00929">
        <ele>250</ele>
        <time>2024-08-05T11:55:05Z</time>
      </trkpt>
      <trkpt lat="47.21644" lon="6.00937">
        <ele>250</ele>
        <time>2024-08-05T11:55:06Z</time>
      </trkpt>
      <trkpt lat="47.21644" lon="6.00945">
        <ele>250</ele>
        <time>2024-08-05T11:55:07Z</time>
      </trkpt>
      <trkpt lat="47.21645" lon="6.00954">
        <ele>250</ele>
        <time>2024-08-05T11:55:08Z</time>
      </trkpt>
      <trkpt lat="47.21646" lon="6.00962">
        <ele>250</ele>
        <time>2024-08-05T11:55:09Z</time>
      </trkpt>
      <trkpt lat="47.21647" lon="6.00971">
        <ele>250</ele>
        <time>2024-08-05T11:55:10Z</time>
      </trkpt>
      <trkpt lat="47.21648" lon="6.0098">
        <ele>250</ele>
        <time>2024-08-05T11:55:11Z</time>
      </trkpt>
      <trkpt lat="47.21649" lon="6.00989">
        <ele>250</ele>
        <time>2024-08-05T11:55:12Z</time>
      </trkpt>
      <trkpt lat="47.21651" lon="6.00999">
        <ele>250</ele>
        <time>2024-08-05T11:55:13Z</time>
      </trkpt>
      <trkpt lat="47.21652" lon="6.01008">
        <ele>250</ele>
        <time>2024-08-05T11:55:14Z</time>
      </trkpt>
      <trkpt lat="47.21652" lon="6.01017">
        <ele>250</ele>
        <time>2024-08-05T11:55:15Z</time>
      </trkpt>
      <trkpt lat="47.21653" lon="6.01026">
        <ele>250</ele>
        <time>2024-08-05T11:55:16Z</time>
      </trkpt>
      <trkpt lat="47.21654" lon="6.01035">
        <ele>250</ele>
        <time>2024-08-05T11:55:17Z</time>
      </trkpt>
      <trkpt lat="47.21655" lon="6.01043">
        <ele>250</ele>
        <time>2024-08-05T11:55:18Z</time>
      </trkpt>
      <trkpt lat="47.21656" lon="6.01052">
        <ele>250</ele>
        <time>2024-08-05T11:55:19Z</time>
      </trkpt>
      <trkpt lat="47.21656" lon="6.01062">
        <ele>250</ele>
        <time>2024-08-05T11:55:20Z</time>
      </trkpt>
      <trkpt lat="47.21657" lon="6.01071">
        <ele>250</ele>
        <time>2024-08-05T11:55:21Z</time>
      </trkpt>
      <trkpt lat="47.21658" lon="6.0108">
        <ele>250</ele>
        <time>2024-08-05T11:55:22Z</time>
      </trkpt>
      <trkpt lat="47.21658" lon="6.0109">
        <ele>250</ele>
        <time>2024-08-05T11:55:23Z</time>
      </trkpt>
      <trkpt lat="47.21659" lon="6.011">
        <ele>250</ele>
        <time>2024-08-05T11:55:24Z</time>
      </trkpt>
      <trkpt lat="47.21659" lon="6.0111">
        <ele>250</ele>
        <time>2024-08-05T11:55:25Z</time>
      </trkpt>
      <trkpt lat="47.2166" lon="6.01119">
        <ele>250</ele>
        <time>2024-08-05T11:55:26Z</time>
      </trkpt>
      <trkpt lat="47.2166" lon="6.01128">
        <ele>250</ele>
        <time>2024-08-05T11:55:27Z</time>
      </trkpt>
      <trkpt lat="47.21661" lon="6.01137">
        <ele>250</ele>
        <time>2024-08-05T11:55:28Z</time>
      </trkpt>
      <trkpt lat="47.21661" lon="6.01145">
        <ele>250</ele>
        <time>2024-08-05T11:55:29Z</time>
      </trkpt>
      <trkpt lat="47.21662" lon="6.01153">
        <ele>250</ele>
        <time>2024-08-05T11:55:30Z</time>
      </trkpt>
      <trkpt lat="47.21662" lon="6.01161">
        <ele>250.2</ele>
        <time>2024-08-05T11:55:31Z</time>
      </trkpt>
      <trkpt lat="47.21662" lon="6.0117">
        <ele>250.2</ele>
        <time>2024-08-05T11:55:32Z</time>
      </trkpt>
      <trkpt lat="47.21663" lon="6.01178">
        <ele>250.2</ele>
        <time>2024-08-05T11:55:33Z</time>
      </trkpt>
      <trkpt lat="47.21663" lon="6.01187">
        <ele>250.2</ele>
        <time>2024-08-05T11:55:34Z</time>
      </trkpt>
      <trkpt lat="47.21664" lon="6.01195">
        <ele>250.4</ele>
        <time>2024-08-05T11:55:35Z</time>
      </trkpt>
      <trkpt lat="47.21664" lon="6.01204">
        <ele>250.4</ele>
        <time>2024-08-05T11:55:36Z</time>
      </trkpt>
      <trkpt lat="47.21665" lon="6.01213">
        <ele>250.4</ele>
        <time>2024-08-05T11:55:37Z</time>
      </trkpt>
      <trkpt lat="47.21665" lon="6.01222">
        <ele>250.4</ele>
        <time>2024-08-05T11:55:38Z</time>
      </trkpt>
      <trkpt lat="47.21666" lon="6.01231">
        <ele>250.4</ele>
        <time>2024-08-05T11:55:39Z</time>
      </trkpt>
      <trkpt lat="47.21666" lon="6.01239">
        <ele>250.2</ele>
        <time>2024-08-05T11:55:40Z</time>
      </trkpt>
      <trkpt lat="47.21667" lon="6.01248">
        <ele>250.4</ele>
        <time>2024-08-05T11:55:41Z</time>
      </trkpt>
      <trkpt lat="47.21668" lon="6.01257">
        <ele>250.4</ele>
        <time>2024-08-05T11:55:42Z</time>
      </trkpt>
      <trkpt lat="47.21669" lon="6.01267">
        <ele>250.4</ele>
        <time>2024-08-05T11:55:43Z</time>
      </trkpt>
      <trkpt lat="47.2167" lon="6.01276">
        <ele>250.2</ele>
        <time>2024-08-05T11:55:44Z</time>
      </trkpt>
      <trkpt lat="47.21671" lon="6.01286">
        <ele>250.4</ele>
        <time>2024-08-05T11:55:45Z</time>
      </trkpt>
      <trkpt lat="47.21671" lon="6.01296">
        <ele>250.4</ele>
        <time>2024-08-05T11:55:46Z</time>
      </trkpt>
      <trkpt lat="47.21672" lon="6.01305">
        <ele>250.4</ele>
        <time>2024-08-05T11:55:47Z</time>
      </trkpt>
      <trkpt lat="47.21673" lon="6.01314">
        <ele>250.4</ele>
        <time>2024-08-05T11:55:48Z</time>
      </trkpt>
      <trkpt lat="47.21674" lon="6.01324">
        <ele>250.4</ele>
        <time>2024-08-05T11:55:49Z</time>
      </trkpt>
      <trkpt lat="47.21675" lon="6.01333">
        <ele>250.2</ele>
        <time>2024-08-05T11:55:50Z</time>
      </trkpt>
      <trkpt lat="47.21676" lon="6.01342">
        <ele>250.2</ele>
        <time>2024-08-05T11:55:51Z</time>
      </trkpt>
      <trkpt lat="47.21676" lon="6.01351">
        <ele>250.2</ele>
        <time>2024-08-05T11:55:52Z</time>
      </trkpt>
      <trkpt lat="47.21677" lon="6.0136">
        <ele>249.8</ele>
        <time>2024-08-05T11:55:53Z</time>
      </trkpt>
      <trkpt lat="47.21677" lon="6.01369">
        <ele>249.8</ele>
        <time>2024-08-05T11:55:54Z</time>
      </trkpt>
      <trkpt lat="47.21678" lon="6.01378">
        <ele>249.6</ele>
        <time>2024-08-05T11:55:55Z</time>
      </trkpt>
      <trkpt lat="47.21679" lon="6.01387">
        <ele>249.6</ele>
        <time>2024-08-05T11:55:56Z</time>
      </trkpt>
      <trkpt lat="47.2168" lon="6.01395">
        <ele>249.6</ele>
        <time>2024-08-05T11:55:57Z</time>
      </trkpt>
      <trkpt lat="47.21681" lon="6.01404">
        <ele>249.4</ele>
        <time>2024-08-05T11:55:58Z</time>
      </trkpt>
      <trkpt lat="47.21682" lon="6.01412">
        <ele>249.4</ele>
        <time>2024-08-05T11:55:59Z</time>
      </trkpt>
      <trkpt lat="47.21682" lon="6.01421">
        <ele>249.4</ele>
        <time>2024-08-05T11:56:00Z</time>
      </trkpt>
      <trkpt lat="47.21683" lon="6.01429">
        <ele>249.4</ele>
        <time>2024-08-05T11:56:01Z</time>
      </trkpt>
      <trkpt lat="47.21684" lon="6.01437">
        <ele>249.4</ele>
        <time>2024-08-05T11:56:02Z</time>
      </trkpt>
      <trkpt lat="47.21684" lon="6.01445">
        <ele>249.4</ele>
        <time>2024-08-05T11:56:03Z</time>
      </trkpt>
      <trkpt lat="47.21685" lon="6.01453">
        <ele>249.4</ele>
        <time>2024-08-05T11:56:04Z</time>
      </trkpt>
      <trkpt lat="47.21685" lon="6.01461">
        <ele>249.4</ele>
        <time>2024-08-05T11:56:05Z</time>
      </trkpt>
      <trkpt lat="47.21686" lon="6.01469">
        <ele>249.4</ele>
        <time>2024-08-05T11:56:06Z</time>
      </trkpt>
      <trkpt lat="47.21687" lon="6.01477">
        <ele>249.4</ele>
        <time>2024-08-05T11:56:07Z</time>
      </trkpt>
      <trkpt lat="47.21688" lon="6.01485">
        <ele>249.4</ele>
        <time>2024-08-05T11:56:08Z</time>
      </trkpt>
      <trkpt lat="47.21688" lon="6.01494">
        <ele>249.2</ele>
        <time>2024-08-05T11:56:09Z</time>
      </trkpt>
      <trkpt lat="47.21688" lon="6.01503">
        <ele>249.2</ele>
        <time>2024-08-05T11:56:10Z</time>
      </trkpt>
      <trkpt lat="47.21689" lon="6.01511">
        <ele>249.4</ele>
        <time>2024-08-05T11:56:11Z</time>
      </trkpt>
      <trkpt lat="47.21689" lon="6.0152">
        <ele>249.2</ele>
        <time>2024-08-05T11:56:12Z</time>
      </trkpt>
      <trkpt lat="47.2169" lon="6.01528">
        <ele>249.4</ele>
        <time>2024-08-05T11:56:13Z</time>
      </trkpt>
      <trkpt lat="47.2169" lon="6.01537">
        <ele>249.4</ele>
        <time>2024-08-05T11:56:14Z</time>
      </trkpt>
      <trkpt lat="47.21691" lon="6.01545">
        <ele>249.4</ele>
        <time>2024-08-05T11:56:15Z</time>
      </trkpt>
      <trkpt lat="47.21691" lon="6.01554">
        <ele>249.4</ele>
        <time>2024-08-05T11:56:16Z</time>
      </trkpt>
      <trkpt lat="47.21691" lon="6.01563">
        <ele>249.4</ele>
        <time>2024-08-05T11:56:17Z</time>
      </trkpt>
      <trkpt lat="47.21692" lon="6.01571">
        <ele>249.4</ele>
        <time>2024-08-05T11:56:18Z</time>
      </trkpt>
      <trkpt lat="47.21693" lon="6.0158">
        <ele>249.4</ele>
        <time>2024-08-05T11:56:19Z</time>
      </trkpt>
      <trkpt lat="47.21694" lon="6.01589">
        <ele>249.4</ele>
        <time>2024-08-05T11:56:20Z</time>
      </trkpt>
      <trkpt lat="47.21695" lon="6.01597">
        <ele>249.4</ele>
        <time>2024-08-05T11:56:21Z</time>
      </trkpt>
      <trkpt lat="47.21695" lon="6.01606">
        <ele>249.4</ele>
        <time>2024-08-05T11:56:22Z</time>
      </trkpt>
      <trkpt lat="47.21696" lon="6.01615">
        <ele>249.4</ele>
        <time>2024-08-05T11:56:23Z</time>
      </trkpt>
      <trkpt lat="47.21697" lon="6.01624">
        <ele>249.4</ele>
        <time>2024-08-05T11:56:24Z</time>
      </trkpt>
      <trkpt lat="47.21697" lon="6.01633">
        <ele>249.6</ele>
        <time>2024-08-05T11:56:25Z</time>
      </trkpt>
      <trkpt lat="47.21698" lon="6.01641">
        <ele>249.6</ele>
        <time>2024-08-05T11:56:26Z</time>
      </trkpt>
      <trkpt lat="47.21698" lon="6.0165">
        <ele>249.6</ele>
        <time>2024-08-05T11:56:27Z</time>
      </trkpt>
      <trkpt lat="47.21699" lon="6.01659">
        <ele>249.4</ele>
        <time>2024-08-05T11:56:28Z</time>
      </trkpt>
      <trkpt lat="47.217" lon="6.01668">
        <ele>249.4</ele>
        <time>2024-08-05T11:56:29Z</time>
      </trkpt>
      <trkpt lat="47.21701" lon="6.01676">
        <ele>249.4</ele>
        <time>2024-08-05T11:56:30Z</time>
      </trkpt>
      <trkpt lat="47.21702" lon="6.01685">
        <ele>249.4</ele>
        <time>2024-08-05T11:56:31Z</time>
      </trkpt>
      <trkpt lat="47.21703" lon="6.01694">
        <ele>249.6</ele>
        <time>2024-08-05T11:56:32Z</time>
      </trkpt>
      <trkpt lat="47.21704" lon="6.01703">
        <ele>249.4</ele>
        <time>2024-08-05T11:56:33Z</time>
      </trkpt>
      <trkpt lat="47.21705" lon="6.01711">
        <ele>249.6</ele>
        <time>2024-08-05T11:56:34Z</time>
      </trkpt>
      <trkpt lat="47.21706" lon="6.0172">
        <ele>249.6</ele>
        <time>2024-08-05T11:56:35Z</time>
      </trkpt>
      <trkpt lat="47.21706" lon="6.01728">
        <ele>249.6</ele>
        <time>2024-08-05T11:56:36Z</time>
      </trkpt>
      <trkpt lat="47.21707" lon="6.01737">
        <ele>249.6</ele>
        <time>2024-08-05T11:56:37Z</time>
      </trkpt>
      <trkpt lat="47.21708" lon="6.01745">
        <ele>249.6</ele>
        <time>2024-08-05T11:56:38Z</time>
      </trkpt>
      <trkpt lat="47.21709" lon="6.01753">
        <ele>249.6</ele>
        <time>2024-08-05T11:56:39Z</time>
      </trkpt>
      <trkpt lat="47.2171" lon="6.01761">
        <ele>249.8</ele>
        <time>2024-08-05T11:56:40Z</time>
      </trkpt>
      <trkpt lat="47.21711" lon="6.01769">
        <ele>249.8</ele>
        <time>2024-08-05T11:56:41Z</time>
      </trkpt>
      <trkpt lat="47.21712" lon="6.01776">
        <ele>249.8</ele>
        <time>2024-08-05T11:56:42Z</time>
      </trkpt>
      <trkpt lat="47.21713" lon="6.01783">
        <ele>249.8</ele>
        <time>2024-08-05T11:56:43Z</time>
      </trkpt>
      <trkpt lat="47.21714" lon="6.0179">
        <ele>250</ele>
        <time>2024-08-05T11:56:44Z</time>
      </trkpt>
      <trkpt lat="47.21716" lon="6.01798">
        <ele>250</ele>
        <time>2024-08-05T11:56:45Z</time>
      </trkpt>
      <trkpt lat="47.21718" lon="6.01805">
        <ele>250</ele>
        <time>2024-08-05T11:56:46Z</time>
      </trkpt>
      <trkpt lat="47.21721" lon="6.01813">
        <ele>250</ele>
        <time>2024-08-05T11:56:47Z</time>
      </trkpt>
      <trkpt lat="47.21723" lon="6.0182">
        <ele>250</ele>
        <time>2024-08-05T11:56:48Z</time>
      </trkpt>
      <trkpt lat="47.21726" lon="6.01828">
        <ele>250</ele>
        <time>2024-08-05T11:56:49Z</time>
      </trkpt>
      <trkpt lat="47.21729" lon="6.01837">
        <ele>250</ele>
        <time>2024-08-05T11:56:50Z</time>
      </trkpt>
      <trkpt lat="47.21733" lon="6.01846">
        <ele>250</ele>
        <time>2024-08-05T11:56:51Z</time>
      </trkpt>
      <trkpt lat="47.21735" lon="6.01855">
        <ele>250.2</ele>
        <time>2024-08-05T11:56:52Z</time>
      </trkpt>
      <trkpt lat="47.21738" lon="6.01863">
        <ele>250</ele>
        <time>2024-08-05T11:56:53Z</time>
      </trkpt>
      <trkpt lat="47.2174" lon="6.01871">
        <ele>250.2</ele>
        <time>2024-08-05T11:56:54Z</time>
      </trkpt>
      <trkpt lat="47.21742" lon="6.01879">
        <ele>250.2</ele>
        <time>2024-08-05T11:56:55Z</time>
      </trkpt>
      <trkpt lat="47.21744" lon="6.01886">
        <ele>250</ele>
        <time>2024-08-05T11:56:56Z</time>
      </trkpt>
      <trkpt lat="47.21746" lon="6.01891">
        <ele>250</ele>
        <time>2024-08-05T11:56:57Z</time>
      </trkpt>
      <trkpt lat="47.21747" lon="6.01897">
        <ele>249.8</ele>
        <time>2024-08-05T11:56:58Z</time>
      </trkpt>
      <trkpt lat="47.21749" lon="6.01903">
        <ele>250</ele>
        <time>2024-08-05T11:56:59Z</time>
      </trkpt>
      <trkpt lat="47.21751" lon="6.01909">
        <ele>249.8</ele>
        <time>2024-08-05T11:57:00Z</time>
      </trkpt>
      <trkpt lat="47.21753" lon="6.01915">
        <ele>250</ele>
        <time>2024-08-05T11:57:01Z</time>
      </trkpt>
      <trkpt lat="47.21756" lon="6.01923">
        <ele>250</ele>
        <time>2024-08-05T11:57:02Z</time>
      </trkpt>
      <trkpt lat="47.21758" lon="6.0193">
        <ele>249.8</ele>
        <time>2024-08-05T11:57:03Z</time>
      </trkpt>
      <trkpt lat="47.21761" lon="6.01937">
        <ele>249.8</ele>
        <time>2024-08-05T11:57:04Z</time>
      </trkpt>
      <trkpt lat="47.21764" lon="6.01944">
        <ele>249.8</ele>
        <time>2024-08-05T11:57:05Z</time>
      </trkpt>
      <trkpt lat="47.21767" lon="6.01951">
        <ele>249.8</ele>
        <time>2024-08-05T11:57:06Z</time>
      </trkpt>
      <trkpt lat="47.2177" lon="6.01959">
        <ele>249.6</ele>
        <time>2024-08-05T11:57:07Z</time>
      </trkpt>
      <trkpt lat="47.21772" lon="6.01966">
        <ele>249.6</ele>
        <time>2024-08-05T11:57:08Z</time>
      </trkpt>
      <trkpt lat="47.21774" lon="6.01973">
        <ele>249.6</ele>
        <time>2024-08-05T11:57:09Z</time>
      </trkpt>
      <trkpt lat="47.21777" lon="6.0198">
        <ele>249.8</ele>
        <time>2024-08-05T11:57:10Z</time>
      </trkpt>
      <trkpt lat="47.2178" lon="6.01987">
        <ele>249.8</ele>
        <time>2024-08-05T11:57:11Z</time>
      </trkpt>
      <trkpt lat="47.21783" lon="6.01993">
        <ele>249.8</ele>
        <time>2024-08-05T11:57:12Z</time>
      </trkpt>
      <trkpt lat="47.21785" lon="6.02">
        <ele>249.8</ele>
        <time>2024-08-05T11:57:13Z</time>
      </trkpt>
      <trkpt lat="47.21788" lon="6.02006">
        <ele>249.8</ele>
        <time>2024-08-05T11:57:14Z</time>
      </trkpt>
      <trkpt lat="47.21791" lon="6.02012">
        <ele>250</ele>
        <time>2024-08-05T11:57:15Z</time>
      </trkpt>
      <trkpt lat="47.21795" lon="6.02019">
        <ele>250</ele>
        <time>2024-08-05T11:57:16Z</time>
      </trkpt>
      <trkpt lat="47.21798" lon="6.02026">
        <ele>249.8</ele>
        <time>2024-08-05T11:57:17Z</time>
      </trkpt>
      <trkpt lat="47.218" lon="6.02033">
        <ele>249.8</ele>
        <time>2024-08-05T11:57:18Z</time>
      </trkpt>
      <trkpt lat="47.21803" lon="6.02039">
        <ele>249.8</ele>
        <time>2024-08-05T11:57:19Z</time>
      </trkpt>
      <trkpt lat="47.21806" lon="6.02046">
        <ele>250</ele>
        <time>2024-08-05T11:57:20Z</time>
      </trkpt>
      <trkpt lat="47.21809" lon="6.02053">
        <ele>249.8</ele>
        <time>2024-08-05T11:57:21Z</time>
      </trkpt>
      <trkpt lat="47.21812" lon="6.0206">
        <ele>249.8</ele>
        <time>2024-08-05T11:57:22Z</time>
      </trkpt>
      <trkpt lat="47.21815" lon="6.02066">
        <ele>250</ele>
        <time>2024-08-05T11:57:23Z</time>
      </trkpt>
      <trkpt lat="47.21818" lon="6.02072">
        <ele>250</ele>
        <time>2024-08-05T11:57:24Z</time>
      </trkpt>
      <trkpt lat="47.21821" lon="6.02079">
        <ele>249.8</ele>
        <time>2024-08-05T11:57:25Z</time>
      </trkpt>
      <trkpt lat="47.21824" lon="6.02085">
        <ele>249.8</ele>
        <time>2024-08-05T11:57:26Z</time>
      </trkpt>
      <trkpt lat="47.21827" lon="6.02092">
        <ele>249.8</ele>
        <time>2024-08-05T11:57:27Z</time>
      </trkpt>
      <trkpt lat="47.2183" lon="6.02099">
        <ele>249.8</ele>
        <time>2024-08-05T11:57:28Z</time>
      </trkpt>
      <trkpt lat="47.21834" lon="6.02106">
        <ele>249.8</ele>
        <time>2024-08-05T11:57:29Z</time>
      </trkpt>
      <trkpt lat="47.21837" lon="6.02113">
        <ele>249.6</ele>
        <time>2024-08-05T11:57:30Z</time>
      </trkpt>
      <trkpt lat="47.2184" lon="6.0212">
        <ele>249.6</ele>
        <time>2024-08-05T11:57:31Z</time>
      </trkpt>
      <trkpt lat="47.21843" lon="6.02127">
        <ele>249.6</ele>
        <time>2024-08-05T11:57:32Z</time>
      </trkpt>
      <trkpt lat="47.21845" lon="6.02133">
        <ele>249.6</ele>
        <time>2024-08-05T11:57:33Z</time>
      </trkpt>
      <trkpt lat="47.21848" lon="6.0214">
        <ele>249.6</ele>
        <time>2024-08-05T11:57:34Z</time>
      </trkpt>
      <trkpt lat="47.21851" lon="6.02147">
        <ele>249.4</ele>
        <time>2024-08-05T11:57:35Z</time>
      </trkpt>
      <trkpt lat="47.21853" lon="6.02154">
        <ele>249.4</ele>
        <time>2024-08-05T11:57:36Z</time>
      </trkpt>
      <trkpt lat="47.21856" lon="6.0216">
        <ele>249.2</ele>
        <time>2024-08-05T11:57:37Z</time>
      </trkpt>
      <trkpt lat="47.21859" lon="6.02167">
        <ele>249.2</ele>
        <time>2024-08-05T11:57:38Z</time>
      </trkpt>
      <trkpt lat="47.21862" lon="6.02174">
        <ele>249.2</ele>
        <time>2024-08-05T11:57:39Z</time>
      </trkpt>
      <trkpt lat="47.21865" lon="6.02181">
        <ele>249.2</ele>
        <time>2024-08-05T11:57:40Z</time>
      </trkpt>
      <trkpt lat="47.21867" lon="6.02188">
        <ele>249</ele>
        <time>2024-08-05T11:57:41Z</time>
      </trkpt>
      <trkpt lat="47.21871" lon="6.02195">
        <ele>249.2</ele>
        <time>2024-08-05T11:57:42Z</time>
      </trkpt>
      <trkpt lat="47.21873" lon="6.02202">
        <ele>249</ele>
        <time>2024-08-05T11:57:43Z</time>
      </trkpt>
      <trkpt lat="47.21876" lon="6.02209">
        <ele>249.2</ele>
        <time>2024-08-05T11:57:44Z</time>
      </trkpt>
      <trkpt lat="47.21879" lon="6.02216">
        <ele>249</ele>
        <time>2024-08-05T11:57:45Z</time>
      </trkpt>
      <trkpt lat="47.21882" lon="6.02224">
        <ele>249</ele>
        <time>2024-08-05T11:57:46Z</time>
      </trkpt>
      <trkpt lat="47.21885" lon="6.02231">
        <ele>249</ele>
        <time>2024-08-05T11:57:47Z</time>
      </trkpt>
      <trkpt lat="47.21888" lon="6.02238">
        <ele>249</ele>
        <time>2024-08-05T11:57:48Z</time>
      </trkpt>
      <trkpt lat="47.21892" lon="6.02245">
        <ele>249</ele>
        <time>2024-08-05T11:57:49Z</time>
      </trkpt>
      <trkpt lat="47.21895" lon="6.02253">
        <ele>249</ele>
        <time>2024-08-05T11:57:50Z</time>
      </trkpt>
      <trkpt lat="47.21898" lon="6.0226">
        <ele>249</ele>
        <time>2024-08-05T11:57:51Z</time>
      </trkpt>
      <trkpt lat="47.21901" lon="6.02267">
        <ele>249</ele>
        <time>2024-08-05T11:57:52Z</time>
      </trkpt>
      <trkpt lat="47.21904" lon="6.02273">
        <ele>249</ele>
        <time>2024-08-05T11:57:53Z</time>
      </trkpt>
      <trkpt lat="47.21907" lon="6.0228">
        <ele>249</ele>
        <time>2024-08-05T11:57:54Z</time>
      </trkpt>
      <trkpt lat="47.2191" lon="6.02286">
        <ele>249</ele>
        <time>2024-08-05T11:57:55Z</time>
      </trkpt>
      <trkpt lat="47.21912" lon="6.02292">
        <ele>249</ele>
        <time>2024-08-05T11:57:56Z</time>
      </trkpt>
      <trkpt lat="47.21915" lon="6.02298">
        <ele>249</ele>
        <time>2024-08-05T11:57:57Z</time>
      </trkpt>
      <trkpt lat="47.21917" lon="6.02304">
        <ele>249</ele>
        <time>2024-08-05T11:57:58Z</time>
      </trkpt>
      <trkpt lat="47.21919" lon="6.02309">
        <ele>249</ele>
        <time>2024-08-05T11:57:59Z</time>
      </trkpt>
      <trkpt lat="47.21921" lon="6.02314">
        <ele>249</ele>
        <time>2024-08-05T11:58:00Z</time>
      </trkpt>
      <trkpt lat="47.21923" lon="6.0232">
        <ele>249.2</ele>
        <time>2024-08-05T11:58:01Z</time>
      </trkpt>
      <trkpt lat="47.21925" lon="6.02324">
        <ele>249.2</ele>
        <time>2024-08-05T11:58:02Z</time>
      </trkpt>
      <trkpt lat="47.21928" lon="6.02329">
        <ele>249</ele>
        <time>2024-08-05T11:58:03Z</time>
      </trkpt>
      <trkpt lat="47.2193" lon="6.02333">
        <ele>249.2</ele>
        <time>2024-08-05T11:58:04Z</time>
      </trkpt>
      <trkpt lat="47.21933" lon="6.02339">
        <ele>249.2</ele>
        <time>2024-08-05T11:58:05Z</time>
      </trkpt>
      <trkpt lat="47.21935" lon="6.02344">
        <ele>249.2</ele>
        <time>2024-08-05T11:58:06Z</time>
      </trkpt>
      <trkpt lat="47.21937" lon="6.0235">
        <ele>249.4</ele>
        <time>2024-08-05T11:58:07Z</time>
      </trkpt>
      <trkpt lat="47.21939" lon="6.02356">
        <ele>249.4</ele>
        <time>2024-08-05T11:58:08Z</time>
      </trkpt>
      <trkpt lat="47.21942" lon="6.02362">
        <ele>249.6</ele>
        <time>2024-08-05T11:58:09Z</time>
      </trkpt>
      <trkpt lat="47.21944" lon="6.02369">
        <ele>249.8</ele>
        <time>2024-08-05T11:58:10Z</time>
      </trkpt>
      <trkpt lat="47.21946" lon="6.02375">
        <ele>250</ele>
        <time>2024-08-05T11:58:11Z</time>
      </trkpt>
      <trkpt lat="47.21948" lon="6.02383">
        <ele>250</ele>
        <time>2024-08-05T11:58:12Z</time>
      </trkpt>
      <trkpt lat="47.21951" lon="6.02389">
        <ele>250</ele>
        <time>2024-08-05T11:58:13Z</time>
      </trkpt>
      <trkpt lat="47.21953" lon="6.02396">
        <ele>250.2</ele>
        <time>2024-08-05T11:58:14Z</time>
      </trkpt>
      <trkpt lat="47.21955" lon="6.02404">
        <ele>250.2</ele>
        <time>2024-08-05T11:58:15Z</time>
      </trkpt>
      <trkpt lat="47.21958" lon="6.02412">
        <ele>250.2</ele>
        <time>2024-08-05T11:58:16Z</time>
      </trkpt>
      <trkpt lat="47.2196" lon="6.02419">
        <ele>250.2</ele>
        <time>2024-08-05T11:58:17Z</time>
      </trkpt>
      <trkpt lat="47.21962" lon="6.02427">
        <ele>250.2</ele>
        <time>2024-08-05T11:58:18Z</time>
      </trkpt>
      <trkpt lat="47.21963" lon="6.02435">
        <ele>250.2</ele>
        <time>2024-08-05T11:58:19Z</time>
      </trkpt>
      <trkpt lat="47.21964" lon="6.02444">
        <ele>250.2</ele>
        <time>2024-08-05T11:58:20Z</time>
      </trkpt>
      <trkpt lat="47.21965" lon="6.02452">
        <ele>250</ele>
        <time>2024-08-05T11:58:21Z</time>
      </trkpt>
      <trkpt lat="47.21966" lon="6.02461">
        <ele>250.2</ele>
        <time>2024-08-05T11:58:22Z</time>
      </trkpt>
      <trkpt lat="47.21968" lon="6.0247">
        <ele>250.2</ele>
        <time>2024-08-05T11:58:23Z</time>
      </trkpt>
      <trkpt lat="47.21969" lon="6.02479">
        <ele>250.2</ele>
        <time>2024-08-05T11:58:24Z</time>
      </trkpt>
      <trkpt lat="47.2197" lon="6.02487">
        <ele>250</ele>
        <time>2024-08-05T11:58:25Z</time>
      </trkpt>
      <trkpt lat="47.2197" lon="6.02495">
        <ele>250</ele>
        <time>2024-08-05T11:58:26Z</time>
      </trkpt>
      <trkpt lat="47.21971" lon="6.02504">
        <ele>250.2</ele>
        <time>2024-08-05T11:58:27Z</time>
      </trkpt>
      <trkpt lat="47.21972" lon="6.02512">
        <ele>250.2</ele>
        <time>2024-08-05T11:58:28Z</time>
      </trkpt>
      <trkpt lat="47.21972" lon="6.02521">
        <ele>250.2</ele>
        <time>2024-08-05T11:58:29Z</time>
      </trkpt>
      <trkpt lat="47.21973" lon="6.02529">
        <ele>250.2</ele>
        <time>2024-08-05T11:58:30Z</time>
      </trkpt>
      <trkpt lat="47.21974" lon="6.02538">
        <ele>250</ele>
        <time>2024-08-05T11:58:31Z</time>
      </trkpt>
      <trkpt lat="47.21975" lon="6.02546">
        <ele>250.2</ele>
        <time>2024-08-05T11:58:32Z</time>
      </trkpt>
      <trkpt lat="47.21976" lon="6.02554">
        <ele>250.2</ele>
        <time>2024-08-05T11:58:33Z</time>
      </trkpt>
      <trkpt lat="47.21976" lon="6.02562">
        <ele>250.2</ele>
        <time>2024-08-05T11:58:34Z</time>
      </trkpt>
      <trkpt lat="47.21978" lon="6.0257">
        <ele>250.2</ele>
        <time>2024-08-05T11:58:35Z</time>
      </trkpt>
      <trkpt lat="47.21979" lon="6.02579">
        <ele>250.2</ele>
        <time>2024-08-05T11:58:36Z</time>
      </trkpt>
      <trkpt lat="47.21981" lon="6.02587">
        <ele>250.2</ele>
        <time>2024-08-05T11:58:37Z</time>
      </trkpt>
      <trkpt lat="47.21982" lon="6.02595">
        <ele>250.2</ele>
        <time>2024-08-05T11:58:38Z</time>
      </trkpt>
      <trkpt lat="47.21983" lon="6.02603">
        <ele>250.2</ele>
        <time>2024-08-05T11:58:39Z</time>
      </trkpt>
      <trkpt lat="47.21984" lon="6.02611">
        <ele>250.2</ele>
        <time>2024-08-05T11:58:40Z</time>
      </trkpt>
      <trkpt lat="47.21985" lon="6.02619">
        <ele>250.4</ele>
        <time>2024-08-05T11:58:41Z</time>
      </trkpt>
      <trkpt lat="47.21986" lon="6.02627">
        <ele>250.4</ele>
        <time>2024-08-05T11:58:42Z</time>
      </trkpt>
      <trkpt lat="47.21987" lon="6.02635">
        <ele>250.2</ele>
        <time>2024-08-05T11:58:43Z</time>
      </trkpt>
      <trkpt lat="47.21989" lon="6.02643">
        <ele>250.2</ele>
        <time>2024-08-05T11:58:44Z</time>
      </trkpt>
      <trkpt lat="47.2199" lon="6.02651">
        <ele>250.4</ele>
        <time>2024-08-05T11:58:45Z</time>
      </trkpt>
      <trkpt lat="47.21992" lon="6.0266">
        <ele>250.2</ele>
        <time>2024-08-05T11:58:46Z</time>
      </trkpt>
      <trkpt lat="47.21993" lon="6.02669">
        <ele>250.2</ele>
        <time>2024-08-05T11:58:47Z</time>
      </trkpt>
      <trkpt lat="47.21995" lon="6.02677">
        <ele>250.2</ele>
        <time>2024-08-05T11:58:48Z</time>
      </trkpt>
      <trkpt lat="47.21996" lon="6.02685">
        <ele>250.2</ele>
        <time>2024-08-05T11:58:49Z</time>
      </trkpt>
      <trkpt lat="47.21997" lon="6.02694">
        <ele>250.4</ele>
        <time>2024-08-05T11:58:50Z</time>
      </trkpt>
      <trkpt lat="47.21999" lon="6.02701">
        <ele>250.2</ele>
        <time>2024-08-05T11:58:51Z</time>
      </trkpt>
      <trkpt lat="47.22" lon="6.02709">
        <ele>250.2</ele>
        <time>2024-08-05T11:58:52Z</time>
      </trkpt>
      <trkpt lat="47.22001" lon="6.02717">
        <ele>250.4</ele>
        <time>2024-08-05T11:58:53Z</time>
      </trkpt>
      <trkpt lat="47.22002" lon="6.02724">
        <ele>250.2</ele>
        <time>2024-08-05T11:58:54Z</time>
      </trkpt>
      <trkpt lat="47.22004" lon="6.02731">
        <ele>250.4</ele>
        <time>2024-08-05T11:58:55Z</time>
      </trkpt>
      <trkpt lat="47.22006" lon="6.02738">
        <ele>250.4</ele>
        <time>2024-08-05T11:58:56Z</time>
      </trkpt>
      <trkpt lat="47.22007" lon="6.02746">
        <ele>250.4</ele>
        <time>2024-08-05T11:58:57Z</time>
      </trkpt>
      <trkpt lat="47.22009" lon="6.02753">
        <ele>250.4</ele>
        <time>2024-08-05T11:58:58Z</time>
      </trkpt>
      <trkpt lat="47.2201" lon="6.0276">
        <ele>250.4</ele>
        <time>2024-08-05T11:58:59Z</time>
      </trkpt>
      <trkpt lat="47.22012" lon="6.02768">
        <ele>250.6</ele>
        <time>2024-08-05T11:59:00Z</time>
      </trkpt>
      <trkpt lat="47.22013" lon="6.02775">
        <ele>250.6</ele>
        <time>2024-08-05T11:59:01Z</time>
      </trkpt>
      <trkpt lat="47.22015" lon="6.02782">
        <ele>250.6</ele>
        <time>2024-08-05T11:59:02Z</time>
      </trkpt>
      <trkpt lat="47.22017" lon="6.0279">
        <ele>250.8</ele>
        <time>2024-08-05T11:59:03Z</time>
      </trkpt>
      <trkpt lat="47.22019" lon="6.02797">
        <ele>250.8</ele>
        <time>2024-08-05T11:59:04Z</time>
      </trkpt>
      <trkpt lat="47.2202" lon="6.02804">
        <ele>251</ele>
        <time>2024-08-05T11:59:05Z</time>
      </trkpt>
      <trkpt lat="47.22023" lon="6.02811">
        <ele>251</ele>
        <time>2024-08-05T11:59:06Z</time>
      </trkpt>
      <trkpt lat="47.22025" lon="6.02817">
        <ele>251</ele>
        <time>2024-08-05T11:59:07Z</time>
      </trkpt>
      <trkpt lat="47.22028" lon="6.02824">
        <ele>251</ele>
        <time>2024-08-05T11:59:08Z</time>
      </trkpt>
      <trkpt lat="47.22031" lon="6.0283">
        <ele>251.2</ele>
        <time>2024-08-05T11:59:09Z</time>
      </trkpt>
      <trkpt lat="47.22034" lon="6.02837">
        <ele>251.4</ele>
        <time>2024-08-05T11:59:10Z</time>
      </trkpt>
      <trkpt lat="47.22038" lon="6.02843">
        <ele>251.4</ele>
        <time>2024-08-05T11:59:11Z</time>
      </trkpt>
      <trkpt lat="47.22041" lon="6.02849">
        <ele>251.4</ele>
        <time>2024-08-05T11:59:12Z</time>
      </trkpt>
      <trkpt lat="47.22045" lon="6.02855">
        <ele>251.4</ele>
        <time>2024-08-05T11:59:13Z</time>
      </trkpt>
      <trkpt lat="47.22048" lon="6.02861">
        <ele>251.6</ele>
        <time>2024-08-05T11:59:14Z</time>
      </trkpt>
      <trkpt lat="47.22052" lon="6.02867">
        <ele>251.6</ele>
        <time>2024-08-05T11:59:15Z</time>
      </trkpt>
      <trkpt lat="47.22056" lon="6.02872">
        <ele>251.4</ele>
        <time>2024-08-05T11:59:16Z</time>
      </trkpt>
      <trkpt lat="47.2206" lon="6.02878">
        <ele>251.6</ele>
        <time>2024-08-05T11:59:17Z</time>
      </trkpt>
      <trkpt lat="47.22063" lon="6.02884">
        <ele>251.6</ele>
        <time>2024-08-05T11:59:18Z</time>
      </trkpt>
      <trkpt lat="47.22067" lon="6.0289">
        <ele>251.6</ele>
        <time>2024-08-05T11:59:19Z</time>
      </trkpt>
      <trkpt lat="47.2207" lon="6.02897">
        <ele>251.6</ele>
        <time>2024-08-05T11:59:20Z</time>
      </trkpt>
      <trkpt lat="47.22073" lon="6.02903">
        <ele>251.8</ele>
        <time>2024-08-05T11:59:21Z</time>
      </trkpt>
      <trkpt lat="47.22076" lon="6.02909">
        <ele>251.6</ele>
        <time>2024-08-05T11:59:22Z</time>
      </trkpt>
      <trkpt lat="47.2208" lon="6.02914">
        <ele>251.6</ele>
        <time>2024-08-05T11:59:23Z</time>
      </trkpt>
      <trkpt lat="47.22083" lon="6.0292">
        <ele>251.6</ele>
        <time>2024-08-05T11:59:24Z</time>
      </trkpt>
      <trkpt lat="47.22087" lon="6.02925">
        <ele>251.8</ele>
        <time>2024-08-05T11:59:25Z</time>
      </trkpt>
      <trkpt lat="47.22091" lon="6.02931">
        <ele>251.8</ele>
        <time>2024-08-05T11:59:26Z</time>
      </trkpt>
      <trkpt lat="47.22095" lon="6.02936">
        <ele>251.8</ele>
        <time>2024-08-05T11:59:27Z</time>
      </trkpt>
      <trkpt lat="47.22099" lon="6.02942">
        <ele>251.8</ele>
        <time>2024-08-05T11:59:28Z</time>
      </trkpt>
      <trkpt lat="47.22103" lon="6.02947">
        <ele>251.8</ele>
        <time>2024-08-05T11:59:29Z</time>
      </trkpt>
      <trkpt lat="47.22107" lon="6.02953">
        <ele>251.8</ele>
        <time>2024-08-05T11:59:30Z</time>
      </trkpt>
      <trkpt lat="47.22111" lon="6.02959">
        <ele>251.8</ele>
        <time>2024-08-05T11:59:31Z</time>
      </trkpt>
      <trkpt lat="47.22116" lon="6.02964">
        <ele>251.8</ele>
        <time>2024-08-05T11:59:32Z</time>
      </trkpt>
      <trkpt lat="47.2212" lon="6.02969">
        <ele>251.8</ele>
        <time>2024-08-05T11:59:33Z</time>
      </trkpt>
      <trkpt lat="47.22125" lon="6.02974">
        <ele>251.8</ele>
        <time>2024-08-05T11:59:34Z</time>
      </trkpt>
      <trkpt lat="47.22129" lon="6.02979">
        <ele>251.8</ele>
        <time>2024-08-05T11:59:35Z</time>
      </trkpt>
      <trkpt lat="47.22134" lon="6.02984">
        <ele>251.8</ele>
        <time>2024-08-05T11:59:36Z</time>
      </trkpt>
      <trkpt lat="47.22139" lon="6.02988">
        <ele>251.8</ele>
        <time>2024-08-05T11:59:37Z</time>
      </trkpt>
      <trkpt lat="47.22144" lon="6.02992">
        <ele>251.8</ele>
        <time>2024-08-05T11:59:38Z</time>
      </trkpt>
      <trkpt lat="47.22148" lon="6.02996">
        <ele>252</ele>
        <time>2024-08-05T11:59:39Z</time>
      </trkpt>
      <trkpt lat="47.22152" lon="6.03001">
        <ele>251.8</ele>
        <time>2024-08-05T11:59:40Z</time>
      </trkpt>
      <trkpt lat="47.22157" lon="6.03005">
        <ele>251.8</ele>
        <time>2024-08-05T11:59:41Z</time>
      </trkpt>
      <trkpt lat="47.22162" lon="6.03008">
        <ele>251.8</ele>
        <time>2024-08-05T11:59:42Z</time>
      </trkpt>
      <trkpt lat="47.22167" lon="6.03012">
        <ele>251.8</ele>
        <time>2024-08-05T11:59:43Z</time>
      </trkpt>
      <trkpt lat="47.22172" lon="6.03016">
        <ele>251.8</ele>
        <time>2024-08-05T11:59:44Z</time>
      </trkpt>
      <trkpt lat="47.22177" lon="6.03019">
        <ele>252</ele>
        <time>2024-08-05T11:59:45Z</time>
      </trkpt>
      <trkpt lat="47.22181" lon="6.03023">
        <ele>251.8</ele>
        <time>2024-08-05T11:59:46Z</time>
      </trkpt>
      <trkpt lat="47.22185" lon="6.03026">
        <ele>252</ele>
        <time>2024-08-05T11:59:47Z</time>
      </trkpt>
      <trkpt lat="47.2219" lon="6.03029">
        <ele>252</ele>
        <time>2024-08-05T11:59:48Z</time>
      </trkpt>
      <trkpt lat="47.22194" lon="6.03032">
        <ele>251.8</ele>
        <time>2024-08-05T11:59:49Z</time>
      </trkpt>
      <trkpt lat="47.22199" lon="6.03034">
        <ele>252</ele>
        <time>2024-08-05T11:59:50Z</time>
      </trkpt>
      <trkpt lat="47.22204" lon="6.03036">
        <ele>252</ele>
        <time>2024-08-05T11:59:51Z</time>
      </trkpt>
      <trkpt lat="47.22209" lon="6.03039">
        <ele>252</ele>
        <time>2024-08-05T11:59:52Z</time>
      </trkpt>
      <trkpt lat="47.22215" lon="6.03042">
        <ele>252</ele>
        <time>2024-08-05T11:59:53Z</time>
      </trkpt>
      <trkpt lat="47.2222" lon="6.03044">
        <ele>252.2</ele>
        <time>2024-08-05T11:59:54Z</time>
      </trkpt>
      <trkpt lat="47.22226" lon="6.03048">
        <ele>252</ele>
        <time>2024-08-05T11:59:55Z</time>
      </trkpt>
      <trkpt lat="47.22231" lon="6.03051">
        <ele>252.2</ele>
        <time>2024-08-05T11:59:56Z</time>
      </trkpt>
      <trkpt lat="47.22237" lon="6.03054">
        <ele>252</ele>
        <time>2024-08-05T11:59:57Z</time>
      </trkpt>
      <trkpt lat="47.22242" lon="6.03057">
        <ele>252.2</ele>
        <time>2024-08-05T11:59:58Z</time>
      </trkpt>
      <trkpt lat="47.22248" lon="6.03061">
        <ele>252.2</ele>
        <time>2024-08-05T11:59:59Z</time>
      </trkpt>
      <trkpt lat="47.22254" lon="6.03064">
        <ele>252</ele>
        <time>2024-08-05T12:00:00Z</time>
      </trkpt>
      <trkpt lat="47.22259" lon="6.03067">
        <ele>252.2</ele>
        <time>2024-08-05T12:00:01Z</time>
      </trkpt>
      <trkpt lat="47.22265" lon="6.0307">
        <ele>252.2</ele>
        <time>2024-08-05T12:00:02Z</time>
      </trkpt>
      <trkpt lat="47.22271" lon="6.03073">
        <ele>252.2</ele>
        <time>2024-08-05T12:00:03Z</time>
      </trkpt>
      <trkpt lat="47.22276" lon="6.03076">
        <ele>252.2</ele>
        <time>2024-08-05T12:00:04Z</time>
      </trkpt>
      <trkpt lat="47.22282" lon="6.03079">
        <ele>252.2</ele>
        <time>2024-08-05T12:00:05Z</time>
      </trkpt>
      <trkpt lat="47.22288" lon="6.03082">
        <ele>252.2</ele>
        <time>2024-08-05T12:00:06Z</time>
      </trkpt>
      <trkpt lat="47.22294" lon="6.03085">
        <ele>252.2</ele>
        <time>2024-08-05T12:00:07Z</time>
      </trkpt>
      <trkpt lat="47.22299" lon="6.03087">
        <ele>252.2</ele>
        <time>2024-08-05T12:00:08Z</time>
      </trkpt>
      <trkpt lat="47.22304" lon="6.0309">
        <ele>252.2</ele>
        <time>2024-08-05T12:00:09Z</time>
      </trkpt>
      <trkpt lat="47.2231" lon="6.03093">
        <ele>252.2</ele>
        <time>2024-08-05T12:00:10Z</time>
      </trkpt>
      <trkpt lat="47.22315" lon="6.03095">
        <ele>252.2</ele>
        <time>2024-08-05T12:00:11Z</time>
      </trkpt>
      <trkpt lat="47.2232" lon="6.03099">
        <ele>252.2</ele>
        <time>2024-08-05T12:00:12Z</time>
      </trkpt>
      <trkpt lat="47.22325" lon="6.03102">
        <ele>252.2</ele>
        <time>2024-08-05T12:00:13Z</time>
      </trkpt>
      <trkpt lat="47.2233" lon="6.03105">
        <ele>252.2</ele>
        <time>2024-08-05T12:00:14Z</time>
      </trkpt>
      <trkpt lat="47.22335" lon="6.03107">
        <ele>252</ele>
        <time>2024-08-05T12:00:15Z</time>
      </trkpt>
      <trkpt lat="47.22341" lon="6.0311">
        <ele>252.2</ele>
        <time>2024-08-05T12:00:16Z</time>
      </trkpt>
      <trkpt lat="47.22346" lon="6.03112">
        <ele>252.2</ele>
        <time>2024-08-05T12:00:17Z</time>
      </trkpt>
      <trkpt lat="47.22351" lon="6.03115">
        <ele>252.2</ele>
        <time>2024-08-05T12:00:18Z</time>
      </trkpt>
      <trkpt lat="47.22356" lon="6.03118">
        <ele>252.2</ele>
        <time>2024-08-05T12:00:19Z</time>
      </trkpt>
      <trkpt lat="47.22362" lon="6.03121">
        <ele>252.2</ele>
        <time>2024-08-05T12:00:20Z</time>
      </trkpt>
      <trkpt lat="47.22367" lon="6.03123">
        <ele>252.2</ele>
        <time>2024-08-05T12:00:21Z</time>
      </trkpt>
      <trkpt lat="47.22373" lon="6.03125">
        <ele>252.2</ele>
        <time>2024-08-05T12:00:22Z</time>
      </trkpt>
      <trkpt lat="47.22378" lon="6.03128">
        <ele>252.2</ele>
        <time>2024-08-05T12:00:23Z</time>
      </trkpt>
      <trkpt lat="47.22383" lon="6.0313">
        <ele>252.2</ele>
        <time>2024-08-05T12:00:24Z</time>
      </trkpt>
      <trkpt lat="47.22388" lon="6.03133">
        <ele>252.2</ele>
        <time>2024-08-05T12:00:25Z</time>
      </trkpt>
      <trkpt lat="47.22394" lon="6.03136">
        <ele>252.2</ele>
        <time>2024-08-05T12:00:26Z</time>
      </trkpt>
      <trkpt lat="47.22399" lon="6.03139">
        <ele>252.2</ele>
        <time>2024-08-05T12:00:27Z</time>
      </trkpt>
      <trkpt lat="47.22405" lon="6.03143">
        <ele>252.2</ele>
        <time>2024-08-05T12:00:28Z</time>
      </trkpt>
      <trkpt lat="47.22412" lon="6.03148">
        <ele>252</ele>
        <time>2024-08-05T12:00:29Z</time>
      </trkpt>
      <trkpt lat="47.22417" lon="6.03152">
        <ele>252.2</ele>
        <time>2024-08-05T12:00:30Z</time>
      </trkpt>
      <trkpt lat="47.22422" lon="6.03156">
        <ele>252.2</ele>
        <time>2024-08-05T12:00:31Z</time>
      </trkpt>
      <trkpt lat="47.22427" lon="6.03159">
        <ele>252</ele>
        <time>2024-08-05T12:00:32Z</time>
      </trkpt>
      <trkpt lat="47.22432" lon="6.03162">
        <ele>252.2</ele>
        <time>2024-08-05T12:00:33Z</time>
      </trkpt>
      <trkpt lat="47.22437" lon="6.03164">
        <ele>252.2</ele>
        <time>2024-08-05T12:00:34Z</time>
      </trkpt>
      <trkpt lat="47.22441" lon="6.03166">
        <ele>252.2</ele>
        <time>2024-08-05T12:00:35Z</time>
      </trkpt>
      <trkpt lat="47.22446" lon="6.03169">
        <ele>252</ele>
        <time>2024-08-05T12:00:36Z</time>
      </trkpt>
      <trkpt lat="47.2245" lon="6.03171">
        <ele>252</ele>
        <time>2024-08-05T12:00:37Z</time>
      </trkpt>
      <trkpt lat="47.22455" lon="6.03173">
        <ele>252.2</ele>
        <time>2024-08-05T12:00:38Z</time>
      </trkpt>
      <trkpt lat="47.22459" lon="6.03176">
        <ele>252</ele>
        <time>2024-08-05T12:00:39Z</time>
      </trkpt>
      <trkpt lat="47.22464" lon="6.03177">
        <ele>252.2</ele>
        <time>2024-08-05T12:00:40Z</time>
      </trkpt>
      <trkpt lat="47.22468" lon="6.03179">
        <ele>252</ele>
        <time>2024-08-05T12:00:41Z</time>
      </trkpt>
      <trkpt lat="47.22473" lon="6.0318">
        <ele>252</ele>
        <time>2024-08-05T12:00:42Z</time>
      </trkpt>
      <trkpt lat="47.22478" lon="6.03182">
        <ele>252</ele>
        <time>2024-08-05T12:00:43Z</time>
      </trkpt>
      <trkpt lat="47.22483" lon="6.03184">
        <ele>252.2</ele>
        <time>2024-08-05T12:00:44Z</time>
      </trkpt>
      <trkpt lat="47.22489" lon="6.03186">
        <ele>252</ele>
        <time>2024-08-05T12:00:45Z</time>
      </trkpt>
      <trkpt lat="47.22493" lon="6.03188">
        <ele>252.2</ele>
        <time>2024-08-05T12:00:46Z</time>
      </trkpt>
      <trkpt lat="47.22498" lon="6.03189">
        <ele>252</ele>
        <time>2024-08-05T12:00:47Z</time>
      </trkpt>
      <trkpt lat="47.22503" lon="6.0319">
        <ele>252</ele>
        <time>2024-08-05T12:00:48Z</time>
      </trkpt>
      <trkpt lat="47.22508" lon="6.03192">
        <ele>252.2</ele>
        <time>2024-08-05T12:00:49Z</time>
      </trkpt>
      <trkpt lat="47.22513" lon="6.03194">
        <ele>252.2</ele>
        <time>2024-08-05T12:00:50Z</time>
      </trkpt>
      <trkpt lat="47.22517" lon="6.03196">
        <ele>252</ele>
        <time>2024-08-05T12:00:51Z</time>
      </trkpt>
      <trkpt lat="47.22522" lon="6.03198">
        <ele>252.2</ele>
        <time>2024-08-05T12:00:52Z</time>
      </trkpt>
      <trkpt lat="47.22526" lon="6.03202">
        <ele>252.2</ele>
        <time>2024-08-05T12:00:53Z</time>
      </trkpt>
      <trkpt lat="47.2253" lon="6.03205">
        <ele>252.2</ele>
        <time>2024-08-05T12:00:54Z</time>
      </trkpt>
      <trkpt lat="47.22535" lon="6.0321">
        <ele>252.2</ele>
        <time>2024-08-05T12:00:55Z</time>
      </trkpt>
      <trkpt lat="47.22539" lon="6.03214">
        <ele>252</ele>
        <time>2024-08-05T12:00:56Z</time>
      </trkpt>
      <trkpt lat="47.22543" lon="6.03219">
        <ele>252.2</ele>
        <time>2024-08-05T12:00:57Z</time>
      </trkpt>
      <trkpt lat="47.22547" lon="6.03223">
        <ele>252</ele>
        <time>2024-08-05T12:00:58Z</time>
      </trkpt>
      <trkpt lat="47.22552" lon="6.03228">
        <ele>252.2</ele>
        <time>2024-08-05T12:00:59Z</time>
      </trkpt>
      <trkpt lat="47.22556" lon="6.03233">
        <ele>252</ele>
        <time>2024-08-05T12:01:00Z</time>
      </trkpt>
      <trkpt lat="47.22561" lon="6.03237">
        <ele>252</ele>
        <time>2024-08-05T12:01:01Z</time>
      </trkpt>
      <trkpt lat="47.22564" lon="6.03243">
        <ele>252</ele>
        <time>2024-08-05T12:01:02Z</time>
      </trkpt>
      <trkpt lat="47.22569" lon="6.03247">
        <ele>251.8</ele>
        <time>2024-08-05T12:01:03Z</time>
      </trkpt>
      <trkpt lat="47.22573" lon="6.03251">
        <ele>251.4</ele>
        <time>2024-08-05T12:01:04Z</time>
      </trkpt>
      <trkpt lat="47.22579" lon="6.03254">
        <ele>251.4</ele>
        <time>2024-08-05T12:01:05Z</time>
      </trkpt>
      <trkpt lat="47.22584" lon="6.03257">
        <ele>251.4</ele>
        <time>2024-08-05T12:01:06Z</time>
      </trkpt>
      <trkpt lat="47.22588" lon="6.03259">
        <ele>251.4</ele>
        <time>2024-08-05T12:01:07Z</time>
      </trkpt>
      <trkpt lat="47.22593" lon="6.03261">
        <ele>251.4</ele>
        <time>2024-08-05T12:01:08Z</time>
      </trkpt>
      <trkpt lat="47.22598" lon="6.03262">
        <ele>251.4</ele>
        <time>2024-08-05T12:01:09Z</time>
      </trkpt>
      <trkpt lat="47.22603" lon="6.03262">
        <ele>251.2</ele>
        <time>2024-08-05T12:01:10Z</time>
      </trkpt>
      <trkpt lat="47.22609" lon="6.03262">
        <ele>251.2</ele>
        <time>2024-08-05T12:01:11Z</time>
      </trkpt>
      <trkpt lat="47.22614" lon="6.03262">
        <ele>251.4</ele>
        <time>2024-08-05T12:01:12Z</time>
      </trkpt>
      <trkpt lat="47.2262" lon="6.03262">
        <ele>251.4</ele>
        <time>2024-08-05T12:01:13Z</time>
      </trkpt>
      <trkpt lat="47.22626" lon="6.03261">
        <ele>251.4</ele>
        <time>2024-08-05T12:01:14Z</time>
      </trkpt>
      <trkpt lat="47.22632" lon="6.0326">
        <ele>251.4</ele>
        <time>2024-08-05T12:01:15Z</time>
      </trkpt>
      <trkpt lat="47.22638" lon="6.03259">
        <ele>251.4</ele>
        <time>2024-08-05T12:01:16Z</time>
      </trkpt>
      <trkpt lat="47.22644" lon="6.0326">
        <ele>251.2</ele>
        <time>2024-08-05T12:01:17Z</time>
      </trkpt>
      <trkpt lat="47.2265" lon="6.0326">
        <ele>251.2</ele>
        <time>2024-08-05T12:01:18Z</time>
      </trkpt>
      <trkpt lat="47.22656" lon="6.03261">
        <ele>251.4</ele>
        <time>2024-08-05T12:01:19Z</time>
      </trkpt>
      <trkpt lat="47.22662" lon="6.03261">
        <ele>251.4</ele>
        <time>2024-08-05T12:01:20Z</time>
      </trkpt>
      <trkpt lat="47.22667" lon="6.0326">
        <ele>251.4</ele>
        <time>2024-08-05T12:01:21Z</time>
      </trkpt>
      <trkpt lat="47.22672" lon="6.03259">
        <ele>251.4</ele>
        <time>2024-08-05T12:01:22Z</time>
      </trkpt>
      <trkpt lat="47.22676" lon="6.03259">
        <ele>251.6</ele>
        <time>2024-08-05T12:01:23Z</time>
      </trkpt>
      <trkpt lat="47.22681" lon="6.03257">
        <ele>251.6</ele>
        <time>2024-08-05T12:01:24Z</time>
      </trkpt>
      <trkpt lat="47.22687" lon="6.03256">
        <ele>251.4</ele>
        <time>2024-08-05T12:01:25Z</time>
      </trkpt>
      <trkpt lat="47.22692" lon="6.03254">
        <ele>251.6</ele>
        <time>2024-08-05T12:01:26Z</time>
      </trkpt>
      <trkpt lat="47.22697" lon="6.03252">
        <ele>251.6</ele>
        <time>2024-08-05T12:01:27Z</time>
      </trkpt>
      <trkpt lat="47.22702" lon="6.0325">
        <ele>251.6</ele>
        <time>2024-08-05T12:01:28Z</time>
      </trkpt>
      <trkpt lat="47.22708" lon="6.03249">
        <ele>251.6</ele>
        <time>2024-08-05T12:01:29Z</time>
      </trkpt>
      <trkpt lat="47.22713" lon="6.03248">
        <ele>251.8</ele>
        <time>2024-08-05T12:01:30Z</time>
      </trkpt>
      <trkpt lat="47.22718" lon="6.03246">
        <ele>251.8</ele>
        <time>2024-08-05T12:01:31Z</time>
      </trkpt>
      <trkpt lat="47.22722" lon="6.03245">
        <ele>251.8</ele>
        <time>2024-08-05T12:01:32Z</time>
      </trkpt>
      <trkpt lat="47.22727" lon="6.03243">
        <ele>252</ele>
        <time>2024-08-05T12:01:33Z</time>
      </trkpt>
      <trkpt lat="47.22732" lon="6.03241">
        <ele>252</ele>
        <time>2024-08-05T12:01:34Z</time>
      </trkpt>
      <trkpt lat="47.22737" lon="6.0324">
        <ele>252</ele>
        <time>2024-08-05T12:01:35Z</time>
      </trkpt>
      <trkpt lat="47.22742" lon="6.03238">
        <ele>252</ele>
        <time>2024-08-05T12:01:36Z</time>
      </trkpt>
      <trkpt lat="47.22747" lon="6.03237">
        <ele>252</ele>
        <time>2024-08-05T12:01:37Z</time>
      </trkpt>
      <trkpt lat="47.22752" lon="6.03234">
        <ele>252.2</ele>
        <time>2024-08-05T12:01:38Z</time>
      </trkpt>
      <trkpt lat="47.22756" lon="6.03231">
        <ele>252.4</ele>
        <time>2024-08-05T12:01:39Z</time>
      </trkpt>
      <trkpt lat="47.22761" lon="6.03227">
        <ele>252.2</ele>
        <time>2024-08-05T12:01:40Z</time>
      </trkpt>
      <trkpt lat="47.22765" lon="6.03223">
        <ele>252.4</ele>
        <time>2024-08-05T12:01:41Z</time>
      </trkpt>
      <trkpt lat="47.2277" lon="6.03219">
        <ele>252.4</ele>
        <time>2024-08-05T12:01:42Z</time>
      </trkpt>
      <trkpt lat="47.22775" lon="6.03216">
        <ele>252.6</ele>
        <time>2024-08-05T12:01:43Z</time>
      </trkpt>
      <trkpt lat="47.22781" lon="6.03213">
        <ele>252.4</ele>
        <time>2024-08-05T12:01:44Z</time>
      </trkpt>
      <trkpt lat="47.22786" lon="6.03209">
        <ele>252.6</ele>
        <time>2024-08-05T12:01:45Z</time>
      </trkpt>
      <trkpt lat="47.22791" lon="6.03206">
        <ele>252.6</ele>
        <time>2024-08-05T12:01:46Z</time>
      </trkpt>
      <trkpt lat="47.22796" lon="6.03202">
        <ele>252.4</ele>
        <time>2024-08-05T12:01:47Z</time>
      </trkpt>
      <trkpt lat="47.22801" lon="6.03198">
        <ele>252.6</ele>
        <time>2024-08-05T12:01:48Z</time>
      </trkpt>
      <trkpt lat="47.22806" lon="6.03193">
        <ele>252.6</ele>
        <time>2024-08-05T12:01:49Z</time>
      </trkpt>
      <trkpt lat="47.22812" lon="6.03189">
        <ele>252.6</ele>
        <time>2024-08-05T12:01:50Z</time>
      </trkpt>
      <trkpt lat="47.22816" lon="6.03183">
        <ele>252.6</ele>
        <time>2024-08-05T12:01:51Z</time>
      </trkpt>
      <trkpt lat="47.2282" lon="6.03176">
        <ele>252.6</ele>
        <time>2024-08-05T12:01:52Z</time>
      </trkpt>
      <trkpt lat="47.22824" lon="6.03169">
        <ele>252.6</ele>
        <time>2024-08-05T12:01:53Z</time>
      </trkpt>
      <trkpt lat="47.22828" lon="6.03162">
        <ele>252.6</ele>
        <time>2024-08-05T12:01:54Z</time>
      </trkpt>
      <trkpt lat="47.22831" lon="6.03156">
        <ele>252.4</ele>
        <time>2024-08-05T12:01:55Z</time>
      </trkpt>
      <trkpt lat="47.22835" lon="6.03149">
        <ele>252.4</ele>
        <time>2024-08-05T12:01:56Z</time>
      </trkpt>
      <trkpt lat="47.22838" lon="6.03143">
        <ele>252.4</ele>
        <time>2024-08-05T12:01:57Z</time>
      </trkpt>
      <trkpt lat="47.22841" lon="6.03137">
        <ele>252.4</ele>
        <time>2024-08-05T12:01:58Z</time>
      </trkpt>
      <trkpt lat="47.22844" lon="6.03131">
        <ele>252.6</ele>
        <time>2024-08-05T12:01:59Z</time>
      </trkpt>
      <trkpt lat="47.22847" lon="6.03126">
        <ele>252.6</ele>
        <time>2024-08-05T12:02:00Z</time>
      </trkpt>
      <trkpt lat="47.22851" lon="6.0312">
        <ele>252.4</ele>
        <time>2024-08-05T12:02:01Z</time>
      </trkpt>
      <trkpt lat="47.22855" lon="6.03114">
        <ele>252.4</ele>
        <time>2024-08-05T12:02:02Z</time>
      </trkpt>
      <trkpt lat="47.22859" lon="6.03109">
        <ele>252.4</ele>
        <time>2024-08-05T12:02:03Z</time>
      </trkpt>
      <trkpt lat="47.22863" lon="6.03104">
        <ele>252.6</ele>
        <time>2024-08-05T12:02:04Z</time>
      </trkpt>
      <trkpt lat="47.22867" lon="6.03098">
        <ele>252.6</ele>
        <time>2024-08-05T12:02:05Z</time>
      </trkpt>
      <trkpt lat="47.2287" lon="6.03092">
        <ele>252.6</ele>
        <time>2024-08-05T12:02:06Z</time>
      </trkpt>
      <trkpt lat="47.22874" lon="6.03086">
        <ele>252.4</ele>
        <time>2024-08-05T12:02:07Z</time>
      </trkpt>
      <trkpt lat="47.22877" lon="6.03081">
        <ele>252.4</ele>
        <time>2024-08-05T12:02:08Z</time>
      </trkpt>
      <trkpt lat="47.22879" lon="6.03076">
        <ele>252.6</ele>
        <time>2024-08-05T12:02:09Z</time>
      </trkpt>
      <trkpt lat="47.22882" lon="6.03072">
        <ele>252.4</ele>
        <time>2024-08-05T12:02:10Z</time>
      </trkpt>
      <trkpt lat="47.22886" lon="6.03068">
        <ele>252.4</ele>
        <time>2024-08-05T12:02:11Z</time>
      </trkpt>
      <trkpt lat="47.2289" lon="6.03064">
        <ele>252.4</ele>
        <time>2024-08-05T12:02:12Z</time>
      </trkpt>
      <trkpt lat="47.22894" lon="6.03061">
        <ele>252.6</ele>
        <time>2024-08-05T12:02:13Z</time>
      </trkpt>
      <trkpt lat="47.22899" lon="6.03059">
        <ele>252.6</ele>
        <time>2024-08-05T12:02:14Z</time>
      </trkpt>
      <trkpt lat="47.22904" lon="6.03057">
        <ele>252.6</ele>
        <time>2024-08-05T12:02:15Z</time>
      </trkpt>
      <trkpt lat="47.22909" lon="6.03055">
        <ele>252.4</ele>
        <time>2024-08-05T12:02:16Z</time>
      </trkpt>
      <trkpt lat="47.22914" lon="6.03054">
        <ele>252.4</ele>
        <time>2024-08-05T12:02:17Z</time>
      </trkpt>
      <trkpt lat="47.22919" lon="6.03053">
        <ele>252.4</ele>
        <time>2024-08-05T12:02:18Z</time>
      </trkpt>
      <trkpt lat="47.22924" lon="6.03052">
        <ele>252.4</ele>
        <time>2024-08-05T12:02:19Z</time>
      </trkpt>
      <trkpt lat="47.22928" lon="6.03051">
        <ele>252.4</ele>
        <time>2024-08-05T12:02:20Z</time>
      </trkpt>
      <trkpt lat="47.22932" lon="6.03051">
        <ele>252.4</ele>
        <time>2024-08-05T12:02:21Z</time>
      </trkpt>
      <trkpt lat="47.22937" lon="6.03053">
        <ele>252.4</ele>
        <time>2024-08-05T12:02:22Z</time>
      </trkpt>
      <trkpt lat="47.22942" lon="6.03054">
        <ele>252.6</ele>
        <time>2024-08-05T12:02:23Z</time>
      </trkpt>
      <trkpt lat="47.22947" lon="6.03055">
        <ele>252.6</ele>
        <time>2024-08-05T12:02:24Z</time>
      </trkpt>
      <trkpt lat="47.22951" lon="6.03053">
        <ele>252.8</ele>
        <time>2024-08-05T12:02:25Z</time>
      </trkpt>
      <trkpt lat="47.22956" lon="6.03051">
        <ele>252.8</ele>
        <time>2024-08-05T12:02:26Z</time>
      </trkpt>
      <trkpt lat="47.22961" lon="6.03048">
        <ele>252.8</ele>
        <time>2024-08-05T12:02:27Z</time>
      </trkpt>
      <trkpt lat="47.22965" lon="6.03046">
        <ele>252.8</ele>
        <time>2024-08-05T12:02:28Z</time>
      </trkpt>
      <trkpt lat="47.2297" lon="6.03045">
        <ele>252.8</ele>
        <time>2024-08-05T12:02:29Z</time>
      </trkpt>
      <trkpt lat="47.22975" lon="6.03045">
        <ele>252.8</ele>
        <time>2024-08-05T12:02:30Z</time>
      </trkpt>
      <trkpt lat="47.22979" lon="6.03045">
        <ele>252.6</ele>
        <time>2024-08-05T12:02:31Z</time>
      </trkpt>
      <trkpt lat="47.22992" lon="6.03051">
        <ele>252.8</ele>
        <time>2024-08-05T12:02:34Z</time>
      </trkpt>
      <trkpt lat="47.22995" lon="6.03056">
        <ele>252.8</ele>
        <time>2024-08-05T12:02:35Z</time>
      </trkpt>
      <trkpt lat="47.22996" lon="6.03058">
        <ele>252.8</ele>
        <time>2024-08-05T12:02:36Z</time>
      </trkpt>
      <trkpt lat="47.22998" lon="6.03059">
        <ele>252.8</ele>
        <time>2024-08-05T12:02:37Z</time>
      </trkpt>
      <trkpt lat="47.23" lon="6.03062">
        <ele>252.8</ele>
        <time>2024-08-05T12:02:38Z</time>
      </trkpt>
      <trkpt lat="47.23001" lon="6.03064">
        <ele>252.8</ele>
        <time>2024-08-05T12:02:39Z</time>
      </trkpt>
      <trkpt lat="47.23002" lon="6.03065">
        <ele>252.8</ele>
        <time>2024-08-05T12:02:40Z</time>
      </trkpt>
      <trkpt lat="47.23004" lon="6.03065">
        <ele>252.8</ele>
        <time>2024-08-05T12:02:41Z</time>
      </trkpt>
      <trkpt lat="47.23007" lon="6.03066">
        <ele>252.8</ele>
        <time>2024-08-05T12:02:42Z</time>
      </trkpt>
      <trkpt lat="47.2301" lon="6.03065">
        <ele>252.8</ele>
        <time>2024-08-05T12:02:43Z</time>
      </trkpt>
      <trkpt lat="47.23123" lon="6.03591">
        <ele>254</ele>
        <time>2024-08-05T12:04:10Z</time>
      </trkpt>
      <trkpt lat="47.23133" lon="6.03599">
        <ele>254</ele>
        <time>2024-08-05T12:04:11Z</time>
      </trkpt>
      <trkpt lat="47.23135" lon="6.03602">
        <ele>254.2</ele>
        <time>2024-08-05T12:04:12Z</time>
      </trkpt>
      <trkpt lat="47.23135" lon="6.03606">
        <ele>254.2</ele>
        <time>2024-08-05T12:04:13Z</time>
      </trkpt>
      <trkpt lat="47.23135" lon="6.03609">
        <ele>254.4</ele>
        <time>2024-08-05T12:04:14Z</time>
      </trkpt>
      <trkpt lat="47.23134" lon="6.03613">
        <ele>254.4</ele>
        <time>2024-08-05T12:04:15Z</time>
      </trkpt>
      <trkpt lat="47.23133" lon="6.03617">
        <ele>254.8</ele>
        <time>2024-08-05T12:04:16Z</time>
      </trkpt>
      <trkpt lat="47.23132" lon="6.0362">
        <ele>254.8</ele>
        <time>2024-08-05T12:04:17Z</time>
      </trkpt>
      <trkpt lat="47.2313" lon="6.03623">
        <ele>255</ele>
        <time>2024-08-05T12:04:18Z</time>
      </trkpt>
      <trkpt lat="47.23128" lon="6.03625">
        <ele>255.2</ele>
        <time>2024-08-05T12:04:19Z</time>
      </trkpt>
      <trkpt lat="47.23126" lon="6.03628">
        <ele>255.2</ele>
        <time>2024-08-05T12:04:20Z</time>
      </trkpt>
      <trkpt lat="47.23124" lon="6.03631">
        <ele>255.4</ele>
        <time>2024-08-05T12:04:21Z</time>
      </trkpt>
      <trkpt lat="47.23122" lon="6.03634">
        <ele>255.6</ele>
        <time>2024-08-05T12:04:22Z</time>
      </trkpt>
      <trkpt lat="47.2312" lon="6.03637">
        <ele>255.4</ele>
        <time>2024-08-05T12:04:23Z</time>
      </trkpt>
      <trkpt lat="47.23118" lon="6.03638">
        <ele>255.6</ele>
        <time>2024-08-05T12:04:24Z</time>
      </trkpt>
      <trkpt lat="47.23117" lon="6.03636">
        <ele>255.4</ele>
        <time>2024-08-05T12:04:25Z</time>
      </trkpt>
      <trkpt lat="47.23117" lon="6.03633">
        <ele>255.6</ele>
        <time>2024-08-05T12:04:26Z</time>
      </trkpt>
      <trkpt lat="47.23117" lon="6.0363">
        <ele>255.6</ele>
        <time>2024-08-05T12:04:27Z</time>
      </trkpt>
      <trkpt lat="47.23118" lon="6.03626">
        <ele>255.6</ele>
        <time>2024-08-05T12:04:28Z</time>
      </trkpt>
      <trkpt lat="47.2312" lon="6.03624">
        <ele>255.6</ele>
        <time>2024-08-05T12:04:29Z</time>
      </trkpt>
      <trkpt lat="47.23123" lon="6.03621">
        <ele>255.6</ele>
        <time>2024-08-05T12:04:30Z</time>
      </trkpt>
      <trkpt lat="47.23125" lon="6.03619">
        <ele>255.6</ele>
        <time>2024-08-05T12:04:31Z</time>
      </trkpt>
      <trkpt lat="47.23126" lon="6.03616">
        <ele>255.6</ele>
        <time>2024-08-05T12:04:32Z</time>
      </trkpt>
      <trkpt lat="47.23128" lon="6.03613">
        <ele>255.8</ele>
        <time>2024-08-05T12:04:33Z</time>
      </trkpt>
      <trkpt lat="47.23129" lon="6.0361">
        <ele>255.6</ele>
        <time>2024-08-05T12:04:34Z</time>
      </trkpt>
      <trkpt lat="47.23131" lon="6.03607">
        <ele>255.8</ele>
        <time>2024-08-05T12:04:35Z</time>
      </trkpt>
      <trkpt lat="47.23132" lon="6.03604">
        <ele>255.8</ele>
        <time>2024-08-05T12:04:36Z</time>
      </trkpt>
      <trkpt lat="47.23133" lon="6.03601">
        <ele>256</ele>
        <time>2024-08-05T12:04:37Z</time>
      </trkpt>
      <trkpt lat="47.23133" lon="6.03599">
        <ele>256.2</ele>
        <time>2024-08-05T12:04:38Z</time>
      </trkpt>
      <trkpt lat="47.23134" lon="6.03596">
        <ele>256.4</ele>
        <time>2024-08-05T12:04:39Z</time>
      </trkpt>
      <trkpt lat="47.23135" lon="6.03593">
        <ele>256.4</ele>
        <time>2024-08-05T12:04:40Z</time>
      </trkpt>
      <trkpt lat="47.23136" lon="6.03591">
        <ele>256.8</ele>
        <time>2024-08-05T12:04:41Z</time>
      </trkpt>
      <trkpt lat="47.23138" lon="6.03588">
        <ele>257</ele>
        <time>2024-08-05T12:04:42Z</time>
      </trkpt>
      <trkpt lat="47.2314" lon="6.03586">
        <ele>257.4</ele>
        <time>2024-08-05T12:04:43Z</time>
      </trkpt>
      <trkpt lat="47.23143" lon="6.03584">
        <ele>257.6</ele>
        <time>2024-08-05T12:04:44Z</time>
      </trkpt>
      <trkpt lat="47.23146" lon="6.03582">
        <ele>257.8</ele>
        <time>2024-08-05T12:04:45Z</time>
      </trkpt>
      <trkpt lat="47.23149" lon="6.0358">
        <ele>258</ele>
        <time>2024-08-05T12:04:46Z</time>
      </trkpt>
      <trkpt lat="47.23152" lon="6.03578">
        <ele>258.2</ele>
        <time>2024-08-05T12:04:47Z</time>
      </trkpt>
      <trkpt lat="47.23156" lon="6.03576">
        <ele>258.4</ele>
        <time>2024-08-05T12:04:48Z</time>
      </trkpt>
      <trkpt lat="47.23159" lon="6.03575">
        <ele>258.6</ele>
        <time>2024-08-05T12:04:49Z</time>
      </trkpt>
      <trkpt lat="47.23163" lon="6.03574">
        <ele>258.4</ele>
        <time>2024-08-05T12:04:50Z</time>
      </trkpt>
      <trkpt lat="47.23167" lon="6.03575">
        <ele>258.4</ele>
        <time>2024-08-05T12:04:51Z</time>
      </trkpt>
      <trkpt lat="47.23171" lon="6.03577">
        <ele>258.4</ele>
        <time>2024-08-05T12:04:52Z</time>
      </trkpt>
      <trkpt lat="47.23175" lon="6.0358">
        <ele>258.4</ele>
        <time>2024-08-05T12:04:53Z</time>
      </trkpt>
      <trkpt lat="47.23179" lon="6.03583">
        <ele>258.6</ele>
        <time>2024-08-05T12:04:54Z</time>
      </trkpt>
      <trkpt lat="47.23184" lon="6.03587">
        <ele>258.6</ele>
        <time>2024-08-05T12:04:55Z</time>
      </trkpt>
      <trkpt lat="47.23189" lon="6.0359">
        <ele>258.6</ele>
        <time>2024-08-05T12:04:56Z</time>
      </trkpt>
      <trkpt lat="47.23194" lon="6.03592">
        <ele>258.4</ele>
        <time>2024-08-05T12:04:57Z</time>
      </trkpt>
      <trkpt lat="47.23199" lon="6.03594">
        <ele>258.6</ele>
        <time>2024-08-05T12:04:58Z</time>
      </trkpt>
      <trkpt lat="47.23205" lon="6.03595">
        <ele>258.4</ele>
        <time>2024-08-05T12:04:59Z</time>
      </trkpt>
      <trkpt lat="47.2321" lon="6.03596">
        <ele>258.6</ele>
        <time>2024-08-05T12:05:00Z</time>
      </trkpt>
      <trkpt lat="47.23216" lon="6.03596">
        <ele>258.4</ele>
        <time>2024-08-05T12:05:01Z</time>
      </trkpt>
      <trkpt lat="47.23222" lon="6.03597">
        <ele>258.4</ele>
        <time>2024-08-05T12:05:02Z</time>
      </trkpt>
      <trkpt lat="47.23227" lon="6.03597">
        <ele>258.2</ele>
        <time>2024-08-05T12:05:03Z</time>
      </trkpt>
      <trkpt lat="47.23233" lon="6.03597">
        <ele>258</ele>
        <time>2024-08-05T12:05:04Z</time>
      </trkpt>
      <trkpt lat="47.23238" lon="6.03596">
        <ele>257.8</ele>
        <time>2024-08-05T12:05:05Z</time>
      </trkpt>
      <trkpt lat="47.23244" lon="6.03595">
        <ele>257.8</ele>
        <time>2024-08-05T12:05:06Z</time>
      </trkpt>
      <trkpt lat="47.23249" lon="6.03593">
        <ele>257.6</ele>
        <time>2024-08-05T12:05:07Z</time>
      </trkpt>
      <trkpt lat="47.23254" lon="6.03592">
        <ele>257.4</ele>
        <time>2024-08-05T12:05:08Z</time>
      </trkpt>
      <trkpt lat="47.23259" lon="6.0359">
        <ele>257.2</ele>
        <time>2024-08-05T12:05:09Z</time>
      </trkpt>
      <trkpt lat="47.23264" lon="6.03587">
        <ele>257.2</ele>
        <time>2024-08-05T12:05:10Z</time>
      </trkpt>
      <trkpt lat="47.23269" lon="6.03585">
        <ele>256.8</ele>
        <time>2024-08-05T12:05:11Z</time>
      </trkpt>
      <trkpt lat="47.23274" lon="6.03583">
        <ele>257</ele>
        <time>2024-08-05T12:05:12Z</time>
      </trkpt>
      <trkpt lat="47.23279" lon="6.03581">
        <ele>256.8</ele>
        <time>2024-08-05T12:05:13Z</time>
      </trkpt>
      <trkpt lat="47.23284" lon="6.03578">
        <ele>256.8</ele>
        <time>2024-08-05T12:05:14Z</time>
      </trkpt>
      <trkpt lat="47.23289" lon="6.03576">
        <ele>256.8</ele>
        <time>2024-08-05T12:05:15Z</time>
      </trkpt>
      <trkpt lat="47.23295" lon="6.03573">
        <ele>256.6</ele>
        <time>2024-08-05T12:05:16Z</time>
      </trkpt>
      <trkpt lat="47.233" lon="6.0357">
        <ele>256.8</ele>
        <time>2024-08-05T12:05:17Z</time>
      </trkpt>
      <trkpt lat="47.23305" lon="6.03567">
        <ele>256.8</ele>
        <time>2024-08-05T12:05:18Z</time>
      </trkpt>
      <trkpt lat="47.2331" lon="6.03564">
        <ele>256.8</ele>
        <time>2024-08-05T12:05:19Z</time>
      </trkpt>
      <trkpt lat="47.23316" lon="6.03561">
        <ele>256.8</ele>
        <time>2024-08-05T12:05:20Z</time>
      </trkpt>
      <trkpt lat="47.23321" lon="6.03558">
        <ele>256.6</ele>
        <time>2024-08-05T12:05:21Z</time>
      </trkpt>
      <trkpt lat="47.23327" lon="6.03556">
        <ele>256.6</ele>
        <time>2024-08-05T12:05:22Z</time>
      </trkpt>
      <trkpt lat="47.23332" lon="6.03553">
        <ele>256.6</ele>
        <time>2024-08-05T12:05:23Z</time>
      </trkpt>
      <trkpt lat="47.23338" lon="6.03551">
        <ele>256.6</ele>
        <time>2024-08-05T12:05:24Z</time>
      </trkpt>
      <trkpt lat="47.23343" lon="6.03548">
        <ele>256.6</ele>
        <time>2024-08-05T12:05:25Z</time>
      </trkpt>
      <trkpt lat="47.23348" lon="6.03545">
        <ele>256.6</ele>
        <time>2024-08-05T12:05:26Z</time>
      </trkpt>
      <trkpt lat="47.23353" lon="6.03541">
        <ele>256.6</ele>
        <time>2024-08-05T12:05:27Z</time>
      </trkpt>
      <trkpt lat="47.23358" lon="6.03539">
        <ele>256.8</ele>
        <time>2024-08-05T12:05:28Z</time>
      </trkpt>
      <trkpt lat="47.23364" lon="6.03536">
        <ele>256.8</ele>
        <time>2024-08-05T12:05:29Z</time>
      </trkpt>
      <trkpt lat="47.23369" lon="6.03534">
        <ele>256.8</ele>
        <time>2024-08-05T12:05:30Z</time>
      </trkpt>
      <trkpt lat="47.23374" lon="6.03531">
        <ele>256.8</ele>
        <time>2024-08-05T12:05:31Z</time>
      </trkpt>
      <trkpt lat="47.23379" lon="6.03528">
        <ele>256.8</ele>
        <time>2024-08-05T12:05:32Z</time>
      </trkpt>
      <trkpt lat="47.23383" lon="6.03525">
        <ele>256.8</ele>
        <time>2024-08-05T12:05:33Z</time>
      </trkpt>
      <trkpt lat="47.23388" lon="6.03522">
        <ele>256.8</ele>
        <time>2024-08-05T12:05:34Z</time>
      </trkpt>
      <trkpt lat="47.23392" lon="6.0352">
        <ele>257</ele>
        <time>2024-08-05T12:05:35Z</time>
      </trkpt>
      <trkpt lat="47.23397" lon="6.03517">
        <ele>257</ele>
        <time>2024-08-05T12:05:36Z</time>
      </trkpt>
      <trkpt lat="47.23402" lon="6.03514">
        <ele>257</ele>
        <time>2024-08-05T12:05:37Z</time>
      </trkpt>
      <trkpt lat="47.23406" lon="6.03512">
        <ele>257.2</ele>
        <time>2024-08-05T12:05:38Z</time>
      </trkpt>
      <trkpt lat="47.23411" lon="6.03509">
        <ele>257.2</ele>
        <time>2024-08-05T12:05:39Z</time>
      </trkpt>
      <trkpt lat="47.23416" lon="6.03507">
        <ele>257.2</ele>
        <time>2024-08-05T12:05:40Z</time>
      </trkpt>
      <trkpt lat="47.23421" lon="6.03504">
        <ele>257.2</ele>
        <time>2024-08-05T12:05:41Z</time>
      </trkpt>
      <trkpt lat="47.23426" lon="6.03501">
        <ele>257.2</ele>
        <time>2024-08-05T12:05:42Z</time>
      </trkpt>
      <trkpt lat="47.2343" lon="6.03499">
        <ele>257.2</ele>
        <time>2024-08-05T12:05:43Z</time>
      </trkpt>
      <trkpt lat="47.23435" lon="6.03496">
        <ele>257.2</ele>
        <time>2024-08-05T12:05:44Z</time>
      </trkpt>
      <trkpt lat="47.23439" lon="6.03493">
        <ele>257.2</ele>
        <time>2024-08-05T12:05:45Z</time>
      </trkpt>
      <trkpt lat="47.23442" lon="6.0349">
        <ele>257.2</ele>
        <time>2024-08-05T12:05:46Z</time>
      </trkpt>
      <trkpt lat="47.23445" lon="6.03488">
        <ele>257.2</ele>
        <time>2024-08-05T12:05:47Z</time>
      </trkpt>
      <trkpt lat="47.23449" lon="6.03488">
        <ele>257.2</ele>
        <time>2024-08-05T12:05:48Z</time>
      </trkpt>
      <trkpt lat="47.23451" lon="6.03491">
        <ele>257.2</ele>
        <time>2024-08-05T12:05:49Z</time>
      </trkpt>
      <trkpt lat="47.23452" lon="6.03495">
        <ele>257.2</ele>
        <time>2024-08-05T12:05:50Z</time>
      </trkpt>
      <trkpt lat="47.23451" lon="6.035">
        <ele>257.2</ele>
        <time>2024-08-05T12:05:51Z</time>
      </trkpt>
      <trkpt lat="47.2345" lon="6.03504">
        <ele>257.2</ele>
        <time>2024-08-05T12:05:52Z</time>
      </trkpt>
      <trkpt lat="47.23447" lon="6.03508">
        <ele>257</ele>
        <time>2024-08-05T12:05:53Z</time>
      </trkpt>
      <trkpt lat="47.23445" lon="6.03512">
        <ele>257.2</ele>
        <time>2024-08-05T12:05:54Z</time>
      </trkpt>
      <trkpt lat="47.23443" lon="6.03516">
        <ele>257</ele>
        <time>2024-08-05T12:05:55Z</time>
      </trkpt>
      <trkpt lat="47.23441" lon="6.03521">
        <ele>257</ele>
        <time>2024-08-05T12:05:56Z</time>
      </trkpt>
      <trkpt lat="47.23439" lon="6.03525">
        <ele>257</ele>
        <time>2024-08-05T12:05:57Z</time>
      </trkpt>
      <trkpt lat="47.23436" lon="6.0353">
        <ele>257.2</ele>
        <time>2024-08-05T12:05:58Z</time>
      </trkpt>
      <trkpt lat="47.23434" lon="6.03535">
        <ele>257.2</ele>
        <time>2024-08-05T12:05:59Z</time>
      </trkpt>
      <trkpt lat="47.23432" lon="6.0354">
        <ele>257.2</ele>
        <time>2024-08-05T12:06:00Z</time>
      </trkpt>
      <trkpt lat="47.2343" lon="6.03545">
        <ele>257.2</ele>
        <time>2024-08-05T12:06:01Z</time>
      </trkpt>
      <trkpt lat="47.23427" lon="6.0355">
        <ele>257.2</ele>
        <time>2024-08-05T12:06:02Z</time>
      </trkpt>
      <trkpt lat="47.23424" lon="6.03554">
        <ele>257.2</ele>
        <time>2024-08-05T12:06:03Z</time>
      </trkpt>
      <trkpt lat="47.23422" lon="6.0356">
        <ele>257.2</ele>
        <time>2024-08-05T12:06:04Z</time>
      </trkpt>
      <trkpt lat="47.2342" lon="6.03565">
        <ele>257.2</ele>
        <time>2024-08-05T12:06:05Z</time>
      </trkpt>
      <trkpt lat="47.23418" lon="6.0357">
        <ele>257.4</ele>
        <time>2024-08-05T12:06:06Z</time>
      </trkpt>
      <trkpt lat="47.23415" lon="6.03576">
        <ele>257.4</ele>
        <time>2024-08-05T12:06:07Z</time>
      </trkpt>
      <trkpt lat="47.23413" lon="6.03581">
        <ele>257.4</ele>
        <time>2024-08-05T12:06:08Z</time>
      </trkpt>
      <trkpt lat="47.2341" lon="6.03587">
        <ele>257.6</ele>
        <time>2024-08-05T12:06:09Z</time>
      </trkpt>
      <trkpt lat="47.23407" lon="6.03593">
        <ele>257.6</ele>
        <time>2024-08-05T12:06:10Z</time>
      </trkpt>
      <trkpt lat="47.23405" lon="6.036">
        <ele>257.8</ele>
        <time>2024-08-05T12:06:11Z</time>
      </trkpt>
      <trkpt lat="47.23402" lon="6.03605">
        <ele>257.8</ele>
        <time>2024-08-05T12:06:12Z</time>
      </trkpt>
      <trkpt lat="47.23399" lon="6.03611">
        <ele>257.8</ele>
        <time>2024-08-05T12:06:13Z</time>
      </trkpt>
      <trkpt lat="47.23396" lon="6.03617">
        <ele>257.8</ele>
        <time>2024-08-05T12:06:14Z</time>
      </trkpt>
      <trkpt lat="47.23393" lon="6.03623">
        <ele>257.8</ele>
        <time>2024-08-05T12:06:15Z</time>
      </trkpt>
      <trkpt lat="47.2339" lon="6.03629">
        <ele>258</ele>
        <time>2024-08-05T12:06:16Z</time>
      </trkpt>
      <trkpt lat="47.23387" lon="6.03635">
        <ele>258.2</ele>
        <time>2024-08-05T12:06:17Z</time>
      </trkpt>
      <trkpt lat="47.23384" lon="6.03641">
        <ele>258</ele>
        <time>2024-08-05T12:06:18Z</time>
      </trkpt>
      <trkpt lat="47.23381" lon="6.03647">
        <ele>258.2</ele>
        <time>2024-08-05T12:06:19Z</time>
      </trkpt>
      <trkpt lat="47.23378" lon="6.03653">
        <ele>258.2</ele>
        <time>2024-08-05T12:06:20Z</time>
      </trkpt>
      <trkpt lat="47.23375" lon="6.03658">
        <ele>258.2</ele>
        <time>2024-08-05T12:06:21Z</time>
      </trkpt>
      <trkpt lat="47.23371" lon="6.03663">
        <ele>258</ele>
        <time>2024-08-05T12:06:22Z</time>
      </trkpt>
      <trkpt lat="47.23368" lon="6.03668">
        <ele>258.2</ele>
        <time>2024-08-05T12:06:23Z</time>
      </trkpt>
      <trkpt lat="47.23365" lon="6.03673">
        <ele>258.2</ele>
        <time>2024-08-05T12:06:24Z</time>
      </trkpt>
      <trkpt lat="47.2336" lon="6.03678">
        <ele>258</ele>
        <time>2024-08-05T12:06:25Z</time>
      </trkpt>
      <trkpt lat="47.23356" lon="6.03683">
        <ele>258</ele>
        <time>2024-08-05T12:06:26Z</time>
      </trkpt>
      <trkpt lat="47.23351" lon="6.03686">
        <ele>258</ele>
        <time>2024-08-05T12:06:27Z</time>
      </trkpt>
      <trkpt lat="47.23346" lon="6.03689">
        <ele>258</ele>
        <time>2024-08-05T12:06:28Z</time>
      </trkpt>
      <trkpt lat="47.23341" lon="6.03692">
        <ele>258</ele>
        <time>2024-08-05T12:06:29Z</time>
      </trkpt>
      <trkpt lat="47.23336" lon="6.03696">
        <ele>258.2</ele>
        <time>2024-08-05T12:06:30Z</time>
      </trkpt>
      <trkpt lat="47.23331" lon="6.03699">
        <ele>258</ele>
        <time>2024-08-05T12:06:31Z</time>
      </trkpt>
      <trkpt lat="47.23326" lon="6.03702">
        <ele>257.8</ele>
        <time>2024-08-05T12:06:32Z</time>
      </trkpt>
      <trkpt lat="47.23321" lon="6.03705">
        <ele>258</ele>
        <time>2024-08-05T12:06:33Z</time>
      </trkpt>
      <trkpt lat="47.23316" lon="6.03708">
        <ele>258</ele>
        <time>2024-08-05T12:06:34Z</time>
      </trkpt>
      <trkpt lat="47.23311" lon="6.0371">
        <ele>257.8</ele>
        <time>2024-08-05T12:06:35Z</time>
      </trkpt>
      <trkpt lat="47.23306" lon="6.03713">
        <ele>257.8</ele>
        <time>2024-08-05T12:06:36Z</time>
      </trkpt>
      <trkpt lat="47.23301" lon="6.03715">
        <ele>257.8</ele>
        <time>2024-08-05T12:06:37Z</time>
      </trkpt>
      <trkpt lat="47.23296" lon="6.03718">
        <ele>257.6</ele>
        <time>2024-08-05T12:06:38Z</time>
      </trkpt>
      <trkpt lat="47.23291" lon="6.03721">
        <ele>257.6</ele>
        <time>2024-08-05T12:06:39Z</time>
      </trkpt>
      <trkpt lat="47.23286" lon="6.03724">
        <ele>257.6</ele>
        <time>2024-08-05T12:06:40Z</time>
      </trkpt>
      <trkpt lat="47.23281" lon="6.03726">
        <ele>257.6</ele>
        <time>2024-08-05T12:06:41Z</time>
      </trkpt>
      <trkpt lat="47.23276" lon="6.03729">
        <ele>257.4</ele>
        <time>2024-08-05T12:06:42Z</time>
      </trkpt>
      <trkpt lat="47.23271" lon="6.03731">
        <ele>257.4</ele>
        <time>2024-08-05T12:06:43Z</time>
      </trkpt>
      <trkpt lat="47.23266" lon="6.03733">
        <ele>257.4</ele>
        <time>2024-08-05T12:06:44Z</time>
      </trkpt>
      <trkpt lat="47.23262" lon="6.03735">
        <ele>257.4</ele>
        <time>2024-08-05T12:06:45Z</time>
      </trkpt>
      <trkpt lat="47.23257" lon="6.03737">
        <ele>257.4</ele>
        <time>2024-08-05T12:06:46Z</time>
      </trkpt>
      <trkpt lat="47.23252" lon="6.03739">
        <ele>257.4</ele>
        <time>2024-08-05T12:06:47Z</time>
      </trkpt>
      <trkpt lat="47.23247" lon="6.03741">
        <ele>257.4</ele>
        <time>2024-08-05T12:06:48Z</time>
      </trkpt>
      <trkpt lat="47.23243" lon="6.03744">
        <ele>257.4</ele>
        <time>2024-08-05T12:06:49Z</time>
      </trkpt>
      <trkpt lat="47.2324" lon="6.03746">
        <ele>257.4</ele>
        <time>2024-08-05T12:06:50Z</time>
      </trkpt>
      <trkpt lat="47.23237" lon="6.0375">
        <ele>257.2</ele>
        <time>2024-08-05T12:06:51Z</time>
      </trkpt>
      <trkpt lat="47.23234" lon="6.03753">
        <ele>257.4</ele>
        <time>2024-08-05T12:06:52Z</time>
      </trkpt>
      <trkpt lat="47.23232" lon="6.03758">
        <ele>257.2</ele>
        <time>2024-08-05T12:06:53Z</time>
      </trkpt>
      <trkpt lat="47.2323" lon="6.03763">
        <ele>257.2</ele>
        <time>2024-08-05T12:06:54Z</time>
      </trkpt>
      <trkpt lat="47.23227" lon="6.03766">
        <ele>257.2</ele>
        <time>2024-08-05T12:06:55Z</time>
      </trkpt>
      <trkpt lat="47.23226" lon="6.03772">
        <ele>257.2</ele>
        <time>2024-08-05T12:06:56Z</time>
      </trkpt>
      <trkpt lat="47.23222" lon="6.0378">
        <ele>257.2</ele>
        <time>2024-08-05T12:06:57Z</time>
      </trkpt>
      <trkpt lat="47.23219" lon="6.03787">
        <ele>257.4</ele>
        <time>2024-08-05T12:06:58Z</time>
      </trkpt>
      <trkpt lat="47.23214" lon="6.03793">
        <ele>257.4</ele>
        <time>2024-08-05T12:06:59Z</time>
      </trkpt>
      <trkpt lat="47.23209" lon="6.03798">
        <ele>257.4</ele>
        <time>2024-08-05T12:07:00Z</time>
      </trkpt>
      <trkpt lat="47.23205" lon="6.03803">
        <ele>257.2</ele>
        <time>2024-08-05T12:07:01Z</time>
      </trkpt>
      <trkpt lat="47.232" lon="6.03807">
        <ele>257.4</ele>
        <time>2024-08-05T12:07:02Z</time>
      </trkpt>
      <trkpt lat="47.23196" lon="6.03811">
        <ele>257.4</ele>
        <time>2024-08-05T12:07:03Z</time>
      </trkpt>
      <trkpt lat="47.23191" lon="6.03816">
        <ele>257.4</ele>
        <time>2024-08-05T12:07:04Z</time>
      </trkpt>
      <trkpt lat="47.23187" lon="6.0382">
        <ele>257.4</ele>
        <time>2024-08-05T12:07:05Z</time>
      </trkpt>
      <trkpt lat="47.23183" lon="6.03824">
        <ele>257.4</ele>
        <time>2024-08-05T12:07:06Z</time>
      </trkpt>
      <trkpt lat="47.23178" lon="6.03828">
        <ele>257.4</ele>
        <time>2024-08-05T12:07:07Z</time>
      </trkpt>
      <trkpt lat="47.23174" lon="6.03832">
        <ele>257.2</ele>
        <time>2024-08-05T12:07:08Z</time>
      </trkpt>
      <trkpt lat="47.23169" lon="6.03836">
        <ele>257.4</ele>
        <time>2024-08-05T12:07:09Z</time>
      </trkpt>
      <trkpt lat="47.23165" lon="6.0384">
        <ele>257.2</ele>
        <time>2024-08-05T12:07:10Z</time>
      </trkpt>
      <trkpt lat="47.2316" lon="6.03844">
        <ele>257.4</ele>
        <time>2024-08-05T12:07:11Z</time>
      </trkpt>
      <trkpt lat="47.23156" lon="6.03848">
        <ele>257.4</ele>
        <time>2024-08-05T12:07:12Z</time>
      </trkpt>
      <trkpt lat="47.23152" lon="6.03853">
        <ele>257.4</ele>
        <time>2024-08-05T12:07:13Z</time>
      </trkpt>
      <trkpt lat="47.23148" lon="6.03857">
        <ele>257.4</ele>
        <time>2024-08-05T12:07:14Z</time>
      </trkpt>
      <trkpt lat="47.23144" lon="6.03861">
        <ele>257.4</ele>
        <time>2024-08-05T12:07:15Z</time>
      </trkpt>
      <trkpt lat="47.2314" lon="6.03865">
        <ele>257.2</ele>
        <time>2024-08-05T12:07:16Z</time>
      </trkpt>
      <trkpt lat="47.23137" lon="6.0387">
        <ele>257.2</ele>
        <time>2024-08-05T12:07:17Z</time>
      </trkpt>
      <trkpt lat="47.23134" lon="6.03874">
        <ele>257.2</ele>
        <time>2024-08-05T12:07:18Z</time>
      </trkpt>
      <trkpt lat="47.23132" lon="6.03881">
        <ele>257.4</ele>
        <time>2024-08-05T12:07:19Z</time>
      </trkpt>
      <trkpt lat="47.23132" lon="6.03887">
        <ele>257.2</ele>
        <time>2024-08-05T12:07:20Z</time>
      </trkpt>
      <trkpt lat="47.23132" lon="6.03894">
        <ele>257.4</ele>
        <time>2024-08-05T12:07:21Z</time>
      </trkpt>
      <trkpt lat="47.23134" lon="6.039">
        <ele>257.4</ele>
        <time>2024-08-05T12:07:22Z</time>
      </trkpt>
      <trkpt lat="47.23135" lon="6.03906">
        <ele>257.6</ele>
        <time>2024-08-05T12:07:23Z</time>
      </trkpt>
      <trkpt lat="47.23137" lon="6.03912">
        <ele>257.4</ele>
        <time>2024-08-05T12:07:24Z</time>
      </trkpt>
      <trkpt lat="47.23139" lon="6.03918">
        <ele>257.4</ele>
        <time>2024-08-05T12:07:25Z</time>
      </trkpt>
      <trkpt lat="47.23141" lon="6.03924">
        <ele>257.4</ele>
        <time>2024-08-05T12:07:26Z</time>
      </trkpt>
      <trkpt lat="47.23141" lon="6.0393">
        <ele>257.4</ele>
        <time>2024-08-05T12:07:27Z</time>
      </trkpt>
      <trkpt lat="47.2314" lon="6.03935">
        <ele>257.4</ele>
        <time>2024-08-05T12:07:28Z</time>
      </trkpt>
      <trkpt lat="47.23137" lon="6.0394">
        <ele>257.6</ele>
        <time>2024-08-05T12:07:29Z</time>
      </trkpt>
      <trkpt lat="47.23134" lon="6.03944">
        <ele>257.4</ele>
        <time>2024-08-05T12:07:30Z</time>
      </trkpt>
      <trkpt lat="47.23131" lon="6.03947">
        <ele>257.6</ele>
        <time>2024-08-05T12:07:31Z</time>
      </trkpt>
      <trkpt lat="47.23127" lon="6.03951">
        <ele>257.6</ele>
        <time>2024-08-05T12:07:32Z</time>
      </trkpt>
      <trkpt lat="47.23123" lon="6.03955">
        <ele>257.8</ele>
        <time>2024-08-05T12:07:33Z</time>
      </trkpt>
      <trkpt lat="47.2312" lon="6.03959">
        <ele>257.8</ele>
        <time>2024-08-05T12:07:34Z</time>
      </trkpt>
      <trkpt lat="47.23116" lon="6.03963">
        <ele>257.8</ele>
        <time>2024-08-05T12:07:35Z</time>
      </trkpt>
      <trkpt lat="47.23112" lon="6.03967">
        <ele>257.8</ele>
        <time>2024-08-05T12:07:36Z</time>
      </trkpt>
      <trkpt lat="47.23108" lon="6.03971">
        <ele>258</ele>
        <time>2024-08-05T12:07:37Z</time>
      </trkpt>
      <trkpt lat="47.23104" lon="6.03975">
        <ele>258</ele>
        <time>2024-08-05T12:07:38Z</time>
      </trkpt>
      <trkpt lat="47.23099" lon="6.03979">
        <ele>258.2</ele>
        <time>2024-08-05T12:07:39Z</time>
      </trkpt>
      <trkpt lat="47.23096" lon="6.03984">
        <ele>258.2</ele>
        <time>2024-08-05T12:07:40Z</time>
      </trkpt>
      <trkpt lat="47.23091" lon="6.03988">
        <ele>258.2</ele>
        <time>2024-08-05T12:07:41Z</time>
      </trkpt>
      <trkpt lat="47.23087" lon="6.03992">
        <ele>258.2</ele>
        <time>2024-08-05T12:07:42Z</time>
      </trkpt>
      <trkpt lat="47.23082" lon="6.03995">
        <ele>258.2</ele>
        <time>2024-08-05T12:07:43Z</time>
      </trkpt>
      <trkpt lat="47.23078" lon="6.03999">
        <ele>258.4</ele>
        <time>2024-08-05T12:07:44Z</time>
      </trkpt>
      <trkpt lat="47.23075" lon="6.04005">
        <ele>258.4</ele>
        <time>2024-08-05T12:07:45Z</time>
      </trkpt>
      <trkpt lat="47.23071" lon="6.04009">
        <ele>258.6</ele>
        <time>2024-08-05T12:07:46Z</time>
      </trkpt>
      <trkpt lat="47.23067" lon="6.04013">
        <ele>258.4</ele>
        <time>2024-08-05T12:07:47Z</time>
      </trkpt>
      <trkpt lat="47.23063" lon="6.04018">
        <ele>258.6</ele>
        <time>2024-08-05T12:07:48Z</time>
      </trkpt>
      <trkpt lat="47.23059" lon="6.04022">
        <ele>258.6</ele>
        <time>2024-08-05T12:07:49Z</time>
      </trkpt>
      <trkpt lat="47.23054" lon="6.04026">
        <ele>258.6</ele>
        <time>2024-08-05T12:07:50Z</time>
      </trkpt>
      <trkpt lat="47.23049" lon="6.0403">
        <ele>258.6</ele>
        <time>2024-08-05T12:07:51Z</time>
      </trkpt>
      <trkpt lat="47.23045" lon="6.04034">
        <ele>258.4</ele>
        <time>2024-08-05T12:07:52Z</time>
      </trkpt>
      <trkpt lat="47.2304" lon="6.04038">
        <ele>258.4</ele>
        <time>2024-08-05T12:07:53Z</time>
      </trkpt>
      <trkpt lat="47.23036" lon="6.04043">
        <ele>258.4</ele>
        <time>2024-08-05T12:07:54Z</time>
      </trkpt>
      <trkpt lat="47.23031" lon="6.04047">
        <ele>258.4</ele>
        <time>2024-08-05T12:07:55Z</time>
      </trkpt>
      <trkpt lat="47.23027" lon="6.04051">
        <ele>258.6</ele>
        <time>2024-08-05T12:07:56Z</time>
      </trkpt>
      <trkpt lat="47.23022" lon="6.04055">
        <ele>258.4</ele>
        <time>2024-08-05T12:07:57Z</time>
      </trkpt>
      <trkpt lat="47.23017" lon="6.04059">
        <ele>258</ele>
        <time>2024-08-05T12:07:58Z</time>
      </trkpt>
      <trkpt lat="47.23012" lon="6.04063">
        <ele>257.8</ele>
        <time>2024-08-05T12:07:59Z</time>
      </trkpt>
      <trkpt lat="47.23008" lon="6.04067">
        <ele>257.8</ele>
        <time>2024-08-05T12:08:00Z</time>
      </trkpt>
      <trkpt lat="47.23003" lon="6.04072">
        <ele>257.8</ele>
        <time>2024-08-05T12:08:01Z</time>
      </trkpt>
      <trkpt lat="47.22998" lon="6.04077">
        <ele>257.8</ele>
        <time>2024-08-05T12:08:02Z</time>
      </trkpt>
      <trkpt lat="47.22993" lon="6.04081">
        <ele>257.8</ele>
        <time>2024-08-05T12:08:03Z</time>
      </trkpt>
      <trkpt lat="47.22989" lon="6.04086">
        <ele>257.8</ele>
        <time>2024-08-05T12:08:04Z</time>
      </trkpt>
      <trkpt lat="47.22984" lon="6.04091">
        <ele>257.8</ele>
        <time>2024-08-05T12:08:05Z</time>
      </trkpt>
      <trkpt lat="47.2298" lon="6.04096">
        <ele>257.8</ele>
        <time>2024-08-05T12:08:06Z</time>
      </trkpt>
      <trkpt lat="47.22977" lon="6.04101">
        <ele>257.8</ele>
        <time>2024-08-05T12:08:07Z</time>
      </trkpt>
      <trkpt lat="47.22972" lon="6.04106">
        <ele>257.8</ele>
        <time>2024-08-05T12:08:08Z</time>
      </trkpt>
      <trkpt lat="47.22968" lon="6.0411">
        <ele>257.8</ele>
        <time>2024-08-05T12:08:09Z</time>
      </trkpt>
      <trkpt lat="47.22962" lon="6.04113">
        <ele>257.8</ele>
        <time>2024-08-05T12:08:10Z</time>
      </trkpt>
      <trkpt lat="47.22958" lon="6.04118">
        <ele>257.8</ele>
        <time>2024-08-05T12:08:11Z</time>
      </trkpt>
      <trkpt lat="47.22954" lon="6.04123">
        <ele>257.8</ele>
        <time>2024-08-05T12:08:12Z</time>
      </trkpt>
      <trkpt lat="47.22947" lon="6.04124">
        <ele>257.8</ele>
        <time>2024-08-05T12:08:13Z</time>
      </trkpt>
      <trkpt lat="47.22943" lon="6.04129">
        <ele>257.8</ele>
        <time>2024-08-05T12:08:14Z</time>
      </trkpt>
      <trkpt lat="47.22938" lon="6.04132">
        <ele>257.8</ele>
        <time>2024-08-05T12:08:15Z</time>
      </trkpt>
      <trkpt lat="47.22934" lon="6.04137">
        <ele>257.8</ele>
        <time>2024-08-05T12:08:16Z</time>
      </trkpt>
      <trkpt lat="47.22931" lon="6.04141">
        <ele>257.8</ele>
        <time>2024-08-05T12:08:17Z</time>
      </trkpt>
      <trkpt lat="47.22926" lon="6.04143">
        <ele>257.8</ele>
        <time>2024-08-05T12:08:18Z</time>
      </trkpt>
      <trkpt lat="47.22922" lon="6.04146">
        <ele>257.8</ele>
        <time>2024-08-05T12:08:19Z</time>
      </trkpt>
      <trkpt lat="47.22919" lon="6.04148">
        <ele>258</ele>
        <time>2024-08-05T12:08:20Z</time>
      </trkpt>
      <trkpt lat="47.22916" lon="6.04151">
        <ele>258</ele>
        <time>2024-08-05T12:08:21Z</time>
      </trkpt>
      <trkpt lat="47.22915" lon="6.04155">
        <ele>258</ele>
        <time>2024-08-05T12:08:22Z</time>
      </trkpt>
      <trkpt lat="47.22913" lon="6.04158">
        <ele>258.2</ele>
        <time>2024-08-05T12:08:23Z</time>
      </trkpt>
      <trkpt lat="47.22911" lon="6.04161">
        <ele>258.2</ele>
        <time>2024-08-05T12:08:24Z</time>
      </trkpt>
      <trkpt lat="47.22909" lon="6.04164">
        <ele>258.6</ele>
        <time>2024-08-05T12:08:25Z</time>
      </trkpt>
      <trkpt lat="47.22906" lon="6.04167">
        <ele>258.4</ele>
        <time>2024-08-05T12:08:26Z</time>
      </trkpt>
      <trkpt lat="47.22904" lon="6.0417">
        <ele>258.6</ele>
        <time>2024-08-05T12:08:27Z</time>
      </trkpt>
      <trkpt lat="47.229" lon="6.04173">
        <ele>258.6</ele>
        <time>2024-08-05T12:08:28Z</time>
      </trkpt>
      <trkpt lat="47.22898" lon="6.04176">
        <ele>258.6</ele>
        <time>2024-08-05T12:08:29Z</time>
      </trkpt>
      <trkpt lat="47.22896" lon="6.0418">
        <ele>258.6</ele>
        <time>2024-08-05T12:08:30Z</time>
      </trkpt>
      <trkpt lat="47.22893" lon="6.04184">
        <ele>259</ele>
        <time>2024-08-05T12:08:31Z</time>
      </trkpt>
      <trkpt lat="47.22893" lon="6.04189">
        <ele>259.2</ele>
        <time>2024-08-05T12:08:32Z</time>
      </trkpt>
      <trkpt lat="47.22893" lon="6.04192">
        <ele>259.2</ele>
        <time>2024-08-05T12:08:33Z</time>
      </trkpt>
      <trkpt lat="47.2289" lon="6.04195">
        <ele>259.4</ele>
        <time>2024-08-05T12:08:34Z</time>
      </trkpt>
      <trkpt lat="47.22888" lon="6.04197">
        <ele>259.4</ele>
        <time>2024-08-05T12:08:35Z</time>
      </trkpt>
      <trkpt lat="47.22885" lon="6.04198">
        <ele>259.8</ele>
        <time>2024-08-05T12:08:36Z</time>
      </trkpt>
      <trkpt lat="47.22885" lon="6.042">
        <ele>259.8</ele>
        <time>2024-08-05T12:08:37Z</time>
      </trkpt>
      <trkpt lat="47.22885" lon="6.04202">
        <ele>260</ele>
        <time>2024-08-05T12:08:38Z</time>
      </trkpt>
      <trkpt lat="47.22883" lon="6.04202">
        <ele>260.2</ele>
        <time>2024-08-05T12:08:39Z</time>
      </trkpt>
      <trkpt lat="47.22882" lon="6.04204">
        <ele>260.4</ele>
        <time>2024-08-05T12:08:40Z</time>
      </trkpt>
      <trkpt lat="47.22881" lon="6.04205">
        <ele>260.6</ele>
        <time>2024-08-05T12:08:41Z</time>
      </trkpt>
      <trkpt lat="47.2288" lon="6.04207">
        <ele>260.6</ele>
        <time>2024-08-05T12:08:42Z</time>
      </trkpt>
      <trkpt lat="47.22878" lon="6.0421">
        <ele>261</ele>
        <time>2024-08-05T12:08:43Z</time>
      </trkpt>
      <trkpt lat="47.22878" lon="6.04213">
        <ele>261</ele>
        <time>2024-08-05T12:08:44Z</time>
      </trkpt>
      <trkpt lat="47.22877" lon="6.04217">
        <ele>261.4</ele>
        <time>2024-08-05T12:08:45Z</time>
      </trkpt>
      <trkpt lat="47.22876" lon="6.0422">
        <ele>261.6</ele>
        <time>2024-08-05T12:08:46Z</time>
      </trkpt>
      <trkpt lat="47.22876" lon="6.04223">
        <ele>261.8</ele>
        <time>2024-08-05T12:08:47Z</time>
      </trkpt>
      <trkpt lat="47.22875" lon="6.04227">
        <ele>262.2</ele>
        <time>2024-08-05T12:08:48Z</time>
      </trkpt>
      <trkpt lat="47.22875" lon="6.04229">
        <ele>262.2</ele>
        <time>2024-08-05T12:08:49Z</time>
      </trkpt>
      <trkpt lat="47.22875" lon="6.04232">
        <ele>262.6</ele>
        <time>2024-08-05T12:08:50Z</time>
      </trkpt>
      <trkpt lat="47.22875" lon="6.04237">
        <ele>262.8</ele>
        <time>2024-08-05T12:08:51Z</time>
      </trkpt>
      <trkpt lat="47.22875" lon="6.04241">
        <ele>263</ele>
        <time>2024-08-05T12:08:52Z</time>
      </trkpt>
      <trkpt lat="47.22875" lon="6.04244">
        <ele>263</ele>
        <time>2024-08-05T12:08:53Z</time>
      </trkpt>
      <trkpt lat="47.22875" lon="6.04249">
        <ele>263.2</ele>
        <time>2024-08-05T12:08:54Z</time>
      </trkpt>
      <trkpt lat="47.22877" lon="6.04253">
        <ele>263.2</ele>
        <time>2024-08-05T12:08:55Z</time>
      </trkpt>
      <trkpt lat="47.22878" lon="6.04257">
        <ele>263.2</ele>
        <time>2024-08-05T12:08:56Z</time>
      </trkpt>
      <trkpt lat="47.22878" lon="6.0426">
        <ele>263.4</ele>
        <time>2024-08-05T12:08:57Z</time>
      </trkpt>
      <trkpt lat="47.22878" lon="6.04263">
        <ele>263.4</ele>
        <time>2024-08-05T12:08:58Z</time>
      </trkpt>
      <trkpt lat="47.22878" lon="6.04267">
        <ele>263.6</ele>
        <time>2024-08-05T12:08:59Z</time>
      </trkpt>
      <trkpt lat="47.22878" lon="6.04271">
        <ele>263.6</ele>
        <time>2024-08-05T12:09:00Z</time>
      </trkpt>
      <trkpt lat="47.22879" lon="6.04275">
        <ele>263.8</ele>
        <time>2024-08-05T12:09:01Z</time>
      </trkpt>
      <trkpt lat="47.2288" lon="6.04279">
        <ele>263.6</ele>
        <time>2024-08-05T12:09:02Z</time>
      </trkpt>
      <trkpt lat="47.2288" lon="6.04282">
        <ele>264</ele>
        <time>2024-08-05T12:09:03Z</time>
      </trkpt>
      <trkpt lat="47.2288" lon="6.04285">
        <ele>264.2</ele>
        <time>2024-08-05T12:09:04Z</time>
      </trkpt>
      <trkpt lat="47.2288" lon="6.04289">
        <ele>264.2</ele>
        <time>2024-08-05T12:09:05Z</time>
      </trkpt>
      <trkpt lat="47.2288" lon="6.04293">
        <ele>264.4</ele>
        <time>2024-08-05T12:09:06Z</time>
      </trkpt>
      <trkpt lat="47.2288" lon="6.04297">
        <ele>264.6</ele>
        <time>2024-08-05T12:09:07Z</time>
      </trkpt>
      <trkpt lat="47.22881" lon="6.04301">
        <ele>264.4</ele>
        <time>2024-08-05T12:09:08Z</time>
      </trkpt>
      <trkpt lat="47.22881" lon="6.04304">
        <ele>264.8</ele>
        <time>2024-08-05T12:09:09Z</time>
      </trkpt>
      <trkpt lat="47.22881" lon="6.04308">
        <ele>264.8</ele>
        <time>2024-08-05T12:09:10Z</time>
      </trkpt>
      <trkpt lat="47.22881" lon="6.04311">
        <ele>265</ele>
        <time>2024-08-05T12:09:11Z</time>
      </trkpt>
      <trkpt lat="47.22881" lon="6.04314">
        <ele>265.2</ele>
        <time>2024-08-05T12:09:12Z</time>
      </trkpt>
      <trkpt lat="47.22881" lon="6.04317">
        <ele>265.4</ele>
        <time>2024-08-05T12:09:13Z</time>
      </trkpt>
      <trkpt lat="47.22881" lon="6.04319">
        <ele>265.4</ele>
        <time>2024-08-05T12:09:14Z</time>
      </trkpt>
      <trkpt lat="47.22881" lon="6.04322">
        <ele>265.6</ele>
        <time>2024-08-05T12:09:15Z</time>
      </trkpt>
      <trkpt lat="47.22882" lon="6.04325">
        <ele>265.8</ele>
        <time>2024-08-05T12:09:16Z</time>
      </trkpt>
      <trkpt lat="47.22883" lon="6.04328">
        <ele>265.8</ele>
        <time>2024-08-05T12:09:17Z</time>
      </trkpt>
      <trkpt lat="47.22883" lon="6.04331">
        <ele>265.8</ele>
        <time>2024-08-05T12:09:18Z</time>
      </trkpt>
      <trkpt lat="47.22883" lon="6.04334">
        <ele>266</ele>
        <time>2024-08-05T12:09:19Z</time>
      </trkpt>
      <trkpt lat="47.22884" lon="6.04337">
        <ele>266.2</ele>
        <time>2024-08-05T12:09:20Z</time>
      </trkpt>
      <trkpt lat="47.22885" lon="6.04339">
        <ele>266.4</ele>
        <time>2024-08-05T12:09:21Z</time>
      </trkpt>
      <trkpt lat="47.22886" lon="6.04342">
        <ele>266.6</ele>
        <time>2024-08-05T12:09:22Z</time>
      </trkpt>
      <trkpt lat="47.22887" lon="6.04345">
        <ele>266.6</ele>
        <time>2024-08-05T12:09:23Z</time>
      </trkpt>
      <trkpt lat="47.22887" lon="6.04347">
        <ele>266.8</ele>
        <time>2024-08-05T12:09:24Z</time>
      </trkpt>
      <trkpt lat="47.22887" lon="6.0435">
        <ele>267</ele>
        <time>2024-08-05T12:09:25Z</time>
      </trkpt>
      <trkpt lat="47.22888" lon="6.04352">
        <ele>267.2</ele>
        <time>2024-08-05T12:09:26Z</time>
      </trkpt>
      <trkpt lat="47.22888" lon="6.04354">
        <ele>267.6</ele>
        <time>2024-08-05T12:09:27Z</time>
      </trkpt>
      <trkpt lat="47.22888" lon="6.04357">
        <ele>267.8</ele>
        <time>2024-08-05T12:09:28Z</time>
      </trkpt>
      <trkpt lat="47.22888" lon="6.04359">
        <ele>268</ele>
        <time>2024-08-05T12:09:29Z</time>
      </trkpt>
      <trkpt lat="47.22888" lon="6.04362">
        <ele>268.2</ele>
        <time>2024-08-05T12:09:30Z</time>
      </trkpt>
      <trkpt lat="47.22888" lon="6.04365">
        <ele>268.2</ele>
        <time>2024-08-05T12:09:31Z</time>
      </trkpt>
      <trkpt lat="47.22889" lon="6.04368">
        <ele>268.4</ele>
        <time>2024-08-05T12:09:32Z</time>
      </trkpt>
      <trkpt lat="47.22889" lon="6.0437">
        <ele>268.6</ele>
        <time>2024-08-05T12:09:33Z</time>
      </trkpt>
      <trkpt lat="47.22889" lon="6.04373">
        <ele>268.8</ele>
        <time>2024-08-05T12:09:34Z</time>
      </trkpt>
      <trkpt lat="47.2289" lon="6.04375">
        <ele>269</ele>
        <time>2024-08-05T12:09:35Z</time>
      </trkpt>
      <trkpt lat="47.2289" lon="6.04378">
        <ele>269.2</ele>
        <time>2024-08-05T12:09:36Z</time>
      </trkpt>
      <trkpt lat="47.22891" lon="6.0438">
        <ele>269.4</ele>
        <time>2024-08-05T12:09:37Z</time>
      </trkpt>
      <trkpt lat="47.22891" lon="6.04383">
        <ele>269.4</ele>
        <time>2024-08-05T12:09:38Z</time>
      </trkpt>
      <trkpt lat="47.22892" lon="6.04385">
        <ele>269.4</ele>
        <time>2024-08-05T12:09:39Z</time>
      </trkpt>
      <trkpt lat="47.22892" lon="6.04387">
        <ele>269.6</ele>
        <time>2024-08-05T12:09:40Z</time>
      </trkpt>
      <trkpt lat="47.22893" lon="6.0439">
        <ele>269.6</ele>
        <time>2024-08-05T12:09:41Z</time>
      </trkpt>
      <trkpt lat="47.22893" lon="6.04392">
        <ele>270</ele>
        <time>2024-08-05T12:09:42Z</time>
      </trkpt>
      <trkpt lat="47.22893" lon="6.04394">
        <ele>270.2</ele>
        <time>2024-08-05T12:09:43Z</time>
      </trkpt>
      <trkpt lat="47.22892" lon="6.04397">
        <ele>270.6</ele>
        <time>2024-08-05T12:09:44Z</time>
      </trkpt>
      <trkpt lat="47.22892" lon="6.04399">
        <ele>271</ele>
        <time>2024-08-05T12:09:45Z</time>
      </trkpt>
      <trkpt lat="47.22893" lon="6.04401">
        <ele>271.4</ele>
        <time>2024-08-05T12:09:46Z</time>
      </trkpt>
      <trkpt lat="47.22893" lon="6.04404">
        <ele>271.8</ele>
        <time>2024-08-05T12:09:47Z</time>
      </trkpt>
      <trkpt lat="47.22894" lon="6.04406">
        <ele>272</ele>
        <time>2024-08-05T12:09:48Z</time>
      </trkpt>
      <trkpt lat="47.22895" lon="6.04409">
        <ele>272.2</ele>
        <time>2024-08-05T12:09:49Z</time>
      </trkpt>
      <trkpt lat="47.22895" lon="6.04411">
        <ele>272.4</ele>
        <time>2024-08-05T12:09:50Z</time>
      </trkpt>
      <trkpt lat="47.22896" lon="6.04413">
        <ele>272.8</ele>
        <time>2024-08-05T12:09:51Z</time>
      </trkpt>
      <trkpt lat="47.22896" lon="6.04415">
        <ele>272.8</ele>
        <time>2024-08-05T12:09:52Z</time>
      </trkpt>
      <trkpt lat="47.22897" lon="6.04418">
        <ele>273</ele>
        <time>2024-08-05T12:09:53Z</time>
      </trkpt>
      <trkpt lat="47.22897" lon="6.0442">
        <ele>273.4</ele>
        <time>2024-08-05T12:09:54Z</time>
      </trkpt>
      <trkpt lat="47.22898" lon="6.04422">
        <ele>273.4</ele>
        <time>2024-08-05T12:09:55Z</time>
      </trkpt>
      <trkpt lat="47.22898" lon="6.04424">
        <ele>273.8</ele>
        <time>2024-08-05T12:09:56Z</time>
      </trkpt>
      <trkpt lat="47.22899" lon="6.04426">
        <ele>274.2</ele>
        <time>2024-08-05T12:09:57Z</time>
      </trkpt>
      <trkpt lat="47.22899" lon="6.04428">
        <ele>274.4</ele>
        <time>2024-08-05T12:09:58Z</time>
      </trkpt>
      <trkpt lat="47.229" lon="6.04431">
        <ele>274.6</ele>
        <time>2024-08-05T12:09:59Z</time>
      </trkpt>
      <trkpt lat="47.229" lon="6.04433">
        <ele>274.8</ele>
        <time>2024-08-05T12:10:00Z</time>
      </trkpt>
      <trkpt lat="47.22901" lon="6.04435">
        <ele>274.8</ele>
        <time>2024-08-05T12:10:01Z</time>
      </trkpt>
      <trkpt lat="47.22902" lon="6.04438">
        <ele>275</ele>
        <time>2024-08-05T12:10:02Z</time>
      </trkpt>
      <trkpt lat="47.22903" lon="6.0444">
        <ele>275.4</ele>
        <time>2024-08-05T12:10:03Z</time>
      </trkpt>
      <trkpt lat="47.22903" lon="6.04442">
        <ele>275.4</ele>
        <time>2024-08-05T12:10:04Z</time>
      </trkpt>
      <trkpt lat="47.22903" lon="6.04445">
        <ele>275.6</ele>
        <time>2024-08-05T12:10:05Z</time>
      </trkpt>
      <trkpt lat="47.22903" lon="6.04447">
        <ele>275.8</ele>
        <time>2024-08-05T12:10:06Z</time>
      </trkpt>
      <trkpt lat="47.22903" lon="6.0445">
        <ele>276</ele>
        <time>2024-08-05T12:10:07Z</time>
      </trkpt>
      <trkpt lat="47.22904" lon="6.04453">
        <ele>276.2</ele>
        <time>2024-08-05T12:10:08Z</time>
      </trkpt>
      <trkpt lat="47.22904" lon="6.04456">
        <ele>276.6</ele>
        <time>2024-08-05T12:10:09Z</time>
      </trkpt>
      <trkpt lat="47.22904" lon="6.04458">
        <ele>276.6</ele>
        <time>2024-08-05T12:10:10Z</time>
      </trkpt>
      <trkpt lat="47.22904" lon="6.0446">
        <ele>277</ele>
        <time>2024-08-05T12:10:11Z</time>
      </trkpt>
      <trkpt lat="47.22905" lon="6.04463">
        <ele>277</ele>
        <time>2024-08-05T12:10:12Z</time>
      </trkpt>
      <trkpt lat="47.22904" lon="6.04465">
        <ele>277.4</ele>
        <time>2024-08-05T12:10:13Z</time>
      </trkpt>
      <trkpt lat="47.22904" lon="6.04468">
        <ele>277.8</ele>
        <time>2024-08-05T12:10:14Z</time>
      </trkpt>
      <trkpt lat="47.22904" lon="6.04471">
        <ele>278.2</ele>
        <time>2024-08-05T12:10:15Z</time>
      </trkpt>
      <trkpt lat="47.22904" lon="6.04474">
        <ele>278.2</ele>
        <time>2024-08-05T12:10:16Z</time>
      </trkpt>
      <trkpt lat="47.22904" lon="6.04477">
        <ele>278.6</ele>
        <time>2024-08-05T12:10:17Z</time>
      </trkpt>
      <trkpt lat="47.22903" lon="6.0448">
        <ele>278.8</ele>
        <time>2024-08-05T12:10:18Z</time>
      </trkpt>
      <trkpt lat="47.22902" lon="6.04485">
        <ele>279</ele>
        <time>2024-08-05T12:10:19Z</time>
      </trkpt>
      <trkpt lat="47.22901" lon="6.04489">
        <ele>279.2</ele>
        <time>2024-08-05T12:10:20Z</time>
      </trkpt>
      <trkpt lat="47.229" lon="6.04494">
        <ele>279.2</ele>
        <time>2024-08-05T12:10:21Z</time>
      </trkpt>
      <trkpt lat="47.22898" lon="6.045">
        <ele>279.2</ele>
        <time>2024-08-05T12:10:22Z</time>
      </trkpt>
      <trkpt lat="47.22897" lon="6.04506">
        <ele>279.2</ele>
        <time>2024-08-05T12:10:23Z</time>
      </trkpt>
      <trkpt lat="47.22897" lon="6.04513">
        <ele>279.2</ele>
        <time>2024-08-05T12:10:24Z</time>
      </trkpt>
      <trkpt lat="47.22896" lon="6.0452">
        <ele>279.2</ele>
        <time>2024-08-05T12:10:25Z</time>
      </trkpt>
      <trkpt lat="47.22897" lon="6.04527">
        <ele>279.4</ele>
        <time>2024-08-05T12:10:26Z</time>
      </trkpt>
      <trkpt lat="47.22897" lon="6.04533">
        <ele>279.4</ele>
        <time>2024-08-05T12:10:27Z</time>
      </trkpt>
      <trkpt lat="47.22898" lon="6.04539">
        <ele>279.2</ele>
        <time>2024-08-05T12:10:28Z</time>
      </trkpt>
      <trkpt lat="47.22898" lon="6.04544">
        <ele>279.4</ele>
        <time>2024-08-05T12:10:29Z</time>
      </trkpt>
      <trkpt lat="47.22898" lon="6.04548">
        <ele>279.2</ele>
        <time>2024-08-05T12:10:30Z</time>
      </trkpt>
      <trkpt lat="47.22899" lon="6.04552">
        <ele>279.4</ele>
        <time>2024-08-05T12:10:31Z</time>
      </trkpt>
      <trkpt lat="47.22899" lon="6.04555">
        <ele>279.4</ele>
        <time>2024-08-05T12:10:32Z</time>
      </trkpt>
      <trkpt lat="47.22899" lon="6.04558">
        <ele>279</ele>
        <time>2024-08-05T12:10:33Z</time>
      </trkpt>
      <trkpt lat="47.229" lon="6.04561">
        <ele>279.2</ele>
        <time>2024-08-05T12:10:34Z</time>
      </trkpt>
      <trkpt lat="47.229" lon="6.04564">
        <ele>279.2</ele>
        <time>2024-08-05T12:10:35Z</time>
      </trkpt>
      <trkpt lat="47.22901" lon="6.04567">
        <ele>279.2</ele>
        <time>2024-08-05T12:10:36Z</time>
      </trkpt>
      <trkpt lat="47.22901" lon="6.0457">
        <ele>279.2</ele>
        <time>2024-08-05T12:10:37Z</time>
      </trkpt>
      <trkpt lat="47.22901" lon="6.04573">
        <ele>279.2</ele>
        <time>2024-08-05T12:10:38Z</time>
      </trkpt>
      <trkpt lat="47.22902" lon="6.04576">
        <ele>279.2</ele>
        <time>2024-08-05T12:10:39Z</time>
      </trkpt>
      <trkpt lat="47.22902" lon="6.0458">
        <ele>279.2</ele>
        <time>2024-08-05T12:10:40Z</time>
      </trkpt>
      <trkpt lat="47.22901" lon="6.04583">
        <ele>279.2</ele>
        <time>2024-08-05T12:10:41Z</time>
      </trkpt>
      <trkpt lat="47.22901" lon="6.04586">
        <ele>279.4</ele>
        <time>2024-08-05T12:10:42Z</time>
      </trkpt>
      <trkpt lat="47.229" lon="6.0459">
        <ele>279.6</ele>
        <time>2024-08-05T12:10:43Z</time>
      </trkpt>
      <trkpt lat="47.229" lon="6.04593">
        <ele>279.8</ele>
        <time>2024-08-05T12:10:44Z</time>
      </trkpt>
      <trkpt lat="47.229" lon="6.04597">
        <ele>279.8</ele>
        <time>2024-08-05T12:10:45Z</time>
      </trkpt>
      <trkpt lat="47.229" lon="6.04601">
        <ele>280</ele>
        <time>2024-08-05T12:10:46Z</time>
      </trkpt>
      <trkpt lat="47.22899" lon="6.04604">
        <ele>280</ele>
        <time>2024-08-05T12:10:47Z</time>
      </trkpt>
      <trkpt lat="47.229" lon="6.04607">
        <ele>280</ele>
        <time>2024-08-05T12:10:48Z</time>
      </trkpt>
      <trkpt lat="47.229" lon="6.04611">
        <ele>280.2</ele>
        <time>2024-08-05T12:10:49Z</time>
      </trkpt>
      <trkpt lat="47.229" lon="6.04614">
        <ele>280.4</ele>
        <time>2024-08-05T12:10:50Z</time>
      </trkpt>
      <trkpt lat="47.229" lon="6.04618">
        <ele>280.4</ele>
        <time>2024-08-05T12:10:51Z</time>
      </trkpt>
      <trkpt lat="47.22901" lon="6.04621">
        <ele>280.4</ele>
        <time>2024-08-05T12:10:52Z</time>
      </trkpt>
      <trkpt lat="47.22901" lon="6.04624">
        <ele>280.6</ele>
        <time>2024-08-05T12:10:53Z</time>
      </trkpt>
      <trkpt lat="47.22902" lon="6.04627">
        <ele>280.6</ele>
        <time>2024-08-05T12:10:54Z</time>
      </trkpt>
      <trkpt lat="47.22903" lon="6.0463">
        <ele>280.8</ele>
        <time>2024-08-05T12:10:55Z</time>
      </trkpt>
      <trkpt lat="47.22903" lon="6.04633">
        <ele>281</ele>
        <time>2024-08-05T12:10:56Z</time>
      </trkpt>
      <trkpt lat="47.22904" lon="6.04636">
        <ele>281</ele>
        <time>2024-08-05T12:10:57Z</time>
      </trkpt>
      <trkpt lat="47.22905" lon="6.04639">
        <ele>281.2</ele>
        <time>2024-08-05T12:10:58Z</time>
      </trkpt>
      <trkpt lat="47.22906" lon="6.04642">
        <ele>281.2</ele>
        <time>2024-08-05T12:10:59Z</time>
      </trkpt>
      <trkpt lat="47.22907" lon="6.04644">
        <ele>281.4</ele>
        <time>2024-08-05T12:11:00Z</time>
      </trkpt>
      <trkpt lat="47.22908" lon="6.04647">
        <ele>281.8</ele>
        <time>2024-08-05T12:11:01Z</time>
      </trkpt>
      <trkpt lat="47.22908" lon="6.04649">
        <ele>281.8</ele>
        <time>2024-08-05T12:11:02Z</time>
      </trkpt>
      <trkpt lat="47.22909" lon="6.04652">
        <ele>281.8</ele>
        <time>2024-08-05T12:11:03Z</time>
      </trkpt>
      <trkpt lat="47.2291" lon="6.04654">
        <ele>282</ele>
        <time>2024-08-05T12:11:04Z</time>
      </trkpt>
      <trkpt lat="47.22911" lon="6.04655">
        <ele>282</ele>
        <time>2024-08-05T12:11:05Z</time>
      </trkpt>
      <trkpt lat="47.22913" lon="6.04656">
        <ele>282.4</ele>
        <time>2024-08-05T12:11:06Z</time>
      </trkpt>
      <trkpt lat="47.22914" lon="6.04658">
        <ele>282.4</ele>
        <time>2024-08-05T12:11:07Z</time>
      </trkpt>
      <trkpt lat="47.22914" lon="6.04659">
        <ele>282.6</ele>
        <time>2024-08-05T12:11:08Z</time>
      </trkpt>
      <trkpt lat="47.22915" lon="6.04661">
        <ele>283</ele>
        <time>2024-08-05T12:11:09Z</time>
      </trkpt>
      <trkpt lat="47.22915" lon="6.04663">
        <ele>283.2</ele>
        <time>2024-08-05T12:11:10Z</time>
      </trkpt>
      <trkpt lat="47.22916" lon="6.04664">
        <ele>283.4</ele>
        <time>2024-08-05T12:11:11Z</time>
      </trkpt>
      <trkpt lat="47.22917" lon="6.04666">
        <ele>283.8</ele>
        <time>2024-08-05T12:11:12Z</time>
      </trkpt>
      <trkpt lat="47.22918" lon="6.04668">
        <ele>284</ele>
        <time>2024-08-05T12:11:13Z</time>
      </trkpt>
      <trkpt lat="47.22918" lon="6.0467">
        <ele>284.4</ele>
        <time>2024-08-05T12:11:14Z</time>
      </trkpt>
      <trkpt lat="47.22919" lon="6.04672">
        <ele>284.4</ele>
        <time>2024-08-05T12:11:15Z</time>
      </trkpt>
      <trkpt lat="47.22919" lon="6.04674">
        <ele>284.8</ele>
        <time>2024-08-05T12:11:16Z</time>
      </trkpt>
      <trkpt lat="47.2292" lon="6.04676">
        <ele>285.2</ele>
        <time>2024-08-05T12:11:17Z</time>
      </trkpt>
      <trkpt lat="47.22921" lon="6.04678">
        <ele>285.4</ele>
        <time>2024-08-05T12:11:18Z</time>
      </trkpt>
      <trkpt lat="47.22922" lon="6.0468">
        <ele>285.6</ele>
        <time>2024-08-05T12:11:19Z</time>
      </trkpt>
      <trkpt lat="47.22923" lon="6.04682">
        <ele>286</ele>
        <time>2024-08-05T12:11:20Z</time>
      </trkpt>
      <trkpt lat="47.22924" lon="6.04683">
        <ele>286.4</ele>
        <time>2024-08-05T12:11:21Z</time>
      </trkpt>
      <trkpt lat="47.22925" lon="6.04685">
        <ele>286.6</ele>
        <time>2024-08-05T12:11:22Z</time>
      </trkpt>
      <trkpt lat="47.22926" lon="6.04687">
        <ele>286.8</ele>
        <time>2024-08-05T12:11:23Z</time>
      </trkpt>
      <trkpt lat="47.22926" lon="6.04689">
        <ele>287.2</ele>
        <time>2024-08-05T12:11:24Z</time>
      </trkpt>
      <trkpt lat="47.22927" lon="6.04691">
        <ele>287.6</ele>
        <time>2024-08-05T12:11:25Z</time>
      </trkpt>
      <trkpt lat="47.22927" lon="6.04693">
        <ele>287.8</ele>
        <time>2024-08-05T12:11:26Z</time>
      </trkpt>
      <trkpt lat="47.22928" lon="6.04695">
        <ele>288</ele>
        <time>2024-08-05T12:11:27Z</time>
      </trkpt>
      <trkpt lat="47.22929" lon="6.04697">
        <ele>288.2</ele>
        <time>2024-08-05T12:11:28Z</time>
      </trkpt>
      <trkpt lat="47.22929" lon="6.04699">
        <ele>288.2</ele>
        <time>2024-08-05T12:11:29Z</time>
      </trkpt>
      <trkpt lat="47.2293" lon="6.04701">
        <ele>288.4</ele>
        <time>2024-08-05T12:11:30Z</time>
      </trkpt>
      <trkpt lat="47.22931" lon="6.04702">
        <ele>288.6</ele>
        <time>2024-08-05T12:11:31Z</time>
      </trkpt>
      <trkpt lat="47.22931" lon="6.04703">
        <ele>288.8</ele>
        <time>2024-08-05T12:11:32Z</time>
      </trkpt>
      <trkpt lat="47.22932" lon="6.04705">
        <ele>289.2</ele>
        <time>2024-08-05T12:11:33Z</time>
      </trkpt>
      <trkpt lat="47.22933" lon="6.04706">
        <ele>289.4</ele>
        <time>2024-08-05T12:11:34Z</time>
      </trkpt>
      <trkpt lat="47.22933" lon="6.04708">
        <ele>290</ele>
        <time>2024-08-05T12:11:35Z</time>
      </trkpt>
      <trkpt lat="47.22934" lon="6.04711">
        <ele>290.6</ele>
        <time>2024-08-05T12:11:36Z</time>
      </trkpt>
      <trkpt lat="47.22935" lon="6.04712">
        <ele>290.8</ele>
        <time>2024-08-05T12:11:37Z</time>
      </trkpt>
      <trkpt lat="47.22935" lon="6.04714">
        <ele>291.2</ele>
        <time>2024-08-05T12:11:38Z</time>
      </trkpt>
      <trkpt lat="47.22936" lon="6.04716">
        <ele>291.4</ele>
        <time>2024-08-05T12:11:39Z</time>
      </trkpt>
      <trkpt lat="47.22937" lon="6.04718">
        <ele>292</ele>
        <time>2024-08-05T12:11:40Z</time>
      </trkpt>
      <trkpt lat="47.22937" lon="6.0472">
        <ele>292.2</ele>
        <time>2024-08-05T12:11:41Z</time>
      </trkpt>
      <trkpt lat="47.22938" lon="6.04722">
        <ele>292.6</ele>
        <time>2024-08-05T12:11:42Z</time>
      </trkpt>
      <trkpt lat="47.22939" lon="6.04724">
        <ele>293</ele>
        <time>2024-08-05T12:11:43Z</time>
      </trkpt>
      <trkpt lat="47.2294" lon="6.04726">
        <ele>293.2</ele>
        <time>2024-08-05T12:11:44Z</time>
      </trkpt>
      <trkpt lat="47.2294" lon="6.04727">
        <ele>293.4</ele>
        <time>2024-08-05T12:11:45Z</time>
      </trkpt>
      <trkpt lat="47.22941" lon="6.04729">
        <ele>293.6</ele>
        <time>2024-08-05T12:11:46Z</time>
      </trkpt>
      <trkpt lat="47.22942" lon="6.04731">
        <ele>294</ele>
        <time>2024-08-05T12:11:47Z</time>
      </trkpt>
      <trkpt lat="47.22942" lon="6.04733">
        <ele>294.2</ele>
        <time>2024-08-05T12:11:48Z</time>
      </trkpt>
      <trkpt lat="47.22943" lon="6.04735">
        <ele>294.6</ele>
        <time>2024-08-05T12:11:49Z</time>
      </trkpt>
      <trkpt lat="47.22944" lon="6.04736">
        <ele>295</ele>
        <time>2024-08-05T12:11:50Z</time>
      </trkpt>
      <trkpt lat="47.22944" lon="6.04737">
        <ele>295</ele>
        <time>2024-08-05T12:11:51Z</time>
      </trkpt>
      <trkpt lat="47.22945" lon="6.04738">
        <ele>295.4</ele>
        <time>2024-08-05T12:11:52Z</time>
      </trkpt>
      <trkpt lat="47.22946" lon="6.0474">
        <ele>295.6</ele>
        <time>2024-08-05T12:11:53Z</time>
      </trkpt>
      <trkpt lat="47.22946" lon="6.04742">
        <ele>295.8</ele>
        <time>2024-08-05T12:11:54Z</time>
      </trkpt>
      <trkpt lat="47.22947" lon="6.04744">
        <ele>296.2</ele>
        <time>2024-08-05T12:11:55Z</time>
      </trkpt>
      <trkpt lat="47.22947" lon="6.04746">
        <ele>296.4</ele>
        <time>2024-08-05T12:11:56Z</time>
      </trkpt>
      <trkpt lat="47.22947" lon="6.04748">
        <ele>296.8</ele>
        <time>2024-08-05T12:11:57Z</time>
      </trkpt>
      <trkpt lat="47.22947" lon="6.0475">
        <ele>297.2</ele>
        <time>2024-08-05T12:11:58Z</time>
      </trkpt>
      <trkpt lat="47.22947" lon="6.04752">
        <ele>297.4</ele>
        <time>2024-08-05T12:11:59Z</time>
      </trkpt>
      <trkpt lat="47.22948" lon="6.04754">
        <ele>297.8</ele>
        <time>2024-08-05T12:12:00Z</time>
      </trkpt>
      <trkpt lat="47.22948" lon="6.04755">
        <ele>298.2</ele>
        <time>2024-08-05T12:12:01Z</time>
      </trkpt>
      <trkpt lat="47.22949" lon="6.04757">
        <ele>298.6</ele>
        <time>2024-08-05T12:12:02Z</time>
      </trkpt>
      <trkpt lat="47.2295" lon="6.04758">
        <ele>299</ele>
        <time>2024-08-05T12:12:03Z</time>
      </trkpt>
      <trkpt lat="47.22951" lon="6.0476">
        <ele>299.2</ele>
        <time>2024-08-05T12:12:04Z</time>
      </trkpt>
      <trkpt lat="47.22951" lon="6.04762">
        <ele>299.6</ele>
        <time>2024-08-05T12:12:05Z</time>
      </trkpt>
      <trkpt lat="47.22951" lon="6.04764">
        <ele>299.8</ele>
        <time>2024-08-05T12:12:06Z</time>
      </trkpt>
    </trkseg>
  </trk>
</gpx>